
<gpx xmlns="http://www.topografix.com/GPX/1/1" xmlns:gpxx="http://www.garmin.com/xmlschemas/GpxExtensions/v3" xmlns:xsi="http://www.w3.org/2001/XMLSchema-instance" version="1.1" creator="Adze - http://kobotsw.com/apps/adze" xsi:schemaLocation="http://www.topografix.com/GPX/1/1 http://www.topografix.com/GPX/1/1/gpx.xsd http://www.garmin.com/xmlschemas/GpxExtensions/v3 http://www.garmin.com/xmlschemas/GpxExtensionsv3.xsd">
    <metadata>
        <name>Untitled Document</name>
        <link href="http://e-ivanov.ru/projects/strava-export-gpx/"></link>
        <time>2018-02-26T07:56:25.824Z</time>
    </metadata>
    <wpt lon="100.969493" lat="12.906569">
        <name>Horseshoe Point Resort</name>
    </wpt>
    <trk>
        <name>Saturday</name>
        <extensions>
            <gpxx:TrackExtension>
                <gpxx:DisplayColor>DarkMagenta</gpxx:DisplayColor>
            </gpxx:TrackExtension>
        </extensions>
        <trkseg>
            <trkpt lon="100.974533" lat="12.906586">
                <ele>78.900000</ele>
                <time>2018-02-26T07:54:25.644Z</time>
            </trkpt>
            <trkpt lon="100.974536" lat="12.906549">
                <ele>79.200000</ele>
                <time>2018-02-26T07:54:47.644Z</time>
            </trkpt>
            <trkpt lon="100.974531" lat="12.906503">
                <ele>79.400000</ele>
                <time>2018-02-26T07:54:49.644Z</time>
            </trkpt>
            <trkpt lon="100.974520" lat="12.906478">
                <ele>79.600000</ele>
                <time>2018-02-26T07:55:27.644Z</time>
            </trkpt>
            <trkpt lon="100.974490" lat="12.906444">
                <ele>80.000000</ele>
                <time>2018-02-26T07:55:29.644Z</time>
            </trkpt>
            <trkpt lon="100.974458" lat="12.906401">
                <ele>79.900000</ele>
                <time>2018-02-26T07:55:31.644Z</time>
            </trkpt>
            <trkpt lon="100.974437" lat="12.906369">
                <ele>79.800000</ele>
                <time>2018-02-26T07:55:32.644Z</time>
            </trkpt>
            <trkpt lon="100.974422" lat="12.906332">
                <ele>79.300000</ele>
                <time>2018-02-26T07:55:33.644Z</time>
            </trkpt>
            <trkpt lon="100.974407" lat="12.906287">
                <ele>78.700000</ele>
                <time>2018-02-26T07:55:34.644Z</time>
            </trkpt>
            <trkpt lon="100.974395" lat="12.906239">
                <ele>78.400000</ele>
                <time>2018-02-26T07:55:35.644Z</time>
            </trkpt>
            <trkpt lon="100.974386" lat="12.906192">
                <ele>78.300000</ele>
                <time>2018-02-26T07:55:36.644Z</time>
            </trkpt>
            <trkpt lon="100.974378" lat="12.906146">
                <ele>77.900000</ele>
                <time>2018-02-26T07:55:37.644Z</time>
            </trkpt>
            <trkpt lon="100.974366" lat="12.906096">
                <ele>77.600000</ele>
                <time>2018-02-26T07:55:38.644Z</time>
            </trkpt>
            <trkpt lon="100.974358" lat="12.906049">
                <ele>77.500000</ele>
                <time>2018-02-26T07:55:39.644Z</time>
            </trkpt>
            <trkpt lon="100.974347" lat="12.906002">
                <ele>77.400000</ele>
                <time>2018-02-26T07:55:40.644Z</time>
            </trkpt>
            <trkpt lon="100.974334" lat="12.905956">
                <ele>77.300000</ele>
                <time>2018-02-26T07:55:41.644Z</time>
            </trkpt>
            <trkpt lon="100.974321" lat="12.905911">
                <ele>77.100000</ele>
                <time>2018-02-26T07:55:42.644Z</time>
            </trkpt>
            <trkpt lon="100.974310" lat="12.905860">
                <ele>76.900000</ele>
                <time>2018-02-26T07:55:43.644Z</time>
            </trkpt>
            <trkpt lon="100.974301" lat="12.905806">
                <ele>76.800000</ele>
                <time>2018-02-26T07:55:44.644Z</time>
            </trkpt>
            <trkpt lon="100.974290" lat="12.905752">
                <ele>76.500000</ele>
                <time>2018-02-26T07:55:45.644Z</time>
            </trkpt>
            <trkpt lon="100.974278" lat="12.905700">
                <ele>76.200000</ele>
                <time>2018-02-26T07:55:46.644Z</time>
            </trkpt>
            <trkpt lon="100.974271" lat="12.905648">
                <ele>75.900000</ele>
                <time>2018-02-26T07:55:47.644Z</time>
            </trkpt>
            <trkpt lon="100.974261" lat="12.905597">
                <ele>75.600000</ele>
                <time>2018-02-26T07:55:48.644Z</time>
            </trkpt>
            <trkpt lon="100.974250" lat="12.905549">
                <ele>75.400000</ele>
                <time>2018-02-26T07:55:49.644Z</time>
            </trkpt>
            <trkpt lon="100.974236" lat="12.905500">
                <ele>75.100000</ele>
                <time>2018-02-26T07:55:50.644Z</time>
            </trkpt>
            <trkpt lon="100.974219" lat="12.905450">
                <ele>74.700000</ele>
                <time>2018-02-26T07:55:51.644Z</time>
            </trkpt>
            <trkpt lon="100.974205" lat="12.905391">
                <ele>74.300000</ele>
                <time>2018-02-26T07:55:52.644Z</time>
            </trkpt>
            <trkpt lon="100.974189" lat="12.905333">
                <ele>74.000000</ele>
                <time>2018-02-26T07:55:53.644Z</time>
            </trkpt>
            <trkpt lon="100.974175" lat="12.905273">
                <ele>73.900000</ele>
                <time>2018-02-26T07:55:54.644Z</time>
            </trkpt>
            <trkpt lon="100.974161" lat="12.905217">
                <ele>73.700000</ele>
                <time>2018-02-26T07:55:55.644Z</time>
            </trkpt>
            <trkpt lon="100.974146" lat="12.905160">
                <ele>73.500000</ele>
                <time>2018-02-26T07:55:56.644Z</time>
            </trkpt>
            <trkpt lon="100.974132" lat="12.905103">
                <ele>73.300000</ele>
                <time>2018-02-26T07:55:57.644Z</time>
            </trkpt>
            <trkpt lon="100.974120" lat="12.905048">
                <ele>72.900000</ele>
                <time>2018-02-26T07:55:58.644Z</time>
            </trkpt>
            <trkpt lon="100.974106" lat="12.904995">
                <ele>72.600000</ele>
                <time>2018-02-26T07:55:59.644Z</time>
            </trkpt>
            <trkpt lon="100.974092" lat="12.904942">
                <ele>72.300000</ele>
                <time>2018-02-26T07:56:00.644Z</time>
            </trkpt>
            <trkpt lon="100.974078" lat="12.904891">
                <ele>71.900000</ele>
                <time>2018-02-26T07:56:01.644Z</time>
            </trkpt>
            <trkpt lon="100.974064" lat="12.904839">
                <ele>71.700000</ele>
                <time>2018-02-26T07:56:02.644Z</time>
            </trkpt>
            <trkpt lon="100.974052" lat="12.904784">
                <ele>71.400000</ele>
                <time>2018-02-26T07:56:03.644Z</time>
            </trkpt>
            <trkpt lon="100.974037" lat="12.904730">
                <ele>71.100000</ele>
                <time>2018-02-26T07:56:04.644Z</time>
            </trkpt>
            <trkpt lon="100.974017" lat="12.904687">
                <ele>71.000000</ele>
                <time>2018-02-26T07:56:05.644Z</time>
            </trkpt>
            <trkpt lon="100.973984" lat="12.904660">
                <ele>71.000000</ele>
                <time>2018-02-26T07:56:06.644Z</time>
            </trkpt>
            <trkpt lon="100.973950" lat="12.904644">
                <ele>70.900000</ele>
                <time>2018-02-26T07:56:07.644Z</time>
            </trkpt>
            <trkpt lon="100.973900" lat="12.904639">
                <ele>70.900000</ele>
                <time>2018-02-26T07:56:08.644Z</time>
            </trkpt>
            <trkpt lon="100.973851" lat="12.904631">
                <ele>70.800000</ele>
                <time>2018-02-26T07:56:09.644Z</time>
            </trkpt>
            <trkpt lon="100.973799" lat="12.904621">
                <ele>70.800000</ele>
                <time>2018-02-26T07:56:10.644Z</time>
            </trkpt>
            <trkpt lon="100.973749" lat="12.904613">
                <ele>70.700000</ele>
                <time>2018-02-26T07:56:11.644Z</time>
            </trkpt>
            <trkpt lon="100.973697" lat="12.904606">
                <ele>70.600000</ele>
                <time>2018-02-26T07:56:12.644Z</time>
            </trkpt>
            <trkpt lon="100.973638" lat="12.904598">
                <ele>70.600000</ele>
                <time>2018-02-26T07:56:13.644Z</time>
            </trkpt>
            <trkpt lon="100.973584" lat="12.904596">
                <ele>70.600000</ele>
                <time>2018-02-26T07:56:14.644Z</time>
            </trkpt>
            <trkpt lon="100.973533" lat="12.904596">
                <ele>70.500000</ele>
                <time>2018-02-26T07:56:15.644Z</time>
            </trkpt>
            <trkpt lon="100.973487" lat="12.904596">
                <ele>70.500000</ele>
                <time>2018-02-26T07:56:16.644Z</time>
            </trkpt>
            <trkpt lon="100.973443" lat="12.904595">
                <ele>70.400000</ele>
                <time>2018-02-26T07:56:17.644Z</time>
            </trkpt>
            <trkpt lon="100.973393" lat="12.904594">
                <ele>70.400000</ele>
                <time>2018-02-26T07:56:18.644Z</time>
            </trkpt>
            <trkpt lon="100.973342" lat="12.904596">
                <ele>70.400000</ele>
                <time>2018-02-26T07:56:19.644Z</time>
            </trkpt>
            <trkpt lon="100.973294" lat="12.904594">
                <ele>70.300000</ele>
                <time>2018-02-26T07:56:20.644Z</time>
            </trkpt>
            <trkpt lon="100.973252" lat="12.904591">
                <ele>70.300000</ele>
                <time>2018-02-26T07:56:21.644Z</time>
            </trkpt>
            <trkpt lon="100.973207" lat="12.904587">
                <ele>70.300000</ele>
                <time>2018-02-26T07:56:22.644Z</time>
            </trkpt>
            <trkpt lon="100.973160" lat="12.904582">
                <ele>70.200000</ele>
                <time>2018-02-26T07:56:23.644Z</time>
            </trkpt>
            <trkpt lon="100.973113" lat="12.904578">
                <ele>70.200000</ele>
                <time>2018-02-26T07:56:24.644Z</time>
            </trkpt>
            <trkpt lon="100.973068" lat="12.904572">
                <ele>70.100000</ele>
                <time>2018-02-26T07:56:25.644Z</time>
            </trkpt>
            <trkpt lon="100.973023" lat="12.904554">
                <ele>70.100000</ele>
                <time>2018-02-26T07:56:26.644Z</time>
            </trkpt>
            <trkpt lon="100.972989" lat="12.904525">
                <ele>70.000000</ele>
                <time>2018-02-26T07:56:27.644Z</time>
            </trkpt>
            <trkpt lon="100.972971" lat="12.904482">
                <ele>70.000000</ele>
                <time>2018-02-26T07:56:28.644Z</time>
            </trkpt>
            <trkpt lon="100.972960" lat="12.904439">
                <ele>70.000000</ele>
                <time>2018-02-26T07:56:29.644Z</time>
            </trkpt>
            <trkpt lon="100.972965" lat="12.904397">
                <ele>70.000000</ele>
                <time>2018-02-26T07:56:30.644Z</time>
            </trkpt>
            <trkpt lon="100.972972" lat="12.904355">
                <ele>70.000000</ele>
                <time>2018-02-26T07:56:31.644Z</time>
            </trkpt>
            <trkpt lon="100.972981" lat="12.904312">
                <ele>69.800000</ele>
                <time>2018-02-26T07:56:32.644Z</time>
            </trkpt>
            <trkpt lon="100.972986" lat="12.904272">
                <ele>69.600000</ele>
                <time>2018-02-26T07:56:33.644Z</time>
            </trkpt>
            <trkpt lon="100.972987" lat="12.904240">
                <ele>69.500000</ele>
                <time>2018-02-26T07:56:34.644Z</time>
            </trkpt>
            <trkpt lon="100.972987" lat="12.904204">
                <ele>69.400000</ele>
                <time>2018-02-26T07:56:36.644Z</time>
            </trkpt>
            <trkpt lon="100.972982" lat="12.904166">
                <ele>69.400000</ele>
                <time>2018-02-26T07:57:06.644Z</time>
            </trkpt>
            <trkpt lon="100.972950" lat="12.904122">
                <ele>69.300000</ele>
                <time>2018-02-26T07:57:08.644Z</time>
            </trkpt>
            <trkpt lon="100.972932" lat="12.904095">
                <ele>69.300000</ele>
                <time>2018-02-26T07:57:09.644Z</time>
            </trkpt>
            <trkpt lon="100.972914" lat="12.904065">
                <ele>69.300000</ele>
                <time>2018-02-26T07:57:10.644Z</time>
            </trkpt>
            <trkpt lon="100.972893" lat="12.904033">
                <ele>69.200000</ele>
                <time>2018-02-26T07:57:11.644Z</time>
            </trkpt>
            <trkpt lon="100.972871" lat="12.904001">
                <ele>69.200000</ele>
                <time>2018-02-26T07:57:12.644Z</time>
            </trkpt>
            <trkpt lon="100.972846" lat="12.903965">
                <ele>69.100000</ele>
                <time>2018-02-26T07:57:13.644Z</time>
            </trkpt>
            <trkpt lon="100.972825" lat="12.903928">
                <ele>69.100000</ele>
                <time>2018-02-26T07:57:14.644Z</time>
            </trkpt>
            <trkpt lon="100.972813" lat="12.903889">
                <ele>69.000000</ele>
                <time>2018-02-26T07:57:15.644Z</time>
            </trkpt>
            <trkpt lon="100.972804" lat="12.903855">
                <ele>68.900000</ele>
                <time>2018-02-26T07:57:16.644Z</time>
            </trkpt>
            <trkpt lon="100.972800" lat="12.903826">
                <ele>68.900000</ele>
                <time>2018-02-26T07:57:17.644Z</time>
            </trkpt>
            <trkpt lon="100.972799" lat="12.903778">
                <ele>68.800000</ele>
                <time>2018-02-26T07:57:19.644Z</time>
            </trkpt>
            <trkpt lon="100.972809" lat="12.903729">
                <ele>68.800000</ele>
                <time>2018-02-26T07:57:21.644Z</time>
            </trkpt>
            <trkpt lon="100.972817" lat="12.903702">
                <ele>68.700000</ele>
                <time>2018-02-26T07:57:22.644Z</time>
            </trkpt>
            <trkpt lon="100.972826" lat="12.903674">
                <ele>68.700000</ele>
                <time>2018-02-26T07:57:23.644Z</time>
            </trkpt>
            <trkpt lon="100.972836" lat="12.903642">
                <ele>68.600000</ele>
                <time>2018-02-26T07:57:24.644Z</time>
            </trkpt>
            <trkpt lon="100.972849" lat="12.903610">
                <ele>68.500000</ele>
                <time>2018-02-26T07:57:25.644Z</time>
            </trkpt>
            <trkpt lon="100.972863" lat="12.903577">
                <ele>68.400000</ele>
                <time>2018-02-26T07:57:26.644Z</time>
            </trkpt>
            <trkpt lon="100.972875" lat="12.903543">
                <ele>68.300000</ele>
                <time>2018-02-26T07:57:27.644Z</time>
            </trkpt>
            <trkpt lon="100.972889" lat="12.903507">
                <ele>68.100000</ele>
                <time>2018-02-26T07:57:28.644Z</time>
            </trkpt>
            <trkpt lon="100.972903" lat="12.903467">
                <ele>68.000000</ele>
                <time>2018-02-26T07:57:29.644Z</time>
            </trkpt>
            <trkpt lon="100.972914" lat="12.903429">
                <ele>67.800000</ele>
                <time>2018-02-26T07:57:30.644Z</time>
            </trkpt>
            <trkpt lon="100.972921" lat="12.903395">
                <ele>67.700000</ele>
                <time>2018-02-26T07:57:31.644Z</time>
            </trkpt>
            <trkpt lon="100.972929" lat="12.903363">
                <ele>67.500000</ele>
                <time>2018-02-26T07:57:32.644Z</time>
            </trkpt>
            <trkpt lon="100.972935" lat="12.903330">
                <ele>67.400000</ele>
                <time>2018-02-26T07:57:33.644Z</time>
            </trkpt>
            <trkpt lon="100.972933" lat="12.903294">
                <ele>67.200000</ele>
                <time>2018-02-26T07:57:34.644Z</time>
            </trkpt>
            <trkpt lon="100.972937" lat="12.903257">
                <ele>67.100000</ele>
                <time>2018-02-26T07:57:35.644Z</time>
            </trkpt>
            <trkpt lon="100.972945" lat="12.903222">
                <ele>67.000000</ele>
                <time>2018-02-26T07:57:36.644Z</time>
            </trkpt>
            <trkpt lon="100.972952" lat="12.903183">
                <ele>66.900000</ele>
                <time>2018-02-26T07:57:37.644Z</time>
            </trkpt>
            <trkpt lon="100.972959" lat="12.903142">
                <ele>66.800000</ele>
                <time>2018-02-26T07:57:38.644Z</time>
            </trkpt>
            <trkpt lon="100.972971" lat="12.903100">
                <ele>66.700000</ele>
                <time>2018-02-26T07:57:39.644Z</time>
            </trkpt>
            <trkpt lon="100.972982" lat="12.903058">
                <ele>66.700000</ele>
                <time>2018-02-26T07:57:40.644Z</time>
            </trkpt>
            <trkpt lon="100.972989" lat="12.903013">
                <ele>66.600000</ele>
                <time>2018-02-26T07:57:41.644Z</time>
            </trkpt>
            <trkpt lon="100.972999" lat="12.902968">
                <ele>66.500000</ele>
                <time>2018-02-26T07:57:42.644Z</time>
            </trkpt>
            <trkpt lon="100.973009" lat="12.902923">
                <ele>66.300000</ele>
                <time>2018-02-26T07:57:43.644Z</time>
            </trkpt>
            <trkpt lon="100.973017" lat="12.902879">
                <ele>66.100000</ele>
                <time>2018-02-26T07:57:44.644Z</time>
            </trkpt>
            <trkpt lon="100.973023" lat="12.902835">
                <ele>66.000000</ele>
                <time>2018-02-26T07:57:45.644Z</time>
            </trkpt>
            <trkpt lon="100.973033" lat="12.902795">
                <ele>65.800000</ele>
                <time>2018-02-26T07:57:46.644Z</time>
            </trkpt>
            <trkpt lon="100.973041" lat="12.902758">
                <ele>65.600000</ele>
                <time>2018-02-26T07:57:47.644Z</time>
            </trkpt>
            <trkpt lon="100.973041" lat="12.902717">
                <ele>65.500000</ele>
                <time>2018-02-26T07:57:48.644Z</time>
            </trkpt>
            <trkpt lon="100.973039" lat="12.902678">
                <ele>65.300000</ele>
                <time>2018-02-26T07:57:49.644Z</time>
            </trkpt>
            <trkpt lon="100.973035" lat="12.902639">
                <ele>65.200000</ele>
                <time>2018-02-26T07:57:50.644Z</time>
            </trkpt>
            <trkpt lon="100.973035" lat="12.902595">
                <ele>65.000000</ele>
                <time>2018-02-26T07:57:51.644Z</time>
            </trkpt>
            <trkpt lon="100.973033" lat="12.902554">
                <ele>64.900000</ele>
                <time>2018-02-26T07:57:52.644Z</time>
            </trkpt>
            <trkpt lon="100.973031" lat="12.902507">
                <ele>64.700000</ele>
                <time>2018-02-26T07:57:53.644Z</time>
            </trkpt>
            <trkpt lon="100.973028" lat="12.902465">
                <ele>64.600000</ele>
                <time>2018-02-26T07:57:54.644Z</time>
            </trkpt>
            <trkpt lon="100.973027" lat="12.902422">
                <ele>64.500000</ele>
                <time>2018-02-26T07:57:55.644Z</time>
            </trkpt>
            <trkpt lon="100.973025" lat="12.902382">
                <ele>64.300000</ele>
                <time>2018-02-26T07:57:56.644Z</time>
            </trkpt>
            <trkpt lon="100.973022" lat="12.902339">
                <ele>64.100000</ele>
                <time>2018-02-26T07:57:57.644Z</time>
            </trkpt>
            <trkpt lon="100.973019" lat="12.902300">
                <ele>64.000000</ele>
                <time>2018-02-26T07:57:58.644Z</time>
            </trkpt>
            <trkpt lon="100.973017" lat="12.902260">
                <ele>63.800000</ele>
                <time>2018-02-26T07:57:59.644Z</time>
            </trkpt>
            <trkpt lon="100.973014" lat="12.902219">
                <ele>63.700000</ele>
                <time>2018-02-26T07:58:00.644Z</time>
            </trkpt>
            <trkpt lon="100.973008" lat="12.902184">
                <ele>63.500000</ele>
                <time>2018-02-26T07:58:01.644Z</time>
            </trkpt>
            <trkpt lon="100.973005" lat="12.902151">
                <ele>63.400000</ele>
                <time>2018-02-26T07:58:02.644Z</time>
            </trkpt>
            <trkpt lon="100.973003" lat="12.902119">
                <ele>63.300000</ele>
                <time>2018-02-26T07:58:03.644Z</time>
            </trkpt>
            <trkpt lon="100.973000" lat="12.902087">
                <ele>63.300000</ele>
                <time>2018-02-26T07:58:04.644Z</time>
            </trkpt>
            <trkpt lon="100.972990" lat="12.902034">
                <ele>63.100000</ele>
                <time>2018-02-26T07:58:05.644Z</time>
            </trkpt>
            <trkpt lon="100.972986" lat="12.901995">
                <ele>63.100000</ele>
                <time>2018-02-26T07:58:06.644Z</time>
            </trkpt>
            <trkpt lon="100.972987" lat="12.901967">
                <ele>63.100000</ele>
                <time>2018-02-26T07:58:07.644Z</time>
            </trkpt>
            <trkpt lon="100.972996" lat="12.901940">
                <ele>63.100000</ele>
                <time>2018-02-26T07:58:13.644Z</time>
            </trkpt>
            <trkpt lon="100.973030" lat="12.901930">
                <ele>63.100000</ele>
                <time>2018-02-26T07:58:22.644Z</time>
            </trkpt>
            <trkpt lon="100.973089" lat="12.901934">
                <ele>63.200000</ele>
                <time>2018-02-26T07:58:24.644Z</time>
            </trkpt>
            <trkpt lon="100.973123" lat="12.901941">
                <ele>63.200000</ele>
                <time>2018-02-26T07:58:25.644Z</time>
            </trkpt>
            <trkpt lon="100.973160" lat="12.901948">
                <ele>63.200000</ele>
                <time>2018-02-26T07:58:26.644Z</time>
            </trkpt>
            <trkpt lon="100.973197" lat="12.901953">
                <ele>63.300000</ele>
                <time>2018-02-26T07:58:27.644Z</time>
            </trkpt>
            <trkpt lon="100.973231" lat="12.901960">
                <ele>63.300000</ele>
                <time>2018-02-26T07:58:28.644Z</time>
            </trkpt>
            <trkpt lon="100.973264" lat="12.901966">
                <ele>63.300000</ele>
                <time>2018-02-26T07:58:29.644Z</time>
            </trkpt>
            <trkpt lon="100.973293" lat="12.901973">
                <ele>63.400000</ele>
                <time>2018-02-26T07:58:30.644Z</time>
            </trkpt>
            <trkpt lon="100.973350" lat="12.901981">
                <ele>63.400000</ele>
                <time>2018-02-26T07:58:32.644Z</time>
            </trkpt>
            <trkpt lon="100.973382" lat="12.901983">
                <ele>63.400000</ele>
                <time>2018-02-26T07:58:33.644Z</time>
            </trkpt>
            <trkpt lon="100.973415" lat="12.901994">
                <ele>63.500000</ele>
                <time>2018-02-26T07:58:34.644Z</time>
            </trkpt>
            <trkpt lon="100.973451" lat="12.902005">
                <ele>63.500000</ele>
                <time>2018-02-26T07:58:35.644Z</time>
            </trkpt>
            <trkpt lon="100.973491" lat="12.902010">
                <ele>63.500000</ele>
                <time>2018-02-26T07:58:36.644Z</time>
            </trkpt>
            <trkpt lon="100.973533" lat="12.902014">
                <ele>63.600000</ele>
                <time>2018-02-26T07:58:37.644Z</time>
            </trkpt>
            <trkpt lon="100.973574" lat="12.902024">
                <ele>63.600000</ele>
                <time>2018-02-26T07:58:38.644Z</time>
            </trkpt>
            <trkpt lon="100.973611" lat="12.902036">
                <ele>63.600000</ele>
                <time>2018-02-26T07:58:39.644Z</time>
            </trkpt>
            <trkpt lon="100.973653" lat="12.902054">
                <ele>63.600000</ele>
                <time>2018-02-26T07:58:40.644Z</time>
            </trkpt>
            <trkpt lon="100.973692" lat="12.902070">
                <ele>63.600000</ele>
                <time>2018-02-26T07:58:41.644Z</time>
            </trkpt>
            <trkpt lon="100.973730" lat="12.902083">
                <ele>63.700000</ele>
                <time>2018-02-26T07:58:42.644Z</time>
            </trkpt>
            <trkpt lon="100.973768" lat="12.902096">
                <ele>63.700000</ele>
                <time>2018-02-26T07:58:43.644Z</time>
            </trkpt>
            <trkpt lon="100.973803" lat="12.902107">
                <ele>63.700000</ele>
                <time>2018-02-26T07:58:44.644Z</time>
            </trkpt>
            <trkpt lon="100.973835" lat="12.902119">
                <ele>63.700000</ele>
                <time>2018-02-26T07:58:45.644Z</time>
            </trkpt>
            <trkpt lon="100.973869" lat="12.902131">
                <ele>63.800000</ele>
                <time>2018-02-26T07:58:46.644Z</time>
            </trkpt>
            <trkpt lon="100.973907" lat="12.902145">
                <ele>63.800000</ele>
                <time>2018-02-26T07:58:47.644Z</time>
            </trkpt>
            <trkpt lon="100.973944" lat="12.902158">
                <ele>63.900000</ele>
                <time>2018-02-26T07:58:48.644Z</time>
            </trkpt>
            <trkpt lon="100.973979" lat="12.902171">
                <ele>63.900000</ele>
                <time>2018-02-26T07:58:49.644Z</time>
            </trkpt>
            <trkpt lon="100.974016" lat="12.902186">
                <ele>64.000000</ele>
                <time>2018-02-26T07:58:50.644Z</time>
            </trkpt>
            <trkpt lon="100.974049" lat="12.902200">
                <ele>64.000000</ele>
                <time>2018-02-26T07:58:51.644Z</time>
            </trkpt>
            <trkpt lon="100.974089" lat="12.902213">
                <ele>64.000000</ele>
                <time>2018-02-26T07:58:52.644Z</time>
            </trkpt>
            <trkpt lon="100.974126" lat="12.902228">
                <ele>64.100000</ele>
                <time>2018-02-26T07:58:53.644Z</time>
            </trkpt>
            <trkpt lon="100.974163" lat="12.902237">
                <ele>64.200000</ele>
                <time>2018-02-26T07:58:54.644Z</time>
            </trkpt>
            <trkpt lon="100.974198" lat="12.902249">
                <ele>64.200000</ele>
                <time>2018-02-26T07:58:55.644Z</time>
            </trkpt>
            <trkpt lon="100.974232" lat="12.902255">
                <ele>64.300000</ele>
                <time>2018-02-26T07:58:56.644Z</time>
            </trkpt>
            <trkpt lon="100.974265" lat="12.902265">
                <ele>64.300000</ele>
                <time>2018-02-26T07:58:57.644Z</time>
            </trkpt>
            <trkpt lon="100.974300" lat="12.902274">
                <ele>64.300000</ele>
                <time>2018-02-26T07:58:58.644Z</time>
            </trkpt>
            <trkpt lon="100.974339" lat="12.902280">
                <ele>64.400000</ele>
                <time>2018-02-26T07:58:59.644Z</time>
            </trkpt>
            <trkpt lon="100.974379" lat="12.902289">
                <ele>64.500000</ele>
                <time>2018-02-26T07:59:00.644Z</time>
            </trkpt>
            <trkpt lon="100.974417" lat="12.902296">
                <ele>64.500000</ele>
                <time>2018-02-26T07:59:01.644Z</time>
            </trkpt>
            <trkpt lon="100.974459" lat="12.902307">
                <ele>64.600000</ele>
                <time>2018-02-26T07:59:02.644Z</time>
            </trkpt>
            <trkpt lon="100.974503" lat="12.902315">
                <ele>64.600000</ele>
                <time>2018-02-26T07:59:03.644Z</time>
            </trkpt>
            <trkpt lon="100.974549" lat="12.902326">
                <ele>64.700000</ele>
                <time>2018-02-26T07:59:04.644Z</time>
            </trkpt>
            <trkpt lon="100.974595" lat="12.902336">
                <ele>64.700000</ele>
                <time>2018-02-26T07:59:05.644Z</time>
            </trkpt>
            <trkpt lon="100.974641" lat="12.902351">
                <ele>64.800000</ele>
                <time>2018-02-26T07:59:06.644Z</time>
            </trkpt>
            <trkpt lon="100.974686" lat="12.902362">
                <ele>64.800000</ele>
                <time>2018-02-26T07:59:07.644Z</time>
            </trkpt>
            <trkpt lon="100.974728" lat="12.902370">
                <ele>64.900000</ele>
                <time>2018-02-26T07:59:08.644Z</time>
            </trkpt>
            <trkpt lon="100.974770" lat="12.902373">
                <ele>64.900000</ele>
                <time>2018-02-26T07:59:09.644Z</time>
            </trkpt>
            <trkpt lon="100.974805" lat="12.902367">
                <ele>65.000000</ele>
                <time>2018-02-26T07:59:10.644Z</time>
            </trkpt>
            <trkpt lon="100.974844" lat="12.902360">
                <ele>65.000000</ele>
                <time>2018-02-26T07:59:11.644Z</time>
            </trkpt>
            <trkpt lon="100.974886" lat="12.902351">
                <ele>65.100000</ele>
                <time>2018-02-26T07:59:12.644Z</time>
            </trkpt>
            <trkpt lon="100.974928" lat="12.902339">
                <ele>65.100000</ele>
                <time>2018-02-26T07:59:13.644Z</time>
            </trkpt>
            <trkpt lon="100.974967" lat="12.902328">
                <ele>65.200000</ele>
                <time>2018-02-26T07:59:14.644Z</time>
            </trkpt>
            <trkpt lon="100.975005" lat="12.902318">
                <ele>65.200000</ele>
                <time>2018-02-26T07:59:15.644Z</time>
            </trkpt>
            <trkpt lon="100.975044" lat="12.902306">
                <ele>65.300000</ele>
                <time>2018-02-26T07:59:16.644Z</time>
            </trkpt>
            <trkpt lon="100.975082" lat="12.902295">
                <ele>65.300000</ele>
                <time>2018-02-26T07:59:17.644Z</time>
            </trkpt>
            <trkpt lon="100.975117" lat="12.902284">
                <ele>65.400000</ele>
                <time>2018-02-26T07:59:18.644Z</time>
            </trkpt>
            <trkpt lon="100.975150" lat="12.902271">
                <ele>65.400000</ele>
                <time>2018-02-26T07:59:19.644Z</time>
            </trkpt>
            <trkpt lon="100.975182" lat="12.902259">
                <ele>65.400000</ele>
                <time>2018-02-26T07:59:20.644Z</time>
            </trkpt>
            <trkpt lon="100.975211" lat="12.902249">
                <ele>65.500000</ele>
                <time>2018-02-26T07:59:21.644Z</time>
            </trkpt>
            <trkpt lon="100.975240" lat="12.902239">
                <ele>65.500000</ele>
                <time>2018-02-26T07:59:22.644Z</time>
            </trkpt>
            <trkpt lon="100.975271" lat="12.902228">
                <ele>65.500000</ele>
                <time>2018-02-26T07:59:23.644Z</time>
            </trkpt>
            <trkpt lon="100.975304" lat="12.902219">
                <ele>65.600000</ele>
                <time>2018-02-26T07:59:24.644Z</time>
            </trkpt>
            <trkpt lon="100.975337" lat="12.902210">
                <ele>65.600000</ele>
                <time>2018-02-26T07:59:25.644Z</time>
            </trkpt>
            <trkpt lon="100.975371" lat="12.902205">
                <ele>65.600000</ele>
                <time>2018-02-26T07:59:26.644Z</time>
            </trkpt>
            <trkpt lon="100.975408" lat="12.902200">
                <ele>65.700000</ele>
                <time>2018-02-26T07:59:27.644Z</time>
            </trkpt>
            <trkpt lon="100.975441" lat="12.902196">
                <ele>65.700000</ele>
                <time>2018-02-26T07:59:28.644Z</time>
            </trkpt>
            <trkpt lon="100.975471" lat="12.902194">
                <ele>65.700000</ele>
                <time>2018-02-26T07:59:29.644Z</time>
            </trkpt>
            <trkpt lon="100.975506" lat="12.902193">
                <ele>65.800000</ele>
                <time>2018-02-26T07:59:30.644Z</time>
            </trkpt>
            <trkpt lon="100.975546" lat="12.902199">
                <ele>65.800000</ele>
                <time>2018-02-26T07:59:31.644Z</time>
            </trkpt>
            <trkpt lon="100.975587" lat="12.902206">
                <ele>65.900000</ele>
                <time>2018-02-26T07:59:32.644Z</time>
            </trkpt>
            <trkpt lon="100.975626" lat="12.902211">
                <ele>65.900000</ele>
                <time>2018-02-26T07:59:33.644Z</time>
            </trkpt>
            <trkpt lon="100.975666" lat="12.902216">
                <ele>66.000000</ele>
                <time>2018-02-26T07:59:34.644Z</time>
            </trkpt>
            <trkpt lon="100.975708" lat="12.902222">
                <ele>66.100000</ele>
                <time>2018-02-26T07:59:35.644Z</time>
            </trkpt>
            <trkpt lon="100.975750" lat="12.902230">
                <ele>66.100000</ele>
                <time>2018-02-26T07:59:36.644Z</time>
            </trkpt>
            <trkpt lon="100.975793" lat="12.902240">
                <ele>66.200000</ele>
                <time>2018-02-26T07:59:37.644Z</time>
            </trkpt>
            <trkpt lon="100.975832" lat="12.902252">
                <ele>66.300000</ele>
                <time>2018-02-26T07:59:38.644Z</time>
            </trkpt>
            <trkpt lon="100.975871" lat="12.902264">
                <ele>66.300000</ele>
                <time>2018-02-26T07:59:39.644Z</time>
            </trkpt>
            <trkpt lon="100.975909" lat="12.902278">
                <ele>66.500000</ele>
                <time>2018-02-26T07:59:40.644Z</time>
            </trkpt>
            <trkpt lon="100.975947" lat="12.902294">
                <ele>66.700000</ele>
                <time>2018-02-26T07:59:41.644Z</time>
            </trkpt>
            <trkpt lon="100.975985" lat="12.902307">
                <ele>66.800000</ele>
                <time>2018-02-26T07:59:42.644Z</time>
            </trkpt>
            <trkpt lon="100.976020" lat="12.902319">
                <ele>67.000000</ele>
                <time>2018-02-26T07:59:43.644Z</time>
            </trkpt>
            <trkpt lon="100.976054" lat="12.902324">
                <ele>67.100000</ele>
                <time>2018-02-26T07:59:44.644Z</time>
            </trkpt>
            <trkpt lon="100.976087" lat="12.902320">
                <ele>67.200000</ele>
                <time>2018-02-26T07:59:45.644Z</time>
            </trkpt>
            <trkpt lon="100.976124" lat="12.902315">
                <ele>67.400000</ele>
                <time>2018-02-26T07:59:46.644Z</time>
            </trkpt>
            <trkpt lon="100.976159" lat="12.902307">
                <ele>67.500000</ele>
                <time>2018-02-26T07:59:47.644Z</time>
            </trkpt>
            <trkpt lon="100.976194" lat="12.902303">
                <ele>67.700000</ele>
                <time>2018-02-26T07:59:48.644Z</time>
            </trkpt>
            <trkpt lon="100.976227" lat="12.902302">
                <ele>67.900000</ele>
                <time>2018-02-26T07:59:49.644Z</time>
            </trkpt>
            <trkpt lon="100.976260" lat="12.902311">
                <ele>68.000000</ele>
                <time>2018-02-26T07:59:50.644Z</time>
            </trkpt>
            <trkpt lon="100.976292" lat="12.902318">
                <ele>68.100000</ele>
                <time>2018-02-26T07:59:51.644Z</time>
            </trkpt>
            <trkpt lon="100.976323" lat="12.902327">
                <ele>68.200000</ele>
                <time>2018-02-26T07:59:52.644Z</time>
            </trkpt>
            <trkpt lon="100.976354" lat="12.902337">
                <ele>68.300000</ele>
                <time>2018-02-26T07:59:53.644Z</time>
            </trkpt>
            <trkpt lon="100.976391" lat="12.902348">
                <ele>68.400000</ele>
                <time>2018-02-26T07:59:54.644Z</time>
            </trkpt>
            <trkpt lon="100.976426" lat="12.902358">
                <ele>68.400000</ele>
                <time>2018-02-26T07:59:55.644Z</time>
            </trkpt>
            <trkpt lon="100.976462" lat="12.902367">
                <ele>68.500000</ele>
                <time>2018-02-26T07:59:56.644Z</time>
            </trkpt>
            <trkpt lon="100.976500" lat="12.902378">
                <ele>68.700000</ele>
                <time>2018-02-26T07:59:57.644Z</time>
            </trkpt>
            <trkpt lon="100.976538" lat="12.902390">
                <ele>68.800000</ele>
                <time>2018-02-26T07:59:58.644Z</time>
            </trkpt>
            <trkpt lon="100.976576" lat="12.902403">
                <ele>68.900000</ele>
                <time>2018-02-26T07:59:59.644Z</time>
            </trkpt>
            <trkpt lon="100.976614" lat="12.902418">
                <ele>69.000000</ele>
                <time>2018-02-26T08:00:00.644Z</time>
            </trkpt>
            <trkpt lon="100.976649" lat="12.902432">
                <ele>69.200000</ele>
                <time>2018-02-26T08:00:01.644Z</time>
            </trkpt>
            <trkpt lon="100.976682" lat="12.902444">
                <ele>69.300000</ele>
                <time>2018-02-26T08:00:02.644Z</time>
            </trkpt>
            <trkpt lon="100.976715" lat="12.902456">
                <ele>69.300000</ele>
                <time>2018-02-26T08:00:03.644Z</time>
            </trkpt>
            <trkpt lon="100.976747" lat="12.902470">
                <ele>69.400000</ele>
                <time>2018-02-26T08:00:04.644Z</time>
            </trkpt>
            <trkpt lon="100.976779" lat="12.902486">
                <ele>69.500000</ele>
                <time>2018-02-26T08:00:05.644Z</time>
            </trkpt>
            <trkpt lon="100.976810" lat="12.902498">
                <ele>69.600000</ele>
                <time>2018-02-26T08:00:06.644Z</time>
            </trkpt>
            <trkpt lon="100.976842" lat="12.902512">
                <ele>69.700000</ele>
                <time>2018-02-26T08:00:07.644Z</time>
            </trkpt>
            <trkpt lon="100.976873" lat="12.902524">
                <ele>69.700000</ele>
                <time>2018-02-26T08:00:08.644Z</time>
            </trkpt>
            <trkpt lon="100.976905" lat="12.902535">
                <ele>69.800000</ele>
                <time>2018-02-26T08:00:09.644Z</time>
            </trkpt>
            <trkpt lon="100.976940" lat="12.902548">
                <ele>69.900000</ele>
                <time>2018-02-26T08:00:10.644Z</time>
            </trkpt>
            <trkpt lon="100.976974" lat="12.902563">
                <ele>69.900000</ele>
                <time>2018-02-26T08:00:11.644Z</time>
            </trkpt>
            <trkpt lon="100.977012" lat="12.902579">
                <ele>70.000000</ele>
                <time>2018-02-26T08:00:12.644Z</time>
            </trkpt>
            <trkpt lon="100.977048" lat="12.902593">
                <ele>70.100000</ele>
                <time>2018-02-26T08:00:13.644Z</time>
            </trkpt>
            <trkpt lon="100.977085" lat="12.902608">
                <ele>70.100000</ele>
                <time>2018-02-26T08:00:14.644Z</time>
            </trkpt>
            <trkpt lon="100.977120" lat="12.902622">
                <ele>70.200000</ele>
                <time>2018-02-26T08:00:15.644Z</time>
            </trkpt>
            <trkpt lon="100.977157" lat="12.902635">
                <ele>70.300000</ele>
                <time>2018-02-26T08:00:16.644Z</time>
            </trkpt>
            <trkpt lon="100.977194" lat="12.902647">
                <ele>70.500000</ele>
                <time>2018-02-26T08:00:17.644Z</time>
            </trkpt>
            <trkpt lon="100.977225" lat="12.902657">
                <ele>70.600000</ele>
                <time>2018-02-26T08:00:18.644Z</time>
            </trkpt>
            <trkpt lon="100.977256" lat="12.902668">
                <ele>70.600000</ele>
                <time>2018-02-26T08:00:19.644Z</time>
            </trkpt>
            <trkpt lon="100.977285" lat="12.902678">
                <ele>70.700000</ele>
                <time>2018-02-26T08:00:20.644Z</time>
            </trkpt>
            <trkpt lon="100.977314" lat="12.902688">
                <ele>70.800000</ele>
                <time>2018-02-26T08:00:21.644Z</time>
            </trkpt>
            <trkpt lon="100.977345" lat="12.902699">
                <ele>70.900000</ele>
                <time>2018-02-26T08:00:22.644Z</time>
            </trkpt>
            <trkpt lon="100.977376" lat="12.902708">
                <ele>71.000000</ele>
                <time>2018-02-26T08:00:23.644Z</time>
            </trkpt>
            <trkpt lon="100.977408" lat="12.902718">
                <ele>71.100000</ele>
                <time>2018-02-26T08:00:24.644Z</time>
            </trkpt>
            <trkpt lon="100.977441" lat="12.902727">
                <ele>71.100000</ele>
                <time>2018-02-26T08:00:25.644Z</time>
            </trkpt>
            <trkpt lon="100.977473" lat="12.902737">
                <ele>71.200000</ele>
                <time>2018-02-26T08:00:26.644Z</time>
            </trkpt>
            <trkpt lon="100.977505" lat="12.902745">
                <ele>71.300000</ele>
                <time>2018-02-26T08:00:27.644Z</time>
            </trkpt>
            <trkpt lon="100.977537" lat="12.902754">
                <ele>71.400000</ele>
                <time>2018-02-26T08:00:28.644Z</time>
            </trkpt>
            <trkpt lon="100.977570" lat="12.902764">
                <ele>71.500000</ele>
                <time>2018-02-26T08:00:29.644Z</time>
            </trkpt>
            <trkpt lon="100.977603" lat="12.902770">
                <ele>71.600000</ele>
                <time>2018-02-26T08:00:30.644Z</time>
            </trkpt>
            <trkpt lon="100.977639" lat="12.902780">
                <ele>71.700000</ele>
                <time>2018-02-26T08:00:31.644Z</time>
            </trkpt>
            <trkpt lon="100.977674" lat="12.902789">
                <ele>71.800000</ele>
                <time>2018-02-26T08:00:32.644Z</time>
            </trkpt>
            <trkpt lon="100.977711" lat="12.902799">
                <ele>71.900000</ele>
                <time>2018-02-26T08:00:33.644Z</time>
            </trkpt>
            <trkpt lon="100.977749" lat="12.902810">
                <ele>72.100000</ele>
                <time>2018-02-26T08:00:34.644Z</time>
            </trkpt>
            <trkpt lon="100.977786" lat="12.902821">
                <ele>72.300000</ele>
                <time>2018-02-26T08:00:35.644Z</time>
            </trkpt>
            <trkpt lon="100.977824" lat="12.902833">
                <ele>72.400000</ele>
                <time>2018-02-26T08:00:36.644Z</time>
            </trkpt>
            <trkpt lon="100.977860" lat="12.902844">
                <ele>72.500000</ele>
                <time>2018-02-26T08:00:37.644Z</time>
            </trkpt>
            <trkpt lon="100.977897" lat="12.902856">
                <ele>72.600000</ele>
                <time>2018-02-26T08:00:38.644Z</time>
            </trkpt>
            <trkpt lon="100.977932" lat="12.902866">
                <ele>72.700000</ele>
                <time>2018-02-26T08:00:39.644Z</time>
            </trkpt>
            <trkpt lon="100.977967" lat="12.902876">
                <ele>72.800000</ele>
                <time>2018-02-26T08:00:40.644Z</time>
            </trkpt>
            <trkpt lon="100.978001" lat="12.902881">
                <ele>72.900000</ele>
                <time>2018-02-26T08:00:41.644Z</time>
            </trkpt>
            <trkpt lon="100.978034" lat="12.902885">
                <ele>73.000000</ele>
                <time>2018-02-26T08:00:42.644Z</time>
            </trkpt>
            <trkpt lon="100.978064" lat="12.902883">
                <ele>73.100000</ele>
                <time>2018-02-26T08:00:43.644Z</time>
            </trkpt>
            <trkpt lon="100.978104" lat="12.902872">
                <ele>73.200000</ele>
                <time>2018-02-26T08:00:45.644Z</time>
            </trkpt>
            <trkpt lon="100.978116" lat="12.902826">
                <ele>73.100000</ele>
                <time>2018-02-26T08:00:55.644Z</time>
            </trkpt>
            <trkpt lon="100.978128" lat="12.902795">
                <ele>73.000000</ele>
                <time>2018-02-26T08:00:56.644Z</time>
            </trkpt>
            <trkpt lon="100.978138" lat="12.902765">
                <ele>73.100000</ele>
                <time>2018-02-26T08:00:57.644Z</time>
            </trkpt>
            <trkpt lon="100.978150" lat="12.902733">
                <ele>72.800000</ele>
                <time>2018-02-26T08:00:58.644Z</time>
            </trkpt>
            <trkpt lon="100.978161" lat="12.902702">
                <ele>72.600000</ele>
                <time>2018-02-26T08:00:59.644Z</time>
            </trkpt>
            <trkpt lon="100.978172" lat="12.902673">
                <ele>72.300000</ele>
                <time>2018-02-26T08:01:00.644Z</time>
            </trkpt>
            <trkpt lon="100.978184" lat="12.902642">
                <ele>72.500000</ele>
                <time>2018-02-26T08:01:01.644Z</time>
            </trkpt>
            <trkpt lon="100.978195" lat="12.902611">
                <ele>72.300000</ele>
                <time>2018-02-26T08:01:02.644Z</time>
            </trkpt>
            <trkpt lon="100.978209" lat="12.902579">
                <ele>72.200000</ele>
                <time>2018-02-26T08:01:03.644Z</time>
            </trkpt>
            <trkpt lon="100.978227" lat="12.902543">
                <ele>72.400000</ele>
                <time>2018-02-26T08:01:04.644Z</time>
            </trkpt>
            <trkpt lon="100.978245" lat="12.902507">
                <ele>72.400000</ele>
                <time>2018-02-26T08:01:05.644Z</time>
            </trkpt>
            <trkpt lon="100.978262" lat="12.902471">
                <ele>72.700000</ele>
                <time>2018-02-26T08:01:06.644Z</time>
            </trkpt>
            <trkpt lon="100.978281" lat="12.902432">
                <ele>72.700000</ele>
                <time>2018-02-26T08:01:07.644Z</time>
            </trkpt>
            <trkpt lon="100.978298" lat="12.902392">
                <ele>72.800000</ele>
                <time>2018-02-26T08:01:08.644Z</time>
            </trkpt>
            <trkpt lon="100.978315" lat="12.902350">
                <ele>73.300000</ele>
                <time>2018-02-26T08:01:09.644Z</time>
            </trkpt>
            <trkpt lon="100.978338" lat="12.902305">
                <ele>73.500000</ele>
                <time>2018-02-26T08:01:10.644Z</time>
            </trkpt>
            <trkpt lon="100.978363" lat="12.902258">
                <ele>74.200000</ele>
                <time>2018-02-26T08:01:11.644Z</time>
            </trkpt>
            <trkpt lon="100.978385" lat="12.902214">
                <ele>74.200000</ele>
                <time>2018-02-26T08:01:12.644Z</time>
            </trkpt>
            <trkpt lon="100.978405" lat="12.902172">
                <ele>74.400000</ele>
                <time>2018-02-26T08:01:13.644Z</time>
            </trkpt>
            <trkpt lon="100.978423" lat="12.902133">
                <ele>74.400000</ele>
                <time>2018-02-26T08:01:14.644Z</time>
            </trkpt>
            <trkpt lon="100.978442" lat="12.902096">
                <ele>74.700000</ele>
                <time>2018-02-26T08:01:15.644Z</time>
            </trkpt>
            <trkpt lon="100.978460" lat="12.902061">
                <ele>74.800000</ele>
                <time>2018-02-26T08:01:16.644Z</time>
            </trkpt>
            <trkpt lon="100.978480" lat="12.902024">
                <ele>75.300000</ele>
                <time>2018-02-26T08:01:17.644Z</time>
            </trkpt>
            <trkpt lon="100.978498" lat="12.901986">
                <ele>75.500000</ele>
                <time>2018-02-26T08:01:18.644Z</time>
            </trkpt>
            <trkpt lon="100.978513" lat="12.901943">
                <ele>75.700000</ele>
                <time>2018-02-26T08:01:19.644Z</time>
            </trkpt>
            <trkpt lon="100.978529" lat="12.901902">
                <ele>76.000000</ele>
                <time>2018-02-26T08:01:20.644Z</time>
            </trkpt>
            <trkpt lon="100.978543" lat="12.901859">
                <ele>76.000000</ele>
                <time>2018-02-26T08:01:21.644Z</time>
            </trkpt>
            <trkpt lon="100.978557" lat="12.901815">
                <ele>76.000000</ele>
                <time>2018-02-26T08:01:22.644Z</time>
            </trkpt>
            <trkpt lon="100.978572" lat="12.901769">
                <ele>76.100000</ele>
                <time>2018-02-26T08:01:23.644Z</time>
            </trkpt>
            <trkpt lon="100.978589" lat="12.901725">
                <ele>76.100000</ele>
                <time>2018-02-26T08:01:24.644Z</time>
            </trkpt>
            <trkpt lon="100.978606" lat="12.901683">
                <ele>76.100000</ele>
                <time>2018-02-26T08:01:25.644Z</time>
            </trkpt>
            <trkpt lon="100.978621" lat="12.901640">
                <ele>76.100000</ele>
                <time>2018-02-26T08:01:26.644Z</time>
            </trkpt>
            <trkpt lon="100.978638" lat="12.901597">
                <ele>76.100000</ele>
                <time>2018-02-26T08:01:27.644Z</time>
            </trkpt>
            <trkpt lon="100.978654" lat="12.901555">
                <ele>76.000000</ele>
                <time>2018-02-26T08:01:28.644Z</time>
            </trkpt>
            <trkpt lon="100.978671" lat="12.901512">
                <ele>75.700000</ele>
                <time>2018-02-26T08:01:29.644Z</time>
            </trkpt>
            <trkpt lon="100.978689" lat="12.901467">
                <ele>75.500000</ele>
                <time>2018-02-26T08:01:30.644Z</time>
            </trkpt>
            <trkpt lon="100.978707" lat="12.901420">
                <ele>75.100000</ele>
                <time>2018-02-26T08:01:31.644Z</time>
            </trkpt>
            <trkpt lon="100.978724" lat="12.901375">
                <ele>75.100000</ele>
                <time>2018-02-26T08:01:32.644Z</time>
            </trkpt>
            <trkpt lon="100.978743" lat="12.901329">
                <ele>75.100000</ele>
                <time>2018-02-26T08:01:33.644Z</time>
            </trkpt>
            <trkpt lon="100.978761" lat="12.901285">
                <ele>75.100000</ele>
                <time>2018-02-26T08:01:34.644Z</time>
            </trkpt>
            <trkpt lon="100.978782" lat="12.901246">
                <ele>75.000000</ele>
                <time>2018-02-26T08:01:35.644Z</time>
            </trkpt>
            <trkpt lon="100.978799" lat="12.901209">
                <ele>74.900000</ele>
                <time>2018-02-26T08:01:36.644Z</time>
            </trkpt>
            <trkpt lon="100.978813" lat="12.901177">
                <ele>74.900000</ele>
                <time>2018-02-26T08:01:37.644Z</time>
            </trkpt>
            <trkpt lon="100.978825" lat="12.901145">
                <ele>74.600000</ele>
                <time>2018-02-26T08:01:38.644Z</time>
            </trkpt>
            <trkpt lon="100.978838" lat="12.901112">
                <ele>74.300000</ele>
                <time>2018-02-26T08:01:39.644Z</time>
            </trkpt>
            <trkpt lon="100.978854" lat="12.901079">
                <ele>74.200000</ele>
                <time>2018-02-26T08:01:40.644Z</time>
            </trkpt>
            <trkpt lon="100.978870" lat="12.901044">
                <ele>74.100000</ele>
                <time>2018-02-26T08:01:41.644Z</time>
            </trkpt>
            <trkpt lon="100.978887" lat="12.901008">
                <ele>74.100000</ele>
                <time>2018-02-26T08:01:42.644Z</time>
            </trkpt>
            <trkpt lon="100.978908" lat="12.900969">
                <ele>74.100000</ele>
                <time>2018-02-26T08:01:43.644Z</time>
            </trkpt>
            <trkpt lon="100.978930" lat="12.900933">
                <ele>74.100000</ele>
                <time>2018-02-26T08:01:44.644Z</time>
            </trkpt>
            <trkpt lon="100.978955" lat="12.900897">
                <ele>74.100000</ele>
                <time>2018-02-26T08:01:45.644Z</time>
            </trkpt>
            <trkpt lon="100.978978" lat="12.900862">
                <ele>74.100000</ele>
                <time>2018-02-26T08:01:46.644Z</time>
            </trkpt>
            <trkpt lon="100.978998" lat="12.900829">
                <ele>74.100000</ele>
                <time>2018-02-26T08:01:47.644Z</time>
            </trkpt>
            <trkpt lon="100.979023" lat="12.900800">
                <ele>74.100000</ele>
                <time>2018-02-26T08:01:48.644Z</time>
            </trkpt>
            <trkpt lon="100.979042" lat="12.900771">
                <ele>74.100000</ele>
                <time>2018-02-26T08:01:49.644Z</time>
            </trkpt>
            <trkpt lon="100.979057" lat="12.900746">
                <ele>74.000000</ele>
                <time>2018-02-26T08:01:50.644Z</time>
            </trkpt>
            <trkpt lon="100.979081" lat="12.900710">
                <ele>73.900000</ele>
                <time>2018-02-26T08:01:52.644Z</time>
            </trkpt>
            <trkpt lon="100.979068" lat="12.900741">
                <ele>74.100000</ele>
                <time>2018-02-26T08:01:58.644Z</time>
            </trkpt>
            <trkpt lon="100.979047" lat="12.900784">
                <ele>74.100000</ele>
                <time>2018-02-26T08:02:00.644Z</time>
            </trkpt>
            <trkpt lon="100.979028" lat="12.900808">
                <ele>74.100000</ele>
                <time>2018-02-26T08:02:01.644Z</time>
            </trkpt>
            <trkpt lon="100.979009" lat="12.900836">
                <ele>74.100000</ele>
                <time>2018-02-26T08:02:02.644Z</time>
            </trkpt>
            <trkpt lon="100.978990" lat="12.900866">
                <ele>74.100000</ele>
                <time>2018-02-26T08:02:03.644Z</time>
            </trkpt>
            <trkpt lon="100.978971" lat="12.900894">
                <ele>74.100000</ele>
                <time>2018-02-26T08:02:04.644Z</time>
            </trkpt>
            <trkpt lon="100.978949" lat="12.900928">
                <ele>74.100000</ele>
                <time>2018-02-26T08:02:05.644Z</time>
            </trkpt>
            <trkpt lon="100.978930" lat="12.900960">
                <ele>74.200000</ele>
                <time>2018-02-26T08:02:06.644Z</time>
            </trkpt>
            <trkpt lon="100.978908" lat="12.900996">
                <ele>74.200000</ele>
                <time>2018-02-26T08:02:07.644Z</time>
            </trkpt>
            <trkpt lon="100.978889" lat="12.901028">
                <ele>74.200000</ele>
                <time>2018-02-26T08:02:08.644Z</time>
            </trkpt>
            <trkpt lon="100.978867" lat="12.901062">
                <ele>74.200000</ele>
                <time>2018-02-26T08:02:09.644Z</time>
            </trkpt>
            <trkpt lon="100.978848" lat="12.901093">
                <ele>74.400000</ele>
                <time>2018-02-26T08:02:10.644Z</time>
            </trkpt>
            <trkpt lon="100.978828" lat="12.901124">
                <ele>74.400000</ele>
                <time>2018-02-26T08:02:11.644Z</time>
            </trkpt>
            <trkpt lon="100.978815" lat="12.901156">
                <ele>74.800000</ele>
                <time>2018-02-26T08:02:12.644Z</time>
            </trkpt>
            <trkpt lon="100.978802" lat="12.901188">
                <ele>74.900000</ele>
                <time>2018-02-26T08:02:13.644Z</time>
            </trkpt>
            <trkpt lon="100.978786" lat="12.901218">
                <ele>75.100000</ele>
                <time>2018-02-26T08:02:14.644Z</time>
            </trkpt>
            <trkpt lon="100.978774" lat="12.901247">
                <ele>75.100000</ele>
                <time>2018-02-26T08:02:15.644Z</time>
            </trkpt>
            <trkpt lon="100.978762" lat="12.901277">
                <ele>75.200000</ele>
                <time>2018-02-26T08:02:16.644Z</time>
            </trkpt>
            <trkpt lon="100.978751" lat="12.901308">
                <ele>75.200000</ele>
                <time>2018-02-26T08:02:17.644Z</time>
            </trkpt>
            <trkpt lon="100.978739" lat="12.901342">
                <ele>75.200000</ele>
                <time>2018-02-26T08:02:18.644Z</time>
            </trkpt>
            <trkpt lon="100.978724" lat="12.901376">
                <ele>75.200000</ele>
                <time>2018-02-26T08:02:19.644Z</time>
            </trkpt>
            <trkpt lon="100.978712" lat="12.901409">
                <ele>75.200000</ele>
                <time>2018-02-26T08:02:20.644Z</time>
            </trkpt>
            <trkpt lon="100.978698" lat="12.901445">
                <ele>75.300000</ele>
                <time>2018-02-26T08:02:21.644Z</time>
            </trkpt>
            <trkpt lon="100.978682" lat="12.901482">
                <ele>75.600000</ele>
                <time>2018-02-26T08:02:22.644Z</time>
            </trkpt>
            <trkpt lon="100.978666" lat="12.901518">
                <ele>75.800000</ele>
                <time>2018-02-26T08:02:23.644Z</time>
            </trkpt>
            <trkpt lon="100.978649" lat="12.901554">
                <ele>76.100000</ele>
                <time>2018-02-26T08:02:24.644Z</time>
            </trkpt>
            <trkpt lon="100.978637" lat="12.901584">
                <ele>76.100000</ele>
                <time>2018-02-26T08:02:25.644Z</time>
            </trkpt>
            <trkpt lon="100.978617" lat="12.901627">
                <ele>76.200000</ele>
                <time>2018-02-26T08:02:27.644Z</time>
            </trkpt>
            <trkpt lon="100.978594" lat="12.901666">
                <ele>76.200000</ele>
                <time>2018-02-26T08:02:29.644Z</time>
            </trkpt>
            <trkpt lon="100.978574" lat="12.901709">
                <ele>76.200000</ele>
                <time>2018-02-26T08:02:31.644Z</time>
            </trkpt>
            <trkpt lon="100.978551" lat="12.901756">
                <ele>76.200000</ele>
                <time>2018-02-26T08:02:33.644Z</time>
            </trkpt>
            <trkpt lon="100.978530" lat="12.901808">
                <ele>76.200000</ele>
                <time>2018-02-26T08:02:35.644Z</time>
            </trkpt>
            <trkpt lon="100.978517" lat="12.901844">
                <ele>76.100000</ele>
                <time>2018-02-26T08:02:36.644Z</time>
            </trkpt>
            <trkpt lon="100.978504" lat="12.901881">
                <ele>76.100000</ele>
                <time>2018-02-26T08:02:37.644Z</time>
            </trkpt>
            <trkpt lon="100.978492" lat="12.901918">
                <ele>76.100000</ele>
                <time>2018-02-26T08:02:38.644Z</time>
            </trkpt>
            <trkpt lon="100.978482" lat="12.901956">
                <ele>75.900000</ele>
                <time>2018-02-26T08:02:39.644Z</time>
            </trkpt>
            <trkpt lon="100.978471" lat="12.901997">
                <ele>75.300000</ele>
                <time>2018-02-26T08:02:40.644Z</time>
            </trkpt>
            <trkpt lon="100.978459" lat="12.902034">
                <ele>75.100000</ele>
                <time>2018-02-26T08:02:41.644Z</time>
            </trkpt>
            <trkpt lon="100.978446" lat="12.902071">
                <ele>75.000000</ele>
                <time>2018-02-26T08:02:42.644Z</time>
            </trkpt>
            <trkpt lon="100.978432" lat="12.902106">
                <ele>74.900000</ele>
                <time>2018-02-26T08:02:43.644Z</time>
            </trkpt>
            <trkpt lon="100.978414" lat="12.902145">
                <ele>74.600000</ele>
                <time>2018-02-26T08:02:44.644Z</time>
            </trkpt>
            <trkpt lon="100.978396" lat="12.902182">
                <ele>74.700000</ele>
                <time>2018-02-26T08:02:45.644Z</time>
            </trkpt>
            <trkpt lon="100.978378" lat="12.902218">
                <ele>74.400000</ele>
                <time>2018-02-26T08:02:46.644Z</time>
            </trkpt>
            <trkpt lon="100.978364" lat="12.902249">
                <ele>74.400000</ele>
                <time>2018-02-26T08:02:47.644Z</time>
            </trkpt>
            <trkpt lon="100.978351" lat="12.902276">
                <ele>74.300000</ele>
                <time>2018-02-26T08:02:48.644Z</time>
            </trkpt>
            <trkpt lon="100.978339" lat="12.902303">
                <ele>73.800000</ele>
                <time>2018-02-26T08:02:49.644Z</time>
            </trkpt>
            <trkpt lon="100.978323" lat="12.902331">
                <ele>73.800000</ele>
                <time>2018-02-26T08:02:50.644Z</time>
            </trkpt>
            <trkpt lon="100.978307" lat="12.902359">
                <ele>73.500000</ele>
                <time>2018-02-26T08:02:51.644Z</time>
            </trkpt>
            <trkpt lon="100.978291" lat="12.902387">
                <ele>73.000000</ele>
                <time>2018-02-26T08:02:52.644Z</time>
            </trkpt>
            <trkpt lon="100.978276" lat="12.902415">
                <ele>73.000000</ele>
                <time>2018-02-26T08:02:53.644Z</time>
            </trkpt>
            <trkpt lon="100.978262" lat="12.902447">
                <ele>72.900000</ele>
                <time>2018-02-26T08:02:54.644Z</time>
            </trkpt>
            <trkpt lon="100.978244" lat="12.902486">
                <ele>72.700000</ele>
                <time>2018-02-26T08:02:55.644Z</time>
            </trkpt>
            <trkpt lon="100.978227" lat="12.902521">
                <ele>72.700000</ele>
                <time>2018-02-26T08:02:56.644Z</time>
            </trkpt>
            <trkpt lon="100.978212" lat="12.902552">
                <ele>72.400000</ele>
                <time>2018-02-26T08:02:57.644Z</time>
            </trkpt>
            <trkpt lon="100.978198" lat="12.902583">
                <ele>72.400000</ele>
                <time>2018-02-26T08:02:58.644Z</time>
            </trkpt>
            <trkpt lon="100.978182" lat="12.902615">
                <ele>72.600000</ele>
                <time>2018-02-26T08:02:59.644Z</time>
            </trkpt>
            <trkpt lon="100.978165" lat="12.902649">
                <ele>72.600000</ele>
                <time>2018-02-26T08:03:00.644Z</time>
            </trkpt>
            <trkpt lon="100.978151" lat="12.902685">
                <ele>72.900000</ele>
                <time>2018-02-26T08:03:01.644Z</time>
            </trkpt>
            <trkpt lon="100.978137" lat="12.902721">
                <ele>73.200000</ele>
                <time>2018-02-26T08:03:02.644Z</time>
            </trkpt>
            <trkpt lon="100.978130" lat="12.902753">
                <ele>73.100000</ele>
                <time>2018-02-26T08:03:03.644Z</time>
            </trkpt>
            <trkpt lon="100.978123" lat="12.902784">
                <ele>73.200000</ele>
                <time>2018-02-26T08:03:04.644Z</time>
            </trkpt>
            <trkpt lon="100.978115" lat="12.902811">
                <ele>73.300000</ele>
                <time>2018-02-26T08:03:05.644Z</time>
            </trkpt>
            <trkpt lon="100.978106" lat="12.902840">
                <ele>73.400000</ele>
                <time>2018-02-26T08:03:06.644Z</time>
            </trkpt>
            <trkpt lon="100.978094" lat="12.902884">
                <ele>73.600000</ele>
                <time>2018-02-26T08:03:08.644Z</time>
            </trkpt>
            <trkpt lon="100.978098" lat="12.902912">
                <ele>73.800000</ele>
                <time>2018-02-26T08:03:11.644Z</time>
            </trkpt>
            <trkpt lon="100.978131" lat="12.902924">
                <ele>73.900000</ele>
                <time>2018-02-26T08:03:13.644Z</time>
            </trkpt>
            <trkpt lon="100.978158" lat="12.902934">
                <ele>74.000000</ele>
                <time>2018-02-26T08:03:14.644Z</time>
            </trkpt>
            <trkpt lon="100.978184" lat="12.902944">
                <ele>74.200000</ele>
                <time>2018-02-26T08:03:15.644Z</time>
            </trkpt>
            <trkpt lon="100.978212" lat="12.902959">
                <ele>74.200000</ele>
                <time>2018-02-26T08:03:16.644Z</time>
            </trkpt>
            <trkpt lon="100.978239" lat="12.902971">
                <ele>74.300000</ele>
                <time>2018-02-26T08:03:17.644Z</time>
            </trkpt>
            <trkpt lon="100.978273" lat="12.902977">
                <ele>74.400000</ele>
                <time>2018-02-26T08:03:18.644Z</time>
            </trkpt>
            <trkpt lon="100.978305" lat="12.902987">
                <ele>74.500000</ele>
                <time>2018-02-26T08:03:19.644Z</time>
            </trkpt>
            <trkpt lon="100.978336" lat="12.902997">
                <ele>74.600000</ele>
                <time>2018-02-26T08:03:20.644Z</time>
            </trkpt>
            <trkpt lon="100.978367" lat="12.903010">
                <ele>74.700000</ele>
                <time>2018-02-26T08:03:21.644Z</time>
            </trkpt>
            <trkpt lon="100.978407" lat="12.903031">
                <ele>74.800000</ele>
                <time>2018-02-26T08:03:23.644Z</time>
            </trkpt>
            <trkpt lon="100.978429" lat="12.903049">
                <ele>74.900000</ele>
                <time>2018-02-26T08:03:42.644Z</time>
            </trkpt>
            <trkpt lon="100.978459" lat="12.903048">
                <ele>75.000000</ele>
                <time>2018-02-26T08:03:47.644Z</time>
            </trkpt>
            <trkpt lon="100.978492" lat="12.903055">
                <ele>75.100000</ele>
                <time>2018-02-26T08:03:49.644Z</time>
            </trkpt>
            <trkpt lon="100.978546" lat="12.903072">
                <ele>75.200000</ele>
                <time>2018-02-26T08:03:51.644Z</time>
            </trkpt>
            <trkpt lon="100.978572" lat="12.903081">
                <ele>75.300000</ele>
                <time>2018-02-26T08:03:52.644Z</time>
            </trkpt>
            <trkpt lon="100.978622" lat="12.903094">
                <ele>75.400000</ele>
                <time>2018-02-26T08:03:54.644Z</time>
            </trkpt>
            <trkpt lon="100.978671" lat="12.903103">
                <ele>75.600000</ele>
                <time>2018-02-26T08:03:56.644Z</time>
            </trkpt>
            <trkpt lon="100.978720" lat="12.903115">
                <ele>75.700000</ele>
                <time>2018-02-26T08:03:58.644Z</time>
            </trkpt>
            <trkpt lon="100.978767" lat="12.903129">
                <ele>75.900000</ele>
                <time>2018-02-26T08:04:00.644Z</time>
            </trkpt>
            <trkpt lon="100.978817" lat="12.903145">
                <ele>76.100000</ele>
                <time>2018-02-26T08:04:02.644Z</time>
            </trkpt>
            <trkpt lon="100.978844" lat="12.903158">
                <ele>76.200000</ele>
                <time>2018-02-26T08:04:03.644Z</time>
            </trkpt>
            <trkpt lon="100.978873" lat="12.903176">
                <ele>76.300000</ele>
                <time>2018-02-26T08:04:04.644Z</time>
            </trkpt>
            <trkpt lon="100.978902" lat="12.903193">
                <ele>76.400000</ele>
                <time>2018-02-26T08:04:05.644Z</time>
            </trkpt>
            <trkpt lon="100.978934" lat="12.903209">
                <ele>76.500000</ele>
                <time>2018-02-26T08:04:06.644Z</time>
            </trkpt>
            <trkpt lon="100.978968" lat="12.903225">
                <ele>76.600000</ele>
                <time>2018-02-26T08:04:07.644Z</time>
            </trkpt>
            <trkpt lon="100.979004" lat="12.903239">
                <ele>76.700000</ele>
                <time>2018-02-26T08:04:08.644Z</time>
            </trkpt>
            <trkpt lon="100.979037" lat="12.903251">
                <ele>76.800000</ele>
                <time>2018-02-26T08:04:09.644Z</time>
            </trkpt>
            <trkpt lon="100.979072" lat="12.903261">
                <ele>76.900000</ele>
                <time>2018-02-26T08:04:10.644Z</time>
            </trkpt>
            <trkpt lon="100.979108" lat="12.903270">
                <ele>77.000000</ele>
                <time>2018-02-26T08:04:11.644Z</time>
            </trkpt>
            <trkpt lon="100.979142" lat="12.903280">
                <ele>77.100000</ele>
                <time>2018-02-26T08:04:12.644Z</time>
            </trkpt>
            <trkpt lon="100.979174" lat="12.903288">
                <ele>77.200000</ele>
                <time>2018-02-26T08:04:13.644Z</time>
            </trkpt>
            <trkpt lon="100.979206" lat="12.903294">
                <ele>77.300000</ele>
                <time>2018-02-26T08:04:14.644Z</time>
            </trkpt>
            <trkpt lon="100.979238" lat="12.903301">
                <ele>77.400000</ele>
                <time>2018-02-26T08:04:15.644Z</time>
            </trkpt>
            <trkpt lon="100.979270" lat="12.903308">
                <ele>77.500000</ele>
                <time>2018-02-26T08:04:16.644Z</time>
            </trkpt>
            <trkpt lon="100.979302" lat="12.903313">
                <ele>77.700000</ele>
                <time>2018-02-26T08:04:17.644Z</time>
            </trkpt>
            <trkpt lon="100.979337" lat="12.903318">
                <ele>77.800000</ele>
                <time>2018-02-26T08:04:18.644Z</time>
            </trkpt>
            <trkpt lon="100.979370" lat="12.903326">
                <ele>77.900000</ele>
                <time>2018-02-26T08:04:19.644Z</time>
            </trkpt>
            <trkpt lon="100.979398" lat="12.903336">
                <ele>78.000000</ele>
                <time>2018-02-26T08:04:20.644Z</time>
            </trkpt>
            <trkpt lon="100.979424" lat="12.903354">
                <ele>78.100000</ele>
                <time>2018-02-26T08:04:21.644Z</time>
            </trkpt>
            <trkpt lon="100.979446" lat="12.903373">
                <ele>78.200000</ele>
                <time>2018-02-26T08:04:22.644Z</time>
            </trkpt>
            <trkpt lon="100.979486" lat="12.903390">
                <ele>78.400000</ele>
                <time>2018-02-26T08:04:24.644Z</time>
            </trkpt>
            <trkpt lon="100.979516" lat="12.903387">
                <ele>78.500000</ele>
                <time>2018-02-26T08:04:25.644Z</time>
            </trkpt>
            <trkpt lon="100.979547" lat="12.903395">
                <ele>78.600000</ele>
                <time>2018-02-26T08:04:26.644Z</time>
            </trkpt>
            <trkpt lon="100.979579" lat="12.903406">
                <ele>78.800000</ele>
                <time>2018-02-26T08:04:27.644Z</time>
            </trkpt>
            <trkpt lon="100.979610" lat="12.903417">
                <ele>78.800000</ele>
                <time>2018-02-26T08:04:28.644Z</time>
            </trkpt>
            <trkpt lon="100.979639" lat="12.903428">
                <ele>78.900000</ele>
                <time>2018-02-26T08:04:29.644Z</time>
            </trkpt>
            <trkpt lon="100.979669" lat="12.903437">
                <ele>79.000000</ele>
                <time>2018-02-26T08:04:30.644Z</time>
            </trkpt>
            <trkpt lon="100.979698" lat="12.903445">
                <ele>79.000000</ele>
                <time>2018-02-26T08:04:31.644Z</time>
            </trkpt>
            <trkpt lon="100.979727" lat="12.903456">
                <ele>79.100000</ele>
                <time>2018-02-26T08:04:32.644Z</time>
            </trkpt>
            <trkpt lon="100.979753" lat="12.903471">
                <ele>79.200000</ele>
                <time>2018-02-26T08:04:33.644Z</time>
            </trkpt>
            <trkpt lon="100.979780" lat="12.903486">
                <ele>79.200000</ele>
                <time>2018-02-26T08:04:34.644Z</time>
            </trkpt>
            <trkpt lon="100.979812" lat="12.903495">
                <ele>79.300000</ele>
                <time>2018-02-26T08:04:35.644Z</time>
            </trkpt>
            <trkpt lon="100.979843" lat="12.903499">
                <ele>79.400000</ele>
                <time>2018-02-26T08:04:36.644Z</time>
            </trkpt>
            <trkpt lon="100.979875" lat="12.903504">
                <ele>79.400000</ele>
                <time>2018-02-26T08:04:37.644Z</time>
            </trkpt>
            <trkpt lon="100.979907" lat="12.903506">
                <ele>79.500000</ele>
                <time>2018-02-26T08:04:38.644Z</time>
            </trkpt>
            <trkpt lon="100.979939" lat="12.903510">
                <ele>79.600000</ele>
                <time>2018-02-26T08:04:39.644Z</time>
            </trkpt>
            <trkpt lon="100.979968" lat="12.903514">
                <ele>79.700000</ele>
                <time>2018-02-26T08:04:40.644Z</time>
            </trkpt>
            <trkpt lon="100.979995" lat="12.903518">
                <ele>79.800000</ele>
                <time>2018-02-26T08:04:41.644Z</time>
            </trkpt>
            <trkpt lon="100.980038" lat="12.903520">
                <ele>79.900000</ele>
                <time>2018-02-26T08:04:43.644Z</time>
            </trkpt>
            <trkpt lon="100.980073" lat="12.903527">
                <ele>79.900000</ele>
                <time>2018-02-26T08:04:45.644Z</time>
            </trkpt>
            <trkpt lon="100.980104" lat="12.903520">
                <ele>79.900000</ele>
                <time>2018-02-26T08:04:47.644Z</time>
            </trkpt>
            <trkpt lon="100.980122" lat="12.903499">
                <ele>79.800000</ele>
                <time>2018-02-26T08:05:56.644Z</time>
            </trkpt>
            <trkpt lon="100.980157" lat="12.903499">
                <ele>79.800000</ele>
                <time>2018-02-26T08:06:05.644Z</time>
            </trkpt>
            <trkpt lon="100.980213" lat="12.903518">
                <ele>80.100000</ele>
                <time>2018-02-26T08:06:07.644Z</time>
            </trkpt>
            <trkpt lon="100.980261" lat="12.903521">
                <ele>80.600000</ele>
                <time>2018-02-26T08:06:08.644Z</time>
            </trkpt>
            <trkpt lon="100.980298" lat="12.903527">
                <ele>81.100000</ele>
                <time>2018-02-26T08:06:09.644Z</time>
            </trkpt>
            <trkpt lon="100.980327" lat="12.903533">
                <ele>81.700000</ele>
                <time>2018-02-26T08:06:10.644Z</time>
            </trkpt>
            <trkpt lon="100.980355" lat="12.903542">
                <ele>81.700000</ele>
                <time>2018-02-26T08:06:11.644Z</time>
            </trkpt>
            <trkpt lon="100.980400" lat="12.903553">
                <ele>82.300000</ele>
                <time>2018-02-26T08:06:13.644Z</time>
            </trkpt>
            <trkpt lon="100.980438" lat="12.903551">
                <ele>82.800000</ele>
                <time>2018-02-26T08:06:15.644Z</time>
            </trkpt>
            <trkpt lon="100.980467" lat="12.903553">
                <ele>83.400000</ele>
                <time>2018-02-26T08:06:22.644Z</time>
            </trkpt>
            <trkpt lon="100.980504" lat="12.903556">
                <ele>83.900000</ele>
                <time>2018-02-26T08:06:25.644Z</time>
            </trkpt>
            <trkpt lon="100.980560" lat="12.903569">
                <ele>84.500000</ele>
                <time>2018-02-26T08:06:27.644Z</time>
            </trkpt>
            <trkpt lon="100.980589" lat="12.903576">
                <ele>85.000000</ele>
                <time>2018-02-26T08:06:28.644Z</time>
            </trkpt>
            <trkpt lon="100.980620" lat="12.903580">
                <ele>85.100000</ele>
                <time>2018-02-26T08:06:29.644Z</time>
            </trkpt>
            <trkpt lon="100.980652" lat="12.903585">
                <ele>85.600000</ele>
                <time>2018-02-26T08:06:30.644Z</time>
            </trkpt>
            <trkpt lon="100.980703" lat="12.903595">
                <ele>86.200000</ele>
                <time>2018-02-26T08:06:32.644Z</time>
            </trkpt>
            <trkpt lon="100.980735" lat="12.903598">
                <ele>86.600000</ele>
                <time>2018-02-26T08:06:33.644Z</time>
            </trkpt>
            <trkpt lon="100.980763" lat="12.903601">
                <ele>86.900000</ele>
                <time>2018-02-26T08:06:34.644Z</time>
            </trkpt>
            <trkpt lon="100.980794" lat="12.903602">
                <ele>87.000000</ele>
                <time>2018-02-26T08:06:35.644Z</time>
            </trkpt>
            <trkpt lon="100.980826" lat="12.903605">
                <ele>87.000000</ele>
                <time>2018-02-26T08:06:36.644Z</time>
            </trkpt>
            <trkpt lon="100.980882" lat="12.903611">
                <ele>87.100000</ele>
                <time>2018-02-26T08:06:38.644Z</time>
            </trkpt>
            <trkpt lon="100.980913" lat="12.903615">
                <ele>87.100000</ele>
                <time>2018-02-26T08:06:39.644Z</time>
            </trkpt>
            <trkpt lon="100.980950" lat="12.903618">
                <ele>87.100000</ele>
                <time>2018-02-26T08:06:40.644Z</time>
            </trkpt>
            <trkpt lon="100.980982" lat="12.903624">
                <ele>87.200000</ele>
                <time>2018-02-26T08:06:41.644Z</time>
            </trkpt>
            <trkpt lon="100.981013" lat="12.903629">
                <ele>87.200000</ele>
                <time>2018-02-26T08:06:42.644Z</time>
            </trkpt>
            <trkpt lon="100.981045" lat="12.903637">
                <ele>87.200000</ele>
                <time>2018-02-26T08:06:43.644Z</time>
            </trkpt>
            <trkpt lon="100.981078" lat="12.903635">
                <ele>87.300000</ele>
                <time>2018-02-26T08:06:44.644Z</time>
            </trkpt>
            <trkpt lon="100.981113" lat="12.903635">
                <ele>87.300000</ele>
                <time>2018-02-26T08:06:45.644Z</time>
            </trkpt>
            <trkpt lon="100.981155" lat="12.903638">
                <ele>87.400000</ele>
                <time>2018-02-26T08:06:46.644Z</time>
            </trkpt>
            <trkpt lon="100.981190" lat="12.903647">
                <ele>87.100000</ele>
                <time>2018-02-26T08:06:47.644Z</time>
            </trkpt>
            <trkpt lon="100.981226" lat="12.903657">
                <ele>87.300000</ele>
                <time>2018-02-26T08:06:49.644Z</time>
            </trkpt>
            <trkpt lon="100.981248" lat="12.903674">
                <ele>87.300000</ele>
                <time>2018-02-26T08:06:53.644Z</time>
            </trkpt>
            <trkpt lon="100.981258" lat="12.903706">
                <ele>87.100000</ele>
                <time>2018-02-26T08:06:58.644Z</time>
            </trkpt>
            <trkpt lon="100.981249" lat="12.903738">
                <ele>86.900000</ele>
                <time>2018-02-26T08:07:00.644Z</time>
            </trkpt>
            <trkpt lon="100.981230" lat="12.903778">
                <ele>86.700000</ele>
                <time>2018-02-26T08:07:02.644Z</time>
            </trkpt>
            <trkpt lon="100.981217" lat="12.903804">
                <ele>86.500000</ele>
                <time>2018-02-26T08:07:03.644Z</time>
            </trkpt>
            <trkpt lon="100.981206" lat="12.903830">
                <ele>86.300000</ele>
                <time>2018-02-26T08:07:04.644Z</time>
            </trkpt>
            <trkpt lon="100.981179" lat="12.903867">
                <ele>86.100000</ele>
                <time>2018-02-26T08:07:06.644Z</time>
            </trkpt>
            <trkpt lon="100.981165" lat="12.903895">
                <ele>85.600000</ele>
                <time>2018-02-26T08:07:07.644Z</time>
            </trkpt>
            <trkpt lon="100.981153" lat="12.903934">
                <ele>85.400000</ele>
                <time>2018-02-26T08:07:08.644Z</time>
            </trkpt>
            <trkpt lon="100.981146" lat="12.903979">
                <ele>85.000000</ele>
                <time>2018-02-26T08:07:09.644Z</time>
            </trkpt>
            <trkpt lon="100.981153" lat="12.904021">
                <ele>84.600000</ele>
                <time>2018-02-26T08:07:10.644Z</time>
            </trkpt>
            <trkpt lon="100.981162" lat="12.904058">
                <ele>84.300000</ele>
                <time>2018-02-26T08:07:11.644Z</time>
            </trkpt>
            <trkpt lon="100.981163" lat="12.904089">
                <ele>84.300000</ele>
                <time>2018-02-26T08:07:12.644Z</time>
            </trkpt>
            <trkpt lon="100.981163" lat="12.904120">
                <ele>84.100000</ele>
                <time>2018-02-26T08:07:13.644Z</time>
            </trkpt>
            <trkpt lon="100.981158" lat="12.904159">
                <ele>83.900000</ele>
                <time>2018-02-26T08:07:14.644Z</time>
            </trkpt>
            <trkpt lon="100.981155" lat="12.904197">
                <ele>83.700000</ele>
                <time>2018-02-26T08:07:15.644Z</time>
            </trkpt>
            <trkpt lon="100.981152" lat="12.904232">
                <ele>83.500000</ele>
                <time>2018-02-26T08:07:16.644Z</time>
            </trkpt>
            <trkpt lon="100.981153" lat="12.904266">
                <ele>83.200000</ele>
                <time>2018-02-26T08:07:17.644Z</time>
            </trkpt>
            <trkpt lon="100.981162" lat="12.904311">
                <ele>82.900000</ele>
                <time>2018-02-26T08:07:19.644Z</time>
            </trkpt>
            <trkpt lon="100.981169" lat="12.904356">
                <ele>82.600000</ele>
                <time>2018-02-26T08:07:21.644Z</time>
            </trkpt>
            <trkpt lon="100.981190" lat="12.904412">
                <ele>82.600000</ele>
                <time>2018-02-26T08:07:23.644Z</time>
            </trkpt>
            <trkpt lon="100.981198" lat="12.904448">
                <ele>82.000000</ele>
                <time>2018-02-26T08:07:24.644Z</time>
            </trkpt>
            <trkpt lon="100.981203" lat="12.904482">
                <ele>81.500000</ele>
                <time>2018-02-26T08:07:25.644Z</time>
            </trkpt>
            <trkpt lon="100.981204" lat="12.904511">
                <ele>81.400000</ele>
                <time>2018-02-26T08:07:26.644Z</time>
            </trkpt>
            <trkpt lon="100.981214" lat="12.904542">
                <ele>81.200000</ele>
                <time>2018-02-26T08:07:27.644Z</time>
            </trkpt>
            <trkpt lon="100.981221" lat="12.904586">
                <ele>81.000000</ele>
                <time>2018-02-26T08:07:29.644Z</time>
            </trkpt>
            <trkpt lon="100.981238" lat="12.904639">
                <ele>80.800000</ele>
                <time>2018-02-26T08:07:31.644Z</time>
            </trkpt>
            <trkpt lon="100.981243" lat="12.904674">
                <ele>80.600000</ele>
                <time>2018-02-26T08:07:32.644Z</time>
            </trkpt>
            <trkpt lon="100.981244" lat="12.904702">
                <ele>80.500000</ele>
                <time>2018-02-26T08:07:33.644Z</time>
            </trkpt>
            <trkpt lon="100.981243" lat="12.904731">
                <ele>80.400000</ele>
                <time>2018-02-26T08:07:34.644Z</time>
            </trkpt>
            <trkpt lon="100.981248" lat="12.904757">
                <ele>80.300000</ele>
                <time>2018-02-26T08:07:35.644Z</time>
            </trkpt>
            <trkpt lon="100.981259" lat="12.904785">
                <ele>80.300000</ele>
                <time>2018-02-26T08:07:37.644Z</time>
            </trkpt>
            <trkpt lon="100.981251" lat="12.904817">
                <ele>80.300000</ele>
                <time>2018-02-26T08:07:40.644Z</time>
            </trkpt>
            <trkpt lon="100.981247" lat="12.904844">
                <ele>80.300000</ele>
                <time>2018-02-26T08:07:44.644Z</time>
            </trkpt>
            <trkpt lon="100.981242" lat="12.904874">
                <ele>80.400000</ele>
                <time>2018-02-26T08:07:50.644Z</time>
            </trkpt>
            <trkpt lon="100.981237" lat="12.904905">
                <ele>80.400000</ele>
                <time>2018-02-26T08:07:53.644Z</time>
            </trkpt>
            <trkpt lon="100.981222" lat="12.904953">
                <ele>80.500000</ele>
                <time>2018-02-26T08:07:56.644Z</time>
            </trkpt>
            <trkpt lon="100.981217" lat="12.904980">
                <ele>80.500000</ele>
                <time>2018-02-26T08:07:57.644Z</time>
            </trkpt>
            <trkpt lon="100.981208" lat="12.905009">
                <ele>80.500000</ele>
                <time>2018-02-26T08:07:59.644Z</time>
            </trkpt>
            <trkpt lon="100.981209" lat="12.904978">
                <ele>80.500000</ele>
                <time>2018-02-26T08:08:16.644Z</time>
            </trkpt>
            <trkpt lon="100.981221" lat="12.904937">
                <ele>80.500000</ele>
                <time>2018-02-26T08:08:18.644Z</time>
            </trkpt>
            <trkpt lon="100.981230" lat="12.904901">
                <ele>80.400000</ele>
                <time>2018-02-26T08:08:20.644Z</time>
            </trkpt>
            <trkpt lon="100.981224" lat="12.904868">
                <ele>80.400000</ele>
                <time>2018-02-26T08:08:22.644Z</time>
            </trkpt>
            <trkpt lon="100.981215" lat="12.904820">
                <ele>80.300000</ele>
                <time>2018-02-26T08:08:24.644Z</time>
            </trkpt>
            <trkpt lon="100.981215" lat="12.904776">
                <ele>80.300000</ele>
                <time>2018-02-26T08:08:25.644Z</time>
            </trkpt>
            <trkpt lon="100.981213" lat="12.904739">
                <ele>80.400000</ele>
                <time>2018-02-26T08:08:26.644Z</time>
            </trkpt>
            <trkpt lon="100.981212" lat="12.904709">
                <ele>80.500000</ele>
                <time>2018-02-26T08:08:27.644Z</time>
            </trkpt>
            <trkpt lon="100.981210" lat="12.904680">
                <ele>80.600000</ele>
                <time>2018-02-26T08:08:28.644Z</time>
            </trkpt>
            <trkpt lon="100.981216" lat="12.904640">
                <ele>80.800000</ele>
                <time>2018-02-26T08:08:30.644Z</time>
            </trkpt>
            <trkpt lon="100.981210" lat="12.904597">
                <ele>81.000000</ele>
                <time>2018-02-26T08:08:32.644Z</time>
            </trkpt>
            <trkpt lon="100.981209" lat="12.904561">
                <ele>81.200000</ele>
                <time>2018-02-26T08:08:34.644Z</time>
            </trkpt>
            <trkpt lon="100.981209" lat="12.904527">
                <ele>81.300000</ele>
                <time>2018-02-26T08:08:36.644Z</time>
            </trkpt>
            <trkpt lon="100.981201" lat="12.904491">
                <ele>81.500000</ele>
                <time>2018-02-26T08:08:38.644Z</time>
            </trkpt>
            <trkpt lon="100.981199" lat="12.904451">
                <ele>82.100000</ele>
                <time>2018-02-26T08:08:40.644Z</time>
            </trkpt>
            <trkpt lon="100.981193" lat="12.904416">
                <ele>82.600000</ele>
                <time>2018-02-26T08:08:42.644Z</time>
            </trkpt>
            <trkpt lon="100.981179" lat="12.904379">
                <ele>83.000000</ele>
                <time>2018-02-26T08:08:44.644Z</time>
            </trkpt>
            <trkpt lon="100.981171" lat="12.904345">
                <ele>82.900000</ele>
                <time>2018-02-26T08:08:46.644Z</time>
            </trkpt>
            <trkpt lon="100.981168" lat="12.904311">
                <ele>82.800000</ele>
                <time>2018-02-26T08:08:47.644Z</time>
            </trkpt>
            <trkpt lon="100.981161" lat="12.904264">
                <ele>83.400000</ele>
                <time>2018-02-26T08:08:49.644Z</time>
            </trkpt>
            <trkpt lon="100.981157" lat="12.904233">
                <ele>83.300000</ele>
                <time>2018-02-26T08:08:50.644Z</time>
            </trkpt>
            <trkpt lon="100.981154" lat="12.904206">
                <ele>83.500000</ele>
                <time>2018-02-26T08:08:51.644Z</time>
            </trkpt>
            <trkpt lon="100.981150" lat="12.904178">
                <ele>83.700000</ele>
                <time>2018-02-26T08:08:52.644Z</time>
            </trkpt>
            <trkpt lon="100.981140" lat="12.904127">
                <ele>83.900000</ele>
                <time>2018-02-26T08:08:54.644Z</time>
            </trkpt>
            <trkpt lon="100.981137" lat="12.904096">
                <ele>84.200000</ele>
                <time>2018-02-26T08:08:55.644Z</time>
            </trkpt>
            <trkpt lon="100.981134" lat="12.904066">
                <ele>83.600000</ele>
                <time>2018-02-26T08:08:56.644Z</time>
            </trkpt>
            <trkpt lon="100.981139" lat="12.904031">
                <ele>84.500000</ele>
                <time>2018-02-26T08:08:58.644Z</time>
            </trkpt>
            <trkpt lon="100.981146" lat="12.904001">
                <ele>84.800000</ele>
                <time>2018-02-26T08:09:00.644Z</time>
            </trkpt>
            <trkpt lon="100.981156" lat="12.903974">
                <ele>84.700000</ele>
                <time>2018-02-26T08:09:02.644Z</time>
            </trkpt>
            <trkpt lon="100.981166" lat="12.903941">
                <ele>85.100000</ele>
                <time>2018-02-26T08:09:03.644Z</time>
            </trkpt>
            <trkpt lon="100.981185" lat="12.903881">
                <ele>85.800000</ele>
                <time>2018-02-26T08:09:05.644Z</time>
            </trkpt>
            <trkpt lon="100.981197" lat="12.903840">
                <ele>86.000000</ele>
                <time>2018-02-26T08:09:06.644Z</time>
            </trkpt>
            <trkpt lon="100.981218" lat="12.903790">
                <ele>86.200000</ele>
                <time>2018-02-26T08:09:08.644Z</time>
            </trkpt>
            <trkpt lon="100.981240" lat="12.903753">
                <ele>86.600000</ele>
                <time>2018-02-26T08:09:10.644Z</time>
            </trkpt>
            <trkpt lon="100.981257" lat="12.903724">
                <ele>86.600000</ele>
                <time>2018-02-26T08:09:12.644Z</time>
            </trkpt>
            <trkpt lon="100.981274" lat="12.903699">
                <ele>87.000000</ele>
                <time>2018-02-26T08:09:14.644Z</time>
            </trkpt>
            <trkpt lon="100.981289" lat="12.903676">
                <ele>87.300000</ele>
                <time>2018-02-26T08:09:16.644Z</time>
            </trkpt>
            <trkpt lon="100.981307" lat="12.903649">
                <ele>87.200000</ele>
                <time>2018-02-26T08:09:19.644Z</time>
            </trkpt>
            <trkpt lon="100.981335" lat="12.903635">
                <ele>87.900000</ele>
                <time>2018-02-26T08:09:21.644Z</time>
            </trkpt>
            <trkpt lon="100.981364" lat="12.903630">
                <ele>88.300000</ele>
                <time>2018-02-26T08:09:23.644Z</time>
            </trkpt>
            <trkpt lon="100.981403" lat="12.903631">
                <ele>88.700000</ele>
                <time>2018-02-26T08:09:25.644Z</time>
            </trkpt>
            <trkpt lon="100.981469" lat="12.903626">
                <ele>89.100000</ele>
                <time>2018-02-26T08:09:27.644Z</time>
            </trkpt>
            <trkpt lon="100.981522" lat="12.903620">
                <ele>90.000000</ele>
                <time>2018-02-26T08:09:28.644Z</time>
            </trkpt>
            <trkpt lon="100.981551" lat="12.903630">
                <ele>90.000000</ele>
                <time>2018-02-26T08:09:29.644Z</time>
            </trkpt>
            <trkpt lon="100.981588" lat="12.903641">
                <ele>89.900000</ele>
                <time>2018-02-26T08:09:31.644Z</time>
            </trkpt>
            <trkpt lon="100.981634" lat="12.903652">
                <ele>90.500000</ele>
                <time>2018-02-26T08:09:42.644Z</time>
            </trkpt>
            <trkpt lon="100.981665" lat="12.903652">
                <ele>91.100000</ele>
                <time>2018-02-26T08:09:44.644Z</time>
            </trkpt>
            <trkpt lon="100.981703" lat="12.903649">
                <ele>91.800000</ele>
                <time>2018-02-26T08:09:47.644Z</time>
            </trkpt>
            <trkpt lon="100.981735" lat="12.903650">
                <ele>91.800000</ele>
                <time>2018-02-26T08:09:51.644Z</time>
            </trkpt>
            <trkpt lon="100.981764" lat="12.903654">
                <ele>92.500000</ele>
                <time>2018-02-26T08:09:54.644Z</time>
            </trkpt>
            <trkpt lon="100.981802" lat="12.903674">
                <ele>92.900000</ele>
                <time>2018-02-26T08:09:57.644Z</time>
            </trkpt>
            <trkpt lon="100.981826" lat="12.903688">
                <ele>92.600000</ele>
                <time>2018-02-26T08:09:58.644Z</time>
            </trkpt>
            <trkpt lon="100.981855" lat="12.903710">
                <ele>92.500000</ele>
                <time>2018-02-26T08:09:59.644Z</time>
            </trkpt>
            <trkpt lon="100.981890" lat="12.903725">
                <ele>92.200000</ele>
                <time>2018-02-26T08:10:00.644Z</time>
            </trkpt>
            <trkpt lon="100.981934" lat="12.903732">
                <ele>92.400000</ele>
                <time>2018-02-26T08:10:01.644Z</time>
            </trkpt>
            <trkpt lon="100.981977" lat="12.903738">
                <ele>92.500000</ele>
                <time>2018-02-26T08:10:02.644Z</time>
            </trkpt>
            <trkpt lon="100.982017" lat="12.903739">
                <ele>92.500000</ele>
                <time>2018-02-26T08:10:03.644Z</time>
            </trkpt>
            <trkpt lon="100.982051" lat="12.903740">
                <ele>92.400000</ele>
                <time>2018-02-26T08:10:04.644Z</time>
            </trkpt>
            <trkpt lon="100.982084" lat="12.903743">
                <ele>92.400000</ele>
                <time>2018-02-26T08:10:05.644Z</time>
            </trkpt>
            <trkpt lon="100.982114" lat="12.903744">
                <ele>92.300000</ele>
                <time>2018-02-26T08:10:06.644Z</time>
            </trkpt>
            <trkpt lon="100.982148" lat="12.903743">
                <ele>92.200000</ele>
                <time>2018-02-26T08:10:07.644Z</time>
            </trkpt>
            <trkpt lon="100.982196" lat="12.903743">
                <ele>91.900000</ele>
                <time>2018-02-26T08:10:09.644Z</time>
            </trkpt>
            <trkpt lon="100.982248" lat="12.903743">
                <ele>91.600000</ele>
                <time>2018-02-26T08:10:11.644Z</time>
            </trkpt>
            <trkpt lon="100.982282" lat="12.903741">
                <ele>91.400000</ele>
                <time>2018-02-26T08:10:12.644Z</time>
            </trkpt>
            <trkpt lon="100.982317" lat="12.903736">
                <ele>91.100000</ele>
                <time>2018-02-26T08:10:13.644Z</time>
            </trkpt>
            <trkpt lon="100.982356" lat="12.903728">
                <ele>90.700000</ele>
                <time>2018-02-26T08:10:14.644Z</time>
            </trkpt>
            <trkpt lon="100.982394" lat="12.903721">
                <ele>91.200000</ele>
                <time>2018-02-26T08:10:15.644Z</time>
            </trkpt>
            <trkpt lon="100.982432" lat="12.903706">
                <ele>90.800000</ele>
                <time>2018-02-26T08:10:16.644Z</time>
            </trkpt>
            <trkpt lon="100.982456" lat="12.903691">
                <ele>90.700000</ele>
                <time>2018-02-26T08:10:17.644Z</time>
            </trkpt>
            <trkpt lon="100.982480" lat="12.903674">
                <ele>91.000000</ele>
                <time>2018-02-26T08:10:18.644Z</time>
            </trkpt>
            <trkpt lon="100.982507" lat="12.903651">
                <ele>91.000000</ele>
                <time>2018-02-26T08:10:19.644Z</time>
            </trkpt>
            <trkpt lon="100.982534" lat="12.903628">
                <ele>91.200000</ele>
                <time>2018-02-26T08:10:20.644Z</time>
            </trkpt>
            <trkpt lon="100.982554" lat="12.903608">
                <ele>91.300000</ele>
                <time>2018-02-26T08:10:21.644Z</time>
            </trkpt>
            <trkpt lon="100.982578" lat="12.903565">
                <ele>91.500000</ele>
                <time>2018-02-26T08:10:23.644Z</time>
            </trkpt>
            <trkpt lon="100.982588" lat="12.903520">
                <ele>91.700000</ele>
                <time>2018-02-26T08:10:25.644Z</time>
            </trkpt>
            <trkpt lon="100.982603" lat="12.903470">
                <ele>92.000000</ele>
                <time>2018-02-26T08:10:27.644Z</time>
            </trkpt>
            <trkpt lon="100.982605" lat="12.903443">
                <ele>92.200000</ele>
                <time>2018-02-26T08:10:28.644Z</time>
            </trkpt>
            <trkpt lon="100.982600" lat="12.903393">
                <ele>92.400000</ele>
                <time>2018-02-26T08:10:30.644Z</time>
            </trkpt>
            <trkpt lon="100.982606" lat="12.903338">
                <ele>92.600000</ele>
                <time>2018-02-26T08:10:32.644Z</time>
            </trkpt>
            <trkpt lon="100.982617" lat="12.903308">
                <ele>92.600000</ele>
                <time>2018-02-26T08:10:33.644Z</time>
            </trkpt>
            <trkpt lon="100.982628" lat="12.903277">
                <ele>92.500000</ele>
                <time>2018-02-26T08:10:34.644Z</time>
            </trkpt>
            <trkpt lon="100.982645" lat="12.903234">
                <ele>92.400000</ele>
                <time>2018-02-26T08:10:35.644Z</time>
            </trkpt>
            <trkpt lon="100.982664" lat="12.903199">
                <ele>92.000000</ele>
                <time>2018-02-26T08:10:36.644Z</time>
            </trkpt>
            <trkpt lon="100.982694" lat="12.903156">
                <ele>91.400000</ele>
                <time>2018-02-26T08:10:38.644Z</time>
            </trkpt>
            <trkpt lon="100.982709" lat="12.903133">
                <ele>91.100000</ele>
                <time>2018-02-26T08:10:39.644Z</time>
            </trkpt>
            <trkpt lon="100.982724" lat="12.903099">
                <ele>90.800000</ele>
                <time>2018-02-26T08:10:43.644Z</time>
            </trkpt>
            <trkpt lon="100.982737" lat="12.903065">
                <ele>90.400000</ele>
                <time>2018-02-26T08:11:04.644Z</time>
            </trkpt>
            <trkpt lon="100.982768" lat="12.903033">
                <ele>90.000000</ele>
                <time>2018-02-26T08:11:06.644Z</time>
            </trkpt>
            <trkpt lon="100.982792" lat="12.903017">
                <ele>89.800000</ele>
                <time>2018-02-26T08:11:07.644Z</time>
            </trkpt>
            <trkpt lon="100.982817" lat="12.902999">
                <ele>89.600000</ele>
                <time>2018-02-26T08:11:08.644Z</time>
            </trkpt>
            <trkpt lon="100.982846" lat="12.902982">
                <ele>89.400000</ele>
                <time>2018-02-26T08:11:09.644Z</time>
            </trkpt>
            <trkpt lon="100.982888" lat="12.902956">
                <ele>88.600000</ele>
                <time>2018-02-26T08:11:11.644Z</time>
            </trkpt>
            <trkpt lon="100.982919" lat="12.902941">
                <ele>88.100000</ele>
                <time>2018-02-26T08:11:12.644Z</time>
            </trkpt>
            <trkpt lon="100.982955" lat="12.902931">
                <ele>87.600000</ele>
                <time>2018-02-26T08:11:13.644Z</time>
            </trkpt>
            <trkpt lon="100.982997" lat="12.902916">
                <ele>87.100000</ele>
                <time>2018-02-26T08:11:14.644Z</time>
            </trkpt>
            <trkpt lon="100.983036" lat="12.902904">
                <ele>87.100000</ele>
                <time>2018-02-26T08:11:15.644Z</time>
            </trkpt>
            <trkpt lon="100.983075" lat="12.902891">
                <ele>87.100000</ele>
                <time>2018-02-26T08:11:16.644Z</time>
            </trkpt>
            <trkpt lon="100.983118" lat="12.902879">
                <ele>86.800000</ele>
                <time>2018-02-26T08:11:17.644Z</time>
            </trkpt>
            <trkpt lon="100.983149" lat="12.902878">
                <ele>86.800000</ele>
                <time>2018-02-26T08:11:18.644Z</time>
            </trkpt>
            <trkpt lon="100.983183" lat="12.902873">
                <ele>86.900000</ele>
                <time>2018-02-26T08:11:20.644Z</time>
            </trkpt>
            <trkpt lon="100.983214" lat="12.902876">
                <ele>87.200000</ele>
                <time>2018-02-26T08:11:22.644Z</time>
            </trkpt>
            <trkpt lon="100.983244" lat="12.902878">
                <ele>87.400000</ele>
                <time>2018-02-26T08:11:26.644Z</time>
            </trkpt>
            <trkpt lon="100.983282" lat="12.902887">
                <ele>87.900000</ele>
                <time>2018-02-26T08:11:29.644Z</time>
            </trkpt>
            <trkpt lon="100.983323" lat="12.902893">
                <ele>87.900000</ele>
                <time>2018-02-26T08:11:31.644Z</time>
            </trkpt>
            <trkpt lon="100.983371" lat="12.902906">
                <ele>88.100000</ele>
                <time>2018-02-26T08:11:33.644Z</time>
            </trkpt>
            <trkpt lon="100.983401" lat="12.902916">
                <ele>88.100000</ele>
                <time>2018-02-26T08:11:34.644Z</time>
            </trkpt>
            <trkpt lon="100.983438" lat="12.902927">
                <ele>88.100000</ele>
                <time>2018-02-26T08:11:35.644Z</time>
            </trkpt>
            <trkpt lon="100.983470" lat="12.902944">
                <ele>88.200000</ele>
                <time>2018-02-26T08:11:36.644Z</time>
            </trkpt>
            <trkpt lon="100.983510" lat="12.902967">
                <ele>88.100000</ele>
                <time>2018-02-26T08:11:37.644Z</time>
            </trkpt>
            <trkpt lon="100.983544" lat="12.902987">
                <ele>88.000000</ele>
                <time>2018-02-26T08:11:38.644Z</time>
            </trkpt>
            <trkpt lon="100.983577" lat="12.903005">
                <ele>88.000000</ele>
                <time>2018-02-26T08:11:39.644Z</time>
            </trkpt>
            <trkpt lon="100.983608" lat="12.903025">
                <ele>88.000000</ele>
                <time>2018-02-26T08:11:40.644Z</time>
            </trkpt>
            <trkpt lon="100.983639" lat="12.903044">
                <ele>87.900000</ele>
                <time>2018-02-26T08:11:41.644Z</time>
            </trkpt>
            <trkpt lon="100.983668" lat="12.903062">
                <ele>87.900000</ele>
                <time>2018-02-26T08:11:42.644Z</time>
            </trkpt>
            <trkpt lon="100.983695" lat="12.903082">
                <ele>87.900000</ele>
                <time>2018-02-26T08:11:43.644Z</time>
            </trkpt>
            <trkpt lon="100.983725" lat="12.903098">
                <ele>87.500000</ele>
                <time>2018-02-26T08:11:44.644Z</time>
            </trkpt>
            <trkpt lon="100.983757" lat="12.903112">
                <ele>87.000000</ele>
                <time>2018-02-26T08:11:45.644Z</time>
            </trkpt>
            <trkpt lon="100.983794" lat="12.903131">
                <ele>87.000000</ele>
                <time>2018-02-26T08:11:46.644Z</time>
            </trkpt>
            <trkpt lon="100.983835" lat="12.903154">
                <ele>86.500000</ele>
                <time>2018-02-26T08:11:47.644Z</time>
            </trkpt>
            <trkpt lon="100.983880" lat="12.903172">
                <ele>86.000000</ele>
                <time>2018-02-26T08:11:48.644Z</time>
            </trkpt>
            <trkpt lon="100.983922" lat="12.903193">
                <ele>85.500000</ele>
                <time>2018-02-26T08:11:49.644Z</time>
            </trkpt>
            <trkpt lon="100.983967" lat="12.903215">
                <ele>85.000000</ele>
                <time>2018-02-26T08:11:50.644Z</time>
            </trkpt>
            <trkpt lon="100.984007" lat="12.903232">
                <ele>84.500000</ele>
                <time>2018-02-26T08:11:51.644Z</time>
            </trkpt>
            <trkpt lon="100.984051" lat="12.903249">
                <ele>84.100000</ele>
                <time>2018-02-26T08:11:52.644Z</time>
            </trkpt>
            <trkpt lon="100.984088" lat="12.903266">
                <ele>83.800000</ele>
                <time>2018-02-26T08:11:53.644Z</time>
            </trkpt>
            <trkpt lon="100.984130" lat="12.903285">
                <ele>83.600000</ele>
                <time>2018-02-26T08:11:54.644Z</time>
            </trkpt>
            <trkpt lon="100.984171" lat="12.903303">
                <ele>83.300000</ele>
                <time>2018-02-26T08:11:55.644Z</time>
            </trkpt>
            <trkpt lon="100.984209" lat="12.903318">
                <ele>83.200000</ele>
                <time>2018-02-26T08:11:56.644Z</time>
            </trkpt>
            <trkpt lon="100.984245" lat="12.903335">
                <ele>83.200000</ele>
                <time>2018-02-26T08:11:57.644Z</time>
            </trkpt>
            <trkpt lon="100.984286" lat="12.903357">
                <ele>83.200000</ele>
                <time>2018-02-26T08:11:58.644Z</time>
            </trkpt>
            <trkpt lon="100.984325" lat="12.903386">
                <ele>83.200000</ele>
                <time>2018-02-26T08:11:59.644Z</time>
            </trkpt>
            <trkpt lon="100.984352" lat="12.903423">
                <ele>83.200000</ele>
                <time>2018-02-26T08:12:00.644Z</time>
            </trkpt>
            <trkpt lon="100.984379" lat="12.903461">
                <ele>83.200000</ele>
                <time>2018-02-26T08:12:01.644Z</time>
            </trkpt>
            <trkpt lon="100.984405" lat="12.903499">
                <ele>83.200000</ele>
                <time>2018-02-26T08:12:02.644Z</time>
            </trkpt>
            <trkpt lon="100.984423" lat="12.903543">
                <ele>83.200000</ele>
                <time>2018-02-26T08:12:03.644Z</time>
            </trkpt>
            <trkpt lon="100.984438" lat="12.903580">
                <ele>83.200000</ele>
                <time>2018-02-26T08:12:04.644Z</time>
            </trkpt>
            <trkpt lon="100.984456" lat="12.903614">
                <ele>83.200000</ele>
                <time>2018-02-26T08:12:05.644Z</time>
            </trkpt>
            <trkpt lon="100.984475" lat="12.903649">
                <ele>83.300000</ele>
                <time>2018-02-26T08:12:06.644Z</time>
            </trkpt>
            <trkpt lon="100.984491" lat="12.903680">
                <ele>83.200000</ele>
                <time>2018-02-26T08:12:07.644Z</time>
            </trkpt>
            <trkpt lon="100.984506" lat="12.903709">
                <ele>83.300000</ele>
                <time>2018-02-26T08:12:08.644Z</time>
            </trkpt>
            <trkpt lon="100.984520" lat="12.903740">
                <ele>83.300000</ele>
                <time>2018-02-26T08:12:09.644Z</time>
            </trkpt>
            <trkpt lon="100.984529" lat="12.903776">
                <ele>83.200000</ele>
                <time>2018-02-26T08:12:10.644Z</time>
            </trkpt>
            <trkpt lon="100.984540" lat="12.903814">
                <ele>83.400000</ele>
                <time>2018-02-26T08:12:11.644Z</time>
            </trkpt>
            <trkpt lon="100.984553" lat="12.903854">
                <ele>83.700000</ele>
                <time>2018-02-26T08:12:12.644Z</time>
            </trkpt>
            <trkpt lon="100.984565" lat="12.903891">
                <ele>83.900000</ele>
                <time>2018-02-26T08:12:13.644Z</time>
            </trkpt>
            <trkpt lon="100.984575" lat="12.903930">
                <ele>83.400000</ele>
                <time>2018-02-26T08:12:14.644Z</time>
            </trkpt>
            <trkpt lon="100.984583" lat="12.903964">
                <ele>83.500000</ele>
                <time>2018-02-26T08:12:15.644Z</time>
            </trkpt>
            <trkpt lon="100.984599" lat="12.904000">
                <ele>83.500000</ele>
                <time>2018-02-26T08:12:16.644Z</time>
            </trkpt>
            <trkpt lon="100.984613" lat="12.904028">
                <ele>83.000000</ele>
                <time>2018-02-26T08:12:17.644Z</time>
            </trkpt>
            <trkpt lon="100.984623" lat="12.904055">
                <ele>83.000000</ele>
                <time>2018-02-26T08:12:18.644Z</time>
            </trkpt>
            <trkpt lon="100.984632" lat="12.904083">
                <ele>83.000000</ele>
                <time>2018-02-26T08:12:19.644Z</time>
            </trkpt>
            <trkpt lon="100.984638" lat="12.904114">
                <ele>83.000000</ele>
                <time>2018-02-26T08:12:20.644Z</time>
            </trkpt>
            <trkpt lon="100.984646" lat="12.904143">
                <ele>83.000000</ele>
                <time>2018-02-26T08:12:21.644Z</time>
            </trkpt>
            <trkpt lon="100.984654" lat="12.904173">
                <ele>83.000000</ele>
                <time>2018-02-26T08:12:22.644Z</time>
            </trkpt>
            <trkpt lon="100.984659" lat="12.904206">
                <ele>82.500000</ele>
                <time>2018-02-26T08:12:23.644Z</time>
            </trkpt>
            <trkpt lon="100.984659" lat="12.904241">
                <ele>82.500000</ele>
                <time>2018-02-26T08:12:24.644Z</time>
            </trkpt>
            <trkpt lon="100.984664" lat="12.904276">
                <ele>82.500000</ele>
                <time>2018-02-26T08:12:25.644Z</time>
            </trkpt>
            <trkpt lon="100.984673" lat="12.904312">
                <ele>82.500000</ele>
                <time>2018-02-26T08:12:26.644Z</time>
            </trkpt>
            <trkpt lon="100.984683" lat="12.904345">
                <ele>82.500000</ele>
                <time>2018-02-26T08:12:27.644Z</time>
            </trkpt>
            <trkpt lon="100.984689" lat="12.904379">
                <ele>82.500000</ele>
                <time>2018-02-26T08:12:28.644Z</time>
            </trkpt>
            <trkpt lon="100.984697" lat="12.904413">
                <ele>82.500000</ele>
                <time>2018-02-26T08:12:29.644Z</time>
            </trkpt>
            <trkpt lon="100.984705" lat="12.904449">
                <ele>82.000000</ele>
                <time>2018-02-26T08:12:30.644Z</time>
            </trkpt>
            <trkpt lon="100.984706" lat="12.904488">
                <ele>82.000000</ele>
                <time>2018-02-26T08:12:31.644Z</time>
            </trkpt>
            <trkpt lon="100.984702" lat="12.904532">
                <ele>82.000000</ele>
                <time>2018-02-26T08:12:32.644Z</time>
            </trkpt>
            <trkpt lon="100.984700" lat="12.904574">
                <ele>82.000000</ele>
                <time>2018-02-26T08:12:33.644Z</time>
            </trkpt>
            <trkpt lon="100.984698" lat="12.904623">
                <ele>82.000000</ele>
                <time>2018-02-26T08:12:34.644Z</time>
            </trkpt>
            <trkpt lon="100.984699" lat="12.904666">
                <ele>82.000000</ele>
                <time>2018-02-26T08:12:35.644Z</time>
            </trkpt>
            <trkpt lon="100.984702" lat="12.904708">
                <ele>82.000000</ele>
                <time>2018-02-26T08:12:36.644Z</time>
            </trkpt>
            <trkpt lon="100.984708" lat="12.904755">
                <ele>82.000000</ele>
                <time>2018-02-26T08:12:37.644Z</time>
            </trkpt>
            <trkpt lon="100.984710" lat="12.904804">
                <ele>82.000000</ele>
                <time>2018-02-26T08:12:38.644Z</time>
            </trkpt>
            <trkpt lon="100.984715" lat="12.904854">
                <ele>82.000000</ele>
                <time>2018-02-26T08:12:39.644Z</time>
            </trkpt>
            <trkpt lon="100.984723" lat="12.904909">
                <ele>81.900000</ele>
                <time>2018-02-26T08:12:40.644Z</time>
            </trkpt>
            <trkpt lon="100.984729" lat="12.904960">
                <ele>81.800000</ele>
                <time>2018-02-26T08:12:41.644Z</time>
            </trkpt>
            <trkpt lon="100.984734" lat="12.905009">
                <ele>81.600000</ele>
                <time>2018-02-26T08:12:42.644Z</time>
            </trkpt>
            <trkpt lon="100.984744" lat="12.905055">
                <ele>80.600000</ele>
                <time>2018-02-26T08:12:43.644Z</time>
            </trkpt>
            <trkpt lon="100.984754" lat="12.905103">
                <ele>80.200000</ele>
                <time>2018-02-26T08:12:44.644Z</time>
            </trkpt>
            <trkpt lon="100.984765" lat="12.905152">
                <ele>80.300000</ele>
                <time>2018-02-26T08:12:45.644Z</time>
            </trkpt>
            <trkpt lon="100.984775" lat="12.905203">
                <ele>80.400000</ele>
                <time>2018-02-26T08:12:46.644Z</time>
            </trkpt>
            <trkpt lon="100.984790" lat="12.905254">
                <ele>79.900000</ele>
                <time>2018-02-26T08:12:47.644Z</time>
            </trkpt>
            <trkpt lon="100.984807" lat="12.905310">
                <ele>80.000000</ele>
                <time>2018-02-26T08:12:48.644Z</time>
            </trkpt>
            <trkpt lon="100.984824" lat="12.905363">
                <ele>80.000000</ele>
                <time>2018-02-26T08:12:49.644Z</time>
            </trkpt>
            <trkpt lon="100.984841" lat="12.905415">
                <ele>79.500000</ele>
                <time>2018-02-26T08:12:50.644Z</time>
            </trkpt>
            <trkpt lon="100.984858" lat="12.905463">
                <ele>79.600000</ele>
                <time>2018-02-26T08:12:51.644Z</time>
            </trkpt>
            <trkpt lon="100.984874" lat="12.905512">
                <ele>79.300000</ele>
                <time>2018-02-26T08:12:52.644Z</time>
            </trkpt>
            <trkpt lon="100.984893" lat="12.905560">
                <ele>79.600000</ele>
                <time>2018-02-26T08:12:53.644Z</time>
            </trkpt>
            <trkpt lon="100.984912" lat="12.905610">
                <ele>79.400000</ele>
                <time>2018-02-26T08:12:54.644Z</time>
            </trkpt>
            <trkpt lon="100.984940" lat="12.905661">
                <ele>79.300000</ele>
                <time>2018-02-26T08:12:55.644Z</time>
            </trkpt>
            <trkpt lon="100.984963" lat="12.905710">
                <ele>78.700000</ele>
                <time>2018-02-26T08:12:56.644Z</time>
            </trkpt>
            <trkpt lon="100.984988" lat="12.905763">
                <ele>78.600000</ele>
                <time>2018-02-26T08:12:57.644Z</time>
            </trkpt>
            <trkpt lon="100.985008" lat="12.905813">
                <ele>78.300000</ele>
                <time>2018-02-26T08:12:58.644Z</time>
            </trkpt>
            <trkpt lon="100.985033" lat="12.905866">
                <ele>78.300000</ele>
                <time>2018-02-26T08:12:59.644Z</time>
            </trkpt>
            <trkpt lon="100.985059" lat="12.905917">
                <ele>78.000000</ele>
                <time>2018-02-26T08:13:00.644Z</time>
            </trkpt>
            <trkpt lon="100.985081" lat="12.905964">
                <ele>78.000000</ele>
                <time>2018-02-26T08:13:01.644Z</time>
            </trkpt>
            <trkpt lon="100.985104" lat="12.906017">
                <ele>77.600000</ele>
                <time>2018-02-26T08:13:02.644Z</time>
            </trkpt>
            <trkpt lon="100.985129" lat="12.906071">
                <ele>77.500000</ele>
                <time>2018-02-26T08:13:03.644Z</time>
            </trkpt>
            <trkpt lon="100.985153" lat="12.906123">
                <ele>77.600000</ele>
                <time>2018-02-26T08:13:04.644Z</time>
            </trkpt>
            <trkpt lon="100.985181" lat="12.906175">
                <ele>77.600000</ele>
                <time>2018-02-26T08:13:05.644Z</time>
            </trkpt>
            <trkpt lon="100.985201" lat="12.906222">
                <ele>77.800000</ele>
                <time>2018-02-26T08:13:06.644Z</time>
            </trkpt>
            <trkpt lon="100.985222" lat="12.906269">
                <ele>77.900000</ele>
                <time>2018-02-26T08:13:07.644Z</time>
            </trkpt>
            <trkpt lon="100.985244" lat="12.906316">
                <ele>78.100000</ele>
                <time>2018-02-26T08:13:08.644Z</time>
            </trkpt>
            <trkpt lon="100.985267" lat="12.906361">
                <ele>78.100000</ele>
                <time>2018-02-26T08:13:09.644Z</time>
            </trkpt>
            <trkpt lon="100.985289" lat="12.906402">
                <ele>78.100000</ele>
                <time>2018-02-26T08:13:10.644Z</time>
            </trkpt>
            <trkpt lon="100.985307" lat="12.906435">
                <ele>78.100000</ele>
                <time>2018-02-26T08:13:11.644Z</time>
            </trkpt>
            <trkpt lon="100.985326" lat="12.906465">
                <ele>78.100000</ele>
                <time>2018-02-26T08:13:12.644Z</time>
            </trkpt>
            <trkpt lon="100.985351" lat="12.906494">
                <ele>78.100000</ele>
                <time>2018-02-26T08:13:13.644Z</time>
            </trkpt>
            <trkpt lon="100.985380" lat="12.906526">
                <ele>78.100000</ele>
                <time>2018-02-26T08:13:14.644Z</time>
            </trkpt>
            <trkpt lon="100.985410" lat="12.906561">
                <ele>78.100000</ele>
                <time>2018-02-26T08:13:15.644Z</time>
            </trkpt>
            <trkpt lon="100.985434" lat="12.906591">
                <ele>78.200000</ele>
                <time>2018-02-26T08:13:16.644Z</time>
            </trkpt>
            <trkpt lon="100.985456" lat="12.906617">
                <ele>78.200000</ele>
                <time>2018-02-26T08:13:17.644Z</time>
            </trkpt>
            <trkpt lon="100.985481" lat="12.906654">
                <ele>78.200000</ele>
                <time>2018-02-26T08:13:19.644Z</time>
            </trkpt>
            <trkpt lon="100.985484" lat="12.906685">
                <ele>78.200000</ele>
                <time>2018-02-26T08:13:21.644Z</time>
            </trkpt>
            <trkpt lon="100.985493" lat="12.906711">
                <ele>78.200000</ele>
                <time>2018-02-26T08:13:24.644Z</time>
            </trkpt>
            <trkpt lon="100.985499" lat="12.906738">
                <ele>78.200000</ele>
                <time>2018-02-26T08:13:32.644Z</time>
            </trkpt>
            <trkpt lon="100.985493" lat="12.906768">
                <ele>78.200000</ele>
                <time>2018-02-26T08:13:34.644Z</time>
            </trkpt>
            <trkpt lon="100.985480" lat="12.906816">
                <ele>78.300000</ele>
                <time>2018-02-26T08:13:36.644Z</time>
            </trkpt>
            <trkpt lon="100.985484" lat="12.906858">
                <ele>78.300000</ele>
                <time>2018-02-26T08:13:37.644Z</time>
            </trkpt>
            <trkpt lon="100.985486" lat="12.906897">
                <ele>78.300000</ele>
                <time>2018-02-26T08:13:38.644Z</time>
            </trkpt>
            <trkpt lon="100.985486" lat="12.906930">
                <ele>78.200000</ele>
                <time>2018-02-26T08:13:39.644Z</time>
            </trkpt>
            <trkpt lon="100.985484" lat="12.906958">
                <ele>78.200000</ele>
                <time>2018-02-26T08:13:40.644Z</time>
            </trkpt>
            <trkpt lon="100.985483" lat="12.906991">
                <ele>78.000000</ele>
                <time>2018-02-26T08:13:41.644Z</time>
            </trkpt>
            <trkpt lon="100.985481" lat="12.907025">
                <ele>77.800000</ele>
                <time>2018-02-26T08:13:42.644Z</time>
            </trkpt>
            <trkpt lon="100.985479" lat="12.907058">
                <ele>77.600000</ele>
                <time>2018-02-26T08:13:43.644Z</time>
            </trkpt>
            <trkpt lon="100.985474" lat="12.907093">
                <ele>77.400000</ele>
                <time>2018-02-26T08:13:44.644Z</time>
            </trkpt>
            <trkpt lon="100.985463" lat="12.907123">
                <ele>77.300000</ele>
                <time>2018-02-26T08:13:45.644Z</time>
            </trkpt>
            <trkpt lon="100.985449" lat="12.907154">
                <ele>77.100000</ele>
                <time>2018-02-26T08:13:46.644Z</time>
            </trkpt>
            <trkpt lon="100.985435" lat="12.907194">
                <ele>76.900000</ele>
                <time>2018-02-26T08:13:47.644Z</time>
            </trkpt>
            <trkpt lon="100.985424" lat="12.907229">
                <ele>76.600000</ele>
                <time>2018-02-26T08:13:48.644Z</time>
            </trkpt>
            <trkpt lon="100.985413" lat="12.907265">
                <ele>76.300000</ele>
                <time>2018-02-26T08:13:49.644Z</time>
            </trkpt>
            <trkpt lon="100.985406" lat="12.907293">
                <ele>76.100000</ele>
                <time>2018-02-26T08:13:50.644Z</time>
            </trkpt>
            <trkpt lon="100.985398" lat="12.907321">
                <ele>75.900000</ele>
                <time>2018-02-26T08:13:51.644Z</time>
            </trkpt>
            <trkpt lon="100.985388" lat="12.907351">
                <ele>75.800000</ele>
                <time>2018-02-26T08:13:52.644Z</time>
            </trkpt>
            <trkpt lon="100.985379" lat="12.907382">
                <ele>75.500000</ele>
                <time>2018-02-26T08:13:53.644Z</time>
            </trkpt>
            <trkpt lon="100.985377" lat="12.907421">
                <ele>75.200000</ele>
                <time>2018-02-26T08:13:54.644Z</time>
            </trkpt>
            <trkpt lon="100.985375" lat="12.907453">
                <ele>75.000000</ele>
                <time>2018-02-26T08:13:55.644Z</time>
            </trkpt>
            <trkpt lon="100.985374" lat="12.907486">
                <ele>74.900000</ele>
                <time>2018-02-26T08:13:56.644Z</time>
            </trkpt>
            <trkpt lon="100.985374" lat="12.907515">
                <ele>74.800000</ele>
                <time>2018-02-26T08:13:57.644Z</time>
            </trkpt>
            <trkpt lon="100.985378" lat="12.907543">
                <ele>74.600000</ele>
                <time>2018-02-26T08:13:58.644Z</time>
            </trkpt>
            <trkpt lon="100.985383" lat="12.907572">
                <ele>74.500000</ele>
                <time>2018-02-26T08:13:59.644Z</time>
            </trkpt>
            <trkpt lon="100.985384" lat="12.907601">
                <ele>74.300000</ele>
                <time>2018-02-26T08:14:00.644Z</time>
            </trkpt>
            <trkpt lon="100.985385" lat="12.907631">
                <ele>74.200000</ele>
                <time>2018-02-26T08:14:01.644Z</time>
            </trkpt>
            <trkpt lon="100.985388" lat="12.907662">
                <ele>74.700000</ele>
                <time>2018-02-26T08:14:02.644Z</time>
            </trkpt>
            <trkpt lon="100.985424" lat="12.907695">
                <ele>75.000000</ele>
                <time>2018-02-26T08:14:04.644Z</time>
            </trkpt>
            <trkpt lon="100.985460" lat="12.907676">
                <ele>75.200000</ele>
                <time>2018-02-26T08:14:19.644Z</time>
            </trkpt>
            <trkpt lon="100.985497" lat="12.907648">
                <ele>75.600000</ele>
                <time>2018-02-26T08:14:21.644Z</time>
            </trkpt>
            <trkpt lon="100.985544" lat="12.907624">
                <ele>76.100000</ele>
                <time>2018-02-26T08:14:23.644Z</time>
            </trkpt>
            <trkpt lon="100.985594" lat="12.907596">
                <ele>76.600000</ele>
                <time>2018-02-26T08:14:25.644Z</time>
            </trkpt>
            <trkpt lon="100.985626" lat="12.907583">
                <ele>76.800000</ele>
                <time>2018-02-26T08:14:26.644Z</time>
            </trkpt>
            <trkpt lon="100.985661" lat="12.907575">
                <ele>77.000000</ele>
                <time>2018-02-26T08:14:27.644Z</time>
            </trkpt>
            <trkpt lon="100.985698" lat="12.907569">
                <ele>77.200000</ele>
                <time>2018-02-26T08:14:28.644Z</time>
            </trkpt>
            <trkpt lon="100.985734" lat="12.907564">
                <ele>77.400000</ele>
                <time>2018-02-26T08:14:29.644Z</time>
            </trkpt>
            <trkpt lon="100.985767" lat="12.907558">
                <ele>77.500000</ele>
                <time>2018-02-26T08:14:30.644Z</time>
            </trkpt>
            <trkpt lon="100.985799" lat="12.907555">
                <ele>77.700000</ele>
                <time>2018-02-26T08:14:31.644Z</time>
            </trkpt>
            <trkpt lon="100.985831" lat="12.907549">
                <ele>77.700000</ele>
                <time>2018-02-26T08:14:32.644Z</time>
            </trkpt>
            <trkpt lon="100.985860" lat="12.907543">
                <ele>77.800000</ele>
                <time>2018-02-26T08:14:33.644Z</time>
            </trkpt>
            <trkpt lon="100.985886" lat="12.907533">
                <ele>77.900000</ele>
                <time>2018-02-26T08:14:34.644Z</time>
            </trkpt>
            <trkpt lon="100.985909" lat="12.907516">
                <ele>78.100000</ele>
                <time>2018-02-26T08:14:35.644Z</time>
            </trkpt>
            <trkpt lon="100.985951" lat="12.907476">
                <ele>78.300000</ele>
                <time>2018-02-26T08:14:37.644Z</time>
            </trkpt>
            <trkpt lon="100.985976" lat="12.907453">
                <ele>78.400000</ele>
                <time>2018-02-26T08:14:38.644Z</time>
            </trkpt>
            <trkpt lon="100.986001" lat="12.907431">
                <ele>78.600000</ele>
                <time>2018-02-26T08:14:39.644Z</time>
            </trkpt>
            <trkpt lon="100.986020" lat="12.907409">
                <ele>78.600000</ele>
                <time>2018-02-26T08:14:40.644Z</time>
            </trkpt>
            <trkpt lon="100.986042" lat="12.907385">
                <ele>78.700000</ele>
                <time>2018-02-26T08:14:41.644Z</time>
            </trkpt>
            <trkpt lon="100.986064" lat="12.907364">
                <ele>78.800000</ele>
                <time>2018-02-26T08:14:42.644Z</time>
            </trkpt>
            <trkpt lon="100.986089" lat="12.907350">
                <ele>78.900000</ele>
                <time>2018-02-26T08:14:44.644Z</time>
            </trkpt>
            <trkpt lon="100.986102" lat="12.907322">
                <ele>79.000000</ele>
                <time>2018-02-26T08:14:56.644Z</time>
            </trkpt>
            <trkpt lon="100.986126" lat="12.907282">
                <ele>79.100000</ele>
                <time>2018-02-26T08:14:58.644Z</time>
            </trkpt>
            <trkpt lon="100.986162" lat="12.907249">
                <ele>79.100000</ele>
                <time>2018-02-26T08:15:00.644Z</time>
            </trkpt>
            <trkpt lon="100.986199" lat="12.907223">
                <ele>79.100000</ele>
                <time>2018-02-26T08:15:02.644Z</time>
            </trkpt>
            <trkpt lon="100.986231" lat="12.907203">
                <ele>79.100000</ele>
                <time>2018-02-26T08:15:04.644Z</time>
            </trkpt>
            <trkpt lon="100.986272" lat="12.907186">
                <ele>79.000000</ele>
                <time>2018-02-26T08:15:06.644Z</time>
            </trkpt>
            <trkpt lon="100.986300" lat="12.907168">
                <ele>79.000000</ele>
                <time>2018-02-26T08:15:08.644Z</time>
            </trkpt>
            <trkpt lon="100.986322" lat="12.907139">
                <ele>78.900000</ele>
                <time>2018-02-26T08:15:18.644Z</time>
            </trkpt>
            <trkpt lon="100.986344" lat="12.907160">
                <ele>78.900000</ele>
                <time>2018-02-26T08:15:21.644Z</time>
            </trkpt>
            <trkpt lon="100.986369" lat="12.907201">
                <ele>79.000000</ele>
                <time>2018-02-26T08:15:23.644Z</time>
            </trkpt>
            <trkpt lon="100.986409" lat="12.907222">
                <ele>79.100000</ele>
                <time>2018-02-26T08:15:25.644Z</time>
            </trkpt>
            <trkpt lon="100.986436" lat="12.907235">
                <ele>79.100000</ele>
                <time>2018-02-26T08:15:26.644Z</time>
            </trkpt>
            <trkpt lon="100.986462" lat="12.907250">
                <ele>79.300000</ele>
                <time>2018-02-26T08:15:27.644Z</time>
            </trkpt>
            <trkpt lon="100.986487" lat="12.907266">
                <ele>79.400000</ele>
                <time>2018-02-26T08:15:28.644Z</time>
            </trkpt>
            <trkpt lon="100.986516" lat="12.907298">
                <ele>79.500000</ele>
                <time>2018-02-26T08:15:29.644Z</time>
            </trkpt>
            <trkpt lon="100.986533" lat="12.907334">
                <ele>79.400000</ele>
                <time>2018-02-26T08:15:30.644Z</time>
            </trkpt>
            <trkpt lon="100.986549" lat="12.907369">
                <ele>79.300000</ele>
                <time>2018-02-26T08:15:31.644Z</time>
            </trkpt>
            <trkpt lon="100.986571" lat="12.907394">
                <ele>79.400000</ele>
                <time>2018-02-26T08:15:32.644Z</time>
            </trkpt>
            <trkpt lon="100.986591" lat="12.907416">
                <ele>79.500000</ele>
                <time>2018-02-26T08:15:33.644Z</time>
            </trkpt>
            <trkpt lon="100.986612" lat="12.907437">
                <ele>79.600000</ele>
                <time>2018-02-26T08:15:34.644Z</time>
            </trkpt>
            <trkpt lon="100.986634" lat="12.907455">
                <ele>79.400000</ele>
                <time>2018-02-26T08:15:35.644Z</time>
            </trkpt>
            <trkpt lon="100.986656" lat="12.907474">
                <ele>79.200000</ele>
                <time>2018-02-26T08:15:36.644Z</time>
            </trkpt>
            <trkpt lon="100.986677" lat="12.907493">
                <ele>79.000000</ele>
                <time>2018-02-26T08:15:37.644Z</time>
            </trkpt>
            <trkpt lon="100.986702" lat="12.907514">
                <ele>78.900000</ele>
                <time>2018-02-26T08:15:38.644Z</time>
            </trkpt>
            <trkpt lon="100.986730" lat="12.907541">
                <ele>78.800000</ele>
                <time>2018-02-26T08:15:39.644Z</time>
            </trkpt>
            <trkpt lon="100.986754" lat="12.907563">
                <ele>78.800000</ele>
                <time>2018-02-26T08:15:40.644Z</time>
            </trkpt>
            <trkpt lon="100.986774" lat="12.907585">
                <ele>78.700000</ele>
                <time>2018-02-26T08:15:41.644Z</time>
            </trkpt>
            <trkpt lon="100.986800" lat="12.907605">
                <ele>78.700000</ele>
                <time>2018-02-26T08:15:42.644Z</time>
            </trkpt>
            <trkpt lon="100.986850" lat="12.907622">
                <ele>78.600000</ele>
                <time>2018-02-26T08:15:44.644Z</time>
            </trkpt>
            <trkpt lon="100.986877" lat="12.907632">
                <ele>78.600000</ele>
                <time>2018-02-26T08:15:45.644Z</time>
            </trkpt>
            <trkpt lon="100.986904" lat="12.907645">
                <ele>78.600000</ele>
                <time>2018-02-26T08:15:46.644Z</time>
            </trkpt>
            <trkpt lon="100.986931" lat="12.907658">
                <ele>78.700000</ele>
                <time>2018-02-26T08:15:47.644Z</time>
            </trkpt>
            <trkpt lon="100.986956" lat="12.907675">
                <ele>78.800000</ele>
                <time>2018-02-26T08:15:48.644Z</time>
            </trkpt>
            <trkpt lon="100.986994" lat="12.907701">
                <ele>78.700000</ele>
                <time>2018-02-26T08:15:50.644Z</time>
            </trkpt>
            <trkpt lon="100.987025" lat="12.907735">
                <ele>78.600000</ele>
                <time>2018-02-26T08:15:52.644Z</time>
            </trkpt>
            <trkpt lon="100.987056" lat="12.907764">
                <ele>78.700000</ele>
                <time>2018-02-26T08:15:54.644Z</time>
            </trkpt>
            <trkpt lon="100.987088" lat="12.907792">
                <ele>78.900000</ele>
                <time>2018-02-26T08:15:56.644Z</time>
            </trkpt>
            <trkpt lon="100.987120" lat="12.907822">
                <ele>78.800000</ele>
                <time>2018-02-26T08:15:58.644Z</time>
            </trkpt>
            <trkpt lon="100.987162" lat="12.907849">
                <ele>78.700000</ele>
                <time>2018-02-26T08:16:00.644Z</time>
            </trkpt>
            <trkpt lon="100.987188" lat="12.907864">
                <ele>78.600000</ele>
                <time>2018-02-26T08:16:01.644Z</time>
            </trkpt>
            <trkpt lon="100.987215" lat="12.907880">
                <ele>78.500000</ele>
                <time>2018-02-26T08:16:02.644Z</time>
            </trkpt>
            <trkpt lon="100.987242" lat="12.907896">
                <ele>78.400000</ele>
                <time>2018-02-26T08:16:03.644Z</time>
            </trkpt>
            <trkpt lon="100.987272" lat="12.907912">
                <ele>78.400000</ele>
                <time>2018-02-26T08:16:04.644Z</time>
            </trkpt>
            <trkpt lon="100.987301" lat="12.907930">
                <ele>78.300000</ele>
                <time>2018-02-26T08:16:05.644Z</time>
            </trkpt>
            <trkpt lon="100.987328" lat="12.907948">
                <ele>78.400000</ele>
                <time>2018-02-26T08:16:06.644Z</time>
            </trkpt>
            <trkpt lon="100.987354" lat="12.907963">
                <ele>78.500000</ele>
                <time>2018-02-26T08:16:07.644Z</time>
            </trkpt>
            <trkpt lon="100.987381" lat="12.907982">
                <ele>78.700000</ele>
                <time>2018-02-26T08:16:08.644Z</time>
            </trkpt>
            <trkpt lon="100.987406" lat="12.907999">
                <ele>78.700000</ele>
                <time>2018-02-26T08:16:09.644Z</time>
            </trkpt>
            <trkpt lon="100.987434" lat="12.908016">
                <ele>78.800000</ele>
                <time>2018-02-26T08:16:10.644Z</time>
            </trkpt>
            <trkpt lon="100.987463" lat="12.908034">
                <ele>78.900000</ele>
                <time>2018-02-26T08:16:11.644Z</time>
            </trkpt>
            <trkpt lon="100.987493" lat="12.908055">
                <ele>79.000000</ele>
                <time>2018-02-26T08:16:12.644Z</time>
            </trkpt>
            <trkpt lon="100.987523" lat="12.908076">
                <ele>79.000000</ele>
                <time>2018-02-26T08:16:13.644Z</time>
            </trkpt>
            <trkpt lon="100.987552" lat="12.908095">
                <ele>79.000000</ele>
                <time>2018-02-26T08:16:14.644Z</time>
            </trkpt>
            <trkpt lon="100.987576" lat="12.908110">
                <ele>79.000000</ele>
                <time>2018-02-26T08:16:15.644Z</time>
            </trkpt>
            <trkpt lon="100.987618" lat="12.908142">
                <ele>79.000000</ele>
                <time>2018-02-26T08:16:17.644Z</time>
            </trkpt>
            <trkpt lon="100.987648" lat="12.908178">
                <ele>79.000000</ele>
                <time>2018-02-26T08:16:19.644Z</time>
            </trkpt>
            <trkpt lon="100.987627" lat="12.908200">
                <ele>79.000000</ele>
                <time>2018-02-26T08:16:35.644Z</time>
            </trkpt>
            <trkpt lon="100.987602" lat="12.908212">
                <ele>79.000000</ele>
                <time>2018-02-26T08:16:42.644Z</time>
            </trkpt>
            <trkpt lon="100.987566" lat="12.908220">
                <ele>79.000000</ele>
                <time>2018-02-26T08:16:44.644Z</time>
            </trkpt>
            <trkpt lon="100.987517" lat="12.908224">
                <ele>79.000000</ele>
                <time>2018-02-26T08:16:46.644Z</time>
            </trkpt>
            <trkpt lon="100.987485" lat="12.908232">
                <ele>79.000000</ele>
                <time>2018-02-26T08:16:47.644Z</time>
            </trkpt>
            <trkpt lon="100.987454" lat="12.908243">
                <ele>78.800000</ele>
                <time>2018-02-26T08:16:48.644Z</time>
            </trkpt>
            <trkpt lon="100.987420" lat="12.908255">
                <ele>78.600000</ele>
                <time>2018-02-26T08:16:49.644Z</time>
            </trkpt>
            <trkpt lon="100.987383" lat="12.908267">
                <ele>78.300000</ele>
                <time>2018-02-26T08:16:50.644Z</time>
            </trkpt>
            <trkpt lon="100.987345" lat="12.908277">
                <ele>78.100000</ele>
                <time>2018-02-26T08:16:51.644Z</time>
            </trkpt>
            <trkpt lon="100.987307" lat="12.908287">
                <ele>77.600000</ele>
                <time>2018-02-26T08:16:52.644Z</time>
            </trkpt>
            <trkpt lon="100.987263" lat="12.908300">
                <ele>77.400000</ele>
                <time>2018-02-26T08:16:53.644Z</time>
            </trkpt>
            <trkpt lon="100.987221" lat="12.908312">
                <ele>77.400000</ele>
                <time>2018-02-26T08:16:54.644Z</time>
            </trkpt>
            <trkpt lon="100.987181" lat="12.908325">
                <ele>77.100000</ele>
                <time>2018-02-26T08:16:55.644Z</time>
            </trkpt>
            <trkpt lon="100.987141" lat="12.908338">
                <ele>77.100000</ele>
                <time>2018-02-26T08:16:56.644Z</time>
            </trkpt>
            <trkpt lon="100.987100" lat="12.908353">
                <ele>77.100000</ele>
                <time>2018-02-26T08:16:57.644Z</time>
            </trkpt>
            <trkpt lon="100.987067" lat="12.908360">
                <ele>77.100000</ele>
                <time>2018-02-26T08:16:58.644Z</time>
            </trkpt>
            <trkpt lon="100.987037" lat="12.908366">
                <ele>76.900000</ele>
                <time>2018-02-26T08:16:59.644Z</time>
            </trkpt>
            <trkpt lon="100.987007" lat="12.908374">
                <ele>76.900000</ele>
                <time>2018-02-26T08:17:00.644Z</time>
            </trkpt>
            <trkpt lon="100.986975" lat="12.908384">
                <ele>76.900000</ele>
                <time>2018-02-26T08:17:01.644Z</time>
            </trkpt>
            <trkpt lon="100.986941" lat="12.908395">
                <ele>76.900000</ele>
                <time>2018-02-26T08:17:02.644Z</time>
            </trkpt>
            <trkpt lon="100.986908" lat="12.908407">
                <ele>76.900000</ele>
                <time>2018-02-26T08:17:03.644Z</time>
            </trkpt>
            <trkpt lon="100.986879" lat="12.908426">
                <ele>76.900000</ele>
                <time>2018-02-26T08:17:04.644Z</time>
            </trkpt>
            <trkpt lon="100.986855" lat="12.908455">
                <ele>76.700000</ele>
                <time>2018-02-26T08:17:05.644Z</time>
            </trkpt>
            <trkpt lon="100.986838" lat="12.908481">
                <ele>77.000000</ele>
                <time>2018-02-26T08:17:06.644Z</time>
            </trkpt>
            <trkpt lon="100.986824" lat="12.908510">
                <ele>76.900000</ele>
                <time>2018-02-26T08:17:10.644Z</time>
            </trkpt>
            <trkpt lon="100.986817" lat="12.908538">
                <ele>76.800000</ele>
                <time>2018-02-26T08:17:12.644Z</time>
            </trkpt>
            <trkpt lon="100.986833" lat="12.908577">
                <ele>76.700000</ele>
                <time>2018-02-26T08:17:14.644Z</time>
            </trkpt>
            <trkpt lon="100.986853" lat="12.908605">
                <ele>76.200000</ele>
                <time>2018-02-26T08:17:16.644Z</time>
            </trkpt>
            <trkpt lon="100.986889" lat="12.908629">
                <ele>75.700000</ele>
                <time>2018-02-26T08:17:18.644Z</time>
            </trkpt>
            <trkpt lon="100.986935" lat="12.908659">
                <ele>75.400000</ele>
                <time>2018-02-26T08:17:20.644Z</time>
            </trkpt>
            <trkpt lon="100.986958" lat="12.908677">
                <ele>75.400000</ele>
                <time>2018-02-26T08:17:21.644Z</time>
            </trkpt>
            <trkpt lon="100.986976" lat="12.908698">
                <ele>75.100000</ele>
                <time>2018-02-26T08:17:22.644Z</time>
            </trkpt>
            <trkpt lon="100.987003" lat="12.908741">
                <ele>75.100000</ele>
                <time>2018-02-26T08:17:24.644Z</time>
            </trkpt>
            <trkpt lon="100.987038" lat="12.908764">
                <ele>74.900000</ele>
                <time>2018-02-26T08:17:26.644Z</time>
            </trkpt>
            <trkpt lon="100.987077" lat="12.908778">
                <ele>74.600000</ele>
                <time>2018-02-26T08:17:28.644Z</time>
            </trkpt>
            <trkpt lon="100.987120" lat="12.908795">
                <ele>74.900000</ele>
                <time>2018-02-26T08:17:30.644Z</time>
            </trkpt>
            <trkpt lon="100.987163" lat="12.908806">
                <ele>75.200000</ele>
                <time>2018-02-26T08:17:32.644Z</time>
            </trkpt>
            <trkpt lon="100.987199" lat="12.908801">
                <ele>75.400000</ele>
                <time>2018-02-26T08:17:34.644Z</time>
            </trkpt>
            <trkpt lon="100.987249" lat="12.908811">
                <ele>75.700000</ele>
                <time>2018-02-26T08:17:36.644Z</time>
            </trkpt>
            <trkpt lon="100.987277" lat="12.908823">
                <ele>75.900000</ele>
                <time>2018-02-26T08:17:37.644Z</time>
            </trkpt>
            <trkpt lon="100.987305" lat="12.908837">
                <ele>76.200000</ele>
                <time>2018-02-26T08:17:38.644Z</time>
            </trkpt>
            <trkpt lon="100.987331" lat="12.908853">
                <ele>76.400000</ele>
                <time>2018-02-26T08:17:39.644Z</time>
            </trkpt>
            <trkpt lon="100.987357" lat="12.908869">
                <ele>76.700000</ele>
                <time>2018-02-26T08:17:40.644Z</time>
            </trkpt>
            <trkpt lon="100.987383" lat="12.908884">
                <ele>76.900000</ele>
                <time>2018-02-26T08:17:41.644Z</time>
            </trkpt>
            <trkpt lon="100.987428" lat="12.908917">
                <ele>77.400000</ele>
                <time>2018-02-26T08:17:43.644Z</time>
            </trkpt>
            <trkpt lon="100.987464" lat="12.908949">
                <ele>77.700000</ele>
                <time>2018-02-26T08:17:45.644Z</time>
            </trkpt>
            <trkpt lon="100.987492" lat="12.908978">
                <ele>78.100000</ele>
                <time>2018-02-26T08:17:47.644Z</time>
            </trkpt>
            <trkpt lon="100.987508" lat="12.909004">
                <ele>78.200000</ele>
                <time>2018-02-26T08:17:49.644Z</time>
            </trkpt>
            <trkpt lon="100.987470" lat="12.908987">
                <ele>77.900000</ele>
                <time>2018-02-26T08:18:02.644Z</time>
            </trkpt>
            <trkpt lon="100.987449" lat="12.908955">
                <ele>77.900000</ele>
                <time>2018-02-26T08:18:04.644Z</time>
            </trkpt>
            <trkpt lon="100.987421" lat="12.908917">
                <ele>77.400000</ele>
                <time>2018-02-26T08:18:06.644Z</time>
            </trkpt>
            <trkpt lon="100.987384" lat="12.908879">
                <ele>76.900000</ele>
                <time>2018-02-26T08:18:08.644Z</time>
            </trkpt>
            <trkpt lon="100.987343" lat="12.908849">
                <ele>76.400000</ele>
                <time>2018-02-26T08:18:10.644Z</time>
            </trkpt>
            <trkpt lon="100.987303" lat="12.908823">
                <ele>75.900000</ele>
                <time>2018-02-26T08:18:12.644Z</time>
            </trkpt>
            <trkpt lon="100.987255" lat="12.908801">
                <ele>75.700000</ele>
                <time>2018-02-26T08:18:14.644Z</time>
            </trkpt>
            <trkpt lon="100.987229" lat="12.908790">
                <ele>75.400000</ele>
                <time>2018-02-26T08:18:15.644Z</time>
            </trkpt>
            <trkpt lon="100.987194" lat="12.908782">
                <ele>75.200000</ele>
                <time>2018-02-26T08:18:16.644Z</time>
            </trkpt>
            <trkpt lon="100.987160" lat="12.908775">
                <ele>75.000000</ele>
                <time>2018-02-26T08:18:17.644Z</time>
            </trkpt>
            <trkpt lon="100.987125" lat="12.908769">
                <ele>74.700000</ele>
                <time>2018-02-26T08:18:18.644Z</time>
            </trkpt>
            <trkpt lon="100.987087" lat="12.908759">
                <ele>74.600000</ele>
                <time>2018-02-26T08:18:19.644Z</time>
            </trkpt>
            <trkpt lon="100.987057" lat="12.908750">
                <ele>74.900000</ele>
                <time>2018-02-26T08:18:20.644Z</time>
            </trkpt>
            <trkpt lon="100.987030" lat="12.908744">
                <ele>74.900000</ele>
                <time>2018-02-26T08:18:22.644Z</time>
            </trkpt>
            <trkpt lon="100.987012" lat="12.908713">
                <ele>75.100000</ele>
                <time>2018-02-26T08:18:24.644Z</time>
            </trkpt>
            <trkpt lon="100.986978" lat="12.908672">
                <ele>75.100000</ele>
                <time>2018-02-26T08:18:26.644Z</time>
            </trkpt>
            <trkpt lon="100.986958" lat="12.908652">
                <ele>75.400000</ele>
                <time>2018-02-26T08:18:27.644Z</time>
            </trkpt>
            <trkpt lon="100.986940" lat="12.908627">
                <ele>75.400000</ele>
                <time>2018-02-26T08:18:28.644Z</time>
            </trkpt>
            <trkpt lon="100.986919" lat="12.908609">
                <ele>75.700000</ele>
                <time>2018-02-26T08:18:29.644Z</time>
            </trkpt>
            <trkpt lon="100.986893" lat="12.908591">
                <ele>75.700000</ele>
                <time>2018-02-26T08:18:30.644Z</time>
            </trkpt>
            <trkpt lon="100.986872" lat="12.908573">
                <ele>76.400000</ele>
                <time>2018-02-26T08:18:31.644Z</time>
            </trkpt>
            <trkpt lon="100.986860" lat="12.908520">
                <ele>76.500000</ele>
                <time>2018-02-26T08:18:33.644Z</time>
            </trkpt>
            <trkpt lon="100.986870" lat="12.908490">
                <ele>76.700000</ele>
                <time>2018-02-26T08:18:34.644Z</time>
            </trkpt>
            <trkpt lon="100.986890" lat="12.908465">
                <ele>76.400000</ele>
                <time>2018-02-26T08:18:35.644Z</time>
            </trkpt>
            <trkpt lon="100.986915" lat="12.908441">
                <ele>76.700000</ele>
                <time>2018-02-26T08:18:36.644Z</time>
            </trkpt>
            <trkpt lon="100.986940" lat="12.908420">
                <ele>76.600000</ele>
                <time>2018-02-26T08:18:37.644Z</time>
            </trkpt>
            <trkpt lon="100.986968" lat="12.908404">
                <ele>76.800000</ele>
                <time>2018-02-26T08:18:38.644Z</time>
            </trkpt>
            <trkpt lon="100.986997" lat="12.908393">
                <ele>76.800000</ele>
                <time>2018-02-26T08:18:39.644Z</time>
            </trkpt>
            <trkpt lon="100.987026" lat="12.908384">
                <ele>76.800000</ele>
                <time>2018-02-26T08:18:40.644Z</time>
            </trkpt>
            <trkpt lon="100.987061" lat="12.908378">
                <ele>76.800000</ele>
                <time>2018-02-26T08:18:41.644Z</time>
            </trkpt>
            <trkpt lon="100.987099" lat="12.908373">
                <ele>76.800000</ele>
                <time>2018-02-26T08:18:42.644Z</time>
            </trkpt>
            <trkpt lon="100.987136" lat="12.908367">
                <ele>76.800000</ele>
                <time>2018-02-26T08:18:43.644Z</time>
            </trkpt>
            <trkpt lon="100.987178" lat="12.908358">
                <ele>77.100000</ele>
                <time>2018-02-26T08:18:44.644Z</time>
            </trkpt>
            <trkpt lon="100.987217" lat="12.908350">
                <ele>77.100000</ele>
                <time>2018-02-26T08:18:45.644Z</time>
            </trkpt>
            <trkpt lon="100.987253" lat="12.908342">
                <ele>77.100000</ele>
                <time>2018-02-26T08:18:46.644Z</time>
            </trkpt>
            <trkpt lon="100.987286" lat="12.908331">
                <ele>77.300000</ele>
                <time>2018-02-26T08:18:47.644Z</time>
            </trkpt>
            <trkpt lon="100.987316" lat="12.908322">
                <ele>77.800000</ele>
                <time>2018-02-26T08:18:48.644Z</time>
            </trkpt>
            <trkpt lon="100.987347" lat="12.908312">
                <ele>77.800000</ele>
                <time>2018-02-26T08:18:49.644Z</time>
            </trkpt>
            <trkpt lon="100.987385" lat="12.908299">
                <ele>78.000000</ele>
                <time>2018-02-26T08:18:50.644Z</time>
            </trkpt>
            <trkpt lon="100.987423" lat="12.908286">
                <ele>78.300000</ele>
                <time>2018-02-26T08:18:51.644Z</time>
            </trkpt>
            <trkpt lon="100.987461" lat="12.908274">
                <ele>78.800000</ele>
                <time>2018-02-26T08:18:52.644Z</time>
            </trkpt>
            <trkpt lon="100.987500" lat="12.908264">
                <ele>79.000000</ele>
                <time>2018-02-26T08:18:53.644Z</time>
            </trkpt>
            <trkpt lon="100.987539" lat="12.908257">
                <ele>79.000000</ele>
                <time>2018-02-26T08:18:54.644Z</time>
            </trkpt>
            <trkpt lon="100.987577" lat="12.908251">
                <ele>79.000000</ele>
                <time>2018-02-26T08:18:55.644Z</time>
            </trkpt>
            <trkpt lon="100.987609" lat="12.908244">
                <ele>79.000000</ele>
                <time>2018-02-26T08:18:56.644Z</time>
            </trkpt>
            <trkpt lon="100.987634" lat="12.908231">
                <ele>79.000000</ele>
                <time>2018-02-26T08:18:57.644Z</time>
            </trkpt>
            <trkpt lon="100.987647" lat="12.908207">
                <ele>79.000000</ele>
                <time>2018-02-26T08:18:59.644Z</time>
            </trkpt>
            <trkpt lon="100.987687" lat="12.908224">
                <ele>79.100000</ele>
                <time>2018-02-26T08:19:08.644Z</time>
            </trkpt>
            <trkpt lon="100.987704" lat="12.908245">
                <ele>79.100000</ele>
                <time>2018-02-26T08:19:09.644Z</time>
            </trkpt>
            <trkpt lon="100.987723" lat="12.908267">
                <ele>79.100000</ele>
                <time>2018-02-26T08:19:10.644Z</time>
            </trkpt>
            <trkpt lon="100.987737" lat="12.908295">
                <ele>79.200000</ele>
                <time>2018-02-26T08:19:11.644Z</time>
            </trkpt>
            <trkpt lon="100.987752" lat="12.908323">
                <ele>79.200000</ele>
                <time>2018-02-26T08:19:12.644Z</time>
            </trkpt>
            <trkpt lon="100.987767" lat="12.908352">
                <ele>79.200000</ele>
                <time>2018-02-26T08:19:13.644Z</time>
            </trkpt>
            <trkpt lon="100.987782" lat="12.908381">
                <ele>79.300000</ele>
                <time>2018-02-26T08:19:14.644Z</time>
            </trkpt>
            <trkpt lon="100.987797" lat="12.908409">
                <ele>79.300000</ele>
                <time>2018-02-26T08:19:15.644Z</time>
            </trkpt>
            <trkpt lon="100.987811" lat="12.908435">
                <ele>79.300000</ele>
                <time>2018-02-26T08:19:16.644Z</time>
            </trkpt>
            <trkpt lon="100.987839" lat="12.908478">
                <ele>79.400000</ele>
                <time>2018-02-26T08:19:18.644Z</time>
            </trkpt>
            <trkpt lon="100.987852" lat="12.908504">
                <ele>79.600000</ele>
                <time>2018-02-26T08:19:21.644Z</time>
            </trkpt>
            <trkpt lon="100.987879" lat="12.908526">
                <ele>79.700000</ele>
                <time>2018-02-26T08:19:34.644Z</time>
            </trkpt>
            <trkpt lon="100.987909" lat="12.908561">
                <ele>80.000000</ele>
                <time>2018-02-26T08:19:36.644Z</time>
            </trkpt>
            <trkpt lon="100.987924" lat="12.908592">
                <ele>80.100000</ele>
                <time>2018-02-26T08:19:37.644Z</time>
            </trkpt>
            <trkpt lon="100.987941" lat="12.908624">
                <ele>80.300000</ele>
                <time>2018-02-26T08:19:38.644Z</time>
            </trkpt>
            <trkpt lon="100.987958" lat="12.908656">
                <ele>80.500000</ele>
                <time>2018-02-26T08:19:39.644Z</time>
            </trkpt>
            <trkpt lon="100.987976" lat="12.908689">
                <ele>80.500000</ele>
                <time>2018-02-26T08:19:40.644Z</time>
            </trkpt>
            <trkpt lon="100.987995" lat="12.908717">
                <ele>80.600000</ele>
                <time>2018-02-26T08:19:41.644Z</time>
            </trkpt>
            <trkpt lon="100.988013" lat="12.908743">
                <ele>80.600000</ele>
                <time>2018-02-26T08:19:42.644Z</time>
            </trkpt>
            <trkpt lon="100.988032" lat="12.908765">
                <ele>80.600000</ele>
                <time>2018-02-26T08:19:43.644Z</time>
            </trkpt>
            <trkpt lon="100.988060" lat="12.908805">
                <ele>80.700000</ele>
                <time>2018-02-26T08:19:45.644Z</time>
            </trkpt>
            <trkpt lon="100.988078" lat="12.908838">
                <ele>80.700000</ele>
                <time>2018-02-26T08:19:47.644Z</time>
            </trkpt>
            <trkpt lon="100.988103" lat="12.908878">
                <ele>80.700000</ele>
                <time>2018-02-26T08:19:49.644Z</time>
            </trkpt>
            <trkpt lon="100.988133" lat="12.908925">
                <ele>80.700000</ele>
                <time>2018-02-26T08:19:51.644Z</time>
            </trkpt>
            <trkpt lon="100.988153" lat="12.908958">
                <ele>80.700000</ele>
                <time>2018-02-26T08:19:52.644Z</time>
            </trkpt>
            <trkpt lon="100.988173" lat="12.908990">
                <ele>80.800000</ele>
                <time>2018-02-26T08:19:53.644Z</time>
            </trkpt>
            <trkpt lon="100.988192" lat="12.909022">
                <ele>80.800000</ele>
                <time>2018-02-26T08:19:54.644Z</time>
            </trkpt>
            <trkpt lon="100.988210" lat="12.909053">
                <ele>80.800000</ele>
                <time>2018-02-26T08:19:55.644Z</time>
            </trkpt>
            <trkpt lon="100.988229" lat="12.909081">
                <ele>80.800000</ele>
                <time>2018-02-26T08:19:56.644Z</time>
            </trkpt>
            <trkpt lon="100.988247" lat="12.909107">
                <ele>80.800000</ele>
                <time>2018-02-26T08:19:57.644Z</time>
            </trkpt>
            <trkpt lon="100.988265" lat="12.909135">
                <ele>80.700000</ele>
                <time>2018-02-26T08:19:58.644Z</time>
            </trkpt>
            <trkpt lon="100.988281" lat="12.909163">
                <ele>80.700000</ele>
                <time>2018-02-26T08:19:59.644Z</time>
            </trkpt>
            <trkpt lon="100.988299" lat="12.909189">
                <ele>80.700000</ele>
                <time>2018-02-26T08:20:00.644Z</time>
            </trkpt>
            <trkpt lon="100.988313" lat="12.909215">
                <ele>80.700000</ele>
                <time>2018-02-26T08:20:01.644Z</time>
            </trkpt>
            <trkpt lon="100.988329" lat="12.909245">
                <ele>80.700000</ele>
                <time>2018-02-26T08:20:02.644Z</time>
            </trkpt>
            <trkpt lon="100.988344" lat="12.909277">
                <ele>80.700000</ele>
                <time>2018-02-26T08:20:03.644Z</time>
            </trkpt>
            <trkpt lon="100.988361" lat="12.909308">
                <ele>80.700000</ele>
                <time>2018-02-26T08:20:04.644Z</time>
            </trkpt>
            <trkpt lon="100.988383" lat="12.909342">
                <ele>80.700000</ele>
                <time>2018-02-26T08:20:05.644Z</time>
            </trkpt>
            <trkpt lon="100.988399" lat="12.909368">
                <ele>80.700000</ele>
                <time>2018-02-26T08:20:06.644Z</time>
            </trkpt>
            <trkpt lon="100.988427" lat="12.909387">
                <ele>80.700000</ele>
                <time>2018-02-26T08:20:08.644Z</time>
            </trkpt>
            <trkpt lon="100.988440" lat="12.909411">
                <ele>80.700000</ele>
                <time>2018-02-26T08:20:10.644Z</time>
            </trkpt>
            <trkpt lon="100.988455" lat="12.909455">
                <ele>80.700000</ele>
                <time>2018-02-26T08:20:12.644Z</time>
            </trkpt>
            <trkpt lon="100.988471" lat="12.909481">
                <ele>80.600000</ele>
                <time>2018-02-26T08:20:13.644Z</time>
            </trkpt>
            <trkpt lon="100.988493" lat="12.909514">
                <ele>80.600000</ele>
                <time>2018-02-26T08:20:14.644Z</time>
            </trkpt>
            <trkpt lon="100.988515" lat="12.909552">
                <ele>80.600000</ele>
                <time>2018-02-26T08:20:15.644Z</time>
            </trkpt>
            <trkpt lon="100.988537" lat="12.909586">
                <ele>80.600000</ele>
                <time>2018-02-26T08:20:16.644Z</time>
            </trkpt>
            <trkpt lon="100.988557" lat="12.909618">
                <ele>80.600000</ele>
                <time>2018-02-26T08:20:17.644Z</time>
            </trkpt>
            <trkpt lon="100.988578" lat="12.909651">
                <ele>80.500000</ele>
                <time>2018-02-26T08:20:18.644Z</time>
            </trkpt>
            <trkpt lon="100.988602" lat="12.909687">
                <ele>80.500000</ele>
                <time>2018-02-26T08:20:19.644Z</time>
            </trkpt>
            <trkpt lon="100.988624" lat="12.909725">
                <ele>80.500000</ele>
                <time>2018-02-26T08:20:20.644Z</time>
            </trkpt>
            <trkpt lon="100.988647" lat="12.909764">
                <ele>80.400000</ele>
                <time>2018-02-26T08:20:21.644Z</time>
            </trkpt>
            <trkpt lon="100.988673" lat="12.909807">
                <ele>80.400000</ele>
                <time>2018-02-26T08:20:22.644Z</time>
            </trkpt>
            <trkpt lon="100.988694" lat="12.909849">
                <ele>80.300000</ele>
                <time>2018-02-26T08:20:23.644Z</time>
            </trkpt>
            <trkpt lon="100.988716" lat="12.909891">
                <ele>80.300000</ele>
                <time>2018-02-26T08:20:24.644Z</time>
            </trkpt>
            <trkpt lon="100.988743" lat="12.909933">
                <ele>80.200000</ele>
                <time>2018-02-26T08:20:25.644Z</time>
            </trkpt>
            <trkpt lon="100.988776" lat="12.909976">
                <ele>80.200000</ele>
                <time>2018-02-26T08:20:26.644Z</time>
            </trkpt>
            <trkpt lon="100.988809" lat="12.910019">
                <ele>80.100000</ele>
                <time>2018-02-26T08:20:27.644Z</time>
            </trkpt>
            <trkpt lon="100.988838" lat="12.910064">
                <ele>80.000000</ele>
                <time>2018-02-26T08:20:28.644Z</time>
            </trkpt>
            <trkpt lon="100.988866" lat="12.910112">
                <ele>79.700000</ele>
                <time>2018-02-26T08:20:29.644Z</time>
            </trkpt>
            <trkpt lon="100.988895" lat="12.910160">
                <ele>79.500000</ele>
                <time>2018-02-26T08:20:30.644Z</time>
            </trkpt>
            <trkpt lon="100.988923" lat="12.910209">
                <ele>79.300000</ele>
                <time>2018-02-26T08:20:31.644Z</time>
            </trkpt>
            <trkpt lon="100.988950" lat="12.910259">
                <ele>79.100000</ele>
                <time>2018-02-26T08:20:32.644Z</time>
            </trkpt>
            <trkpt lon="100.988970" lat="12.910303">
                <ele>79.000000</ele>
                <time>2018-02-26T08:20:33.644Z</time>
            </trkpt>
            <trkpt lon="100.988983" lat="12.910339">
                <ele>79.000000</ele>
                <time>2018-02-26T08:20:34.644Z</time>
            </trkpt>
            <trkpt lon="100.988994" lat="12.910376">
                <ele>78.900000</ele>
                <time>2018-02-26T08:20:35.644Z</time>
            </trkpt>
            <trkpt lon="100.989007" lat="12.910406">
                <ele>78.900000</ele>
                <time>2018-02-26T08:20:36.644Z</time>
            </trkpt>
            <trkpt lon="100.989023" lat="12.910433">
                <ele>78.900000</ele>
                <time>2018-02-26T08:20:37.644Z</time>
            </trkpt>
            <trkpt lon="100.989040" lat="12.910461">
                <ele>78.800000</ele>
                <time>2018-02-26T08:20:38.644Z</time>
            </trkpt>
            <trkpt lon="100.989045" lat="12.910495">
                <ele>78.800000</ele>
                <time>2018-02-26T08:20:39.644Z</time>
            </trkpt>
            <trkpt lon="100.989047" lat="12.910528">
                <ele>78.700000</ele>
                <time>2018-02-26T08:20:40.644Z</time>
            </trkpt>
            <trkpt lon="100.989055" lat="12.910555">
                <ele>78.700000</ele>
                <time>2018-02-26T08:20:41.644Z</time>
            </trkpt>
            <trkpt lon="100.989062" lat="12.910582">
                <ele>78.700000</ele>
                <time>2018-02-26T08:20:42.644Z</time>
            </trkpt>
            <trkpt lon="100.989070" lat="12.910610">
                <ele>78.700000</ele>
                <time>2018-02-26T08:20:43.644Z</time>
            </trkpt>
            <trkpt lon="100.989084" lat="12.910657">
                <ele>78.700000</ele>
                <time>2018-02-26T08:20:45.644Z</time>
            </trkpt>
            <trkpt lon="100.989103" lat="12.910712">
                <ele>78.700000</ele>
                <time>2018-02-26T08:20:47.644Z</time>
            </trkpt>
            <trkpt lon="100.989117" lat="12.910743">
                <ele>78.700000</ele>
                <time>2018-02-26T08:20:48.644Z</time>
            </trkpt>
            <trkpt lon="100.989131" lat="12.910775">
                <ele>78.700000</ele>
                <time>2018-02-26T08:20:49.644Z</time>
            </trkpt>
            <trkpt lon="100.989144" lat="12.910809">
                <ele>78.600000</ele>
                <time>2018-02-26T08:20:50.644Z</time>
            </trkpt>
            <trkpt lon="100.989158" lat="12.910844">
                <ele>78.600000</ele>
                <time>2018-02-26T08:20:51.644Z</time>
            </trkpt>
            <trkpt lon="100.989172" lat="12.910878">
                <ele>78.600000</ele>
                <time>2018-02-26T08:20:52.644Z</time>
            </trkpt>
            <trkpt lon="100.989187" lat="12.910912">
                <ele>78.600000</ele>
                <time>2018-02-26T08:20:53.644Z</time>
            </trkpt>
            <trkpt lon="100.989202" lat="12.910944">
                <ele>78.600000</ele>
                <time>2018-02-26T08:20:54.644Z</time>
            </trkpt>
            <trkpt lon="100.989215" lat="12.910972">
                <ele>78.600000</ele>
                <time>2018-02-26T08:20:55.644Z</time>
            </trkpt>
            <trkpt lon="100.989234" lat="12.910995">
                <ele>78.600000</ele>
                <time>2018-02-26T08:20:56.644Z</time>
            </trkpt>
            <trkpt lon="100.989253" lat="12.911015">
                <ele>78.600000</ele>
                <time>2018-02-26T08:20:57.644Z</time>
            </trkpt>
            <trkpt lon="100.989274" lat="12.911041">
                <ele>78.600000</ele>
                <time>2018-02-26T08:20:59.644Z</time>
            </trkpt>
            <trkpt lon="100.989261" lat="12.911071">
                <ele>78.000000</ele>
                <time>2018-02-26T08:21:02.644Z</time>
            </trkpt>
            <trkpt lon="100.989266" lat="12.911099">
                <ele>77.500000</ele>
                <time>2018-02-26T08:21:04.644Z</time>
            </trkpt>
            <trkpt lon="100.989271" lat="12.911143">
                <ele>77.100000</ele>
                <time>2018-02-26T08:21:06.644Z</time>
            </trkpt>
            <trkpt lon="100.989269" lat="12.911191">
                <ele>76.900000</ele>
                <time>2018-02-26T08:21:08.644Z</time>
            </trkpt>
            <trkpt lon="100.989273" lat="12.911219">
                <ele>76.600000</ele>
                <time>2018-02-26T08:21:09.644Z</time>
            </trkpt>
            <trkpt lon="100.989274" lat="12.911257">
                <ele>76.400000</ele>
                <time>2018-02-26T08:21:11.644Z</time>
            </trkpt>
            <trkpt lon="100.989276" lat="12.911296">
                <ele>76.400000</ele>
                <time>2018-02-26T08:21:13.644Z</time>
            </trkpt>
            <trkpt lon="100.989270" lat="12.911330">
                <ele>76.300000</ele>
                <time>2018-02-26T08:21:15.644Z</time>
            </trkpt>
            <trkpt lon="100.989268" lat="12.911376">
                <ele>76.500000</ele>
                <time>2018-02-26T08:21:17.644Z</time>
            </trkpt>
            <trkpt lon="100.989273" lat="12.911404">
                <ele>76.700000</ele>
                <time>2018-02-26T08:21:18.644Z</time>
            </trkpt>
            <trkpt lon="100.989276" lat="12.911453">
                <ele>76.900000</ele>
                <time>2018-02-26T08:21:20.644Z</time>
            </trkpt>
            <trkpt lon="100.989288" lat="12.911507">
                <ele>77.700000</ele>
                <time>2018-02-26T08:21:22.644Z</time>
            </trkpt>
            <trkpt lon="100.989304" lat="12.911533">
                <ele>77.600000</ele>
                <time>2018-02-26T08:21:23.644Z</time>
            </trkpt>
            <trkpt lon="100.989320" lat="12.911557">
                <ele>78.000000</ele>
                <time>2018-02-26T08:21:24.644Z</time>
            </trkpt>
            <trkpt lon="100.989330" lat="12.911583">
                <ele>78.000000</ele>
                <time>2018-02-26T08:21:25.644Z</time>
            </trkpt>
            <trkpt lon="100.989334" lat="12.911610">
                <ele>78.400000</ele>
                <time>2018-02-26T08:21:26.644Z</time>
            </trkpt>
            <trkpt lon="100.989340" lat="12.911637">
                <ele>78.800000</ele>
                <time>2018-02-26T08:21:27.644Z</time>
            </trkpt>
            <trkpt lon="100.989345" lat="12.911665">
                <ele>78.700000</ele>
                <time>2018-02-26T08:21:28.644Z</time>
            </trkpt>
            <trkpt lon="100.989346" lat="12.911697">
                <ele>79.100000</ele>
                <time>2018-02-26T08:21:29.644Z</time>
            </trkpt>
            <trkpt lon="100.989348" lat="12.911731">
                <ele>79.500000</ele>
                <time>2018-02-26T08:21:30.644Z</time>
            </trkpt>
            <trkpt lon="100.989351" lat="12.911765">
                <ele>79.900000</ele>
                <time>2018-02-26T08:21:31.644Z</time>
            </trkpt>
            <trkpt lon="100.989356" lat="12.911793">
                <ele>79.800000</ele>
                <time>2018-02-26T08:21:32.644Z</time>
            </trkpt>
            <trkpt lon="100.989366" lat="12.911822">
                <ele>80.100000</ele>
                <time>2018-02-26T08:21:33.644Z</time>
            </trkpt>
            <trkpt lon="100.989383" lat="12.911853">
                <ele>80.000000</ele>
                <time>2018-02-26T08:21:34.644Z</time>
            </trkpt>
            <trkpt lon="100.989404" lat="12.911885">
                <ele>80.100000</ele>
                <time>2018-02-26T08:21:35.644Z</time>
            </trkpt>
            <trkpt lon="100.989432" lat="12.911906">
                <ele>79.800000</ele>
                <time>2018-02-26T08:21:36.644Z</time>
            </trkpt>
            <trkpt lon="100.989459" lat="12.911925">
                <ele>80.000000</ele>
                <time>2018-02-26T08:21:37.644Z</time>
            </trkpt>
            <trkpt lon="100.989488" lat="12.911939">
                <ele>79.700000</ele>
                <time>2018-02-26T08:21:38.644Z</time>
            </trkpt>
            <trkpt lon="100.989519" lat="12.911952">
                <ele>79.500000</ele>
                <time>2018-02-26T08:21:39.644Z</time>
            </trkpt>
            <trkpt lon="100.989549" lat="12.911966">
                <ele>79.500000</ele>
                <time>2018-02-26T08:21:40.644Z</time>
            </trkpt>
            <trkpt lon="100.989580" lat="12.911982">
                <ele>79.500000</ele>
                <time>2018-02-26T08:21:41.644Z</time>
            </trkpt>
            <trkpt lon="100.989606" lat="12.911993">
                <ele>79.400000</ele>
                <time>2018-02-26T08:21:42.644Z</time>
            </trkpt>
            <trkpt lon="100.989633" lat="12.912000">
                <ele>79.300000</ele>
                <time>2018-02-26T08:21:43.644Z</time>
            </trkpt>
            <trkpt lon="100.989662" lat="12.912003">
                <ele>79.200000</ele>
                <time>2018-02-26T08:21:44.644Z</time>
            </trkpt>
            <trkpt lon="100.989693" lat="12.912006">
                <ele>79.300000</ele>
                <time>2018-02-26T08:21:45.644Z</time>
            </trkpt>
            <trkpt lon="100.989723" lat="12.912011">
                <ele>79.300000</ele>
                <time>2018-02-26T08:21:46.644Z</time>
            </trkpt>
            <trkpt lon="100.989774" lat="12.912026">
                <ele>79.400000</ele>
                <time>2018-02-26T08:21:48.644Z</time>
            </trkpt>
            <trkpt lon="100.989804" lat="12.912042">
                <ele>79.300000</ele>
                <time>2018-02-26T08:21:49.644Z</time>
            </trkpt>
            <trkpt lon="100.989834" lat="12.912063">
                <ele>79.200000</ele>
                <time>2018-02-26T08:21:50.644Z</time>
            </trkpt>
            <trkpt lon="100.989862" lat="12.912085">
                <ele>79.400000</ele>
                <time>2018-02-26T08:21:51.644Z</time>
            </trkpt>
            <trkpt lon="100.989889" lat="12.912107">
                <ele>79.100000</ele>
                <time>2018-02-26T08:21:52.644Z</time>
            </trkpt>
            <trkpt lon="100.989917" lat="12.912132">
                <ele>79.400000</ele>
                <time>2018-02-26T08:21:53.644Z</time>
            </trkpt>
            <trkpt lon="100.989946" lat="12.912156">
                <ele>79.800000</ele>
                <time>2018-02-26T08:21:54.644Z</time>
            </trkpt>
            <trkpt lon="100.989975" lat="12.912179">
                <ele>79.500000</ele>
                <time>2018-02-26T08:21:55.644Z</time>
            </trkpt>
            <trkpt lon="100.990002" lat="12.912205">
                <ele>79.900000</ele>
                <time>2018-02-26T08:21:56.644Z</time>
            </trkpt>
            <trkpt lon="100.990023" lat="12.912227">
                <ele>80.000000</ele>
                <time>2018-02-26T08:21:57.644Z</time>
            </trkpt>
            <trkpt lon="100.990042" lat="12.912248">
                <ele>79.900000</ele>
                <time>2018-02-26T08:21:58.644Z</time>
            </trkpt>
            <trkpt lon="100.990057" lat="12.912273">
                <ele>79.600000</ele>
                <time>2018-02-26T08:21:59.644Z</time>
            </trkpt>
            <trkpt lon="100.990072" lat="12.912299">
                <ele>79.800000</ele>
                <time>2018-02-26T08:22:00.644Z</time>
            </trkpt>
            <trkpt lon="100.990097" lat="12.912342">
                <ele>79.500000</ele>
                <time>2018-02-26T08:22:02.644Z</time>
            </trkpt>
            <trkpt lon="100.990104" lat="12.912375">
                <ele>79.400000</ele>
                <time>2018-02-26T08:22:04.644Z</time>
            </trkpt>
            <trkpt lon="100.990116" lat="12.912400">
                <ele>79.600000</ele>
                <time>2018-02-26T08:22:06.644Z</time>
            </trkpt>
            <trkpt lon="100.990136" lat="12.912438">
                <ele>79.200000</ele>
                <time>2018-02-26T08:22:08.644Z</time>
            </trkpt>
            <trkpt lon="100.990155" lat="12.912480">
                <ele>79.400000</ele>
                <time>2018-02-26T08:22:10.644Z</time>
            </trkpt>
            <trkpt lon="100.990161" lat="12.912531">
                <ele>79.100000</ele>
                <time>2018-02-26T08:22:12.644Z</time>
            </trkpt>
            <trkpt lon="100.990158" lat="12.912564">
                <ele>78.800000</ele>
                <time>2018-02-26T08:22:13.644Z</time>
            </trkpt>
            <trkpt lon="100.990153" lat="12.912591">
                <ele>78.500000</ele>
                <time>2018-02-26T08:22:14.644Z</time>
            </trkpt>
            <trkpt lon="100.990155" lat="12.912635">
                <ele>78.300000</ele>
                <time>2018-02-26T08:22:16.644Z</time>
            </trkpt>
            <trkpt lon="100.990180" lat="12.912683">
                <ele>78.300000</ele>
                <time>2018-02-26T08:22:18.644Z</time>
            </trkpt>
            <trkpt lon="100.990188" lat="12.912711">
                <ele>78.200000</ele>
                <time>2018-02-26T08:22:19.644Z</time>
            </trkpt>
            <trkpt lon="100.990196" lat="12.912739">
                <ele>78.400000</ele>
                <time>2018-02-26T08:22:20.644Z</time>
            </trkpt>
            <trkpt lon="100.990205" lat="12.912766">
                <ele>78.300000</ele>
                <time>2018-02-26T08:22:21.644Z</time>
            </trkpt>
            <trkpt lon="100.990223" lat="12.912814">
                <ele>78.300000</ele>
                <time>2018-02-26T08:22:23.644Z</time>
            </trkpt>
            <trkpt lon="100.990243" lat="12.912861">
                <ele>78.600000</ele>
                <time>2018-02-26T08:22:25.644Z</time>
            </trkpt>
            <trkpt lon="100.990279" lat="12.912884">
                <ele>78.800000</ele>
                <time>2018-02-26T08:22:27.644Z</time>
            </trkpt>
            <trkpt lon="100.990313" lat="12.912905">
                <ele>78.700000</ele>
                <time>2018-02-26T08:22:29.644Z</time>
            </trkpt>
            <trkpt lon="100.990349" lat="12.912924">
                <ele>78.700000</ele>
                <time>2018-02-26T08:22:31.644Z</time>
            </trkpt>
            <trkpt lon="100.990382" lat="12.912951">
                <ele>78.700000</ele>
                <time>2018-02-26T08:22:33.644Z</time>
            </trkpt>
            <trkpt lon="100.990409" lat="12.912978">
                <ele>78.600000</ele>
                <time>2018-02-26T08:22:35.644Z</time>
            </trkpt>
            <trkpt lon="100.990436" lat="12.913000">
                <ele>78.600000</ele>
                <time>2018-02-26T08:22:37.644Z</time>
            </trkpt>
            <trkpt lon="100.990465" lat="12.913026">
                <ele>78.500000</ele>
                <time>2018-02-26T08:22:39.644Z</time>
            </trkpt>
            <trkpt lon="100.990505" lat="12.913061">
                <ele>78.400000</ele>
                <time>2018-02-26T08:22:41.644Z</time>
            </trkpt>
            <trkpt lon="100.990534" lat="12.913105">
                <ele>78.500000</ele>
                <time>2018-02-26T08:22:43.644Z</time>
            </trkpt>
            <trkpt lon="100.990547" lat="12.913147">
                <ele>78.400000</ele>
                <time>2018-02-26T08:22:45.644Z</time>
            </trkpt>
            <trkpt lon="100.990528" lat="12.913168">
                <ele>78.200000</ele>
                <time>2018-02-26T08:22:47.644Z</time>
            </trkpt>
            <trkpt lon="100.990515" lat="12.913192">
                <ele>78.100000</ele>
                <time>2018-02-26T08:22:50.644Z</time>
            </trkpt>
            <trkpt lon="100.990501" lat="12.913231">
                <ele>78.000000</ele>
                <time>2018-02-26T08:22:52.644Z</time>
            </trkpt>
            <trkpt lon="100.990490" lat="12.913271">
                <ele>77.600000</ele>
                <time>2018-02-26T08:22:54.644Z</time>
            </trkpt>
            <trkpt lon="100.990505" lat="12.913297">
                <ele>77.800000</ele>
                <time>2018-02-26T08:22:56.644Z</time>
            </trkpt>
            <trkpt lon="100.990550" lat="12.913321">
                <ele>78.000000</ele>
                <time>2018-02-26T08:22:58.644Z</time>
            </trkpt>
            <trkpt lon="100.990594" lat="12.913334">
                <ele>78.100000</ele>
                <time>2018-02-26T08:23:00.644Z</time>
            </trkpt>
            <trkpt lon="100.990636" lat="12.913324">
                <ele>78.300000</ele>
                <time>2018-02-26T08:23:02.644Z</time>
            </trkpt>
            <trkpt lon="100.990667" lat="12.913313">
                <ele>78.500000</ele>
                <time>2018-02-26T08:23:04.644Z</time>
            </trkpt>
            <trkpt lon="100.990695" lat="12.913285">
                <ele>78.400000</ele>
                <time>2018-02-26T08:23:07.644Z</time>
            </trkpt>
            <trkpt lon="100.990732" lat="12.913305">
                <ele>78.600000</ele>
                <time>2018-02-26T08:23:09.644Z</time>
            </trkpt>
            <trkpt lon="100.990760" lat="12.913333">
                <ele>78.800000</ele>
                <time>2018-02-26T08:23:22.644Z</time>
            </trkpt>
            <trkpt lon="100.990790" lat="12.913343">
                <ele>78.700000</ele>
                <time>2018-02-26T08:23:26.644Z</time>
            </trkpt>
            <trkpt lon="100.990818" lat="12.913361">
                <ele>78.800000</ele>
                <time>2018-02-26T08:23:36.644Z</time>
            </trkpt>
            <trkpt lon="100.990836" lat="12.913384">
                <ele>78.800000</ele>
                <time>2018-02-26T08:23:38.644Z</time>
            </trkpt>
            <trkpt lon="100.990858" lat="12.913407">
                <ele>78.900000</ele>
                <time>2018-02-26T08:23:40.644Z</time>
            </trkpt>
            <trkpt lon="100.990888" lat="12.913425">
                <ele>79.100000</ele>
                <time>2018-02-26T08:23:42.644Z</time>
            </trkpt>
            <trkpt lon="100.990918" lat="12.913449">
                <ele>79.200000</ele>
                <time>2018-02-26T08:23:45.644Z</time>
            </trkpt>
            <trkpt lon="100.990949" lat="12.913474">
                <ele>79.400000</ele>
                <time>2018-02-26T08:23:48.644Z</time>
            </trkpt>
            <trkpt lon="100.990980" lat="12.913507">
                <ele>79.600000</ele>
                <time>2018-02-26T08:23:50.644Z</time>
            </trkpt>
            <trkpt lon="100.991019" lat="12.913544">
                <ele>79.700000</ele>
                <time>2018-02-26T08:23:52.644Z</time>
            </trkpt>
            <trkpt lon="100.991048" lat="12.913570">
                <ele>79.800000</ele>
                <time>2018-02-26T08:23:54.644Z</time>
            </trkpt>
            <trkpt lon="100.991077" lat="12.913591">
                <ele>79.800000</ele>
                <time>2018-02-26T08:23:56.644Z</time>
            </trkpt>
            <trkpt lon="100.991104" lat="12.913614">
                <ele>79.900000</ele>
                <time>2018-02-26T08:23:58.644Z</time>
            </trkpt>
            <trkpt lon="100.991100" lat="12.913644">
                <ele>79.900000</ele>
                <time>2018-02-26T08:24:02.644Z</time>
            </trkpt>
            <trkpt lon="100.991070" lat="12.913673">
                <ele>80.000000</ele>
                <time>2018-02-26T08:24:10.644Z</time>
            </trkpt>
            <trkpt lon="100.991041" lat="12.913700">
                <ele>80.000000</ele>
                <time>2018-02-26T08:24:14.644Z</time>
            </trkpt>
            <trkpt lon="100.991011" lat="12.913727">
                <ele>79.800000</ele>
                <time>2018-02-26T08:24:16.644Z</time>
            </trkpt>
            <trkpt lon="100.990987" lat="12.913742">
                <ele>79.600000</ele>
                <time>2018-02-26T08:24:27.644Z</time>
            </trkpt>
            <trkpt lon="100.990958" lat="12.913761">
                <ele>79.400000</ele>
                <time>2018-02-26T08:24:29.644Z</time>
            </trkpt>
            <trkpt lon="100.990932" lat="12.913780">
                <ele>79.500000</ele>
                <time>2018-02-26T08:24:30.644Z</time>
            </trkpt>
            <trkpt lon="100.990907" lat="12.913803">
                <ele>79.400000</ele>
                <time>2018-02-26T08:24:31.644Z</time>
            </trkpt>
            <trkpt lon="100.990879" lat="12.913833">
                <ele>79.500000</ele>
                <time>2018-02-26T08:24:32.644Z</time>
            </trkpt>
            <trkpt lon="100.990851" lat="12.913865">
                <ele>79.400000</ele>
                <time>2018-02-26T08:24:33.644Z</time>
            </trkpt>
            <trkpt lon="100.990819" lat="12.913896">
                <ele>79.100000</ele>
                <time>2018-02-26T08:24:34.644Z</time>
            </trkpt>
            <trkpt lon="100.990779" lat="12.913921">
                <ele>78.900000</ele>
                <time>2018-02-26T08:24:35.644Z</time>
            </trkpt>
            <trkpt lon="100.990742" lat="12.913947">
                <ele>78.600000</ele>
                <time>2018-02-26T08:24:36.644Z</time>
            </trkpt>
            <trkpt lon="100.990706" lat="12.913974">
                <ele>78.600000</ele>
                <time>2018-02-26T08:24:37.644Z</time>
            </trkpt>
            <trkpt lon="100.990670" lat="12.914005">
                <ele>78.300000</ele>
                <time>2018-02-26T08:24:38.644Z</time>
            </trkpt>
            <trkpt lon="100.990636" lat="12.914035">
                <ele>78.200000</ele>
                <time>2018-02-26T08:24:39.644Z</time>
            </trkpt>
            <trkpt lon="100.990604" lat="12.914063">
                <ele>78.200000</ele>
                <time>2018-02-26T08:24:40.644Z</time>
            </trkpt>
            <trkpt lon="100.990573" lat="12.914088">
                <ele>78.100000</ele>
                <time>2018-02-26T08:24:41.644Z</time>
            </trkpt>
            <trkpt lon="100.990546" lat="12.914103">
                <ele>78.300000</ele>
                <time>2018-02-26T08:24:42.644Z</time>
            </trkpt>
            <trkpt lon="100.990509" lat="12.914107">
                <ele>78.300000</ele>
                <time>2018-02-26T08:24:44.644Z</time>
            </trkpt>
            <trkpt lon="100.990479" lat="12.914101">
                <ele>78.300000</ele>
                <time>2018-02-26T08:24:46.644Z</time>
            </trkpt>
            <trkpt lon="100.990440" lat="12.914105">
                <ele>78.300000</ele>
                <time>2018-02-26T08:24:48.644Z</time>
            </trkpt>
            <trkpt lon="100.990392" lat="12.914109">
                <ele>78.300000</ele>
                <time>2018-02-26T08:24:50.644Z</time>
            </trkpt>
            <trkpt lon="100.990352" lat="12.914099">
                <ele>78.300000</ele>
                <time>2018-02-26T08:24:52.644Z</time>
            </trkpt>
            <trkpt lon="100.990325" lat="12.914075">
                <ele>78.000000</ele>
                <time>2018-02-26T08:24:54.644Z</time>
            </trkpt>
            <trkpt lon="100.990297" lat="12.914052">
                <ele>77.800000</ele>
                <time>2018-02-26T08:24:56.644Z</time>
            </trkpt>
            <trkpt lon="100.990265" lat="12.914036">
                <ele>77.700000</ele>
                <time>2018-02-26T08:24:58.644Z</time>
            </trkpt>
            <trkpt lon="100.990230" lat="12.914018">
                <ele>77.700000</ele>
                <time>2018-02-26T08:25:00.644Z</time>
            </trkpt>
            <trkpt lon="100.990194" lat="12.914004">
                <ele>77.500000</ele>
                <time>2018-02-26T08:25:02.644Z</time>
            </trkpt>
            <trkpt lon="100.990165" lat="12.913990">
                <ele>77.500000</ele>
                <time>2018-02-26T08:25:04.644Z</time>
            </trkpt>
            <trkpt lon="100.990193" lat="12.914009">
                <ele>77.500000</ele>
                <time>2018-02-26T08:25:09.644Z</time>
            </trkpt>
            <trkpt lon="100.990221" lat="12.914017">
                <ele>77.700000</ele>
                <time>2018-02-26T08:25:10.644Z</time>
            </trkpt>
            <trkpt lon="100.990252" lat="12.914026">
                <ele>77.700000</ele>
                <time>2018-02-26T08:25:11.644Z</time>
            </trkpt>
            <trkpt lon="100.990283" lat="12.914036">
                <ele>77.700000</ele>
                <time>2018-02-26T08:25:12.644Z</time>
            </trkpt>
            <trkpt lon="100.990314" lat="12.914047">
                <ele>77.700000</ele>
                <time>2018-02-26T08:25:13.644Z</time>
            </trkpt>
            <trkpt lon="100.990343" lat="12.914059">
                <ele>78.000000</ele>
                <time>2018-02-26T08:25:14.644Z</time>
            </trkpt>
            <trkpt lon="100.990387" lat="12.914084">
                <ele>77.900000</ele>
                <time>2018-02-26T08:25:16.644Z</time>
            </trkpt>
            <trkpt lon="100.990434" lat="12.914102">
                <ele>78.200000</ele>
                <time>2018-02-26T08:25:18.644Z</time>
            </trkpt>
            <trkpt lon="100.990483" lat="12.914101">
                <ele>78.200000</ele>
                <time>2018-02-26T08:25:20.644Z</time>
            </trkpt>
            <trkpt lon="100.990520" lat="12.914101">
                <ele>78.200000</ele>
                <time>2018-02-26T08:25:22.644Z</time>
            </trkpt>
            <trkpt lon="100.990504" lat="12.914134">
                <ele>78.200000</ele>
                <time>2018-02-26T08:25:25.644Z</time>
            </trkpt>
            <trkpt lon="100.990469" lat="12.914145">
                <ele>78.400000</ele>
                <time>2018-02-26T08:25:27.644Z</time>
            </trkpt>
            <trkpt lon="100.990444" lat="12.914167">
                <ele>78.400000</ele>
                <time>2018-02-26T08:25:29.644Z</time>
            </trkpt>
            <trkpt lon="100.990409" lat="12.914181">
                <ele>78.700000</ele>
                <time>2018-02-26T08:25:31.644Z</time>
            </trkpt>
            <trkpt lon="100.990384" lat="12.914192">
                <ele>78.700000</ele>
                <time>2018-02-26T08:25:35.644Z</time>
            </trkpt>
            <trkpt lon="100.990360" lat="12.914210">
                <ele>78.600000</ele>
                <time>2018-02-26T08:25:54.644Z</time>
            </trkpt>
            <trkpt lon="100.990326" lat="12.914221">
                <ele>78.600000</ele>
                <time>2018-02-26T08:25:56.644Z</time>
            </trkpt>
            <trkpt lon="100.990277" lat="12.914233">
                <ele>78.900000</ele>
                <time>2018-02-26T08:25:58.644Z</time>
            </trkpt>
            <trkpt lon="100.990230" lat="12.914242">
                <ele>78.900000</ele>
                <time>2018-02-26T08:26:00.644Z</time>
            </trkpt>
            <trkpt lon="100.990186" lat="12.914255">
                <ele>78.900000</ele>
                <time>2018-02-26T08:26:02.644Z</time>
            </trkpt>
            <trkpt lon="100.990139" lat="12.914260">
                <ele>78.900000</ele>
                <time>2018-02-26T08:26:04.644Z</time>
            </trkpt>
            <trkpt lon="100.990088" lat="12.914264">
                <ele>79.100000</ele>
                <time>2018-02-26T08:26:06.644Z</time>
            </trkpt>
            <trkpt lon="100.990034" lat="12.914264">
                <ele>79.100000</ele>
                <time>2018-02-26T08:26:08.644Z</time>
            </trkpt>
            <trkpt lon="100.989982" lat="12.914256">
                <ele>78.900000</ele>
                <time>2018-02-26T08:26:10.644Z</time>
            </trkpt>
            <trkpt lon="100.989940" lat="12.914251">
                <ele>78.900000</ele>
                <time>2018-02-26T08:26:12.644Z</time>
            </trkpt>
            <trkpt lon="100.989907" lat="12.914247">
                <ele>78.800000</ele>
                <time>2018-02-26T08:26:14.644Z</time>
            </trkpt>
            <trkpt lon="100.989874" lat="12.914239">
                <ele>78.800000</ele>
                <time>2018-02-26T08:26:16.644Z</time>
            </trkpt>
            <trkpt lon="100.989831" lat="12.914244">
                <ele>78.800000</ele>
                <time>2018-02-26T08:26:18.644Z</time>
            </trkpt>
            <trkpt lon="100.989778" lat="12.914242">
                <ele>78.600000</ele>
                <time>2018-02-26T08:26:20.644Z</time>
            </trkpt>
            <trkpt lon="100.989725" lat="12.914236">
                <ele>78.500000</ele>
                <time>2018-02-26T08:26:22.644Z</time>
            </trkpt>
            <trkpt lon="100.989685" lat="12.914251">
                <ele>78.300000</ele>
                <time>2018-02-26T08:26:24.644Z</time>
            </trkpt>
            <trkpt lon="100.989649" lat="12.914284">
                <ele>78.200000</ele>
                <time>2018-02-26T08:26:26.644Z</time>
            </trkpt>
            <trkpt lon="100.989627" lat="12.914317">
                <ele>78.200000</ele>
                <time>2018-02-26T08:26:28.644Z</time>
            </trkpt>
            <trkpt lon="100.989615" lat="12.914352">
                <ele>78.200000</ele>
                <time>2018-02-26T08:26:31.644Z</time>
            </trkpt>
            <trkpt lon="100.989622" lat="12.914380">
                <ele>78.200000</ele>
                <time>2018-02-26T08:26:33.644Z</time>
            </trkpt>
            <trkpt lon="100.989617" lat="12.914414">
                <ele>78.200000</ele>
                <time>2018-02-26T08:26:35.644Z</time>
            </trkpt>
            <trkpt lon="100.989608" lat="12.914455">
                <ele>78.200000</ele>
                <time>2018-02-26T08:26:37.644Z</time>
            </trkpt>
            <trkpt lon="100.989594" lat="12.914488">
                <ele>78.200000</ele>
                <time>2018-02-26T08:26:39.644Z</time>
            </trkpt>
            <trkpt lon="100.989578" lat="12.914515">
                <ele>78.400000</ele>
                <time>2018-02-26T08:26:41.644Z</time>
            </trkpt>
            <trkpt lon="100.989561" lat="12.914547">
                <ele>78.400000</ele>
                <time>2018-02-26T08:26:43.644Z</time>
            </trkpt>
            <trkpt lon="100.989543" lat="12.914585">
                <ele>78.700000</ele>
                <time>2018-02-26T08:26:45.644Z</time>
            </trkpt>
            <trkpt lon="100.989519" lat="12.914621">
                <ele>78.900000</ele>
                <time>2018-02-26T08:26:47.644Z</time>
            </trkpt>
            <trkpt lon="100.989482" lat="12.914659">
                <ele>79.100000</ele>
                <time>2018-02-26T08:26:49.644Z</time>
            </trkpt>
            <trkpt lon="100.989446" lat="12.914695">
                <ele>79.300000</ele>
                <time>2018-02-26T08:26:51.644Z</time>
            </trkpt>
            <trkpt lon="100.989419" lat="12.914738">
                <ele>79.300000</ele>
                <time>2018-02-26T08:26:53.644Z</time>
            </trkpt>
            <trkpt lon="100.989390" lat="12.914780">
                <ele>79.600000</ele>
                <time>2018-02-26T08:26:55.644Z</time>
            </trkpt>
            <trkpt lon="100.989374" lat="12.914825">
                <ele>80.000000</ele>
                <time>2018-02-26T08:26:57.644Z</time>
            </trkpt>
            <trkpt lon="100.989367" lat="12.914872">
                <ele>80.000000</ele>
                <time>2018-02-26T08:26:59.644Z</time>
            </trkpt>
            <trkpt lon="100.989367" lat="12.914912">
                <ele>80.000000</ele>
                <time>2018-02-26T08:27:01.644Z</time>
            </trkpt>
            <trkpt lon="100.989360" lat="12.914941">
                <ele>80.100000</ele>
                <time>2018-02-26T08:27:03.644Z</time>
            </trkpt>
            <trkpt lon="100.989356" lat="12.914978">
                <ele>80.300000</ele>
                <time>2018-02-26T08:27:06.644Z</time>
            </trkpt>
            <trkpt lon="100.989352" lat="12.915017">
                <ele>80.800000</ele>
                <time>2018-02-26T08:27:08.644Z</time>
            </trkpt>
            <trkpt lon="100.989344" lat="12.915067">
                <ele>81.300000</ele>
                <time>2018-02-26T08:27:10.644Z</time>
            </trkpt>
            <trkpt lon="100.989313" lat="12.915103">
                <ele>81.900000</ele>
                <time>2018-02-26T08:27:12.644Z</time>
            </trkpt>
            <trkpt lon="100.989294" lat="12.915130">
                <ele>81.900000</ele>
                <time>2018-02-26T08:27:14.644Z</time>
            </trkpt>
            <trkpt lon="100.989267" lat="12.915156">
                <ele>82.700000</ele>
                <time>2018-02-26T08:27:16.644Z</time>
            </trkpt>
            <trkpt lon="100.989241" lat="12.915184">
                <ele>83.500000</ele>
                <time>2018-02-26T08:27:18.644Z</time>
            </trkpt>
            <trkpt lon="100.989214" lat="12.915208">
                <ele>83.500000</ele>
                <time>2018-02-26T08:27:20.644Z</time>
            </trkpt>
            <trkpt lon="100.989188" lat="12.915231">
                <ele>84.200000</ele>
                <time>2018-02-26T08:27:22.644Z</time>
            </trkpt>
            <trkpt lon="100.989173" lat="12.915258">
                <ele>84.200000</ele>
                <time>2018-02-26T08:27:24.644Z</time>
            </trkpt>
            <trkpt lon="100.989161" lat="12.915285">
                <ele>84.700000</ele>
                <time>2018-02-26T08:27:26.644Z</time>
            </trkpt>
            <trkpt lon="100.989142" lat="12.915322">
                <ele>85.400000</ele>
                <time>2018-02-26T08:27:39.644Z</time>
            </trkpt>
            <trkpt lon="100.989120" lat="12.915355">
                <ele>86.100000</ele>
                <time>2018-02-26T08:27:42.644Z</time>
            </trkpt>
            <trkpt lon="100.989095" lat="12.915377">
                <ele>86.200000</ele>
                <time>2018-02-26T08:27:44.644Z</time>
            </trkpt>
            <trkpt lon="100.989073" lat="12.915401">
                <ele>86.700000</ele>
                <time>2018-02-26T08:27:46.644Z</time>
            </trkpt>
            <trkpt lon="100.989056" lat="12.915425">
                <ele>86.700000</ele>
                <time>2018-02-26T08:27:48.644Z</time>
            </trkpt>
            <trkpt lon="100.989037" lat="12.915459">
                <ele>87.100000</ele>
                <time>2018-02-26T08:27:51.644Z</time>
            </trkpt>
            <trkpt lon="100.989018" lat="12.915490">
                <ele>87.300000</ele>
                <time>2018-02-26T08:27:54.644Z</time>
            </trkpt>
            <trkpt lon="100.988996" lat="12.915520">
                <ele>87.500000</ele>
                <time>2018-02-26T08:28:03.644Z</time>
            </trkpt>
            <trkpt lon="100.988991" lat="12.915553">
                <ele>87.400000</ele>
                <time>2018-02-26T08:28:07.644Z</time>
            </trkpt>
            <trkpt lon="100.989004" lat="12.915580">
                <ele>87.700000</ele>
                <time>2018-02-26T08:28:15.644Z</time>
            </trkpt>
            <trkpt lon="100.989016" lat="12.915606">
                <ele>87.900000</ele>
                <time>2018-02-26T08:28:22.644Z</time>
            </trkpt>
            <trkpt lon="100.989033" lat="12.915630">
                <ele>87.900000</ele>
                <time>2018-02-26T08:28:28.644Z</time>
            </trkpt>
            <trkpt lon="100.989055" lat="12.915654">
                <ele>88.000000</ele>
                <time>2018-02-26T08:28:33.644Z</time>
            </trkpt>
            <trkpt lon="100.989080" lat="12.915668">
                <ele>88.000000</ele>
                <time>2018-02-26T08:28:47.644Z</time>
            </trkpt>
            <trkpt lon="100.989109" lat="12.915676">
                <ele>88.000000</ele>
                <time>2018-02-26T08:28:50.644Z</time>
            </trkpt>
            <trkpt lon="100.989135" lat="12.915696">
                <ele>88.000000</ele>
                <time>2018-02-26T08:28:54.644Z</time>
            </trkpt>
            <trkpt lon="100.989137" lat="12.915725">
                <ele>88.000000</ele>
                <time>2018-02-26T08:29:00.644Z</time>
            </trkpt>
            <trkpt lon="100.989124" lat="12.915755">
                <ele>87.900000</ele>
                <time>2018-02-26T08:29:07.644Z</time>
            </trkpt>
            <trkpt lon="100.989115" lat="12.915784">
                <ele>87.900000</ele>
                <time>2018-02-26T08:29:14.644Z</time>
            </trkpt>
            <trkpt lon="100.989106" lat="12.915814">
                <ele>87.900000</ele>
                <time>2018-02-26T08:29:21.644Z</time>
            </trkpt>
            <trkpt lon="100.989105" lat="12.915848">
                <ele>87.900000</ele>
                <time>2018-02-26T08:29:24.644Z</time>
            </trkpt>
            <trkpt lon="100.989097" lat="12.915874">
                <ele>87.900000</ele>
                <time>2018-02-26T08:29:29.644Z</time>
            </trkpt>
            <trkpt lon="100.989101" lat="12.915906">
                <ele>87.900000</ele>
                <time>2018-02-26T08:29:36.644Z</time>
            </trkpt>
            <trkpt lon="100.989102" lat="12.915938">
                <ele>87.900000</ele>
                <time>2018-02-26T08:29:44.644Z</time>
            </trkpt>
            <trkpt lon="100.989089" lat="12.915962">
                <ele>87.900000</ele>
                <time>2018-02-26T08:29:51.644Z</time>
            </trkpt>
            <trkpt lon="100.989087" lat="12.915991">
                <ele>87.900000</ele>
                <time>2018-02-26T08:29:55.644Z</time>
            </trkpt>
            <trkpt lon="100.989087" lat="12.916020">
                <ele>87.900000</ele>
                <time>2018-02-26T08:30:00.644Z</time>
            </trkpt>
            <trkpt lon="100.989091" lat="12.916052">
                <ele>87.900000</ele>
                <time>2018-02-26T08:30:04.644Z</time>
            </trkpt>
            <trkpt lon="100.989088" lat="12.916082">
                <ele>87.900000</ele>
                <time>2018-02-26T08:30:08.644Z</time>
            </trkpt>
            <trkpt lon="100.989081" lat="12.916109">
                <ele>87.900000</ele>
                <time>2018-02-26T08:30:19.644Z</time>
            </trkpt>
            <trkpt lon="100.989082" lat="12.916140">
                <ele>87.900000</ele>
                <time>2018-02-26T08:30:27.644Z</time>
            </trkpt>
            <trkpt lon="100.989077" lat="12.916179">
                <ele>87.900000</ele>
                <time>2018-02-26T08:30:32.644Z</time>
            </trkpt>
            <trkpt lon="100.989074" lat="12.916219">
                <ele>87.900000</ele>
                <time>2018-02-26T08:30:35.644Z</time>
            </trkpt>
            <trkpt lon="100.989073" lat="12.916251">
                <ele>87.900000</ele>
                <time>2018-02-26T08:30:43.644Z</time>
            </trkpt>
            <trkpt lon="100.989079" lat="12.916278">
                <ele>87.900000</ele>
                <time>2018-02-26T08:30:51.644Z</time>
            </trkpt>
            <trkpt lon="100.989101" lat="12.916304">
                <ele>87.900000</ele>
                <time>2018-02-26T08:30:56.644Z</time>
            </trkpt>
            <trkpt lon="100.989135" lat="12.916306">
                <ele>87.800000</ele>
                <time>2018-02-26T08:31:03.644Z</time>
            </trkpt>
            <trkpt lon="100.989169" lat="12.916306">
                <ele>87.800000</ele>
                <time>2018-02-26T08:31:09.644Z</time>
            </trkpt>
            <trkpt lon="100.989198" lat="12.916306">
                <ele>87.800000</ele>
                <time>2018-02-26T08:31:14.644Z</time>
            </trkpt>
            <trkpt lon="100.989247" lat="12.916325">
                <ele>87.800000</ele>
                <time>2018-02-26T08:31:50.644Z</time>
            </trkpt>
            <trkpt lon="100.989278" lat="12.916333">
                <ele>87.600000</ele>
                <time>2018-02-26T08:31:51.644Z</time>
            </trkpt>
            <trkpt lon="100.989321" lat="12.916330">
                <ele>87.300000</ele>
                <time>2018-02-26T08:31:52.644Z</time>
            </trkpt>
            <trkpt lon="100.989377" lat="12.916308">
                <ele>86.900000</ele>
                <time>2018-02-26T08:31:53.644Z</time>
            </trkpt>
            <trkpt lon="100.989408" lat="12.916294">
                <ele>86.600000</ele>
                <time>2018-02-26T08:31:54.644Z</time>
            </trkpt>
            <trkpt lon="100.989434" lat="12.916282">
                <ele>86.500000</ele>
                <time>2018-02-26T08:31:57.644Z</time>
            </trkpt>
            <trkpt lon="100.989451" lat="12.916314">
                <ele>86.300000</ele>
                <time>2018-02-26T08:32:02.644Z</time>
            </trkpt>
            <trkpt lon="100.989477" lat="12.916333">
                <ele>86.200000</ele>
                <time>2018-02-26T08:32:04.644Z</time>
            </trkpt>
            <trkpt lon="100.989509" lat="12.916325">
                <ele>86.100000</ele>
                <time>2018-02-26T08:32:07.644Z</time>
            </trkpt>
            <trkpt lon="100.989523" lat="12.916285">
                <ele>86.000000</ele>
                <time>2018-02-26T08:32:10.644Z</time>
            </trkpt>
            <trkpt lon="100.989535" lat="12.916257">
                <ele>85.900000</ele>
                <time>2018-02-26T08:32:12.644Z</time>
            </trkpt>
            <trkpt lon="100.989560" lat="12.916217">
                <ele>85.800000</ele>
                <time>2018-02-26T08:32:14.644Z</time>
            </trkpt>
            <trkpt lon="100.989591" lat="12.916171">
                <ele>85.600000</ele>
                <time>2018-02-26T08:32:16.644Z</time>
            </trkpt>
            <trkpt lon="100.989614" lat="12.916135">
                <ele>85.500000</ele>
                <time>2018-02-26T08:32:17.644Z</time>
            </trkpt>
            <trkpt lon="100.989628" lat="12.916111">
                <ele>85.500000</ele>
                <time>2018-02-26T08:32:18.644Z</time>
            </trkpt>
            <trkpt lon="100.989651" lat="12.916077">
                <ele>85.400000</ele>
                <time>2018-02-26T08:32:19.644Z</time>
            </trkpt>
            <trkpt lon="100.989672" lat="12.916050">
                <ele>85.300000</ele>
                <time>2018-02-26T08:32:20.644Z</time>
            </trkpt>
            <trkpt lon="100.989693" lat="12.916026">
                <ele>85.100000</ele>
                <time>2018-02-26T08:32:21.644Z</time>
            </trkpt>
            <trkpt lon="100.989717" lat="12.915997">
                <ele>84.800000</ele>
                <time>2018-02-26T08:32:22.644Z</time>
            </trkpt>
            <trkpt lon="100.989742" lat="12.915966">
                <ele>84.500000</ele>
                <time>2018-02-26T08:32:23.644Z</time>
            </trkpt>
            <trkpt lon="100.989764" lat="12.915937">
                <ele>84.300000</ele>
                <time>2018-02-26T08:32:24.644Z</time>
            </trkpt>
            <trkpt lon="100.989786" lat="12.915904">
                <ele>84.100000</ele>
                <time>2018-02-26T08:32:25.644Z</time>
            </trkpt>
            <trkpt lon="100.989810" lat="12.915872">
                <ele>84.000000</ele>
                <time>2018-02-26T08:32:26.644Z</time>
            </trkpt>
            <trkpt lon="100.989836" lat="12.915842">
                <ele>83.800000</ele>
                <time>2018-02-26T08:32:27.644Z</time>
            </trkpt>
            <trkpt lon="100.989865" lat="12.915812">
                <ele>83.700000</ele>
                <time>2018-02-26T08:32:28.644Z</time>
            </trkpt>
            <trkpt lon="100.989896" lat="12.915780">
                <ele>83.600000</ele>
                <time>2018-02-26T08:32:29.644Z</time>
            </trkpt>
            <trkpt lon="100.989921" lat="12.915750">
                <ele>83.400000</ele>
                <time>2018-02-26T08:32:30.644Z</time>
            </trkpt>
            <trkpt lon="100.989945" lat="12.915715">
                <ele>83.300000</ele>
                <time>2018-02-26T08:32:31.644Z</time>
            </trkpt>
            <trkpt lon="100.989971" lat="12.915683">
                <ele>83.200000</ele>
                <time>2018-02-26T08:32:32.644Z</time>
            </trkpt>
            <trkpt lon="100.990002" lat="12.915653">
                <ele>83.100000</ele>
                <time>2018-02-26T08:32:33.644Z</time>
            </trkpt>
            <trkpt lon="100.990030" lat="12.915622">
                <ele>83.000000</ele>
                <time>2018-02-26T08:32:34.644Z</time>
            </trkpt>
            <trkpt lon="100.990060" lat="12.915589">
                <ele>82.900000</ele>
                <time>2018-02-26T08:32:35.644Z</time>
            </trkpt>
            <trkpt lon="100.990089" lat="12.915557">
                <ele>82.800000</ele>
                <time>2018-02-26T08:32:36.644Z</time>
            </trkpt>
            <trkpt lon="100.990120" lat="12.915523">
                <ele>82.700000</ele>
                <time>2018-02-26T08:32:37.644Z</time>
            </trkpt>
            <trkpt lon="100.990152" lat="12.915491">
                <ele>82.600000</ele>
                <time>2018-02-26T08:32:38.644Z</time>
            </trkpt>
            <trkpt lon="100.990181" lat="12.915455">
                <ele>82.400000</ele>
                <time>2018-02-26T08:32:39.644Z</time>
            </trkpt>
            <trkpt lon="100.990209" lat="12.915421">
                <ele>82.100000</ele>
                <time>2018-02-26T08:32:40.644Z</time>
            </trkpt>
            <trkpt lon="100.990242" lat="12.915385">
                <ele>81.800000</ele>
                <time>2018-02-26T08:32:41.644Z</time>
            </trkpt>
            <trkpt lon="100.990275" lat="12.915349">
                <ele>81.500000</ele>
                <time>2018-02-26T08:32:42.644Z</time>
            </trkpt>
            <trkpt lon="100.990306" lat="12.915312">
                <ele>81.300000</ele>
                <time>2018-02-26T08:32:43.644Z</time>
            </trkpt>
            <trkpt lon="100.990336" lat="12.915277">
                <ele>81.200000</ele>
                <time>2018-02-26T08:32:44.644Z</time>
            </trkpt>
            <trkpt lon="100.990374" lat="12.915233">
                <ele>81.000000</ele>
                <time>2018-02-26T08:32:45.644Z</time>
            </trkpt>
            <trkpt lon="100.990407" lat="12.915195">
                <ele>80.800000</ele>
                <time>2018-02-26T08:32:46.644Z</time>
            </trkpt>
            <trkpt lon="100.990443" lat="12.915161">
                <ele>80.700000</ele>
                <time>2018-02-26T08:32:47.644Z</time>
            </trkpt>
            <trkpt lon="100.990468" lat="12.915133">
                <ele>80.500000</ele>
                <time>2018-02-26T08:32:48.644Z</time>
            </trkpt>
            <trkpt lon="100.990493" lat="12.915103">
                <ele>80.400000</ele>
                <time>2018-02-26T08:32:49.644Z</time>
            </trkpt>
            <trkpt lon="100.990518" lat="12.915076">
                <ele>80.300000</ele>
                <time>2018-02-26T08:32:50.644Z</time>
            </trkpt>
            <trkpt lon="100.990541" lat="12.915047">
                <ele>80.100000</ele>
                <time>2018-02-26T08:32:51.644Z</time>
            </trkpt>
            <trkpt lon="100.990561" lat="12.915022">
                <ele>79.900000</ele>
                <time>2018-02-26T08:32:52.644Z</time>
            </trkpt>
            <trkpt lon="100.990587" lat="12.914993">
                <ele>79.600000</ele>
                <time>2018-02-26T08:32:53.644Z</time>
            </trkpt>
            <trkpt lon="100.990609" lat="12.914969">
                <ele>79.300000</ele>
                <time>2018-02-26T08:32:54.644Z</time>
            </trkpt>
            <trkpt lon="100.990634" lat="12.914942">
                <ele>79.200000</ele>
                <time>2018-02-26T08:32:55.644Z</time>
            </trkpt>
            <trkpt lon="100.990657" lat="12.914917">
                <ele>79.100000</ele>
                <time>2018-02-26T08:32:56.644Z</time>
            </trkpt>
            <trkpt lon="100.990684" lat="12.914886">
                <ele>79.000000</ele>
                <time>2018-02-26T08:32:57.644Z</time>
            </trkpt>
            <trkpt lon="100.990706" lat="12.914858">
                <ele>79.000000</ele>
                <time>2018-02-26T08:32:58.644Z</time>
            </trkpt>
            <trkpt lon="100.990736" lat="12.914820">
                <ele>78.900000</ele>
                <time>2018-02-26T08:32:59.644Z</time>
            </trkpt>
            <trkpt lon="100.990766" lat="12.914786">
                <ele>78.800000</ele>
                <time>2018-02-26T08:33:00.644Z</time>
            </trkpt>
            <trkpt lon="100.990805" lat="12.914745">
                <ele>78.800000</ele>
                <time>2018-02-26T08:33:01.644Z</time>
            </trkpt>
            <trkpt lon="100.990835" lat="12.914710">
                <ele>78.800000</ele>
                <time>2018-02-26T08:33:02.644Z</time>
            </trkpt>
            <trkpt lon="100.990869" lat="12.914667">
                <ele>78.800000</ele>
                <time>2018-02-26T08:33:03.644Z</time>
            </trkpt>
            <trkpt lon="100.990898" lat="12.914631">
                <ele>78.800000</ele>
                <time>2018-02-26T08:33:04.644Z</time>
            </trkpt>
            <trkpt lon="100.990934" lat="12.914587">
                <ele>78.800000</ele>
                <time>2018-02-26T08:33:05.644Z</time>
            </trkpt>
            <trkpt lon="100.990968" lat="12.914546">
                <ele>78.800000</ele>
                <time>2018-02-26T08:33:06.644Z</time>
            </trkpt>
            <trkpt lon="100.991001" lat="12.914501">
                <ele>78.900000</ele>
                <time>2018-02-26T08:33:07.644Z</time>
            </trkpt>
            <trkpt lon="100.991034" lat="12.914465">
                <ele>79.100000</ele>
                <time>2018-02-26T08:33:08.644Z</time>
            </trkpt>
            <trkpt lon="100.991074" lat="12.914422">
                <ele>79.300000</ele>
                <time>2018-02-26T08:33:09.644Z</time>
            </trkpt>
            <trkpt lon="100.991097" lat="12.914396">
                <ele>79.400000</ele>
                <time>2018-02-26T08:33:10.644Z</time>
            </trkpt>
            <trkpt lon="100.991122" lat="12.914379">
                <ele>79.500000</ele>
                <time>2018-02-26T08:33:12.644Z</time>
            </trkpt>
            <trkpt lon="100.991149" lat="12.914359">
                <ele>79.600000</ele>
                <time>2018-02-26T08:33:36.644Z</time>
            </trkpt>
            <trkpt lon="100.991163" lat="12.914327">
                <ele>79.600000</ele>
                <time>2018-02-26T08:33:38.644Z</time>
            </trkpt>
            <trkpt lon="100.991194" lat="12.914286">
                <ele>79.700000</ele>
                <time>2018-02-26T08:33:40.644Z</time>
            </trkpt>
            <trkpt lon="100.991224" lat="12.914246">
                <ele>79.800000</ele>
                <time>2018-02-26T08:33:42.644Z</time>
            </trkpt>
            <trkpt lon="100.991243" lat="12.914212">
                <ele>79.800000</ele>
                <time>2018-02-26T08:33:43.644Z</time>
            </trkpt>
            <trkpt lon="100.991261" lat="12.914185">
                <ele>79.800000</ele>
                <time>2018-02-26T08:33:44.644Z</time>
            </trkpt>
            <trkpt lon="100.991282" lat="12.914150">
                <ele>79.800000</ele>
                <time>2018-02-26T08:33:45.644Z</time>
            </trkpt>
            <trkpt lon="100.991300" lat="12.914120">
                <ele>79.900000</ele>
                <time>2018-02-26T08:33:46.644Z</time>
            </trkpt>
            <trkpt lon="100.991320" lat="12.914095">
                <ele>79.900000</ele>
                <time>2018-02-26T08:33:47.644Z</time>
            </trkpt>
            <trkpt lon="100.991342" lat="12.914064">
                <ele>79.900000</ele>
                <time>2018-02-26T08:33:48.644Z</time>
            </trkpt>
            <trkpt lon="100.991363" lat="12.914040">
                <ele>79.900000</ele>
                <time>2018-02-26T08:33:49.644Z</time>
            </trkpt>
            <trkpt lon="100.991385" lat="12.914016">
                <ele>80.000000</ele>
                <time>2018-02-26T08:33:50.644Z</time>
            </trkpt>
            <trkpt lon="100.991404" lat="12.913993">
                <ele>80.000000</ele>
                <time>2018-02-26T08:33:51.644Z</time>
            </trkpt>
            <trkpt lon="100.991404" lat="12.913956">
                <ele>80.000000</ele>
                <time>2018-02-26T08:33:52.644Z</time>
            </trkpt>
            <trkpt lon="100.991397" lat="12.913896">
                <ele>80.000000</ele>
                <time>2018-02-26T08:33:54.644Z</time>
            </trkpt>
            <trkpt lon="100.991377" lat="12.913870">
                <ele>80.000000</ele>
                <time>2018-02-26T08:33:55.644Z</time>
            </trkpt>
            <trkpt lon="100.991359" lat="12.913846">
                <ele>80.000000</ele>
                <time>2018-02-26T08:33:56.644Z</time>
            </trkpt>
            <trkpt lon="100.991321" lat="12.913808">
                <ele>80.000000</ele>
                <time>2018-02-26T08:33:58.644Z</time>
            </trkpt>
            <trkpt lon="100.991296" lat="12.913788">
                <ele>80.000000</ele>
                <time>2018-02-26T08:33:59.644Z</time>
            </trkpt>
            <trkpt lon="100.991273" lat="12.913771">
                <ele>80.000000</ele>
                <time>2018-02-26T08:34:00.644Z</time>
            </trkpt>
            <trkpt lon="100.991250" lat="12.913753">
                <ele>80.000000</ele>
                <time>2018-02-26T08:34:01.644Z</time>
            </trkpt>
            <trkpt lon="100.991228" lat="12.913735">
                <ele>80.000000</ele>
                <time>2018-02-26T08:34:02.644Z</time>
            </trkpt>
            <trkpt lon="100.991205" lat="12.913716">
                <ele>80.000000</ele>
                <time>2018-02-26T08:34:03.644Z</time>
            </trkpt>
            <trkpt lon="100.991183" lat="12.913697">
                <ele>80.000000</ele>
                <time>2018-02-26T08:34:04.644Z</time>
            </trkpt>
            <trkpt lon="100.991143" lat="12.913674">
                <ele>80.000000</ele>
                <time>2018-02-26T08:34:06.644Z</time>
            </trkpt>
            <trkpt lon="100.991098" lat="12.913669">
                <ele>80.000000</ele>
                <time>2018-02-26T08:34:08.644Z</time>
            </trkpt>
            <trkpt lon="100.991070" lat="12.913676">
                <ele>80.000000</ele>
                <time>2018-02-26T08:34:09.644Z</time>
            </trkpt>
            <trkpt lon="100.991028" lat="12.913703">
                <ele>80.000000</ele>
                <time>2018-02-26T08:34:11.644Z</time>
            </trkpt>
            <trkpt lon="100.991010" lat="12.913734">
                <ele>80.000000</ele>
                <time>2018-02-26T08:34:13.644Z</time>
            </trkpt>
            <trkpt lon="100.991030" lat="12.913756">
                <ele>80.000000</ele>
                <time>2018-02-26T08:34:15.644Z</time>
            </trkpt>
            <trkpt lon="100.991074" lat="12.913754">
                <ele>80.000000</ele>
                <time>2018-02-26T08:34:17.644Z</time>
            </trkpt>
            <trkpt lon="100.991108" lat="12.913751">
                <ele>80.000000</ele>
                <time>2018-02-26T08:34:18.644Z</time>
            </trkpt>
            <trkpt lon="100.991164" lat="12.913751">
                <ele>80.000000</ele>
                <time>2018-02-26T08:34:20.644Z</time>
            </trkpt>
            <trkpt lon="100.991194" lat="12.913752">
                <ele>80.000000</ele>
                <time>2018-02-26T08:34:21.644Z</time>
            </trkpt>
            <trkpt lon="100.991248" lat="12.913772">
                <ele>80.000000</ele>
                <time>2018-02-26T08:34:23.644Z</time>
            </trkpt>
            <trkpt lon="100.991277" lat="12.913786">
                <ele>80.000000</ele>
                <time>2018-02-26T08:34:24.644Z</time>
            </trkpt>
            <trkpt lon="100.991310" lat="12.913804">
                <ele>80.000000</ele>
                <time>2018-02-26T08:34:25.644Z</time>
            </trkpt>
            <trkpt lon="100.991344" lat="12.913827">
                <ele>80.000000</ele>
                <time>2018-02-26T08:34:26.644Z</time>
            </trkpt>
            <trkpt lon="100.991379" lat="12.913844">
                <ele>80.000000</ele>
                <time>2018-02-26T08:34:27.644Z</time>
            </trkpt>
            <trkpt lon="100.991413" lat="12.913854">
                <ele>80.000000</ele>
                <time>2018-02-26T08:34:28.644Z</time>
            </trkpt>
            <trkpt lon="100.991443" lat="12.913856">
                <ele>80.000000</ele>
                <time>2018-02-26T08:34:29.644Z</time>
            </trkpt>
            <trkpt lon="100.991471" lat="12.913851">
                <ele>79.900000</ele>
                <time>2018-02-26T08:34:30.644Z</time>
            </trkpt>
            <trkpt lon="100.991501" lat="12.913847">
                <ele>79.900000</ele>
                <time>2018-02-26T08:34:31.644Z</time>
            </trkpt>
            <trkpt lon="100.991530" lat="12.913840">
                <ele>79.900000</ele>
                <time>2018-02-26T08:34:32.644Z</time>
            </trkpt>
            <trkpt lon="100.991560" lat="12.913832">
                <ele>79.900000</ele>
                <time>2018-02-26T08:34:33.644Z</time>
            </trkpt>
            <trkpt lon="100.991587" lat="12.913818">
                <ele>79.900000</ele>
                <time>2018-02-26T08:34:34.644Z</time>
            </trkpt>
            <trkpt lon="100.991619" lat="12.913799">
                <ele>79.900000</ele>
                <time>2018-02-26T08:34:35.644Z</time>
            </trkpt>
            <trkpt lon="100.991640" lat="12.913780">
                <ele>79.900000</ele>
                <time>2018-02-26T08:34:36.644Z</time>
            </trkpt>
            <trkpt lon="100.991659" lat="12.913758">
                <ele>79.800000</ele>
                <time>2018-02-26T08:34:37.644Z</time>
            </trkpt>
            <trkpt lon="100.991676" lat="12.913734">
                <ele>79.800000</ele>
                <time>2018-02-26T08:34:38.644Z</time>
            </trkpt>
            <trkpt lon="100.991694" lat="12.913711">
                <ele>79.800000</ele>
                <time>2018-02-26T08:34:39.644Z</time>
            </trkpt>
            <trkpt lon="100.991710" lat="12.913689">
                <ele>79.800000</ele>
                <time>2018-02-26T08:34:40.644Z</time>
            </trkpt>
            <trkpt lon="100.991733" lat="12.913660">
                <ele>79.800000</ele>
                <time>2018-02-26T08:34:42.644Z</time>
            </trkpt>
            <trkpt lon="100.991758" lat="12.913628">
                <ele>79.700000</ele>
                <time>2018-02-26T08:34:54.644Z</time>
            </trkpt>
            <trkpt lon="100.991789" lat="12.913582">
                <ele>79.700000</ele>
                <time>2018-02-26T08:34:56.644Z</time>
            </trkpt>
            <trkpt lon="100.991801" lat="12.913553">
                <ele>79.700000</ele>
                <time>2018-02-26T08:34:57.644Z</time>
            </trkpt>
            <trkpt lon="100.991830" lat="12.913509">
                <ele>79.700000</ele>
                <time>2018-02-26T08:34:59.644Z</time>
            </trkpt>
            <trkpt lon="100.991853" lat="12.913490">
                <ele>79.700000</ele>
                <time>2018-02-26T08:35:00.644Z</time>
            </trkpt>
            <trkpt lon="100.991887" lat="12.913458">
                <ele>79.600000</ele>
                <time>2018-02-26T08:35:02.644Z</time>
            </trkpt>
            <trkpt lon="100.991915" lat="12.913432">
                <ele>79.600000</ele>
                <time>2018-02-26T08:35:04.644Z</time>
            </trkpt>
            <trkpt lon="100.991936" lat="12.913403">
                <ele>79.600000</ele>
                <time>2018-02-26T08:35:06.644Z</time>
            </trkpt>
            <trkpt lon="100.991956" lat="12.913363">
                <ele>79.500000</ele>
                <time>2018-02-26T08:35:08.644Z</time>
            </trkpt>
            <trkpt lon="100.991989" lat="12.913323">
                <ele>79.500000</ele>
                <time>2018-02-26T08:35:10.644Z</time>
            </trkpt>
            <trkpt lon="100.992004" lat="12.913300">
                <ele>79.400000</ele>
                <time>2018-02-26T08:35:11.644Z</time>
            </trkpt>
            <trkpt lon="100.992022" lat="12.913272">
                <ele>79.400000</ele>
                <time>2018-02-26T08:35:12.644Z</time>
            </trkpt>
            <trkpt lon="100.992040" lat="12.913244">
                <ele>79.400000</ele>
                <time>2018-02-26T08:35:13.644Z</time>
            </trkpt>
            <trkpt lon="100.992061" lat="12.913216">
                <ele>79.300000</ele>
                <time>2018-02-26T08:35:14.644Z</time>
            </trkpt>
            <trkpt lon="100.992079" lat="12.913188">
                <ele>79.300000</ele>
                <time>2018-02-26T08:35:15.644Z</time>
            </trkpt>
            <trkpt lon="100.992106" lat="12.913161">
                <ele>79.200000</ele>
                <time>2018-02-26T08:35:16.644Z</time>
            </trkpt>
            <trkpt lon="100.992131" lat="12.913135">
                <ele>79.200000</ele>
                <time>2018-02-26T08:35:17.644Z</time>
            </trkpt>
            <trkpt lon="100.992156" lat="12.913107">
                <ele>79.100000</ele>
                <time>2018-02-26T08:35:18.644Z</time>
            </trkpt>
            <trkpt lon="100.992177" lat="12.913083">
                <ele>79.100000</ele>
                <time>2018-02-26T08:35:19.644Z</time>
            </trkpt>
            <trkpt lon="100.992198" lat="12.913056">
                <ele>79.000000</ele>
                <time>2018-02-26T08:35:20.644Z</time>
            </trkpt>
            <trkpt lon="100.992223" lat="12.913029">
                <ele>79.000000</ele>
                <time>2018-02-26T08:35:21.644Z</time>
            </trkpt>
            <trkpt lon="100.992246" lat="12.913001">
                <ele>78.900000</ele>
                <time>2018-02-26T08:35:22.644Z</time>
            </trkpt>
            <trkpt lon="100.992275" lat="12.912974">
                <ele>78.900000</ele>
                <time>2018-02-26T08:35:23.644Z</time>
            </trkpt>
            <trkpt lon="100.992302" lat="12.912947">
                <ele>78.800000</ele>
                <time>2018-02-26T08:35:24.644Z</time>
            </trkpt>
            <trkpt lon="100.992326" lat="12.912920">
                <ele>78.800000</ele>
                <time>2018-02-26T08:35:25.644Z</time>
            </trkpt>
            <trkpt lon="100.992345" lat="12.912891">
                <ele>78.700000</ele>
                <time>2018-02-26T08:35:26.644Z</time>
            </trkpt>
            <trkpt lon="100.992365" lat="12.912861">
                <ele>78.700000</ele>
                <time>2018-02-26T08:35:27.644Z</time>
            </trkpt>
            <trkpt lon="100.992387" lat="12.912829">
                <ele>78.600000</ele>
                <time>2018-02-26T08:35:28.644Z</time>
            </trkpt>
            <trkpt lon="100.992409" lat="12.912796">
                <ele>78.500000</ele>
                <time>2018-02-26T08:35:29.644Z</time>
            </trkpt>
            <trkpt lon="100.992432" lat="12.912758">
                <ele>78.300000</ele>
                <time>2018-02-26T08:35:30.644Z</time>
            </trkpt>
            <trkpt lon="100.992453" lat="12.912721">
                <ele>78.200000</ele>
                <time>2018-02-26T08:35:31.644Z</time>
            </trkpt>
            <trkpt lon="100.992471" lat="12.912686">
                <ele>78.200000</ele>
                <time>2018-02-26T08:35:32.644Z</time>
            </trkpt>
            <trkpt lon="100.992490" lat="12.912649">
                <ele>78.100000</ele>
                <time>2018-02-26T08:35:33.644Z</time>
            </trkpt>
            <trkpt lon="100.992513" lat="12.912615">
                <ele>78.000000</ele>
                <time>2018-02-26T08:35:34.644Z</time>
            </trkpt>
            <trkpt lon="100.992533" lat="12.912581">
                <ele>77.900000</ele>
                <time>2018-02-26T08:35:35.644Z</time>
            </trkpt>
            <trkpt lon="100.992551" lat="12.912547">
                <ele>77.800000</ele>
                <time>2018-02-26T08:35:36.644Z</time>
            </trkpt>
            <trkpt lon="100.992566" lat="12.912512">
                <ele>77.600000</ele>
                <time>2018-02-26T08:35:37.644Z</time>
            </trkpt>
            <trkpt lon="100.992583" lat="12.912478">
                <ele>77.500000</ele>
                <time>2018-02-26T08:35:38.644Z</time>
            </trkpt>
            <trkpt lon="100.992598" lat="12.912447">
                <ele>77.300000</ele>
                <time>2018-02-26T08:35:39.644Z</time>
            </trkpt>
            <trkpt lon="100.992608" lat="12.912420">
                <ele>77.200000</ele>
                <time>2018-02-26T08:35:40.644Z</time>
            </trkpt>
            <trkpt lon="100.992615" lat="12.912392">
                <ele>77.000000</ele>
                <time>2018-02-26T08:35:41.644Z</time>
            </trkpt>
            <trkpt lon="100.992606" lat="12.912348">
                <ele>77.000000</ele>
                <time>2018-02-26T08:35:43.644Z</time>
            </trkpt>
            <trkpt lon="100.992591" lat="12.912316">
                <ele>77.000000</ele>
                <time>2018-02-26T08:35:53.644Z</time>
            </trkpt>
            <trkpt lon="100.992567" lat="12.912293">
                <ele>77.000000</ele>
                <time>2018-02-26T08:35:59.644Z</time>
            </trkpt>
            <trkpt lon="100.992547" lat="12.912264">
                <ele>77.000000</ele>
                <time>2018-02-26T08:36:01.644Z</time>
            </trkpt>
            <trkpt lon="100.992526" lat="12.912232">
                <ele>77.000000</ele>
                <time>2018-02-26T08:36:03.644Z</time>
            </trkpt>
            <trkpt lon="100.992505" lat="12.912203">
                <ele>77.000000</ele>
                <time>2018-02-26T08:36:05.644Z</time>
            </trkpt>
            <trkpt lon="100.992482" lat="12.912172">
                <ele>77.000000</ele>
                <time>2018-02-26T08:36:07.644Z</time>
            </trkpt>
            <trkpt lon="100.992455" lat="12.912138">
                <ele>77.000000</ele>
                <time>2018-02-26T08:36:09.644Z</time>
            </trkpt>
            <trkpt lon="100.992420" lat="12.912107">
                <ele>77.000000</ele>
                <time>2018-02-26T08:36:11.644Z</time>
            </trkpt>
            <trkpt lon="100.992387" lat="12.912066">
                <ele>77.000000</ele>
                <time>2018-02-26T08:36:13.644Z</time>
            </trkpt>
            <trkpt lon="100.992370" lat="12.912035">
                <ele>77.000000</ele>
                <time>2018-02-26T08:36:14.644Z</time>
            </trkpt>
            <trkpt lon="100.992353" lat="12.912003">
                <ele>77.000000</ele>
                <time>2018-02-26T08:36:15.644Z</time>
            </trkpt>
            <trkpt lon="100.992335" lat="12.911969">
                <ele>77.000000</ele>
                <time>2018-02-26T08:36:16.644Z</time>
            </trkpt>
            <trkpt lon="100.992319" lat="12.911937">
                <ele>77.100000</ele>
                <time>2018-02-26T08:36:17.644Z</time>
            </trkpt>
            <trkpt lon="100.992304" lat="12.911904">
                <ele>77.100000</ele>
                <time>2018-02-26T08:36:18.644Z</time>
            </trkpt>
            <trkpt lon="100.992286" lat="12.911871">
                <ele>77.100000</ele>
                <time>2018-02-26T08:36:19.644Z</time>
            </trkpt>
            <trkpt lon="100.992267" lat="12.911839">
                <ele>77.100000</ele>
                <time>2018-02-26T08:36:20.644Z</time>
            </trkpt>
            <trkpt lon="100.992249" lat="12.911811">
                <ele>77.100000</ele>
                <time>2018-02-26T08:36:21.644Z</time>
            </trkpt>
            <trkpt lon="100.992223" lat="12.911775">
                <ele>77.100000</ele>
                <time>2018-02-26T08:36:22.644Z</time>
            </trkpt>
            <trkpt lon="100.992200" lat="12.911747">
                <ele>77.100000</ele>
                <time>2018-02-26T08:36:23.644Z</time>
            </trkpt>
            <trkpt lon="100.992164" lat="12.911730">
                <ele>77.100000</ele>
                <time>2018-02-26T08:36:24.644Z</time>
            </trkpt>
            <trkpt lon="100.992127" lat="12.911714">
                <ele>77.100000</ele>
                <time>2018-02-26T08:36:25.644Z</time>
            </trkpt>
            <trkpt lon="100.992104" lat="12.911696">
                <ele>77.100000</ele>
                <time>2018-02-26T08:36:26.644Z</time>
            </trkpt>
            <trkpt lon="100.992100" lat="12.911667">
                <ele>77.100000</ele>
                <time>2018-02-26T08:36:27.644Z</time>
            </trkpt>
            <trkpt lon="100.992095" lat="12.911613">
                <ele>77.100000</ele>
                <time>2018-02-26T08:36:29.644Z</time>
            </trkpt>
            <trkpt lon="100.992079" lat="12.911588">
                <ele>77.100000</ele>
                <time>2018-02-26T08:36:30.644Z</time>
            </trkpt>
            <trkpt lon="100.992063" lat="12.911556">
                <ele>77.100000</ele>
                <time>2018-02-26T08:36:31.644Z</time>
            </trkpt>
            <trkpt lon="100.992045" lat="12.911524">
                <ele>77.100000</ele>
                <time>2018-02-26T08:36:32.644Z</time>
            </trkpt>
            <trkpt lon="100.992029" lat="12.911497">
                <ele>77.100000</ele>
                <time>2018-02-26T08:36:33.644Z</time>
            </trkpt>
            <trkpt lon="100.992009" lat="12.911470">
                <ele>77.100000</ele>
                <time>2018-02-26T08:36:34.644Z</time>
            </trkpt>
            <trkpt lon="100.991991" lat="12.911442">
                <ele>77.100000</ele>
                <time>2018-02-26T08:36:35.644Z</time>
            </trkpt>
            <trkpt lon="100.991973" lat="12.911413">
                <ele>77.100000</ele>
                <time>2018-02-26T08:36:36.644Z</time>
            </trkpt>
            <trkpt lon="100.991952" lat="12.911381">
                <ele>77.100000</ele>
                <time>2018-02-26T08:36:37.644Z</time>
            </trkpt>
            <trkpt lon="100.991930" lat="12.911348">
                <ele>77.100000</ele>
                <time>2018-02-26T08:36:38.644Z</time>
            </trkpt>
            <trkpt lon="100.991910" lat="12.911322">
                <ele>77.100000</ele>
                <time>2018-02-26T08:36:39.644Z</time>
            </trkpt>
            <trkpt lon="100.991891" lat="12.911298">
                <ele>77.100000</ele>
                <time>2018-02-26T08:36:40.644Z</time>
            </trkpt>
            <trkpt lon="100.991875" lat="12.911272">
                <ele>77.100000</ele>
                <time>2018-02-26T08:36:41.644Z</time>
            </trkpt>
            <trkpt lon="100.991858" lat="12.911248">
                <ele>77.100000</ele>
                <time>2018-02-26T08:36:42.644Z</time>
            </trkpt>
            <trkpt lon="100.991833" lat="12.911225">
                <ele>77.100000</ele>
                <time>2018-02-26T08:36:44.644Z</time>
            </trkpt>
            <trkpt lon="100.991798" lat="12.911223">
                <ele>77.100000</ele>
                <time>2018-02-26T08:36:46.644Z</time>
            </trkpt>
            <trkpt lon="100.991762" lat="12.911241">
                <ele>77.100000</ele>
                <time>2018-02-26T08:36:48.644Z</time>
            </trkpt>
            <trkpt lon="100.991712" lat="12.911254">
                <ele>77.000000</ele>
                <time>2018-02-26T08:36:50.644Z</time>
            </trkpt>
            <trkpt lon="100.991673" lat="12.911276">
                <ele>77.000000</ele>
                <time>2018-02-26T08:36:52.644Z</time>
            </trkpt>
            <trkpt lon="100.991669" lat="12.911317">
                <ele>76.900000</ele>
                <time>2018-02-26T08:36:54.644Z</time>
            </trkpt>
            <trkpt lon="100.991680" lat="12.911354">
                <ele>76.900000</ele>
                <time>2018-02-26T08:36:56.644Z</time>
            </trkpt>
            <trkpt lon="100.991683" lat="12.911383">
                <ele>76.900000</ele>
                <time>2018-02-26T08:36:57.644Z</time>
            </trkpt>
            <trkpt lon="100.991673" lat="12.911427">
                <ele>76.900000</ele>
                <time>2018-02-26T08:36:59.644Z</time>
            </trkpt>
            <trkpt lon="100.991657" lat="12.911450">
                <ele>76.800000</ele>
                <time>2018-02-26T08:37:00.644Z</time>
            </trkpt>
            <trkpt lon="100.991635" lat="12.911480">
                <ele>77.000000</ele>
                <time>2018-02-26T08:37:01.644Z</time>
            </trkpt>
            <trkpt lon="100.991600" lat="12.911519">
                <ele>77.200000</ele>
                <time>2018-02-26T08:37:02.644Z</time>
            </trkpt>
            <trkpt lon="100.991564" lat="12.911539">
                <ele>77.200000</ele>
                <time>2018-02-26T08:37:03.644Z</time>
            </trkpt>
            <trkpt lon="100.991529" lat="12.911551">
                <ele>77.400000</ele>
                <time>2018-02-26T08:37:04.644Z</time>
            </trkpt>
            <trkpt lon="100.991496" lat="12.911552">
                <ele>77.500000</ele>
                <time>2018-02-26T08:37:05.644Z</time>
            </trkpt>
            <trkpt lon="100.991468" lat="12.911537">
                <ele>77.500000</ele>
                <time>2018-02-26T08:37:06.644Z</time>
            </trkpt>
            <trkpt lon="100.991439" lat="12.911530">
                <ele>77.400000</ele>
                <time>2018-02-26T08:37:07.644Z</time>
            </trkpt>
            <trkpt lon="100.991378" lat="12.911519">
                <ele>77.700000</ele>
                <time>2018-02-26T08:37:09.644Z</time>
            </trkpt>
            <trkpt lon="100.991336" lat="12.911509">
                <ele>77.800000</ele>
                <time>2018-02-26T08:37:10.644Z</time>
            </trkpt>
            <trkpt lon="100.991290" lat="12.911493">
                <ele>77.700000</ele>
                <time>2018-02-26T08:37:11.644Z</time>
            </trkpt>
            <trkpt lon="100.991258" lat="12.911485">
                <ele>77.700000</ele>
                <time>2018-02-26T08:37:12.644Z</time>
            </trkpt>
            <trkpt lon="100.991228" lat="12.911486">
                <ele>77.700000</ele>
                <time>2018-02-26T08:37:13.644Z</time>
            </trkpt>
            <trkpt lon="100.991195" lat="12.911486">
                <ele>77.700000</ele>
                <time>2018-02-26T08:37:14.644Z</time>
            </trkpt>
            <trkpt lon="100.991159" lat="12.911485">
                <ele>77.700000</ele>
                <time>2018-02-26T08:37:15.644Z</time>
            </trkpt>
            <trkpt lon="100.991129" lat="12.911485">
                <ele>77.600000</ele>
                <time>2018-02-26T08:37:16.644Z</time>
            </trkpt>
            <trkpt lon="100.991092" lat="12.911484">
                <ele>77.600000</ele>
                <time>2018-02-26T08:37:17.644Z</time>
            </trkpt>
            <trkpt lon="100.991044" lat="12.911496">
                <ele>77.600000</ele>
                <time>2018-02-26T08:37:18.644Z</time>
            </trkpt>
            <trkpt lon="100.990999" lat="12.911503">
                <ele>77.800000</ele>
                <time>2018-02-26T08:37:19.644Z</time>
            </trkpt>
            <trkpt lon="100.990960" lat="12.911505">
                <ele>77.800000</ele>
                <time>2018-02-26T08:37:20.644Z</time>
            </trkpt>
            <trkpt lon="100.990923" lat="12.911508">
                <ele>77.800000</ele>
                <time>2018-02-26T08:37:21.644Z</time>
            </trkpt>
            <trkpt lon="100.990895" lat="12.911515">
                <ele>77.700000</ele>
                <time>2018-02-26T08:37:22.644Z</time>
            </trkpt>
            <trkpt lon="100.990855" lat="12.911564">
                <ele>78.000000</ele>
                <time>2018-02-26T08:37:24.644Z</time>
            </trkpt>
            <trkpt lon="100.990835" lat="12.911590">
                <ele>78.200000</ele>
                <time>2018-02-26T08:37:25.644Z</time>
            </trkpt>
            <trkpt lon="100.990815" lat="12.911613">
                <ele>78.200000</ele>
                <time>2018-02-26T08:37:26.644Z</time>
            </trkpt>
            <trkpt lon="100.990774" lat="12.911637">
                <ele>78.400000</ele>
                <time>2018-02-26T08:37:28.644Z</time>
            </trkpt>
            <trkpt lon="100.990735" lat="12.911634">
                <ele>78.400000</ele>
                <time>2018-02-26T08:37:30.644Z</time>
            </trkpt>
            <trkpt lon="100.990697" lat="12.911606">
                <ele>78.300000</ele>
                <time>2018-02-26T08:37:32.644Z</time>
            </trkpt>
            <trkpt lon="100.990673" lat="12.911578">
                <ele>78.200000</ele>
                <time>2018-02-26T08:37:34.644Z</time>
            </trkpt>
            <trkpt lon="100.990654" lat="12.911545">
                <ele>78.400000</ele>
                <time>2018-02-26T08:37:36.644Z</time>
            </trkpt>
            <trkpt lon="100.990631" lat="12.911504">
                <ele>78.300000</ele>
                <time>2018-02-26T08:37:38.644Z</time>
            </trkpt>
            <trkpt lon="100.990614" lat="12.911457">
                <ele>78.000000</ele>
                <time>2018-02-26T08:37:40.644Z</time>
            </trkpt>
            <trkpt lon="100.990591" lat="12.911407">
                <ele>77.700000</ele>
                <time>2018-02-26T08:37:42.644Z</time>
            </trkpt>
            <trkpt lon="100.990577" lat="12.911383">
                <ele>77.700000</ele>
                <time>2018-02-26T08:37:43.644Z</time>
            </trkpt>
            <trkpt lon="100.990568" lat="12.911353">
                <ele>77.400000</ele>
                <time>2018-02-26T08:37:44.644Z</time>
            </trkpt>
            <trkpt lon="100.990560" lat="12.911325">
                <ele>77.200000</ele>
                <time>2018-02-26T08:37:45.644Z</time>
            </trkpt>
            <trkpt lon="100.990550" lat="12.911274">
                <ele>76.900000</ele>
                <time>2018-02-26T08:37:47.644Z</time>
            </trkpt>
            <trkpt lon="100.990541" lat="12.911226">
                <ele>76.600000</ele>
                <time>2018-02-26T08:37:49.644Z</time>
            </trkpt>
            <trkpt lon="100.990538" lat="12.911181">
                <ele>76.300000</ele>
                <time>2018-02-26T08:37:51.644Z</time>
            </trkpt>
            <trkpt lon="100.990541" lat="12.911150">
                <ele>76.100000</ele>
                <time>2018-02-26T08:37:52.644Z</time>
            </trkpt>
            <trkpt lon="100.990546" lat="12.911118">
                <ele>75.900000</ele>
                <time>2018-02-26T08:37:53.644Z</time>
            </trkpt>
            <trkpt lon="100.990556" lat="12.911067">
                <ele>75.900000</ele>
                <time>2018-02-26T08:37:55.644Z</time>
            </trkpt>
            <trkpt lon="100.990564" lat="12.911037">
                <ele>75.800000</ele>
                <time>2018-02-26T08:37:56.644Z</time>
            </trkpt>
            <trkpt lon="100.990567" lat="12.911002">
                <ele>75.800000</ele>
                <time>2018-02-26T08:37:57.644Z</time>
            </trkpt>
            <trkpt lon="100.990556" lat="12.910971">
                <ele>75.800000</ele>
                <time>2018-02-26T08:37:58.644Z</time>
            </trkpt>
            <trkpt lon="100.990547" lat="12.910936">
                <ele>75.800000</ele>
                <time>2018-02-26T08:37:59.644Z</time>
            </trkpt>
            <trkpt lon="100.990541" lat="12.910906">
                <ele>75.700000</ele>
                <time>2018-02-26T08:38:00.644Z</time>
            </trkpt>
            <trkpt lon="100.990519" lat="12.910852">
                <ele>75.800000</ele>
                <time>2018-02-26T08:38:01.644Z</time>
            </trkpt>
            <trkpt lon="100.990497" lat="12.910813">
                <ele>75.700000</ele>
                <time>2018-02-26T08:38:02.644Z</time>
            </trkpt>
            <trkpt lon="100.990475" lat="12.910775">
                <ele>75.600000</ele>
                <time>2018-02-26T08:38:03.644Z</time>
            </trkpt>
            <trkpt lon="100.990456" lat="12.910740">
                <ele>75.500000</ele>
                <time>2018-02-26T08:38:04.644Z</time>
            </trkpt>
            <trkpt lon="100.990444" lat="12.910707">
                <ele>75.300000</ele>
                <time>2018-02-26T08:38:05.644Z</time>
            </trkpt>
            <trkpt lon="100.990447" lat="12.910661">
                <ele>75.100000</ele>
                <time>2018-02-26T08:38:06.644Z</time>
            </trkpt>
            <trkpt lon="100.990450" lat="12.910620">
                <ele>75.300000</ele>
                <time>2018-02-26T08:38:07.644Z</time>
            </trkpt>
            <trkpt lon="100.990452" lat="12.910593">
                <ele>75.200000</ele>
                <time>2018-02-26T08:38:08.644Z</time>
            </trkpt>
            <trkpt lon="100.990457" lat="12.910552">
                <ele>75.300000</ele>
                <time>2018-02-26T08:38:09.644Z</time>
            </trkpt>
            <trkpt lon="100.990469" lat="12.910513">
                <ele>75.400000</ele>
                <time>2018-02-26T08:38:10.644Z</time>
            </trkpt>
            <trkpt lon="100.990489" lat="12.910477">
                <ele>75.400000</ele>
                <time>2018-02-26T08:38:11.644Z</time>
            </trkpt>
            <trkpt lon="100.990510" lat="12.910451">
                <ele>75.500000</ele>
                <time>2018-02-26T08:38:12.644Z</time>
            </trkpt>
            <trkpt lon="100.990533" lat="12.910428">
                <ele>75.500000</ele>
                <time>2018-02-26T08:38:13.644Z</time>
            </trkpt>
            <trkpt lon="100.990559" lat="12.910399">
                <ele>75.700000</ele>
                <time>2018-02-26T08:38:14.644Z</time>
            </trkpt>
            <trkpt lon="100.990586" lat="12.910371">
                <ele>76.000000</ele>
                <time>2018-02-26T08:38:15.644Z</time>
            </trkpt>
            <trkpt lon="100.990611" lat="12.910347">
                <ele>75.900000</ele>
                <time>2018-02-26T08:38:16.644Z</time>
            </trkpt>
            <trkpt lon="100.990637" lat="12.910323">
                <ele>76.200000</ele>
                <time>2018-02-26T08:38:17.644Z</time>
            </trkpt>
            <trkpt lon="100.990656" lat="12.910294">
                <ele>76.100000</ele>
                <time>2018-02-26T08:38:18.644Z</time>
            </trkpt>
            <trkpt lon="100.990656" lat="12.910243">
                <ele>76.300000</ele>
                <time>2018-02-26T08:38:20.644Z</time>
            </trkpt>
            <trkpt lon="100.990661" lat="12.910216">
                <ele>76.300000</ele>
                <time>2018-02-26T08:38:21.644Z</time>
            </trkpt>
            <trkpt lon="100.990669" lat="12.910189">
                <ele>76.200000</ele>
                <time>2018-02-26T08:38:22.644Z</time>
            </trkpt>
            <trkpt lon="100.990678" lat="12.910161">
                <ele>76.200000</ele>
                <time>2018-02-26T08:38:23.644Z</time>
            </trkpt>
            <trkpt lon="100.990687" lat="12.910135">
                <ele>76.200000</ele>
                <time>2018-02-26T08:38:24.644Z</time>
            </trkpt>
            <trkpt lon="100.990694" lat="12.910105">
                <ele>76.300000</ele>
                <time>2018-02-26T08:38:25.644Z</time>
            </trkpt>
            <trkpt lon="100.990666" lat="12.910058">
                <ele>76.500000</ele>
                <time>2018-02-26T08:38:27.644Z</time>
            </trkpt>
            <trkpt lon="100.990629" lat="12.910022">
                <ele>76.700000</ele>
                <time>2018-02-26T08:38:29.644Z</time>
            </trkpt>
            <trkpt lon="100.990587" lat="12.909988">
                <ele>76.900000</ele>
                <time>2018-02-26T08:38:31.644Z</time>
            </trkpt>
            <trkpt lon="100.990545" lat="12.909954">
                <ele>77.200000</ele>
                <time>2018-02-26T08:38:33.644Z</time>
            </trkpt>
            <trkpt lon="100.990523" lat="12.909935">
                <ele>77.200000</ele>
                <time>2018-02-26T08:38:34.644Z</time>
            </trkpt>
            <trkpt lon="100.990502" lat="12.909917">
                <ele>77.200000</ele>
                <time>2018-02-26T08:38:35.644Z</time>
            </trkpt>
            <trkpt lon="100.990482" lat="12.909894">
                <ele>77.700000</ele>
                <time>2018-02-26T08:38:36.644Z</time>
            </trkpt>
            <trkpt lon="100.990461" lat="12.909872">
                <ele>77.600000</ele>
                <time>2018-02-26T08:38:37.644Z</time>
            </trkpt>
            <trkpt lon="100.990437" lat="12.909851">
                <ele>78.100000</ele>
                <time>2018-02-26T08:38:38.644Z</time>
            </trkpt>
            <trkpt lon="100.990411" lat="12.909837">
                <ele>78.100000</ele>
                <time>2018-02-26T08:38:39.644Z</time>
            </trkpt>
            <trkpt lon="100.990381" lat="12.909820">
                <ele>78.600000</ele>
                <time>2018-02-26T08:38:40.644Z</time>
            </trkpt>
            <trkpt lon="100.990341" lat="12.909789">
                <ele>78.500000</ele>
                <time>2018-02-26T08:38:42.644Z</time>
            </trkpt>
            <trkpt lon="100.990298" lat="12.909756">
                <ele>78.600000</ele>
                <time>2018-02-26T08:38:44.644Z</time>
            </trkpt>
            <trkpt lon="100.990265" lat="12.909716">
                <ele>78.600000</ele>
                <time>2018-02-26T08:38:46.644Z</time>
            </trkpt>
            <trkpt lon="100.990237" lat="12.909672">
                <ele>78.800000</ele>
                <time>2018-02-26T08:38:48.644Z</time>
            </trkpt>
            <trkpt lon="100.990210" lat="12.909635">
                <ele>78.800000</ele>
                <time>2018-02-26T08:38:50.644Z</time>
            </trkpt>
            <trkpt lon="100.990171" lat="12.909593">
                <ele>78.800000</ele>
                <time>2018-02-26T08:38:52.644Z</time>
            </trkpt>
            <trkpt lon="100.990138" lat="12.909562">
                <ele>78.700000</ele>
                <time>2018-02-26T08:38:54.644Z</time>
            </trkpt>
            <trkpt lon="100.990117" lat="12.909540">
                <ele>78.700000</ele>
                <time>2018-02-26T08:38:56.644Z</time>
            </trkpt>
            <trkpt lon="100.990087" lat="12.909520">
                <ele>78.700000</ele>
                <time>2018-02-26T08:38:58.644Z</time>
            </trkpt>
            <trkpt lon="100.990047" lat="12.909496">
                <ele>78.700000</ele>
                <time>2018-02-26T08:39:00.644Z</time>
            </trkpt>
            <trkpt lon="100.989999" lat="12.909467">
                <ele>78.600000</ele>
                <time>2018-02-26T08:39:02.644Z</time>
            </trkpt>
            <trkpt lon="100.989972" lat="12.909454">
                <ele>78.600000</ele>
                <time>2018-02-26T08:39:03.644Z</time>
            </trkpt>
            <trkpt lon="100.989943" lat="12.909436">
                <ele>78.600000</ele>
                <time>2018-02-26T08:39:04.644Z</time>
            </trkpt>
            <trkpt lon="100.989915" lat="12.909418">
                <ele>78.600000</ele>
                <time>2018-02-26T08:39:05.644Z</time>
            </trkpt>
            <trkpt lon="100.989886" lat="12.909403">
                <ele>78.500000</ele>
                <time>2018-02-26T08:39:06.644Z</time>
            </trkpt>
            <trkpt lon="100.989853" lat="12.909390">
                <ele>78.500000</ele>
                <time>2018-02-26T08:39:07.644Z</time>
            </trkpt>
            <trkpt lon="100.989821" lat="12.909377">
                <ele>78.500000</ele>
                <time>2018-02-26T08:39:08.644Z</time>
            </trkpt>
            <trkpt lon="100.989789" lat="12.909364">
                <ele>78.700000</ele>
                <time>2018-02-26T08:39:09.644Z</time>
            </trkpt>
            <trkpt lon="100.989760" lat="12.909352">
                <ele>78.800000</ele>
                <time>2018-02-26T08:39:10.644Z</time>
            </trkpt>
            <trkpt lon="100.989738" lat="12.909336">
                <ele>78.800000</ele>
                <time>2018-02-26T08:39:11.644Z</time>
            </trkpt>
            <trkpt lon="100.989716" lat="12.909315">
                <ele>79.100000</ele>
                <time>2018-02-26T08:39:12.644Z</time>
            </trkpt>
            <trkpt lon="100.989694" lat="12.909272">
                <ele>79.200000</ele>
                <time>2018-02-26T08:39:14.644Z</time>
            </trkpt>
            <trkpt lon="100.989698" lat="12.909230">
                <ele>79.200000</ele>
                <time>2018-02-26T08:39:16.644Z</time>
            </trkpt>
            <trkpt lon="100.989707" lat="12.909199">
                <ele>79.200000</ele>
                <time>2018-02-26T08:39:18.644Z</time>
            </trkpt>
            <trkpt lon="100.989713" lat="12.909168">
                <ele>79.200000</ele>
                <time>2018-02-26T08:39:20.644Z</time>
            </trkpt>
            <trkpt lon="100.989716" lat="12.909142">
                <ele>79.100000</ele>
                <time>2018-02-26T08:39:22.644Z</time>
            </trkpt>
            <trkpt lon="100.989727" lat="12.909111">
                <ele>78.900000</ele>
                <time>2018-02-26T08:39:24.644Z</time>
            </trkpt>
            <trkpt lon="100.989748" lat="12.909063">
                <ele>79.000000</ele>
                <time>2018-02-26T08:39:26.644Z</time>
            </trkpt>
            <trkpt lon="100.989774" lat="12.909019">
                <ele>78.900000</ele>
                <time>2018-02-26T08:39:28.644Z</time>
            </trkpt>
            <trkpt lon="100.989794" lat="12.908991">
                <ele>79.100000</ele>
                <time>2018-02-26T08:39:29.644Z</time>
            </trkpt>
            <trkpt lon="100.989818" lat="12.908965">
                <ele>79.000000</ele>
                <time>2018-02-26T08:39:30.644Z</time>
            </trkpt>
            <trkpt lon="100.989842" lat="12.908940">
                <ele>79.200000</ele>
                <time>2018-02-26T08:39:31.644Z</time>
            </trkpt>
            <trkpt lon="100.989866" lat="12.908917">
                <ele>79.000000</ele>
                <time>2018-02-26T08:39:32.644Z</time>
            </trkpt>
            <trkpt lon="100.989891" lat="12.908894">
                <ele>78.700000</ele>
                <time>2018-02-26T08:39:33.644Z</time>
            </trkpt>
            <trkpt lon="100.989914" lat="12.908872">
                <ele>78.700000</ele>
                <time>2018-02-26T08:39:34.644Z</time>
            </trkpt>
            <trkpt lon="100.989936" lat="12.908851">
                <ele>78.400000</ele>
                <time>2018-02-26T08:39:35.644Z</time>
            </trkpt>
            <trkpt lon="100.989977" lat="12.908824">
                <ele>78.100000</ele>
                <time>2018-02-26T08:39:37.644Z</time>
            </trkpt>
            <trkpt lon="100.990013" lat="12.908808">
                <ele>78.100000</ele>
                <time>2018-02-26T08:39:39.644Z</time>
            </trkpt>
            <trkpt lon="100.990043" lat="12.908792">
                <ele>77.800000</ele>
                <time>2018-02-26T08:39:42.644Z</time>
            </trkpt>
            <trkpt lon="100.990012" lat="12.908803">
                <ele>78.100000</ele>
                <time>2018-02-26T08:39:46.644Z</time>
            </trkpt>
            <trkpt lon="100.989983" lat="12.908815">
                <ele>78.000000</ele>
                <time>2018-02-26T08:39:47.644Z</time>
            </trkpt>
            <trkpt lon="100.989954" lat="12.908838">
                <ele>78.300000</ele>
                <time>2018-02-26T08:39:48.644Z</time>
            </trkpt>
            <trkpt lon="100.989931" lat="12.908870">
                <ele>78.500000</ele>
                <time>2018-02-26T08:39:49.644Z</time>
            </trkpt>
            <trkpt lon="100.989907" lat="12.908904">
                <ele>78.500000</ele>
                <time>2018-02-26T08:39:50.644Z</time>
            </trkpt>
            <trkpt lon="100.989875" lat="12.908937">
                <ele>78.700000</ele>
                <time>2018-02-26T08:39:51.644Z</time>
            </trkpt>
            <trkpt lon="100.989844" lat="12.908970">
                <ele>78.700000</ele>
                <time>2018-02-26T08:39:52.644Z</time>
            </trkpt>
            <trkpt lon="100.989813" lat="12.909003">
                <ele>78.400000</ele>
                <time>2018-02-26T08:39:53.644Z</time>
            </trkpt>
            <trkpt lon="100.989783" lat="12.909029">
                <ele>78.500000</ele>
                <time>2018-02-26T08:39:54.644Z</time>
            </trkpt>
            <trkpt lon="100.989764" lat="12.909054">
                <ele>78.300000</ele>
                <time>2018-02-26T08:39:55.644Z</time>
            </trkpt>
            <trkpt lon="100.989743" lat="12.909084">
                <ele>78.400000</ele>
                <time>2018-02-26T08:39:57.644Z</time>
            </trkpt>
            <trkpt lon="100.989718" lat="12.909103">
                <ele>78.600000</ele>
                <time>2018-02-26T08:39:59.644Z</time>
            </trkpt>
            <trkpt lon="100.989746" lat="12.909091">
                <ele>78.300000</ele>
                <time>2018-02-26T08:40:07.644Z</time>
            </trkpt>
            <trkpt lon="100.989784" lat="12.909057">
                <ele>78.200000</ele>
                <time>2018-02-26T08:40:09.644Z</time>
            </trkpt>
            <trkpt lon="100.989821" lat="12.909023">
                <ele>78.200000</ele>
                <time>2018-02-26T08:40:11.644Z</time>
            </trkpt>
            <trkpt lon="100.989857" lat="12.908984">
                <ele>78.300000</ele>
                <time>2018-02-26T08:40:13.644Z</time>
            </trkpt>
            <trkpt lon="100.989894" lat="12.908942">
                <ele>78.200000</ele>
                <time>2018-02-26T08:40:15.644Z</time>
            </trkpt>
            <trkpt lon="100.989915" lat="12.908921">
                <ele>78.200000</ele>
                <time>2018-02-26T08:40:16.644Z</time>
            </trkpt>
            <trkpt lon="100.989932" lat="12.908899">
                <ele>78.100000</ele>
                <time>2018-02-26T08:40:17.644Z</time>
            </trkpt>
            <trkpt lon="100.989949" lat="12.908875">
                <ele>77.900000</ele>
                <time>2018-02-26T08:40:18.644Z</time>
            </trkpt>
            <trkpt lon="100.989966" lat="12.908853">
                <ele>77.800000</ele>
                <time>2018-02-26T08:40:19.644Z</time>
            </trkpt>
            <trkpt lon="100.990009" lat="12.908828">
                <ele>77.600000</ele>
                <time>2018-02-26T08:40:21.644Z</time>
            </trkpt>
            <trkpt lon="100.990044" lat="12.908804">
                <ele>77.300000</ele>
                <time>2018-02-26T08:40:23.644Z</time>
            </trkpt>
            <trkpt lon="100.990048" lat="12.908774">
                <ele>77.300000</ele>
                <time>2018-02-26T08:40:26.644Z</time>
            </trkpt>
            <trkpt lon="100.990016" lat="12.908755">
                <ele>77.500000</ele>
                <time>2018-02-26T08:40:28.644Z</time>
            </trkpt>
            <trkpt lon="100.989987" lat="12.908742">
                <ele>77.500000</ele>
                <time>2018-02-26T08:40:30.644Z</time>
            </trkpt>
            <trkpt lon="100.989956" lat="12.908712">
                <ele>77.700000</ele>
                <time>2018-02-26T08:40:32.644Z</time>
            </trkpt>
            <trkpt lon="100.989938" lat="12.908684">
                <ele>77.700000</ele>
                <time>2018-02-26T08:40:33.644Z</time>
            </trkpt>
            <trkpt lon="100.989921" lat="12.908661">
                <ele>77.900000</ele>
                <time>2018-02-26T08:40:34.644Z</time>
            </trkpt>
            <trkpt lon="100.989904" lat="12.908628">
                <ele>77.900000</ele>
                <time>2018-02-26T08:40:35.644Z</time>
            </trkpt>
            <trkpt lon="100.989897" lat="12.908594">
                <ele>77.900000</ele>
                <time>2018-02-26T08:40:36.644Z</time>
            </trkpt>
            <trkpt lon="100.989894" lat="12.908562">
                <ele>77.800000</ele>
                <time>2018-02-26T08:40:37.644Z</time>
            </trkpt>
            <trkpt lon="100.989888" lat="12.908533">
                <ele>78.100000</ele>
                <time>2018-02-26T08:40:38.644Z</time>
            </trkpt>
            <trkpt lon="100.989875" lat="12.908495">
                <ele>78.000000</ele>
                <time>2018-02-26T08:40:39.644Z</time>
            </trkpt>
            <trkpt lon="100.989861" lat="12.908458">
                <ele>78.000000</ele>
                <time>2018-02-26T08:40:40.644Z</time>
            </trkpt>
            <trkpt lon="100.989845" lat="12.908428">
                <ele>78.200000</ele>
                <time>2018-02-26T08:40:41.644Z</time>
            </trkpt>
            <trkpt lon="100.989826" lat="12.908398">
                <ele>78.400000</ele>
                <time>2018-02-26T08:40:42.644Z</time>
            </trkpt>
            <trkpt lon="100.989806" lat="12.908368">
                <ele>78.600000</ele>
                <time>2018-02-26T08:40:43.644Z</time>
            </trkpt>
            <trkpt lon="100.989790" lat="12.908331">
                <ele>78.800000</ele>
                <time>2018-02-26T08:40:44.644Z</time>
            </trkpt>
            <trkpt lon="100.989781" lat="12.908288">
                <ele>79.000000</ele>
                <time>2018-02-26T08:40:45.644Z</time>
            </trkpt>
            <trkpt lon="100.989773" lat="12.908247">
                <ele>79.100000</ele>
                <time>2018-02-26T08:40:46.644Z</time>
            </trkpt>
            <trkpt lon="100.989763" lat="12.908203">
                <ele>79.200000</ele>
                <time>2018-02-26T08:40:47.644Z</time>
            </trkpt>
            <trkpt lon="100.989750" lat="12.908161">
                <ele>79.200000</ele>
                <time>2018-02-26T08:40:48.644Z</time>
            </trkpt>
            <trkpt lon="100.989741" lat="12.908118">
                <ele>79.300000</ele>
                <time>2018-02-26T08:40:49.644Z</time>
            </trkpt>
            <trkpt lon="100.989731" lat="12.908082">
                <ele>79.400000</ele>
                <time>2018-02-26T08:40:50.644Z</time>
            </trkpt>
            <trkpt lon="100.989720" lat="12.908046">
                <ele>79.500000</ele>
                <time>2018-02-26T08:40:51.644Z</time>
            </trkpt>
            <trkpt lon="100.989708" lat="12.908013">
                <ele>79.200000</ele>
                <time>2018-02-26T08:40:52.644Z</time>
            </trkpt>
            <trkpt lon="100.989701" lat="12.907980">
                <ele>78.700000</ele>
                <time>2018-02-26T08:40:53.644Z</time>
            </trkpt>
            <trkpt lon="100.989687" lat="12.907939">
                <ele>78.800000</ele>
                <time>2018-02-26T08:40:54.644Z</time>
            </trkpt>
            <trkpt lon="100.989665" lat="12.907893">
                <ele>78.800000</ele>
                <time>2018-02-26T08:40:55.644Z</time>
            </trkpt>
            <trkpt lon="100.989639" lat="12.907848">
                <ele>78.800000</ele>
                <time>2018-02-26T08:40:56.644Z</time>
            </trkpt>
            <trkpt lon="100.989610" lat="12.907802">
                <ele>78.700000</ele>
                <time>2018-02-26T08:40:57.644Z</time>
            </trkpt>
            <trkpt lon="100.989582" lat="12.907760">
                <ele>78.700000</ele>
                <time>2018-02-26T08:40:58.644Z</time>
            </trkpt>
            <trkpt lon="100.989558" lat="12.907720">
                <ele>78.700000</ele>
                <time>2018-02-26T08:40:59.644Z</time>
            </trkpt>
            <trkpt lon="100.989533" lat="12.907680">
                <ele>78.700000</ele>
                <time>2018-02-26T08:41:00.644Z</time>
            </trkpt>
            <trkpt lon="100.989507" lat="12.907644">
                <ele>78.700000</ele>
                <time>2018-02-26T08:41:01.644Z</time>
            </trkpt>
            <trkpt lon="100.989480" lat="12.907608">
                <ele>78.700000</ele>
                <time>2018-02-26T08:41:02.644Z</time>
            </trkpt>
            <trkpt lon="100.989454" lat="12.907576">
                <ele>78.700000</ele>
                <time>2018-02-26T08:41:03.644Z</time>
            </trkpt>
            <trkpt lon="100.989426" lat="12.907537">
                <ele>78.700000</ele>
                <time>2018-02-26T08:41:04.644Z</time>
            </trkpt>
            <trkpt lon="100.989397" lat="12.907500">
                <ele>78.700000</ele>
                <time>2018-02-26T08:41:05.644Z</time>
            </trkpt>
            <trkpt lon="100.989368" lat="12.907460">
                <ele>78.700000</ele>
                <time>2018-02-26T08:41:06.644Z</time>
            </trkpt>
            <trkpt lon="100.989339" lat="12.907420">
                <ele>78.700000</ele>
                <time>2018-02-26T08:41:07.644Z</time>
            </trkpt>
            <trkpt lon="100.989307" lat="12.907368">
                <ele>78.600000</ele>
                <time>2018-02-26T08:41:08.644Z</time>
            </trkpt>
            <trkpt lon="100.989280" lat="12.907320">
                <ele>78.600000</ele>
                <time>2018-02-26T08:41:09.644Z</time>
            </trkpt>
            <trkpt lon="100.989254" lat="12.907273">
                <ele>78.500000</ele>
                <time>2018-02-26T08:41:10.644Z</time>
            </trkpt>
            <trkpt lon="100.989227" lat="12.907228">
                <ele>78.400000</ele>
                <time>2018-02-26T08:41:11.644Z</time>
            </trkpt>
            <trkpt lon="100.989201" lat="12.907181">
                <ele>78.300000</ele>
                <time>2018-02-26T08:41:12.644Z</time>
            </trkpt>
            <trkpt lon="100.989173" lat="12.907138">
                <ele>78.200000</ele>
                <time>2018-02-26T08:41:13.644Z</time>
            </trkpt>
            <trkpt lon="100.989144" lat="12.907092">
                <ele>78.100000</ele>
                <time>2018-02-26T08:41:14.644Z</time>
            </trkpt>
            <trkpt lon="100.989117" lat="12.907046">
                <ele>77.900000</ele>
                <time>2018-02-26T08:41:15.644Z</time>
            </trkpt>
            <trkpt lon="100.989089" lat="12.906998">
                <ele>77.600000</ele>
                <time>2018-02-26T08:41:16.644Z</time>
            </trkpt>
            <trkpt lon="100.989063" lat="12.906954">
                <ele>77.400000</ele>
                <time>2018-02-26T08:41:17.644Z</time>
            </trkpt>
            <trkpt lon="100.989031" lat="12.906910">
                <ele>77.200000</ele>
                <time>2018-02-26T08:41:18.644Z</time>
            </trkpt>
            <trkpt lon="100.989000" lat="12.906868">
                <ele>77.000000</ele>
                <time>2018-02-26T08:41:19.644Z</time>
            </trkpt>
            <trkpt lon="100.988968" lat="12.906819">
                <ele>76.800000</ele>
                <time>2018-02-26T08:41:20.644Z</time>
            </trkpt>
            <trkpt lon="100.988939" lat="12.906777">
                <ele>76.700000</ele>
                <time>2018-02-26T08:41:21.644Z</time>
            </trkpt>
            <trkpt lon="100.988911" lat="12.906737">
                <ele>76.500000</ele>
                <time>2018-02-26T08:41:22.644Z</time>
            </trkpt>
            <trkpt lon="100.988882" lat="12.906695">
                <ele>76.400000</ele>
                <time>2018-02-26T08:41:23.644Z</time>
            </trkpt>
            <trkpt lon="100.988853" lat="12.906649">
                <ele>76.300000</ele>
                <time>2018-02-26T08:41:24.644Z</time>
            </trkpt>
            <trkpt lon="100.988823" lat="12.906602">
                <ele>76.200000</ele>
                <time>2018-02-26T08:41:25.644Z</time>
            </trkpt>
            <trkpt lon="100.988794" lat="12.906559">
                <ele>76.100000</ele>
                <time>2018-02-26T08:41:26.644Z</time>
            </trkpt>
            <trkpt lon="100.988764" lat="12.906510">
                <ele>76.000000</ele>
                <time>2018-02-26T08:41:27.644Z</time>
            </trkpt>
            <trkpt lon="100.988736" lat="12.906474">
                <ele>75.900000</ele>
                <time>2018-02-26T08:41:28.644Z</time>
            </trkpt>
            <trkpt lon="100.988706" lat="12.906441">
                <ele>75.800000</ele>
                <time>2018-02-26T08:41:29.644Z</time>
            </trkpt>
            <trkpt lon="100.988672" lat="12.906410">
                <ele>75.700000</ele>
                <time>2018-02-26T08:41:30.644Z</time>
            </trkpt>
            <trkpt lon="100.988639" lat="12.906379">
                <ele>75.600000</ele>
                <time>2018-02-26T08:41:31.644Z</time>
            </trkpt>
            <trkpt lon="100.988608" lat="12.906338">
                <ele>75.500000</ele>
                <time>2018-02-26T08:41:32.644Z</time>
            </trkpt>
            <trkpt lon="100.988590" lat="12.906295">
                <ele>75.300000</ele>
                <time>2018-02-26T08:41:33.644Z</time>
            </trkpt>
            <trkpt lon="100.988579" lat="12.906241">
                <ele>75.000000</ele>
                <time>2018-02-26T08:41:34.644Z</time>
            </trkpt>
            <trkpt lon="100.988568" lat="12.906196">
                <ele>74.800000</ele>
                <time>2018-02-26T08:41:35.644Z</time>
            </trkpt>
            <trkpt lon="100.988545" lat="12.906148">
                <ele>74.500000</ele>
                <time>2018-02-26T08:41:36.644Z</time>
            </trkpt>
            <trkpt lon="100.988518" lat="12.906104">
                <ele>74.300000</ele>
                <time>2018-02-26T08:41:37.644Z</time>
            </trkpt>
            <trkpt lon="100.988488" lat="12.906066">
                <ele>74.000000</ele>
                <time>2018-02-26T08:41:38.644Z</time>
            </trkpt>
            <trkpt lon="100.988459" lat="12.906025">
                <ele>74.400000</ele>
                <time>2018-02-26T08:41:39.644Z</time>
            </trkpt>
            <trkpt lon="100.988430" lat="12.905986">
                <ele>74.700000</ele>
                <time>2018-02-26T08:41:40.644Z</time>
            </trkpt>
            <trkpt lon="100.988401" lat="12.905944">
                <ele>75.100000</ele>
                <time>2018-02-26T08:41:41.644Z</time>
            </trkpt>
            <trkpt lon="100.988369" lat="12.905904">
                <ele>75.500000</ele>
                <time>2018-02-26T08:41:42.644Z</time>
            </trkpt>
            <trkpt lon="100.988340" lat="12.905863">
                <ele>75.800000</ele>
                <time>2018-02-26T08:41:43.644Z</time>
            </trkpt>
            <trkpt lon="100.988310" lat="12.905821">
                <ele>76.100000</ele>
                <time>2018-02-26T08:41:44.644Z</time>
            </trkpt>
            <trkpt lon="100.988276" lat="12.905785">
                <ele>76.400000</ele>
                <time>2018-02-26T08:41:45.644Z</time>
            </trkpt>
            <trkpt lon="100.988244" lat="12.905751">
                <ele>76.700000</ele>
                <time>2018-02-26T08:41:46.644Z</time>
            </trkpt>
            <trkpt lon="100.988215" lat="12.905715">
                <ele>77.000000</ele>
                <time>2018-02-26T08:41:47.644Z</time>
            </trkpt>
            <trkpt lon="100.988188" lat="12.905680">
                <ele>77.300000</ele>
                <time>2018-02-26T08:41:48.644Z</time>
            </trkpt>
            <trkpt lon="100.988164" lat="12.905643">
                <ele>77.900000</ele>
                <time>2018-02-26T08:41:49.644Z</time>
            </trkpt>
            <trkpt lon="100.988146" lat="12.905611">
                <ele>77.800000</ele>
                <time>2018-02-26T08:41:50.644Z</time>
            </trkpt>
            <trkpt lon="100.988125" lat="12.905588">
                <ele>78.000000</ele>
                <time>2018-02-26T08:41:51.644Z</time>
            </trkpt>
            <trkpt lon="100.988102" lat="12.905570">
                <ele>78.200000</ele>
                <time>2018-02-26T08:41:52.644Z</time>
            </trkpt>
            <trkpt lon="100.988062" lat="12.905558">
                <ele>78.600000</ele>
                <time>2018-02-26T08:41:54.644Z</time>
            </trkpt>
            <trkpt lon="100.988027" lat="12.905564">
                <ele>78.800000</ele>
                <time>2018-02-26T08:41:56.644Z</time>
            </trkpt>
            <trkpt lon="100.987980" lat="12.905579">
                <ele>79.200000</ele>
                <time>2018-02-26T08:41:58.644Z</time>
            </trkpt>
            <trkpt lon="100.987951" lat="12.905588">
                <ele>79.400000</ele>
                <time>2018-02-26T08:41:59.644Z</time>
            </trkpt>
            <trkpt lon="100.987923" lat="12.905595">
                <ele>79.500000</ele>
                <time>2018-02-26T08:42:00.644Z</time>
            </trkpt>
            <trkpt lon="100.987875" lat="12.905599">
                <ele>79.700000</ele>
                <time>2018-02-26T08:42:02.644Z</time>
            </trkpt>
            <trkpt lon="100.987829" lat="12.905607">
                <ele>79.700000</ele>
                <time>2018-02-26T08:42:04.644Z</time>
            </trkpt>
            <trkpt lon="100.987801" lat="12.905615">
                <ele>79.700000</ele>
                <time>2018-02-26T08:42:05.644Z</time>
            </trkpt>
            <trkpt lon="100.987770" lat="12.905622">
                <ele>79.700000</ele>
                <time>2018-02-26T08:42:06.644Z</time>
            </trkpt>
            <trkpt lon="100.987737" lat="12.905629">
                <ele>79.600000</ele>
                <time>2018-02-26T08:42:07.644Z</time>
            </trkpt>
            <trkpt lon="100.987701" lat="12.905635">
                <ele>79.600000</ele>
                <time>2018-02-26T08:42:08.644Z</time>
            </trkpt>
            <trkpt lon="100.987665" lat="12.905642">
                <ele>79.500000</ele>
                <time>2018-02-26T08:42:09.644Z</time>
            </trkpt>
            <trkpt lon="100.987627" lat="12.905649">
                <ele>79.500000</ele>
                <time>2018-02-26T08:42:10.644Z</time>
            </trkpt>
            <trkpt lon="100.987584" lat="12.905658">
                <ele>79.400000</ele>
                <time>2018-02-26T08:42:11.644Z</time>
            </trkpt>
            <trkpt lon="100.987540" lat="12.905667">
                <ele>79.300000</ele>
                <time>2018-02-26T08:42:12.644Z</time>
            </trkpt>
            <trkpt lon="100.987501" lat="12.905674">
                <ele>79.300000</ele>
                <time>2018-02-26T08:42:13.644Z</time>
            </trkpt>
            <trkpt lon="100.987463" lat="12.905681">
                <ele>79.300000</ele>
                <time>2018-02-26T08:42:14.644Z</time>
            </trkpt>
            <trkpt lon="100.987423" lat="12.905688">
                <ele>79.300000</ele>
                <time>2018-02-26T08:42:15.644Z</time>
            </trkpt>
            <trkpt lon="100.987384" lat="12.905694">
                <ele>79.300000</ele>
                <time>2018-02-26T08:42:16.644Z</time>
            </trkpt>
            <trkpt lon="100.987345" lat="12.905702">
                <ele>79.300000</ele>
                <time>2018-02-26T08:42:17.644Z</time>
            </trkpt>
            <trkpt lon="100.987306" lat="12.905710">
                <ele>79.000000</ele>
                <time>2018-02-26T08:42:18.644Z</time>
            </trkpt>
            <trkpt lon="100.987266" lat="12.905717">
                <ele>78.800000</ele>
                <time>2018-02-26T08:42:19.644Z</time>
            </trkpt>
            <trkpt lon="100.987226" lat="12.905725">
                <ele>78.500000</ele>
                <time>2018-02-26T08:42:20.644Z</time>
            </trkpt>
            <trkpt lon="100.987180" lat="12.905733">
                <ele>78.200000</ele>
                <time>2018-02-26T08:42:21.644Z</time>
            </trkpt>
            <trkpt lon="100.987138" lat="12.905741">
                <ele>78.100000</ele>
                <time>2018-02-26T08:42:22.644Z</time>
            </trkpt>
            <trkpt lon="100.987095" lat="12.905748">
                <ele>78.100000</ele>
                <time>2018-02-26T08:42:23.644Z</time>
            </trkpt>
            <trkpt lon="100.987052" lat="12.905755">
                <ele>78.000000</ele>
                <time>2018-02-26T08:42:24.644Z</time>
            </trkpt>
            <trkpt lon="100.987008" lat="12.905763">
                <ele>78.000000</ele>
                <time>2018-02-26T08:42:25.644Z</time>
            </trkpt>
            <trkpt lon="100.986963" lat="12.905774">
                <ele>78.000000</ele>
                <time>2018-02-26T08:42:26.644Z</time>
            </trkpt>
            <trkpt lon="100.986918" lat="12.905784">
                <ele>78.000000</ele>
                <time>2018-02-26T08:42:27.644Z</time>
            </trkpt>
            <trkpt lon="100.986874" lat="12.905797">
                <ele>77.800000</ele>
                <time>2018-02-26T08:42:28.644Z</time>
            </trkpt>
            <trkpt lon="100.986828" lat="12.905810">
                <ele>77.500000</ele>
                <time>2018-02-26T08:42:29.644Z</time>
            </trkpt>
            <trkpt lon="100.986784" lat="12.905820">
                <ele>77.500000</ele>
                <time>2018-02-26T08:42:30.644Z</time>
            </trkpt>
            <trkpt lon="100.986739" lat="12.905830">
                <ele>77.400000</ele>
                <time>2018-02-26T08:42:31.644Z</time>
            </trkpt>
            <trkpt lon="100.986695" lat="12.905841">
                <ele>77.200000</ele>
                <time>2018-02-26T08:42:32.644Z</time>
            </trkpt>
            <trkpt lon="100.986655" lat="12.905853">
                <ele>77.000000</ele>
                <time>2018-02-26T08:42:33.644Z</time>
            </trkpt>
            <trkpt lon="100.986614" lat="12.905866">
                <ele>77.000000</ele>
                <time>2018-02-26T08:42:34.644Z</time>
            </trkpt>
            <trkpt lon="100.986571" lat="12.905879">
                <ele>76.900000</ele>
                <time>2018-02-26T08:42:35.644Z</time>
            </trkpt>
            <trkpt lon="100.986529" lat="12.905891">
                <ele>76.800000</ele>
                <time>2018-02-26T08:42:36.644Z</time>
            </trkpt>
            <trkpt lon="100.986488" lat="12.905899">
                <ele>76.800000</ele>
                <time>2018-02-26T08:42:37.644Z</time>
            </trkpt>
            <trkpt lon="100.986446" lat="12.905907">
                <ele>76.900000</ele>
                <time>2018-02-26T08:42:38.644Z</time>
            </trkpt>
            <trkpt lon="100.986407" lat="12.905915">
                <ele>77.000000</ele>
                <time>2018-02-26T08:42:39.644Z</time>
            </trkpt>
            <trkpt lon="100.986372" lat="12.905923">
                <ele>77.000000</ele>
                <time>2018-02-26T08:42:40.644Z</time>
            </trkpt>
            <trkpt lon="100.986343" lat="12.905929">
                <ele>77.000000</ele>
                <time>2018-02-26T08:42:41.644Z</time>
            </trkpt>
            <trkpt lon="100.986306" lat="12.905934">
                <ele>77.000000</ele>
                <time>2018-02-26T08:42:43.644Z</time>
            </trkpt>
            <trkpt lon="100.986272" lat="12.905937">
                <ele>77.000000</ele>
                <time>2018-02-26T08:42:45.644Z</time>
            </trkpt>
            <trkpt lon="100.986238" lat="12.905921">
                <ele>77.100000</ele>
                <time>2018-02-26T08:42:47.644Z</time>
            </trkpt>
            <trkpt lon="100.986210" lat="12.905899">
                <ele>77.100000</ele>
                <time>2018-02-26T08:42:49.644Z</time>
            </trkpt>
            <trkpt lon="100.986177" lat="12.905854">
                <ele>77.200000</ele>
                <time>2018-02-26T08:42:51.644Z</time>
            </trkpt>
            <trkpt lon="100.986146" lat="12.905805">
                <ele>77.300000</ele>
                <time>2018-02-26T08:42:53.644Z</time>
            </trkpt>
            <trkpt lon="100.986129" lat="12.905782">
                <ele>77.300000</ele>
                <time>2018-02-26T08:42:54.644Z</time>
            </trkpt>
            <trkpt lon="100.986108" lat="12.905754">
                <ele>77.300000</ele>
                <time>2018-02-26T08:42:55.644Z</time>
            </trkpt>
            <trkpt lon="100.986088" lat="12.905723">
                <ele>77.400000</ele>
                <time>2018-02-26T08:42:56.644Z</time>
            </trkpt>
            <trkpt lon="100.986066" lat="12.905692">
                <ele>77.400000</ele>
                <time>2018-02-26T08:42:57.644Z</time>
            </trkpt>
            <trkpt lon="100.986046" lat="12.905663">
                <ele>77.400000</ele>
                <time>2018-02-26T08:42:58.644Z</time>
            </trkpt>
            <trkpt lon="100.986022" lat="12.905629">
                <ele>77.500000</ele>
                <time>2018-02-26T08:42:59.644Z</time>
            </trkpt>
            <trkpt lon="100.985998" lat="12.905597">
                <ele>77.500000</ele>
                <time>2018-02-26T08:43:00.644Z</time>
            </trkpt>
            <trkpt lon="100.985974" lat="12.905566">
                <ele>77.600000</ele>
                <time>2018-02-26T08:43:01.644Z</time>
            </trkpt>
            <trkpt lon="100.985950" lat="12.905536">
                <ele>77.600000</ele>
                <time>2018-02-26T08:43:02.644Z</time>
            </trkpt>
            <trkpt lon="100.985927" lat="12.905504">
                <ele>77.700000</ele>
                <time>2018-02-26T08:43:03.644Z</time>
            </trkpt>
            <trkpt lon="100.985903" lat="12.905473">
                <ele>77.700000</ele>
                <time>2018-02-26T08:43:04.644Z</time>
            </trkpt>
            <trkpt lon="100.985880" lat="12.905445">
                <ele>77.800000</ele>
                <time>2018-02-26T08:43:05.644Z</time>
            </trkpt>
            <trkpt lon="100.985861" lat="12.905415">
                <ele>77.800000</ele>
                <time>2018-02-26T08:43:06.644Z</time>
            </trkpt>
            <trkpt lon="100.985842" lat="12.905386">
                <ele>77.900000</ele>
                <time>2018-02-26T08:43:07.644Z</time>
            </trkpt>
            <trkpt lon="100.985826" lat="12.905354">
                <ele>78.000000</ele>
                <time>2018-02-26T08:43:08.644Z</time>
            </trkpt>
            <trkpt lon="100.985812" lat="12.905319">
                <ele>78.000000</ele>
                <time>2018-02-26T08:43:09.644Z</time>
            </trkpt>
            <trkpt lon="100.985801" lat="12.905287">
                <ele>78.100000</ele>
                <time>2018-02-26T08:43:10.644Z</time>
            </trkpt>
            <trkpt lon="100.985791" lat="12.905255">
                <ele>78.100000</ele>
                <time>2018-02-26T08:43:11.644Z</time>
            </trkpt>
            <trkpt lon="100.985785" lat="12.905222">
                <ele>78.100000</ele>
                <time>2018-02-26T08:43:12.644Z</time>
            </trkpt>
            <trkpt lon="100.985782" lat="12.905188">
                <ele>78.200000</ele>
                <time>2018-02-26T08:43:13.644Z</time>
            </trkpt>
            <trkpt lon="100.985777" lat="12.905152">
                <ele>78.200000</ele>
                <time>2018-02-26T08:43:14.644Z</time>
            </trkpt>
            <trkpt lon="100.985773" lat="12.905117">
                <ele>78.200000</ele>
                <time>2018-02-26T08:43:15.644Z</time>
            </trkpt>
            <trkpt lon="100.985772" lat="12.905078">
                <ele>78.300000</ele>
                <time>2018-02-26T08:43:16.644Z</time>
            </trkpt>
            <trkpt lon="100.985771" lat="12.905040">
                <ele>78.300000</ele>
                <time>2018-02-26T08:43:17.644Z</time>
            </trkpt>
            <trkpt lon="100.985773" lat="12.905002">
                <ele>78.300000</ele>
                <time>2018-02-26T08:43:18.644Z</time>
            </trkpt>
            <trkpt lon="100.985772" lat="12.904962">
                <ele>78.400000</ele>
                <time>2018-02-26T08:43:19.644Z</time>
            </trkpt>
            <trkpt lon="100.985774" lat="12.904928">
                <ele>78.400000</ele>
                <time>2018-02-26T08:43:20.644Z</time>
            </trkpt>
            <trkpt lon="100.985776" lat="12.904889">
                <ele>78.400000</ele>
                <time>2018-02-26T08:43:21.644Z</time>
            </trkpt>
            <trkpt lon="100.985779" lat="12.904853">
                <ele>78.500000</ele>
                <time>2018-02-26T08:43:22.644Z</time>
            </trkpt>
            <trkpt lon="100.985781" lat="12.904815">
                <ele>78.500000</ele>
                <time>2018-02-26T08:43:23.644Z</time>
            </trkpt>
            <trkpt lon="100.985778" lat="12.904774">
                <ele>78.600000</ele>
                <time>2018-02-26T08:43:24.644Z</time>
            </trkpt>
            <trkpt lon="100.985781" lat="12.904740">
                <ele>78.700000</ele>
                <time>2018-02-26T08:43:25.644Z</time>
            </trkpt>
            <trkpt lon="100.985785" lat="12.904705">
                <ele>78.700000</ele>
                <time>2018-02-26T08:43:26.644Z</time>
            </trkpt>
            <trkpt lon="100.985788" lat="12.904659">
                <ele>78.700000</ele>
                <time>2018-02-26T08:43:27.644Z</time>
            </trkpt>
            <trkpt lon="100.985802" lat="12.904602">
                <ele>78.800000</ele>
                <time>2018-02-26T08:43:29.644Z</time>
            </trkpt>
            <trkpt lon="100.985809" lat="12.904559">
                <ele>78.800000</ele>
                <time>2018-02-26T08:43:30.644Z</time>
            </trkpt>
            <trkpt lon="100.985817" lat="12.904529">
                <ele>78.900000</ele>
                <time>2018-02-26T08:43:31.644Z</time>
            </trkpt>
            <trkpt lon="100.985825" lat="12.904496">
                <ele>78.900000</ele>
                <time>2018-02-26T08:43:32.644Z</time>
            </trkpt>
            <trkpt lon="100.985833" lat="12.904458">
                <ele>79.000000</ele>
                <time>2018-02-26T08:43:33.644Z</time>
            </trkpt>
            <trkpt lon="100.985834" lat="12.904420">
                <ele>79.000000</ele>
                <time>2018-02-26T08:43:34.644Z</time>
            </trkpt>
            <trkpt lon="100.985819" lat="12.904370">
                <ele>79.100000</ele>
                <time>2018-02-26T08:43:35.644Z</time>
            </trkpt>
            <trkpt lon="100.985792" lat="12.904328">
                <ele>79.100000</ele>
                <time>2018-02-26T08:43:36.644Z</time>
            </trkpt>
            <trkpt lon="100.985760" lat="12.904303">
                <ele>79.100000</ele>
                <time>2018-02-26T08:43:37.644Z</time>
            </trkpt>
            <trkpt lon="100.985735" lat="12.904276">
                <ele>79.200000</ele>
                <time>2018-02-26T08:43:38.644Z</time>
            </trkpt>
            <trkpt lon="100.985726" lat="12.904242">
                <ele>79.200000</ele>
                <time>2018-02-26T08:43:39.644Z</time>
            </trkpt>
            <trkpt lon="100.985744" lat="12.904215">
                <ele>79.200000</ele>
                <time>2018-02-26T08:43:40.644Z</time>
            </trkpt>
            <trkpt lon="100.985772" lat="12.904201">
                <ele>79.200000</ele>
                <time>2018-02-26T08:43:41.644Z</time>
            </trkpt>
            <trkpt lon="100.985801" lat="12.904182">
                <ele>79.200000</ele>
                <time>2018-02-26T08:43:42.644Z</time>
            </trkpt>
            <trkpt lon="100.985829" lat="12.904158">
                <ele>79.200000</ele>
                <time>2018-02-26T08:43:43.644Z</time>
            </trkpt>
            <trkpt lon="100.985853" lat="12.904128">
                <ele>79.200000</ele>
                <time>2018-02-26T08:43:44.644Z</time>
            </trkpt>
            <trkpt lon="100.985873" lat="12.904092">
                <ele>79.200000</ele>
                <time>2018-02-26T08:43:45.644Z</time>
            </trkpt>
            <trkpt lon="100.985888" lat="12.904058">
                <ele>79.200000</ele>
                <time>2018-02-26T08:43:46.644Z</time>
            </trkpt>
            <trkpt lon="100.985898" lat="12.904023">
                <ele>79.100000</ele>
                <time>2018-02-26T08:43:47.644Z</time>
            </trkpt>
            <trkpt lon="100.985902" lat="12.903993">
                <ele>79.100000</ele>
                <time>2018-02-26T08:43:48.644Z</time>
            </trkpt>
            <trkpt lon="100.985905" lat="12.903947">
                <ele>79.100000</ele>
                <time>2018-02-26T08:43:50.644Z</time>
            </trkpt>
            <trkpt lon="100.985911" lat="12.903914">
                <ele>79.000000</ele>
                <time>2018-02-26T08:43:51.644Z</time>
            </trkpt>
            <trkpt lon="100.985916" lat="12.903877">
                <ele>79.000000</ele>
                <time>2018-02-26T08:43:52.644Z</time>
            </trkpt>
            <trkpt lon="100.985923" lat="12.903839">
                <ele>79.000000</ele>
                <time>2018-02-26T08:43:53.644Z</time>
            </trkpt>
            <trkpt lon="100.985930" lat="12.903799">
                <ele>78.900000</ele>
                <time>2018-02-26T08:43:54.644Z</time>
            </trkpt>
            <trkpt lon="100.985935" lat="12.903763">
                <ele>78.900000</ele>
                <time>2018-02-26T08:43:55.644Z</time>
            </trkpt>
            <trkpt lon="100.985934" lat="12.903729">
                <ele>78.800000</ele>
                <time>2018-02-26T08:43:56.644Z</time>
            </trkpt>
            <trkpt lon="100.985939" lat="12.903690">
                <ele>78.800000</ele>
                <time>2018-02-26T08:43:57.644Z</time>
            </trkpt>
            <trkpt lon="100.985947" lat="12.903646">
                <ele>78.700000</ele>
                <time>2018-02-26T08:43:58.644Z</time>
            </trkpt>
            <trkpt lon="100.985956" lat="12.903606">
                <ele>78.700000</ele>
                <time>2018-02-26T08:43:59.644Z</time>
            </trkpt>
            <trkpt lon="100.985964" lat="12.903567">
                <ele>78.600000</ele>
                <time>2018-02-26T08:44:00.644Z</time>
            </trkpt>
            <trkpt lon="100.985978" lat="12.903516">
                <ele>78.600000</ele>
                <time>2018-02-26T08:44:01.644Z</time>
            </trkpt>
            <trkpt lon="100.985988" lat="12.903479">
                <ele>78.500000</ele>
                <time>2018-02-26T08:44:02.644Z</time>
            </trkpt>
            <trkpt lon="100.985995" lat="12.903448">
                <ele>78.500000</ele>
                <time>2018-02-26T08:44:03.644Z</time>
            </trkpt>
            <trkpt lon="100.986005" lat="12.903421">
                <ele>78.400000</ele>
                <time>2018-02-26T08:44:04.644Z</time>
            </trkpt>
            <trkpt lon="100.986015" lat="12.903385">
                <ele>78.300000</ele>
                <time>2018-02-26T08:44:05.644Z</time>
            </trkpt>
            <trkpt lon="100.986029" lat="12.903359">
                <ele>78.200000</ele>
                <time>2018-02-26T08:44:06.644Z</time>
            </trkpt>
            <trkpt lon="100.986065" lat="12.903324">
                <ele>78.100000</ele>
                <time>2018-02-26T08:44:08.644Z</time>
            </trkpt>
            <trkpt lon="100.986068" lat="12.903287">
                <ele>78.000000</ele>
                <time>2018-02-26T08:44:09.644Z</time>
            </trkpt>
            <trkpt lon="100.986069" lat="12.903255">
                <ele>78.000000</ele>
                <time>2018-02-26T08:44:10.644Z</time>
            </trkpt>
            <trkpt lon="100.986056" lat="12.903220">
                <ele>77.900000</ele>
                <time>2018-02-26T08:44:12.644Z</time>
            </trkpt>
            <trkpt lon="100.986033" lat="12.903185">
                <ele>77.900000</ele>
                <time>2018-02-26T08:44:14.644Z</time>
            </trkpt>
            <trkpt lon="100.986012" lat="12.903143">
                <ele>77.800000</ele>
                <time>2018-02-26T08:44:16.644Z</time>
            </trkpt>
            <trkpt lon="100.986012" lat="12.903095">
                <ele>77.700000</ele>
                <time>2018-02-26T08:44:18.644Z</time>
            </trkpt>
            <trkpt lon="100.986023" lat="12.903045">
                <ele>77.700000</ele>
                <time>2018-02-26T08:44:20.644Z</time>
            </trkpt>
            <trkpt lon="100.986027" lat="12.903016">
                <ele>77.600000</ele>
                <time>2018-02-26T08:44:21.644Z</time>
            </trkpt>
            <trkpt lon="100.986032" lat="12.902986">
                <ele>77.600000</ele>
                <time>2018-02-26T08:44:22.644Z</time>
            </trkpt>
            <trkpt lon="100.986039" lat="12.902955">
                <ele>77.500000</ele>
                <time>2018-02-26T08:44:23.644Z</time>
            </trkpt>
            <trkpt lon="100.986047" lat="12.902918">
                <ele>77.500000</ele>
                <time>2018-02-26T08:44:24.644Z</time>
            </trkpt>
            <trkpt lon="100.986056" lat="12.902880">
                <ele>77.400000</ele>
                <time>2018-02-26T08:44:25.644Z</time>
            </trkpt>
            <trkpt lon="100.986066" lat="12.902842">
                <ele>77.400000</ele>
                <time>2018-02-26T08:44:26.644Z</time>
            </trkpt>
            <trkpt lon="100.986076" lat="12.902800">
                <ele>77.300000</ele>
                <time>2018-02-26T08:44:27.644Z</time>
            </trkpt>
            <trkpt lon="100.986087" lat="12.902760">
                <ele>77.200000</ele>
                <time>2018-02-26T08:44:28.644Z</time>
            </trkpt>
            <trkpt lon="100.986096" lat="12.902717">
                <ele>77.100000</ele>
                <time>2018-02-26T08:44:29.644Z</time>
            </trkpt>
            <trkpt lon="100.986104" lat="12.902672">
                <ele>77.100000</ele>
                <time>2018-02-26T08:44:30.644Z</time>
            </trkpt>
            <trkpt lon="100.986113" lat="12.902622">
                <ele>77.000000</ele>
                <time>2018-02-26T08:44:31.644Z</time>
            </trkpt>
            <trkpt lon="100.986121" lat="12.902570">
                <ele>76.900000</ele>
                <time>2018-02-26T08:44:32.644Z</time>
            </trkpt>
            <trkpt lon="100.986131" lat="12.902518">
                <ele>76.900000</ele>
                <time>2018-02-26T08:44:33.644Z</time>
            </trkpt>
            <trkpt lon="100.986140" lat="12.902466">
                <ele>76.800000</ele>
                <time>2018-02-26T08:44:34.644Z</time>
            </trkpt>
            <trkpt lon="100.986147" lat="12.902413">
                <ele>76.700000</ele>
                <time>2018-02-26T08:44:35.644Z</time>
            </trkpt>
            <trkpt lon="100.986155" lat="12.902364">
                <ele>76.600000</ele>
                <time>2018-02-26T08:44:36.644Z</time>
            </trkpt>
            <trkpt lon="100.986162" lat="12.902312">
                <ele>76.500000</ele>
                <time>2018-02-26T08:44:37.644Z</time>
            </trkpt>
            <trkpt lon="100.986166" lat="12.902260">
                <ele>76.400000</ele>
                <time>2018-02-26T08:44:38.644Z</time>
            </trkpt>
            <trkpt lon="100.986170" lat="12.902210">
                <ele>76.400000</ele>
                <time>2018-02-26T08:44:39.644Z</time>
            </trkpt>
            <trkpt lon="100.986173" lat="12.902158">
                <ele>76.300000</ele>
                <time>2018-02-26T08:44:40.644Z</time>
            </trkpt>
            <trkpt lon="100.986177" lat="12.902105">
                <ele>76.200000</ele>
                <time>2018-02-26T08:44:41.644Z</time>
            </trkpt>
            <trkpt lon="100.986181" lat="12.902050">
                <ele>76.200000</ele>
                <time>2018-02-26T08:44:42.644Z</time>
            </trkpt>
            <trkpt lon="100.986183" lat="12.901995">
                <ele>76.100000</ele>
                <time>2018-02-26T08:44:43.644Z</time>
            </trkpt>
            <trkpt lon="100.986186" lat="12.901942">
                <ele>76.100000</ele>
                <time>2018-02-26T08:44:44.644Z</time>
            </trkpt>
            <trkpt lon="100.986187" lat="12.901886">
                <ele>76.000000</ele>
                <time>2018-02-26T08:44:45.644Z</time>
            </trkpt>
            <trkpt lon="100.986189" lat="12.901833">
                <ele>76.000000</ele>
                <time>2018-02-26T08:44:46.644Z</time>
            </trkpt>
            <trkpt lon="100.986191" lat="12.901780">
                <ele>75.900000</ele>
                <time>2018-02-26T08:44:47.644Z</time>
            </trkpt>
            <trkpt lon="100.986194" lat="12.901728">
                <ele>75.900000</ele>
                <time>2018-02-26T08:44:48.644Z</time>
            </trkpt>
            <trkpt lon="100.986197" lat="12.901675">
                <ele>75.900000</ele>
                <time>2018-02-26T08:44:49.644Z</time>
            </trkpt>
            <trkpt lon="100.986200" lat="12.901622">
                <ele>75.900000</ele>
                <time>2018-02-26T08:44:50.644Z</time>
            </trkpt>
            <trkpt lon="100.986203" lat="12.901567">
                <ele>75.800000</ele>
                <time>2018-02-26T08:44:51.644Z</time>
            </trkpt>
            <trkpt lon="100.986208" lat="12.901513">
                <ele>75.800000</ele>
                <time>2018-02-26T08:44:52.644Z</time>
            </trkpt>
            <trkpt lon="100.986213" lat="12.901457">
                <ele>75.700000</ele>
                <time>2018-02-26T08:44:53.644Z</time>
            </trkpt>
            <trkpt lon="100.986221" lat="12.901405">
                <ele>75.700000</ele>
                <time>2018-02-26T08:44:54.644Z</time>
            </trkpt>
            <trkpt lon="100.986228" lat="12.901353">
                <ele>75.600000</ele>
                <time>2018-02-26T08:44:55.644Z</time>
            </trkpt>
            <trkpt lon="100.986233" lat="12.901302">
                <ele>75.500000</ele>
                <time>2018-02-26T08:44:56.644Z</time>
            </trkpt>
            <trkpt lon="100.986239" lat="12.901251">
                <ele>75.400000</ele>
                <time>2018-02-26T08:44:57.644Z</time>
            </trkpt>
            <trkpt lon="100.986244" lat="12.901203">
                <ele>75.300000</ele>
                <time>2018-02-26T08:44:58.644Z</time>
            </trkpt>
            <trkpt lon="100.986252" lat="12.901160">
                <ele>75.300000</ele>
                <time>2018-02-26T08:44:59.644Z</time>
            </trkpt>
            <trkpt lon="100.986261" lat="12.901117">
                <ele>75.200000</ele>
                <time>2018-02-26T08:45:00.644Z</time>
            </trkpt>
            <trkpt lon="100.986269" lat="12.901077">
                <ele>75.200000</ele>
                <time>2018-02-26T08:45:01.644Z</time>
            </trkpt>
            <trkpt lon="100.986276" lat="12.901035">
                <ele>75.100000</ele>
                <time>2018-02-26T08:45:02.644Z</time>
            </trkpt>
            <trkpt lon="100.986280" lat="12.900990">
                <ele>75.100000</ele>
                <time>2018-02-26T08:45:03.644Z</time>
            </trkpt>
            <trkpt lon="100.986284" lat="12.900945">
                <ele>75.100000</ele>
                <time>2018-02-26T08:45:04.644Z</time>
            </trkpt>
            <trkpt lon="100.986288" lat="12.900900">
                <ele>75.000000</ele>
                <time>2018-02-26T08:45:05.644Z</time>
            </trkpt>
            <trkpt lon="100.986293" lat="12.900854">
                <ele>75.000000</ele>
                <time>2018-02-26T08:45:06.644Z</time>
            </trkpt>
            <trkpt lon="100.986299" lat="12.900809">
                <ele>74.900000</ele>
                <time>2018-02-26T08:45:07.644Z</time>
            </trkpt>
            <trkpt lon="100.986304" lat="12.900766">
                <ele>74.900000</ele>
                <time>2018-02-26T08:45:08.644Z</time>
            </trkpt>
            <trkpt lon="100.986307" lat="12.900724">
                <ele>74.800000</ele>
                <time>2018-02-26T08:45:09.644Z</time>
            </trkpt>
            <trkpt lon="100.986311" lat="12.900681">
                <ele>74.700000</ele>
                <time>2018-02-26T08:45:10.644Z</time>
            </trkpt>
            <trkpt lon="100.986313" lat="12.900637">
                <ele>74.700000</ele>
                <time>2018-02-26T08:45:11.644Z</time>
            </trkpt>
            <trkpt lon="100.986317" lat="12.900595">
                <ele>74.600000</ele>
                <time>2018-02-26T08:45:12.644Z</time>
            </trkpt>
            <trkpt lon="100.986321" lat="12.900548">
                <ele>74.600000</ele>
                <time>2018-02-26T08:45:13.644Z</time>
            </trkpt>
            <trkpt lon="100.986325" lat="12.900502">
                <ele>74.500000</ele>
                <time>2018-02-26T08:45:14.644Z</time>
            </trkpt>
            <trkpt lon="100.986333" lat="12.900458">
                <ele>74.500000</ele>
                <time>2018-02-26T08:45:15.644Z</time>
            </trkpt>
            <trkpt lon="100.986338" lat="12.900412">
                <ele>74.400000</ele>
                <time>2018-02-26T08:45:16.644Z</time>
            </trkpt>
            <trkpt lon="100.986341" lat="12.900371">
                <ele>74.300000</ele>
                <time>2018-02-26T08:45:17.644Z</time>
            </trkpt>
            <trkpt lon="100.986344" lat="12.900333">
                <ele>74.300000</ele>
                <time>2018-02-26T08:45:18.644Z</time>
            </trkpt>
            <trkpt lon="100.986346" lat="12.900303">
                <ele>74.300000</ele>
                <time>2018-02-26T08:45:19.644Z</time>
            </trkpt>
            <trkpt lon="100.986350" lat="12.900253">
                <ele>74.200000</ele>
                <time>2018-02-26T08:45:21.644Z</time>
            </trkpt>
            <trkpt lon="100.986354" lat="12.900219">
                <ele>74.200000</ele>
                <time>2018-02-26T08:45:23.644Z</time>
            </trkpt>
            <trkpt lon="100.986369" lat="12.900241">
                <ele>74.100000</ele>
                <time>2018-02-26T08:45:55.644Z</time>
            </trkpt>
            <trkpt lon="100.986369" lat="12.900214">
                <ele>74.100000</ele>
                <time>2018-02-26T08:46:42.644Z</time>
            </trkpt>
            <trkpt lon="100.986369" lat="12.900186">
                <ele>74.000000</ele>
                <time>2018-02-26T08:46:59.644Z</time>
            </trkpt>
            <trkpt lon="100.986369" lat="12.900158">
                <ele>74.000000</ele>
                <time>2018-02-26T08:47:15.644Z</time>
            </trkpt>
            <trkpt lon="100.986342" lat="12.900146">
                <ele>74.000000</ele>
                <time>2018-02-26T08:47:20.644Z</time>
            </trkpt>
            <trkpt lon="100.986345" lat="12.900111">
                <ele>74.000000</ele>
                <time>2018-02-26T08:47:23.644Z</time>
            </trkpt>
            <trkpt lon="100.986384" lat="12.900089">
                <ele>74.000000</ele>
                <time>2018-02-26T08:47:24.644Z</time>
            </trkpt>
            <trkpt lon="100.986437" lat="12.900056">
                <ele>74.000000</ele>
                <time>2018-02-26T08:47:25.644Z</time>
            </trkpt>
            <trkpt lon="100.986483" lat="12.900029">
                <ele>73.900000</ele>
                <time>2018-02-26T08:47:26.644Z</time>
            </trkpt>
            <trkpt lon="100.986527" lat="12.899996">
                <ele>73.700000</ele>
                <time>2018-02-26T08:47:27.644Z</time>
            </trkpt>
            <trkpt lon="100.986565" lat="12.899967">
                <ele>73.600000</ele>
                <time>2018-02-26T08:47:28.644Z</time>
            </trkpt>
            <trkpt lon="100.986599" lat="12.899940">
                <ele>73.600000</ele>
                <time>2018-02-26T08:47:29.644Z</time>
            </trkpt>
            <trkpt lon="100.986633" lat="12.899920">
                <ele>73.500000</ele>
                <time>2018-02-26T08:47:30.644Z</time>
            </trkpt>
            <trkpt lon="100.986670" lat="12.899902">
                <ele>73.400000</ele>
                <time>2018-02-26T08:47:31.644Z</time>
            </trkpt>
            <trkpt lon="100.986713" lat="12.899881">
                <ele>73.400000</ele>
                <time>2018-02-26T08:47:32.644Z</time>
            </trkpt>
            <trkpt lon="100.986746" lat="12.899864">
                <ele>73.300000</ele>
                <time>2018-02-26T08:47:33.644Z</time>
            </trkpt>
            <trkpt lon="100.986785" lat="12.899856">
                <ele>73.300000</ele>
                <time>2018-02-26T08:47:34.644Z</time>
            </trkpt>
            <trkpt lon="100.986822" lat="12.899845">
                <ele>73.300000</ele>
                <time>2018-02-26T08:47:35.644Z</time>
            </trkpt>
            <trkpt lon="100.986864" lat="12.899834">
                <ele>73.200000</ele>
                <time>2018-02-26T08:47:36.644Z</time>
            </trkpt>
            <trkpt lon="100.986913" lat="12.899820">
                <ele>73.100000</ele>
                <time>2018-02-26T08:47:37.644Z</time>
            </trkpt>
            <trkpt lon="100.986968" lat="12.899806">
                <ele>73.000000</ele>
                <time>2018-02-26T08:47:38.644Z</time>
            </trkpt>
            <trkpt lon="100.987021" lat="12.899790">
                <ele>72.900000</ele>
                <time>2018-02-26T08:47:39.644Z</time>
            </trkpt>
            <trkpt lon="100.987078" lat="12.899773">
                <ele>72.800000</ele>
                <time>2018-02-26T08:47:40.644Z</time>
            </trkpt>
            <trkpt lon="100.987149" lat="12.899755">
                <ele>72.700000</ele>
                <time>2018-02-26T08:47:41.644Z</time>
            </trkpt>
            <trkpt lon="100.987218" lat="12.899738">
                <ele>72.600000</ele>
                <time>2018-02-26T08:47:42.644Z</time>
            </trkpt>
            <trkpt lon="100.987305" lat="12.899726">
                <ele>72.500000</ele>
                <time>2018-02-26T08:47:43.644Z</time>
            </trkpt>
            <trkpt lon="100.987389" lat="12.899731">
                <ele>72.300000</ele>
                <time>2018-02-26T08:47:44.644Z</time>
            </trkpt>
            <trkpt lon="100.987458" lat="12.899715">
                <ele>72.000000</ele>
                <time>2018-02-26T08:47:45.644Z</time>
            </trkpt>
            <trkpt lon="100.987527" lat="12.899693">
                <ele>71.600000</ele>
                <time>2018-02-26T08:47:46.644Z</time>
            </trkpt>
            <trkpt lon="100.987597" lat="12.899670">
                <ele>71.200000</ele>
                <time>2018-02-26T08:47:47.644Z</time>
            </trkpt>
            <trkpt lon="100.987671" lat="12.899647">
                <ele>70.800000</ele>
                <time>2018-02-26T08:47:48.644Z</time>
            </trkpt>
            <trkpt lon="100.987748" lat="12.899622">
                <ele>70.300000</ele>
                <time>2018-02-26T08:47:49.644Z</time>
            </trkpt>
            <trkpt lon="100.987837" lat="12.899596">
                <ele>69.700000</ele>
                <time>2018-02-26T08:47:50.644Z</time>
            </trkpt>
            <trkpt lon="100.987917" lat="12.899572">
                <ele>69.100000</ele>
                <time>2018-02-26T08:47:51.644Z</time>
            </trkpt>
            <trkpt lon="100.987997" lat="12.899545">
                <ele>68.600000</ele>
                <time>2018-02-26T08:47:52.644Z</time>
            </trkpt>
            <trkpt lon="100.988074" lat="12.899517">
                <ele>68.000000</ele>
                <time>2018-02-26T08:47:53.644Z</time>
            </trkpt>
            <trkpt lon="100.988147" lat="12.899493">
                <ele>67.500000</ele>
                <time>2018-02-26T08:47:54.644Z</time>
            </trkpt>
            <trkpt lon="100.988221" lat="12.899467">
                <ele>66.900000</ele>
                <time>2018-02-26T08:47:55.644Z</time>
            </trkpt>
            <trkpt lon="100.988287" lat="12.899434">
                <ele>66.400000</ele>
                <time>2018-02-26T08:47:56.644Z</time>
            </trkpt>
            <trkpt lon="100.988345" lat="12.899386">
                <ele>65.900000</ele>
                <time>2018-02-26T08:47:57.644Z</time>
            </trkpt>
            <trkpt lon="100.988398" lat="12.899338">
                <ele>65.500000</ele>
                <time>2018-02-26T08:47:58.644Z</time>
            </trkpt>
            <trkpt lon="100.988450" lat="12.899287">
                <ele>65.000000</ele>
                <time>2018-02-26T08:47:59.644Z</time>
            </trkpt>
            <trkpt lon="100.988500" lat="12.899238">
                <ele>64.700000</ele>
                <time>2018-02-26T08:48:00.644Z</time>
            </trkpt>
            <trkpt lon="100.988546" lat="12.899188">
                <ele>64.300000</ele>
                <time>2018-02-26T08:48:01.644Z</time>
            </trkpt>
            <trkpt lon="100.988588" lat="12.899135">
                <ele>64.000000</ele>
                <time>2018-02-26T08:48:02.644Z</time>
            </trkpt>
            <trkpt lon="100.988635" lat="12.899085">
                <ele>63.800000</ele>
                <time>2018-02-26T08:48:03.644Z</time>
            </trkpt>
            <trkpt lon="100.988682" lat="12.899040">
                <ele>63.500000</ele>
                <time>2018-02-26T08:48:04.644Z</time>
            </trkpt>
            <trkpt lon="100.988728" lat="12.898999">
                <ele>63.400000</ele>
                <time>2018-02-26T08:48:05.644Z</time>
            </trkpt>
            <trkpt lon="100.988778" lat="12.898959">
                <ele>63.300000</ele>
                <time>2018-02-26T08:48:06.644Z</time>
            </trkpt>
            <trkpt lon="100.988827" lat="12.898923">
                <ele>63.200000</ele>
                <time>2018-02-26T08:48:07.644Z</time>
            </trkpt>
            <trkpt lon="100.988881" lat="12.898892">
                <ele>63.100000</ele>
                <time>2018-02-26T08:48:08.644Z</time>
            </trkpt>
            <trkpt lon="100.988938" lat="12.898871">
                <ele>63.000000</ele>
                <time>2018-02-26T08:48:09.644Z</time>
            </trkpt>
            <trkpt lon="100.988995" lat="12.898862">
                <ele>63.000000</ele>
                <time>2018-02-26T08:48:10.644Z</time>
            </trkpt>
            <trkpt lon="100.989050" lat="12.898860">
                <ele>63.100000</ele>
                <time>2018-02-26T08:48:11.644Z</time>
            </trkpt>
            <trkpt lon="100.989104" lat="12.898862">
                <ele>63.100000</ele>
                <time>2018-02-26T08:48:12.644Z</time>
            </trkpt>
            <trkpt lon="100.989154" lat="12.898870">
                <ele>63.100000</ele>
                <time>2018-02-26T08:48:13.644Z</time>
            </trkpt>
            <trkpt lon="100.989201" lat="12.898880">
                <ele>63.100000</ele>
                <time>2018-02-26T08:48:14.644Z</time>
            </trkpt>
            <trkpt lon="100.989245" lat="12.898891">
                <ele>63.200000</ele>
                <time>2018-02-26T08:48:15.644Z</time>
            </trkpt>
            <trkpt lon="100.989286" lat="12.898902">
                <ele>63.200000</ele>
                <time>2018-02-26T08:48:16.644Z</time>
            </trkpt>
            <trkpt lon="100.989324" lat="12.898912">
                <ele>63.200000</ele>
                <time>2018-02-26T08:48:17.644Z</time>
            </trkpt>
            <trkpt lon="100.989359" lat="12.898927">
                <ele>63.200000</ele>
                <time>2018-02-26T08:48:18.644Z</time>
            </trkpt>
            <trkpt lon="100.989395" lat="12.898949">
                <ele>63.200000</ele>
                <time>2018-02-26T08:48:19.644Z</time>
            </trkpt>
            <trkpt lon="100.989427" lat="12.898972">
                <ele>63.300000</ele>
                <time>2018-02-26T08:48:20.644Z</time>
            </trkpt>
            <trkpt lon="100.989458" lat="12.899001">
                <ele>63.300000</ele>
                <time>2018-02-26T08:48:21.644Z</time>
            </trkpt>
            <trkpt lon="100.989493" lat="12.899030">
                <ele>63.300000</ele>
                <time>2018-02-26T08:48:22.644Z</time>
            </trkpt>
            <trkpt lon="100.989525" lat="12.899052">
                <ele>63.300000</ele>
                <time>2018-02-26T08:48:23.644Z</time>
            </trkpt>
            <trkpt lon="100.989555" lat="12.899071">
                <ele>63.300000</ele>
                <time>2018-02-26T08:48:24.644Z</time>
            </trkpt>
            <trkpt lon="100.989584" lat="12.899088">
                <ele>63.300000</ele>
                <time>2018-02-26T08:48:25.644Z</time>
            </trkpt>
            <trkpt lon="100.989619" lat="12.899108">
                <ele>63.400000</ele>
                <time>2018-02-26T08:48:26.644Z</time>
            </trkpt>
            <trkpt lon="100.989654" lat="12.899124">
                <ele>63.400000</ele>
                <time>2018-02-26T08:48:27.644Z</time>
            </trkpt>
            <trkpt lon="100.989692" lat="12.899138">
                <ele>63.400000</ele>
                <time>2018-02-26T08:48:28.644Z</time>
            </trkpt>
            <trkpt lon="100.989728" lat="12.899151">
                <ele>63.400000</ele>
                <time>2018-02-26T08:48:29.644Z</time>
            </trkpt>
            <trkpt lon="100.989766" lat="12.899165">
                <ele>63.400000</ele>
                <time>2018-02-26T08:48:30.644Z</time>
            </trkpt>
            <trkpt lon="100.989808" lat="12.899187">
                <ele>63.400000</ele>
                <time>2018-02-26T08:48:31.644Z</time>
            </trkpt>
            <trkpt lon="100.989849" lat="12.899212">
                <ele>63.500000</ele>
                <time>2018-02-26T08:48:32.644Z</time>
            </trkpt>
            <trkpt lon="100.989889" lat="12.899232">
                <ele>63.500000</ele>
                <time>2018-02-26T08:48:33.644Z</time>
            </trkpt>
            <trkpt lon="100.989927" lat="12.899253">
                <ele>63.500000</ele>
                <time>2018-02-26T08:48:34.644Z</time>
            </trkpt>
            <trkpt lon="100.989965" lat="12.899270">
                <ele>63.500000</ele>
                <time>2018-02-26T08:48:35.644Z</time>
            </trkpt>
            <trkpt lon="100.990001" lat="12.899287">
                <ele>63.500000</ele>
                <time>2018-02-26T08:48:36.644Z</time>
            </trkpt>
            <trkpt lon="100.990038" lat="12.899305">
                <ele>63.500000</ele>
                <time>2018-02-26T08:48:37.644Z</time>
            </trkpt>
            <trkpt lon="100.990075" lat="12.899325">
                <ele>63.500000</ele>
                <time>2018-02-26T08:48:38.644Z</time>
            </trkpt>
            <trkpt lon="100.990113" lat="12.899347">
                <ele>63.600000</ele>
                <time>2018-02-26T08:48:39.644Z</time>
            </trkpt>
            <trkpt lon="100.990147" lat="12.899373">
                <ele>63.600000</ele>
                <time>2018-02-26T08:48:40.644Z</time>
            </trkpt>
            <trkpt lon="100.990182" lat="12.899399">
                <ele>63.600000</ele>
                <time>2018-02-26T08:48:41.644Z</time>
            </trkpt>
            <trkpt lon="100.990223" lat="12.899428">
                <ele>63.600000</ele>
                <time>2018-02-26T08:48:42.644Z</time>
            </trkpt>
            <trkpt lon="100.990268" lat="12.899457">
                <ele>63.600000</ele>
                <time>2018-02-26T08:48:43.644Z</time>
            </trkpt>
            <trkpt lon="100.990312" lat="12.899482">
                <ele>63.700000</ele>
                <time>2018-02-26T08:48:44.644Z</time>
            </trkpt>
            <trkpt lon="100.990356" lat="12.899506">
                <ele>63.700000</ele>
                <time>2018-02-26T08:48:45.644Z</time>
            </trkpt>
            <trkpt lon="100.990403" lat="12.899532">
                <ele>63.700000</ele>
                <time>2018-02-26T08:48:46.644Z</time>
            </trkpt>
            <trkpt lon="100.990443" lat="12.899550">
                <ele>63.800000</ele>
                <time>2018-02-26T08:48:47.644Z</time>
            </trkpt>
            <trkpt lon="100.990487" lat="12.899558">
                <ele>63.900000</ele>
                <time>2018-02-26T08:48:48.644Z</time>
            </trkpt>
            <trkpt lon="100.990530" lat="12.899560">
                <ele>64.000000</ele>
                <time>2018-02-26T08:48:49.644Z</time>
            </trkpt>
            <trkpt lon="100.990579" lat="12.899559">
                <ele>64.100000</ele>
                <time>2018-02-26T08:48:50.644Z</time>
            </trkpt>
            <trkpt lon="100.990626" lat="12.899558">
                <ele>64.100000</ele>
                <time>2018-02-26T08:48:51.644Z</time>
            </trkpt>
            <trkpt lon="100.990679" lat="12.899555">
                <ele>64.300000</ele>
                <time>2018-02-26T08:48:52.644Z</time>
            </trkpt>
            <trkpt lon="100.990734" lat="12.899554">
                <ele>64.500000</ele>
                <time>2018-02-26T08:48:53.644Z</time>
            </trkpt>
            <trkpt lon="100.990784" lat="12.899553">
                <ele>64.800000</ele>
                <time>2018-02-26T08:48:54.644Z</time>
            </trkpt>
            <trkpt lon="100.990835" lat="12.899552">
                <ele>65.200000</ele>
                <time>2018-02-26T08:48:55.644Z</time>
            </trkpt>
            <trkpt lon="100.990886" lat="12.899550">
                <ele>65.500000</ele>
                <time>2018-02-26T08:48:56.644Z</time>
            </trkpt>
            <trkpt lon="100.990935" lat="12.899544">
                <ele>65.800000</ele>
                <time>2018-02-26T08:48:57.644Z</time>
            </trkpt>
            <trkpt lon="100.990983" lat="12.899541">
                <ele>66.100000</ele>
                <time>2018-02-26T08:48:58.644Z</time>
            </trkpt>
            <trkpt lon="100.991024" lat="12.899541">
                <ele>66.300000</ele>
                <time>2018-02-26T08:48:59.644Z</time>
            </trkpt>
            <trkpt lon="100.991058" lat="12.899541">
                <ele>66.400000</ele>
                <time>2018-02-26T08:49:00.644Z</time>
            </trkpt>
            <trkpt lon="100.991085" lat="12.899534">
                <ele>66.500000</ele>
                <time>2018-02-26T08:49:01.644Z</time>
            </trkpt>
            <trkpt lon="100.991115" lat="12.899527">
                <ele>66.600000</ele>
                <time>2018-02-26T08:49:02.644Z</time>
            </trkpt>
            <trkpt lon="100.991169" lat="12.899521">
                <ele>66.700000</ele>
                <time>2018-02-26T08:49:04.644Z</time>
            </trkpt>
            <trkpt lon="100.991225" lat="12.899513">
                <ele>66.700000</ele>
                <time>2018-02-26T08:49:06.644Z</time>
            </trkpt>
            <trkpt lon="100.991253" lat="12.899510">
                <ele>66.800000</ele>
                <time>2018-02-26T08:49:07.644Z</time>
            </trkpt>
            <trkpt lon="100.991306" lat="12.899506">
                <ele>66.800000</ele>
                <time>2018-02-26T08:49:09.644Z</time>
            </trkpt>
            <trkpt lon="100.991356" lat="12.899502">
                <ele>66.900000</ele>
                <time>2018-02-26T08:49:11.644Z</time>
            </trkpt>
            <trkpt lon="100.991385" lat="12.899498">
                <ele>66.900000</ele>
                <time>2018-02-26T08:49:12.644Z</time>
            </trkpt>
            <trkpt lon="100.991432" lat="12.899492">
                <ele>66.900000</ele>
                <time>2018-02-26T08:49:14.644Z</time>
            </trkpt>
            <trkpt lon="100.991468" lat="12.899486">
                <ele>66.900000</ele>
                <time>2018-02-26T08:49:25.644Z</time>
            </trkpt>
            <trkpt lon="100.991506" lat="12.899465">
                <ele>67.000000</ele>
                <time>2018-02-26T08:49:27.644Z</time>
            </trkpt>
            <trkpt lon="100.991546" lat="12.899446">
                <ele>67.000000</ele>
                <time>2018-02-26T08:49:29.644Z</time>
            </trkpt>
            <trkpt lon="100.991572" lat="12.899434">
                <ele>67.000000</ele>
                <time>2018-02-26T08:49:30.644Z</time>
            </trkpt>
            <trkpt lon="100.991602" lat="12.899421">
                <ele>67.100000</ele>
                <time>2018-02-26T08:49:31.644Z</time>
            </trkpt>
            <trkpt lon="100.991653" lat="12.899398">
                <ele>67.100000</ele>
                <time>2018-02-26T08:49:33.644Z</time>
            </trkpt>
            <trkpt lon="100.991680" lat="12.899382">
                <ele>67.100000</ele>
                <time>2018-02-26T08:49:34.644Z</time>
            </trkpt>
            <trkpt lon="100.991729" lat="12.899354">
                <ele>67.200000</ele>
                <time>2018-02-26T08:49:36.644Z</time>
            </trkpt>
            <trkpt lon="100.991777" lat="12.899329">
                <ele>67.200000</ele>
                <time>2018-02-26T08:49:38.644Z</time>
            </trkpt>
            <trkpt lon="100.991827" lat="12.899307">
                <ele>67.300000</ele>
                <time>2018-02-26T08:49:40.644Z</time>
            </trkpt>
            <trkpt lon="100.991857" lat="12.899298">
                <ele>67.300000</ele>
                <time>2018-02-26T08:49:41.644Z</time>
            </trkpt>
            <trkpt lon="100.991888" lat="12.899277">
                <ele>67.300000</ele>
                <time>2018-02-26T08:49:42.644Z</time>
            </trkpt>
            <trkpt lon="100.991914" lat="12.899258">
                <ele>67.300000</ele>
                <time>2018-02-26T08:49:43.644Z</time>
            </trkpt>
            <trkpt lon="100.991955" lat="12.899221">
                <ele>67.400000</ele>
                <time>2018-02-26T08:49:45.644Z</time>
            </trkpt>
            <trkpt lon="100.991995" lat="12.899195">
                <ele>67.400000</ele>
                <time>2018-02-26T08:49:47.644Z</time>
            </trkpt>
            <trkpt lon="100.992015" lat="12.899174">
                <ele>67.500000</ele>
                <time>2018-02-26T08:49:48.644Z</time>
            </trkpt>
            <trkpt lon="100.992046" lat="12.899137">
                <ele>67.500000</ele>
                <time>2018-02-26T08:49:50.644Z</time>
            </trkpt>
            <trkpt lon="100.992063" lat="12.899113">
                <ele>67.600000</ele>
                <time>2018-02-26T08:49:51.644Z</time>
            </trkpt>
            <trkpt lon="100.992082" lat="12.899085">
                <ele>67.600000</ele>
                <time>2018-02-26T08:49:52.644Z</time>
            </trkpt>
            <trkpt lon="100.992097" lat="12.899059">
                <ele>67.600000</ele>
                <time>2018-02-26T08:49:53.644Z</time>
            </trkpt>
            <trkpt lon="100.992117" lat="12.899007">
                <ele>67.700000</ele>
                <time>2018-02-26T08:49:55.644Z</time>
            </trkpt>
            <trkpt lon="100.992127" lat="12.898980">
                <ele>67.800000</ele>
                <time>2018-02-26T08:49:56.644Z</time>
            </trkpt>
            <trkpt lon="100.992140" lat="12.898955">
                <ele>67.800000</ele>
                <time>2018-02-26T08:49:57.644Z</time>
            </trkpt>
            <trkpt lon="100.992158" lat="12.898905">
                <ele>67.900000</ele>
                <time>2018-02-26T08:49:59.644Z</time>
            </trkpt>
            <trkpt lon="100.992172" lat="12.898875">
                <ele>67.900000</ele>
                <time>2018-02-26T08:50:00.644Z</time>
            </trkpt>
            <trkpt lon="100.992186" lat="12.898843">
                <ele>68.000000</ele>
                <time>2018-02-26T08:50:01.644Z</time>
            </trkpt>
            <trkpt lon="100.992205" lat="12.898813">
                <ele>68.100000</ele>
                <time>2018-02-26T08:50:02.644Z</time>
            </trkpt>
            <trkpt lon="100.992228" lat="12.898787">
                <ele>68.200000</ele>
                <time>2018-02-26T08:50:03.644Z</time>
            </trkpt>
            <trkpt lon="100.992248" lat="12.898765">
                <ele>68.300000</ele>
                <time>2018-02-26T08:50:04.644Z</time>
            </trkpt>
            <trkpt lon="100.992272" lat="12.898750">
                <ele>68.400000</ele>
                <time>2018-02-26T08:50:05.644Z</time>
            </trkpt>
            <trkpt lon="100.992300" lat="12.898742">
                <ele>68.500000</ele>
                <time>2018-02-26T08:50:06.644Z</time>
            </trkpt>
            <trkpt lon="100.992328" lat="12.898734">
                <ele>68.600000</ele>
                <time>2018-02-26T08:50:07.644Z</time>
            </trkpt>
            <trkpt lon="100.992358" lat="12.898726">
                <ele>68.700000</ele>
                <time>2018-02-26T08:50:08.644Z</time>
            </trkpt>
            <trkpt lon="100.992394" lat="12.898724">
                <ele>68.900000</ele>
                <time>2018-02-26T08:50:09.644Z</time>
            </trkpt>
            <trkpt lon="100.992429" lat="12.898723">
                <ele>69.100000</ele>
                <time>2018-02-26T08:50:10.644Z</time>
            </trkpt>
            <trkpt lon="100.992463" lat="12.898722">
                <ele>69.300000</ele>
                <time>2018-02-26T08:50:11.644Z</time>
            </trkpt>
            <trkpt lon="100.992500" lat="12.898719">
                <ele>69.600000</ele>
                <time>2018-02-26T08:50:12.644Z</time>
            </trkpt>
            <trkpt lon="100.992536" lat="12.898718">
                <ele>69.800000</ele>
                <time>2018-02-26T08:50:13.644Z</time>
            </trkpt>
            <trkpt lon="100.992571" lat="12.898718">
                <ele>70.000000</ele>
                <time>2018-02-26T08:50:14.644Z</time>
            </trkpt>
            <trkpt lon="100.992606" lat="12.898715">
                <ele>70.200000</ele>
                <time>2018-02-26T08:50:15.644Z</time>
            </trkpt>
            <trkpt lon="100.992641" lat="12.898713">
                <ele>70.300000</ele>
                <time>2018-02-26T08:50:16.644Z</time>
            </trkpt>
            <trkpt lon="100.992678" lat="12.898712">
                <ele>70.400000</ele>
                <time>2018-02-26T08:50:17.644Z</time>
            </trkpt>
            <trkpt lon="100.992717" lat="12.898710">
                <ele>70.500000</ele>
                <time>2018-02-26T08:50:18.644Z</time>
            </trkpt>
            <trkpt lon="100.992758" lat="12.898709">
                <ele>70.600000</ele>
                <time>2018-02-26T08:50:19.644Z</time>
            </trkpt>
            <trkpt lon="100.992799" lat="12.898708">
                <ele>70.600000</ele>
                <time>2018-02-26T08:50:20.644Z</time>
            </trkpt>
            <trkpt lon="100.992841" lat="12.898708">
                <ele>70.600000</ele>
                <time>2018-02-26T08:50:21.644Z</time>
            </trkpt>
            <trkpt lon="100.992884" lat="12.898708">
                <ele>70.700000</ele>
                <time>2018-02-26T08:50:22.644Z</time>
            </trkpt>
            <trkpt lon="100.992927" lat="12.898707">
                <ele>70.700000</ele>
                <time>2018-02-26T08:50:23.644Z</time>
            </trkpt>
            <trkpt lon="100.992971" lat="12.898709">
                <ele>70.800000</ele>
                <time>2018-02-26T08:50:24.644Z</time>
            </trkpt>
            <trkpt lon="100.993016" lat="12.898714">
                <ele>70.800000</ele>
                <time>2018-02-26T08:50:25.644Z</time>
            </trkpt>
            <trkpt lon="100.993059" lat="12.898719">
                <ele>70.900000</ele>
                <time>2018-02-26T08:50:26.644Z</time>
            </trkpt>
            <trkpt lon="100.993104" lat="12.898722">
                <ele>70.900000</ele>
                <time>2018-02-26T08:50:27.644Z</time>
            </trkpt>
            <trkpt lon="100.993146" lat="12.898722">
                <ele>71.000000</ele>
                <time>2018-02-26T08:50:28.644Z</time>
            </trkpt>
            <trkpt lon="100.993186" lat="12.898722">
                <ele>71.000000</ele>
                <time>2018-02-26T08:50:29.644Z</time>
            </trkpt>
            <trkpt lon="100.993222" lat="12.898721">
                <ele>71.100000</ele>
                <time>2018-02-26T08:50:30.644Z</time>
            </trkpt>
            <trkpt lon="100.993258" lat="12.898722">
                <ele>71.100000</ele>
                <time>2018-02-26T08:50:31.644Z</time>
            </trkpt>
            <trkpt lon="100.993291" lat="12.898720">
                <ele>71.100000</ele>
                <time>2018-02-26T08:50:32.644Z</time>
            </trkpt>
            <trkpt lon="100.993322" lat="12.898706">
                <ele>71.200000</ele>
                <time>2018-02-26T08:50:33.644Z</time>
            </trkpt>
            <trkpt lon="100.993359" lat="12.898692">
                <ele>71.200000</ele>
                <time>2018-02-26T08:50:34.644Z</time>
            </trkpt>
            <trkpt lon="100.993398" lat="12.898685">
                <ele>71.200000</ele>
                <time>2018-02-26T08:50:35.644Z</time>
            </trkpt>
            <trkpt lon="100.993434" lat="12.898679">
                <ele>71.200000</ele>
                <time>2018-02-26T08:50:36.644Z</time>
            </trkpt>
            <trkpt lon="100.993468" lat="12.898670">
                <ele>71.300000</ele>
                <time>2018-02-26T08:50:37.644Z</time>
            </trkpt>
            <trkpt lon="100.993503" lat="12.898651">
                <ele>71.300000</ele>
                <time>2018-02-26T08:50:38.644Z</time>
            </trkpt>
            <trkpt lon="100.993536" lat="12.898632">
                <ele>71.300000</ele>
                <time>2018-02-26T08:50:39.644Z</time>
            </trkpt>
            <trkpt lon="100.993570" lat="12.898623">
                <ele>71.300000</ele>
                <time>2018-02-26T08:50:40.644Z</time>
            </trkpt>
            <trkpt lon="100.993608" lat="12.898612">
                <ele>71.400000</ele>
                <time>2018-02-26T08:50:41.644Z</time>
            </trkpt>
            <trkpt lon="100.993646" lat="12.898600">
                <ele>71.400000</ele>
                <time>2018-02-26T08:50:42.644Z</time>
            </trkpt>
            <trkpt lon="100.993685" lat="12.898587">
                <ele>71.400000</ele>
                <time>2018-02-26T08:50:43.644Z</time>
            </trkpt>
            <trkpt lon="100.993720" lat="12.898576">
                <ele>71.500000</ele>
                <time>2018-02-26T08:50:44.644Z</time>
            </trkpt>
            <trkpt lon="100.993757" lat="12.898570">
                <ele>71.500000</ele>
                <time>2018-02-26T08:50:45.644Z</time>
            </trkpt>
            <trkpt lon="100.993798" lat="12.898560">
                <ele>71.600000</ele>
                <time>2018-02-26T08:50:46.644Z</time>
            </trkpt>
            <trkpt lon="100.993837" lat="12.898548">
                <ele>71.600000</ele>
                <time>2018-02-26T08:50:47.644Z</time>
            </trkpt>
            <trkpt lon="100.993871" lat="12.898538">
                <ele>71.600000</ele>
                <time>2018-02-26T08:50:48.644Z</time>
            </trkpt>
            <trkpt lon="100.993908" lat="12.898527">
                <ele>71.700000</ele>
                <time>2018-02-26T08:50:49.644Z</time>
            </trkpt>
            <trkpt lon="100.993947" lat="12.898517">
                <ele>71.700000</ele>
                <time>2018-02-26T08:50:50.644Z</time>
            </trkpt>
            <trkpt lon="100.993986" lat="12.898506">
                <ele>71.700000</ele>
                <time>2018-02-26T08:50:51.644Z</time>
            </trkpt>
            <trkpt lon="100.994024" lat="12.898495">
                <ele>71.700000</ele>
                <time>2018-02-26T08:50:52.644Z</time>
            </trkpt>
            <trkpt lon="100.994062" lat="12.898484">
                <ele>71.800000</ele>
                <time>2018-02-26T08:50:53.644Z</time>
            </trkpt>
            <trkpt lon="100.994101" lat="12.898474">
                <ele>71.800000</ele>
                <time>2018-02-26T08:50:54.644Z</time>
            </trkpt>
            <trkpt lon="100.994142" lat="12.898464">
                <ele>71.900000</ele>
                <time>2018-02-26T08:50:55.644Z</time>
            </trkpt>
            <trkpt lon="100.994181" lat="12.898452">
                <ele>72.000000</ele>
                <time>2018-02-26T08:50:56.644Z</time>
            </trkpt>
            <trkpt lon="100.994220" lat="12.898441">
                <ele>72.000000</ele>
                <time>2018-02-26T08:50:57.644Z</time>
            </trkpt>
            <trkpt lon="100.994258" lat="12.898431">
                <ele>72.100000</ele>
                <time>2018-02-26T08:50:58.644Z</time>
            </trkpt>
            <trkpt lon="100.994290" lat="12.898420">
                <ele>72.100000</ele>
                <time>2018-02-26T08:50:59.644Z</time>
            </trkpt>
            <trkpt lon="100.994324" lat="12.898411">
                <ele>72.200000</ele>
                <time>2018-02-26T08:51:00.644Z</time>
            </trkpt>
            <trkpt lon="100.994360" lat="12.898403">
                <ele>72.200000</ele>
                <time>2018-02-26T08:51:01.644Z</time>
            </trkpt>
            <trkpt lon="100.994398" lat="12.898394">
                <ele>72.300000</ele>
                <time>2018-02-26T08:51:02.644Z</time>
            </trkpt>
            <trkpt lon="100.994436" lat="12.898387">
                <ele>72.400000</ele>
                <time>2018-02-26T08:51:03.644Z</time>
            </trkpt>
            <trkpt lon="100.994471" lat="12.898381">
                <ele>72.400000</ele>
                <time>2018-02-26T08:51:04.644Z</time>
            </trkpt>
            <trkpt lon="100.994504" lat="12.898377">
                <ele>72.500000</ele>
                <time>2018-02-26T08:51:05.644Z</time>
            </trkpt>
            <trkpt lon="100.994538" lat="12.898371">
                <ele>72.500000</ele>
                <time>2018-02-26T08:51:06.644Z</time>
            </trkpt>
            <trkpt lon="100.994569" lat="12.898366">
                <ele>72.600000</ele>
                <time>2018-02-26T08:51:07.644Z</time>
            </trkpt>
            <trkpt lon="100.994601" lat="12.898361">
                <ele>72.600000</ele>
                <time>2018-02-26T08:51:08.644Z</time>
            </trkpt>
            <trkpt lon="100.994630" lat="12.898356">
                <ele>72.700000</ele>
                <time>2018-02-26T08:51:09.644Z</time>
            </trkpt>
            <trkpt lon="100.994679" lat="12.898338">
                <ele>72.700000</ele>
                <time>2018-02-26T08:51:11.644Z</time>
            </trkpt>
            <trkpt lon="100.994713" lat="12.898326">
                <ele>72.700000</ele>
                <time>2018-02-26T08:51:13.644Z</time>
            </trkpt>
            <trkpt lon="100.994752" lat="12.898316">
                <ele>72.800000</ele>
                <time>2018-02-26T08:51:15.644Z</time>
            </trkpt>
            <trkpt lon="100.994791" lat="12.898291">
                <ele>72.800000</ele>
                <time>2018-02-26T08:51:17.644Z</time>
            </trkpt>
            <trkpt lon="100.994838" lat="12.898272">
                <ele>72.900000</ele>
                <time>2018-02-26T08:51:19.644Z</time>
            </trkpt>
            <trkpt lon="100.994864" lat="12.898261">
                <ele>72.900000</ele>
                <time>2018-02-26T08:51:20.644Z</time>
            </trkpt>
            <trkpt lon="100.994890" lat="12.898250">
                <ele>72.900000</ele>
                <time>2018-02-26T08:51:21.644Z</time>
            </trkpt>
            <trkpt lon="100.994920" lat="12.898234">
                <ele>73.000000</ele>
                <time>2018-02-26T08:51:22.644Z</time>
            </trkpt>
            <trkpt lon="100.994978" lat="12.898216">
                <ele>73.000000</ele>
                <time>2018-02-26T08:51:24.644Z</time>
            </trkpt>
            <trkpt lon="100.995030" lat="12.898203">
                <ele>73.000000</ele>
                <time>2018-02-26T08:51:26.644Z</time>
            </trkpt>
            <trkpt lon="100.995089" lat="12.898178">
                <ele>73.000000</ele>
                <time>2018-02-26T08:51:28.644Z</time>
            </trkpt>
            <trkpt lon="100.995119" lat="12.898149">
                <ele>73.000000</ele>
                <time>2018-02-26T08:51:30.644Z</time>
            </trkpt>
            <trkpt lon="100.995148" lat="12.898120">
                <ele>73.000000</ele>
                <time>2018-02-26T08:51:32.644Z</time>
            </trkpt>
            <trkpt lon="100.995183" lat="12.898100">
                <ele>73.000000</ele>
                <time>2018-02-26T08:51:34.644Z</time>
            </trkpt>
            <trkpt lon="100.995218" lat="12.898068">
                <ele>72.900000</ele>
                <time>2018-02-26T08:51:36.644Z</time>
            </trkpt>
            <trkpt lon="100.995232" lat="12.898044">
                <ele>72.900000</ele>
                <time>2018-02-26T08:51:37.644Z</time>
            </trkpt>
            <trkpt lon="100.995246" lat="12.898020">
                <ele>72.900000</ele>
                <time>2018-02-26T08:51:38.644Z</time>
            </trkpt>
            <trkpt lon="100.995277" lat="12.897987">
                <ele>72.900000</ele>
                <time>2018-02-26T08:51:39.644Z</time>
            </trkpt>
            <trkpt lon="100.995304" lat="12.897958">
                <ele>72.900000</ele>
                <time>2018-02-26T08:51:41.644Z</time>
            </trkpt>
            <trkpt lon="100.995343" lat="12.897936">
                <ele>72.900000</ele>
                <time>2018-02-26T08:51:43.644Z</time>
            </trkpt>
            <trkpt lon="100.995375" lat="12.897920">
                <ele>72.900000</ele>
                <time>2018-02-26T08:51:45.644Z</time>
            </trkpt>
            <trkpt lon="100.995424" lat="12.897901">
                <ele>72.900000</ele>
                <time>2018-02-26T08:51:47.644Z</time>
            </trkpt>
            <trkpt lon="100.995459" lat="12.897882">
                <ele>72.900000</ele>
                <time>2018-02-26T08:51:48.644Z</time>
            </trkpt>
            <trkpt lon="100.995488" lat="12.897863">
                <ele>72.900000</ele>
                <time>2018-02-26T08:51:49.644Z</time>
            </trkpt>
            <trkpt lon="100.995517" lat="12.897856">
                <ele>72.900000</ele>
                <time>2018-02-26T08:51:50.644Z</time>
            </trkpt>
            <trkpt lon="100.995544" lat="12.897849">
                <ele>72.900000</ele>
                <time>2018-02-26T08:51:51.644Z</time>
            </trkpt>
            <trkpt lon="100.995573" lat="12.897851">
                <ele>72.900000</ele>
                <time>2018-02-26T08:51:52.644Z</time>
            </trkpt>
            <trkpt lon="100.995605" lat="12.897854">
                <ele>72.900000</ele>
                <time>2018-02-26T08:51:53.644Z</time>
            </trkpt>
            <trkpt lon="100.995637" lat="12.897859">
                <ele>72.900000</ele>
                <time>2018-02-26T08:51:54.644Z</time>
            </trkpt>
            <trkpt lon="100.995669" lat="12.897863">
                <ele>72.900000</ele>
                <time>2018-02-26T08:51:55.644Z</time>
            </trkpt>
            <trkpt lon="100.995631" lat="12.897852">
                <ele>72.900000</ele>
                <time>2018-02-26T08:52:01.644Z</time>
            </trkpt>
            <trkpt lon="100.995578" lat="12.897845">
                <ele>72.900000</ele>
                <time>2018-02-26T08:52:03.644Z</time>
            </trkpt>
            <trkpt lon="100.995545" lat="12.897841">
                <ele>72.900000</ele>
                <time>2018-02-26T08:52:04.644Z</time>
            </trkpt>
            <trkpt lon="100.995505" lat="12.897840">
                <ele>72.900000</ele>
                <time>2018-02-26T08:52:05.644Z</time>
            </trkpt>
            <trkpt lon="100.995471" lat="12.897845">
                <ele>72.900000</ele>
                <time>2018-02-26T08:52:06.644Z</time>
            </trkpt>
            <trkpt lon="100.995437" lat="12.897855">
                <ele>72.900000</ele>
                <time>2018-02-26T08:52:07.644Z</time>
            </trkpt>
            <trkpt lon="100.995409" lat="12.897866">
                <ele>72.900000</ele>
                <time>2018-02-26T08:52:08.644Z</time>
            </trkpt>
            <trkpt lon="100.995384" lat="12.897880">
                <ele>72.900000</ele>
                <time>2018-02-26T08:52:09.644Z</time>
            </trkpt>
            <trkpt lon="100.995356" lat="12.897872">
                <ele>72.900000</ele>
                <time>2018-02-26T08:52:11.644Z</time>
            </trkpt>
            <trkpt lon="100.995377" lat="12.897840">
                <ele>72.900000</ele>
                <time>2018-02-26T08:52:13.644Z</time>
            </trkpt>
            <trkpt lon="100.995400" lat="12.897809">
                <ele>72.900000</ele>
                <time>2018-02-26T08:52:15.644Z</time>
            </trkpt>
            <trkpt lon="100.995420" lat="12.897788">
                <ele>72.900000</ele>
                <time>2018-02-26T08:52:17.644Z</time>
            </trkpt>
            <trkpt lon="100.995451" lat="12.897764">
                <ele>72.900000</ele>
                <time>2018-02-26T08:52:29.644Z</time>
            </trkpt>
            <trkpt lon="100.995470" lat="12.897740">
                <ele>72.900000</ele>
                <time>2018-02-26T08:52:30.644Z</time>
            </trkpt>
            <trkpt lon="100.995486" lat="12.897717">
                <ele>72.900000</ele>
                <time>2018-02-26T08:52:31.644Z</time>
            </trkpt>
            <trkpt lon="100.995504" lat="12.897695">
                <ele>72.900000</ele>
                <time>2018-02-26T08:52:32.644Z</time>
            </trkpt>
            <trkpt lon="100.995525" lat="12.897668">
                <ele>72.900000</ele>
                <time>2018-02-26T08:52:34.644Z</time>
            </trkpt>
            <trkpt lon="100.995561" lat="12.897633">
                <ele>72.900000</ele>
                <time>2018-02-26T08:52:36.644Z</time>
            </trkpt>
            <trkpt lon="100.995583" lat="12.897614">
                <ele>72.900000</ele>
                <time>2018-02-26T08:52:37.644Z</time>
            </trkpt>
            <trkpt lon="100.995604" lat="12.897595">
                <ele>72.900000</ele>
                <time>2018-02-26T08:52:38.644Z</time>
            </trkpt>
            <trkpt lon="100.995625" lat="12.897576">
                <ele>72.900000</ele>
                <time>2018-02-26T08:52:39.644Z</time>
            </trkpt>
            <trkpt lon="100.995664" lat="12.897539">
                <ele>72.900000</ele>
                <time>2018-02-26T08:52:41.644Z</time>
            </trkpt>
            <trkpt lon="100.995703" lat="12.897506">
                <ele>72.900000</ele>
                <time>2018-02-26T08:52:42.644Z</time>
            </trkpt>
            <trkpt lon="100.995752" lat="12.897460">
                <ele>72.900000</ele>
                <time>2018-02-26T08:52:44.644Z</time>
            </trkpt>
            <trkpt lon="100.995792" lat="12.897431">
                <ele>72.900000</ele>
                <time>2018-02-26T08:52:45.644Z</time>
            </trkpt>
            <trkpt lon="100.995832" lat="12.897408">
                <ele>72.900000</ele>
                <time>2018-02-26T08:52:46.644Z</time>
            </trkpt>
            <trkpt lon="100.995874" lat="12.897384">
                <ele>72.900000</ele>
                <time>2018-02-26T08:52:47.644Z</time>
            </trkpt>
            <trkpt lon="100.995908" lat="12.897359">
                <ele>72.900000</ele>
                <time>2018-02-26T08:52:48.644Z</time>
            </trkpt>
            <trkpt lon="100.995941" lat="12.897335">
                <ele>72.900000</ele>
                <time>2018-02-26T08:52:49.644Z</time>
            </trkpt>
            <trkpt lon="100.995965" lat="12.897316">
                <ele>72.900000</ele>
                <time>2018-02-26T08:52:50.644Z</time>
            </trkpt>
            <trkpt lon="100.996003" lat="12.897280">
                <ele>72.900000</ele>
                <time>2018-02-26T08:52:52.644Z</time>
            </trkpt>
            <trkpt lon="100.996025" lat="12.897240">
                <ele>72.900000</ele>
                <time>2018-02-26T08:52:54.644Z</time>
            </trkpt>
            <trkpt lon="100.996025" lat="12.897205">
                <ele>72.900000</ele>
                <time>2018-02-26T08:53:06.644Z</time>
            </trkpt>
            <trkpt lon="100.996023" lat="12.897175">
                <ele>72.900000</ele>
                <time>2018-02-26T08:53:09.644Z</time>
            </trkpt>
            <trkpt lon="100.996032" lat="12.897141">
                <ele>72.900000</ele>
                <time>2018-02-26T08:53:11.644Z</time>
            </trkpt>
            <trkpt lon="100.996039" lat="12.897104">
                <ele>73.000000</ele>
                <time>2018-02-26T08:53:13.644Z</time>
            </trkpt>
            <trkpt lon="100.996046" lat="12.897051">
                <ele>73.100000</ele>
                <time>2018-02-26T08:53:15.644Z</time>
            </trkpt>
            <trkpt lon="100.996048" lat="12.897024">
                <ele>73.300000</ele>
                <time>2018-02-26T08:53:16.644Z</time>
            </trkpt>
            <trkpt lon="100.996049" lat="12.896997">
                <ele>73.300000</ele>
                <time>2018-02-26T08:53:17.644Z</time>
            </trkpt>
            <trkpt lon="100.996053" lat="12.896961">
                <ele>73.500000</ele>
                <time>2018-02-26T08:53:19.644Z</time>
            </trkpt>
            <trkpt lon="100.996051" lat="12.896909">
                <ele>73.800000</ele>
                <time>2018-02-26T08:53:21.644Z</time>
            </trkpt>
            <trkpt lon="100.996049" lat="12.896882">
                <ele>74.200000</ele>
                <time>2018-02-26T08:53:22.644Z</time>
            </trkpt>
            <trkpt lon="100.996045" lat="12.896819">
                <ele>75.200000</ele>
                <time>2018-02-26T08:53:24.644Z</time>
            </trkpt>
            <trkpt lon="100.996040" lat="12.896780">
                <ele>75.200000</ele>
                <time>2018-02-26T08:53:25.644Z</time>
            </trkpt>
            <trkpt lon="100.996036" lat="12.896739">
                <ele>75.700000</ele>
                <time>2018-02-26T08:53:26.644Z</time>
            </trkpt>
            <trkpt lon="100.996030" lat="12.896698">
                <ele>76.300000</ele>
                <time>2018-02-26T08:53:27.644Z</time>
            </trkpt>
            <trkpt lon="100.996024" lat="12.896660">
                <ele>76.700000</ele>
                <time>2018-02-26T08:53:28.644Z</time>
            </trkpt>
            <trkpt lon="100.996019" lat="12.896630">
                <ele>77.400000</ele>
                <time>2018-02-26T08:53:29.644Z</time>
            </trkpt>
            <trkpt lon="100.996015" lat="12.896580">
                <ele>78.100000</ele>
                <time>2018-02-26T08:53:31.644Z</time>
            </trkpt>
            <trkpt lon="100.996015" lat="12.896547">
                <ele>78.700000</ele>
                <time>2018-02-26T08:53:32.644Z</time>
            </trkpt>
            <trkpt lon="100.996013" lat="12.896513">
                <ele>79.300000</ele>
                <time>2018-02-26T08:53:33.644Z</time>
            </trkpt>
            <trkpt lon="100.996011" lat="12.896480">
                <ele>79.800000</ele>
                <time>2018-02-26T08:53:34.644Z</time>
            </trkpt>
            <trkpt lon="100.996009" lat="12.896447">
                <ele>79.800000</ele>
                <time>2018-02-26T08:53:35.644Z</time>
            </trkpt>
            <trkpt lon="100.996003" lat="12.896414">
                <ele>80.300000</ele>
                <time>2018-02-26T08:53:36.644Z</time>
            </trkpt>
            <trkpt lon="100.995997" lat="12.896379">
                <ele>80.500000</ele>
                <time>2018-02-26T08:53:37.644Z</time>
            </trkpt>
            <trkpt lon="100.995994" lat="12.896341">
                <ele>80.500000</ele>
                <time>2018-02-26T08:53:38.644Z</time>
            </trkpt>
            <trkpt lon="100.995992" lat="12.896307">
                <ele>80.600000</ele>
                <time>2018-02-26T08:53:39.644Z</time>
            </trkpt>
            <trkpt lon="100.995988" lat="12.896276">
                <ele>80.600000</ele>
                <time>2018-02-26T08:53:40.644Z</time>
            </trkpt>
            <trkpt lon="100.995988" lat="12.896248">
                <ele>80.600000</ele>
                <time>2018-02-26T08:53:41.644Z</time>
            </trkpt>
            <trkpt lon="100.995986" lat="12.896217">
                <ele>80.400000</ele>
                <time>2018-02-26T08:53:42.644Z</time>
            </trkpt>
            <trkpt lon="100.995983" lat="12.896190">
                <ele>80.200000</ele>
                <time>2018-02-26T08:53:43.644Z</time>
            </trkpt>
            <trkpt lon="100.995980" lat="12.896161">
                <ele>80.200000</ele>
                <time>2018-02-26T08:53:44.644Z</time>
            </trkpt>
            <trkpt lon="100.995988" lat="12.896108">
                <ele>79.600000</ele>
                <time>2018-02-26T08:53:46.644Z</time>
            </trkpt>
            <trkpt lon="100.995989" lat="12.896074">
                <ele>79.600000</ele>
                <time>2018-02-26T08:53:47.644Z</time>
            </trkpt>
            <trkpt lon="100.995985" lat="12.896038">
                <ele>79.400000</ele>
                <time>2018-02-26T08:53:48.644Z</time>
            </trkpt>
            <trkpt lon="100.995982" lat="12.896008">
                <ele>79.300000</ele>
                <time>2018-02-26T08:53:49.644Z</time>
            </trkpt>
            <trkpt lon="100.995981" lat="12.895975">
                <ele>79.200000</ele>
                <time>2018-02-26T08:53:50.644Z</time>
            </trkpt>
            <trkpt lon="100.995982" lat="12.895941">
                <ele>79.000000</ele>
                <time>2018-02-26T08:53:51.644Z</time>
            </trkpt>
            <trkpt lon="100.995982" lat="12.895906">
                <ele>79.000000</ele>
                <time>2018-02-26T08:53:52.644Z</time>
            </trkpt>
            <trkpt lon="100.995981" lat="12.895877">
                <ele>78.900000</ele>
                <time>2018-02-26T08:53:53.644Z</time>
            </trkpt>
            <trkpt lon="100.995978" lat="12.895834">
                <ele>78.900000</ele>
                <time>2018-02-26T08:53:54.644Z</time>
            </trkpt>
            <trkpt lon="100.995976" lat="12.895800">
                <ele>78.900000</ele>
                <time>2018-02-26T08:53:55.644Z</time>
            </trkpt>
            <trkpt lon="100.995974" lat="12.895768">
                <ele>78.900000</ele>
                <time>2018-02-26T08:53:56.644Z</time>
            </trkpt>
            <trkpt lon="100.995971" lat="12.895724">
                <ele>78.900000</ele>
                <time>2018-02-26T08:53:58.644Z</time>
            </trkpt>
            <trkpt lon="100.995969" lat="12.895677">
                <ele>78.900000</ele>
                <time>2018-02-26T08:54:00.644Z</time>
            </trkpt>
            <trkpt lon="100.995964" lat="12.895622">
                <ele>78.900000</ele>
                <time>2018-02-26T08:54:02.644Z</time>
            </trkpt>
            <trkpt lon="100.995962" lat="12.895590">
                <ele>78.900000</ele>
                <time>2018-02-26T08:54:03.644Z</time>
            </trkpt>
            <trkpt lon="100.995957" lat="12.895555">
                <ele>78.900000</ele>
                <time>2018-02-26T08:54:04.644Z</time>
            </trkpt>
            <trkpt lon="100.995950" lat="12.895517">
                <ele>78.900000</ele>
                <time>2018-02-26T08:54:05.644Z</time>
            </trkpt>
            <trkpt lon="100.995943" lat="12.895476">
                <ele>78.900000</ele>
                <time>2018-02-26T08:54:06.644Z</time>
            </trkpt>
            <trkpt lon="100.995938" lat="12.895426">
                <ele>79.100000</ele>
                <time>2018-02-26T08:54:08.644Z</time>
            </trkpt>
            <trkpt lon="100.995926" lat="12.895383">
                <ele>79.100000</ele>
                <time>2018-02-26T08:54:10.644Z</time>
            </trkpt>
            <trkpt lon="100.995917" lat="12.895346">
                <ele>79.100000</ele>
                <time>2018-02-26T08:54:12.644Z</time>
            </trkpt>
            <trkpt lon="100.995905" lat="12.895301">
                <ele>79.100000</ele>
                <time>2018-02-26T08:54:14.644Z</time>
            </trkpt>
            <trkpt lon="100.995896" lat="12.895273">
                <ele>79.300000</ele>
                <time>2018-02-26T08:54:15.644Z</time>
            </trkpt>
            <trkpt lon="100.995890" lat="12.895245">
                <ele>79.300000</ele>
                <time>2018-02-26T08:54:16.644Z</time>
            </trkpt>
            <trkpt lon="100.995882" lat="12.895187">
                <ele>78.900000</ele>
                <time>2018-02-26T08:54:18.644Z</time>
            </trkpt>
            <trkpt lon="100.995885" lat="12.895152">
                <ele>78.900000</ele>
                <time>2018-02-26T08:54:19.644Z</time>
            </trkpt>
            <trkpt lon="100.995888" lat="12.895121">
                <ele>78.600000</ele>
                <time>2018-02-26T08:54:20.644Z</time>
            </trkpt>
            <trkpt lon="100.995904" lat="12.895091">
                <ele>78.100000</ele>
                <time>2018-02-26T08:54:21.644Z</time>
            </trkpt>
            <trkpt lon="100.995944" lat="12.895074">
                <ele>77.900000</ele>
                <time>2018-02-26T08:54:23.644Z</time>
            </trkpt>
            <trkpt lon="100.995985" lat="12.895063">
                <ele>77.600000</ele>
                <time>2018-02-26T08:54:25.644Z</time>
            </trkpt>
            <trkpt lon="100.996036" lat="12.895054">
                <ele>77.300000</ele>
                <time>2018-02-26T08:54:27.644Z</time>
            </trkpt>
            <trkpt lon="100.996065" lat="12.895048">
                <ele>77.300000</ele>
                <time>2018-02-26T08:54:28.644Z</time>
            </trkpt>
            <trkpt lon="100.996094" lat="12.895044">
                <ele>77.300000</ele>
                <time>2018-02-26T08:54:29.644Z</time>
            </trkpt>
            <trkpt lon="100.996126" lat="12.895040">
                <ele>77.300000</ele>
                <time>2018-02-26T08:54:30.644Z</time>
            </trkpt>
            <trkpt lon="100.996162" lat="12.895035">
                <ele>77.300000</ele>
                <time>2018-02-26T08:54:31.644Z</time>
            </trkpt>
            <trkpt lon="100.996196" lat="12.895029">
                <ele>77.300000</ele>
                <time>2018-02-26T08:54:32.644Z</time>
            </trkpt>
            <trkpt lon="100.996237" lat="12.895024">
                <ele>77.300000</ele>
                <time>2018-02-26T08:54:33.644Z</time>
            </trkpt>
            <trkpt lon="100.996271" lat="12.895020">
                <ele>77.300000</ele>
                <time>2018-02-26T08:54:34.644Z</time>
            </trkpt>
            <trkpt lon="100.996305" lat="12.895016">
                <ele>77.300000</ele>
                <time>2018-02-26T08:54:35.644Z</time>
            </trkpt>
            <trkpt lon="100.996339" lat="12.895012">
                <ele>77.300000</ele>
                <time>2018-02-26T08:54:36.644Z</time>
            </trkpt>
            <trkpt lon="100.996373" lat="12.895006">
                <ele>77.200000</ele>
                <time>2018-02-26T08:54:37.644Z</time>
            </trkpt>
            <trkpt lon="100.996406" lat="12.895000">
                <ele>77.200000</ele>
                <time>2018-02-26T08:54:38.644Z</time>
            </trkpt>
            <trkpt lon="100.996439" lat="12.894993">
                <ele>76.900000</ele>
                <time>2018-02-26T08:54:39.644Z</time>
            </trkpt>
            <trkpt lon="100.996477" lat="12.894987">
                <ele>76.700000</ele>
                <time>2018-02-26T08:54:40.644Z</time>
            </trkpt>
            <trkpt lon="100.996518" lat="12.894980">
                <ele>76.400000</ele>
                <time>2018-02-26T08:54:41.644Z</time>
            </trkpt>
            <trkpt lon="100.996560" lat="12.894974">
                <ele>76.300000</ele>
                <time>2018-02-26T08:54:42.644Z</time>
            </trkpt>
            <trkpt lon="100.996599" lat="12.894967">
                <ele>76.400000</ele>
                <time>2018-02-26T08:54:43.644Z</time>
            </trkpt>
            <trkpt lon="100.996642" lat="12.894960">
                <ele>76.600000</ele>
                <time>2018-02-26T08:54:44.644Z</time>
            </trkpt>
            <trkpt lon="100.996684" lat="12.894956">
                <ele>76.700000</ele>
                <time>2018-02-26T08:54:45.644Z</time>
            </trkpt>
            <trkpt lon="100.996725" lat="12.894950">
                <ele>76.900000</ele>
                <time>2018-02-26T08:54:46.644Z</time>
            </trkpt>
            <trkpt lon="100.996764" lat="12.894944">
                <ele>76.900000</ele>
                <time>2018-02-26T08:54:47.644Z</time>
            </trkpt>
            <trkpt lon="100.996799" lat="12.894940">
                <ele>76.900000</ele>
                <time>2018-02-26T08:54:48.644Z</time>
            </trkpt>
            <trkpt lon="100.996835" lat="12.894935">
                <ele>77.100000</ele>
                <time>2018-02-26T08:54:49.644Z</time>
            </trkpt>
            <trkpt lon="100.996870" lat="12.894930">
                <ele>77.100000</ele>
                <time>2018-02-26T08:54:50.644Z</time>
            </trkpt>
            <trkpt lon="100.996906" lat="12.894925">
                <ele>77.100000</ele>
                <time>2018-02-26T08:54:51.644Z</time>
            </trkpt>
            <trkpt lon="100.996940" lat="12.894918">
                <ele>77.100000</ele>
                <time>2018-02-26T08:54:52.644Z</time>
            </trkpt>
            <trkpt lon="100.996976" lat="12.894911">
                <ele>77.100000</ele>
                <time>2018-02-26T08:54:53.644Z</time>
            </trkpt>
            <trkpt lon="100.997013" lat="12.894905">
                <ele>77.100000</ele>
                <time>2018-02-26T08:54:54.644Z</time>
            </trkpt>
            <trkpt lon="100.997055" lat="12.894900">
                <ele>77.100000</ele>
                <time>2018-02-26T08:54:55.644Z</time>
            </trkpt>
            <trkpt lon="100.997096" lat="12.894894">
                <ele>77.100000</ele>
                <time>2018-02-26T08:54:56.644Z</time>
            </trkpt>
            <trkpt lon="100.997138" lat="12.894887">
                <ele>77.400000</ele>
                <time>2018-02-26T08:54:57.644Z</time>
            </trkpt>
            <trkpt lon="100.997178" lat="12.894881">
                <ele>77.500000</ele>
                <time>2018-02-26T08:54:58.644Z</time>
            </trkpt>
            <trkpt lon="100.997216" lat="12.894875">
                <ele>77.800000</ele>
                <time>2018-02-26T08:54:59.644Z</time>
            </trkpt>
            <trkpt lon="100.997254" lat="12.894870">
                <ele>77.900000</ele>
                <time>2018-02-26T08:55:00.644Z</time>
            </trkpt>
            <trkpt lon="100.997288" lat="12.894864">
                <ele>78.000000</ele>
                <time>2018-02-26T08:55:01.644Z</time>
            </trkpt>
            <trkpt lon="100.997322" lat="12.894852">
                <ele>77.900000</ele>
                <time>2018-02-26T08:55:02.644Z</time>
            </trkpt>
            <trkpt lon="100.997363" lat="12.894842">
                <ele>78.000000</ele>
                <time>2018-02-26T08:55:03.644Z</time>
            </trkpt>
            <trkpt lon="100.997398" lat="12.894834">
                <ele>78.000000</ele>
                <time>2018-02-26T08:55:04.644Z</time>
            </trkpt>
            <trkpt lon="100.997435" lat="12.894827">
                <ele>78.200000</ele>
                <time>2018-02-26T08:55:05.644Z</time>
            </trkpt>
            <trkpt lon="100.997473" lat="12.894819">
                <ele>78.300000</ele>
                <time>2018-02-26T08:55:06.644Z</time>
            </trkpt>
            <trkpt lon="100.997514" lat="12.894812">
                <ele>78.400000</ele>
                <time>2018-02-26T08:55:07.644Z</time>
            </trkpt>
            <trkpt lon="100.997557" lat="12.894806">
                <ele>78.300000</ele>
                <time>2018-02-26T08:55:08.644Z</time>
            </trkpt>
            <trkpt lon="100.997602" lat="12.894802">
                <ele>78.700000</ele>
                <time>2018-02-26T08:55:09.644Z</time>
            </trkpt>
            <trkpt lon="100.997650" lat="12.894800">
                <ele>79.200000</ele>
                <time>2018-02-26T08:55:10.644Z</time>
            </trkpt>
            <trkpt lon="100.997689" lat="12.894795">
                <ele>79.700000</ele>
                <time>2018-02-26T08:55:11.644Z</time>
            </trkpt>
            <trkpt lon="100.997729" lat="12.894787">
                <ele>80.200000</ele>
                <time>2018-02-26T08:55:12.644Z</time>
            </trkpt>
            <trkpt lon="100.997779" lat="12.894780">
                <ele>80.700000</ele>
                <time>2018-02-26T08:55:13.644Z</time>
            </trkpt>
            <trkpt lon="100.997828" lat="12.894773">
                <ele>81.200000</ele>
                <time>2018-02-26T08:55:14.644Z</time>
            </trkpt>
            <trkpt lon="100.997867" lat="12.894766">
                <ele>81.400000</ele>
                <time>2018-02-26T08:55:15.644Z</time>
            </trkpt>
            <trkpt lon="100.997910" lat="12.894761">
                <ele>81.900000</ele>
                <time>2018-02-26T08:55:16.644Z</time>
            </trkpt>
            <trkpt lon="100.997949" lat="12.894756">
                <ele>82.200000</ele>
                <time>2018-02-26T08:55:17.644Z</time>
            </trkpt>
            <trkpt lon="100.997987" lat="12.894749">
                <ele>82.500000</ele>
                <time>2018-02-26T08:55:18.644Z</time>
            </trkpt>
            <trkpt lon="100.998023" lat="12.894744">
                <ele>82.700000</ele>
                <time>2018-02-26T08:55:19.644Z</time>
            </trkpt>
            <trkpt lon="100.998060" lat="12.894741">
                <ele>82.900000</ele>
                <time>2018-02-26T08:55:20.644Z</time>
            </trkpt>
            <trkpt lon="100.998097" lat="12.894737">
                <ele>83.200000</ele>
                <time>2018-02-26T08:55:21.644Z</time>
            </trkpt>
            <trkpt lon="100.998133" lat="12.894732">
                <ele>83.400000</ele>
                <time>2018-02-26T08:55:22.644Z</time>
            </trkpt>
            <trkpt lon="100.998165" lat="12.894723">
                <ele>83.000000</ele>
                <time>2018-02-26T08:55:23.644Z</time>
            </trkpt>
            <trkpt lon="100.998196" lat="12.894712">
                <ele>83.200000</ele>
                <time>2018-02-26T08:55:24.644Z</time>
            </trkpt>
            <trkpt lon="100.998227" lat="12.894702">
                <ele>83.500000</ele>
                <time>2018-02-26T08:55:25.644Z</time>
            </trkpt>
            <trkpt lon="100.998259" lat="12.894695">
                <ele>83.200000</ele>
                <time>2018-02-26T08:55:26.644Z</time>
            </trkpt>
            <trkpt lon="100.998291" lat="12.894689">
                <ele>83.200000</ele>
                <time>2018-02-26T08:55:27.644Z</time>
            </trkpt>
            <trkpt lon="100.998324" lat="12.894683">
                <ele>82.300000</ele>
                <time>2018-02-26T08:55:28.644Z</time>
            </trkpt>
            <trkpt lon="100.998360" lat="12.894675">
                <ele>81.900000</ele>
                <time>2018-02-26T08:55:29.644Z</time>
            </trkpt>
            <trkpt lon="100.998397" lat="12.894669">
                <ele>81.500000</ele>
                <time>2018-02-26T08:55:30.644Z</time>
            </trkpt>
            <trkpt lon="100.998430" lat="12.894663">
                <ele>81.500000</ele>
                <time>2018-02-26T08:55:31.644Z</time>
            </trkpt>
            <trkpt lon="100.998469" lat="12.894657">
                <ele>80.900000</ele>
                <time>2018-02-26T08:55:32.644Z</time>
            </trkpt>
            <trkpt lon="100.998499" lat="12.894652">
                <ele>80.300000</ele>
                <time>2018-02-26T08:55:33.644Z</time>
            </trkpt>
            <trkpt lon="100.998552" lat="12.894649">
                <ele>79.600000</ele>
                <time>2018-02-26T08:55:35.644Z</time>
            </trkpt>
            <trkpt lon="100.998551" lat="12.894616">
                <ele>79.500000</ele>
                <time>2018-02-26T08:55:43.644Z</time>
            </trkpt>
            <trkpt lon="100.998542" lat="12.894586">
                <ele>79.400000</ele>
                <time>2018-02-26T08:55:46.644Z</time>
            </trkpt>
            <trkpt lon="100.998520" lat="12.894565">
                <ele>79.400000</ele>
                <time>2018-02-26T08:55:49.644Z</time>
            </trkpt>
            <trkpt lon="100.998480" lat="12.894544">
                <ele>79.900000</ele>
                <time>2018-02-26T08:55:52.644Z</time>
            </trkpt>
            <trkpt lon="100.998441" lat="12.894525">
                <ele>80.400000</ele>
                <time>2018-02-26T08:55:54.644Z</time>
            </trkpt>
            <trkpt lon="100.998416" lat="12.894510">
                <ele>80.800000</ele>
                <time>2018-02-26T08:55:55.644Z</time>
            </trkpt>
            <trkpt lon="100.998383" lat="12.894489">
                <ele>80.800000</ele>
                <time>2018-02-26T08:55:57.644Z</time>
            </trkpt>
            <trkpt lon="100.998398" lat="12.894514">
                <ele>80.800000</ele>
                <time>2018-02-26T08:56:04.644Z</time>
            </trkpt>
            <trkpt lon="100.998434" lat="12.894535">
                <ele>80.400000</ele>
                <time>2018-02-26T08:56:06.644Z</time>
            </trkpt>
            <trkpt lon="100.998458" lat="12.894550">
                <ele>80.400000</ele>
                <time>2018-02-26T08:56:07.644Z</time>
            </trkpt>
            <trkpt lon="100.998485" lat="12.894563">
                <ele>79.900000</ele>
                <time>2018-02-26T08:56:08.644Z</time>
            </trkpt>
            <trkpt lon="100.998511" lat="12.894576">
                <ele>79.900000</ele>
                <time>2018-02-26T08:56:09.644Z</time>
            </trkpt>
            <trkpt lon="100.998551" lat="12.894600">
                <ele>79.400000</ele>
                <time>2018-02-26T08:56:11.644Z</time>
            </trkpt>
            <trkpt lon="100.998572" lat="12.894624">
                <ele>78.800000</ele>
                <time>2018-02-26T08:56:13.644Z</time>
            </trkpt>
            <trkpt lon="100.998583" lat="12.894662">
                <ele>78.900000</ele>
                <time>2018-02-26T08:56:24.644Z</time>
            </trkpt>
            <trkpt lon="100.998593" lat="12.894687">
                <ele>78.900000</ele>
                <time>2018-02-26T08:56:26.644Z</time>
            </trkpt>
            <trkpt lon="100.998574" lat="12.894707">
                <ele>78.900000</ele>
                <time>2018-02-26T08:56:33.644Z</time>
            </trkpt>
            <trkpt lon="100.998563" lat="12.894731">
                <ele>78.900000</ele>
                <time>2018-02-26T08:56:35.644Z</time>
            </trkpt>
            <trkpt lon="100.998540" lat="12.894764">
                <ele>79.700000</ele>
                <time>2018-02-26T08:56:38.644Z</time>
            </trkpt>
            <trkpt lon="100.998530" lat="12.894804">
                <ele>79.800000</ele>
                <time>2018-02-26T08:56:41.644Z</time>
            </trkpt>
            <trkpt lon="100.998518" lat="12.894836">
                <ele>80.000000</ele>
                <time>2018-02-26T08:56:44.644Z</time>
            </trkpt>
            <trkpt lon="100.998505" lat="12.894874">
                <ele>80.700000</ele>
                <time>2018-02-26T08:56:47.644Z</time>
            </trkpt>
            <trkpt lon="100.998494" lat="12.894906">
                <ele>80.800000</ele>
                <time>2018-02-26T08:56:50.644Z</time>
            </trkpt>
            <trkpt lon="100.998488" lat="12.894936">
                <ele>80.700000</ele>
                <time>2018-02-26T08:56:54.644Z</time>
            </trkpt>
            <trkpt lon="100.998479" lat="12.894966">
                <ele>80.700000</ele>
                <time>2018-02-26T08:56:55.644Z</time>
            </trkpt>
            <trkpt lon="100.998479" lat="12.894997">
                <ele>80.700000</ele>
                <time>2018-02-26T08:56:56.644Z</time>
            </trkpt>
            <trkpt lon="100.998479" lat="12.895026">
                <ele>80.700000</ele>
                <time>2018-02-26T08:56:57.644Z</time>
            </trkpt>
            <trkpt lon="100.998468" lat="12.895073">
                <ele>81.300000</ele>
                <time>2018-02-26T08:56:59.644Z</time>
            </trkpt>
            <trkpt lon="100.998457" lat="12.895102">
                <ele>81.300000</ele>
                <time>2018-02-26T08:57:00.644Z</time>
            </trkpt>
            <trkpt lon="100.998441" lat="12.895154">
                <ele>81.800000</ele>
                <time>2018-02-26T08:57:02.644Z</time>
            </trkpt>
            <trkpt lon="100.998421" lat="12.895198">
                <ele>82.500000</ele>
                <time>2018-02-26T08:57:04.644Z</time>
            </trkpt>
            <trkpt lon="100.998407" lat="12.895244">
                <ele>82.700000</ele>
                <time>2018-02-26T08:57:06.644Z</time>
            </trkpt>
            <trkpt lon="100.998398" lat="12.895273">
                <ele>82.900000</ele>
                <time>2018-02-26T08:57:07.644Z</time>
            </trkpt>
            <trkpt lon="100.998382" lat="12.895313">
                <ele>83.200000</ele>
                <time>2018-02-26T08:57:09.644Z</time>
            </trkpt>
            <trkpt lon="100.998365" lat="12.895355">
                <ele>83.400000</ele>
                <time>2018-02-26T08:57:11.644Z</time>
            </trkpt>
            <trkpt lon="100.998352" lat="12.895383">
                <ele>83.700000</ele>
                <time>2018-02-26T08:57:12.644Z</time>
            </trkpt>
            <trkpt lon="100.998340" lat="12.895409">
                <ele>84.100000</ele>
                <time>2018-02-26T08:57:13.644Z</time>
            </trkpt>
            <trkpt lon="100.998330" lat="12.895458">
                <ele>84.100000</ele>
                <time>2018-02-26T08:57:15.644Z</time>
            </trkpt>
            <trkpt lon="100.998340" lat="12.895485">
                <ele>84.100000</ele>
                <time>2018-02-26T08:57:16.644Z</time>
            </trkpt>
            <trkpt lon="100.998351" lat="12.895512">
                <ele>83.800000</ele>
                <time>2018-02-26T08:57:17.644Z</time>
            </trkpt>
            <trkpt lon="100.998372" lat="12.895562">
                <ele>83.800000</ele>
                <time>2018-02-26T08:57:19.644Z</time>
            </trkpt>
            <trkpt lon="100.998399" lat="12.895610">
                <ele>83.200000</ele>
                <time>2018-02-26T08:57:21.644Z</time>
            </trkpt>
            <trkpt lon="100.998418" lat="12.895638">
                <ele>83.200000</ele>
                <time>2018-02-26T08:57:22.644Z</time>
            </trkpt>
            <trkpt lon="100.998433" lat="12.895665">
                <ele>82.600000</ele>
                <time>2018-02-26T08:57:23.644Z</time>
            </trkpt>
            <trkpt lon="100.998445" lat="12.895692">
                <ele>82.400000</ele>
                <time>2018-02-26T08:57:24.644Z</time>
            </trkpt>
            <trkpt lon="100.998458" lat="12.895717">
                <ele>82.400000</ele>
                <time>2018-02-26T08:57:25.644Z</time>
            </trkpt>
            <trkpt lon="100.998469" lat="12.895744">
                <ele>82.200000</ele>
                <time>2018-02-26T08:57:26.644Z</time>
            </trkpt>
            <trkpt lon="100.998482" lat="12.895770">
                <ele>81.900000</ele>
                <time>2018-02-26T08:57:27.644Z</time>
            </trkpt>
            <trkpt lon="100.998490" lat="12.895797">
                <ele>81.700000</ele>
                <time>2018-02-26T08:57:28.644Z</time>
            </trkpt>
            <trkpt lon="100.998507" lat="12.895848">
                <ele>81.400000</ele>
                <time>2018-02-26T08:57:30.644Z</time>
            </trkpt>
            <trkpt lon="100.998517" lat="12.895877">
                <ele>80.900000</ele>
                <time>2018-02-26T08:57:31.644Z</time>
            </trkpt>
            <trkpt lon="100.998533" lat="12.895906">
                <ele>80.600000</ele>
                <time>2018-02-26T08:57:32.644Z</time>
            </trkpt>
            <trkpt lon="100.998551" lat="12.895933">
                <ele>80.600000</ele>
                <time>2018-02-26T08:57:33.644Z</time>
            </trkpt>
            <trkpt lon="100.998575" lat="12.895957">
                <ele>80.100000</ele>
                <time>2018-02-26T08:57:34.644Z</time>
            </trkpt>
            <trkpt lon="100.998624" lat="12.895980">
                <ele>80.300000</ele>
                <time>2018-02-26T08:57:36.644Z</time>
            </trkpt>
            <trkpt lon="100.998653" lat="12.895989">
                <ele>80.500000</ele>
                <time>2018-02-26T08:57:37.644Z</time>
            </trkpt>
            <trkpt lon="100.998681" lat="12.895996">
                <ele>80.500000</ele>
                <time>2018-02-26T08:57:38.644Z</time>
            </trkpt>
            <trkpt lon="100.998732" lat="12.895978">
                <ele>81.200000</ele>
                <time>2018-02-26T08:57:40.644Z</time>
            </trkpt>
            <trkpt lon="100.998764" lat="12.895967">
                <ele>81.200000</ele>
                <time>2018-02-26T08:57:41.644Z</time>
            </trkpt>
            <trkpt lon="100.998797" lat="12.895960">
                <ele>81.700000</ele>
                <time>2018-02-26T08:57:42.644Z</time>
            </trkpt>
            <trkpt lon="100.998829" lat="12.895955">
                <ele>82.300000</ele>
                <time>2018-02-26T08:57:43.644Z</time>
            </trkpt>
            <trkpt lon="100.998864" lat="12.895954">
                <ele>82.900000</ele>
                <time>2018-02-26T08:57:44.644Z</time>
            </trkpt>
            <trkpt lon="100.998898" lat="12.895953">
                <ele>82.900000</ele>
                <time>2018-02-26T08:57:45.644Z</time>
            </trkpt>
            <trkpt lon="100.998934" lat="12.895953">
                <ele>83.500000</ele>
                <time>2018-02-26T08:57:46.644Z</time>
            </trkpt>
            <trkpt lon="100.998973" lat="12.895949">
                <ele>83.800000</ele>
                <time>2018-02-26T08:57:47.644Z</time>
            </trkpt>
            <trkpt lon="100.999005" lat="12.895947">
                <ele>84.000000</ele>
                <time>2018-02-26T08:57:48.644Z</time>
            </trkpt>
            <trkpt lon="100.999045" lat="12.895945">
                <ele>84.300000</ele>
                <time>2018-02-26T08:57:49.644Z</time>
            </trkpt>
            <trkpt lon="100.999080" lat="12.895941">
                <ele>84.300000</ele>
                <time>2018-02-26T08:57:50.644Z</time>
            </trkpt>
            <trkpt lon="100.999117" lat="12.895936">
                <ele>84.500000</ele>
                <time>2018-02-26T08:57:51.644Z</time>
            </trkpt>
            <trkpt lon="100.999155" lat="12.895931">
                <ele>84.500000</ele>
                <time>2018-02-26T08:57:52.644Z</time>
            </trkpt>
            <trkpt lon="100.999197" lat="12.895927">
                <ele>84.700000</ele>
                <time>2018-02-26T08:57:53.644Z</time>
            </trkpt>
            <trkpt lon="100.999234" lat="12.895925">
                <ele>84.900000</ele>
                <time>2018-02-26T08:57:54.644Z</time>
            </trkpt>
            <trkpt lon="100.999270" lat="12.895925">
                <ele>85.200000</ele>
                <time>2018-02-26T08:57:55.644Z</time>
            </trkpt>
            <trkpt lon="100.999308" lat="12.895927">
                <ele>85.100000</ele>
                <time>2018-02-26T08:57:56.644Z</time>
            </trkpt>
            <trkpt lon="100.999345" lat="12.895931">
                <ele>84.800000</ele>
                <time>2018-02-26T08:57:57.644Z</time>
            </trkpt>
            <trkpt lon="100.999379" lat="12.895942">
                <ele>84.700000</ele>
                <time>2018-02-26T08:57:58.644Z</time>
            </trkpt>
            <trkpt lon="100.999414" lat="12.895952">
                <ele>84.700000</ele>
                <time>2018-02-26T08:57:59.644Z</time>
            </trkpt>
            <trkpt lon="100.999449" lat="12.895963">
                <ele>84.600000</ele>
                <time>2018-02-26T08:58:00.644Z</time>
            </trkpt>
            <trkpt lon="100.999476" lat="12.895978">
                <ele>84.300000</ele>
                <time>2018-02-26T08:58:01.644Z</time>
            </trkpt>
            <trkpt lon="100.999511" lat="12.896001">
                <ele>84.300000</ele>
                <time>2018-02-26T08:58:02.644Z</time>
            </trkpt>
            <trkpt lon="100.999545" lat="12.896026">
                <ele>84.600000</ele>
                <time>2018-02-26T08:58:03.644Z</time>
            </trkpt>
            <trkpt lon="100.999584" lat="12.896046">
                <ele>84.300000</ele>
                <time>2018-02-26T08:58:04.644Z</time>
            </trkpt>
            <trkpt lon="100.999631" lat="12.896062">
                <ele>84.000000</ele>
                <time>2018-02-26T08:58:05.644Z</time>
            </trkpt>
            <trkpt lon="100.999671" lat="12.896079">
                <ele>84.000000</ele>
                <time>2018-02-26T08:58:06.644Z</time>
            </trkpt>
            <trkpt lon="100.999704" lat="12.896100">
                <ele>83.700000</ele>
                <time>2018-02-26T08:58:07.644Z</time>
            </trkpt>
            <trkpt lon="100.999735" lat="12.896128">
                <ele>83.700000</ele>
                <time>2018-02-26T08:58:08.644Z</time>
            </trkpt>
            <trkpt lon="100.999764" lat="12.896154">
                <ele>83.700000</ele>
                <time>2018-02-26T08:58:09.644Z</time>
            </trkpt>
            <trkpt lon="100.999788" lat="12.896178">
                <ele>83.700000</ele>
                <time>2018-02-26T08:58:10.644Z</time>
            </trkpt>
            <trkpt lon="100.999813" lat="12.896204">
                <ele>83.800000</ele>
                <time>2018-02-26T08:58:11.644Z</time>
            </trkpt>
            <trkpt lon="100.999831" lat="12.896239">
                <ele>83.900000</ele>
                <time>2018-02-26T08:58:12.644Z</time>
            </trkpt>
            <trkpt lon="100.999850" lat="12.896275">
                <ele>84.000000</ele>
                <time>2018-02-26T08:58:13.644Z</time>
            </trkpt>
            <trkpt lon="100.999870" lat="12.896305">
                <ele>84.000000</ele>
                <time>2018-02-26T08:58:14.644Z</time>
            </trkpt>
            <trkpt lon="100.999893" lat="12.896337">
                <ele>84.100000</ele>
                <time>2018-02-26T08:58:15.644Z</time>
            </trkpt>
            <trkpt lon="100.999911" lat="12.896370">
                <ele>84.100000</ele>
                <time>2018-02-26T08:58:16.644Z</time>
            </trkpt>
            <trkpt lon="100.999939" lat="12.896399">
                <ele>84.200000</ele>
                <time>2018-02-26T08:58:17.644Z</time>
            </trkpt>
            <trkpt lon="100.999967" lat="12.896422">
                <ele>84.200000</ele>
                <time>2018-02-26T08:58:18.644Z</time>
            </trkpt>
            <trkpt lon="100.999998" lat="12.896433">
                <ele>84.200000</ele>
                <time>2018-02-26T08:58:19.644Z</time>
            </trkpt>
            <trkpt lon="101.000035" lat="12.896433">
                <ele>84.200000</ele>
                <time>2018-02-26T08:58:20.644Z</time>
            </trkpt>
            <trkpt lon="101.000074" lat="12.896423">
                <ele>84.200000</ele>
                <time>2018-02-26T08:58:22.644Z</time>
            </trkpt>
            <trkpt lon="101.000092" lat="12.896401">
                <ele>84.200000</ele>
                <time>2018-02-26T08:58:24.644Z</time>
            </trkpt>
            <trkpt lon="101.000115" lat="12.896382">
                <ele>84.100000</ele>
                <time>2018-02-26T08:58:25.644Z</time>
            </trkpt>
            <trkpt lon="101.000140" lat="12.896365">
                <ele>84.100000</ele>
                <time>2018-02-26T08:58:26.644Z</time>
            </trkpt>
            <trkpt lon="101.000180" lat="12.896345">
                <ele>84.000000</ele>
                <time>2018-02-26T08:58:28.644Z</time>
            </trkpt>
            <trkpt lon="101.000231" lat="12.896321">
                <ele>84.000000</ele>
                <time>2018-02-26T08:58:30.644Z</time>
            </trkpt>
            <trkpt lon="101.000259" lat="12.896308">
                <ele>84.000000</ele>
                <time>2018-02-26T08:58:31.644Z</time>
            </trkpt>
            <trkpt lon="101.000302" lat="12.896290">
                <ele>84.000000</ele>
                <time>2018-02-26T08:58:33.644Z</time>
            </trkpt>
            <trkpt lon="101.000352" lat="12.896288">
                <ele>84.000000</ele>
                <time>2018-02-26T08:58:42.644Z</time>
            </trkpt>
            <trkpt lon="101.000385" lat="12.896287">
                <ele>84.000000</ele>
                <time>2018-02-26T08:58:43.644Z</time>
            </trkpt>
            <trkpt lon="101.000414" lat="12.896282">
                <ele>84.000000</ele>
                <time>2018-02-26T08:58:44.644Z</time>
            </trkpt>
            <trkpt lon="101.000478" lat="12.896268">
                <ele>84.000000</ele>
                <time>2018-02-26T08:58:46.644Z</time>
            </trkpt>
            <trkpt lon="101.000510" lat="12.896261">
                <ele>84.000000</ele>
                <time>2018-02-26T08:59:13.644Z</time>
            </trkpt>
            <trkpt lon="101.000543" lat="12.896255">
                <ele>84.000000</ele>
                <time>2018-02-26T08:59:31.644Z</time>
            </trkpt>
            <trkpt lon="101.000575" lat="12.896248">
                <ele>84.000000</ele>
                <time>2018-02-26T08:59:32.644Z</time>
            </trkpt>
            <trkpt lon="101.000628" lat="12.896255">
                <ele>84.000000</ele>
                <time>2018-02-26T08:59:33.644Z</time>
            </trkpt>
            <trkpt lon="101.000672" lat="12.896269">
                <ele>84.000000</ele>
                <time>2018-02-26T08:59:34.644Z</time>
            </trkpt>
            <trkpt lon="101.000707" lat="12.896279">
                <ele>84.000000</ele>
                <time>2018-02-26T08:59:35.644Z</time>
            </trkpt>
            <trkpt lon="101.000739" lat="12.896285">
                <ele>84.000000</ele>
                <time>2018-02-26T08:59:36.644Z</time>
            </trkpt>
            <trkpt lon="101.000767" lat="12.896290">
                <ele>84.000000</ele>
                <time>2018-02-26T08:59:37.644Z</time>
            </trkpt>
            <trkpt lon="101.000796" lat="12.896297">
                <ele>84.000000</ele>
                <time>2018-02-26T08:59:38.644Z</time>
            </trkpt>
            <trkpt lon="101.000826" lat="12.896304">
                <ele>83.900000</ele>
                <time>2018-02-26T08:59:39.644Z</time>
            </trkpt>
            <trkpt lon="101.000857" lat="12.896310">
                <ele>83.900000</ele>
                <time>2018-02-26T08:59:40.644Z</time>
            </trkpt>
            <trkpt lon="101.000891" lat="12.896317">
                <ele>83.900000</ele>
                <time>2018-02-26T08:59:41.644Z</time>
            </trkpt>
            <trkpt lon="101.000921" lat="12.896316">
                <ele>83.900000</ele>
                <time>2018-02-26T08:59:42.644Z</time>
            </trkpt>
            <trkpt lon="101.000955" lat="12.896312">
                <ele>83.900000</ele>
                <time>2018-02-26T08:59:43.644Z</time>
            </trkpt>
            <trkpt lon="101.000988" lat="12.896302">
                <ele>83.900000</ele>
                <time>2018-02-26T08:59:44.644Z</time>
            </trkpt>
            <trkpt lon="101.001019" lat="12.896291">
                <ele>83.900000</ele>
                <time>2018-02-26T08:59:45.644Z</time>
            </trkpt>
            <trkpt lon="101.001051" lat="12.896278">
                <ele>83.900000</ele>
                <time>2018-02-26T08:59:46.644Z</time>
            </trkpt>
            <trkpt lon="101.001079" lat="12.896259">
                <ele>83.900000</ele>
                <time>2018-02-26T08:59:47.644Z</time>
            </trkpt>
            <trkpt lon="101.001103" lat="12.896231">
                <ele>83.900000</ele>
                <time>2018-02-26T08:59:48.644Z</time>
            </trkpt>
            <trkpt lon="101.001125" lat="12.896201">
                <ele>83.900000</ele>
                <time>2018-02-26T08:59:49.644Z</time>
            </trkpt>
            <trkpt lon="101.001145" lat="12.896169">
                <ele>83.800000</ele>
                <time>2018-02-26T08:59:50.644Z</time>
            </trkpt>
            <trkpt lon="101.001166" lat="12.896135">
                <ele>83.800000</ele>
                <time>2018-02-26T08:59:51.644Z</time>
            </trkpt>
            <trkpt lon="101.001186" lat="12.896103">
                <ele>83.800000</ele>
                <time>2018-02-26T08:59:52.644Z</time>
            </trkpt>
            <trkpt lon="101.001205" lat="12.896073">
                <ele>83.900000</ele>
                <time>2018-02-26T08:59:53.644Z</time>
            </trkpt>
            <trkpt lon="101.001223" lat="12.896042">
                <ele>83.900000</ele>
                <time>2018-02-26T08:59:54.644Z</time>
            </trkpt>
            <trkpt lon="101.001241" lat="12.896010">
                <ele>84.000000</ele>
                <time>2018-02-26T08:59:55.644Z</time>
            </trkpt>
            <trkpt lon="101.001259" lat="12.895982">
                <ele>84.100000</ele>
                <time>2018-02-26T08:59:56.644Z</time>
            </trkpt>
            <trkpt lon="101.001276" lat="12.895952">
                <ele>84.200000</ele>
                <time>2018-02-26T08:59:57.644Z</time>
            </trkpt>
            <trkpt lon="101.001294" lat="12.895923">
                <ele>84.400000</ele>
                <time>2018-02-26T08:59:58.644Z</time>
            </trkpt>
            <trkpt lon="101.001312" lat="12.895894">
                <ele>84.700000</ele>
                <time>2018-02-26T08:59:59.644Z</time>
            </trkpt>
            <trkpt lon="101.001333" lat="12.895868">
                <ele>85.000000</ele>
                <time>2018-02-26T09:00:00.644Z</time>
            </trkpt>
            <trkpt lon="101.001352" lat="12.895841">
                <ele>85.200000</ele>
                <time>2018-02-26T09:00:01.644Z</time>
            </trkpt>
            <trkpt lon="101.001373" lat="12.895811">
                <ele>85.200000</ele>
                <time>2018-02-26T09:00:02.644Z</time>
            </trkpt>
            <trkpt lon="101.001395" lat="12.895775">
                <ele>85.300000</ele>
                <time>2018-02-26T09:00:03.644Z</time>
            </trkpt>
            <trkpt lon="101.001418" lat="12.895741">
                <ele>85.400000</ele>
                <time>2018-02-26T09:00:04.644Z</time>
            </trkpt>
            <trkpt lon="101.001440" lat="12.895708">
                <ele>85.500000</ele>
                <time>2018-02-26T09:00:05.644Z</time>
            </trkpt>
            <trkpt lon="101.001463" lat="12.895675">
                <ele>85.600000</ele>
                <time>2018-02-26T09:00:06.644Z</time>
            </trkpt>
            <trkpt lon="101.001488" lat="12.895646">
                <ele>85.600000</ele>
                <time>2018-02-26T09:00:07.644Z</time>
            </trkpt>
            <trkpt lon="101.001512" lat="12.895619">
                <ele>85.700000</ele>
                <time>2018-02-26T09:00:08.644Z</time>
            </trkpt>
            <trkpt lon="101.001535" lat="12.895592">
                <ele>85.800000</ele>
                <time>2018-02-26T09:00:09.644Z</time>
            </trkpt>
            <trkpt lon="101.001558" lat="12.895566">
                <ele>85.800000</ele>
                <time>2018-02-26T09:00:10.644Z</time>
            </trkpt>
            <trkpt lon="101.001580" lat="12.895542">
                <ele>85.900000</ele>
                <time>2018-02-26T09:00:11.644Z</time>
            </trkpt>
            <trkpt lon="101.001606" lat="12.895514">
                <ele>86.000000</ele>
                <time>2018-02-26T09:00:12.644Z</time>
            </trkpt>
            <trkpt lon="101.001632" lat="12.895485">
                <ele>86.200000</ele>
                <time>2018-02-26T09:00:13.644Z</time>
            </trkpt>
            <trkpt lon="101.001656" lat="12.895459">
                <ele>86.300000</ele>
                <time>2018-02-26T09:00:14.644Z</time>
            </trkpt>
            <trkpt lon="101.001683" lat="12.895433">
                <ele>86.500000</ele>
                <time>2018-02-26T09:00:15.644Z</time>
            </trkpt>
            <trkpt lon="101.001708" lat="12.895412">
                <ele>86.800000</ele>
                <time>2018-02-26T09:00:16.644Z</time>
            </trkpt>
            <trkpt lon="101.001750" lat="12.895379">
                <ele>87.100000</ele>
                <time>2018-02-26T09:00:18.644Z</time>
            </trkpt>
            <trkpt lon="101.001776" lat="12.895364">
                <ele>87.200000</ele>
                <time>2018-02-26T09:00:19.644Z</time>
            </trkpt>
            <trkpt lon="101.001806" lat="12.895352">
                <ele>87.300000</ele>
                <time>2018-02-26T09:00:20.644Z</time>
            </trkpt>
            <trkpt lon="101.001837" lat="12.895343">
                <ele>87.400000</ele>
                <time>2018-02-26T09:00:21.644Z</time>
            </trkpt>
            <trkpt lon="101.001874" lat="12.895340">
                <ele>87.400000</ele>
                <time>2018-02-26T09:00:22.644Z</time>
            </trkpt>
            <trkpt lon="101.001912" lat="12.895335">
                <ele>87.400000</ele>
                <time>2018-02-26T09:00:23.644Z</time>
            </trkpt>
            <trkpt lon="101.001952" lat="12.895332">
                <ele>87.400000</ele>
                <time>2018-02-26T09:00:24.644Z</time>
            </trkpt>
            <trkpt lon="101.001992" lat="12.895331">
                <ele>87.400000</ele>
                <time>2018-02-26T09:00:25.644Z</time>
            </trkpt>
            <trkpt lon="101.002029" lat="12.895331">
                <ele>87.400000</ele>
                <time>2018-02-26T09:00:26.644Z</time>
            </trkpt>
            <trkpt lon="101.002068" lat="12.895332">
                <ele>87.400000</ele>
                <time>2018-02-26T09:00:27.644Z</time>
            </trkpt>
            <trkpt lon="101.002108" lat="12.895335">
                <ele>87.500000</ele>
                <time>2018-02-26T09:00:28.644Z</time>
            </trkpt>
            <trkpt lon="101.002146" lat="12.895339">
                <ele>87.500000</ele>
                <time>2018-02-26T09:00:29.644Z</time>
            </trkpt>
            <trkpt lon="101.002184" lat="12.895343">
                <ele>87.600000</ele>
                <time>2018-02-26T09:00:30.644Z</time>
            </trkpt>
            <trkpt lon="101.002222" lat="12.895347">
                <ele>87.600000</ele>
                <time>2018-02-26T09:00:31.644Z</time>
            </trkpt>
            <trkpt lon="101.002259" lat="12.895351">
                <ele>87.700000</ele>
                <time>2018-02-26T09:00:32.644Z</time>
            </trkpt>
            <trkpt lon="101.002297" lat="12.895358">
                <ele>87.800000</ele>
                <time>2018-02-26T09:00:33.644Z</time>
            </trkpt>
            <trkpt lon="101.002333" lat="12.895362">
                <ele>87.900000</ele>
                <time>2018-02-26T09:00:34.644Z</time>
            </trkpt>
            <trkpt lon="101.002368" lat="12.895363">
                <ele>88.200000</ele>
                <time>2018-02-26T09:00:35.644Z</time>
            </trkpt>
            <trkpt lon="101.002406" lat="12.895364">
                <ele>88.500000</ele>
                <time>2018-02-26T09:00:36.644Z</time>
            </trkpt>
            <trkpt lon="101.002446" lat="12.895366">
                <ele>88.800000</ele>
                <time>2018-02-26T09:00:37.644Z</time>
            </trkpt>
            <trkpt lon="101.002484" lat="12.895371">
                <ele>88.900000</ele>
                <time>2018-02-26T09:00:38.644Z</time>
            </trkpt>
            <trkpt lon="101.002522" lat="12.895377">
                <ele>89.000000</ele>
                <time>2018-02-26T09:00:39.644Z</time>
            </trkpt>
            <trkpt lon="101.002561" lat="12.895381">
                <ele>89.100000</ele>
                <time>2018-02-26T09:00:40.644Z</time>
            </trkpt>
            <trkpt lon="101.002600" lat="12.895389">
                <ele>89.200000</ele>
                <time>2018-02-26T09:00:41.644Z</time>
            </trkpt>
            <trkpt lon="101.002629" lat="12.895397">
                <ele>89.300000</ele>
                <time>2018-02-26T09:00:42.644Z</time>
            </trkpt>
            <trkpt lon="101.002657" lat="12.895401">
                <ele>89.300000</ele>
                <time>2018-02-26T09:00:43.644Z</time>
            </trkpt>
            <trkpt lon="101.002688" lat="12.895405">
                <ele>89.400000</ele>
                <time>2018-02-26T09:00:44.644Z</time>
            </trkpt>
            <trkpt lon="101.002723" lat="12.895404">
                <ele>89.500000</ele>
                <time>2018-02-26T09:00:45.644Z</time>
            </trkpt>
            <trkpt lon="101.002754" lat="12.895404">
                <ele>89.500000</ele>
                <time>2018-02-26T09:00:46.644Z</time>
            </trkpt>
            <trkpt lon="101.002790" lat="12.895404">
                <ele>89.600000</ele>
                <time>2018-02-26T09:00:47.644Z</time>
            </trkpt>
            <trkpt lon="101.002826" lat="12.895403">
                <ele>89.700000</ele>
                <time>2018-02-26T09:00:48.644Z</time>
            </trkpt>
            <trkpt lon="101.002861" lat="12.895405">
                <ele>89.800000</ele>
                <time>2018-02-26T09:00:49.644Z</time>
            </trkpt>
            <trkpt lon="101.002893" lat="12.895409">
                <ele>90.000000</ele>
                <time>2018-02-26T09:00:50.644Z</time>
            </trkpt>
            <trkpt lon="101.002946" lat="12.895409">
                <ele>90.400000</ele>
                <time>2018-02-26T09:00:52.644Z</time>
            </trkpt>
            <trkpt lon="101.002986" lat="12.895398">
                <ele>90.600000</ele>
                <time>2018-02-26T09:00:54.644Z</time>
            </trkpt>
            <trkpt lon="101.003034" lat="12.895388">
                <ele>90.800000</ele>
                <time>2018-02-26T09:00:56.644Z</time>
            </trkpt>
            <trkpt lon="101.003085" lat="12.895383">
                <ele>90.900000</ele>
                <time>2018-02-26T09:00:58.644Z</time>
            </trkpt>
            <trkpt lon="101.003116" lat="12.895371">
                <ele>91.000000</ele>
                <time>2018-02-26T09:00:59.644Z</time>
            </trkpt>
            <trkpt lon="101.003155" lat="12.895359">
                <ele>91.100000</ele>
                <time>2018-02-26T09:01:00.644Z</time>
            </trkpt>
            <trkpt lon="101.003190" lat="12.895351">
                <ele>91.100000</ele>
                <time>2018-02-26T09:01:01.644Z</time>
            </trkpt>
            <trkpt lon="101.003229" lat="12.895343">
                <ele>91.200000</ele>
                <time>2018-02-26T09:01:02.644Z</time>
            </trkpt>
            <trkpt lon="101.003266" lat="12.895333">
                <ele>91.300000</ele>
                <time>2018-02-26T09:01:03.644Z</time>
            </trkpt>
            <trkpt lon="101.003302" lat="12.895324">
                <ele>91.300000</ele>
                <time>2018-02-26T09:01:04.644Z</time>
            </trkpt>
            <trkpt lon="101.003341" lat="12.895316">
                <ele>91.400000</ele>
                <time>2018-02-26T09:01:05.644Z</time>
            </trkpt>
            <trkpt lon="101.003375" lat="12.895309">
                <ele>91.500000</ele>
                <time>2018-02-26T09:01:06.644Z</time>
            </trkpt>
            <trkpt lon="101.003412" lat="12.895300">
                <ele>91.600000</ele>
                <time>2018-02-26T09:01:07.644Z</time>
            </trkpt>
            <trkpt lon="101.003448" lat="12.895290">
                <ele>91.700000</ele>
                <time>2018-02-26T09:01:08.644Z</time>
            </trkpt>
            <trkpt lon="101.003483" lat="12.895279">
                <ele>91.800000</ele>
                <time>2018-02-26T09:01:09.644Z</time>
            </trkpt>
            <trkpt lon="101.003519" lat="12.895272">
                <ele>92.000000</ele>
                <time>2018-02-26T09:01:10.644Z</time>
            </trkpt>
            <trkpt lon="101.003559" lat="12.895263">
                <ele>92.100000</ele>
                <time>2018-02-26T09:01:11.644Z</time>
            </trkpt>
            <trkpt lon="101.003600" lat="12.895252">
                <ele>92.400000</ele>
                <time>2018-02-26T09:01:12.644Z</time>
            </trkpt>
            <trkpt lon="101.003642" lat="12.895241">
                <ele>92.700000</ele>
                <time>2018-02-26T09:01:13.644Z</time>
            </trkpt>
            <trkpt lon="101.003681" lat="12.895230">
                <ele>92.800000</ele>
                <time>2018-02-26T09:01:14.644Z</time>
            </trkpt>
            <trkpt lon="101.003721" lat="12.895222">
                <ele>92.900000</ele>
                <time>2018-02-26T09:01:15.644Z</time>
            </trkpt>
            <trkpt lon="101.003758" lat="12.895212">
                <ele>92.900000</ele>
                <time>2018-02-26T09:01:16.644Z</time>
            </trkpt>
            <trkpt lon="101.003798" lat="12.895203">
                <ele>93.000000</ele>
                <time>2018-02-26T09:01:17.644Z</time>
            </trkpt>
            <trkpt lon="101.003840" lat="12.895197">
                <ele>93.000000</ele>
                <time>2018-02-26T09:01:18.644Z</time>
            </trkpt>
            <trkpt lon="101.003880" lat="12.895195">
                <ele>93.100000</ele>
                <time>2018-02-26T09:01:19.644Z</time>
            </trkpt>
            <trkpt lon="101.003916" lat="12.895198">
                <ele>93.100000</ele>
                <time>2018-02-26T09:01:20.644Z</time>
            </trkpt>
            <trkpt lon="101.003947" lat="12.895211">
                <ele>93.200000</ele>
                <time>2018-02-26T09:01:21.644Z</time>
            </trkpt>
            <trkpt lon="101.003975" lat="12.895218">
                <ele>93.200000</ele>
                <time>2018-02-26T09:01:22.644Z</time>
            </trkpt>
            <trkpt lon="101.004008" lat="12.895217">
                <ele>93.200000</ele>
                <time>2018-02-26T09:01:23.644Z</time>
            </trkpt>
            <trkpt lon="101.004042" lat="12.895215">
                <ele>93.300000</ele>
                <time>2018-02-26T09:01:24.644Z</time>
            </trkpt>
            <trkpt lon="101.004078" lat="12.895219">
                <ele>93.300000</ele>
                <time>2018-02-26T09:01:25.644Z</time>
            </trkpt>
            <trkpt lon="101.004117" lat="12.895223">
                <ele>93.400000</ele>
                <time>2018-02-26T09:01:26.644Z</time>
            </trkpt>
            <trkpt lon="101.004159" lat="12.895229">
                <ele>93.500000</ele>
                <time>2018-02-26T09:01:27.644Z</time>
            </trkpt>
            <trkpt lon="101.004197" lat="12.895230">
                <ele>93.500000</ele>
                <time>2018-02-26T09:01:28.644Z</time>
            </trkpt>
            <trkpt lon="101.004234" lat="12.895231">
                <ele>93.700000</ele>
                <time>2018-02-26T09:01:29.644Z</time>
            </trkpt>
            <trkpt lon="101.004268" lat="12.895233">
                <ele>93.700000</ele>
                <time>2018-02-26T09:01:30.644Z</time>
            </trkpt>
            <trkpt lon="101.004305" lat="12.895238">
                <ele>94.000000</ele>
                <time>2018-02-26T09:01:31.644Z</time>
            </trkpt>
            <trkpt lon="101.004337" lat="12.895240">
                <ele>94.200000</ele>
                <time>2018-02-26T09:01:32.644Z</time>
            </trkpt>
            <trkpt lon="101.004371" lat="12.895238">
                <ele>94.400000</ele>
                <time>2018-02-26T09:01:33.644Z</time>
            </trkpt>
            <trkpt lon="101.004398" lat="12.895234">
                <ele>94.500000</ele>
                <time>2018-02-26T09:01:34.644Z</time>
            </trkpt>
            <trkpt lon="101.004427" lat="12.895237">
                <ele>94.600000</ele>
                <time>2018-02-26T09:01:35.644Z</time>
            </trkpt>
            <trkpt lon="101.004456" lat="12.895243">
                <ele>94.700000</ele>
                <time>2018-02-26T09:01:36.644Z</time>
            </trkpt>
            <trkpt lon="101.004486" lat="12.895237">
                <ele>94.700000</ele>
                <time>2018-02-26T09:01:38.644Z</time>
            </trkpt>
            <trkpt lon="101.004490" lat="12.895220">
                <ele>94.700000</ele>
                <time>2018-02-26T09:02:16.644Z</time>
            </trkpt>
            <trkpt lon="101.004494" lat="12.895204">
                <ele>94.800000</ele>
                <time>2018-02-26T09:02:35.644Z</time>
            </trkpt>
            <trkpt lon="101.004498" lat="12.895187">
                <ele>94.800000</ele>
                <time>2018-02-26T09:02:54.644Z</time>
            </trkpt>
            <trkpt lon="101.004501" lat="12.895171">
                <ele>94.800000</ele>
                <time>2018-02-26T09:03:12.644Z</time>
            </trkpt>
            <trkpt lon="101.004505" lat="12.895154">
                <ele>94.900000</ele>
                <time>2018-02-26T09:03:25.644Z</time>
            </trkpt>
            <trkpt lon="101.004509" lat="12.895138">
                <ele>94.900000</ele>
                <time>2018-02-26T09:03:31.644Z</time>
            </trkpt>
            <trkpt lon="101.004513" lat="12.895121">
                <ele>94.900000</ele>
                <time>2018-02-26T09:03:32.644Z</time>
            </trkpt>
            <trkpt lon="101.004581" lat="12.895142">
                <ele>95.100000</ele>
                <time>2018-02-26T09:03:33.644Z</time>
            </trkpt>
            <trkpt lon="101.004629" lat="12.895157">
                <ele>95.300000</ele>
                <time>2018-02-26T09:03:34.644Z</time>
            </trkpt>
            <trkpt lon="101.004664" lat="12.895153">
                <ele>95.400000</ele>
                <time>2018-02-26T09:03:35.644Z</time>
            </trkpt>
            <trkpt lon="101.004705" lat="12.895155">
                <ele>95.600000</ele>
                <time>2018-02-26T09:03:36.644Z</time>
            </trkpt>
            <trkpt lon="101.004740" lat="12.895151">
                <ele>95.900000</ele>
                <time>2018-02-26T09:03:37.644Z</time>
            </trkpt>
            <trkpt lon="101.004772" lat="12.895140">
                <ele>96.200000</ele>
                <time>2018-02-26T09:03:38.644Z</time>
            </trkpt>
            <trkpt lon="101.004801" lat="12.895126">
                <ele>96.400000</ele>
                <time>2018-02-26T09:03:39.644Z</time>
            </trkpt>
            <trkpt lon="101.004823" lat="12.895106">
                <ele>96.600000</ele>
                <time>2018-02-26T09:03:40.644Z</time>
            </trkpt>
            <trkpt lon="101.004860" lat="12.895075">
                <ele>96.700000</ele>
                <time>2018-02-26T09:03:42.644Z</time>
            </trkpt>
            <trkpt lon="101.004897" lat="12.895040">
                <ele>96.900000</ele>
                <time>2018-02-26T09:03:44.644Z</time>
            </trkpt>
            <trkpt lon="101.004918" lat="12.895019">
                <ele>96.900000</ele>
                <time>2018-02-26T09:03:45.644Z</time>
            </trkpt>
            <trkpt lon="101.004948" lat="12.894986">
                <ele>97.500000</ele>
                <time>2018-02-26T09:03:47.644Z</time>
            </trkpt>
            <trkpt lon="101.004978" lat="12.894951">
                <ele>98.300000</ele>
                <time>2018-02-26T09:03:49.644Z</time>
            </trkpt>
            <trkpt lon="101.005006" lat="12.894920">
                <ele>99.100000</ele>
                <time>2018-02-26T09:03:51.644Z</time>
            </trkpt>
            <trkpt lon="101.005036" lat="12.894890">
                <ele>99.900000</ele>
                <time>2018-02-26T09:03:53.644Z</time>
            </trkpt>
            <trkpt lon="101.005065" lat="12.894858">
                <ele>100.500000</ele>
                <time>2018-02-26T09:03:55.644Z</time>
            </trkpt>
            <trkpt lon="101.005088" lat="12.894821">
                <ele>101.000000</ele>
                <time>2018-02-26T09:03:57.644Z</time>
            </trkpt>
            <trkpt lon="101.005095" lat="12.894775">
                <ele>101.500000</ele>
                <time>2018-02-26T09:03:59.644Z</time>
            </trkpt>
            <trkpt lon="101.005096" lat="12.894745">
                <ele>101.800000</ele>
                <time>2018-02-26T09:04:03.644Z</time>
            </trkpt>
            <trkpt lon="101.005103" lat="12.894715">
                <ele>102.200000</ele>
                <time>2018-02-26T09:04:07.644Z</time>
            </trkpt>
            <trkpt lon="101.005117" lat="12.894690">
                <ele>102.500000</ele>
                <time>2018-02-26T09:04:20.644Z</time>
            </trkpt>
            <trkpt lon="101.005144" lat="12.894681">
                <ele>102.800000</ele>
                <time>2018-02-26T09:04:22.644Z</time>
            </trkpt>
            <trkpt lon="101.005168" lat="12.894668">
                <ele>103.000000</ele>
                <time>2018-02-26T09:04:23.644Z</time>
            </trkpt>
            <trkpt lon="101.005201" lat="12.894636">
                <ele>103.500000</ele>
                <time>2018-02-26T09:04:25.644Z</time>
            </trkpt>
            <trkpt lon="101.005210" lat="12.894596">
                <ele>103.900000</ele>
                <time>2018-02-26T09:04:27.644Z</time>
            </trkpt>
            <trkpt lon="101.005218" lat="12.894567">
                <ele>104.200000</ele>
                <time>2018-02-26T09:04:29.644Z</time>
            </trkpt>
            <trkpt lon="101.005228" lat="12.894542">
                <ele>104.500000</ele>
                <time>2018-02-26T09:04:32.644Z</time>
            </trkpt>
            <trkpt lon="101.005246" lat="12.894517">
                <ele>104.800000</ele>
                <time>2018-02-26T09:04:38.644Z</time>
            </trkpt>
            <trkpt lon="101.005258" lat="12.894476">
                <ele>105.000000</ele>
                <time>2018-02-26T09:04:44.644Z</time>
            </trkpt>
            <trkpt lon="101.005255" lat="12.894435">
                <ele>105.400000</ele>
                <time>2018-02-26T09:04:46.644Z</time>
            </trkpt>
            <trkpt lon="101.005253" lat="12.894399">
                <ele>105.900000</ele>
                <time>2018-02-26T09:04:48.644Z</time>
            </trkpt>
            <trkpt lon="101.005243" lat="12.894365">
                <ele>106.300000</ele>
                <time>2018-02-26T09:04:50.644Z</time>
            </trkpt>
            <trkpt lon="101.005229" lat="12.894326">
                <ele>106.300000</ele>
                <time>2018-02-26T09:04:52.644Z</time>
            </trkpt>
            <trkpt lon="101.005225" lat="12.894284">
                <ele>106.300000</ele>
                <time>2018-02-26T09:04:54.644Z</time>
            </trkpt>
            <trkpt lon="101.005215" lat="12.894248">
                <ele>106.300000</ele>
                <time>2018-02-26T09:04:56.644Z</time>
            </trkpt>
            <trkpt lon="101.005205" lat="12.894210">
                <ele>106.500000</ele>
                <time>2018-02-26T09:04:58.644Z</time>
            </trkpt>
            <trkpt lon="101.005195" lat="12.894173">
                <ele>106.700000</ele>
                <time>2018-02-26T09:05:00.644Z</time>
            </trkpt>
            <trkpt lon="101.005181" lat="12.894126">
                <ele>107.100000</ele>
                <time>2018-02-26T09:05:02.644Z</time>
            </trkpt>
            <trkpt lon="101.005166" lat="12.894079">
                <ele>107.500000</ele>
                <time>2018-02-26T09:05:04.644Z</time>
            </trkpt>
            <trkpt lon="101.005147" lat="12.894029">
                <ele>108.000000</ele>
                <time>2018-02-26T09:05:06.644Z</time>
            </trkpt>
            <trkpt lon="101.005119" lat="12.893993">
                <ele>108.300000</ele>
                <time>2018-02-26T09:05:08.644Z</time>
            </trkpt>
            <trkpt lon="101.005093" lat="12.893959">
                <ele>108.700000</ele>
                <time>2018-02-26T09:05:10.644Z</time>
            </trkpt>
            <trkpt lon="101.005076" lat="12.893922">
                <ele>109.000000</ele>
                <time>2018-02-26T09:05:12.644Z</time>
            </trkpt>
            <trkpt lon="101.005061" lat="12.893884">
                <ele>109.000000</ele>
                <time>2018-02-26T09:05:14.644Z</time>
            </trkpt>
            <trkpt lon="101.005046" lat="12.893842">
                <ele>109.000000</ele>
                <time>2018-02-26T09:05:16.644Z</time>
            </trkpt>
            <trkpt lon="101.005035" lat="12.893794">
                <ele>109.000000</ele>
                <time>2018-02-26T09:05:18.644Z</time>
            </trkpt>
            <trkpt lon="101.005029" lat="12.893750">
                <ele>109.000000</ele>
                <time>2018-02-26T09:05:20.644Z</time>
            </trkpt>
            <trkpt lon="101.005032" lat="12.893706">
                <ele>109.000000</ele>
                <time>2018-02-26T09:05:22.644Z</time>
            </trkpt>
            <trkpt lon="101.005033" lat="12.893666">
                <ele>109.000000</ele>
                <time>2018-02-26T09:05:24.644Z</time>
            </trkpt>
            <trkpt lon="101.005041" lat="12.893637">
                <ele>109.000000</ele>
                <time>2018-02-26T09:05:26.644Z</time>
            </trkpt>
            <trkpt lon="101.005045" lat="12.893592">
                <ele>109.000000</ele>
                <time>2018-02-26T09:05:28.644Z</time>
            </trkpt>
            <trkpt lon="101.005046" lat="12.893541">
                <ele>109.000000</ele>
                <time>2018-02-26T09:05:30.644Z</time>
            </trkpt>
            <trkpt lon="101.005047" lat="12.893495">
                <ele>109.000000</ele>
                <time>2018-02-26T09:05:32.644Z</time>
            </trkpt>
            <trkpt lon="101.005059" lat="12.893450">
                <ele>109.000000</ele>
                <time>2018-02-26T09:05:34.644Z</time>
            </trkpt>
            <trkpt lon="101.005060" lat="12.893398">
                <ele>109.000000</ele>
                <time>2018-02-26T09:05:36.644Z</time>
            </trkpt>
            <trkpt lon="101.005058" lat="12.893351">
                <ele>108.800000</ele>
                <time>2018-02-26T09:05:38.644Z</time>
            </trkpt>
            <trkpt lon="101.005057" lat="12.893307">
                <ele>108.600000</ele>
                <time>2018-02-26T09:05:40.644Z</time>
            </trkpt>
            <trkpt lon="101.005058" lat="12.893262">
                <ele>108.800000</ele>
                <time>2018-02-26T09:05:42.644Z</time>
            </trkpt>
            <trkpt lon="101.005053" lat="12.893224">
                <ele>108.900000</ele>
                <time>2018-02-26T09:05:44.644Z</time>
            </trkpt>
            <trkpt lon="101.005051" lat="12.893192">
                <ele>108.900000</ele>
                <time>2018-02-26T09:05:46.644Z</time>
            </trkpt>
            <trkpt lon="101.005049" lat="12.893156">
                <ele>108.900000</ele>
                <time>2018-02-26T09:05:48.644Z</time>
            </trkpt>
            <trkpt lon="101.005042" lat="12.893121">
                <ele>108.800000</ele>
                <time>2018-02-26T09:05:50.644Z</time>
            </trkpt>
            <trkpt lon="101.005035" lat="12.893087">
                <ele>108.700000</ele>
                <time>2018-02-26T09:05:52.644Z</time>
            </trkpt>
            <trkpt lon="101.005029" lat="12.893048">
                <ele>108.300000</ele>
                <time>2018-02-26T09:05:54.644Z</time>
            </trkpt>
            <trkpt lon="101.005019" lat="12.893013">
                <ele>107.900000</ele>
                <time>2018-02-26T09:05:56.644Z</time>
            </trkpt>
            <trkpt lon="101.005012" lat="12.892977">
                <ele>107.700000</ele>
                <time>2018-02-26T09:05:58.644Z</time>
            </trkpt>
            <trkpt lon="101.005002" lat="12.892940">
                <ele>107.600000</ele>
                <time>2018-02-26T09:06:00.644Z</time>
            </trkpt>
            <trkpt lon="101.004995" lat="12.892913">
                <ele>107.300000</ele>
                <time>2018-02-26T09:06:01.644Z</time>
            </trkpt>
            <trkpt lon="101.004987" lat="12.892883">
                <ele>107.000000</ele>
                <time>2018-02-26T09:06:02.644Z</time>
            </trkpt>
            <trkpt lon="101.004979" lat="12.892850">
                <ele>106.700000</ele>
                <time>2018-02-26T09:06:03.644Z</time>
            </trkpt>
            <trkpt lon="101.004967" lat="12.892824">
                <ele>106.500000</ele>
                <time>2018-02-26T09:06:04.644Z</time>
            </trkpt>
            <trkpt lon="101.004963" lat="12.892794">
                <ele>106.300000</ele>
                <time>2018-02-26T09:06:05.644Z</time>
            </trkpt>
            <trkpt lon="101.004961" lat="12.892762">
                <ele>106.000000</ele>
                <time>2018-02-26T09:06:06.644Z</time>
            </trkpt>
            <trkpt lon="101.004952" lat="12.892718">
                <ele>105.600000</ele>
                <time>2018-02-26T09:06:08.644Z</time>
            </trkpt>
            <trkpt lon="101.004955" lat="12.892664">
                <ele>105.200000</ele>
                <time>2018-02-26T09:06:10.644Z</time>
            </trkpt>
            <trkpt lon="101.004955" lat="12.892634">
                <ele>105.000000</ele>
                <time>2018-02-26T09:06:11.644Z</time>
            </trkpt>
            <trkpt lon="101.004956" lat="12.892604">
                <ele>104.800000</ele>
                <time>2018-02-26T09:06:12.644Z</time>
            </trkpt>
            <trkpt lon="101.004954" lat="12.892571">
                <ele>104.500000</ele>
                <time>2018-02-26T09:06:13.644Z</time>
            </trkpt>
            <trkpt lon="101.004951" lat="12.892541">
                <ele>104.400000</ele>
                <time>2018-02-26T09:06:14.644Z</time>
            </trkpt>
            <trkpt lon="101.004949" lat="12.892510">
                <ele>104.300000</ele>
                <time>2018-02-26T09:06:15.644Z</time>
            </trkpt>
            <trkpt lon="101.004946" lat="12.892482">
                <ele>104.200000</ele>
                <time>2018-02-26T09:06:16.644Z</time>
            </trkpt>
            <trkpt lon="101.004942" lat="12.892455">
                <ele>104.000000</ele>
                <time>2018-02-26T09:06:17.644Z</time>
            </trkpt>
            <trkpt lon="101.004934" lat="12.892423">
                <ele>103.900000</ele>
                <time>2018-02-26T09:06:18.644Z</time>
            </trkpt>
            <trkpt lon="101.004923" lat="12.892395">
                <ele>103.700000</ele>
                <time>2018-02-26T09:06:19.644Z</time>
            </trkpt>
            <trkpt lon="101.004913" lat="12.892360">
                <ele>103.500000</ele>
                <time>2018-02-26T09:06:20.644Z</time>
            </trkpt>
            <trkpt lon="101.004899" lat="12.892329">
                <ele>103.400000</ele>
                <time>2018-02-26T09:06:21.644Z</time>
            </trkpt>
            <trkpt lon="101.004884" lat="12.892296">
                <ele>103.400000</ele>
                <time>2018-02-26T09:06:22.644Z</time>
            </trkpt>
            <trkpt lon="101.004865" lat="12.892263">
                <ele>103.400000</ele>
                <time>2018-02-26T09:06:23.644Z</time>
            </trkpt>
            <trkpt lon="101.004839" lat="12.892219">
                <ele>103.100000</ele>
                <time>2018-02-26T09:06:24.644Z</time>
            </trkpt>
            <trkpt lon="101.004817" lat="12.892175">
                <ele>102.800000</ele>
                <time>2018-02-26T09:06:25.644Z</time>
            </trkpt>
            <trkpt lon="101.004795" lat="12.892134">
                <ele>102.500000</ele>
                <time>2018-02-26T09:06:26.644Z</time>
            </trkpt>
            <trkpt lon="101.004774" lat="12.892093">
                <ele>102.100000</ele>
                <time>2018-02-26T09:06:27.644Z</time>
            </trkpt>
            <trkpt lon="101.004751" lat="12.892052">
                <ele>101.800000</ele>
                <time>2018-02-26T09:06:28.644Z</time>
            </trkpt>
            <trkpt lon="101.004729" lat="12.892014">
                <ele>101.700000</ele>
                <time>2018-02-26T09:06:29.644Z</time>
            </trkpt>
            <trkpt lon="101.004708" lat="12.891969">
                <ele>101.700000</ele>
                <time>2018-02-26T09:06:30.644Z</time>
            </trkpt>
            <trkpt lon="101.004686" lat="12.891925">
                <ele>101.700000</ele>
                <time>2018-02-26T09:06:31.644Z</time>
            </trkpt>
            <trkpt lon="101.004658" lat="12.891878">
                <ele>101.600000</ele>
                <time>2018-02-26T09:06:32.644Z</time>
            </trkpt>
            <trkpt lon="101.004634" lat="12.891837">
                <ele>101.500000</ele>
                <time>2018-02-26T09:06:33.644Z</time>
            </trkpt>
            <trkpt lon="101.004610" lat="12.891792">
                <ele>101.400000</ele>
                <time>2018-02-26T09:06:34.644Z</time>
            </trkpt>
            <trkpt lon="101.004589" lat="12.891748">
                <ele>101.300000</ele>
                <time>2018-02-26T09:06:35.644Z</time>
            </trkpt>
            <trkpt lon="101.004566" lat="12.891704">
                <ele>101.300000</ele>
                <time>2018-02-26T09:06:36.644Z</time>
            </trkpt>
            <trkpt lon="101.004546" lat="12.891659">
                <ele>101.200000</ele>
                <time>2018-02-26T09:06:37.644Z</time>
            </trkpt>
            <trkpt lon="101.004525" lat="12.891620">
                <ele>100.900000</ele>
                <time>2018-02-26T09:06:38.644Z</time>
            </trkpt>
            <trkpt lon="101.004502" lat="12.891578">
                <ele>100.500000</ele>
                <time>2018-02-26T09:06:39.644Z</time>
            </trkpt>
            <trkpt lon="101.004486" lat="12.891540">
                <ele>100.200000</ele>
                <time>2018-02-26T09:06:40.644Z</time>
            </trkpt>
            <trkpt lon="101.004472" lat="12.891503">
                <ele>99.900000</ele>
                <time>2018-02-26T09:06:41.644Z</time>
            </trkpt>
            <trkpt lon="101.004466" lat="12.891462">
                <ele>99.300000</ele>
                <time>2018-02-26T09:06:42.644Z</time>
            </trkpt>
            <trkpt lon="101.004462" lat="12.891421">
                <ele>98.800000</ele>
                <time>2018-02-26T09:06:43.644Z</time>
            </trkpt>
            <trkpt lon="101.004472" lat="12.891373">
                <ele>98.800000</ele>
                <time>2018-02-26T09:06:44.644Z</time>
            </trkpt>
            <trkpt lon="101.004481" lat="12.891334">
                <ele>98.900000</ele>
                <time>2018-02-26T09:06:45.644Z</time>
            </trkpt>
            <trkpt lon="101.004504" lat="12.891307">
                <ele>99.200000</ele>
                <time>2018-02-26T09:06:46.644Z</time>
            </trkpt>
            <trkpt lon="101.004525" lat="12.891279">
                <ele>99.400000</ele>
                <time>2018-02-26T09:06:47.644Z</time>
            </trkpt>
            <trkpt lon="101.004544" lat="12.891251">
                <ele>99.600000</ele>
                <time>2018-02-26T09:06:48.644Z</time>
            </trkpt>
            <trkpt lon="101.004564" lat="12.891225">
                <ele>99.900000</ele>
                <time>2018-02-26T09:06:49.644Z</time>
            </trkpt>
            <trkpt lon="101.004584" lat="12.891200">
                <ele>100.100000</ele>
                <time>2018-02-26T09:06:50.644Z</time>
            </trkpt>
            <trkpt lon="101.004599" lat="12.891175">
                <ele>100.100000</ele>
                <time>2018-02-26T09:06:51.644Z</time>
            </trkpt>
            <trkpt lon="101.004622" lat="12.891150">
                <ele>100.200000</ele>
                <time>2018-02-26T09:06:52.644Z</time>
            </trkpt>
            <trkpt lon="101.004640" lat="12.891130">
                <ele>100.200000</ele>
                <time>2018-02-26T09:06:53.644Z</time>
            </trkpt>
            <trkpt lon="101.004679" lat="12.891091">
                <ele>99.800000</ele>
                <time>2018-02-26T09:06:55.644Z</time>
            </trkpt>
            <trkpt lon="101.004695" lat="12.891069">
                <ele>99.600000</ele>
                <time>2018-02-26T09:06:56.644Z</time>
            </trkpt>
            <trkpt lon="101.004719" lat="12.891042">
                <ele>99.800000</ele>
                <time>2018-02-26T09:06:57.644Z</time>
            </trkpt>
            <trkpt lon="101.004741" lat="12.891019">
                <ele>100.000000</ele>
                <time>2018-02-26T09:06:58.644Z</time>
            </trkpt>
            <trkpt lon="101.004763" lat="12.890993">
                <ele>99.900000</ele>
                <time>2018-02-26T09:06:59.644Z</time>
            </trkpt>
            <trkpt lon="101.004787" lat="12.890968">
                <ele>99.900000</ele>
                <time>2018-02-26T09:07:00.644Z</time>
            </trkpt>
            <trkpt lon="101.004808" lat="12.890940">
                <ele>99.800000</ele>
                <time>2018-02-26T09:07:01.644Z</time>
            </trkpt>
            <trkpt lon="101.004829" lat="12.890915">
                <ele>99.800000</ele>
                <time>2018-02-26T09:07:02.644Z</time>
            </trkpt>
            <trkpt lon="101.004856" lat="12.890893">
                <ele>99.900000</ele>
                <time>2018-02-26T09:07:03.644Z</time>
            </trkpt>
            <trkpt lon="101.004885" lat="12.890876">
                <ele>100.200000</ele>
                <time>2018-02-26T09:07:04.644Z</time>
            </trkpt>
            <trkpt lon="101.004921" lat="12.890850">
                <ele>100.600000</ele>
                <time>2018-02-26T09:07:06.644Z</time>
            </trkpt>
            <trkpt lon="101.004966" lat="12.890855">
                <ele>101.200000</ele>
                <time>2018-02-26T09:07:08.644Z</time>
            </trkpt>
            <trkpt lon="101.004997" lat="12.890851">
                <ele>101.600000</ele>
                <time>2018-02-26T09:07:09.644Z</time>
            </trkpt>
            <trkpt lon="101.005025" lat="12.890852">
                <ele>102.000000</ele>
                <time>2018-02-26T09:07:10.644Z</time>
            </trkpt>
            <trkpt lon="101.005051" lat="12.890862">
                <ele>102.300000</ele>
                <time>2018-02-26T09:07:11.644Z</time>
            </trkpt>
            <trkpt lon="101.005092" lat="12.890874">
                <ele>102.700000</ele>
                <time>2018-02-26T09:07:13.644Z</time>
            </trkpt>
            <trkpt lon="101.005119" lat="12.890903">
                <ele>103.200000</ele>
                <time>2018-02-26T09:07:29.644Z</time>
            </trkpt>
            <trkpt lon="101.005148" lat="12.890916">
                <ele>103.600000</ele>
                <time>2018-02-26T09:07:30.644Z</time>
            </trkpt>
            <trkpt lon="101.005200" lat="12.890937">
                <ele>104.700000</ele>
                <time>2018-02-26T09:07:32.644Z</time>
            </trkpt>
            <trkpt lon="101.005230" lat="12.890954">
                <ele>105.500000</ele>
                <time>2018-02-26T09:07:33.644Z</time>
            </trkpt>
            <trkpt lon="101.005258" lat="12.890968">
                <ele>105.900000</ele>
                <time>2018-02-26T09:07:34.644Z</time>
            </trkpt>
            <trkpt lon="101.005308" lat="12.890984">
                <ele>106.600000</ele>
                <time>2018-02-26T09:07:36.644Z</time>
            </trkpt>
            <trkpt lon="101.005358" lat="12.890999">
                <ele>107.400000</ele>
                <time>2018-02-26T09:07:38.644Z</time>
            </trkpt>
            <trkpt lon="101.005398" lat="12.891009">
                <ele>108.000000</ele>
                <time>2018-02-26T09:07:40.644Z</time>
            </trkpt>
            <trkpt lon="101.005429" lat="12.891013">
                <ele>108.000000</ele>
                <time>2018-02-26T09:07:42.644Z</time>
            </trkpt>
            <trkpt lon="101.005429" lat="12.891016">
                <ele>108.000000</ele>
                <time>2018-02-26T09:07:48.644Z</time>
            </trkpt>
            <trkpt lon="101.005430" lat="12.891020">
                <ele>108.000000</ele>
                <time>2018-02-26T09:07:59.644Z</time>
            </trkpt>
            <trkpt lon="101.005430" lat="12.891024">
                <ele>108.000000</ele>
                <time>2018-02-26T09:08:49.644Z</time>
            </trkpt>
            <trkpt lon="101.005430" lat="12.891028">
                <ele>108.000000</ele>
                <time>2018-02-26T09:09:31.644Z</time>
            </trkpt>
            <trkpt lon="101.005430" lat="12.891031">
                <ele>108.000000</ele>
                <time>2018-02-26T09:09:42.644Z</time>
            </trkpt>
            <trkpt lon="101.005430" lat="12.891035">
                <ele>108.000000</ele>
                <time>2018-02-26T09:10:40.644Z</time>
            </trkpt>
            <trkpt lon="101.005431" lat="12.891039">
                <ele>108.000000</ele>
                <time>2018-02-26T09:11:06.644Z</time>
            </trkpt>
            <trkpt lon="101.005431" lat="12.891042">
                <ele>108.000000</ele>
                <time>2018-02-26T09:11:10.644Z</time>
            </trkpt>
            <trkpt lon="101.005431" lat="12.891046">
                <ele>108.000000</ele>
                <time>2018-02-26T09:11:11.644Z</time>
            </trkpt>
            <trkpt lon="101.005418" lat="12.891080">
                <ele>108.100000</ele>
                <time>2018-02-26T09:11:14.644Z</time>
            </trkpt>
            <trkpt lon="101.005411" lat="12.891116">
                <ele>108.200000</ele>
                <time>2018-02-26T09:11:17.644Z</time>
            </trkpt>
            <trkpt lon="101.005411" lat="12.891145">
                <ele>108.700000</ele>
                <time>2018-02-26T09:11:21.644Z</time>
            </trkpt>
            <trkpt lon="101.005425" lat="12.891175">
                <ele>109.300000</ele>
                <time>2018-02-26T09:11:29.644Z</time>
            </trkpt>
            <trkpt lon="101.005426" lat="12.891207">
                <ele>109.700000</ele>
                <time>2018-02-26T09:11:32.644Z</time>
            </trkpt>
            <trkpt lon="101.005413" lat="12.891239">
                <ele>110.000000</ele>
                <time>2018-02-26T09:11:34.644Z</time>
            </trkpt>
            <trkpt lon="101.005407" lat="12.891279">
                <ele>110.400000</ele>
                <time>2018-02-26T09:11:37.644Z</time>
            </trkpt>
            <trkpt lon="101.005401" lat="12.891322">
                <ele>110.700000</ele>
                <time>2018-02-26T09:11:39.644Z</time>
            </trkpt>
            <trkpt lon="101.005388" lat="12.891362">
                <ele>111.200000</ele>
                <time>2018-02-26T09:11:42.644Z</time>
            </trkpt>
            <trkpt lon="101.005390" lat="12.891403">
                <ele>111.700000</ele>
                <time>2018-02-26T09:11:44.644Z</time>
            </trkpt>
            <trkpt lon="101.005390" lat="12.891434">
                <ele>112.300000</ele>
                <time>2018-02-26T09:11:45.644Z</time>
            </trkpt>
            <trkpt lon="101.005384" lat="12.891481">
                <ele>113.300000</ele>
                <time>2018-02-26T09:11:47.644Z</time>
            </trkpt>
            <trkpt lon="101.005391" lat="12.891520">
                <ele>113.900000</ele>
                <time>2018-02-26T09:11:49.644Z</time>
            </trkpt>
            <trkpt lon="101.005396" lat="12.891553">
                <ele>114.400000</ele>
                <time>2018-02-26T09:11:52.644Z</time>
            </trkpt>
            <trkpt lon="101.005389" lat="12.891586">
                <ele>114.800000</ele>
                <time>2018-02-26T09:11:55.644Z</time>
            </trkpt>
            <trkpt lon="101.005391" lat="12.891614">
                <ele>115.100000</ele>
                <time>2018-02-26T09:11:57.644Z</time>
            </trkpt>
            <trkpt lon="101.005400" lat="12.891647">
                <ele>115.500000</ele>
                <time>2018-02-26T09:12:00.644Z</time>
            </trkpt>
            <trkpt lon="101.005414" lat="12.891677">
                <ele>115.900000</ele>
                <time>2018-02-26T09:12:14.644Z</time>
            </trkpt>
            <trkpt lon="101.005423" lat="12.891703">
                <ele>116.200000</ele>
                <time>2018-02-26T09:12:18.644Z</time>
            </trkpt>
            <trkpt lon="101.005434" lat="12.891741">
                <ele>116.300000</ele>
                <time>2018-02-26T09:12:23.644Z</time>
            </trkpt>
            <trkpt lon="101.005437" lat="12.891770">
                <ele>116.400000</ele>
                <time>2018-02-26T09:12:25.644Z</time>
            </trkpt>
            <trkpt lon="101.005446" lat="12.891796">
                <ele>116.600000</ele>
                <time>2018-02-26T09:12:28.644Z</time>
            </trkpt>
            <trkpt lon="101.005461" lat="12.891821">
                <ele>116.900000</ele>
                <time>2018-02-26T09:12:31.644Z</time>
            </trkpt>
            <trkpt lon="101.005493" lat="12.891845">
                <ele>117.300000</ele>
                <time>2018-02-26T09:12:40.644Z</time>
            </trkpt>
            <trkpt lon="101.005521" lat="12.891888">
                <ele>117.700000</ele>
                <time>2018-02-26T09:12:42.644Z</time>
            </trkpt>
            <trkpt lon="101.005545" lat="12.891923">
                <ele>118.000000</ele>
                <time>2018-02-26T09:12:44.644Z</time>
            </trkpt>
            <trkpt lon="101.005571" lat="12.891948">
                <ele>118.400000</ele>
                <time>2018-02-26T09:12:46.644Z</time>
            </trkpt>
            <trkpt lon="101.005593" lat="12.891969">
                <ele>118.700000</ele>
                <time>2018-02-26T09:12:48.644Z</time>
            </trkpt>
            <trkpt lon="101.005624" lat="12.891963">
                <ele>119.000000</ele>
                <time>2018-02-26T09:12:51.644Z</time>
            </trkpt>
            <trkpt lon="101.005655" lat="12.891955">
                <ele>119.300000</ele>
                <time>2018-02-26T09:12:54.644Z</time>
            </trkpt>
            <trkpt lon="101.005684" lat="12.891953">
                <ele>119.900000</ele>
                <time>2018-02-26T09:12:57.644Z</time>
            </trkpt>
            <trkpt lon="101.005713" lat="12.891952">
                <ele>120.600000</ele>
                <time>2018-02-26T09:13:00.644Z</time>
            </trkpt>
            <trkpt lon="101.005750" lat="12.891953">
                <ele>121.200000</ele>
                <time>2018-02-26T09:13:04.644Z</time>
            </trkpt>
            <trkpt lon="101.005779" lat="12.891965">
                <ele>121.700000</ele>
                <time>2018-02-26T09:13:07.644Z</time>
            </trkpt>
            <trkpt lon="101.005821" lat="12.891961">
                <ele>122.200000</ele>
                <time>2018-02-26T09:13:09.644Z</time>
            </trkpt>
            <trkpt lon="101.005853" lat="12.891967">
                <ele>122.600000</ele>
                <time>2018-02-26T09:13:11.644Z</time>
            </trkpt>
            <trkpt lon="101.005882" lat="12.891971">
                <ele>123.000000</ele>
                <time>2018-02-26T09:13:13.644Z</time>
            </trkpt>
            <trkpt lon="101.005923" lat="12.891958">
                <ele>123.500000</ele>
                <time>2018-02-26T09:13:16.644Z</time>
            </trkpt>
            <trkpt lon="101.005953" lat="12.891963">
                <ele>123.800000</ele>
                <time>2018-02-26T09:13:19.644Z</time>
            </trkpt>
            <trkpt lon="101.005991" lat="12.891960">
                <ele>124.300000</ele>
                <time>2018-02-26T09:13:22.644Z</time>
            </trkpt>
            <trkpt lon="101.006034" lat="12.891957">
                <ele>124.800000</ele>
                <time>2018-02-26T09:13:24.644Z</time>
            </trkpt>
            <trkpt lon="101.006073" lat="12.891961">
                <ele>125.200000</ele>
                <time>2018-02-26T09:13:27.644Z</time>
            </trkpt>
            <trkpt lon="101.006108" lat="12.891957">
                <ele>125.400000</ele>
                <time>2018-02-26T09:13:29.644Z</time>
            </trkpt>
            <trkpt lon="101.006146" lat="12.891948">
                <ele>125.700000</ele>
                <time>2018-02-26T09:13:31.644Z</time>
            </trkpt>
            <trkpt lon="101.006188" lat="12.891949">
                <ele>126.100000</ele>
                <time>2018-02-26T09:13:34.644Z</time>
            </trkpt>
            <trkpt lon="101.006227" lat="12.891960">
                <ele>126.500000</ele>
                <time>2018-02-26T09:13:37.644Z</time>
            </trkpt>
            <trkpt lon="101.006255" lat="12.891967">
                <ele>126.900000</ele>
                <time>2018-02-26T09:13:39.644Z</time>
            </trkpt>
            <trkpt lon="101.006297" lat="12.891975">
                <ele>127.300000</ele>
                <time>2018-02-26T09:13:42.644Z</time>
            </trkpt>
            <trkpt lon="101.006328" lat="12.891978">
                <ele>127.700000</ele>
                <time>2018-02-26T09:13:44.644Z</time>
            </trkpt>
            <trkpt lon="101.006370" lat="12.891980">
                <ele>128.200000</ele>
                <time>2018-02-26T09:13:47.644Z</time>
            </trkpt>
            <trkpt lon="101.006399" lat="12.891986">
                <ele>128.500000</ele>
                <time>2018-02-26T09:13:50.644Z</time>
            </trkpt>
            <trkpt lon="101.006440" lat="12.891978">
                <ele>129.000000</ele>
                <time>2018-02-26T09:13:53.644Z</time>
            </trkpt>
            <trkpt lon="101.006470" lat="12.891981">
                <ele>129.300000</ele>
                <time>2018-02-26T09:13:55.644Z</time>
            </trkpt>
            <trkpt lon="101.006502" lat="12.891997">
                <ele>129.800000</ele>
                <time>2018-02-26T09:13:58.644Z</time>
            </trkpt>
            <trkpt lon="101.006534" lat="12.891991">
                <ele>130.200000</ele>
                <time>2018-02-26T09:14:01.644Z</time>
            </trkpt>
            <trkpt lon="101.006573" lat="12.891976">
                <ele>130.900000</ele>
                <time>2018-02-26T09:14:03.644Z</time>
            </trkpt>
            <trkpt lon="101.006602" lat="12.891975">
                <ele>131.400000</ele>
                <time>2018-02-26T09:14:07.644Z</time>
            </trkpt>
            <trkpt lon="101.006630" lat="12.891951">
                <ele>132.400000</ele>
                <time>2018-02-26T09:14:10.644Z</time>
            </trkpt>
            <trkpt lon="101.006663" lat="12.891941">
                <ele>133.200000</ele>
                <time>2018-02-26T09:14:19.644Z</time>
            </trkpt>
            <trkpt lon="101.006702" lat="12.891944">
                <ele>134.200000</ele>
                <time>2018-02-26T09:14:22.644Z</time>
            </trkpt>
            <trkpt lon="101.006738" lat="12.891935">
                <ele>135.200000</ele>
                <time>2018-02-26T09:14:24.644Z</time>
            </trkpt>
            <trkpt lon="101.006777" lat="12.891928">
                <ele>136.200000</ele>
                <time>2018-02-26T09:14:27.644Z</time>
            </trkpt>
            <trkpt lon="101.006806" lat="12.891936">
                <ele>137.000000</ele>
                <time>2018-02-26T09:14:29.644Z</time>
            </trkpt>
            <trkpt lon="101.006831" lat="12.891950">
                <ele>137.800000</ele>
                <time>2018-02-26T09:14:31.644Z</time>
            </trkpt>
            <trkpt lon="101.006857" lat="12.891968">
                <ele>138.600000</ele>
                <time>2018-02-26T09:14:33.644Z</time>
            </trkpt>
            <trkpt lon="101.006881" lat="12.891984">
                <ele>139.300000</ele>
                <time>2018-02-26T09:14:35.644Z</time>
            </trkpt>
            <trkpt lon="101.006919" lat="12.892006">
                <ele>141.000000</ele>
                <time>2018-02-26T09:14:38.644Z</time>
            </trkpt>
            <trkpt lon="101.006954" lat="12.892029">
                <ele>141.100000</ele>
                <time>2018-02-26T09:14:42.644Z</time>
            </trkpt>
            <trkpt lon="101.006997" lat="12.892046">
                <ele>141.900000</ele>
                <time>2018-02-26T09:14:45.644Z</time>
            </trkpt>
            <trkpt lon="101.007025" lat="12.892065">
                <ele>142.500000</ele>
                <time>2018-02-26T09:14:48.644Z</time>
            </trkpt>
            <trkpt lon="101.007046" lat="12.892084">
                <ele>142.600000</ele>
                <time>2018-02-26T09:14:51.644Z</time>
            </trkpt>
            <trkpt lon="101.007074" lat="12.892100">
                <ele>142.800000</ele>
                <time>2018-02-26T09:14:53.644Z</time>
            </trkpt>
            <trkpt lon="101.007105" lat="12.892114">
                <ele>143.200000</ele>
                <time>2018-02-26T09:14:55.644Z</time>
            </trkpt>
            <trkpt lon="101.007133" lat="12.892139">
                <ele>143.800000</ele>
                <time>2018-02-26T09:14:58.644Z</time>
            </trkpt>
            <trkpt lon="101.007166" lat="12.892153">
                <ele>144.400000</ele>
                <time>2018-02-26T09:15:02.644Z</time>
            </trkpt>
            <trkpt lon="101.007199" lat="12.892162">
                <ele>145.600000</ele>
                <time>2018-02-26T09:15:09.644Z</time>
            </trkpt>
            <trkpt lon="101.007221" lat="12.892179">
                <ele>146.500000</ele>
                <time>2018-02-26T09:15:20.644Z</time>
            </trkpt>
            <trkpt lon="101.007235" lat="12.892136">
                <ele>148.100000</ele>
                <time>2018-02-26T09:15:24.644Z</time>
            </trkpt>
            <trkpt lon="101.007255" lat="12.892098">
                <ele>149.600000</ele>
                <time>2018-02-26T09:15:26.644Z</time>
            </trkpt>
            <trkpt lon="101.007273" lat="12.892068">
                <ele>150.900000</ele>
                <time>2018-02-26T09:15:28.644Z</time>
            </trkpt>
            <trkpt lon="101.007309" lat="12.892038">
                <ele>152.500000</ele>
                <time>2018-02-26T09:15:30.644Z</time>
            </trkpt>
            <trkpt lon="101.007329" lat="12.892016">
                <ele>153.600000</ele>
                <time>2018-02-26T09:15:32.644Z</time>
            </trkpt>
            <trkpt lon="101.007355" lat="12.892001">
                <ele>154.400000</ele>
                <time>2018-02-26T09:15:34.644Z</time>
            </trkpt>
            <trkpt lon="101.007390" lat="12.891986">
                <ele>155.500000</ele>
                <time>2018-02-26T09:15:36.644Z</time>
            </trkpt>
            <trkpt lon="101.007424" lat="12.891989">
                <ele>156.400000</ele>
                <time>2018-02-26T09:15:38.644Z</time>
            </trkpt>
            <trkpt lon="101.007455" lat="12.891986">
                <ele>157.100000</ele>
                <time>2018-02-26T09:15:39.644Z</time>
            </trkpt>
            <trkpt lon="101.007497" lat="12.891982">
                <ele>158.100000</ele>
                <time>2018-02-26T09:15:41.644Z</time>
            </trkpt>
            <trkpt lon="101.007526" lat="12.891969">
                <ele>159.000000</ele>
                <time>2018-02-26T09:15:43.644Z</time>
            </trkpt>
            <trkpt lon="101.007555" lat="12.891958">
                <ele>160.000000</ele>
                <time>2018-02-26T09:15:45.644Z</time>
            </trkpt>
            <trkpt lon="101.007585" lat="12.891953">
                <ele>161.100000</ele>
                <time>2018-02-26T09:15:48.644Z</time>
            </trkpt>
            <trkpt lon="101.007615" lat="12.891956">
                <ele>162.100000</ele>
                <time>2018-02-26T09:15:52.644Z</time>
            </trkpt>
            <trkpt lon="101.007648" lat="12.891967">
                <ele>163.100000</ele>
                <time>2018-02-26T09:15:57.644Z</time>
            </trkpt>
            <trkpt lon="101.007673" lat="12.891977">
                <ele>163.800000</ele>
                <time>2018-02-26T09:15:59.644Z</time>
            </trkpt>
            <trkpt lon="101.007701" lat="12.891982">
                <ele>164.600000</ele>
                <time>2018-02-26T09:16:08.644Z</time>
            </trkpt>
            <trkpt lon="101.007732" lat="12.892000">
                <ele>164.600000</ele>
                <time>2018-02-26T09:16:13.644Z</time>
            </trkpt>
            <trkpt lon="101.007752" lat="12.892023">
                <ele>164.200000</ele>
                <time>2018-02-26T09:16:16.644Z</time>
            </trkpt>
            <trkpt lon="101.007766" lat="12.892051">
                <ele>163.700000</ele>
                <time>2018-02-26T09:16:19.644Z</time>
            </trkpt>
            <trkpt lon="101.007796" lat="12.892061">
                <ele>163.800000</ele>
                <time>2018-02-26T09:16:25.644Z</time>
            </trkpt>
            <trkpt lon="101.007816" lat="12.892081">
                <ele>164.100000</ele>
                <time>2018-02-26T09:16:31.644Z</time>
            </trkpt>
            <trkpt lon="101.007843" lat="12.892099">
                <ele>164.400000</ele>
                <time>2018-02-26T09:16:33.644Z</time>
            </trkpt>
            <trkpt lon="101.007871" lat="12.892124">
                <ele>164.600000</ele>
                <time>2018-02-26T09:16:35.644Z</time>
            </trkpt>
            <trkpt lon="101.007895" lat="12.892154">
                <ele>164.700000</ele>
                <time>2018-02-26T09:16:44.644Z</time>
            </trkpt>
            <trkpt lon="101.007915" lat="12.892177">
                <ele>164.800000</ele>
                <time>2018-02-26T09:16:46.644Z</time>
            </trkpt>
            <trkpt lon="101.007931" lat="12.892199">
                <ele>164.900000</ele>
                <time>2018-02-26T09:16:48.644Z</time>
            </trkpt>
            <trkpt lon="101.007947" lat="12.892225">
                <ele>165.000000</ele>
                <time>2018-02-26T09:16:51.644Z</time>
            </trkpt>
            <trkpt lon="101.007955" lat="12.892262">
                <ele>165.100000</ele>
                <time>2018-02-26T09:16:53.644Z</time>
            </trkpt>
            <trkpt lon="101.007976" lat="12.892282">
                <ele>165.400000</ele>
                <time>2018-02-26T09:17:02.644Z</time>
            </trkpt>
            <trkpt lon="101.007990" lat="12.892319">
                <ele>165.700000</ele>
                <time>2018-02-26T09:17:07.644Z</time>
            </trkpt>
            <trkpt lon="101.008001" lat="12.892348">
                <ele>166.000000</ele>
                <time>2018-02-26T09:17:09.644Z</time>
            </trkpt>
            <trkpt lon="101.008031" lat="12.892373">
                <ele>166.600000</ele>
                <time>2018-02-26T09:17:12.644Z</time>
            </trkpt>
            <trkpt lon="101.008043" lat="12.892411">
                <ele>167.100000</ele>
                <time>2018-02-26T09:17:14.644Z</time>
            </trkpt>
            <trkpt lon="101.008055" lat="12.892445">
                <ele>167.800000</ele>
                <time>2018-02-26T09:17:16.644Z</time>
            </trkpt>
            <trkpt lon="101.008077" lat="12.892479">
                <ele>168.600000</ele>
                <time>2018-02-26T09:17:19.644Z</time>
            </trkpt>
            <trkpt lon="101.008096" lat="12.892506">
                <ele>169.300000</ele>
                <time>2018-02-26T09:17:21.644Z</time>
            </trkpt>
            <trkpt lon="101.008118" lat="12.892526">
                <ele>169.900000</ele>
                <time>2018-02-26T09:17:23.644Z</time>
            </trkpt>
            <trkpt lon="101.008151" lat="12.892526">
                <ele>170.600000</ele>
                <time>2018-02-26T09:17:30.644Z</time>
            </trkpt>
            <trkpt lon="101.008182" lat="12.892515">
                <ele>171.100000</ele>
                <time>2018-02-26T09:17:33.644Z</time>
            </trkpt>
            <trkpt lon="101.008211" lat="12.892505">
                <ele>171.600000</ele>
                <time>2018-02-26T09:17:36.644Z</time>
            </trkpt>
            <trkpt lon="101.008245" lat="12.892495">
                <ele>172.200000</ele>
                <time>2018-02-26T09:17:39.644Z</time>
            </trkpt>
            <trkpt lon="101.008280" lat="12.892497">
                <ele>172.700000</ele>
                <time>2018-02-26T09:17:42.644Z</time>
            </trkpt>
            <trkpt lon="101.008313" lat="12.892493">
                <ele>173.100000</ele>
                <time>2018-02-26T09:17:45.644Z</time>
            </trkpt>
            <trkpt lon="101.008338" lat="12.892480">
                <ele>173.400000</ele>
                <time>2018-02-26T09:17:48.644Z</time>
            </trkpt>
            <trkpt lon="101.008367" lat="12.892478">
                <ele>173.800000</ele>
                <time>2018-02-26T09:17:50.644Z</time>
            </trkpt>
            <trkpt lon="101.008400" lat="12.892478">
                <ele>174.200000</ele>
                <time>2018-02-26T09:17:53.644Z</time>
            </trkpt>
            <trkpt lon="101.008433" lat="12.892480">
                <ele>174.600000</ele>
                <time>2018-02-26T09:17:57.644Z</time>
            </trkpt>
            <trkpt lon="101.008461" lat="12.892469">
                <ele>175.000000</ele>
                <time>2018-02-26T09:18:01.644Z</time>
            </trkpt>
            <trkpt lon="101.008498" lat="12.892473">
                <ele>175.400000</ele>
                <time>2018-02-26T09:18:05.644Z</time>
            </trkpt>
            <trkpt lon="101.008534" lat="12.892474">
                <ele>175.800000</ele>
                <time>2018-02-26T09:18:08.644Z</time>
            </trkpt>
            <trkpt lon="101.008568" lat="12.892461">
                <ele>176.100000</ele>
                <time>2018-02-26T09:18:11.644Z</time>
            </trkpt>
            <trkpt lon="101.008594" lat="12.892451">
                <ele>176.300000</ele>
                <time>2018-02-26T09:18:14.644Z</time>
            </trkpt>
            <trkpt lon="101.008622" lat="12.892457">
                <ele>176.600000</ele>
                <time>2018-02-26T09:18:16.644Z</time>
            </trkpt>
            <trkpt lon="101.008646" lat="12.892471">
                <ele>176.800000</ele>
                <time>2018-02-26T09:18:19.644Z</time>
            </trkpt>
            <trkpt lon="101.008689" lat="12.892481">
                <ele>178.400000</ele>
                <time>2018-02-26T09:18:21.644Z</time>
            </trkpt>
            <trkpt lon="101.008726" lat="12.892497">
                <ele>178.500000</ele>
                <time>2018-02-26T09:18:23.644Z</time>
            </trkpt>
            <trkpt lon="101.008755" lat="12.892508">
                <ele>178.700000</ele>
                <time>2018-02-26T09:18:26.644Z</time>
            </trkpt>
            <trkpt lon="101.008773" lat="12.892537">
                <ele>178.800000</ele>
                <time>2018-02-26T09:18:29.644Z</time>
            </trkpt>
            <trkpt lon="101.008794" lat="12.892555">
                <ele>178.900000</ele>
                <time>2018-02-26T09:18:32.644Z</time>
            </trkpt>
            <trkpt lon="101.008805" lat="12.892583">
                <ele>178.900000</ele>
                <time>2018-02-26T09:18:34.644Z</time>
            </trkpt>
            <trkpt lon="101.008806" lat="12.892621">
                <ele>179.000000</ele>
                <time>2018-02-26T09:18:36.644Z</time>
            </trkpt>
            <trkpt lon="101.008793" lat="12.892679">
                <ele>179.000000</ele>
                <time>2018-02-26T09:18:38.644Z</time>
            </trkpt>
            <trkpt lon="101.008783" lat="12.892711">
                <ele>179.000000</ele>
                <time>2018-02-26T09:18:39.644Z</time>
            </trkpt>
            <trkpt lon="101.008772" lat="12.892736">
                <ele>178.900000</ele>
                <time>2018-02-26T09:18:40.644Z</time>
            </trkpt>
            <trkpt lon="101.008759" lat="12.892763">
                <ele>178.800000</ele>
                <time>2018-02-26T09:18:41.644Z</time>
            </trkpt>
            <trkpt lon="101.008756" lat="12.892801">
                <ele>178.700000</ele>
                <time>2018-02-26T09:18:43.644Z</time>
            </trkpt>
            <trkpt lon="101.008766" lat="12.892836">
                <ele>178.900000</ele>
                <time>2018-02-26T09:18:46.644Z</time>
            </trkpt>
            <trkpt lon="101.008775" lat="12.892871">
                <ele>179.200000</ele>
                <time>2018-02-26T09:18:48.644Z</time>
            </trkpt>
            <trkpt lon="101.008787" lat="12.892908">
                <ele>179.900000</ele>
                <time>2018-02-26T09:18:51.644Z</time>
            </trkpt>
            <trkpt lon="101.008794" lat="12.892942">
                <ele>180.700000</ele>
                <time>2018-02-26T09:18:54.644Z</time>
            </trkpt>
            <trkpt lon="101.008809" lat="12.892967">
                <ele>181.400000</ele>
                <time>2018-02-26T09:19:04.644Z</time>
            </trkpt>
            <trkpt lon="101.008838" lat="12.892997">
                <ele>182.000000</ele>
                <time>2018-02-26T09:19:08.644Z</time>
            </trkpt>
            <trkpt lon="101.008854" lat="12.893023">
                <ele>182.500000</ele>
                <time>2018-02-26T09:19:10.644Z</time>
            </trkpt>
            <trkpt lon="101.008874" lat="12.893049">
                <ele>183.100000</ele>
                <time>2018-02-26T09:19:12.644Z</time>
            </trkpt>
            <trkpt lon="101.008887" lat="12.893075">
                <ele>183.500000</ele>
                <time>2018-02-26T09:19:14.644Z</time>
            </trkpt>
            <trkpt lon="101.008906" lat="12.893096">
                <ele>184.000000</ele>
                <time>2018-02-26T09:19:16.644Z</time>
            </trkpt>
            <trkpt lon="101.008936" lat="12.893121">
                <ele>184.800000</ele>
                <time>2018-02-26T09:19:19.644Z</time>
            </trkpt>
            <trkpt lon="101.008964" lat="12.893148">
                <ele>185.900000</ele>
                <time>2018-02-26T09:19:22.644Z</time>
            </trkpt>
            <trkpt lon="101.008989" lat="12.893164">
                <ele>186.700000</ele>
                <time>2018-02-26T09:19:24.644Z</time>
            </trkpt>
            <trkpt lon="101.009007" lat="12.893187">
                <ele>187.000000</ele>
                <time>2018-02-26T09:19:30.644Z</time>
            </trkpt>
            <trkpt lon="101.009030" lat="12.893207">
                <ele>187.200000</ele>
                <time>2018-02-26T09:19:32.644Z</time>
            </trkpt>
            <trkpt lon="101.009071" lat="12.893219">
                <ele>187.400000</ele>
                <time>2018-02-26T09:19:34.644Z</time>
            </trkpt>
            <trkpt lon="101.009099" lat="12.893222">
                <ele>187.600000</ele>
                <time>2018-02-26T09:19:36.644Z</time>
            </trkpt>
            <trkpt lon="101.009116" lat="12.893244">
                <ele>187.800000</ele>
                <time>2018-02-26T09:19:39.644Z</time>
            </trkpt>
            <trkpt lon="101.009140" lat="12.893266">
                <ele>188.000000</ele>
                <time>2018-02-26T09:19:44.644Z</time>
            </trkpt>
            <trkpt lon="101.009155" lat="12.893295">
                <ele>188.400000</ele>
                <time>2018-02-26T09:19:47.644Z</time>
            </trkpt>
            <trkpt lon="101.009171" lat="12.893319">
                <ele>188.700000</ele>
                <time>2018-02-26T09:19:49.644Z</time>
            </trkpt>
            <trkpt lon="101.009191" lat="12.893339">
                <ele>189.000000</ele>
                <time>2018-02-26T09:19:51.644Z</time>
            </trkpt>
            <trkpt lon="101.009212" lat="12.893370">
                <ele>189.200000</ele>
                <time>2018-02-26T09:19:54.644Z</time>
            </trkpt>
            <trkpt lon="101.009243" lat="12.893392">
                <ele>189.400000</ele>
                <time>2018-02-26T09:20:09.644Z</time>
            </trkpt>
            <trkpt lon="101.009267" lat="12.893422">
                <ele>189.400000</ele>
                <time>2018-02-26T09:20:12.644Z</time>
            </trkpt>
            <trkpt lon="101.009295" lat="12.893451">
                <ele>189.300000</ele>
                <time>2018-02-26T09:20:15.644Z</time>
            </trkpt>
            <trkpt lon="101.009309" lat="12.893482">
                <ele>189.400000</ele>
                <time>2018-02-26T09:20:20.644Z</time>
            </trkpt>
            <trkpt lon="101.009328" lat="12.893507">
                <ele>190.000000</ele>
                <time>2018-02-26T09:20:22.644Z</time>
            </trkpt>
            <trkpt lon="101.009349" lat="12.893538">
                <ele>190.800000</ele>
                <time>2018-02-26T09:20:24.644Z</time>
            </trkpt>
            <trkpt lon="101.009372" lat="12.893560">
                <ele>191.200000</ele>
                <time>2018-02-26T09:20:26.644Z</time>
            </trkpt>
            <trkpt lon="101.009398" lat="12.893580">
                <ele>191.400000</ele>
                <time>2018-02-26T09:20:28.644Z</time>
            </trkpt>
            <trkpt lon="101.009415" lat="12.893602">
                <ele>191.600000</ele>
                <time>2018-02-26T09:20:30.644Z</time>
            </trkpt>
            <trkpt lon="101.009424" lat="12.893629">
                <ele>191.800000</ele>
                <time>2018-02-26T09:20:32.644Z</time>
            </trkpt>
            <trkpt lon="101.009443" lat="12.893655">
                <ele>192.100000</ele>
                <time>2018-02-26T09:20:36.644Z</time>
            </trkpt>
            <trkpt lon="101.009461" lat="12.893684">
                <ele>192.400000</ele>
                <time>2018-02-26T09:20:39.644Z</time>
            </trkpt>
            <trkpt lon="101.009475" lat="12.893709">
                <ele>192.900000</ele>
                <time>2018-02-26T09:20:43.644Z</time>
            </trkpt>
            <trkpt lon="101.009493" lat="12.893736">
                <ele>193.400000</ele>
                <time>2018-02-26T09:20:47.644Z</time>
            </trkpt>
            <trkpt lon="101.009521" lat="12.893763">
                <ele>194.100000</ele>
                <time>2018-02-26T09:20:51.644Z</time>
            </trkpt>
            <trkpt lon="101.009539" lat="12.893786">
                <ele>194.600000</ele>
                <time>2018-02-26T09:20:59.644Z</time>
            </trkpt>
            <trkpt lon="101.009560" lat="12.893810">
                <ele>195.100000</ele>
                <time>2018-02-26T09:21:01.644Z</time>
            </trkpt>
            <trkpt lon="101.009584" lat="12.893828">
                <ele>195.600000</ele>
                <time>2018-02-26T09:21:03.644Z</time>
            </trkpt>
            <trkpt lon="101.009620" lat="12.893850">
                <ele>196.400000</ele>
                <time>2018-02-26T09:21:06.644Z</time>
            </trkpt>
            <trkpt lon="101.009651" lat="12.893871">
                <ele>197.100000</ele>
                <time>2018-02-26T09:21:09.644Z</time>
            </trkpt>
            <trkpt lon="101.009668" lat="12.893901">
                <ele>198.100000</ele>
                <time>2018-02-26T09:21:12.644Z</time>
            </trkpt>
            <trkpt lon="101.009679" lat="12.893936">
                <ele>199.200000</ele>
                <time>2018-02-26T09:21:15.644Z</time>
            </trkpt>
            <trkpt lon="101.009698" lat="12.893964">
                <ele>200.200000</ele>
                <time>2018-02-26T09:21:18.644Z</time>
            </trkpt>
            <trkpt lon="101.009721" lat="12.893980">
                <ele>201.200000</ele>
                <time>2018-02-26T09:21:38.644Z</time>
            </trkpt>
            <trkpt lon="101.009750" lat="12.893991">
                <ele>202.200000</ele>
                <time>2018-02-26T09:21:40.644Z</time>
            </trkpt>
            <trkpt lon="101.009777" lat="12.894005">
                <ele>203.300000</ele>
                <time>2018-02-26T09:21:42.644Z</time>
            </trkpt>
            <trkpt lon="101.009813" lat="12.894002">
                <ele>204.000000</ele>
                <time>2018-02-26T09:21:46.644Z</time>
            </trkpt>
            <trkpt lon="101.009849" lat="12.893990">
                <ele>204.600000</ele>
                <time>2018-02-26T09:21:49.644Z</time>
            </trkpt>
            <trkpt lon="101.009885" lat="12.893984">
                <ele>206.100000</ele>
                <time>2018-02-26T09:21:52.644Z</time>
            </trkpt>
            <trkpt lon="101.009913" lat="12.893977">
                <ele>207.300000</ele>
                <time>2018-02-26T09:21:56.644Z</time>
            </trkpt>
            <trkpt lon="101.009936" lat="12.893958">
                <ele>208.100000</ele>
                <time>2018-02-26T09:21:59.644Z</time>
            </trkpt>
            <trkpt lon="101.009966" lat="12.893950">
                <ele>208.800000</ele>
                <time>2018-02-26T09:22:02.644Z</time>
            </trkpt>
            <trkpt lon="101.009993" lat="12.893940">
                <ele>209.500000</ele>
                <time>2018-02-26T09:22:05.644Z</time>
            </trkpt>
            <trkpt lon="101.010020" lat="12.893924">
                <ele>210.800000</ele>
                <time>2018-02-26T09:22:19.644Z</time>
            </trkpt>
            <trkpt lon="101.010050" lat="12.893907">
                <ele>212.300000</ele>
                <time>2018-02-26T09:22:21.644Z</time>
            </trkpt>
            <trkpt lon="101.010090" lat="12.893892">
                <ele>214.200000</ele>
                <time>2018-02-26T09:22:24.644Z</time>
            </trkpt>
            <trkpt lon="101.010122" lat="12.893891">
                <ele>215.600000</ele>
                <time>2018-02-26T09:22:25.644Z</time>
            </trkpt>
            <trkpt lon="101.010150" lat="12.893892">
                <ele>216.500000</ele>
                <time>2018-02-26T09:22:26.644Z</time>
            </trkpt>
            <trkpt lon="101.010182" lat="12.893893">
                <ele>217.200000</ele>
                <time>2018-02-26T09:22:28.644Z</time>
            </trkpt>
            <trkpt lon="101.010209" lat="12.893881">
                <ele>218.000000</ele>
                <time>2018-02-26T09:22:31.644Z</time>
            </trkpt>
            <trkpt lon="101.010241" lat="12.893879">
                <ele>219.400000</ele>
                <time>2018-02-26T09:22:34.644Z</time>
            </trkpt>
            <trkpt lon="101.010279" lat="12.893879">
                <ele>221.000000</ele>
                <time>2018-02-26T09:22:36.644Z</time>
            </trkpt>
            <trkpt lon="101.010310" lat="12.893890">
                <ele>222.100000</ele>
                <time>2018-02-26T09:22:38.644Z</time>
            </trkpt>
            <trkpt lon="101.010338" lat="12.893892">
                <ele>222.900000</ele>
                <time>2018-02-26T09:22:41.644Z</time>
            </trkpt>
            <trkpt lon="101.010373" lat="12.893883">
                <ele>223.800000</ele>
                <time>2018-02-26T09:22:44.644Z</time>
            </trkpt>
            <trkpt lon="101.010411" lat="12.893888">
                <ele>224.700000</ele>
                <time>2018-02-26T09:22:47.644Z</time>
            </trkpt>
            <trkpt lon="101.010442" lat="12.893887">
                <ele>225.300000</ele>
                <time>2018-02-26T09:22:50.644Z</time>
            </trkpt>
            <trkpt lon="101.010472" lat="12.893886">
                <ele>225.900000</ele>
                <time>2018-02-26T09:22:56.644Z</time>
            </trkpt>
            <trkpt lon="101.010502" lat="12.893899">
                <ele>226.400000</ele>
                <time>2018-02-26T09:23:09.644Z</time>
            </trkpt>
            <trkpt lon="101.010532" lat="12.893895">
                <ele>226.900000</ele>
                <time>2018-02-26T09:23:13.644Z</time>
            </trkpt>
            <trkpt lon="101.010546" lat="12.893870">
                <ele>227.300000</ele>
                <time>2018-02-26T09:23:15.644Z</time>
            </trkpt>
            <trkpt lon="101.010573" lat="12.893852">
                <ele>227.600000</ele>
                <time>2018-02-26T09:23:17.644Z</time>
            </trkpt>
            <trkpt lon="101.010592" lat="12.893830">
                <ele>227.900000</ele>
                <time>2018-02-26T09:23:21.644Z</time>
            </trkpt>
            <trkpt lon="101.010620" lat="12.893809">
                <ele>228.200000</ele>
                <time>2018-02-26T09:23:31.644Z</time>
            </trkpt>
            <trkpt lon="101.010649" lat="12.893789">
                <ele>228.000000</ele>
                <time>2018-02-26T09:23:38.644Z</time>
            </trkpt>
            <trkpt lon="101.010682" lat="12.893773">
                <ele>227.700000</ele>
                <time>2018-02-26T09:23:42.644Z</time>
            </trkpt>
            <trkpt lon="101.010707" lat="12.893755">
                <ele>227.500000</ele>
                <time>2018-02-26T09:23:45.644Z</time>
            </trkpt>
            <trkpt lon="101.010731" lat="12.893734">
                <ele>227.300000</ele>
                <time>2018-02-26T09:23:48.644Z</time>
            </trkpt>
            <trkpt lon="101.010750" lat="12.893698">
                <ele>227.100000</ele>
                <time>2018-02-26T09:23:51.644Z</time>
            </trkpt>
            <trkpt lon="101.010770" lat="12.893666">
                <ele>226.900000</ele>
                <time>2018-02-26T09:23:54.644Z</time>
            </trkpt>
            <trkpt lon="101.010745" lat="12.893681">
                <ele>226.800000</ele>
                <time>2018-02-26T09:24:06.644Z</time>
            </trkpt>
            <trkpt lon="101.010776" lat="12.893664">
                <ele>226.600000</ele>
                <time>2018-02-26T09:24:46.644Z</time>
            </trkpt>
            <trkpt lon="101.010814" lat="12.893653">
                <ele>225.900000</ele>
                <time>2018-02-26T09:24:48.644Z</time>
            </trkpt>
            <trkpt lon="101.010849" lat="12.893641">
                <ele>225.200000</ele>
                <time>2018-02-26T09:24:50.644Z</time>
            </trkpt>
            <trkpt lon="101.010893" lat="12.893604">
                <ele>224.500000</ele>
                <time>2018-02-26T09:24:52.644Z</time>
            </trkpt>
            <trkpt lon="101.010920" lat="12.893582">
                <ele>224.200000</ele>
                <time>2018-02-26T09:24:53.644Z</time>
            </trkpt>
            <trkpt lon="101.010947" lat="12.893550">
                <ele>223.800000</ele>
                <time>2018-02-26T09:24:54.644Z</time>
            </trkpt>
            <trkpt lon="101.010996" lat="12.893509">
                <ele>223.300000</ele>
                <time>2018-02-26T09:24:55.644Z</time>
            </trkpt>
            <trkpt lon="101.011053" lat="12.893459">
                <ele>221.500000</ele>
                <time>2018-02-26T09:24:56.644Z</time>
            </trkpt>
            <trkpt lon="101.011112" lat="12.893414">
                <ele>220.600000</ele>
                <time>2018-02-26T09:24:57.644Z</time>
            </trkpt>
            <trkpt lon="101.011171" lat="12.893376">
                <ele>219.900000</ele>
                <time>2018-02-26T09:24:58.644Z</time>
            </trkpt>
            <trkpt lon="101.011226" lat="12.893339">
                <ele>219.400000</ele>
                <time>2018-02-26T09:24:59.644Z</time>
            </trkpt>
            <trkpt lon="101.011281" lat="12.893295">
                <ele>219.100000</ele>
                <time>2018-02-26T09:25:00.644Z</time>
            </trkpt>
            <trkpt lon="101.011322" lat="12.893265">
                <ele>219.500000</ele>
                <time>2018-02-26T09:25:01.644Z</time>
            </trkpt>
            <trkpt lon="101.011358" lat="12.893241">
                <ele>219.800000</ele>
                <time>2018-02-26T09:25:02.644Z</time>
            </trkpt>
            <trkpt lon="101.011389" lat="12.893225">
                <ele>220.100000</ele>
                <time>2018-02-26T09:25:03.644Z</time>
            </trkpt>
            <trkpt lon="101.011416" lat="12.893213">
                <ele>220.300000</ele>
                <time>2018-02-26T09:25:04.644Z</time>
            </trkpt>
            <trkpt lon="101.011442" lat="12.893198">
                <ele>220.500000</ele>
                <time>2018-02-26T09:25:05.644Z</time>
            </trkpt>
            <trkpt lon="101.011474" lat="12.893175">
                <ele>220.500000</ele>
                <time>2018-02-26T09:25:07.644Z</time>
            </trkpt>
            <trkpt lon="101.011502" lat="12.893153">
                <ele>220.500000</ele>
                <time>2018-02-26T09:25:09.644Z</time>
            </trkpt>
            <trkpt lon="101.011532" lat="12.893114">
                <ele>220.700000</ele>
                <time>2018-02-26T09:25:11.644Z</time>
            </trkpt>
            <trkpt lon="101.011560" lat="12.893074">
                <ele>220.500000</ele>
                <time>2018-02-26T09:25:12.644Z</time>
            </trkpt>
            <trkpt lon="101.011582" lat="12.893037">
                <ele>220.400000</ele>
                <time>2018-02-26T09:25:13.644Z</time>
            </trkpt>
            <trkpt lon="101.011599" lat="12.893005">
                <ele>220.300000</ele>
                <time>2018-02-26T09:25:14.644Z</time>
            </trkpt>
            <trkpt lon="101.011618" lat="12.892978">
                <ele>220.300000</ele>
                <time>2018-02-26T09:25:15.644Z</time>
            </trkpt>
            <trkpt lon="101.011636" lat="12.892954">
                <ele>220.500000</ele>
                <time>2018-02-26T09:25:16.644Z</time>
            </trkpt>
            <trkpt lon="101.011660" lat="12.892912">
                <ele>220.700000</ele>
                <time>2018-02-26T09:25:18.644Z</time>
            </trkpt>
            <trkpt lon="101.011684" lat="12.892875">
                <ele>220.700000</ele>
                <time>2018-02-26T09:25:20.644Z</time>
            </trkpt>
            <trkpt lon="101.011703" lat="12.892842">
                <ele>221.000000</ele>
                <time>2018-02-26T09:25:22.644Z</time>
            </trkpt>
            <trkpt lon="101.011720" lat="12.892814">
                <ele>221.300000</ele>
                <time>2018-02-26T09:25:24.644Z</time>
            </trkpt>
            <trkpt lon="101.011734" lat="12.892785">
                <ele>221.900000</ele>
                <time>2018-02-26T09:25:27.644Z</time>
            </trkpt>
            <trkpt lon="101.011750" lat="12.892762">
                <ele>222.600000</ele>
                <time>2018-02-26T09:25:34.644Z</time>
            </trkpt>
            <trkpt lon="101.011770" lat="12.892742">
                <ele>223.000000</ele>
                <time>2018-02-26T09:25:36.644Z</time>
            </trkpt>
            <trkpt lon="101.011793" lat="12.892714">
                <ele>223.000000</ele>
                <time>2018-02-26T09:25:39.644Z</time>
            </trkpt>
            <trkpt lon="101.011814" lat="12.892693">
                <ele>223.200000</ele>
                <time>2018-02-26T09:25:52.644Z</time>
            </trkpt>
            <trkpt lon="101.011852" lat="12.892651">
                <ele>224.100000</ele>
                <time>2018-02-26T09:26:07.644Z</time>
            </trkpt>
            <trkpt lon="101.011872" lat="12.892624">
                <ele>225.000000</ele>
                <time>2018-02-26T09:26:10.644Z</time>
            </trkpt>
            <trkpt lon="101.011895" lat="12.892590">
                <ele>226.300000</ele>
                <time>2018-02-26T09:26:14.644Z</time>
            </trkpt>
            <trkpt lon="101.011914" lat="12.892556">
                <ele>226.900000</ele>
                <time>2018-02-26T09:26:16.644Z</time>
            </trkpt>
            <trkpt lon="101.011927" lat="12.892526">
                <ele>227.200000</ele>
                <time>2018-02-26T09:26:18.644Z</time>
            </trkpt>
            <trkpt lon="101.011938" lat="12.892493">
                <ele>227.400000</ele>
                <time>2018-02-26T09:26:20.644Z</time>
            </trkpt>
            <trkpt lon="101.011971" lat="12.892445">
                <ele>227.600000</ele>
                <time>2018-02-26T09:26:22.644Z</time>
            </trkpt>
            <trkpt lon="101.011985" lat="12.892421">
                <ele>227.700000</ele>
                <time>2018-02-26T09:26:23.644Z</time>
            </trkpt>
            <trkpt lon="101.012006" lat="12.892389">
                <ele>227.800000</ele>
                <time>2018-02-26T09:26:25.644Z</time>
            </trkpt>
            <trkpt lon="101.012021" lat="12.892357">
                <ele>227.700000</ele>
                <time>2018-02-26T09:26:27.644Z</time>
            </trkpt>
            <trkpt lon="101.012032" lat="12.892329">
                <ele>227.500000</ele>
                <time>2018-02-26T09:26:28.644Z</time>
            </trkpt>
            <trkpt lon="101.012040" lat="12.892298">
                <ele>227.300000</ele>
                <time>2018-02-26T09:26:29.644Z</time>
            </trkpt>
            <trkpt lon="101.012048" lat="12.892269">
                <ele>227.100000</ele>
                <time>2018-02-26T09:26:30.644Z</time>
            </trkpt>
            <trkpt lon="101.012054" lat="12.892242">
                <ele>227.000000</ele>
                <time>2018-02-26T09:26:31.644Z</time>
            </trkpt>
            <trkpt lon="101.012061" lat="12.892196">
                <ele>227.000000</ele>
                <time>2018-02-26T09:26:33.644Z</time>
            </trkpt>
            <trkpt lon="101.012061" lat="12.892168">
                <ele>227.000000</ele>
                <time>2018-02-26T09:26:35.644Z</time>
            </trkpt>
            <trkpt lon="101.012057" lat="12.892141">
                <ele>227.000000</ele>
                <time>2018-02-26T09:26:38.644Z</time>
            </trkpt>
            <trkpt lon="101.012048" lat="12.892111">
                <ele>226.900000</ele>
                <time>2018-02-26T09:26:43.644Z</time>
            </trkpt>
            <trkpt lon="101.012028" lat="12.892089">
                <ele>226.900000</ele>
                <time>2018-02-26T09:26:45.644Z</time>
            </trkpt>
            <trkpt lon="101.011997" lat="12.892065">
                <ele>226.700000</ele>
                <time>2018-02-26T09:26:47.644Z</time>
            </trkpt>
            <trkpt lon="101.011969" lat="12.892049">
                <ele>226.600000</ele>
                <time>2018-02-26T09:26:51.644Z</time>
            </trkpt>
            <trkpt lon="101.011947" lat="12.892030">
                <ele>226.500000</ele>
                <time>2018-02-26T09:26:53.644Z</time>
            </trkpt>
            <trkpt lon="101.011914" lat="12.892004">
                <ele>226.400000</ele>
                <time>2018-02-26T09:26:55.644Z</time>
            </trkpt>
            <trkpt lon="101.011867" lat="12.891972">
                <ele>226.300000</ele>
                <time>2018-02-26T09:26:57.644Z</time>
            </trkpt>
            <trkpt lon="101.011830" lat="12.891953">
                <ele>226.200000</ele>
                <time>2018-02-26T09:26:58.644Z</time>
            </trkpt>
            <trkpt lon="101.011786" lat="12.891936">
                <ele>225.900000</ele>
                <time>2018-02-26T09:26:59.644Z</time>
            </trkpt>
            <trkpt lon="101.011744" lat="12.891923">
                <ele>225.500000</ele>
                <time>2018-02-26T09:27:00.644Z</time>
            </trkpt>
            <trkpt lon="101.011701" lat="12.891916">
                <ele>225.200000</ele>
                <time>2018-02-26T09:27:01.644Z</time>
            </trkpt>
            <trkpt lon="101.011654" lat="12.891909">
                <ele>224.800000</ele>
                <time>2018-02-26T09:27:02.644Z</time>
            </trkpt>
            <trkpt lon="101.011612" lat="12.891902">
                <ele>224.400000</ele>
                <time>2018-02-26T09:27:03.644Z</time>
            </trkpt>
            <trkpt lon="101.011572" lat="12.891889">
                <ele>223.900000</ele>
                <time>2018-02-26T09:27:04.644Z</time>
            </trkpt>
            <trkpt lon="101.011535" lat="12.891874">
                <ele>223.600000</ele>
                <time>2018-02-26T09:27:05.644Z</time>
            </trkpt>
            <trkpt lon="101.011504" lat="12.891859">
                <ele>223.400000</ele>
                <time>2018-02-26T09:27:06.644Z</time>
            </trkpt>
            <trkpt lon="101.011461" lat="12.891831">
                <ele>223.000000</ele>
                <time>2018-02-26T09:27:08.644Z</time>
            </trkpt>
            <trkpt lon="101.011428" lat="12.891800">
                <ele>223.000000</ele>
                <time>2018-02-26T09:27:10.644Z</time>
            </trkpt>
            <trkpt lon="101.011406" lat="12.891757">
                <ele>223.000000</ele>
                <time>2018-02-26T09:27:12.644Z</time>
            </trkpt>
            <trkpt lon="101.011386" lat="12.891725">
                <ele>223.200000</ele>
                <time>2018-02-26T09:27:14.644Z</time>
            </trkpt>
            <trkpt lon="101.011367" lat="12.891697">
                <ele>223.400000</ele>
                <time>2018-02-26T09:27:17.644Z</time>
            </trkpt>
            <trkpt lon="101.011348" lat="12.891672">
                <ele>223.700000</ele>
                <time>2018-02-26T09:27:19.644Z</time>
            </trkpt>
            <trkpt lon="101.011329" lat="12.891649">
                <ele>224.000000</ele>
                <time>2018-02-26T09:27:21.644Z</time>
            </trkpt>
            <trkpt lon="101.011310" lat="12.891628">
                <ele>224.300000</ele>
                <time>2018-02-26T09:27:24.644Z</time>
            </trkpt>
            <trkpt lon="101.011294" lat="12.891605">
                <ele>224.500000</ele>
                <time>2018-02-26T09:27:27.644Z</time>
            </trkpt>
            <trkpt lon="101.011267" lat="12.891574">
                <ele>224.700000</ele>
                <time>2018-02-26T09:27:31.644Z</time>
            </trkpt>
            <trkpt lon="101.011251" lat="12.891541">
                <ele>224.900000</ele>
                <time>2018-02-26T09:27:34.644Z</time>
            </trkpt>
            <trkpt lon="101.011243" lat="12.891510">
                <ele>224.900000</ele>
                <time>2018-02-26T09:27:37.644Z</time>
            </trkpt>
            <trkpt lon="101.011235" lat="12.891485">
                <ele>224.900000</ele>
                <time>2018-02-26T09:27:42.644Z</time>
            </trkpt>
            <trkpt lon="101.011217" lat="12.891458">
                <ele>224.900000</ele>
                <time>2018-02-26T09:27:53.644Z</time>
            </trkpt>
            <trkpt lon="101.011205" lat="12.891432">
                <ele>224.900000</ele>
                <time>2018-02-26T09:27:54.644Z</time>
            </trkpt>
            <trkpt lon="101.011190" lat="12.891397">
                <ele>224.900000</ele>
                <time>2018-02-26T09:27:55.644Z</time>
            </trkpt>
            <trkpt lon="101.011176" lat="12.891360">
                <ele>224.900000</ele>
                <time>2018-02-26T09:27:56.644Z</time>
            </trkpt>
            <trkpt lon="101.011173" lat="12.891319">
                <ele>225.000000</ele>
                <time>2018-02-26T09:27:57.644Z</time>
            </trkpt>
            <trkpt lon="101.011183" lat="12.891272">
                <ele>225.100000</ele>
                <time>2018-02-26T09:27:58.644Z</time>
            </trkpt>
            <trkpt lon="101.011201" lat="12.891216">
                <ele>225.000000</ele>
                <time>2018-02-26T09:27:59.644Z</time>
            </trkpt>
            <trkpt lon="101.011213" lat="12.891156">
                <ele>224.800000</ele>
                <time>2018-02-26T09:28:00.644Z</time>
            </trkpt>
            <trkpt lon="101.011218" lat="12.891089">
                <ele>224.400000</ele>
                <time>2018-02-26T09:28:01.644Z</time>
            </trkpt>
            <trkpt lon="101.011212" lat="12.891030">
                <ele>224.200000</ele>
                <time>2018-02-26T09:28:02.644Z</time>
            </trkpt>
            <trkpt lon="101.011209" lat="12.890992">
                <ele>224.300000</ele>
                <time>2018-02-26T09:28:03.644Z</time>
            </trkpt>
            <trkpt lon="101.011208" lat="12.890959">
                <ele>224.100000</ele>
                <time>2018-02-26T09:28:04.644Z</time>
            </trkpt>
            <trkpt lon="101.011194" lat="12.890923">
                <ele>223.400000</ele>
                <time>2018-02-26T09:28:06.644Z</time>
            </trkpt>
            <trkpt lon="101.011160" lat="12.890880">
                <ele>222.300000</ele>
                <time>2018-02-26T09:28:08.644Z</time>
            </trkpt>
            <trkpt lon="101.011130" lat="12.890861">
                <ele>221.600000</ele>
                <time>2018-02-26T09:28:09.644Z</time>
            </trkpt>
            <trkpt lon="101.011094" lat="12.890849">
                <ele>220.800000</ele>
                <time>2018-02-26T09:28:10.644Z</time>
            </trkpt>
            <trkpt lon="101.011060" lat="12.890841">
                <ele>220.200000</ele>
                <time>2018-02-26T09:28:11.644Z</time>
            </trkpt>
            <trkpt lon="101.011023" lat="12.890831">
                <ele>219.600000</ele>
                <time>2018-02-26T09:28:12.644Z</time>
            </trkpt>
            <trkpt lon="101.010989" lat="12.890820">
                <ele>219.200000</ele>
                <time>2018-02-26T09:28:13.644Z</time>
            </trkpt>
            <trkpt lon="101.010970" lat="12.890801">
                <ele>218.900000</ele>
                <time>2018-02-26T09:28:14.644Z</time>
            </trkpt>
            <trkpt lon="101.010948" lat="12.890771">
                <ele>218.500000</ele>
                <time>2018-02-26T09:28:15.644Z</time>
            </trkpt>
            <trkpt lon="101.010919" lat="12.890745">
                <ele>218.100000</ele>
                <time>2018-02-26T09:28:16.644Z</time>
            </trkpt>
            <trkpt lon="101.010879" lat="12.890715">
                <ele>217.500000</ele>
                <time>2018-02-26T09:28:17.644Z</time>
            </trkpt>
            <trkpt lon="101.010832" lat="12.890687">
                <ele>216.900000</ele>
                <time>2018-02-26T09:28:18.644Z</time>
            </trkpt>
            <trkpt lon="101.010794" lat="12.890658">
                <ele>216.600000</ele>
                <time>2018-02-26T09:28:19.644Z</time>
            </trkpt>
            <trkpt lon="101.010765" lat="12.890634">
                <ele>216.200000</ele>
                <time>2018-02-26T09:28:20.644Z</time>
            </trkpt>
            <trkpt lon="101.010739" lat="12.890598">
                <ele>215.300000</ele>
                <time>2018-02-26T09:28:22.644Z</time>
            </trkpt>
            <trkpt lon="101.010719" lat="12.890560">
                <ele>214.600000</ele>
                <time>2018-02-26T09:28:24.644Z</time>
            </trkpt>
            <trkpt lon="101.010710" lat="12.890532">
                <ele>214.300000</ele>
                <time>2018-02-26T09:28:26.644Z</time>
            </trkpt>
            <trkpt lon="101.010692" lat="12.890495">
                <ele>213.700000</ele>
                <time>2018-02-26T09:28:32.644Z</time>
            </trkpt>
            <trkpt lon="101.010678" lat="12.890469">
                <ele>213.200000</ele>
                <time>2018-02-26T09:28:33.644Z</time>
            </trkpt>
            <trkpt lon="101.010669" lat="12.890435">
                <ele>212.600000</ele>
                <time>2018-02-26T09:28:34.644Z</time>
            </trkpt>
            <trkpt lon="101.010664" lat="12.890397">
                <ele>212.200000</ele>
                <time>2018-02-26T09:28:35.644Z</time>
            </trkpt>
            <trkpt lon="101.010662" lat="12.890338">
                <ele>211.700000</ele>
                <time>2018-02-26T09:28:36.644Z</time>
            </trkpt>
            <trkpt lon="101.010660" lat="12.890278">
                <ele>210.900000</ele>
                <time>2018-02-26T09:28:37.644Z</time>
            </trkpt>
            <trkpt lon="101.010661" lat="12.890208">
                <ele>209.700000</ele>
                <time>2018-02-26T09:28:38.644Z</time>
            </trkpt>
            <trkpt lon="101.010658" lat="12.890153">
                <ele>209.100000</ele>
                <time>2018-02-26T09:28:39.644Z</time>
            </trkpt>
            <trkpt lon="101.010640" lat="12.890106">
                <ele>208.800000</ele>
                <time>2018-02-26T09:28:40.644Z</time>
            </trkpt>
            <trkpt lon="101.010614" lat="12.890063">
                <ele>208.200000</ele>
                <time>2018-02-26T09:28:41.644Z</time>
            </trkpt>
            <trkpt lon="101.010591" lat="12.890018">
                <ele>207.800000</ele>
                <time>2018-02-26T09:28:42.644Z</time>
            </trkpt>
            <trkpt lon="101.010563" lat="12.889974">
                <ele>207.400000</ele>
                <time>2018-02-26T09:28:43.644Z</time>
            </trkpt>
            <trkpt lon="101.010526" lat="12.889926">
                <ele>206.800000</ele>
                <time>2018-02-26T09:28:44.644Z</time>
            </trkpt>
            <trkpt lon="101.010487" lat="12.889880">
                <ele>206.000000</ele>
                <time>2018-02-26T09:28:45.644Z</time>
            </trkpt>
            <trkpt lon="101.010443" lat="12.889832">
                <ele>206.000000</ele>
                <time>2018-02-26T09:28:46.644Z</time>
            </trkpt>
            <trkpt lon="101.010388" lat="12.889787">
                <ele>205.800000</ele>
                <time>2018-02-26T09:28:47.644Z</time>
            </trkpt>
            <trkpt lon="101.010346" lat="12.889749">
                <ele>205.700000</ele>
                <time>2018-02-26T09:28:48.644Z</time>
            </trkpt>
            <trkpt lon="101.010306" lat="12.889702">
                <ele>205.800000</ele>
                <time>2018-02-26T09:28:49.644Z</time>
            </trkpt>
            <trkpt lon="101.010271" lat="12.889652">
                <ele>206.100000</ele>
                <time>2018-02-26T09:28:50.644Z</time>
            </trkpt>
            <trkpt lon="101.010247" lat="12.889623">
                <ele>206.200000</ele>
                <time>2018-02-26T09:28:51.644Z</time>
            </trkpt>
            <trkpt lon="101.010230" lat="12.889600">
                <ele>206.400000</ele>
                <time>2018-02-26T09:28:52.644Z</time>
            </trkpt>
            <trkpt lon="101.010215" lat="12.889578">
                <ele>206.500000</ele>
                <time>2018-02-26T09:28:53.644Z</time>
            </trkpt>
            <trkpt lon="101.010220" lat="12.889532">
                <ele>206.600000</ele>
                <time>2018-02-26T09:28:55.644Z</time>
            </trkpt>
            <trkpt lon="101.010258" lat="12.889498">
                <ele>206.500000</ele>
                <time>2018-02-26T09:28:57.644Z</time>
            </trkpt>
            <trkpt lon="101.010284" lat="12.889475">
                <ele>206.200000</ele>
                <time>2018-02-26T09:28:58.644Z</time>
            </trkpt>
            <trkpt lon="101.010310" lat="12.889439">
                <ele>206.000000</ele>
                <time>2018-02-26T09:28:59.644Z</time>
            </trkpt>
            <trkpt lon="101.010320" lat="12.889384">
                <ele>205.600000</ele>
                <time>2018-02-26T09:29:01.644Z</time>
            </trkpt>
            <trkpt lon="101.010320" lat="12.889337">
                <ele>205.100000</ele>
                <time>2018-02-26T09:29:02.644Z</time>
            </trkpt>
            <trkpt lon="101.010311" lat="12.889294">
                <ele>204.500000</ele>
                <time>2018-02-26T09:29:03.644Z</time>
            </trkpt>
            <trkpt lon="101.010298" lat="12.889255">
                <ele>204.200000</ele>
                <time>2018-02-26T09:29:04.644Z</time>
            </trkpt>
            <trkpt lon="101.010285" lat="12.889226">
                <ele>204.000000</ele>
                <time>2018-02-26T09:29:05.644Z</time>
            </trkpt>
            <trkpt lon="101.010270" lat="12.889167">
                <ele>203.800000</ele>
                <time>2018-02-26T09:29:06.644Z</time>
            </trkpt>
            <trkpt lon="101.010250" lat="12.889091">
                <ele>203.400000</ele>
                <time>2018-02-26T09:29:07.644Z</time>
            </trkpt>
            <trkpt lon="101.010229" lat="12.889006">
                <ele>202.800000</ele>
                <time>2018-02-26T09:29:08.644Z</time>
            </trkpt>
            <trkpt lon="101.010209" lat="12.888972">
                <ele>202.400000</ele>
                <time>2018-02-26T09:29:09.644Z</time>
            </trkpt>
            <trkpt lon="101.010198" lat="12.888919">
                <ele>202.100000</ele>
                <time>2018-02-26T09:29:10.644Z</time>
            </trkpt>
            <trkpt lon="101.010196" lat="12.888860">
                <ele>201.600000</ele>
                <time>2018-02-26T09:29:11.644Z</time>
            </trkpt>
            <trkpt lon="101.010206" lat="12.888799">
                <ele>201.100000</ele>
                <time>2018-02-26T09:29:12.644Z</time>
            </trkpt>
            <trkpt lon="101.010223" lat="12.888748">
                <ele>200.900000</ele>
                <time>2018-02-26T09:29:13.644Z</time>
            </trkpt>
            <trkpt lon="101.010242" lat="12.888706">
                <ele>200.700000</ele>
                <time>2018-02-26T09:29:14.644Z</time>
            </trkpt>
            <trkpt lon="101.010257" lat="12.888666">
                <ele>200.400000</ele>
                <time>2018-02-26T09:29:15.644Z</time>
            </trkpt>
            <trkpt lon="101.010272" lat="12.888630">
                <ele>199.900000</ele>
                <time>2018-02-26T09:29:16.644Z</time>
            </trkpt>
            <trkpt lon="101.010290" lat="12.888587">
                <ele>199.400000</ele>
                <time>2018-02-26T09:29:17.644Z</time>
            </trkpt>
            <trkpt lon="101.010303" lat="12.888541">
                <ele>198.700000</ele>
                <time>2018-02-26T09:29:18.644Z</time>
            </trkpt>
            <trkpt lon="101.010303" lat="12.888501">
                <ele>198.000000</ele>
                <time>2018-02-26T09:29:19.644Z</time>
            </trkpt>
            <trkpt lon="101.010292" lat="12.888468">
                <ele>197.500000</ele>
                <time>2018-02-26T09:29:20.644Z</time>
            </trkpt>
            <trkpt lon="101.010278" lat="12.888432">
                <ele>197.200000</ele>
                <time>2018-02-26T09:29:21.644Z</time>
            </trkpt>
            <trkpt lon="101.010263" lat="12.888396">
                <ele>196.800000</ele>
                <time>2018-02-26T09:29:22.644Z</time>
            </trkpt>
            <trkpt lon="101.010239" lat="12.888360">
                <ele>196.400000</ele>
                <time>2018-02-26T09:29:23.644Z</time>
            </trkpt>
            <trkpt lon="101.010204" lat="12.888324">
                <ele>195.500000</ele>
                <time>2018-02-26T09:29:24.644Z</time>
            </trkpt>
            <trkpt lon="101.010164" lat="12.888286">
                <ele>194.600000</ele>
                <time>2018-02-26T09:29:25.644Z</time>
            </trkpt>
            <trkpt lon="101.010114" lat="12.888255">
                <ele>193.700000</ele>
                <time>2018-02-26T09:29:26.644Z</time>
            </trkpt>
            <trkpt lon="101.010066" lat="12.888238">
                <ele>192.900000</ele>
                <time>2018-02-26T09:29:27.644Z</time>
            </trkpt>
            <trkpt lon="101.010022" lat="12.888228">
                <ele>192.400000</ele>
                <time>2018-02-26T09:29:28.644Z</time>
            </trkpt>
            <trkpt lon="101.009978" lat="12.888218">
                <ele>191.900000</ele>
                <time>2018-02-26T09:29:29.644Z</time>
            </trkpt>
            <trkpt lon="101.009939" lat="12.888210">
                <ele>191.700000</ele>
                <time>2018-02-26T09:29:30.644Z</time>
            </trkpt>
            <trkpt lon="101.009910" lat="12.888199">
                <ele>191.500000</ele>
                <time>2018-02-26T09:29:31.644Z</time>
            </trkpt>
            <trkpt lon="101.009884" lat="12.888175">
                <ele>191.000000</ele>
                <time>2018-02-26T09:29:32.644Z</time>
            </trkpt>
            <trkpt lon="101.009858" lat="12.888141">
                <ele>190.100000</ele>
                <time>2018-02-26T09:29:33.644Z</time>
            </trkpt>
            <trkpt lon="101.009832" lat="12.888110">
                <ele>189.300000</ele>
                <time>2018-02-26T09:29:34.644Z</time>
            </trkpt>
            <trkpt lon="101.009815" lat="12.888081">
                <ele>188.700000</ele>
                <time>2018-02-26T09:29:35.644Z</time>
            </trkpt>
            <trkpt lon="101.009794" lat="12.888049">
                <ele>188.100000</ele>
                <time>2018-02-26T09:29:36.644Z</time>
            </trkpt>
            <trkpt lon="101.009776" lat="12.888014">
                <ele>187.700000</ele>
                <time>2018-02-26T09:29:37.644Z</time>
            </trkpt>
            <trkpt lon="101.009746" lat="12.887965">
                <ele>187.300000</ele>
                <time>2018-02-26T09:29:39.644Z</time>
            </trkpt>
            <trkpt lon="101.009729" lat="12.887936">
                <ele>187.000000</ele>
                <time>2018-02-26T09:29:40.644Z</time>
            </trkpt>
            <trkpt lon="101.009715" lat="12.887907">
                <ele>186.900000</ele>
                <time>2018-02-26T09:29:41.644Z</time>
            </trkpt>
            <trkpt lon="101.009696" lat="12.887871">
                <ele>186.700000</ele>
                <time>2018-02-26T09:29:42.644Z</time>
            </trkpt>
            <trkpt lon="101.009679" lat="12.887844">
                <ele>186.600000</ele>
                <time>2018-02-26T09:29:43.644Z</time>
            </trkpt>
            <trkpt lon="101.009660" lat="12.887809">
                <ele>186.500000</ele>
                <time>2018-02-26T09:29:44.644Z</time>
            </trkpt>
            <trkpt lon="101.009635" lat="12.887759">
                <ele>186.100000</ele>
                <time>2018-02-26T09:29:45.644Z</time>
            </trkpt>
            <trkpt lon="101.009620" lat="12.887713">
                <ele>185.700000</ele>
                <time>2018-02-26T09:29:46.644Z</time>
            </trkpt>
            <trkpt lon="101.009612" lat="12.887654">
                <ele>185.200000</ele>
                <time>2018-02-26T09:29:47.644Z</time>
            </trkpt>
            <trkpt lon="101.009606" lat="12.887602">
                <ele>184.600000</ele>
                <time>2018-02-26T09:29:48.644Z</time>
            </trkpt>
            <trkpt lon="101.009595" lat="12.887558">
                <ele>184.200000</ele>
                <time>2018-02-26T09:29:49.644Z</time>
            </trkpt>
            <trkpt lon="101.009585" lat="12.887513">
                <ele>183.400000</ele>
                <time>2018-02-26T09:29:50.644Z</time>
            </trkpt>
            <trkpt lon="101.009571" lat="12.887462">
                <ele>182.300000</ele>
                <time>2018-02-26T09:29:51.644Z</time>
            </trkpt>
            <trkpt lon="101.009547" lat="12.887408">
                <ele>181.100000</ele>
                <time>2018-02-26T09:29:52.644Z</time>
            </trkpt>
            <trkpt lon="101.009520" lat="12.887362">
                <ele>180.100000</ele>
                <time>2018-02-26T09:29:53.644Z</time>
            </trkpt>
            <trkpt lon="101.009497" lat="12.887325">
                <ele>179.400000</ele>
                <time>2018-02-26T09:29:54.644Z</time>
            </trkpt>
            <trkpt lon="101.009474" lat="12.887294">
                <ele>178.500000</ele>
                <time>2018-02-26T09:29:55.644Z</time>
            </trkpt>
            <trkpt lon="101.009441" lat="12.887266">
                <ele>177.400000</ele>
                <time>2018-02-26T09:29:56.644Z</time>
            </trkpt>
            <trkpt lon="101.009402" lat="12.887233">
                <ele>176.300000</ele>
                <time>2018-02-26T09:29:57.644Z</time>
            </trkpt>
            <trkpt lon="101.009327" lat="12.887149">
                <ele>174.200000</ele>
                <time>2018-02-26T09:29:58.644Z</time>
            </trkpt>
            <trkpt lon="101.009291" lat="12.887099">
                <ele>173.300000</ele>
                <time>2018-02-26T09:29:59.644Z</time>
            </trkpt>
            <trkpt lon="101.009261" lat="12.887057">
                <ele>172.600000</ele>
                <time>2018-02-26T09:30:00.644Z</time>
            </trkpt>
            <trkpt lon="101.009238" lat="12.887017">
                <ele>172.000000</ele>
                <time>2018-02-26T09:30:01.644Z</time>
            </trkpt>
            <trkpt lon="101.009228" lat="12.886974">
                <ele>171.500000</ele>
                <time>2018-02-26T09:30:02.644Z</time>
            </trkpt>
            <trkpt lon="101.009218" lat="12.886935">
                <ele>171.400000</ele>
                <time>2018-02-26T09:30:03.644Z</time>
            </trkpt>
            <trkpt lon="101.009210" lat="12.886895">
                <ele>171.200000</ele>
                <time>2018-02-26T09:30:04.644Z</time>
            </trkpt>
            <trkpt lon="101.009201" lat="12.886867">
                <ele>170.800000</ele>
                <time>2018-02-26T09:30:05.644Z</time>
            </trkpt>
            <trkpt lon="101.009194" lat="12.886815">
                <ele>170.100000</ele>
                <time>2018-02-26T09:30:07.644Z</time>
            </trkpt>
            <trkpt lon="101.009191" lat="12.886782">
                <ele>169.500000</ele>
                <time>2018-02-26T09:30:08.644Z</time>
            </trkpt>
            <trkpt lon="101.009180" lat="12.886745">
                <ele>168.900000</ele>
                <time>2018-02-26T09:30:09.644Z</time>
            </trkpt>
            <trkpt lon="101.009164" lat="12.886706">
                <ele>168.700000</ele>
                <time>2018-02-26T09:30:10.644Z</time>
            </trkpt>
            <trkpt lon="101.009150" lat="12.886672">
                <ele>168.300000</ele>
                <time>2018-02-26T09:30:11.644Z</time>
            </trkpt>
            <trkpt lon="101.009135" lat="12.886628">
                <ele>167.300000</ele>
                <time>2018-02-26T09:30:12.644Z</time>
            </trkpt>
            <trkpt lon="101.009122" lat="12.886589">
                <ele>166.700000</ele>
                <time>2018-02-26T09:30:13.644Z</time>
            </trkpt>
            <trkpt lon="101.009109" lat="12.886531">
                <ele>165.800000</ele>
                <time>2018-02-26T09:30:14.644Z</time>
            </trkpt>
            <trkpt lon="101.009096" lat="12.886474">
                <ele>165.000000</ele>
                <time>2018-02-26T09:30:15.644Z</time>
            </trkpt>
            <trkpt lon="101.009083" lat="12.886418">
                <ele>163.900000</ele>
                <time>2018-02-26T09:30:16.644Z</time>
            </trkpt>
            <trkpt lon="101.009070" lat="12.886366">
                <ele>162.800000</ele>
                <time>2018-02-26T09:30:17.644Z</time>
            </trkpt>
            <trkpt lon="101.009062" lat="12.886320">
                <ele>162.000000</ele>
                <time>2018-02-26T09:30:18.644Z</time>
            </trkpt>
            <trkpt lon="101.009057" lat="12.886277">
                <ele>161.400000</ele>
                <time>2018-02-26T09:30:19.644Z</time>
            </trkpt>
            <trkpt lon="101.009035" lat="12.886214">
                <ele>160.600000</ele>
                <time>2018-02-26T09:30:20.644Z</time>
            </trkpt>
            <trkpt lon="101.009021" lat="12.886171">
                <ele>159.800000</ele>
                <time>2018-02-26T09:30:21.644Z</time>
            </trkpt>
            <trkpt lon="101.009009" lat="12.886125">
                <ele>159.100000</ele>
                <time>2018-02-26T09:30:22.644Z</time>
            </trkpt>
            <trkpt lon="101.009014" lat="12.886089">
                <ele>158.500000</ele>
                <time>2018-02-26T09:30:23.644Z</time>
            </trkpt>
            <trkpt lon="101.009021" lat="12.886062">
                <ele>157.500000</ele>
                <time>2018-02-26T09:30:24.644Z</time>
            </trkpt>
            <trkpt lon="101.009051" lat="12.886042">
                <ele>157.100000</ele>
                <time>2018-02-26T09:30:30.644Z</time>
            </trkpt>
            <trkpt lon="101.009092" lat="12.886000">
                <ele>156.600000</ele>
                <time>2018-02-26T09:30:32.644Z</time>
            </trkpt>
            <trkpt lon="101.009117" lat="12.885974">
                <ele>156.400000</ele>
                <time>2018-02-26T09:30:33.644Z</time>
            </trkpt>
            <trkpt lon="101.009141" lat="12.885943">
                <ele>156.200000</ele>
                <time>2018-02-26T09:30:34.644Z</time>
            </trkpt>
            <trkpt lon="101.009168" lat="12.885910">
                <ele>156.100000</ele>
                <time>2018-02-26T09:30:35.644Z</time>
            </trkpt>
            <trkpt lon="101.009196" lat="12.885889">
                <ele>156.000000</ele>
                <time>2018-02-26T09:30:36.644Z</time>
            </trkpt>
            <trkpt lon="101.009224" lat="12.885865">
                <ele>155.900000</ele>
                <time>2018-02-26T09:30:37.644Z</time>
            </trkpt>
            <trkpt lon="101.009246" lat="12.885845">
                <ele>155.700000</ele>
                <time>2018-02-26T09:30:38.644Z</time>
            </trkpt>
            <trkpt lon="101.009268" lat="12.885828">
                <ele>155.500000</ele>
                <time>2018-02-26T09:30:39.644Z</time>
            </trkpt>
            <trkpt lon="101.009302" lat="12.885794">
                <ele>154.700000</ele>
                <time>2018-02-26T09:30:41.644Z</time>
            </trkpt>
            <trkpt lon="101.009316" lat="12.885763">
                <ele>154.400000</ele>
                <time>2018-02-26T09:30:42.644Z</time>
            </trkpt>
            <trkpt lon="101.009335" lat="12.885728">
                <ele>153.700000</ele>
                <time>2018-02-26T09:30:43.644Z</time>
            </trkpt>
            <trkpt lon="101.009359" lat="12.885704">
                <ele>153.000000</ele>
                <time>2018-02-26T09:30:44.644Z</time>
            </trkpt>
            <trkpt lon="101.009384" lat="12.885680">
                <ele>152.600000</ele>
                <time>2018-02-26T09:30:45.644Z</time>
            </trkpt>
            <trkpt lon="101.009405" lat="12.885662">
                <ele>152.300000</ele>
                <time>2018-02-26T09:30:46.644Z</time>
            </trkpt>
            <trkpt lon="101.009437" lat="12.885651">
                <ele>152.000000</ele>
                <time>2018-02-26T09:30:47.644Z</time>
            </trkpt>
            <trkpt lon="101.009474" lat="12.885644">
                <ele>151.400000</ele>
                <time>2018-02-26T09:30:48.644Z</time>
            </trkpt>
            <trkpt lon="101.009512" lat="12.885636">
                <ele>150.600000</ele>
                <time>2018-02-26T09:30:49.644Z</time>
            </trkpt>
            <trkpt lon="101.009552" lat="12.885621">
                <ele>150.000000</ele>
                <time>2018-02-26T09:30:50.644Z</time>
            </trkpt>
            <trkpt lon="101.009586" lat="12.885606">
                <ele>149.200000</ele>
                <time>2018-02-26T09:30:51.644Z</time>
            </trkpt>
            <trkpt lon="101.009615" lat="12.885592">
                <ele>148.300000</ele>
                <time>2018-02-26T09:30:52.644Z</time>
            </trkpt>
            <trkpt lon="101.009666" lat="12.885567">
                <ele>146.900000</ele>
                <time>2018-02-26T09:30:54.644Z</time>
            </trkpt>
            <trkpt lon="101.009699" lat="12.885558">
                <ele>146.200000</ele>
                <time>2018-02-26T09:30:55.644Z</time>
            </trkpt>
            <trkpt lon="101.009728" lat="12.885547">
                <ele>145.500000</ele>
                <time>2018-02-26T09:30:56.644Z</time>
            </trkpt>
            <trkpt lon="101.009762" lat="12.885525">
                <ele>144.700000</ele>
                <time>2018-02-26T09:30:57.644Z</time>
            </trkpt>
            <trkpt lon="101.009800" lat="12.885508">
                <ele>144.200000</ele>
                <time>2018-02-26T09:30:58.644Z</time>
            </trkpt>
            <trkpt lon="101.009822" lat="12.885487">
                <ele>143.900000</ele>
                <time>2018-02-26T09:30:59.644Z</time>
            </trkpt>
            <trkpt lon="101.009857" lat="12.885477">
                <ele>143.500000</ele>
                <time>2018-02-26T09:31:00.644Z</time>
            </trkpt>
            <trkpt lon="101.009894" lat="12.885464">
                <ele>142.800000</ele>
                <time>2018-02-26T09:31:01.644Z</time>
            </trkpt>
            <trkpt lon="101.009935" lat="12.885452">
                <ele>142.100000</ele>
                <time>2018-02-26T09:31:02.644Z</time>
            </trkpt>
            <trkpt lon="101.009983" lat="12.885447">
                <ele>141.700000</ele>
                <time>2018-02-26T09:31:03.644Z</time>
            </trkpt>
            <trkpt lon="101.010027" lat="12.885446">
                <ele>141.300000</ele>
                <time>2018-02-26T09:31:04.644Z</time>
            </trkpt>
            <trkpt lon="101.010067" lat="12.885412">
                <ele>140.300000</ele>
                <time>2018-02-26T09:31:06.644Z</time>
            </trkpt>
            <trkpt lon="101.010071" lat="12.885382">
                <ele>139.900000</ele>
                <time>2018-02-26T09:31:08.644Z</time>
            </trkpt>
            <trkpt lon="101.010078" lat="12.885340">
                <ele>139.400000</ele>
                <time>2018-02-26T09:31:15.644Z</time>
            </trkpt>
            <trkpt lon="101.010068" lat="12.885307">
                <ele>139.000000</ele>
                <time>2018-02-26T09:31:16.644Z</time>
            </trkpt>
            <trkpt lon="101.010048" lat="12.885266">
                <ele>138.300000</ele>
                <time>2018-02-26T09:31:17.644Z</time>
            </trkpt>
            <trkpt lon="101.010020" lat="12.885227">
                <ele>137.800000</ele>
                <time>2018-02-26T09:31:18.644Z</time>
            </trkpt>
            <trkpt lon="101.009997" lat="12.885183">
                <ele>137.500000</ele>
                <time>2018-02-26T09:31:19.644Z</time>
            </trkpt>
            <trkpt lon="101.009970" lat="12.885140">
                <ele>137.000000</ele>
                <time>2018-02-26T09:31:20.644Z</time>
            </trkpt>
            <trkpt lon="101.009939" lat="12.885098">
                <ele>136.800000</ele>
                <time>2018-02-26T09:31:21.644Z</time>
            </trkpt>
            <trkpt lon="101.009902" lat="12.885063">
                <ele>136.900000</ele>
                <time>2018-02-26T09:31:22.644Z</time>
            </trkpt>
            <trkpt lon="101.009865" lat="12.885019">
                <ele>136.200000</ele>
                <time>2018-02-26T09:31:23.644Z</time>
            </trkpt>
            <trkpt lon="101.009823" lat="12.884962">
                <ele>135.400000</ele>
                <time>2018-02-26T09:31:24.644Z</time>
            </trkpt>
            <trkpt lon="101.009783" lat="12.884908">
                <ele>135.300000</ele>
                <time>2018-02-26T09:31:25.644Z</time>
            </trkpt>
            <trkpt lon="101.009738" lat="12.884848">
                <ele>135.200000</ele>
                <time>2018-02-26T09:31:26.644Z</time>
            </trkpt>
            <trkpt lon="101.009715" lat="12.884801">
                <ele>134.700000</ele>
                <time>2018-02-26T09:31:27.644Z</time>
            </trkpt>
            <trkpt lon="101.009699" lat="12.884754">
                <ele>133.400000</ele>
                <time>2018-02-26T09:31:34.644Z</time>
            </trkpt>
            <trkpt lon="101.009674" lat="12.884707">
                <ele>132.500000</ele>
                <time>2018-02-26T09:31:36.644Z</time>
            </trkpt>
            <trkpt lon="101.009647" lat="12.884668">
                <ele>132.200000</ele>
                <time>2018-02-26T09:31:37.644Z</time>
            </trkpt>
            <trkpt lon="101.009615" lat="12.884627">
                <ele>131.300000</ele>
                <time>2018-02-26T09:31:38.644Z</time>
            </trkpt>
            <trkpt lon="101.009576" lat="12.884579">
                <ele>130.800000</ele>
                <time>2018-02-26T09:31:39.644Z</time>
            </trkpt>
            <trkpt lon="101.009540" lat="12.884532">
                <ele>131.000000</ele>
                <time>2018-02-26T09:31:40.644Z</time>
            </trkpt>
            <trkpt lon="101.009525" lat="12.884504">
                <ele>131.000000</ele>
                <time>2018-02-26T09:31:41.644Z</time>
            </trkpt>
            <trkpt lon="101.009488" lat="12.884469">
                <ele>131.100000</ele>
                <time>2018-02-26T09:31:47.644Z</time>
            </trkpt>
            <trkpt lon="101.009462" lat="12.884441">
                <ele>131.500000</ele>
                <time>2018-02-26T09:31:48.644Z</time>
            </trkpt>
            <trkpt lon="101.009436" lat="12.884412">
                <ele>131.800000</ele>
                <time>2018-02-26T09:31:49.644Z</time>
            </trkpt>
            <trkpt lon="101.009409" lat="12.884379">
                <ele>131.500000</ele>
                <time>2018-02-26T09:31:50.644Z</time>
            </trkpt>
            <trkpt lon="101.009387" lat="12.884342">
                <ele>131.100000</ele>
                <time>2018-02-26T09:31:51.644Z</time>
            </trkpt>
            <trkpt lon="101.009362" lat="12.884302">
                <ele>130.800000</ele>
                <time>2018-02-26T09:31:52.644Z</time>
            </trkpt>
            <trkpt lon="101.009339" lat="12.884261">
                <ele>130.600000</ele>
                <time>2018-02-26T09:31:53.644Z</time>
            </trkpt>
            <trkpt lon="101.009315" lat="12.884219">
                <ele>129.900000</ele>
                <time>2018-02-26T09:31:54.644Z</time>
            </trkpt>
            <trkpt lon="101.009291" lat="12.884166">
                <ele>128.800000</ele>
                <time>2018-02-26T09:31:55.644Z</time>
            </trkpt>
            <trkpt lon="101.009267" lat="12.884107">
                <ele>127.500000</ele>
                <time>2018-02-26T09:31:56.644Z</time>
            </trkpt>
            <trkpt lon="101.009252" lat="12.884055">
                <ele>126.400000</ele>
                <time>2018-02-26T09:31:57.644Z</time>
            </trkpt>
            <trkpt lon="101.009235" lat="12.884011">
                <ele>125.400000</ele>
                <time>2018-02-26T09:31:58.644Z</time>
            </trkpt>
            <trkpt lon="101.009211" lat="12.883966">
                <ele>124.500000</ele>
                <time>2018-02-26T09:31:59.644Z</time>
            </trkpt>
            <trkpt lon="101.009189" lat="12.883916">
                <ele>123.600000</ele>
                <time>2018-02-26T09:32:00.644Z</time>
            </trkpt>
            <trkpt lon="101.009170" lat="12.883865">
                <ele>122.900000</ele>
                <time>2018-02-26T09:32:01.644Z</time>
            </trkpt>
            <trkpt lon="101.009149" lat="12.883819">
                <ele>122.200000</ele>
                <time>2018-02-26T09:32:02.644Z</time>
            </trkpt>
            <trkpt lon="101.009139" lat="12.883778">
                <ele>121.900000</ele>
                <time>2018-02-26T09:32:03.644Z</time>
            </trkpt>
            <trkpt lon="101.009134" lat="12.883749">
                <ele>121.800000</ele>
                <time>2018-02-26T09:32:04.644Z</time>
            </trkpt>
            <trkpt lon="101.009191" lat="12.883670">
                <ele>121.000000</ele>
                <time>2018-02-26T09:34:13.644Z</time>
            </trkpt>
            <trkpt lon="101.009222" lat="12.883664">
                <ele>120.600000</ele>
                <time>2018-02-26T09:34:14.644Z</time>
            </trkpt>
            <trkpt lon="101.009260" lat="12.883663">
                <ele>120.100000</ele>
                <time>2018-02-26T09:34:15.644Z</time>
            </trkpt>
            <trkpt lon="101.009297" lat="12.883654">
                <ele>119.600000</ele>
                <time>2018-02-26T09:34:16.644Z</time>
            </trkpt>
            <trkpt lon="101.009337" lat="12.883649">
                <ele>119.200000</ele>
                <time>2018-02-26T09:34:17.644Z</time>
            </trkpt>
            <trkpt lon="101.009378" lat="12.883653">
                <ele>118.700000</ele>
                <time>2018-02-26T09:34:18.644Z</time>
            </trkpt>
            <trkpt lon="101.009418" lat="12.883652">
                <ele>118.200000</ele>
                <time>2018-02-26T09:34:19.644Z</time>
            </trkpt>
            <trkpt lon="101.009451" lat="12.883654">
                <ele>118.300000</ele>
                <time>2018-02-26T09:34:20.644Z</time>
            </trkpt>
            <trkpt lon="101.009487" lat="12.883656">
                <ele>117.800000</ele>
                <time>2018-02-26T09:34:21.644Z</time>
            </trkpt>
            <trkpt lon="101.009515" lat="12.883684">
                <ele>117.300000</ele>
                <time>2018-02-26T09:34:22.644Z</time>
            </trkpt>
            <trkpt lon="101.009549" lat="12.883712">
                <ele>117.500000</ele>
                <time>2018-02-26T09:34:23.644Z</time>
            </trkpt>
            <trkpt lon="101.009582" lat="12.883741">
                <ele>118.200000</ele>
                <time>2018-02-26T09:34:24.644Z</time>
            </trkpt>
            <trkpt lon="101.009616" lat="12.883770">
                <ele>118.300000</ele>
                <time>2018-02-26T09:34:25.644Z</time>
            </trkpt>
            <trkpt lon="101.009642" lat="12.883793">
                <ele>117.600000</ele>
                <time>2018-02-26T09:34:26.644Z</time>
            </trkpt>
            <trkpt lon="101.009659" lat="12.883823">
                <ele>118.400000</ele>
                <time>2018-02-26T09:34:27.644Z</time>
            </trkpt>
            <trkpt lon="101.009675" lat="12.883851">
                <ele>117.700000</ele>
                <time>2018-02-26T09:34:28.644Z</time>
            </trkpt>
            <trkpt lon="101.009689" lat="12.883878">
                <ele>118.400000</ele>
                <time>2018-02-26T09:34:29.644Z</time>
            </trkpt>
            <trkpt lon="101.009727" lat="12.883908">
                <ele>118.200000</ele>
                <time>2018-02-26T09:34:31.644Z</time>
            </trkpt>
            <trkpt lon="101.009749" lat="12.883927">
                <ele>118.200000</ele>
                <time>2018-02-26T09:34:32.644Z</time>
            </trkpt>
            <trkpt lon="101.009769" lat="12.883953">
                <ele>117.900000</ele>
                <time>2018-02-26T09:34:33.644Z</time>
            </trkpt>
            <trkpt lon="101.009784" lat="12.883983">
                <ele>118.500000</ele>
                <time>2018-02-26T09:34:34.644Z</time>
            </trkpt>
            <trkpt lon="101.009801" lat="12.884013">
                <ele>118.500000</ele>
                <time>2018-02-26T09:34:35.644Z</time>
            </trkpt>
            <trkpt lon="101.009820" lat="12.884045">
                <ele>118.200000</ele>
                <time>2018-02-26T09:34:36.644Z</time>
            </trkpt>
            <trkpt lon="101.009843" lat="12.884076">
                <ele>118.600000</ele>
                <time>2018-02-26T09:34:37.644Z</time>
            </trkpt>
            <trkpt lon="101.009868" lat="12.884106">
                <ele>118.400000</ele>
                <time>2018-02-26T09:34:38.644Z</time>
            </trkpt>
            <trkpt lon="101.009891" lat="12.884140">
                <ele>117.800000</ele>
                <time>2018-02-26T09:34:39.644Z</time>
            </trkpt>
            <trkpt lon="101.009915" lat="12.884169">
                <ele>118.300000</ele>
                <time>2018-02-26T09:34:40.644Z</time>
            </trkpt>
            <trkpt lon="101.009937" lat="12.884200">
                <ele>118.300000</ele>
                <time>2018-02-26T09:34:41.644Z</time>
            </trkpt>
            <trkpt lon="101.009954" lat="12.884230">
                <ele>118.500000</ele>
                <time>2018-02-26T09:34:42.644Z</time>
            </trkpt>
            <trkpt lon="101.009969" lat="12.884254">
                <ele>118.600000</ele>
                <time>2018-02-26T09:34:43.644Z</time>
            </trkpt>
            <trkpt lon="101.009996" lat="12.884287">
                <ele>118.400000</ele>
                <time>2018-02-26T09:34:45.644Z</time>
            </trkpt>
            <trkpt lon="101.010014" lat="12.884329">
                <ele>118.600000</ele>
                <time>2018-02-26T09:34:47.644Z</time>
            </trkpt>
            <trkpt lon="101.010030" lat="12.884357">
                <ele>118.700000</ele>
                <time>2018-02-26T09:34:49.644Z</time>
            </trkpt>
            <trkpt lon="101.010059" lat="12.884378">
                <ele>118.200000</ele>
                <time>2018-02-26T09:34:52.644Z</time>
            </trkpt>
            <trkpt lon="101.010086" lat="12.884397">
                <ele>117.700000</ele>
                <time>2018-02-26T09:34:54.644Z</time>
            </trkpt>
            <trkpt lon="101.010108" lat="12.884417">
                <ele>117.300000</ele>
                <time>2018-02-26T09:34:56.644Z</time>
            </trkpt>
            <trkpt lon="101.010126" lat="12.884438">
                <ele>117.000000</ele>
                <time>2018-02-26T09:34:58.644Z</time>
            </trkpt>
            <trkpt lon="101.010172" lat="12.884430">
                <ele>116.500000</ele>
                <time>2018-02-26T09:35:09.644Z</time>
            </trkpt>
            <trkpt lon="101.010210" lat="12.884428">
                <ele>116.100000</ele>
                <time>2018-02-26T09:35:11.644Z</time>
            </trkpt>
            <trkpt lon="101.010243" lat="12.884433">
                <ele>115.900000</ele>
                <time>2018-02-26T09:35:13.644Z</time>
            </trkpt>
            <trkpt lon="101.010274" lat="12.884431">
                <ele>115.700000</ele>
                <time>2018-02-26T09:35:15.644Z</time>
            </trkpt>
            <trkpt lon="101.010318" lat="12.884418">
                <ele>115.400000</ele>
                <time>2018-02-26T09:35:17.644Z</time>
            </trkpt>
            <trkpt lon="101.010367" lat="12.884406">
                <ele>115.000000</ele>
                <time>2018-02-26T09:35:19.644Z</time>
            </trkpt>
            <trkpt lon="101.010401" lat="12.884396">
                <ele>114.700000</ele>
                <time>2018-02-26T09:35:20.644Z</time>
            </trkpt>
            <trkpt lon="101.010444" lat="12.884378">
                <ele>114.500000</ele>
                <time>2018-02-26T09:35:21.644Z</time>
            </trkpt>
            <trkpt lon="101.010490" lat="12.884355">
                <ele>114.300000</ele>
                <time>2018-02-26T09:35:22.644Z</time>
            </trkpt>
            <trkpt lon="101.010550" lat="12.884330">
                <ele>114.300000</ele>
                <time>2018-02-26T09:35:23.644Z</time>
            </trkpt>
            <trkpt lon="101.010620" lat="12.884301">
                <ele>114.500000</ele>
                <time>2018-02-26T09:35:24.644Z</time>
            </trkpt>
            <trkpt lon="101.010700" lat="12.884280">
                <ele>115.200000</ele>
                <time>2018-02-26T09:35:25.644Z</time>
            </trkpt>
            <trkpt lon="101.010788" lat="12.884267">
                <ele>116.100000</ele>
                <time>2018-02-26T09:35:26.644Z</time>
            </trkpt>
            <trkpt lon="101.010873" lat="12.884270">
                <ele>116.800000</ele>
                <time>2018-02-26T09:35:27.644Z</time>
            </trkpt>
            <trkpt lon="101.010953" lat="12.884284">
                <ele>117.800000</ele>
                <time>2018-02-26T09:35:28.644Z</time>
            </trkpt>
            <trkpt lon="101.011025" lat="12.884303">
                <ele>118.800000</ele>
                <time>2018-02-26T09:35:29.644Z</time>
            </trkpt>
            <trkpt lon="101.011098" lat="12.884333">
                <ele>119.700000</ele>
                <time>2018-02-26T09:35:30.644Z</time>
            </trkpt>
            <trkpt lon="101.011159" lat="12.884355">
                <ele>120.200000</ele>
                <time>2018-02-26T09:35:31.644Z</time>
            </trkpt>
            <trkpt lon="101.011211" lat="12.884365">
                <ele>120.500000</ele>
                <time>2018-02-26T09:35:32.644Z</time>
            </trkpt>
            <trkpt lon="101.011253" lat="12.884382">
                <ele>120.900000</ele>
                <time>2018-02-26T09:35:33.644Z</time>
            </trkpt>
            <trkpt lon="101.011280" lat="12.884406">
                <ele>120.900000</ele>
                <time>2018-02-26T09:35:34.644Z</time>
            </trkpt>
            <trkpt lon="101.011300" lat="12.884430">
                <ele>120.900000</ele>
                <time>2018-02-26T09:35:35.644Z</time>
            </trkpt>
            <trkpt lon="101.011322" lat="12.884466">
                <ele>120.800000</ele>
                <time>2018-02-26T09:35:37.644Z</time>
            </trkpt>
            <trkpt lon="101.011363" lat="12.884484">
                <ele>120.600000</ele>
                <time>2018-02-26T09:35:46.644Z</time>
            </trkpt>
            <trkpt lon="101.011394" lat="12.884509">
                <ele>120.400000</ele>
                <time>2018-02-26T09:35:49.644Z</time>
            </trkpt>
            <trkpt lon="101.011421" lat="12.884533">
                <ele>120.100000</ele>
                <time>2018-02-26T09:35:52.644Z</time>
            </trkpt>
            <trkpt lon="101.011454" lat="12.884555">
                <ele>119.800000</ele>
                <time>2018-02-26T09:35:55.644Z</time>
            </trkpt>
            <trkpt lon="101.011482" lat="12.884565">
                <ele>119.800000</ele>
                <time>2018-02-26T09:35:57.644Z</time>
            </trkpt>
            <trkpt lon="101.011512" lat="12.884576">
                <ele>119.800000</ele>
                <time>2018-02-26T09:36:00.644Z</time>
            </trkpt>
            <trkpt lon="101.011546" lat="12.884589">
                <ele>119.800000</ele>
                <time>2018-02-26T09:36:02.644Z</time>
            </trkpt>
            <trkpt lon="101.011594" lat="12.884603">
                <ele>119.800000</ele>
                <time>2018-02-26T09:36:10.644Z</time>
            </trkpt>
            <trkpt lon="101.011623" lat="12.884611">
                <ele>119.700000</ele>
                <time>2018-02-26T09:36:12.644Z</time>
            </trkpt>
            <trkpt lon="101.011659" lat="12.884617">
                <ele>119.700000</ele>
                <time>2018-02-26T09:36:15.644Z</time>
            </trkpt>
            <trkpt lon="101.011693" lat="12.884620">
                <ele>119.800000</ele>
                <time>2018-02-26T09:36:18.644Z</time>
            </trkpt>
            <trkpt lon="101.011732" lat="12.884624">
                <ele>120.100000</ele>
                <time>2018-02-26T09:36:21.644Z</time>
            </trkpt>
            <trkpt lon="101.011760" lat="12.884623">
                <ele>120.400000</ele>
                <time>2018-02-26T09:36:23.644Z</time>
            </trkpt>
            <trkpt lon="101.011790" lat="12.884618">
                <ele>120.800000</ele>
                <time>2018-02-26T09:36:26.644Z</time>
            </trkpt>
            <trkpt lon="101.011817" lat="12.884603">
                <ele>121.200000</ele>
                <time>2018-02-26T09:36:32.644Z</time>
            </trkpt>
            <trkpt lon="101.011853" lat="12.884599">
                <ele>121.800000</ele>
                <time>2018-02-26T09:36:35.644Z</time>
            </trkpt>
            <trkpt lon="101.011884" lat="12.884582">
                <ele>122.300000</ele>
                <time>2018-02-26T09:36:38.644Z</time>
            </trkpt>
            <trkpt lon="101.011907" lat="12.884557">
                <ele>122.600000</ele>
                <time>2018-02-26T09:36:41.644Z</time>
            </trkpt>
            <trkpt lon="101.011922" lat="12.884527">
                <ele>123.300000</ele>
                <time>2018-02-26T09:36:44.644Z</time>
            </trkpt>
            <trkpt lon="101.011926" lat="12.884498">
                <ele>124.100000</ele>
                <time>2018-02-26T09:37:14.644Z</time>
            </trkpt>
            <trkpt lon="101.011944" lat="12.884527">
                <ele>125.000000</ele>
                <time>2018-02-26T09:37:46.644Z</time>
            </trkpt>
            <trkpt lon="101.011921" lat="12.884512">
                <ele>125.000000</ele>
                <time>2018-02-26T09:38:06.644Z</time>
            </trkpt>
            <trkpt lon="101.011908" lat="12.884484">
                <ele>125.000000</ele>
                <time>2018-02-26T09:38:16.644Z</time>
            </trkpt>
            <trkpt lon="101.011894" lat="12.884458">
                <ele>125.000000</ele>
                <time>2018-02-26T09:38:53.644Z</time>
            </trkpt>
            <trkpt lon="101.011875" lat="12.884437">
                <ele>125.000000</ele>
                <time>2018-02-26T09:39:09.644Z</time>
            </trkpt>
            <trkpt lon="101.011882" lat="12.884403">
                <ele>124.900000</ele>
                <time>2018-02-26T09:39:28.644Z</time>
            </trkpt>
            <trkpt lon="101.011889" lat="12.884375">
                <ele>124.700000</ele>
                <time>2018-02-26T09:39:40.644Z</time>
            </trkpt>
            <trkpt lon="101.011904" lat="12.884352">
                <ele>124.600000</ele>
                <time>2018-02-26T09:40:28.644Z</time>
            </trkpt>
            <trkpt lon="101.011932" lat="12.884353">
                <ele>124.700000</ele>
                <time>2018-02-26T09:40:41.644Z</time>
            </trkpt>
            <trkpt lon="101.011933" lat="12.884382">
                <ele>124.900000</ele>
                <time>2018-02-26T09:41:01.644Z</time>
            </trkpt>
            <trkpt lon="101.011905" lat="12.884363">
                <ele>125.100000</ele>
                <time>2018-02-26T09:41:42.644Z</time>
            </trkpt>
            <trkpt lon="101.011897" lat="12.884334">
                <ele>125.300000</ele>
                <time>2018-02-26T09:41:45.644Z</time>
            </trkpt>
            <trkpt lon="101.011884" lat="12.884306">
                <ele>125.500000</ele>
                <time>2018-02-26T09:41:46.644Z</time>
            </trkpt>
            <trkpt lon="101.011877" lat="12.884270">
                <ele>125.800000</ele>
                <time>2018-02-26T09:41:47.644Z</time>
            </trkpt>
            <trkpt lon="101.011875" lat="12.884233">
                <ele>126.100000</ele>
                <time>2018-02-26T09:41:48.644Z</time>
            </trkpt>
            <trkpt lon="101.011869" lat="12.884195">
                <ele>126.400000</ele>
                <time>2018-02-26T09:41:49.644Z</time>
            </trkpt>
            <trkpt lon="101.011857" lat="12.884144">
                <ele>126.800000</ele>
                <time>2018-02-26T09:41:50.644Z</time>
            </trkpt>
            <trkpt lon="101.011857" lat="12.884098">
                <ele>127.100000</ele>
                <time>2018-02-26T09:41:51.644Z</time>
            </trkpt>
            <trkpt lon="101.011862" lat="12.884052">
                <ele>127.200000</ele>
                <time>2018-02-26T09:41:52.644Z</time>
            </trkpt>
            <trkpt lon="101.011864" lat="12.884013">
                <ele>126.800000</ele>
                <time>2018-02-26T09:41:53.644Z</time>
            </trkpt>
            <trkpt lon="101.011864" lat="12.883972">
                <ele>126.400000</ele>
                <time>2018-02-26T09:41:54.644Z</time>
            </trkpt>
            <trkpt lon="101.011870" lat="12.883933">
                <ele>126.500000</ele>
                <time>2018-02-26T09:41:55.644Z</time>
            </trkpt>
            <trkpt lon="101.011871" lat="12.883898">
                <ele>126.800000</ele>
                <time>2018-02-26T09:41:56.644Z</time>
            </trkpt>
            <trkpt lon="101.011872" lat="12.883867">
                <ele>127.100000</ele>
                <time>2018-02-26T09:41:57.644Z</time>
            </trkpt>
            <trkpt lon="101.011881" lat="12.883819">
                <ele>127.400000</ele>
                <time>2018-02-26T09:41:59.644Z</time>
            </trkpt>
            <trkpt lon="101.011888" lat="12.883785">
                <ele>127.600000</ele>
                <time>2018-02-26T09:42:00.644Z</time>
            </trkpt>
            <trkpt lon="101.011896" lat="12.883751">
                <ele>127.800000</ele>
                <time>2018-02-26T09:42:01.644Z</time>
            </trkpt>
            <trkpt lon="101.011905" lat="12.883718">
                <ele>128.000000</ele>
                <time>2018-02-26T09:42:02.644Z</time>
            </trkpt>
            <trkpt lon="101.011916" lat="12.883682">
                <ele>128.100000</ele>
                <time>2018-02-26T09:42:03.644Z</time>
            </trkpt>
            <trkpt lon="101.011931" lat="12.883648">
                <ele>127.900000</ele>
                <time>2018-02-26T09:42:04.644Z</time>
            </trkpt>
            <trkpt lon="101.011948" lat="12.883621">
                <ele>127.700000</ele>
                <time>2018-02-26T09:42:05.644Z</time>
            </trkpt>
            <trkpt lon="101.011962" lat="12.883596">
                <ele>127.600000</ele>
                <time>2018-02-26T09:42:06.644Z</time>
            </trkpt>
            <trkpt lon="101.011975" lat="12.883571">
                <ele>127.800000</ele>
                <time>2018-02-26T09:42:07.644Z</time>
            </trkpt>
            <trkpt lon="101.011995" lat="12.883544">
                <ele>128.100000</ele>
                <time>2018-02-26T09:42:08.644Z</time>
            </trkpt>
            <trkpt lon="101.012012" lat="12.883520">
                <ele>128.500000</ele>
                <time>2018-02-26T09:42:09.644Z</time>
            </trkpt>
            <trkpt lon="101.012027" lat="12.883494">
                <ele>128.900000</ele>
                <time>2018-02-26T09:42:10.644Z</time>
            </trkpt>
            <trkpt lon="101.012045" lat="12.883470">
                <ele>129.400000</ele>
                <time>2018-02-26T09:42:11.644Z</time>
            </trkpt>
            <trkpt lon="101.012065" lat="12.883449">
                <ele>130.200000</ele>
                <time>2018-02-26T09:42:12.644Z</time>
            </trkpt>
            <trkpt lon="101.012083" lat="12.883428">
                <ele>131.000000</ele>
                <time>2018-02-26T09:42:13.644Z</time>
            </trkpt>
            <trkpt lon="101.012109" lat="12.883394">
                <ele>131.700000</ele>
                <time>2018-02-26T09:42:15.644Z</time>
            </trkpt>
            <trkpt lon="101.012147" lat="12.883368">
                <ele>132.100000</ele>
                <time>2018-02-26T09:42:17.644Z</time>
            </trkpt>
            <trkpt lon="101.012197" lat="12.883352">
                <ele>132.800000</ele>
                <time>2018-02-26T09:42:19.644Z</time>
            </trkpt>
            <trkpt lon="101.012250" lat="12.883342">
                <ele>133.400000</ele>
                <time>2018-02-26T09:42:21.644Z</time>
            </trkpt>
            <trkpt lon="101.012288" lat="12.883335">
                <ele>133.800000</ele>
                <time>2018-02-26T09:42:23.644Z</time>
            </trkpt>
            <trkpt lon="101.012319" lat="12.883331">
                <ele>134.100000</ele>
                <time>2018-02-26T09:42:31.644Z</time>
            </trkpt>
            <trkpt lon="101.012343" lat="12.883316">
                <ele>134.400000</ele>
                <time>2018-02-26T09:42:33.644Z</time>
            </trkpt>
            <trkpt lon="101.012375" lat="12.883312">
                <ele>134.800000</ele>
                <time>2018-02-26T09:42:36.644Z</time>
            </trkpt>
            <trkpt lon="101.012406" lat="12.883304">
                <ele>135.200000</ele>
                <time>2018-02-26T09:42:39.644Z</time>
            </trkpt>
            <trkpt lon="101.012441" lat="12.883302">
                <ele>135.700000</ele>
                <time>2018-02-26T09:42:43.644Z</time>
            </trkpt>
            <trkpt lon="101.012468" lat="12.883290">
                <ele>136.100000</ele>
                <time>2018-02-26T09:42:46.644Z</time>
            </trkpt>
            <trkpt lon="101.012500" lat="12.883279">
                <ele>136.500000</ele>
                <time>2018-02-26T09:42:49.644Z</time>
            </trkpt>
            <trkpt lon="101.012533" lat="12.883268">
                <ele>136.600000</ele>
                <time>2018-02-26T09:42:53.644Z</time>
            </trkpt>
            <trkpt lon="101.012568" lat="12.883252">
                <ele>136.600000</ele>
                <time>2018-02-26T09:42:56.644Z</time>
            </trkpt>
            <trkpt lon="101.012604" lat="12.883229">
                <ele>136.500000</ele>
                <time>2018-02-26T09:43:02.644Z</time>
            </trkpt>
            <trkpt lon="101.012620" lat="12.883206">
                <ele>136.600000</ele>
                <time>2018-02-26T09:43:04.644Z</time>
            </trkpt>
            <trkpt lon="101.012637" lat="12.883184">
                <ele>136.700000</ele>
                <time>2018-02-26T09:43:06.644Z</time>
            </trkpt>
            <trkpt lon="101.012650" lat="12.883154">
                <ele>137.000000</ele>
                <time>2018-02-26T09:43:08.644Z</time>
            </trkpt>
            <trkpt lon="101.012660" lat="12.883119">
                <ele>137.000000</ele>
                <time>2018-02-26T09:43:11.644Z</time>
            </trkpt>
            <trkpt lon="101.012674" lat="12.883087">
                <ele>137.000000</ele>
                <time>2018-02-26T09:43:14.644Z</time>
            </trkpt>
            <trkpt lon="101.012695" lat="12.883059">
                <ele>137.100000</ele>
                <time>2018-02-26T09:43:17.644Z</time>
            </trkpt>
            <trkpt lon="101.012720" lat="12.883031">
                <ele>137.300000</ele>
                <time>2018-02-26T09:43:20.644Z</time>
            </trkpt>
            <trkpt lon="101.012738" lat="12.883005">
                <ele>137.400000</ele>
                <time>2018-02-26T09:43:22.644Z</time>
            </trkpt>
            <trkpt lon="101.012770" lat="12.882989">
                <ele>138.000000</ele>
                <time>2018-02-26T09:43:26.644Z</time>
            </trkpt>
            <trkpt lon="101.012799" lat="12.882972">
                <ele>138.600000</ele>
                <time>2018-02-26T09:43:29.644Z</time>
            </trkpt>
            <trkpt lon="101.012826" lat="12.882941">
                <ele>139.100000</ele>
                <time>2018-02-26T09:43:32.644Z</time>
            </trkpt>
            <trkpt lon="101.012842" lat="12.882917">
                <ele>139.300000</ele>
                <time>2018-02-26T09:43:34.644Z</time>
            </trkpt>
            <trkpt lon="101.012870" lat="12.882886">
                <ele>139.600000</ele>
                <time>2018-02-26T09:43:37.644Z</time>
            </trkpt>
            <trkpt lon="101.012893" lat="12.882864">
                <ele>140.000000</ele>
                <time>2018-02-26T09:43:39.644Z</time>
            </trkpt>
            <trkpt lon="101.012914" lat="12.882846">
                <ele>140.400000</ele>
                <time>2018-02-26T09:43:41.644Z</time>
            </trkpt>
            <trkpt lon="101.012944" lat="12.882830">
                <ele>140.700000</ele>
                <time>2018-02-26T09:43:44.644Z</time>
            </trkpt>
            <trkpt lon="101.012981" lat="12.882818">
                <ele>140.900000</ele>
                <time>2018-02-26T09:43:47.644Z</time>
            </trkpt>
            <trkpt lon="101.013017" lat="12.882811">
                <ele>141.200000</ele>
                <time>2018-02-26T09:43:50.644Z</time>
            </trkpt>
            <trkpt lon="101.013041" lat="12.882797">
                <ele>141.500000</ele>
                <time>2018-02-26T09:43:52.644Z</time>
            </trkpt>
            <trkpt lon="101.013061" lat="12.882770">
                <ele>141.900000</ele>
                <time>2018-02-26T09:43:55.644Z</time>
            </trkpt>
            <trkpt lon="101.013090" lat="12.882744">
                <ele>142.300000</ele>
                <time>2018-02-26T09:43:58.644Z</time>
            </trkpt>
            <trkpt lon="101.013115" lat="12.882721">
                <ele>142.600000</ele>
                <time>2018-02-26T09:44:01.644Z</time>
            </trkpt>
            <trkpt lon="101.013139" lat="12.882698">
                <ele>142.900000</ele>
                <time>2018-02-26T09:44:04.644Z</time>
            </trkpt>
            <trkpt lon="101.013163" lat="12.882683">
                <ele>143.400000</ele>
                <time>2018-02-26T09:44:06.644Z</time>
            </trkpt>
            <trkpt lon="101.013191" lat="12.882662">
                <ele>144.100000</ele>
                <time>2018-02-26T09:44:08.644Z</time>
            </trkpt>
            <trkpt lon="101.013222" lat="12.882635">
                <ele>144.800000</ele>
                <time>2018-02-26T09:44:11.644Z</time>
            </trkpt>
            <trkpt lon="101.013242" lat="12.882612">
                <ele>145.200000</ele>
                <time>2018-02-26T09:44:13.644Z</time>
            </trkpt>
            <trkpt lon="101.013273" lat="12.882583">
                <ele>145.900000</ele>
                <time>2018-02-26T09:44:16.644Z</time>
            </trkpt>
            <trkpt lon="101.013294" lat="12.882561">
                <ele>146.500000</ele>
                <time>2018-02-26T09:44:18.644Z</time>
            </trkpt>
            <trkpt lon="101.013315" lat="12.882539">
                <ele>147.100000</ele>
                <time>2018-02-26T09:44:20.644Z</time>
            </trkpt>
            <trkpt lon="101.013337" lat="12.882515">
                <ele>147.600000</ele>
                <time>2018-02-26T09:44:22.644Z</time>
            </trkpt>
            <trkpt lon="101.013364" lat="12.882492">
                <ele>148.100000</ele>
                <time>2018-02-26T09:44:24.644Z</time>
            </trkpt>
            <trkpt lon="101.013383" lat="12.882463">
                <ele>148.500000</ele>
                <time>2018-02-26T09:44:26.644Z</time>
            </trkpt>
            <trkpt lon="101.013401" lat="12.882434">
                <ele>148.900000</ele>
                <time>2018-02-26T09:44:29.644Z</time>
            </trkpt>
            <trkpt lon="101.013418" lat="12.882394">
                <ele>149.600000</ele>
                <time>2018-02-26T09:44:33.644Z</time>
            </trkpt>
            <trkpt lon="101.013435" lat="12.882368">
                <ele>150.100000</ele>
                <time>2018-02-26T09:44:36.644Z</time>
            </trkpt>
            <trkpt lon="101.013445" lat="12.882337">
                <ele>150.400000</ele>
                <time>2018-02-26T09:44:39.644Z</time>
            </trkpt>
            <trkpt lon="101.013454" lat="12.882309">
                <ele>150.600000</ele>
                <time>2018-02-26T09:44:41.644Z</time>
            </trkpt>
            <trkpt lon="101.013457" lat="12.882280">
                <ele>150.700000</ele>
                <time>2018-02-26T09:44:44.644Z</time>
            </trkpt>
            <trkpt lon="101.013447" lat="12.882254">
                <ele>150.800000</ele>
                <time>2018-02-26T09:44:46.644Z</time>
            </trkpt>
            <trkpt lon="101.013441" lat="12.882226">
                <ele>151.000000</ele>
                <time>2018-02-26T09:45:31.644Z</time>
            </trkpt>
            <trkpt lon="101.013471" lat="12.882195">
                <ele>151.200000</ele>
                <time>2018-02-26T09:45:34.644Z</time>
            </trkpt>
            <trkpt lon="101.013516" lat="12.882183">
                <ele>151.400000</ele>
                <time>2018-02-26T09:45:36.644Z</time>
            </trkpt>
            <trkpt lon="101.013561" lat="12.882181">
                <ele>151.500000</ele>
                <time>2018-02-26T09:45:38.644Z</time>
            </trkpt>
            <trkpt lon="101.013609" lat="12.882155">
                <ele>151.300000</ele>
                <time>2018-02-26T09:45:40.644Z</time>
            </trkpt>
            <trkpt lon="101.013641" lat="12.882147">
                <ele>151.100000</ele>
                <time>2018-02-26T09:45:41.644Z</time>
            </trkpt>
            <trkpt lon="101.013672" lat="12.882145">
                <ele>151.000000</ele>
                <time>2018-02-26T09:45:42.644Z</time>
            </trkpt>
            <trkpt lon="101.013714" lat="12.882132">
                <ele>151.200000</ele>
                <time>2018-02-26T09:45:44.644Z</time>
            </trkpt>
            <trkpt lon="101.013753" lat="12.882118">
                <ele>151.400000</ele>
                <time>2018-02-26T09:45:46.644Z</time>
            </trkpt>
            <trkpt lon="101.013782" lat="12.882116">
                <ele>151.600000</ele>
                <time>2018-02-26T09:45:47.644Z</time>
            </trkpt>
            <trkpt lon="101.013832" lat="12.882125">
                <ele>151.900000</ele>
                <time>2018-02-26T09:45:49.644Z</time>
            </trkpt>
            <trkpt lon="101.013861" lat="12.882155">
                <ele>152.400000</ele>
                <time>2018-02-26T09:45:51.644Z</time>
            </trkpt>
            <trkpt lon="101.013880" lat="12.882205">
                <ele>153.000000</ele>
                <time>2018-02-26T09:45:53.644Z</time>
            </trkpt>
            <trkpt lon="101.013899" lat="12.882252">
                <ele>153.300000</ele>
                <time>2018-02-26T09:45:55.644Z</time>
            </trkpt>
            <trkpt lon="101.013915" lat="12.882294">
                <ele>153.600000</ele>
                <time>2018-02-26T09:45:57.644Z</time>
            </trkpt>
            <trkpt lon="101.013930" lat="12.882329">
                <ele>153.900000</ele>
                <time>2018-02-26T09:45:59.644Z</time>
            </trkpt>
            <trkpt lon="101.013952" lat="12.882365">
                <ele>154.300000</ele>
                <time>2018-02-26T09:46:01.644Z</time>
            </trkpt>
            <trkpt lon="101.013965" lat="12.882400">
                <ele>154.600000</ele>
                <time>2018-02-26T09:46:03.644Z</time>
            </trkpt>
            <trkpt lon="101.013982" lat="12.882442">
                <ele>154.900000</ele>
                <time>2018-02-26T09:46:05.644Z</time>
            </trkpt>
            <trkpt lon="101.013997" lat="12.882486">
                <ele>155.100000</ele>
                <time>2018-02-26T09:46:07.644Z</time>
            </trkpt>
            <trkpt lon="101.014009" lat="12.882534">
                <ele>155.300000</ele>
                <time>2018-02-26T09:46:09.644Z</time>
            </trkpt>
            <trkpt lon="101.014016" lat="12.882565">
                <ele>155.700000</ele>
                <time>2018-02-26T09:46:10.644Z</time>
            </trkpt>
            <trkpt lon="101.014021" lat="12.882593">
                <ele>156.100000</ele>
                <time>2018-02-26T09:46:11.644Z</time>
            </trkpt>
            <trkpt lon="101.014026" lat="12.882624">
                <ele>156.600000</ele>
                <time>2018-02-26T09:46:12.644Z</time>
            </trkpt>
            <trkpt lon="101.014028" lat="12.882652">
                <ele>156.500000</ele>
                <time>2018-02-26T09:46:13.644Z</time>
            </trkpt>
            <trkpt lon="101.014030" lat="12.882682">
                <ele>156.500000</ele>
                <time>2018-02-26T09:46:14.644Z</time>
            </trkpt>
            <trkpt lon="101.014036" lat="12.882709">
                <ele>156.400000</ele>
                <time>2018-02-26T09:46:15.644Z</time>
            </trkpt>
            <trkpt lon="101.014049" lat="12.882752">
                <ele>156.400000</ele>
                <time>2018-02-26T09:46:17.644Z</time>
            </trkpt>
            <trkpt lon="101.014064" lat="12.882800">
                <ele>156.300000</ele>
                <time>2018-02-26T09:46:19.644Z</time>
            </trkpt>
            <trkpt lon="101.014075" lat="12.882855">
                <ele>156.200000</ele>
                <time>2018-02-26T09:46:21.644Z</time>
            </trkpt>
            <trkpt lon="101.014083" lat="12.882882">
                <ele>156.100000</ele>
                <time>2018-02-26T09:46:22.644Z</time>
            </trkpt>
            <trkpt lon="101.014091" lat="12.882909">
                <ele>156.100000</ele>
                <time>2018-02-26T09:46:23.644Z</time>
            </trkpt>
            <trkpt lon="101.014098" lat="12.882936">
                <ele>156.100000</ele>
                <time>2018-02-26T09:46:24.644Z</time>
            </trkpt>
            <trkpt lon="101.014110" lat="12.882987">
                <ele>156.100000</ele>
                <time>2018-02-26T09:46:26.644Z</time>
            </trkpt>
            <trkpt lon="101.014125" lat="12.883043">
                <ele>156.100000</ele>
                <time>2018-02-26T09:46:28.644Z</time>
            </trkpt>
            <trkpt lon="101.014133" lat="12.883071">
                <ele>156.100000</ele>
                <time>2018-02-26T09:46:29.644Z</time>
            </trkpt>
            <trkpt lon="101.014143" lat="12.883123">
                <ele>156.100000</ele>
                <time>2018-02-26T09:46:31.644Z</time>
            </trkpt>
            <trkpt lon="101.014151" lat="12.883171">
                <ele>156.200000</ele>
                <time>2018-02-26T09:46:33.644Z</time>
            </trkpt>
            <trkpt lon="101.014164" lat="12.883221">
                <ele>156.500000</ele>
                <time>2018-02-26T09:46:35.644Z</time>
            </trkpt>
            <trkpt lon="101.014174" lat="12.883260">
                <ele>156.700000</ele>
                <time>2018-02-26T09:46:37.644Z</time>
            </trkpt>
            <trkpt lon="101.014188" lat="12.883299">
                <ele>156.900000</ele>
                <time>2018-02-26T09:46:39.644Z</time>
            </trkpt>
            <trkpt lon="101.014195" lat="12.883343">
                <ele>157.200000</ele>
                <time>2018-02-26T09:46:41.644Z</time>
            </trkpt>
            <trkpt lon="101.014206" lat="12.883384">
                <ele>157.400000</ele>
                <time>2018-02-26T09:46:43.644Z</time>
            </trkpt>
            <trkpt lon="101.014202" lat="12.883436">
                <ele>157.800000</ele>
                <time>2018-02-26T09:46:45.644Z</time>
            </trkpt>
            <trkpt lon="101.014181" lat="12.883482">
                <ele>158.100000</ele>
                <time>2018-02-26T09:46:47.644Z</time>
            </trkpt>
            <trkpt lon="101.014168" lat="12.883511">
                <ele>158.200000</ele>
                <time>2018-02-26T09:46:48.644Z</time>
            </trkpt>
            <trkpt lon="101.014155" lat="12.883538">
                <ele>158.300000</ele>
                <time>2018-02-26T09:46:49.644Z</time>
            </trkpt>
            <trkpt lon="101.014137" lat="12.883586">
                <ele>158.500000</ele>
                <time>2018-02-26T09:46:51.644Z</time>
            </trkpt>
            <trkpt lon="101.014116" lat="12.883639">
                <ele>158.800000</ele>
                <time>2018-02-26T09:46:53.644Z</time>
            </trkpt>
            <trkpt lon="101.014103" lat="12.883666">
                <ele>159.100000</ele>
                <time>2018-02-26T09:46:54.644Z</time>
            </trkpt>
            <trkpt lon="101.014090" lat="12.883693">
                <ele>159.300000</ele>
                <time>2018-02-26T09:46:55.644Z</time>
            </trkpt>
            <trkpt lon="101.014073" lat="12.883734">
                <ele>160.000000</ele>
                <time>2018-02-26T09:46:57.644Z</time>
            </trkpt>
            <trkpt lon="101.014052" lat="12.883783">
                <ele>160.900000</ele>
                <time>2018-02-26T09:46:59.644Z</time>
            </trkpt>
            <trkpt lon="101.014040" lat="12.883809">
                <ele>161.300000</ele>
                <time>2018-02-26T09:47:00.644Z</time>
            </trkpt>
            <trkpt lon="101.014029" lat="12.883857">
                <ele>161.900000</ele>
                <time>2018-02-26T09:47:02.644Z</time>
            </trkpt>
            <trkpt lon="101.014026" lat="12.883906">
                <ele>162.600000</ele>
                <time>2018-02-26T09:47:04.644Z</time>
            </trkpt>
            <trkpt lon="101.014027" lat="12.883934">
                <ele>163.000000</ele>
                <time>2018-02-26T09:47:05.644Z</time>
            </trkpt>
            <trkpt lon="101.014037" lat="12.883971">
                <ele>163.400000</ele>
                <time>2018-02-26T09:47:07.644Z</time>
            </trkpt>
            <trkpt lon="101.014053" lat="12.884013">
                <ele>163.900000</ele>
                <time>2018-02-26T09:47:09.644Z</time>
            </trkpt>
            <trkpt lon="101.014064" lat="12.884040">
                <ele>164.100000</ele>
                <time>2018-02-26T09:47:10.644Z</time>
            </trkpt>
            <trkpt lon="101.014087" lat="12.884087">
                <ele>164.400000</ele>
                <time>2018-02-26T09:47:12.644Z</time>
            </trkpt>
            <trkpt lon="101.014094" lat="12.884115">
                <ele>164.400000</ele>
                <time>2018-02-26T09:47:13.644Z</time>
            </trkpt>
            <trkpt lon="101.014111" lat="12.884167">
                <ele>164.600000</ele>
                <time>2018-02-26T09:47:15.644Z</time>
            </trkpt>
            <trkpt lon="101.014120" lat="12.884192">
                <ele>164.800000</ele>
                <time>2018-02-26T09:47:16.644Z</time>
            </trkpt>
            <trkpt lon="101.014127" lat="12.884220">
                <ele>165.100000</ele>
                <time>2018-02-26T09:47:17.644Z</time>
            </trkpt>
            <trkpt lon="101.014144" lat="12.884269">
                <ele>165.600000</ele>
                <time>2018-02-26T09:47:19.644Z</time>
            </trkpt>
            <trkpt lon="101.014162" lat="12.884323">
                <ele>166.100000</ele>
                <time>2018-02-26T09:47:21.644Z</time>
            </trkpt>
            <trkpt lon="101.014171" lat="12.884352">
                <ele>166.400000</ele>
                <time>2018-02-26T09:47:22.644Z</time>
            </trkpt>
            <trkpt lon="101.014184" lat="12.884377">
                <ele>166.600000</ele>
                <time>2018-02-26T09:47:23.644Z</time>
            </trkpt>
            <trkpt lon="101.014209" lat="12.884424">
                <ele>167.000000</ele>
                <time>2018-02-26T09:47:25.644Z</time>
            </trkpt>
            <trkpt lon="101.014231" lat="12.884465">
                <ele>167.300000</ele>
                <time>2018-02-26T09:47:27.644Z</time>
            </trkpt>
            <trkpt lon="101.014255" lat="12.884506">
                <ele>167.500000</ele>
                <time>2018-02-26T09:47:29.644Z</time>
            </trkpt>
            <trkpt lon="101.014279" lat="12.884545">
                <ele>167.700000</ele>
                <time>2018-02-26T09:47:31.644Z</time>
            </trkpt>
            <trkpt lon="101.014295" lat="12.884568">
                <ele>167.800000</ele>
                <time>2018-02-26T09:47:32.644Z</time>
            </trkpt>
            <trkpt lon="101.014309" lat="12.884593">
                <ele>167.900000</ele>
                <time>2018-02-26T09:47:33.644Z</time>
            </trkpt>
            <trkpt lon="101.014334" lat="12.884636">
                <ele>168.200000</ele>
                <time>2018-02-26T09:47:35.644Z</time>
            </trkpt>
            <trkpt lon="101.014359" lat="12.884676">
                <ele>168.600000</ele>
                <time>2018-02-26T09:47:37.644Z</time>
            </trkpt>
            <trkpt lon="101.014379" lat="12.884722">
                <ele>168.900000</ele>
                <time>2018-02-26T09:47:39.644Z</time>
            </trkpt>
            <trkpt lon="101.014386" lat="12.884750">
                <ele>169.100000</ele>
                <time>2018-02-26T09:47:40.644Z</time>
            </trkpt>
            <trkpt lon="101.014401" lat="12.884795">
                <ele>169.200000</ele>
                <time>2018-02-26T09:47:42.644Z</time>
            </trkpt>
            <trkpt lon="101.014413" lat="12.884835">
                <ele>169.300000</ele>
                <time>2018-02-26T09:47:44.644Z</time>
            </trkpt>
            <trkpt lon="101.014413" lat="12.884872">
                <ele>169.400000</ele>
                <time>2018-02-26T09:47:46.644Z</time>
            </trkpt>
            <trkpt lon="101.014409" lat="12.884910">
                <ele>169.500000</ele>
                <time>2018-02-26T09:47:48.644Z</time>
            </trkpt>
            <trkpt lon="101.014405" lat="12.884956">
                <ele>169.700000</ele>
                <time>2018-02-26T09:47:50.644Z</time>
            </trkpt>
            <trkpt lon="101.014396" lat="12.885006">
                <ele>169.900000</ele>
                <time>2018-02-26T09:47:52.644Z</time>
            </trkpt>
            <trkpt lon="101.014380" lat="12.885050">
                <ele>170.100000</ele>
                <time>2018-02-26T09:47:54.644Z</time>
            </trkpt>
            <trkpt lon="101.014370" lat="12.885090">
                <ele>170.300000</ele>
                <time>2018-02-26T09:47:56.644Z</time>
            </trkpt>
            <trkpt lon="101.014369" lat="12.885141">
                <ele>170.700000</ele>
                <time>2018-02-26T09:47:58.644Z</time>
            </trkpt>
            <trkpt lon="101.014371" lat="12.885187">
                <ele>171.000000</ele>
                <time>2018-02-26T09:48:00.644Z</time>
            </trkpt>
            <trkpt lon="101.014368" lat="12.885215">
                <ele>171.200000</ele>
                <time>2018-02-26T09:48:01.644Z</time>
            </trkpt>
            <trkpt lon="101.014367" lat="12.885242">
                <ele>171.400000</ele>
                <time>2018-02-26T09:48:02.644Z</time>
            </trkpt>
            <trkpt lon="101.014366" lat="12.885293">
                <ele>171.800000</ele>
                <time>2018-02-26T09:48:04.644Z</time>
            </trkpt>
            <trkpt lon="101.014364" lat="12.885343">
                <ele>172.200000</ele>
                <time>2018-02-26T09:48:06.644Z</time>
            </trkpt>
            <trkpt lon="101.014366" lat="12.885392">
                <ele>172.700000</ele>
                <time>2018-02-26T09:48:08.644Z</time>
            </trkpt>
            <trkpt lon="101.014370" lat="12.885438">
                <ele>173.200000</ele>
                <time>2018-02-26T09:48:10.644Z</time>
            </trkpt>
            <trkpt lon="101.014370" lat="12.885483">
                <ele>173.800000</ele>
                <time>2018-02-26T09:48:12.644Z</time>
            </trkpt>
            <trkpt lon="101.014370" lat="12.885528">
                <ele>174.300000</ele>
                <time>2018-02-26T09:48:14.644Z</time>
            </trkpt>
            <trkpt lon="101.014361" lat="12.885566">
                <ele>174.800000</ele>
                <time>2018-02-26T09:48:16.644Z</time>
            </trkpt>
            <trkpt lon="101.014354" lat="12.885601">
                <ele>175.100000</ele>
                <time>2018-02-26T09:48:18.644Z</time>
            </trkpt>
            <trkpt lon="101.014345" lat="12.885641">
                <ele>175.400000</ele>
                <time>2018-02-26T09:48:20.644Z</time>
            </trkpt>
            <trkpt lon="101.014343" lat="12.885678">
                <ele>175.800000</ele>
                <time>2018-02-26T09:48:22.644Z</time>
            </trkpt>
            <trkpt lon="101.014334" lat="12.885710">
                <ele>176.400000</ele>
                <time>2018-02-26T09:48:24.644Z</time>
            </trkpt>
            <trkpt lon="101.014324" lat="12.885754">
                <ele>177.000000</ele>
                <time>2018-02-26T09:48:26.644Z</time>
            </trkpt>
            <trkpt lon="101.014318" lat="12.885798">
                <ele>177.400000</ele>
                <time>2018-02-26T09:48:28.644Z</time>
            </trkpt>
            <trkpt lon="101.014316" lat="12.885838">
                <ele>177.700000</ele>
                <time>2018-02-26T09:48:30.644Z</time>
            </trkpt>
            <trkpt lon="101.014314" lat="12.885881">
                <ele>178.000000</ele>
                <time>2018-02-26T09:48:32.644Z</time>
            </trkpt>
            <trkpt lon="101.014313" lat="12.885935">
                <ele>178.200000</ele>
                <time>2018-02-26T09:48:34.644Z</time>
            </trkpt>
            <trkpt lon="101.014314" lat="12.885986">
                <ele>178.300000</ele>
                <time>2018-02-26T09:48:36.644Z</time>
            </trkpt>
            <trkpt lon="101.014320" lat="12.886032">
                <ele>178.300000</ele>
                <time>2018-02-26T09:48:38.644Z</time>
            </trkpt>
            <trkpt lon="101.014329" lat="12.886075">
                <ele>178.200000</ele>
                <time>2018-02-26T09:48:40.644Z</time>
            </trkpt>
            <trkpt lon="101.014352" lat="12.886114">
                <ele>178.000000</ele>
                <time>2018-02-26T09:48:42.644Z</time>
            </trkpt>
            <trkpt lon="101.014373" lat="12.886156">
                <ele>178.000000</ele>
                <time>2018-02-26T09:48:44.644Z</time>
            </trkpt>
            <trkpt lon="101.014386" lat="12.886195">
                <ele>178.300000</ele>
                <time>2018-02-26T09:48:46.644Z</time>
            </trkpt>
            <trkpt lon="101.014404" lat="12.886221">
                <ele>178.500000</ele>
                <time>2018-02-26T09:48:48.644Z</time>
            </trkpt>
            <trkpt lon="101.014429" lat="12.886247">
                <ele>178.500000</ele>
                <time>2018-02-26T09:48:50.644Z</time>
            </trkpt>
            <trkpt lon="101.014461" lat="12.886262">
                <ele>178.300000</ele>
                <time>2018-02-26T09:48:53.644Z</time>
            </trkpt>
            <trkpt lon="101.014501" lat="12.886232">
                <ele>178.900000</ele>
                <time>2018-02-26T09:49:08.644Z</time>
            </trkpt>
            <trkpt lon="101.014554" lat="12.886203">
                <ele>179.100000</ele>
                <time>2018-02-26T09:49:10.644Z</time>
            </trkpt>
            <trkpt lon="101.014591" lat="12.886188">
                <ele>178.900000</ele>
                <time>2018-02-26T09:49:11.644Z</time>
            </trkpt>
            <trkpt lon="101.014627" lat="12.886168">
                <ele>178.800000</ele>
                <time>2018-02-26T09:49:12.644Z</time>
            </trkpt>
            <trkpt lon="101.014678" lat="12.886141">
                <ele>178.300000</ele>
                <time>2018-02-26T09:49:13.644Z</time>
            </trkpt>
            <trkpt lon="101.014732" lat="12.886112">
                <ele>178.300000</ele>
                <time>2018-02-26T09:49:14.644Z</time>
            </trkpt>
            <trkpt lon="101.014782" lat="12.886085">
                <ele>177.800000</ele>
                <time>2018-02-26T09:49:15.644Z</time>
            </trkpt>
            <trkpt lon="101.014824" lat="12.886053">
                <ele>177.200000</ele>
                <time>2018-02-26T09:49:16.644Z</time>
            </trkpt>
            <trkpt lon="101.014864" lat="12.886031">
                <ele>177.200000</ele>
                <time>2018-02-26T09:49:17.644Z</time>
            </trkpt>
            <trkpt lon="101.014894" lat="12.886012">
                <ele>176.600000</ele>
                <time>2018-02-26T09:49:18.644Z</time>
            </trkpt>
            <trkpt lon="101.014922" lat="12.885989">
                <ele>176.700000</ele>
                <time>2018-02-26T09:49:19.644Z</time>
            </trkpt>
            <trkpt lon="101.014943" lat="12.885969">
                <ele>176.100000</ele>
                <time>2018-02-26T09:49:20.644Z</time>
            </trkpt>
            <trkpt lon="101.014962" lat="12.885948">
                <ele>176.200000</ele>
                <time>2018-02-26T09:49:21.644Z</time>
            </trkpt>
            <trkpt lon="101.014983" lat="12.885925">
                <ele>175.600000</ele>
                <time>2018-02-26T09:49:22.644Z</time>
            </trkpt>
            <trkpt lon="101.015000" lat="12.885899">
                <ele>175.000000</ele>
                <time>2018-02-26T09:49:24.644Z</time>
            </trkpt>
            <trkpt lon="101.015016" lat="12.885869">
                <ele>174.900000</ele>
                <time>2018-02-26T09:49:26.644Z</time>
            </trkpt>
            <trkpt lon="101.015029" lat="12.885844">
                <ele>174.300000</ele>
                <time>2018-02-26T09:49:27.644Z</time>
            </trkpt>
            <trkpt lon="101.015043" lat="12.885809">
                <ele>173.500000</ele>
                <time>2018-02-26T09:49:28.644Z</time>
            </trkpt>
            <trkpt lon="101.015063" lat="12.885758">
                <ele>172.800000</ele>
                <time>2018-02-26T09:49:29.644Z</time>
            </trkpt>
            <trkpt lon="101.015087" lat="12.885691">
                <ele>170.800000</ele>
                <time>2018-02-26T09:49:30.644Z</time>
            </trkpt>
            <trkpt lon="101.015110" lat="12.885627">
                <ele>170.000000</ele>
                <time>2018-02-26T09:49:31.644Z</time>
            </trkpt>
            <trkpt lon="101.015136" lat="12.885572">
                <ele>168.700000</ele>
                <time>2018-02-26T09:49:32.644Z</time>
            </trkpt>
            <trkpt lon="101.015158" lat="12.885535">
                <ele>168.000000</ele>
                <time>2018-02-26T09:49:33.644Z</time>
            </trkpt>
            <trkpt lon="101.015170" lat="12.885509">
                <ele>167.100000</ele>
                <time>2018-02-26T09:49:34.644Z</time>
            </trkpt>
            <trkpt lon="101.015182" lat="12.885480">
                <ele>166.800000</ele>
                <time>2018-02-26T09:49:35.644Z</time>
            </trkpt>
            <trkpt lon="101.015195" lat="12.885451">
                <ele>166.800000</ele>
                <time>2018-02-26T09:49:36.644Z</time>
            </trkpt>
            <trkpt lon="101.015209" lat="12.885416">
                <ele>166.500000</ele>
                <time>2018-02-26T09:49:37.644Z</time>
            </trkpt>
            <trkpt lon="101.015224" lat="12.885364">
                <ele>165.700000</ele>
                <time>2018-02-26T09:49:38.644Z</time>
            </trkpt>
            <trkpt lon="101.015246" lat="12.885313">
                <ele>165.500000</ele>
                <time>2018-02-26T09:49:39.644Z</time>
            </trkpt>
            <trkpt lon="101.015274" lat="12.885249">
                <ele>165.200000</ele>
                <time>2018-02-26T09:49:40.644Z</time>
            </trkpt>
            <trkpt lon="101.015304" lat="12.885172">
                <ele>164.600000</ele>
                <time>2018-02-26T09:49:41.644Z</time>
            </trkpt>
            <trkpt lon="101.015324" lat="12.885101">
                <ele>163.700000</ele>
                <time>2018-02-26T09:49:42.644Z</time>
            </trkpt>
            <trkpt lon="101.015334" lat="12.885040">
                <ele>163.300000</ele>
                <time>2018-02-26T09:49:43.644Z</time>
            </trkpt>
            <trkpt lon="101.015347" lat="12.884982">
                <ele>163.000000</ele>
                <time>2018-02-26T09:49:44.644Z</time>
            </trkpt>
            <trkpt lon="101.015371" lat="12.884927">
                <ele>162.400000</ele>
                <time>2018-02-26T09:49:45.644Z</time>
            </trkpt>
            <trkpt lon="101.015396" lat="12.884864">
                <ele>162.100000</ele>
                <time>2018-02-26T09:49:46.644Z</time>
            </trkpt>
            <trkpt lon="101.015429" lat="12.884813">
                <ele>161.500000</ele>
                <time>2018-02-26T09:49:47.644Z</time>
            </trkpt>
            <trkpt lon="101.015468" lat="12.884768">
                <ele>161.200000</ele>
                <time>2018-02-26T09:49:48.644Z</time>
            </trkpt>
            <trkpt lon="101.015500" lat="12.884729">
                <ele>161.000000</ele>
                <time>2018-02-26T09:49:49.644Z</time>
            </trkpt>
            <trkpt lon="101.015506" lat="12.884690">
                <ele>161.000000</ele>
                <time>2018-02-26T09:49:50.644Z</time>
            </trkpt>
            <trkpt lon="101.015483" lat="12.884647">
                <ele>160.600000</ele>
                <time>2018-02-26T09:49:52.644Z</time>
            </trkpt>
            <trkpt lon="101.015468" lat="12.884621">
                <ele>160.300000</ele>
                <time>2018-02-26T09:49:53.644Z</time>
            </trkpt>
            <trkpt lon="101.015445" lat="12.884585">
                <ele>160.100000</ele>
                <time>2018-02-26T09:49:55.644Z</time>
            </trkpt>
            <trkpt lon="101.015413" lat="12.884542">
                <ele>159.900000</ele>
                <time>2018-02-26T09:49:57.644Z</time>
            </trkpt>
            <trkpt lon="101.015393" lat="12.884517">
                <ele>159.600000</ele>
                <time>2018-02-26T09:49:58.644Z</time>
            </trkpt>
            <trkpt lon="101.015370" lat="12.884499">
                <ele>159.600000</ele>
                <time>2018-02-26T09:49:59.644Z</time>
            </trkpt>
            <trkpt lon="101.015348" lat="12.884481">
                <ele>159.600000</ele>
                <time>2018-02-26T09:50:00.644Z</time>
            </trkpt>
            <trkpt lon="101.015328" lat="12.884458">
                <ele>159.500000</ele>
                <time>2018-02-26T09:50:01.644Z</time>
            </trkpt>
            <trkpt lon="101.015309" lat="12.884430">
                <ele>159.400000</ele>
                <time>2018-02-26T09:50:02.644Z</time>
            </trkpt>
            <trkpt lon="101.015301" lat="12.884394">
                <ele>159.200000</ele>
                <time>2018-02-26T09:50:03.644Z</time>
            </trkpt>
            <trkpt lon="101.015297" lat="12.884350">
                <ele>158.800000</ele>
                <time>2018-02-26T09:50:04.644Z</time>
            </trkpt>
            <trkpt lon="101.015293" lat="12.884307">
                <ele>158.500000</ele>
                <time>2018-02-26T09:50:05.644Z</time>
            </trkpt>
            <trkpt lon="101.015293" lat="12.884270">
                <ele>158.500000</ele>
                <time>2018-02-26T09:50:06.644Z</time>
            </trkpt>
            <trkpt lon="101.015289" lat="12.884234">
                <ele>158.000000</ele>
                <time>2018-02-26T09:50:07.644Z</time>
            </trkpt>
            <trkpt lon="101.015287" lat="12.884202">
                <ele>157.400000</ele>
                <time>2018-02-26T09:50:08.644Z</time>
            </trkpt>
            <trkpt lon="101.015284" lat="12.884163">
                <ele>156.900000</ele>
                <time>2018-02-26T09:50:09.644Z</time>
            </trkpt>
            <trkpt lon="101.015287" lat="12.884126">
                <ele>156.400000</ele>
                <time>2018-02-26T09:50:10.644Z</time>
            </trkpt>
            <trkpt lon="101.015285" lat="12.884088">
                <ele>155.800000</ele>
                <time>2018-02-26T09:50:11.644Z</time>
            </trkpt>
            <trkpt lon="101.015276" lat="12.884056">
                <ele>155.300000</ele>
                <time>2018-02-26T09:50:12.644Z</time>
            </trkpt>
            <trkpt lon="101.015245" lat="12.884031">
                <ele>155.500000</ele>
                <time>2018-02-26T09:50:13.644Z</time>
            </trkpt>
            <trkpt lon="101.015208" lat="12.884013">
                <ele>155.100000</ele>
                <time>2018-02-26T09:50:14.644Z</time>
            </trkpt>
            <trkpt lon="101.015156" lat="12.883993">
                <ele>155.300000</ele>
                <time>2018-02-26T09:50:16.644Z</time>
            </trkpt>
            <trkpt lon="101.015132" lat="12.883972">
                <ele>154.500000</ele>
                <time>2018-02-26T09:50:17.644Z</time>
            </trkpt>
            <trkpt lon="101.015115" lat="12.883934">
                <ele>154.000000</ele>
                <time>2018-02-26T09:50:18.644Z</time>
            </trkpt>
            <trkpt lon="101.015101" lat="12.883889">
                <ele>153.200000</ele>
                <time>2018-02-26T09:50:19.644Z</time>
            </trkpt>
            <trkpt lon="101.015086" lat="12.883843">
                <ele>152.600000</ele>
                <time>2018-02-26T09:50:20.644Z</time>
            </trkpt>
            <trkpt lon="101.015073" lat="12.883799">
                <ele>152.300000</ele>
                <time>2018-02-26T09:50:21.644Z</time>
            </trkpt>
            <trkpt lon="101.015054" lat="12.883757">
                <ele>151.700000</ele>
                <time>2018-02-26T09:50:22.644Z</time>
            </trkpt>
            <trkpt lon="101.015035" lat="12.883719">
                <ele>151.400000</ele>
                <time>2018-02-26T09:50:23.644Z</time>
            </trkpt>
            <trkpt lon="101.015016" lat="12.883681">
                <ele>151.100000</ele>
                <time>2018-02-26T09:50:24.644Z</time>
            </trkpt>
            <trkpt lon="101.014994" lat="12.883642">
                <ele>151.000000</ele>
                <time>2018-02-26T09:50:25.644Z</time>
            </trkpt>
            <trkpt lon="101.014974" lat="12.883599">
                <ele>150.700000</ele>
                <time>2018-02-26T09:50:26.644Z</time>
            </trkpt>
            <trkpt lon="101.014953" lat="12.883547">
                <ele>150.500000</ele>
                <time>2018-02-26T09:50:27.644Z</time>
            </trkpt>
            <trkpt lon="101.014929" lat="12.883499">
                <ele>150.600000</ele>
                <time>2018-02-26T09:50:28.644Z</time>
            </trkpt>
            <trkpt lon="101.014901" lat="12.883453">
                <ele>151.000000</ele>
                <time>2018-02-26T09:50:29.644Z</time>
            </trkpt>
            <trkpt lon="101.014876" lat="12.883412">
                <ele>151.000000</ele>
                <time>2018-02-26T09:50:30.644Z</time>
            </trkpt>
            <trkpt lon="101.014857" lat="12.883374">
                <ele>151.700000</ele>
                <time>2018-02-26T09:50:31.644Z</time>
            </trkpt>
            <trkpt lon="101.014839" lat="12.883342">
                <ele>151.700000</ele>
                <time>2018-02-26T09:50:32.644Z</time>
            </trkpt>
            <trkpt lon="101.014826" lat="12.883315">
                <ele>151.700000</ele>
                <time>2018-02-26T09:50:33.644Z</time>
            </trkpt>
            <trkpt lon="101.014827" lat="12.883262">
                <ele>151.600000</ele>
                <time>2018-02-26T09:50:35.644Z</time>
            </trkpt>
            <trkpt lon="101.014833" lat="12.883234">
                <ele>151.600000</ele>
                <time>2018-02-26T09:50:36.644Z</time>
            </trkpt>
            <trkpt lon="101.014840" lat="12.883205">
                <ele>151.600000</ele>
                <time>2018-02-26T09:50:37.644Z</time>
            </trkpt>
            <trkpt lon="101.014853" lat="12.883174">
                <ele>151.400000</ele>
                <time>2018-02-26T09:50:38.644Z</time>
            </trkpt>
            <trkpt lon="101.014876" lat="12.883144">
                <ele>150.700000</ele>
                <time>2018-02-26T09:50:39.644Z</time>
            </trkpt>
            <trkpt lon="101.014898" lat="12.883119">
                <ele>150.600000</ele>
                <time>2018-02-26T09:50:40.644Z</time>
            </trkpt>
            <trkpt lon="101.014922" lat="12.883096">
                <ele>150.000000</ele>
                <time>2018-02-26T09:50:41.644Z</time>
            </trkpt>
            <trkpt lon="101.014946" lat="12.883072">
                <ele>150.000000</ele>
                <time>2018-02-26T09:50:42.644Z</time>
            </trkpt>
            <trkpt lon="101.014962" lat="12.883049">
                <ele>149.500000</ele>
                <time>2018-02-26T09:50:43.644Z</time>
            </trkpt>
            <trkpt lon="101.014976" lat="12.883022">
                <ele>149.400000</ele>
                <time>2018-02-26T09:50:44.644Z</time>
            </trkpt>
            <trkpt lon="101.014981" lat="12.882995">
                <ele>149.200000</ele>
                <time>2018-02-26T09:50:45.644Z</time>
            </trkpt>
            <trkpt lon="101.014968" lat="12.882951">
                <ele>148.900000</ele>
                <time>2018-02-26T09:50:47.644Z</time>
            </trkpt>
            <trkpt lon="101.014946" lat="12.882920">
                <ele>148.700000</ele>
                <time>2018-02-26T09:50:49.644Z</time>
            </trkpt>
            <trkpt lon="101.014928" lat="12.882889">
                <ele>148.200000</ele>
                <time>2018-02-26T09:50:52.644Z</time>
            </trkpt>
            <trkpt lon="101.014914" lat="12.882859">
                <ele>148.200000</ele>
                <time>2018-02-26T09:50:54.644Z</time>
            </trkpt>
            <trkpt lon="101.014901" lat="12.882830">
                <ele>147.900000</ele>
                <time>2018-02-26T09:50:55.644Z</time>
            </trkpt>
            <trkpt lon="101.014891" lat="12.882792">
                <ele>147.400000</ele>
                <time>2018-02-26T09:50:56.644Z</time>
            </trkpt>
            <trkpt lon="101.014881" lat="12.882754">
                <ele>146.900000</ele>
                <time>2018-02-26T09:50:57.644Z</time>
            </trkpt>
            <trkpt lon="101.014871" lat="12.882709">
                <ele>146.300000</ele>
                <time>2018-02-26T09:50:58.644Z</time>
            </trkpt>
            <trkpt lon="101.014858" lat="12.882662">
                <ele>146.400000</ele>
                <time>2018-02-26T09:50:59.644Z</time>
            </trkpt>
            <trkpt lon="101.014847" lat="12.882622">
                <ele>146.000000</ele>
                <time>2018-02-26T09:51:00.644Z</time>
            </trkpt>
            <trkpt lon="101.014833" lat="12.882582">
                <ele>145.600000</ele>
                <time>2018-02-26T09:51:01.644Z</time>
            </trkpt>
            <trkpt lon="101.014819" lat="12.882540">
                <ele>145.500000</ele>
                <time>2018-02-26T09:51:02.644Z</time>
            </trkpt>
            <trkpt lon="101.014806" lat="12.882501">
                <ele>145.000000</ele>
                <time>2018-02-26T09:51:03.644Z</time>
            </trkpt>
            <trkpt lon="101.014793" lat="12.882462">
                <ele>144.500000</ele>
                <time>2018-02-26T09:51:04.644Z</time>
            </trkpt>
            <trkpt lon="101.014780" lat="12.882424">
                <ele>144.200000</ele>
                <time>2018-02-26T09:51:05.644Z</time>
            </trkpt>
            <trkpt lon="101.014765" lat="12.882374">
                <ele>143.700000</ele>
                <time>2018-02-26T09:51:06.644Z</time>
            </trkpt>
            <trkpt lon="101.014747" lat="12.882323">
                <ele>143.400000</ele>
                <time>2018-02-26T09:51:07.644Z</time>
            </trkpt>
            <trkpt lon="101.014730" lat="12.882281">
                <ele>143.700000</ele>
                <time>2018-02-26T09:51:08.644Z</time>
            </trkpt>
            <trkpt lon="101.014715" lat="12.882243">
                <ele>143.700000</ele>
                <time>2018-02-26T09:51:09.644Z</time>
            </trkpt>
            <trkpt lon="101.014699" lat="12.882206">
                <ele>143.700000</ele>
                <time>2018-02-26T09:51:10.644Z</time>
            </trkpt>
            <trkpt lon="101.014682" lat="12.882170">
                <ele>144.200000</ele>
                <time>2018-02-26T09:51:11.644Z</time>
            </trkpt>
            <trkpt lon="101.014668" lat="12.882134">
                <ele>144.300000</ele>
                <time>2018-02-26T09:51:12.644Z</time>
            </trkpt>
            <trkpt lon="101.014653" lat="12.882098">
                <ele>144.300000</ele>
                <time>2018-02-26T09:51:13.644Z</time>
            </trkpt>
            <trkpt lon="101.014638" lat="12.882060">
                <ele>144.800000</ele>
                <time>2018-02-26T09:51:14.644Z</time>
            </trkpt>
            <trkpt lon="101.014629" lat="12.882032">
                <ele>144.800000</ele>
                <time>2018-02-26T09:51:15.644Z</time>
            </trkpt>
            <trkpt lon="101.014617" lat="12.881998">
                <ele>144.900000</ele>
                <time>2018-02-26T09:51:16.644Z</time>
            </trkpt>
            <trkpt lon="101.014604" lat="12.881960">
                <ele>145.400000</ele>
                <time>2018-02-26T09:51:17.644Z</time>
            </trkpt>
            <trkpt lon="101.014588" lat="12.881920">
                <ele>145.600000</ele>
                <time>2018-02-26T09:51:18.644Z</time>
            </trkpt>
            <trkpt lon="101.014572" lat="12.881879">
                <ele>145.700000</ele>
                <time>2018-02-26T09:51:19.644Z</time>
            </trkpt>
            <trkpt lon="101.014554" lat="12.881836">
                <ele>145.900000</ele>
                <time>2018-02-26T09:51:20.644Z</time>
            </trkpt>
            <trkpt lon="101.014536" lat="12.881792">
                <ele>145.600000</ele>
                <time>2018-02-26T09:51:21.644Z</time>
            </trkpt>
            <trkpt lon="101.014520" lat="12.881753">
                <ele>145.300000</ele>
                <time>2018-02-26T09:51:22.644Z</time>
            </trkpt>
            <trkpt lon="101.014503" lat="12.881714">
                <ele>145.000000</ele>
                <time>2018-02-26T09:51:23.644Z</time>
            </trkpt>
            <trkpt lon="101.014490" lat="12.881675">
                <ele>144.600000</ele>
                <time>2018-02-26T09:51:24.644Z</time>
            </trkpt>
            <trkpt lon="101.014474" lat="12.881635">
                <ele>144.500000</ele>
                <time>2018-02-26T09:51:25.644Z</time>
            </trkpt>
            <trkpt lon="101.014459" lat="12.881595">
                <ele>143.900000</ele>
                <time>2018-02-26T09:51:26.644Z</time>
            </trkpt>
            <trkpt lon="101.014447" lat="12.881557">
                <ele>143.300000</ele>
                <time>2018-02-26T09:51:27.644Z</time>
            </trkpt>
            <trkpt lon="101.014435" lat="12.881518">
                <ele>142.900000</ele>
                <time>2018-02-26T09:51:28.644Z</time>
            </trkpt>
            <trkpt lon="101.014423" lat="12.881476">
                <ele>142.300000</ele>
                <time>2018-02-26T09:51:29.644Z</time>
            </trkpt>
            <trkpt lon="101.014410" lat="12.881432">
                <ele>141.800000</ele>
                <time>2018-02-26T09:51:30.644Z</time>
            </trkpt>
            <trkpt lon="101.014397" lat="12.881390">
                <ele>141.300000</ele>
                <time>2018-02-26T09:51:31.644Z</time>
            </trkpt>
            <trkpt lon="101.014385" lat="12.881342">
                <ele>140.900000</ele>
                <time>2018-02-26T09:51:32.644Z</time>
            </trkpt>
            <trkpt lon="101.014373" lat="12.881294">
                <ele>139.800000</ele>
                <time>2018-02-26T09:51:33.644Z</time>
            </trkpt>
            <trkpt lon="101.014366" lat="12.881244">
                <ele>139.300000</ele>
                <time>2018-02-26T09:51:34.644Z</time>
            </trkpt>
            <trkpt lon="101.014363" lat="12.881197">
                <ele>138.800000</ele>
                <time>2018-02-26T09:51:35.644Z</time>
            </trkpt>
            <trkpt lon="101.014360" lat="12.881150">
                <ele>138.200000</ele>
                <time>2018-02-26T09:51:36.644Z</time>
            </trkpt>
            <trkpt lon="101.014348" lat="12.881100">
                <ele>138.000000</ele>
                <time>2018-02-26T09:51:37.644Z</time>
            </trkpt>
            <trkpt lon="101.014330" lat="12.881044">
                <ele>137.300000</ele>
                <time>2018-02-26T09:51:38.644Z</time>
            </trkpt>
            <trkpt lon="101.014306" lat="12.880984">
                <ele>137.500000</ele>
                <time>2018-02-26T09:51:39.644Z</time>
            </trkpt>
            <trkpt lon="101.014286" lat="12.880928">
                <ele>137.200000</ele>
                <time>2018-02-26T09:51:40.644Z</time>
            </trkpt>
            <trkpt lon="101.014267" lat="12.880873">
                <ele>136.700000</ele>
                <time>2018-02-26T09:51:41.644Z</time>
            </trkpt>
            <trkpt lon="101.014236" lat="12.880808">
                <ele>137.000000</ele>
                <time>2018-02-26T09:51:42.644Z</time>
            </trkpt>
            <trkpt lon="101.014200" lat="12.880747">
                <ele>137.300000</ele>
                <time>2018-02-26T09:51:43.644Z</time>
            </trkpt>
            <trkpt lon="101.014162" lat="12.880691">
                <ele>137.500000</ele>
                <time>2018-02-26T09:51:44.644Z</time>
            </trkpt>
            <trkpt lon="101.014129" lat="12.880642">
                <ele>137.800000</ele>
                <time>2018-02-26T09:51:45.644Z</time>
            </trkpt>
            <trkpt lon="101.014102" lat="12.880603">
                <ele>137.800000</ele>
                <time>2018-02-26T09:51:46.644Z</time>
            </trkpt>
            <trkpt lon="101.014072" lat="12.880566">
                <ele>138.400000</ele>
                <time>2018-02-26T09:51:47.644Z</time>
            </trkpt>
            <trkpt lon="101.014043" lat="12.880536">
                <ele>138.900000</ele>
                <time>2018-02-26T09:51:48.644Z</time>
            </trkpt>
            <trkpt lon="101.014016" lat="12.880505">
                <ele>138.900000</ele>
                <time>2018-02-26T09:51:49.644Z</time>
            </trkpt>
            <trkpt lon="101.013988" lat="12.880475">
                <ele>138.900000</ele>
                <time>2018-02-26T09:51:50.644Z</time>
            </trkpt>
            <trkpt lon="101.013963" lat="12.880449">
                <ele>138.700000</ele>
                <time>2018-02-26T09:51:51.644Z</time>
            </trkpt>
            <trkpt lon="101.013940" lat="12.880420">
                <ele>138.500000</ele>
                <time>2018-02-26T09:51:52.644Z</time>
            </trkpt>
            <trkpt lon="101.013922" lat="12.880393">
                <ele>138.300000</ele>
                <time>2018-02-26T09:51:53.644Z</time>
            </trkpt>
            <trkpt lon="101.013903" lat="12.880355">
                <ele>138.100000</ele>
                <time>2018-02-26T09:51:55.644Z</time>
            </trkpt>
            <trkpt lon="101.013881" lat="12.880333">
                <ele>137.800000</ele>
                <time>2018-02-26T09:51:57.644Z</time>
            </trkpt>
            <trkpt lon="101.013856" lat="12.880307">
                <ele>137.500000</ele>
                <time>2018-02-26T09:52:05.644Z</time>
            </trkpt>
            <trkpt lon="101.013819" lat="12.880269">
                <ele>137.000000</ele>
                <time>2018-02-26T09:52:07.644Z</time>
            </trkpt>
            <trkpt lon="101.013800" lat="12.880245">
                <ele>136.700000</ele>
                <time>2018-02-26T09:52:08.644Z</time>
            </trkpt>
            <trkpt lon="101.013776" lat="12.880218">
                <ele>136.400000</ele>
                <time>2018-02-26T09:52:09.644Z</time>
            </trkpt>
            <trkpt lon="101.013749" lat="12.880191">
                <ele>135.900000</ele>
                <time>2018-02-26T09:52:10.644Z</time>
            </trkpt>
            <trkpt lon="101.013720" lat="12.880150">
                <ele>135.600000</ele>
                <time>2018-02-26T09:52:11.644Z</time>
            </trkpt>
            <trkpt lon="101.013695" lat="12.880117">
                <ele>134.900000</ele>
                <time>2018-02-26T09:52:12.644Z</time>
            </trkpt>
            <trkpt lon="101.013670" lat="12.880078">
                <ele>134.600000</ele>
                <time>2018-02-26T09:52:13.644Z</time>
            </trkpt>
            <trkpt lon="101.013649" lat="12.880053">
                <ele>134.100000</ele>
                <time>2018-02-26T09:52:14.644Z</time>
            </trkpt>
            <trkpt lon="101.013626" lat="12.880032">
                <ele>133.800000</ele>
                <time>2018-02-26T09:52:15.644Z</time>
            </trkpt>
            <trkpt lon="101.013599" lat="12.880011">
                <ele>133.300000</ele>
                <time>2018-02-26T09:52:16.644Z</time>
            </trkpt>
            <trkpt lon="101.013568" lat="12.879986">
                <ele>132.400000</ele>
                <time>2018-02-26T09:52:17.644Z</time>
            </trkpt>
            <trkpt lon="101.013546" lat="12.879963">
                <ele>132.300000</ele>
                <time>2018-02-26T09:52:18.644Z</time>
            </trkpt>
            <trkpt lon="101.013516" lat="12.879940">
                <ele>131.100000</ele>
                <time>2018-02-26T09:52:19.644Z</time>
            </trkpt>
            <trkpt lon="101.013482" lat="12.879918">
                <ele>129.800000</ele>
                <time>2018-02-26T09:52:20.644Z</time>
            </trkpt>
            <trkpt lon="101.013449" lat="12.879896">
                <ele>128.900000</ele>
                <time>2018-02-26T09:52:21.644Z</time>
            </trkpt>
            <trkpt lon="101.013424" lat="12.879881">
                <ele>128.900000</ele>
                <time>2018-02-26T09:52:22.644Z</time>
            </trkpt>
            <trkpt lon="101.013377" lat="12.879835">
                <ele>127.400000</ele>
                <time>2018-02-26T09:52:30.644Z</time>
            </trkpt>
            <trkpt lon="101.013363" lat="12.879817">
                <ele>126.600000</ele>
                <time>2018-02-26T09:52:31.644Z</time>
            </trkpt>
            <trkpt lon="101.013320" lat="12.879772">
                <ele>125.700000</ele>
                <time>2018-02-26T09:52:32.644Z</time>
            </trkpt>
            <trkpt lon="101.013275" lat="12.879730">
                <ele>124.900000</ele>
                <time>2018-02-26T09:52:33.644Z</time>
            </trkpt>
            <trkpt lon="101.013229" lat="12.879695">
                <ele>124.300000</ele>
                <time>2018-02-26T09:52:34.644Z</time>
            </trkpt>
            <trkpt lon="101.013173" lat="12.879658">
                <ele>123.400000</ele>
                <time>2018-02-26T09:52:35.644Z</time>
            </trkpt>
            <trkpt lon="101.013110" lat="12.879631">
                <ele>122.600000</ele>
                <time>2018-02-26T09:52:36.644Z</time>
            </trkpt>
            <trkpt lon="101.013054" lat="12.879611">
                <ele>120.600000</ele>
                <time>2018-02-26T09:52:37.644Z</time>
            </trkpt>
            <trkpt lon="101.012998" lat="12.879612">
                <ele>119.700000</ele>
                <time>2018-02-26T09:52:38.644Z</time>
            </trkpt>
            <trkpt lon="101.012938" lat="12.879613">
                <ele>118.800000</ele>
                <time>2018-02-26T09:52:39.644Z</time>
            </trkpt>
            <trkpt lon="101.012877" lat="12.879612">
                <ele>116.900000</ele>
                <time>2018-02-26T09:52:40.644Z</time>
            </trkpt>
            <trkpt lon="101.012813" lat="12.879610">
                <ele>116.000000</ele>
                <time>2018-02-26T09:52:41.644Z</time>
            </trkpt>
            <trkpt lon="101.012748" lat="12.879604">
                <ele>114.500000</ele>
                <time>2018-02-26T09:52:42.644Z</time>
            </trkpt>
            <trkpt lon="101.012692" lat="12.879589">
                <ele>113.700000</ele>
                <time>2018-02-26T09:52:43.644Z</time>
            </trkpt>
            <trkpt lon="101.012644" lat="12.879566">
                <ele>112.800000</ele>
                <time>2018-02-26T09:52:44.644Z</time>
            </trkpt>
            <trkpt lon="101.012611" lat="12.879530">
                <ele>112.600000</ele>
                <time>2018-02-26T09:52:45.644Z</time>
            </trkpt>
            <trkpt lon="101.012581" lat="12.879502">
                <ele>112.400000</ele>
                <time>2018-02-26T09:52:46.644Z</time>
            </trkpt>
            <trkpt lon="101.012555" lat="12.879472">
                <ele>112.300000</ele>
                <time>2018-02-26T09:52:47.644Z</time>
            </trkpt>
            <trkpt lon="101.012532" lat="12.879447">
                <ele>112.300000</ele>
                <time>2018-02-26T09:52:48.644Z</time>
            </trkpt>
            <trkpt lon="101.012514" lat="12.879424">
                <ele>112.200000</ele>
                <time>2018-02-26T09:52:49.644Z</time>
            </trkpt>
            <trkpt lon="101.012509" lat="12.879369">
                <ele>111.900000</ele>
                <time>2018-02-26T09:52:51.644Z</time>
            </trkpt>
            <trkpt lon="101.012522" lat="12.879338">
                <ele>111.800000</ele>
                <time>2018-02-26T09:52:52.644Z</time>
            </trkpt>
            <trkpt lon="101.012533" lat="12.879307">
                <ele>111.800000</ele>
                <time>2018-02-26T09:52:53.644Z</time>
            </trkpt>
            <trkpt lon="101.012541" lat="12.879270">
                <ele>111.800000</ele>
                <time>2018-02-26T09:52:54.644Z</time>
            </trkpt>
            <trkpt lon="101.012552" lat="12.879224">
                <ele>111.700000</ele>
                <time>2018-02-26T09:52:55.644Z</time>
            </trkpt>
            <trkpt lon="101.012565" lat="12.879187">
                <ele>111.500000</ele>
                <time>2018-02-26T09:52:56.644Z</time>
            </trkpt>
            <trkpt lon="101.012580" lat="12.879147">
                <ele>111.300000</ele>
                <time>2018-02-26T09:52:57.644Z</time>
            </trkpt>
            <trkpt lon="101.012593" lat="12.879109">
                <ele>111.200000</ele>
                <time>2018-02-26T09:52:58.644Z</time>
            </trkpt>
            <trkpt lon="101.012603" lat="12.879078">
                <ele>111.100000</ele>
                <time>2018-02-26T09:52:59.644Z</time>
            </trkpt>
            <trkpt lon="101.012625" lat="12.879040">
                <ele>110.900000</ele>
                <time>2018-02-26T09:53:01.644Z</time>
            </trkpt>
            <trkpt lon="101.012634" lat="12.879008">
                <ele>110.800000</ele>
                <time>2018-02-26T09:53:02.644Z</time>
            </trkpt>
            <trkpt lon="101.012647" lat="12.878960">
                <ele>110.500000</ele>
                <time>2018-02-26T09:53:03.644Z</time>
            </trkpt>
            <trkpt lon="101.012658" lat="12.878912">
                <ele>109.700000</ele>
                <time>2018-02-26T09:53:04.644Z</time>
            </trkpt>
            <trkpt lon="101.012664" lat="12.878868">
                <ele>109.100000</ele>
                <time>2018-02-26T09:53:05.644Z</time>
            </trkpt>
            <trkpt lon="101.012653" lat="12.878816">
                <ele>108.500000</ele>
                <time>2018-02-26T09:53:06.644Z</time>
            </trkpt>
            <trkpt lon="101.012639" lat="12.878778">
                <ele>108.100000</ele>
                <time>2018-02-26T09:53:07.644Z</time>
            </trkpt>
            <trkpt lon="101.012601" lat="12.878747">
                <ele>108.000000</ele>
                <time>2018-02-26T09:53:09.644Z</time>
            </trkpt>
            <trkpt lon="101.012578" lat="12.878730">
                <ele>108.000000</ele>
                <time>2018-02-26T09:53:20.644Z</time>
            </trkpt>
            <trkpt lon="101.012557" lat="12.878705">
                <ele>108.000000</ele>
                <time>2018-02-26T09:53:24.644Z</time>
            </trkpt>
            <trkpt lon="101.012546" lat="12.878679">
                <ele>107.900000</ele>
                <time>2018-02-26T09:53:25.644Z</time>
            </trkpt>
            <trkpt lon="101.012536" lat="12.878632">
                <ele>107.500000</ele>
                <time>2018-02-26T09:53:27.644Z</time>
            </trkpt>
            <trkpt lon="101.012534" lat="12.878603">
                <ele>107.300000</ele>
                <time>2018-02-26T09:53:29.644Z</time>
            </trkpt>
            <trkpt lon="101.012505" lat="12.878578">
                <ele>107.100000</ele>
                <time>2018-02-26T09:53:31.644Z</time>
            </trkpt>
            <trkpt lon="101.012482" lat="12.878560">
                <ele>107.000000</ele>
                <time>2018-02-26T09:53:33.644Z</time>
            </trkpt>
            <trkpt lon="101.012457" lat="12.878535">
                <ele>106.800000</ele>
                <time>2018-02-26T09:53:35.644Z</time>
            </trkpt>
            <trkpt lon="101.012436" lat="12.878507">
                <ele>106.600000</ele>
                <time>2018-02-26T09:53:36.644Z</time>
            </trkpt>
            <trkpt lon="101.012405" lat="12.878482">
                <ele>106.400000</ele>
                <time>2018-02-26T09:53:38.644Z</time>
            </trkpt>
            <trkpt lon="101.012363" lat="12.878450">
                <ele>106.700000</ele>
                <time>2018-02-26T09:53:40.644Z</time>
            </trkpt>
            <trkpt lon="101.012316" lat="12.878426">
                <ele>106.800000</ele>
                <time>2018-02-26T09:53:42.644Z</time>
            </trkpt>
            <trkpt lon="101.012288" lat="12.878415">
                <ele>106.800000</ele>
                <time>2018-02-26T09:53:43.644Z</time>
            </trkpt>
            <trkpt lon="101.012260" lat="12.878407">
                <ele>106.800000</ele>
                <time>2018-02-26T09:53:44.644Z</time>
            </trkpt>
            <trkpt lon="101.012222" lat="12.878386">
                <ele>106.700000</ele>
                <time>2018-02-26T09:53:45.644Z</time>
            </trkpt>
            <trkpt lon="101.012184" lat="12.878366">
                <ele>106.600000</ele>
                <time>2018-02-26T09:53:46.644Z</time>
            </trkpt>
            <trkpt lon="101.012143" lat="12.878335">
                <ele>106.500000</ele>
                <time>2018-02-26T09:53:47.644Z</time>
            </trkpt>
            <trkpt lon="101.012108" lat="12.878299">
                <ele>106.900000</ele>
                <time>2018-02-26T09:53:48.644Z</time>
            </trkpt>
            <trkpt lon="101.012068" lat="12.878246">
                <ele>107.100000</ele>
                <time>2018-02-26T09:53:49.644Z</time>
            </trkpt>
            <trkpt lon="101.012020" lat="12.878200">
                <ele>107.100000</ele>
                <time>2018-02-26T09:53:50.644Z</time>
            </trkpt>
            <trkpt lon="101.011969" lat="12.878153">
                <ele>106.800000</ele>
                <time>2018-02-26T09:53:51.644Z</time>
            </trkpt>
            <trkpt lon="101.011925" lat="12.878096">
                <ele>106.500000</ele>
                <time>2018-02-26T09:53:52.644Z</time>
            </trkpt>
            <trkpt lon="101.011899" lat="12.878041">
                <ele>106.600000</ele>
                <time>2018-02-26T09:53:53.644Z</time>
            </trkpt>
            <trkpt lon="101.011880" lat="12.877971">
                <ele>105.800000</ele>
                <time>2018-02-26T09:53:54.644Z</time>
            </trkpt>
            <trkpt lon="101.011865" lat="12.877923">
                <ele>105.400000</ele>
                <time>2018-02-26T09:53:55.644Z</time>
            </trkpt>
            <trkpt lon="101.011858" lat="12.877876">
                <ele>105.000000</ele>
                <time>2018-02-26T09:53:56.644Z</time>
            </trkpt>
            <trkpt lon="101.011855" lat="12.877836">
                <ele>105.000000</ele>
                <time>2018-02-26T09:53:57.644Z</time>
            </trkpt>
            <trkpt lon="101.011848" lat="12.877809">
                <ele>105.000000</ele>
                <time>2018-02-26T09:53:58.644Z</time>
            </trkpt>
            <trkpt lon="101.011821" lat="12.877771">
                <ele>104.700000</ele>
                <time>2018-02-26T09:54:00.644Z</time>
            </trkpt>
            <trkpt lon="101.011792" lat="12.877744">
                <ele>104.300000</ele>
                <time>2018-02-26T09:54:02.644Z</time>
            </trkpt>
            <trkpt lon="101.011762" lat="12.877715">
                <ele>104.200000</ele>
                <time>2018-02-26T09:54:05.644Z</time>
            </trkpt>
            <trkpt lon="101.011728" lat="12.877695">
                <ele>104.100000</ele>
                <time>2018-02-26T09:54:07.644Z</time>
            </trkpt>
            <trkpt lon="101.011687" lat="12.877665">
                <ele>103.900000</ele>
                <time>2018-02-26T09:54:09.644Z</time>
            </trkpt>
            <trkpt lon="101.011654" lat="12.877641">
                <ele>104.000000</ele>
                <time>2018-02-26T09:54:11.644Z</time>
            </trkpt>
            <trkpt lon="101.011624" lat="12.877612">
                <ele>104.200000</ele>
                <time>2018-02-26T09:54:13.644Z</time>
            </trkpt>
            <trkpt lon="101.011605" lat="12.877588">
                <ele>104.000000</ele>
                <time>2018-02-26T09:54:17.644Z</time>
            </trkpt>
            <trkpt lon="101.011590" lat="12.877565">
                <ele>103.900000</ele>
                <time>2018-02-26T09:54:21.644Z</time>
            </trkpt>
            <trkpt lon="101.011590" lat="12.877535">
                <ele>103.700000</ele>
                <time>2018-02-26T09:54:23.644Z</time>
            </trkpt>
            <trkpt lon="101.011583" lat="12.877506">
                <ele>103.700000</ele>
                <time>2018-02-26T09:54:24.644Z</time>
            </trkpt>
            <trkpt lon="101.011573" lat="12.877475">
                <ele>103.600000</ele>
                <time>2018-02-26T09:54:25.644Z</time>
            </trkpt>
            <trkpt lon="101.011561" lat="12.877444">
                <ele>103.400000</ele>
                <time>2018-02-26T09:54:26.644Z</time>
            </trkpt>
            <trkpt lon="101.011551" lat="12.877413">
                <ele>103.300000</ele>
                <time>2018-02-26T09:54:27.644Z</time>
            </trkpt>
            <trkpt lon="101.011543" lat="12.877384">
                <ele>103.100000</ele>
                <time>2018-02-26T09:54:28.644Z</time>
            </trkpt>
            <trkpt lon="101.011533" lat="12.877340">
                <ele>102.600000</ele>
                <time>2018-02-26T09:54:29.644Z</time>
            </trkpt>
            <trkpt lon="101.011523" lat="12.877294">
                <ele>102.100000</ele>
                <time>2018-02-26T09:54:30.644Z</time>
            </trkpt>
            <trkpt lon="101.011507" lat="12.877249">
                <ele>101.600000</ele>
                <time>2018-02-26T09:54:31.644Z</time>
            </trkpt>
            <trkpt lon="101.011486" lat="12.877196">
                <ele>100.800000</ele>
                <time>2018-02-26T09:54:32.644Z</time>
            </trkpt>
            <trkpt lon="101.011470" lat="12.877160">
                <ele>100.200000</ele>
                <time>2018-02-26T09:54:33.644Z</time>
            </trkpt>
            <trkpt lon="101.011453" lat="12.877118">
                <ele>99.600000</ele>
                <time>2018-02-26T09:54:34.644Z</time>
            </trkpt>
            <trkpt lon="101.011430" lat="12.877082">
                <ele>99.100000</ele>
                <time>2018-02-26T09:54:35.644Z</time>
            </trkpt>
            <trkpt lon="101.011408" lat="12.877049">
                <ele>99.300000</ele>
                <time>2018-02-26T09:54:36.644Z</time>
            </trkpt>
            <trkpt lon="101.011381" lat="12.877014">
                <ele>99.400000</ele>
                <time>2018-02-26T09:54:37.644Z</time>
            </trkpt>
            <trkpt lon="101.011352" lat="12.876972">
                <ele>99.400000</ele>
                <time>2018-02-26T09:54:38.644Z</time>
            </trkpt>
            <trkpt lon="101.011326" lat="12.876939">
                <ele>99.400000</ele>
                <time>2018-02-26T09:54:39.644Z</time>
            </trkpt>
            <trkpt lon="101.011301" lat="12.876911">
                <ele>99.300000</ele>
                <time>2018-02-26T09:54:40.644Z</time>
            </trkpt>
            <trkpt lon="101.011261" lat="12.876865">
                <ele>98.900000</ele>
                <time>2018-02-26T09:54:41.644Z</time>
            </trkpt>
            <trkpt lon="101.011227" lat="12.876814">
                <ele>98.600000</ele>
                <time>2018-02-26T09:54:42.644Z</time>
            </trkpt>
            <trkpt lon="101.011204" lat="12.876775">
                <ele>98.700000</ele>
                <time>2018-02-26T09:54:43.644Z</time>
            </trkpt>
            <trkpt lon="101.011183" lat="12.876729">
                <ele>98.900000</ele>
                <time>2018-02-26T09:54:44.644Z</time>
            </trkpt>
            <trkpt lon="101.011162" lat="12.876684">
                <ele>99.200000</ele>
                <time>2018-02-26T09:54:45.644Z</time>
            </trkpt>
            <trkpt lon="101.011140" lat="12.876640">
                <ele>99.500000</ele>
                <time>2018-02-26T09:54:46.644Z</time>
            </trkpt>
            <trkpt lon="101.011121" lat="12.876604">
                <ele>99.700000</ele>
                <time>2018-02-26T09:54:47.644Z</time>
            </trkpt>
            <trkpt lon="101.011101" lat="12.876565">
                <ele>99.800000</ele>
                <time>2018-02-26T09:54:48.644Z</time>
            </trkpt>
            <trkpt lon="101.011078" lat="12.876523">
                <ele>100.000000</ele>
                <time>2018-02-26T09:54:49.644Z</time>
            </trkpt>
            <trkpt lon="101.011065" lat="12.876486">
                <ele>100.300000</ele>
                <time>2018-02-26T09:54:50.644Z</time>
            </trkpt>
            <trkpt lon="101.011063" lat="12.876441">
                <ele>100.600000</ele>
                <time>2018-02-26T09:54:51.644Z</time>
            </trkpt>
            <trkpt lon="101.011053" lat="12.876391">
                <ele>100.900000</ele>
                <time>2018-02-26T09:54:52.644Z</time>
            </trkpt>
            <trkpt lon="101.011037" lat="12.876343">
                <ele>101.300000</ele>
                <time>2018-02-26T09:54:53.644Z</time>
            </trkpt>
            <trkpt lon="101.011013" lat="12.876296">
                <ele>101.100000</ele>
                <time>2018-02-26T09:54:54.644Z</time>
            </trkpt>
            <trkpt lon="101.010972" lat="12.876252">
                <ele>100.800000</ele>
                <time>2018-02-26T09:54:55.644Z</time>
            </trkpt>
            <trkpt lon="101.010919" lat="12.876222">
                <ele>100.700000</ele>
                <time>2018-02-26T09:54:56.644Z</time>
            </trkpt>
            <trkpt lon="101.010869" lat="12.876208">
                <ele>100.000000</ele>
                <time>2018-02-26T09:54:57.644Z</time>
            </trkpt>
            <trkpt lon="101.010823" lat="12.876196">
                <ele>99.500000</ele>
                <time>2018-02-26T09:54:58.644Z</time>
            </trkpt>
            <trkpt lon="101.010781" lat="12.876179">
                <ele>99.000000</ele>
                <time>2018-02-26T09:54:59.644Z</time>
            </trkpt>
            <trkpt lon="101.010737" lat="12.876164">
                <ele>98.700000</ele>
                <time>2018-02-26T09:55:00.644Z</time>
            </trkpt>
            <trkpt lon="101.010686" lat="12.876156">
                <ele>98.400000</ele>
                <time>2018-02-26T09:55:01.644Z</time>
            </trkpt>
            <trkpt lon="101.010632" lat="12.876156">
                <ele>98.100000</ele>
                <time>2018-02-26T09:55:02.644Z</time>
            </trkpt>
            <trkpt lon="101.010578" lat="12.876157">
                <ele>98.000000</ele>
                <time>2018-02-26T09:55:03.644Z</time>
            </trkpt>
            <trkpt lon="101.010531" lat="12.876165">
                <ele>98.000000</ele>
                <time>2018-02-26T09:55:04.644Z</time>
            </trkpt>
            <trkpt lon="101.010480" lat="12.876178">
                <ele>98.000000</ele>
                <time>2018-02-26T09:55:05.644Z</time>
            </trkpt>
            <trkpt lon="101.010423" lat="12.876185">
                <ele>98.000000</ele>
                <time>2018-02-26T09:55:06.644Z</time>
            </trkpt>
            <trkpt lon="101.010368" lat="12.876192">
                <ele>98.300000</ele>
                <time>2018-02-26T09:55:07.644Z</time>
            </trkpt>
            <trkpt lon="101.010324" lat="12.876195">
                <ele>98.500000</ele>
                <time>2018-02-26T09:55:08.644Z</time>
            </trkpt>
            <trkpt lon="101.010285" lat="12.876201">
                <ele>98.600000</ele>
                <time>2018-02-26T09:55:09.644Z</time>
            </trkpt>
            <trkpt lon="101.010243" lat="12.876210">
                <ele>98.700000</ele>
                <time>2018-02-26T09:55:10.644Z</time>
            </trkpt>
            <trkpt lon="101.010197" lat="12.876216">
                <ele>99.000000</ele>
                <time>2018-02-26T09:55:11.644Z</time>
            </trkpt>
            <trkpt lon="101.010149" lat="12.876215">
                <ele>99.000000</ele>
                <time>2018-02-26T09:55:12.644Z</time>
            </trkpt>
            <trkpt lon="101.010102" lat="12.876203">
                <ele>99.000000</ele>
                <time>2018-02-26T09:55:13.644Z</time>
            </trkpt>
            <trkpt lon="101.010066" lat="12.876183">
                <ele>98.900000</ele>
                <time>2018-02-26T09:55:14.644Z</time>
            </trkpt>
            <trkpt lon="101.010027" lat="12.876160">
                <ele>98.800000</ele>
                <time>2018-02-26T09:55:15.644Z</time>
            </trkpt>
            <trkpt lon="101.009987" lat="12.876137">
                <ele>98.700000</ele>
                <time>2018-02-26T09:55:16.644Z</time>
            </trkpt>
            <trkpt lon="101.009948" lat="12.876114">
                <ele>98.600000</ele>
                <time>2018-02-26T09:55:17.644Z</time>
            </trkpt>
            <trkpt lon="101.009911" lat="12.876092">
                <ele>98.800000</ele>
                <time>2018-02-26T09:55:18.644Z</time>
            </trkpt>
            <trkpt lon="101.009878" lat="12.876071">
                <ele>98.900000</ele>
                <time>2018-02-26T09:55:19.644Z</time>
            </trkpt>
            <trkpt lon="101.009839" lat="12.876050">
                <ele>99.200000</ele>
                <time>2018-02-26T09:55:20.644Z</time>
            </trkpt>
            <trkpt lon="101.009801" lat="12.876031">
                <ele>99.400000</ele>
                <time>2018-02-26T09:55:21.644Z</time>
            </trkpt>
            <trkpt lon="101.009768" lat="12.876013">
                <ele>99.600000</ele>
                <time>2018-02-26T09:55:22.644Z</time>
            </trkpt>
            <trkpt lon="101.009729" lat="12.875991">
                <ele>99.700000</ele>
                <time>2018-02-26T09:55:23.644Z</time>
            </trkpt>
            <trkpt lon="101.009686" lat="12.875975">
                <ele>99.700000</ele>
                <time>2018-02-26T09:55:24.644Z</time>
            </trkpt>
            <trkpt lon="101.009645" lat="12.875957">
                <ele>99.600000</ele>
                <time>2018-02-26T09:55:25.644Z</time>
            </trkpt>
            <trkpt lon="101.009603" lat="12.875937">
                <ele>99.500000</ele>
                <time>2018-02-26T09:55:26.644Z</time>
            </trkpt>
            <trkpt lon="101.009558" lat="12.875918">
                <ele>99.500000</ele>
                <time>2018-02-26T09:55:27.644Z</time>
            </trkpt>
            <trkpt lon="101.009512" lat="12.875897">
                <ele>99.500000</ele>
                <time>2018-02-26T09:55:28.644Z</time>
            </trkpt>
            <trkpt lon="101.009470" lat="12.875876">
                <ele>99.400000</ele>
                <time>2018-02-26T09:55:29.644Z</time>
            </trkpt>
            <trkpt lon="101.009426" lat="12.875852">
                <ele>99.200000</ele>
                <time>2018-02-26T09:55:30.644Z</time>
            </trkpt>
            <trkpt lon="101.009381" lat="12.875826">
                <ele>98.900000</ele>
                <time>2018-02-26T09:55:31.644Z</time>
            </trkpt>
            <trkpt lon="101.009336" lat="12.875809">
                <ele>98.700000</ele>
                <time>2018-02-26T09:55:32.644Z</time>
            </trkpt>
            <trkpt lon="101.009292" lat="12.875793">
                <ele>98.400000</ele>
                <time>2018-02-26T09:55:33.644Z</time>
            </trkpt>
            <trkpt lon="101.009248" lat="12.875777">
                <ele>98.200000</ele>
                <time>2018-02-26T09:55:34.644Z</time>
            </trkpt>
            <trkpt lon="101.009203" lat="12.875753">
                <ele>98.000000</ele>
                <time>2018-02-26T09:55:35.644Z</time>
            </trkpt>
            <trkpt lon="101.009158" lat="12.875733">
                <ele>98.000000</ele>
                <time>2018-02-26T09:55:36.644Z</time>
            </trkpt>
            <trkpt lon="101.009109" lat="12.875707">
                <ele>98.000000</ele>
                <time>2018-02-26T09:55:37.644Z</time>
            </trkpt>
            <trkpt lon="101.009061" lat="12.875683">
                <ele>98.000000</ele>
                <time>2018-02-26T09:55:38.644Z</time>
            </trkpt>
            <trkpt lon="101.009014" lat="12.875658">
                <ele>97.900000</ele>
                <time>2018-02-26T09:55:39.644Z</time>
            </trkpt>
            <trkpt lon="101.008961" lat="12.875627">
                <ele>97.800000</ele>
                <time>2018-02-26T09:55:40.644Z</time>
            </trkpt>
            <trkpt lon="101.008908" lat="12.875599">
                <ele>97.900000</ele>
                <time>2018-02-26T09:55:41.644Z</time>
            </trkpt>
            <trkpt lon="101.008857" lat="12.875562">
                <ele>97.600000</ele>
                <time>2018-02-26T09:55:42.644Z</time>
            </trkpt>
            <trkpt lon="101.008806" lat="12.875526">
                <ele>97.200000</ele>
                <time>2018-02-26T09:55:43.644Z</time>
            </trkpt>
            <trkpt lon="101.008761" lat="12.875491">
                <ele>96.800000</ele>
                <time>2018-02-26T09:55:44.644Z</time>
            </trkpt>
            <trkpt lon="101.008720" lat="12.875458">
                <ele>96.500000</ele>
                <time>2018-02-26T09:55:45.644Z</time>
            </trkpt>
            <trkpt lon="101.008680" lat="12.875420">
                <ele>96.100000</ele>
                <time>2018-02-26T09:55:46.644Z</time>
            </trkpt>
            <trkpt lon="101.008636" lat="12.875381">
                <ele>95.500000</ele>
                <time>2018-02-26T09:55:47.644Z</time>
            </trkpt>
            <trkpt lon="101.008597" lat="12.875347">
                <ele>95.200000</ele>
                <time>2018-02-26T09:55:48.644Z</time>
            </trkpt>
            <trkpt lon="101.008569" lat="12.875322">
                <ele>95.100000</ele>
                <time>2018-02-26T09:55:49.644Z</time>
            </trkpt>
            <trkpt lon="101.008545" lat="12.875297">
                <ele>95.000000</ele>
                <time>2018-02-26T09:55:50.644Z</time>
            </trkpt>
            <trkpt lon="101.008522" lat="12.875272">
                <ele>94.800000</ele>
                <time>2018-02-26T09:55:51.644Z</time>
            </trkpt>
            <trkpt lon="101.008500" lat="12.875246">
                <ele>94.600000</ele>
                <time>2018-02-26T09:55:52.644Z</time>
            </trkpt>
            <trkpt lon="101.008472" lat="12.875219">
                <ele>94.300000</ele>
                <time>2018-02-26T09:55:53.644Z</time>
            </trkpt>
            <trkpt lon="101.008444" lat="12.875192">
                <ele>94.100000</ele>
                <time>2018-02-26T09:55:54.644Z</time>
            </trkpt>
            <trkpt lon="101.008420" lat="12.875168">
                <ele>93.900000</ele>
                <time>2018-02-26T09:55:55.644Z</time>
            </trkpt>
            <trkpt lon="101.008399" lat="12.875138">
                <ele>93.700000</ele>
                <time>2018-02-26T09:55:56.644Z</time>
            </trkpt>
            <trkpt lon="101.008383" lat="12.875103">
                <ele>93.200000</ele>
                <time>2018-02-26T09:55:57.644Z</time>
            </trkpt>
            <trkpt lon="101.008366" lat="12.875061">
                <ele>92.500000</ele>
                <time>2018-02-26T09:55:58.644Z</time>
            </trkpt>
            <trkpt lon="101.008351" lat="12.875011">
                <ele>91.500000</ele>
                <time>2018-02-26T09:55:59.644Z</time>
            </trkpt>
            <trkpt lon="101.008339" lat="12.874959">
                <ele>90.700000</ele>
                <time>2018-02-26T09:56:00.644Z</time>
            </trkpt>
            <trkpt lon="101.008327" lat="12.874921">
                <ele>90.200000</ele>
                <time>2018-02-26T09:56:01.644Z</time>
            </trkpt>
            <trkpt lon="101.008314" lat="12.874892">
                <ele>89.800000</ele>
                <time>2018-02-26T09:56:02.644Z</time>
            </trkpt>
            <trkpt lon="101.008304" lat="12.874867">
                <ele>89.400000</ele>
                <time>2018-02-26T09:56:03.644Z</time>
            </trkpt>
            <trkpt lon="101.008277" lat="12.874837">
                <ele>88.900000</ele>
                <time>2018-02-26T09:56:08.644Z</time>
            </trkpt>
            <trkpt lon="101.008265" lat="12.874812">
                <ele>88.300000</ele>
                <time>2018-02-26T09:56:09.644Z</time>
            </trkpt>
            <trkpt lon="101.008246" lat="12.874788">
                <ele>87.600000</ele>
                <time>2018-02-26T09:56:10.644Z</time>
            </trkpt>
            <trkpt lon="101.008224" lat="12.874765">
                <ele>87.100000</ele>
                <time>2018-02-26T09:56:11.644Z</time>
            </trkpt>
            <trkpt lon="101.008202" lat="12.874744">
                <ele>86.800000</ele>
                <time>2018-02-26T09:56:12.644Z</time>
            </trkpt>
            <trkpt lon="101.008177" lat="12.874731">
                <ele>86.500000</ele>
                <time>2018-02-26T09:56:13.644Z</time>
            </trkpt>
            <trkpt lon="101.008124" lat="12.874721">
                <ele>85.900000</ele>
                <time>2018-02-26T09:56:15.644Z</time>
            </trkpt>
            <trkpt lon="101.008087" lat="12.874718">
                <ele>85.500000</ele>
                <time>2018-02-26T09:56:16.644Z</time>
            </trkpt>
            <trkpt lon="101.008046" lat="12.874718">
                <ele>85.300000</ele>
                <time>2018-02-26T09:56:17.644Z</time>
            </trkpt>
            <trkpt lon="101.008011" lat="12.874718">
                <ele>85.100000</ele>
                <time>2018-02-26T09:56:18.644Z</time>
            </trkpt>
            <trkpt lon="101.007972" lat="12.874717">
                <ele>85.000000</ele>
                <time>2018-02-26T09:56:19.644Z</time>
            </trkpt>
            <trkpt lon="101.007935" lat="12.874718">
                <ele>84.900000</ele>
                <time>2018-02-26T09:56:20.644Z</time>
            </trkpt>
            <trkpt lon="101.007898" lat="12.874723">
                <ele>84.900000</ele>
                <time>2018-02-26T09:56:21.644Z</time>
            </trkpt>
            <trkpt lon="101.007864" lat="12.874732">
                <ele>85.200000</ele>
                <time>2018-02-26T09:56:22.644Z</time>
            </trkpt>
            <trkpt lon="101.007835" lat="12.874744">
                <ele>85.400000</ele>
                <time>2018-02-26T09:56:23.644Z</time>
            </trkpt>
            <trkpt lon="101.007803" lat="12.874758">
                <ele>85.900000</ele>
                <time>2018-02-26T09:56:24.644Z</time>
            </trkpt>
            <trkpt lon="101.007775" lat="12.874776">
                <ele>86.300000</ele>
                <time>2018-02-26T09:56:25.644Z</time>
            </trkpt>
            <trkpt lon="101.007733" lat="12.874801">
                <ele>87.100000</ele>
                <time>2018-02-26T09:56:27.644Z</time>
            </trkpt>
            <trkpt lon="101.007705" lat="12.874818">
                <ele>87.800000</ele>
                <time>2018-02-26T09:56:28.644Z</time>
            </trkpt>
            <trkpt lon="101.007681" lat="12.874832">
                <ele>88.300000</ele>
                <time>2018-02-26T09:56:29.644Z</time>
            </trkpt>
            <trkpt lon="101.007638" lat="12.874866">
                <ele>89.700000</ele>
                <time>2018-02-26T09:56:31.644Z</time>
            </trkpt>
            <trkpt lon="101.007591" lat="12.874889">
                <ele>91.100000</ele>
                <time>2018-02-26T09:56:33.644Z</time>
            </trkpt>
            <trkpt lon="101.007565" lat="12.874904">
                <ele>91.700000</ele>
                <time>2018-02-26T09:56:34.644Z</time>
            </trkpt>
            <trkpt lon="101.007539" lat="12.874917">
                <ele>92.400000</ele>
                <time>2018-02-26T09:56:35.644Z</time>
            </trkpt>
            <trkpt lon="101.007512" lat="12.874936">
                <ele>93.200000</ele>
                <time>2018-02-26T09:56:36.644Z</time>
            </trkpt>
            <trkpt lon="101.007491" lat="12.874957">
                <ele>93.900000</ele>
                <time>2018-02-26T09:56:37.644Z</time>
            </trkpt>
            <trkpt lon="101.007475" lat="12.874985">
                <ele>94.500000</ele>
                <time>2018-02-26T09:56:38.644Z</time>
            </trkpt>
            <trkpt lon="101.007456" lat="12.875026">
                <ele>94.400000</ele>
                <time>2018-02-26T09:56:40.644Z</time>
            </trkpt>
            <trkpt lon="101.007431" lat="12.875070">
                <ele>94.200000</ele>
                <time>2018-02-26T09:56:42.644Z</time>
            </trkpt>
            <trkpt lon="101.007419" lat="12.875099">
                <ele>94.100000</ele>
                <time>2018-02-26T09:56:43.644Z</time>
            </trkpt>
            <trkpt lon="101.007391" lat="12.875133">
                <ele>93.900000</ele>
                <time>2018-02-26T09:56:45.644Z</time>
            </trkpt>
            <trkpt lon="101.007346" lat="12.875158">
                <ele>93.600000</ele>
                <time>2018-02-26T09:56:47.644Z</time>
            </trkpt>
            <trkpt lon="101.007311" lat="12.875165">
                <ele>93.500000</ele>
                <time>2018-02-26T09:56:48.644Z</time>
            </trkpt>
            <trkpt lon="101.007267" lat="12.875187">
                <ele>93.400000</ele>
                <time>2018-02-26T09:56:50.644Z</time>
            </trkpt>
            <trkpt lon="101.007231" lat="12.875224">
                <ele>93.000000</ele>
                <time>2018-02-26T09:56:52.644Z</time>
            </trkpt>
            <trkpt lon="101.007199" lat="12.875255">
                <ele>92.700000</ele>
                <time>2018-02-26T09:56:54.644Z</time>
            </trkpt>
            <trkpt lon="101.007169" lat="12.875283">
                <ele>92.600000</ele>
                <time>2018-02-26T09:56:56.644Z</time>
            </trkpt>
            <trkpt lon="101.007135" lat="12.875318">
                <ele>92.600000</ele>
                <time>2018-02-26T09:56:58.644Z</time>
            </trkpt>
            <trkpt lon="101.007113" lat="12.875339">
                <ele>92.500000</ele>
                <time>2018-02-26T09:56:59.644Z</time>
            </trkpt>
            <trkpt lon="101.007087" lat="12.875358">
                <ele>92.400000</ele>
                <time>2018-02-26T09:57:00.644Z</time>
            </trkpt>
            <trkpt lon="101.007061" lat="12.875378">
                <ele>92.300000</ele>
                <time>2018-02-26T09:57:01.644Z</time>
            </trkpt>
            <trkpt lon="101.007032" lat="12.875399">
                <ele>92.200000</ele>
                <time>2018-02-26T09:57:02.644Z</time>
            </trkpt>
            <trkpt lon="101.007006" lat="12.875419">
                <ele>92.100000</ele>
                <time>2018-02-26T09:57:03.644Z</time>
            </trkpt>
            <trkpt lon="101.006983" lat="12.875437">
                <ele>91.900000</ele>
                <time>2018-02-26T09:57:04.644Z</time>
            </trkpt>
            <trkpt lon="101.006957" lat="12.875452">
                <ele>91.800000</ele>
                <time>2018-02-26T09:57:05.644Z</time>
            </trkpt>
            <trkpt lon="101.006934" lat="12.875469">
                <ele>91.700000</ele>
                <time>2018-02-26T09:57:06.644Z</time>
            </trkpt>
            <trkpt lon="101.006909" lat="12.875486">
                <ele>91.500000</ele>
                <time>2018-02-26T09:57:07.644Z</time>
            </trkpt>
            <trkpt lon="101.006886" lat="12.875504">
                <ele>91.200000</ele>
                <time>2018-02-26T09:57:08.644Z</time>
            </trkpt>
            <trkpt lon="101.006865" lat="12.875522">
                <ele>91.000000</ele>
                <time>2018-02-26T09:57:09.644Z</time>
            </trkpt>
            <trkpt lon="101.006840" lat="12.875539">
                <ele>90.800000</ele>
                <time>2018-02-26T09:57:10.644Z</time>
            </trkpt>
            <trkpt lon="101.006813" lat="12.875557">
                <ele>90.800000</ele>
                <time>2018-02-26T09:57:11.644Z</time>
            </trkpt>
            <trkpt lon="101.006788" lat="12.875574">
                <ele>90.700000</ele>
                <time>2018-02-26T09:57:12.644Z</time>
            </trkpt>
            <trkpt lon="101.006762" lat="12.875594">
                <ele>90.600000</ele>
                <time>2018-02-26T09:57:13.644Z</time>
            </trkpt>
            <trkpt lon="101.006736" lat="12.875613">
                <ele>90.500000</ele>
                <time>2018-02-26T09:57:14.644Z</time>
            </trkpt>
            <trkpt lon="101.006709" lat="12.875632">
                <ele>90.500000</ele>
                <time>2018-02-26T09:57:15.644Z</time>
            </trkpt>
            <trkpt lon="101.006684" lat="12.875651">
                <ele>90.400000</ele>
                <time>2018-02-26T09:57:16.644Z</time>
            </trkpt>
            <trkpt lon="101.006657" lat="12.875671">
                <ele>90.300000</ele>
                <time>2018-02-26T09:57:17.644Z</time>
            </trkpt>
            <trkpt lon="101.006628" lat="12.875688">
                <ele>90.200000</ele>
                <time>2018-02-26T09:57:18.644Z</time>
            </trkpt>
            <trkpt lon="101.006597" lat="12.875708">
                <ele>90.300000</ele>
                <time>2018-02-26T09:57:19.644Z</time>
            </trkpt>
            <trkpt lon="101.006566" lat="12.875726">
                <ele>90.300000</ele>
                <time>2018-02-26T09:57:20.644Z</time>
            </trkpt>
            <trkpt lon="101.006532" lat="12.875747">
                <ele>90.300000</ele>
                <time>2018-02-26T09:57:21.644Z</time>
            </trkpt>
            <trkpt lon="101.006500" lat="12.875765">
                <ele>90.300000</ele>
                <time>2018-02-26T09:57:22.644Z</time>
            </trkpt>
            <trkpt lon="101.006466" lat="12.875783">
                <ele>90.300000</ele>
                <time>2018-02-26T09:57:23.644Z</time>
            </trkpt>
            <trkpt lon="101.006433" lat="12.875803">
                <ele>90.300000</ele>
                <time>2018-02-26T09:57:24.644Z</time>
            </trkpt>
            <trkpt lon="101.006398" lat="12.875824">
                <ele>90.400000</ele>
                <time>2018-02-26T09:57:25.644Z</time>
            </trkpt>
            <trkpt lon="101.006359" lat="12.875847">
                <ele>90.400000</ele>
                <time>2018-02-26T09:57:26.644Z</time>
            </trkpt>
            <trkpt lon="101.006320" lat="12.875870">
                <ele>90.400000</ele>
                <time>2018-02-26T09:57:27.644Z</time>
            </trkpt>
            <trkpt lon="101.006283" lat="12.875897">
                <ele>90.400000</ele>
                <time>2018-02-26T09:57:28.644Z</time>
            </trkpt>
            <trkpt lon="101.006245" lat="12.875923">
                <ele>90.400000</ele>
                <time>2018-02-26T09:57:29.644Z</time>
            </trkpt>
            <trkpt lon="101.006201" lat="12.875950">
                <ele>90.400000</ele>
                <time>2018-02-26T09:57:30.644Z</time>
            </trkpt>
            <trkpt lon="101.006157" lat="12.875978">
                <ele>90.300000</ele>
                <time>2018-02-26T09:57:31.644Z</time>
            </trkpt>
            <trkpt lon="101.006115" lat="12.876004">
                <ele>90.200000</ele>
                <time>2018-02-26T09:57:32.644Z</time>
            </trkpt>
            <trkpt lon="101.006073" lat="12.876029">
                <ele>89.900000</ele>
                <time>2018-02-26T09:57:33.644Z</time>
            </trkpt>
            <trkpt lon="101.006036" lat="12.876056">
                <ele>89.600000</ele>
                <time>2018-02-26T09:57:34.644Z</time>
            </trkpt>
            <trkpt lon="101.005999" lat="12.876080">
                <ele>89.200000</ele>
                <time>2018-02-26T09:57:35.644Z</time>
            </trkpt>
            <trkpt lon="101.005952" lat="12.876101">
                <ele>88.900000</ele>
                <time>2018-02-26T09:57:36.644Z</time>
            </trkpt>
            <trkpt lon="101.005911" lat="12.876120">
                <ele>88.800000</ele>
                <time>2018-02-26T09:57:37.644Z</time>
            </trkpt>
            <trkpt lon="101.005873" lat="12.876142">
                <ele>88.800000</ele>
                <time>2018-02-26T09:57:38.644Z</time>
            </trkpt>
            <trkpt lon="101.005837" lat="12.876162">
                <ele>88.800000</ele>
                <time>2018-02-26T09:57:39.644Z</time>
            </trkpt>
            <trkpt lon="101.005809" lat="12.876190">
                <ele>89.000000</ele>
                <time>2018-02-26T09:57:40.644Z</time>
            </trkpt>
            <trkpt lon="101.005781" lat="12.876218">
                <ele>89.100000</ele>
                <time>2018-02-26T09:57:41.644Z</time>
            </trkpt>
            <trkpt lon="101.005756" lat="12.876243">
                <ele>89.300000</ele>
                <time>2018-02-26T09:57:42.644Z</time>
            </trkpt>
            <trkpt lon="101.005732" lat="12.876268">
                <ele>89.600000</ele>
                <time>2018-02-26T09:57:43.644Z</time>
            </trkpt>
            <trkpt lon="101.005714" lat="12.876290">
                <ele>89.600000</ele>
                <time>2018-02-26T09:57:44.644Z</time>
            </trkpt>
            <trkpt lon="101.005691" lat="12.876315">
                <ele>89.700000</ele>
                <time>2018-02-26T09:57:45.644Z</time>
            </trkpt>
            <trkpt lon="101.005663" lat="12.876339">
                <ele>89.700000</ele>
                <time>2018-02-26T09:57:46.644Z</time>
            </trkpt>
            <trkpt lon="101.005635" lat="12.876363">
                <ele>89.700000</ele>
                <time>2018-02-26T09:57:47.644Z</time>
            </trkpt>
            <trkpt lon="101.005608" lat="12.876388">
                <ele>89.700000</ele>
                <time>2018-02-26T09:57:48.644Z</time>
            </trkpt>
            <trkpt lon="101.005580" lat="12.876413">
                <ele>89.700000</ele>
                <time>2018-02-26T09:57:49.644Z</time>
            </trkpt>
            <trkpt lon="101.005553" lat="12.876439">
                <ele>89.800000</ele>
                <time>2018-02-26T09:57:50.644Z</time>
            </trkpt>
            <trkpt lon="101.005529" lat="12.876467">
                <ele>89.800000</ele>
                <time>2018-02-26T09:57:51.644Z</time>
            </trkpt>
            <trkpt lon="101.005507" lat="12.876495">
                <ele>89.800000</ele>
                <time>2018-02-26T09:57:52.644Z</time>
            </trkpt>
            <trkpt lon="101.005484" lat="12.876524">
                <ele>89.800000</ele>
                <time>2018-02-26T09:57:53.644Z</time>
            </trkpt>
            <trkpt lon="101.005455" lat="12.876558">
                <ele>89.900000</ele>
                <time>2018-02-26T09:57:55.644Z</time>
            </trkpt>
            <trkpt lon="101.005436" lat="12.876577">
                <ele>90.000000</ele>
                <time>2018-02-26T09:58:02.644Z</time>
            </trkpt>
            <trkpt lon="101.005436" lat="12.876621">
                <ele>90.000000</ele>
                <time>2018-02-26T09:58:05.644Z</time>
            </trkpt>
            <trkpt lon="101.005414" lat="12.876638">
                <ele>90.000000</ele>
                <time>2018-02-26T09:58:37.644Z</time>
            </trkpt>
            <trkpt lon="101.005410" lat="12.876665">
                <ele>90.000000</ele>
                <time>2018-02-26T09:59:00.644Z</time>
            </trkpt>
            <trkpt lon="101.005418" lat="12.876700">
                <ele>89.900000</ele>
                <time>2018-02-26T09:59:03.644Z</time>
            </trkpt>
            <trkpt lon="101.005432" lat="12.876731">
                <ele>89.800000</ele>
                <time>2018-02-26T09:59:05.644Z</time>
            </trkpt>
            <trkpt lon="101.005449" lat="12.876772">
                <ele>89.700000</ele>
                <time>2018-02-26T09:59:07.644Z</time>
            </trkpt>
            <trkpt lon="101.005460" lat="12.876824">
                <ele>89.900000</ele>
                <time>2018-02-26T09:59:09.644Z</time>
            </trkpt>
            <trkpt lon="101.005465" lat="12.876855">
                <ele>90.000000</ele>
                <time>2018-02-26T09:59:10.644Z</time>
            </trkpt>
            <trkpt lon="101.005471" lat="12.876887">
                <ele>90.400000</ele>
                <time>2018-02-26T09:59:11.644Z</time>
            </trkpt>
            <trkpt lon="101.005476" lat="12.876920">
                <ele>90.700000</ele>
                <time>2018-02-26T09:59:12.644Z</time>
            </trkpt>
            <trkpt lon="101.005481" lat="12.876951">
                <ele>91.100000</ele>
                <time>2018-02-26T09:59:13.644Z</time>
            </trkpt>
            <trkpt lon="101.005488" lat="12.876980">
                <ele>91.500000</ele>
                <time>2018-02-26T09:59:14.644Z</time>
            </trkpt>
            <trkpt lon="101.005490" lat="12.877014">
                <ele>92.000000</ele>
                <time>2018-02-26T09:59:15.644Z</time>
            </trkpt>
            <trkpt lon="101.005491" lat="12.877057">
                <ele>92.500000</ele>
                <time>2018-02-26T09:59:16.644Z</time>
            </trkpt>
            <trkpt lon="101.005491" lat="12.877097">
                <ele>92.900000</ele>
                <time>2018-02-26T09:59:17.644Z</time>
            </trkpt>
            <trkpt lon="101.005493" lat="12.877135">
                <ele>93.200000</ele>
                <time>2018-02-26T09:59:18.644Z</time>
            </trkpt>
            <trkpt lon="101.005498" lat="12.877170">
                <ele>93.300000</ele>
                <time>2018-02-26T09:59:19.644Z</time>
            </trkpt>
            <trkpt lon="101.005500" lat="12.877202">
                <ele>93.400000</ele>
                <time>2018-02-26T09:59:20.644Z</time>
            </trkpt>
            <trkpt lon="101.005505" lat="12.877232">
                <ele>93.600000</ele>
                <time>2018-02-26T09:59:21.644Z</time>
            </trkpt>
            <trkpt lon="101.005510" lat="12.877263">
                <ele>93.800000</ele>
                <time>2018-02-26T09:59:22.644Z</time>
            </trkpt>
            <trkpt lon="101.005515" lat="12.877292">
                <ele>94.000000</ele>
                <time>2018-02-26T09:59:23.644Z</time>
            </trkpt>
            <trkpt lon="101.005525" lat="12.877325">
                <ele>94.000000</ele>
                <time>2018-02-26T09:59:24.644Z</time>
            </trkpt>
            <trkpt lon="101.005529" lat="12.877357">
                <ele>94.000000</ele>
                <time>2018-02-26T09:59:25.644Z</time>
            </trkpt>
            <trkpt lon="101.005531" lat="12.877389">
                <ele>94.000000</ele>
                <time>2018-02-26T09:59:26.644Z</time>
            </trkpt>
            <trkpt lon="101.005537" lat="12.877423">
                <ele>93.900000</ele>
                <time>2018-02-26T09:59:27.644Z</time>
            </trkpt>
            <trkpt lon="101.005541" lat="12.877455">
                <ele>93.900000</ele>
                <time>2018-02-26T09:59:28.644Z</time>
            </trkpt>
            <trkpt lon="101.005545" lat="12.877486">
                <ele>93.900000</ele>
                <time>2018-02-26T09:59:29.644Z</time>
            </trkpt>
            <trkpt lon="101.005547" lat="12.877517">
                <ele>93.800000</ele>
                <time>2018-02-26T09:59:30.644Z</time>
            </trkpt>
            <trkpt lon="101.005551" lat="12.877548">
                <ele>93.800000</ele>
                <time>2018-02-26T09:59:31.644Z</time>
            </trkpt>
            <trkpt lon="101.005553" lat="12.877578">
                <ele>93.800000</ele>
                <time>2018-02-26T09:59:32.644Z</time>
            </trkpt>
            <trkpt lon="101.005555" lat="12.877605">
                <ele>93.700000</ele>
                <time>2018-02-26T09:59:33.644Z</time>
            </trkpt>
            <trkpt lon="101.005557" lat="12.877636">
                <ele>93.700000</ele>
                <time>2018-02-26T09:59:34.644Z</time>
            </trkpt>
            <trkpt lon="101.005556" lat="12.877665">
                <ele>93.700000</ele>
                <time>2018-02-26T09:59:35.644Z</time>
            </trkpt>
            <trkpt lon="101.005558" lat="12.877695">
                <ele>93.600000</ele>
                <time>2018-02-26T09:59:36.644Z</time>
            </trkpt>
            <trkpt lon="101.005558" lat="12.877727">
                <ele>93.600000</ele>
                <time>2018-02-26T09:59:37.644Z</time>
            </trkpt>
            <trkpt lon="101.005559" lat="12.877757">
                <ele>93.500000</ele>
                <time>2018-02-26T09:59:38.644Z</time>
            </trkpt>
            <trkpt lon="101.005560" lat="12.877790">
                <ele>93.500000</ele>
                <time>2018-02-26T09:59:39.644Z</time>
            </trkpt>
            <trkpt lon="101.005562" lat="12.877824">
                <ele>93.500000</ele>
                <time>2018-02-26T09:59:40.644Z</time>
            </trkpt>
            <trkpt lon="101.005561" lat="12.877858">
                <ele>93.600000</ele>
                <time>2018-02-26T09:59:41.644Z</time>
            </trkpt>
            <trkpt lon="101.005562" lat="12.877888">
                <ele>93.600000</ele>
                <time>2018-02-26T09:59:42.644Z</time>
            </trkpt>
            <trkpt lon="101.005557" lat="12.877918">
                <ele>93.700000</ele>
                <time>2018-02-26T09:59:43.644Z</time>
            </trkpt>
            <trkpt lon="101.005554" lat="12.877947">
                <ele>93.800000</ele>
                <time>2018-02-26T09:59:44.644Z</time>
            </trkpt>
            <trkpt lon="101.005552" lat="12.877975">
                <ele>93.900000</ele>
                <time>2018-02-26T09:59:45.644Z</time>
            </trkpt>
            <trkpt lon="101.005553" lat="12.878018">
                <ele>94.100000</ele>
                <time>2018-02-26T09:59:47.644Z</time>
            </trkpt>
            <trkpt lon="101.005528" lat="12.878065">
                <ele>94.300000</ele>
                <time>2018-02-26T09:59:49.644Z</time>
            </trkpt>
            <trkpt lon="101.005510" lat="12.878089">
                <ele>94.600000</ele>
                <time>2018-02-26T09:59:50.644Z</time>
            </trkpt>
            <trkpt lon="101.005496" lat="12.878115">
                <ele>94.800000</ele>
                <time>2018-02-26T09:59:51.644Z</time>
            </trkpt>
            <trkpt lon="101.005483" lat="12.878141">
                <ele>95.000000</ele>
                <time>2018-02-26T09:59:52.644Z</time>
            </trkpt>
            <trkpt lon="101.005476" lat="12.878169">
                <ele>95.200000</ele>
                <time>2018-02-26T09:59:53.644Z</time>
            </trkpt>
            <trkpt lon="101.005473" lat="12.878206">
                <ele>95.600000</ele>
                <time>2018-02-26T09:59:54.644Z</time>
            </trkpt>
            <trkpt lon="101.005474" lat="12.878242">
                <ele>96.000000</ele>
                <time>2018-02-26T09:59:55.644Z</time>
            </trkpt>
            <trkpt lon="101.005474" lat="12.878273">
                <ele>96.500000</ele>
                <time>2018-02-26T09:59:56.644Z</time>
            </trkpt>
            <trkpt lon="101.005479" lat="12.878311">
                <ele>96.700000</ele>
                <time>2018-02-26T09:59:57.644Z</time>
            </trkpt>
            <trkpt lon="101.005484" lat="12.878345">
                <ele>96.700000</ele>
                <time>2018-02-26T09:59:58.644Z</time>
            </trkpt>
            <trkpt lon="101.005488" lat="12.878384">
                <ele>96.700000</ele>
                <time>2018-02-26T09:59:59.644Z</time>
            </trkpt>
            <trkpt lon="101.005487" lat="12.878424">
                <ele>96.600000</ele>
                <time>2018-02-26T10:00:00.644Z</time>
            </trkpt>
            <trkpt lon="101.005492" lat="12.878470">
                <ele>96.500000</ele>
                <time>2018-02-26T10:00:01.644Z</time>
            </trkpt>
            <trkpt lon="101.005499" lat="12.878513">
                <ele>96.500000</ele>
                <time>2018-02-26T10:00:02.644Z</time>
            </trkpt>
            <trkpt lon="101.005507" lat="12.878554">
                <ele>96.400000</ele>
                <time>2018-02-26T10:00:03.644Z</time>
            </trkpt>
            <trkpt lon="101.005513" lat="12.878593">
                <ele>96.400000</ele>
                <time>2018-02-26T10:00:04.644Z</time>
            </trkpt>
            <trkpt lon="101.005525" lat="12.878637">
                <ele>96.300000</ele>
                <time>2018-02-26T10:00:05.644Z</time>
            </trkpt>
            <trkpt lon="101.005535" lat="12.878678">
                <ele>96.200000</ele>
                <time>2018-02-26T10:00:06.644Z</time>
            </trkpt>
            <trkpt lon="101.005550" lat="12.878714">
                <ele>96.100000</ele>
                <time>2018-02-26T10:00:07.644Z</time>
            </trkpt>
            <trkpt lon="101.005568" lat="12.878744">
                <ele>95.800000</ele>
                <time>2018-02-26T10:00:08.644Z</time>
            </trkpt>
            <trkpt lon="101.005581" lat="12.878771">
                <ele>95.500000</ele>
                <time>2018-02-26T10:00:09.644Z</time>
            </trkpt>
            <trkpt lon="101.005590" lat="12.878800">
                <ele>95.300000</ele>
                <time>2018-02-26T10:00:10.644Z</time>
            </trkpt>
            <trkpt lon="101.005600" lat="12.878834">
                <ele>95.200000</ele>
                <time>2018-02-26T10:00:11.644Z</time>
            </trkpt>
            <trkpt lon="101.005610" lat="12.878868">
                <ele>95.100000</ele>
                <time>2018-02-26T10:00:12.644Z</time>
            </trkpt>
            <trkpt lon="101.005621" lat="12.878901">
                <ele>95.100000</ele>
                <time>2018-02-26T10:00:13.644Z</time>
            </trkpt>
            <trkpt lon="101.005635" lat="12.878937">
                <ele>95.100000</ele>
                <time>2018-02-26T10:00:14.644Z</time>
            </trkpt>
            <trkpt lon="101.005646" lat="12.878973">
                <ele>95.000000</ele>
                <time>2018-02-26T10:00:15.644Z</time>
            </trkpt>
            <trkpt lon="101.005658" lat="12.879009">
                <ele>95.200000</ele>
                <time>2018-02-26T10:00:16.644Z</time>
            </trkpt>
            <trkpt lon="101.005666" lat="12.879045">
                <ele>95.300000</ele>
                <time>2018-02-26T10:00:17.644Z</time>
            </trkpt>
            <trkpt lon="101.005674" lat="12.879079">
                <ele>95.400000</ele>
                <time>2018-02-26T10:00:18.644Z</time>
            </trkpt>
            <trkpt lon="101.005681" lat="12.879115">
                <ele>95.500000</ele>
                <time>2018-02-26T10:00:19.644Z</time>
            </trkpt>
            <trkpt lon="101.005685" lat="12.879152">
                <ele>95.700000</ele>
                <time>2018-02-26T10:00:20.644Z</time>
            </trkpt>
            <trkpt lon="101.005692" lat="12.879187">
                <ele>95.900000</ele>
                <time>2018-02-26T10:00:21.644Z</time>
            </trkpt>
            <trkpt lon="101.005694" lat="12.879220">
                <ele>96.000000</ele>
                <time>2018-02-26T10:00:22.644Z</time>
            </trkpt>
            <trkpt lon="101.005693" lat="12.879254">
                <ele>96.100000</ele>
                <time>2018-02-26T10:00:23.644Z</time>
            </trkpt>
            <trkpt lon="101.005679" lat="12.879285">
                <ele>96.100000</ele>
                <time>2018-02-26T10:00:24.644Z</time>
            </trkpt>
            <trkpt lon="101.005660" lat="12.879313">
                <ele>96.300000</ele>
                <time>2018-02-26T10:00:25.644Z</time>
            </trkpt>
            <trkpt lon="101.005644" lat="12.879343">
                <ele>96.600000</ele>
                <time>2018-02-26T10:00:26.644Z</time>
            </trkpt>
            <trkpt lon="101.005633" lat="12.879375">
                <ele>96.600000</ele>
                <time>2018-02-26T10:00:27.644Z</time>
            </trkpt>
            <trkpt lon="101.005622" lat="12.879411">
                <ele>96.800000</ele>
                <time>2018-02-26T10:00:28.644Z</time>
            </trkpt>
            <trkpt lon="101.005612" lat="12.879443">
                <ele>97.000000</ele>
                <time>2018-02-26T10:00:29.644Z</time>
            </trkpt>
            <trkpt lon="101.005600" lat="12.879475">
                <ele>97.100000</ele>
                <time>2018-02-26T10:00:30.644Z</time>
            </trkpt>
            <trkpt lon="101.005585" lat="12.879507">
                <ele>97.200000</ele>
                <time>2018-02-26T10:00:31.644Z</time>
            </trkpt>
            <trkpt lon="101.005562" lat="12.879537">
                <ele>97.300000</ele>
                <time>2018-02-26T10:00:32.644Z</time>
            </trkpt>
            <trkpt lon="101.005542" lat="12.879563">
                <ele>97.400000</ele>
                <time>2018-02-26T10:00:33.644Z</time>
            </trkpt>
            <trkpt lon="101.005532" lat="12.879589">
                <ele>97.500000</ele>
                <time>2018-02-26T10:00:34.644Z</time>
            </trkpt>
            <trkpt lon="101.005520" lat="12.879617">
                <ele>97.700000</ele>
                <time>2018-02-26T10:00:35.644Z</time>
            </trkpt>
            <trkpt lon="101.005499" lat="12.879645">
                <ele>97.800000</ele>
                <time>2018-02-26T10:00:36.644Z</time>
            </trkpt>
            <trkpt lon="101.005478" lat="12.879675">
                <ele>97.900000</ele>
                <time>2018-02-26T10:00:37.644Z</time>
            </trkpt>
            <trkpt lon="101.005461" lat="12.879701">
                <ele>98.000000</ele>
                <time>2018-02-26T10:00:38.644Z</time>
            </trkpt>
            <trkpt lon="101.005445" lat="12.879729">
                <ele>98.000000</ele>
                <time>2018-02-26T10:00:39.644Z</time>
            </trkpt>
            <trkpt lon="101.005430" lat="12.879753">
                <ele>98.200000</ele>
                <time>2018-02-26T10:00:40.644Z</time>
            </trkpt>
            <trkpt lon="101.005410" lat="12.879774">
                <ele>98.300000</ele>
                <time>2018-02-26T10:00:41.644Z</time>
            </trkpt>
            <trkpt lon="101.005382" lat="12.879796">
                <ele>98.500000</ele>
                <time>2018-02-26T10:00:42.644Z</time>
            </trkpt>
            <trkpt lon="101.005356" lat="12.879812">
                <ele>98.500000</ele>
                <time>2018-02-26T10:00:43.644Z</time>
            </trkpt>
            <trkpt lon="101.005312" lat="12.879843">
                <ele>98.700000</ele>
                <time>2018-02-26T10:00:45.644Z</time>
            </trkpt>
            <trkpt lon="101.005290" lat="12.879870">
                <ele>98.800000</ele>
                <time>2018-02-26T10:00:46.644Z</time>
            </trkpt>
            <trkpt lon="101.005269" lat="12.879897">
                <ele>98.900000</ele>
                <time>2018-02-26T10:00:47.644Z</time>
            </trkpt>
            <trkpt lon="101.005245" lat="12.879925">
                <ele>99.200000</ele>
                <time>2018-02-26T10:00:48.644Z</time>
            </trkpt>
            <trkpt lon="101.005227" lat="12.879948">
                <ele>99.500000</ele>
                <time>2018-02-26T10:00:49.644Z</time>
            </trkpt>
            <trkpt lon="101.005209" lat="12.879973">
                <ele>99.800000</ele>
                <time>2018-02-26T10:00:50.644Z</time>
            </trkpt>
            <trkpt lon="101.005188" lat="12.880000">
                <ele>100.000000</ele>
                <time>2018-02-26T10:00:51.644Z</time>
            </trkpt>
            <trkpt lon="101.005166" lat="12.880027">
                <ele>100.200000</ele>
                <time>2018-02-26T10:00:52.644Z</time>
            </trkpt>
            <trkpt lon="101.005142" lat="12.880055">
                <ele>100.200000</ele>
                <time>2018-02-26T10:00:53.644Z</time>
            </trkpt>
            <trkpt lon="101.005121" lat="12.880084">
                <ele>100.300000</ele>
                <time>2018-02-26T10:00:54.644Z</time>
            </trkpt>
            <trkpt lon="101.005104" lat="12.880108">
                <ele>100.300000</ele>
                <time>2018-02-26T10:00:55.644Z</time>
            </trkpt>
            <trkpt lon="101.005087" lat="12.880132">
                <ele>100.300000</ele>
                <time>2018-02-26T10:00:56.644Z</time>
            </trkpt>
            <trkpt lon="101.005069" lat="12.880156">
                <ele>100.300000</ele>
                <time>2018-02-26T10:00:57.644Z</time>
            </trkpt>
            <trkpt lon="101.005046" lat="12.880180">
                <ele>100.300000</ele>
                <time>2018-02-26T10:00:58.644Z</time>
            </trkpt>
            <trkpt lon="101.005022" lat="12.880206">
                <ele>100.100000</ele>
                <time>2018-02-26T10:00:59.644Z</time>
            </trkpt>
            <trkpt lon="101.005000" lat="12.880235">
                <ele>100.000000</ele>
                <time>2018-02-26T10:01:00.644Z</time>
            </trkpt>
            <trkpt lon="101.004978" lat="12.880265">
                <ele>99.600000</ele>
                <time>2018-02-26T10:01:01.644Z</time>
            </trkpt>
            <trkpt lon="101.004957" lat="12.880295">
                <ele>99.300000</ele>
                <time>2018-02-26T10:01:02.644Z</time>
            </trkpt>
            <trkpt lon="101.004940" lat="12.880325">
                <ele>99.200000</ele>
                <time>2018-02-26T10:01:03.644Z</time>
            </trkpt>
            <trkpt lon="101.004927" lat="12.880355">
                <ele>99.100000</ele>
                <time>2018-02-26T10:01:04.644Z</time>
            </trkpt>
            <trkpt lon="101.004916" lat="12.880388">
                <ele>98.700000</ele>
                <time>2018-02-26T10:01:05.644Z</time>
            </trkpt>
            <trkpt lon="101.004911" lat="12.880418">
                <ele>98.300000</ele>
                <time>2018-02-26T10:01:06.644Z</time>
            </trkpt>
            <trkpt lon="101.004910" lat="12.880453">
                <ele>98.300000</ele>
                <time>2018-02-26T10:01:07.644Z</time>
            </trkpt>
            <trkpt lon="101.004908" lat="12.880487">
                <ele>98.200000</ele>
                <time>2018-02-26T10:01:08.644Z</time>
            </trkpt>
            <trkpt lon="101.004905" lat="12.880523">
                <ele>97.800000</ele>
                <time>2018-02-26T10:01:09.644Z</time>
            </trkpt>
            <trkpt lon="101.004902" lat="12.880554">
                <ele>97.500000</ele>
                <time>2018-02-26T10:01:10.644Z</time>
            </trkpt>
            <trkpt lon="101.004898" lat="12.880582">
                <ele>97.300000</ele>
                <time>2018-02-26T10:01:11.644Z</time>
            </trkpt>
            <trkpt lon="101.004870" lat="12.880622">
                <ele>97.000000</ele>
                <time>2018-02-26T10:01:13.644Z</time>
            </trkpt>
            <trkpt lon="101.004817" lat="12.880617">
                <ele>97.000000</ele>
                <time>2018-02-26T10:01:15.644Z</time>
            </trkpt>
            <trkpt lon="101.004780" lat="12.880618">
                <ele>96.900000</ele>
                <time>2018-02-26T10:01:18.644Z</time>
            </trkpt>
            <trkpt lon="101.004749" lat="12.880615">
                <ele>96.800000</ele>
                <time>2018-02-26T10:01:26.644Z</time>
            </trkpt>
            <trkpt lon="101.004712" lat="12.880614">
                <ele>96.600000</ele>
                <time>2018-02-26T10:01:28.644Z</time>
            </trkpt>
            <trkpt lon="101.004662" lat="12.880616">
                <ele>96.400000</ele>
                <time>2018-02-26T10:01:30.644Z</time>
            </trkpt>
            <trkpt lon="101.004633" lat="12.880616">
                <ele>96.200000</ele>
                <time>2018-02-26T10:01:31.644Z</time>
            </trkpt>
            <trkpt lon="101.004602" lat="12.880617">
                <ele>96.200000</ele>
                <time>2018-02-26T10:01:32.644Z</time>
            </trkpt>
            <trkpt lon="101.004571" lat="12.880618">
                <ele>96.200000</ele>
                <time>2018-02-26T10:01:33.644Z</time>
            </trkpt>
            <trkpt lon="101.004536" lat="12.880617">
                <ele>96.300000</ele>
                <time>2018-02-26T10:01:34.644Z</time>
            </trkpt>
            <trkpt lon="101.004501" lat="12.880617">
                <ele>96.400000</ele>
                <time>2018-02-26T10:01:35.644Z</time>
            </trkpt>
            <trkpt lon="101.004463" lat="12.880616">
                <ele>96.400000</ele>
                <time>2018-02-26T10:01:36.644Z</time>
            </trkpt>
            <trkpt lon="101.004423" lat="12.880614">
                <ele>96.500000</ele>
                <time>2018-02-26T10:01:37.644Z</time>
            </trkpt>
            <trkpt lon="101.004382" lat="12.880612">
                <ele>96.500000</ele>
                <time>2018-02-26T10:01:38.644Z</time>
            </trkpt>
            <trkpt lon="101.004339" lat="12.880612">
                <ele>96.500000</ele>
                <time>2018-02-26T10:01:39.644Z</time>
            </trkpt>
            <trkpt lon="101.004294" lat="12.880611">
                <ele>96.500000</ele>
                <time>2018-02-26T10:01:40.644Z</time>
            </trkpt>
            <trkpt lon="101.004251" lat="12.880611">
                <ele>96.500000</ele>
                <time>2018-02-26T10:01:41.644Z</time>
            </trkpt>
            <trkpt lon="101.004209" lat="12.880610">
                <ele>96.600000</ele>
                <time>2018-02-26T10:01:42.644Z</time>
            </trkpt>
            <trkpt lon="101.004169" lat="12.880609">
                <ele>96.600000</ele>
                <time>2018-02-26T10:01:43.644Z</time>
            </trkpt>
            <trkpt lon="101.004133" lat="12.880608">
                <ele>96.600000</ele>
                <time>2018-02-26T10:01:44.644Z</time>
            </trkpt>
            <trkpt lon="101.004097" lat="12.880608">
                <ele>96.600000</ele>
                <time>2018-02-26T10:01:45.644Z</time>
            </trkpt>
            <trkpt lon="101.004057" lat="12.880611">
                <ele>96.600000</ele>
                <time>2018-02-26T10:01:46.644Z</time>
            </trkpt>
            <trkpt lon="101.004015" lat="12.880614">
                <ele>96.600000</ele>
                <time>2018-02-26T10:01:47.644Z</time>
            </trkpt>
            <trkpt lon="101.003973" lat="12.880621">
                <ele>96.600000</ele>
                <time>2018-02-26T10:01:48.644Z</time>
            </trkpt>
            <trkpt lon="101.003929" lat="12.880623">
                <ele>96.500000</ele>
                <time>2018-02-26T10:01:49.644Z</time>
            </trkpt>
            <trkpt lon="101.003880" lat="12.880619">
                <ele>96.300000</ele>
                <time>2018-02-26T10:01:50.644Z</time>
            </trkpt>
            <trkpt lon="101.003827" lat="12.880614">
                <ele>96.000000</ele>
                <time>2018-02-26T10:01:51.644Z</time>
            </trkpt>
            <trkpt lon="101.003778" lat="12.880610">
                <ele>95.800000</ele>
                <time>2018-02-26T10:01:52.644Z</time>
            </trkpt>
            <trkpt lon="101.003726" lat="12.880604">
                <ele>95.500000</ele>
                <time>2018-02-26T10:01:53.644Z</time>
            </trkpt>
            <trkpt lon="101.003672" lat="12.880600">
                <ele>95.200000</ele>
                <time>2018-02-26T10:01:54.644Z</time>
            </trkpt>
            <trkpt lon="101.003615" lat="12.880597">
                <ele>95.000000</ele>
                <time>2018-02-26T10:01:55.644Z</time>
            </trkpt>
            <trkpt lon="101.003558" lat="12.880592">
                <ele>94.500000</ele>
                <time>2018-02-26T10:01:56.644Z</time>
            </trkpt>
            <trkpt lon="101.003500" lat="12.880587">
                <ele>94.000000</ele>
                <time>2018-02-26T10:01:57.644Z</time>
            </trkpt>
            <trkpt lon="101.003448" lat="12.880586">
                <ele>93.400000</ele>
                <time>2018-02-26T10:01:58.644Z</time>
            </trkpt>
            <trkpt lon="101.003392" lat="12.880584">
                <ele>92.900000</ele>
                <time>2018-02-26T10:01:59.644Z</time>
            </trkpt>
            <trkpt lon="101.003341" lat="12.880584">
                <ele>92.700000</ele>
                <time>2018-02-26T10:02:00.644Z</time>
            </trkpt>
            <trkpt lon="101.003286" lat="12.880582">
                <ele>92.500000</ele>
                <time>2018-02-26T10:02:01.644Z</time>
            </trkpt>
            <trkpt lon="101.003227" lat="12.880582">
                <ele>92.400000</ele>
                <time>2018-02-26T10:02:02.644Z</time>
            </trkpt>
            <trkpt lon="101.003171" lat="12.880583">
                <ele>92.200000</ele>
                <time>2018-02-26T10:02:03.644Z</time>
            </trkpt>
            <trkpt lon="101.003116" lat="12.880583">
                <ele>92.000000</ele>
                <time>2018-02-26T10:02:04.644Z</time>
            </trkpt>
            <trkpt lon="101.003067" lat="12.880582">
                <ele>91.900000</ele>
                <time>2018-02-26T10:02:05.644Z</time>
            </trkpt>
            <trkpt lon="101.003011" lat="12.880579">
                <ele>91.900000</ele>
                <time>2018-02-26T10:02:06.644Z</time>
            </trkpt>
            <trkpt lon="101.002957" lat="12.880577">
                <ele>91.900000</ele>
                <time>2018-02-26T10:02:07.644Z</time>
            </trkpt>
            <trkpt lon="101.002902" lat="12.880577">
                <ele>92.000000</ele>
                <time>2018-02-26T10:02:08.644Z</time>
            </trkpt>
            <trkpt lon="101.002852" lat="12.880582">
                <ele>92.100000</ele>
                <time>2018-02-26T10:02:09.644Z</time>
            </trkpt>
            <trkpt lon="101.002805" lat="12.880588">
                <ele>92.400000</ele>
                <time>2018-02-26T10:02:10.644Z</time>
            </trkpt>
            <trkpt lon="101.002760" lat="12.880591">
                <ele>92.700000</ele>
                <time>2018-02-26T10:02:11.644Z</time>
            </trkpt>
            <trkpt lon="101.002718" lat="12.880594">
                <ele>92.900000</ele>
                <time>2018-02-26T10:02:12.644Z</time>
            </trkpt>
            <trkpt lon="101.002679" lat="12.880602">
                <ele>93.100000</ele>
                <time>2018-02-26T10:02:13.644Z</time>
            </trkpt>
            <trkpt lon="101.002635" lat="12.880611">
                <ele>93.400000</ele>
                <time>2018-02-26T10:02:14.644Z</time>
            </trkpt>
            <trkpt lon="101.002589" lat="12.880626">
                <ele>93.700000</ele>
                <time>2018-02-26T10:02:15.644Z</time>
            </trkpt>
            <trkpt lon="101.002543" lat="12.880645">
                <ele>93.900000</ele>
                <time>2018-02-26T10:02:16.644Z</time>
            </trkpt>
            <trkpt lon="101.002500" lat="12.880664">
                <ele>93.900000</ele>
                <time>2018-02-26T10:02:17.644Z</time>
            </trkpt>
            <trkpt lon="101.002460" lat="12.880687">
                <ele>93.700000</ele>
                <time>2018-02-26T10:02:18.644Z</time>
            </trkpt>
            <trkpt lon="101.002425" lat="12.880708">
                <ele>93.500000</ele>
                <time>2018-02-26T10:02:19.644Z</time>
            </trkpt>
            <trkpt lon="101.002395" lat="12.880731">
                <ele>93.400000</ele>
                <time>2018-02-26T10:02:20.644Z</time>
            </trkpt>
            <trkpt lon="101.002370" lat="12.880759">
                <ele>93.200000</ele>
                <time>2018-02-26T10:02:21.644Z</time>
            </trkpt>
            <trkpt lon="101.002346" lat="12.880787">
                <ele>93.100000</ele>
                <time>2018-02-26T10:02:22.644Z</time>
            </trkpt>
            <trkpt lon="101.002323" lat="12.880819">
                <ele>92.900000</ele>
                <time>2018-02-26T10:02:23.644Z</time>
            </trkpt>
            <trkpt lon="101.002303" lat="12.880854">
                <ele>92.800000</ele>
                <time>2018-02-26T10:02:24.644Z</time>
            </trkpt>
            <trkpt lon="101.002277" lat="12.880894">
                <ele>92.600000</ele>
                <time>2018-02-26T10:02:25.644Z</time>
            </trkpt>
            <trkpt lon="101.002252" lat="12.880933">
                <ele>92.400000</ele>
                <time>2018-02-26T10:02:26.644Z</time>
            </trkpt>
            <trkpt lon="101.002228" lat="12.880972">
                <ele>92.200000</ele>
                <time>2018-02-26T10:02:27.644Z</time>
            </trkpt>
            <trkpt lon="101.002202" lat="12.881013">
                <ele>92.000000</ele>
                <time>2018-02-26T10:02:28.644Z</time>
            </trkpt>
            <trkpt lon="101.002175" lat="12.881052">
                <ele>91.900000</ele>
                <time>2018-02-26T10:02:29.644Z</time>
            </trkpt>
            <trkpt lon="101.002147" lat="12.881088">
                <ele>91.700000</ele>
                <time>2018-02-26T10:02:30.644Z</time>
            </trkpt>
            <trkpt lon="101.002118" lat="12.881126">
                <ele>91.500000</ele>
                <time>2018-02-26T10:02:31.644Z</time>
            </trkpt>
            <trkpt lon="101.002083" lat="12.881159">
                <ele>91.200000</ele>
                <time>2018-02-26T10:02:32.644Z</time>
            </trkpt>
            <trkpt lon="101.002033" lat="12.881184">
                <ele>90.900000</ele>
                <time>2018-02-26T10:02:33.644Z</time>
            </trkpt>
            <trkpt lon="101.001972" lat="12.881210">
                <ele>90.700000</ele>
                <time>2018-02-26T10:02:34.644Z</time>
            </trkpt>
            <trkpt lon="101.001905" lat="12.881237">
                <ele>90.400000</ele>
                <time>2018-02-26T10:02:35.644Z</time>
            </trkpt>
            <trkpt lon="101.001842" lat="12.881260">
                <ele>90.200000</ele>
                <time>2018-02-26T10:02:36.644Z</time>
            </trkpt>
            <trkpt lon="101.001776" lat="12.881283">
                <ele>90.000000</ele>
                <time>2018-02-26T10:02:37.644Z</time>
            </trkpt>
            <trkpt lon="101.001714" lat="12.881305">
                <ele>89.800000</ele>
                <time>2018-02-26T10:02:38.644Z</time>
            </trkpt>
            <trkpt lon="101.001655" lat="12.881324">
                <ele>89.500000</ele>
                <time>2018-02-26T10:02:39.644Z</time>
            </trkpt>
            <trkpt lon="101.001596" lat="12.881341">
                <ele>89.300000</ele>
                <time>2018-02-26T10:02:40.644Z</time>
            </trkpt>
            <trkpt lon="101.001545" lat="12.881361">
                <ele>89.000000</ele>
                <time>2018-02-26T10:02:41.644Z</time>
            </trkpt>
            <trkpt lon="101.001504" lat="12.881383">
                <ele>88.900000</ele>
                <time>2018-02-26T10:02:42.644Z</time>
            </trkpt>
            <trkpt lon="101.001466" lat="12.881406">
                <ele>88.700000</ele>
                <time>2018-02-26T10:02:43.644Z</time>
            </trkpt>
            <trkpt lon="101.001427" lat="12.881429">
                <ele>88.500000</ele>
                <time>2018-02-26T10:02:44.644Z</time>
            </trkpt>
            <trkpt lon="101.001386" lat="12.881459">
                <ele>88.400000</ele>
                <time>2018-02-26T10:02:45.644Z</time>
            </trkpt>
            <trkpt lon="101.001340" lat="12.881489">
                <ele>88.200000</ele>
                <time>2018-02-26T10:02:46.644Z</time>
            </trkpt>
            <trkpt lon="101.001294" lat="12.881518">
                <ele>88.000000</ele>
                <time>2018-02-26T10:02:47.644Z</time>
            </trkpt>
            <trkpt lon="101.001249" lat="12.881548">
                <ele>87.900000</ele>
                <time>2018-02-26T10:02:48.644Z</time>
            </trkpt>
            <trkpt lon="101.001203" lat="12.881583">
                <ele>87.700000</ele>
                <time>2018-02-26T10:02:49.644Z</time>
            </trkpt>
            <trkpt lon="101.001158" lat="12.881619">
                <ele>87.600000</ele>
                <time>2018-02-26T10:02:50.644Z</time>
            </trkpt>
            <trkpt lon="101.001112" lat="12.881656">
                <ele>87.400000</ele>
                <time>2018-02-26T10:02:51.644Z</time>
            </trkpt>
            <trkpt lon="101.001067" lat="12.881694">
                <ele>87.300000</ele>
                <time>2018-02-26T10:02:52.644Z</time>
            </trkpt>
            <trkpt lon="101.001026" lat="12.881733">
                <ele>87.100000</ele>
                <time>2018-02-26T10:02:53.644Z</time>
            </trkpt>
            <trkpt lon="101.000984" lat="12.881775">
                <ele>86.900000</ele>
                <time>2018-02-26T10:02:54.644Z</time>
            </trkpt>
            <trkpt lon="101.000945" lat="12.881816">
                <ele>86.800000</ele>
                <time>2018-02-26T10:02:55.644Z</time>
            </trkpt>
            <trkpt lon="101.000907" lat="12.881858">
                <ele>86.700000</ele>
                <time>2018-02-26T10:02:56.644Z</time>
            </trkpt>
            <trkpt lon="101.000873" lat="12.881900">
                <ele>86.600000</ele>
                <time>2018-02-26T10:02:57.644Z</time>
            </trkpt>
            <trkpt lon="101.000840" lat="12.881941">
                <ele>86.600000</ele>
                <time>2018-02-26T10:02:58.644Z</time>
            </trkpt>
            <trkpt lon="101.000803" lat="12.881978">
                <ele>86.500000</ele>
                <time>2018-02-26T10:02:59.644Z</time>
            </trkpt>
            <trkpt lon="101.000765" lat="12.882009">
                <ele>86.400000</ele>
                <time>2018-02-26T10:03:00.644Z</time>
            </trkpt>
            <trkpt lon="101.000727" lat="12.882037">
                <ele>86.300000</ele>
                <time>2018-02-26T10:03:01.644Z</time>
            </trkpt>
            <trkpt lon="101.000692" lat="12.882065">
                <ele>86.300000</ele>
                <time>2018-02-26T10:03:02.644Z</time>
            </trkpt>
            <trkpt lon="101.000654" lat="12.882091">
                <ele>86.200000</ele>
                <time>2018-02-26T10:03:03.644Z</time>
            </trkpt>
            <trkpt lon="101.000616" lat="12.882116">
                <ele>86.100000</ele>
                <time>2018-02-26T10:03:04.644Z</time>
            </trkpt>
            <trkpt lon="101.000578" lat="12.882142">
                <ele>86.000000</ele>
                <time>2018-02-26T10:03:05.644Z</time>
            </trkpt>
            <trkpt lon="101.000542" lat="12.882165">
                <ele>85.900000</ele>
                <time>2018-02-26T10:03:06.644Z</time>
            </trkpt>
            <trkpt lon="101.000501" lat="12.882181">
                <ele>85.800000</ele>
                <time>2018-02-26T10:03:07.644Z</time>
            </trkpt>
            <trkpt lon="101.000460" lat="12.882195">
                <ele>85.600000</ele>
                <time>2018-02-26T10:03:08.644Z</time>
            </trkpt>
            <trkpt lon="101.000421" lat="12.882211">
                <ele>85.500000</ele>
                <time>2018-02-26T10:03:09.644Z</time>
            </trkpt>
            <trkpt lon="101.000382" lat="12.882229">
                <ele>85.400000</ele>
                <time>2018-02-26T10:03:10.644Z</time>
            </trkpt>
            <trkpt lon="101.000339" lat="12.882251">
                <ele>85.200000</ele>
                <time>2018-02-26T10:03:11.644Z</time>
            </trkpt>
            <trkpt lon="101.000293" lat="12.882274">
                <ele>85.000000</ele>
                <time>2018-02-26T10:03:12.644Z</time>
            </trkpt>
            <trkpt lon="101.000248" lat="12.882298">
                <ele>84.900000</ele>
                <time>2018-02-26T10:03:13.644Z</time>
            </trkpt>
            <trkpt lon="101.000199" lat="12.882323">
                <ele>84.700000</ele>
                <time>2018-02-26T10:03:14.644Z</time>
            </trkpt>
            <trkpt lon="101.000150" lat="12.882348">
                <ele>84.500000</ele>
                <time>2018-02-26T10:03:15.644Z</time>
            </trkpt>
            <trkpt lon="101.000101" lat="12.882373">
                <ele>84.400000</ele>
                <time>2018-02-26T10:03:16.644Z</time>
            </trkpt>
            <trkpt lon="101.000053" lat="12.882397">
                <ele>84.300000</ele>
                <time>2018-02-26T10:03:17.644Z</time>
            </trkpt>
            <trkpt lon="101.000005" lat="12.882420">
                <ele>84.200000</ele>
                <time>2018-02-26T10:03:18.644Z</time>
            </trkpt>
            <trkpt lon="100.999959" lat="12.882442">
                <ele>84.100000</ele>
                <time>2018-02-26T10:03:19.644Z</time>
            </trkpt>
            <trkpt lon="100.999920" lat="12.882461">
                <ele>84.000000</ele>
                <time>2018-02-26T10:03:20.644Z</time>
            </trkpt>
            <trkpt lon="100.999882" lat="12.882480">
                <ele>83.800000</ele>
                <time>2018-02-26T10:03:21.644Z</time>
            </trkpt>
            <trkpt lon="100.999842" lat="12.882498">
                <ele>83.700000</ele>
                <time>2018-02-26T10:03:22.644Z</time>
            </trkpt>
            <trkpt lon="100.999801" lat="12.882517">
                <ele>83.600000</ele>
                <time>2018-02-26T10:03:23.644Z</time>
            </trkpt>
            <trkpt lon="100.999760" lat="12.882533">
                <ele>83.500000</ele>
                <time>2018-02-26T10:03:24.644Z</time>
            </trkpt>
            <trkpt lon="100.999717" lat="12.882553">
                <ele>83.400000</ele>
                <time>2018-02-26T10:03:25.644Z</time>
            </trkpt>
            <trkpt lon="100.999677" lat="12.882568">
                <ele>83.300000</ele>
                <time>2018-02-26T10:03:26.644Z</time>
            </trkpt>
            <trkpt lon="100.999634" lat="12.882585">
                <ele>83.200000</ele>
                <time>2018-02-26T10:03:27.644Z</time>
            </trkpt>
            <trkpt lon="100.999585" lat="12.882605">
                <ele>83.100000</ele>
                <time>2018-02-26T10:03:28.644Z</time>
            </trkpt>
            <trkpt lon="100.999532" lat="12.882631">
                <ele>82.900000</ele>
                <time>2018-02-26T10:03:29.644Z</time>
            </trkpt>
            <trkpt lon="100.999476" lat="12.882659">
                <ele>82.800000</ele>
                <time>2018-02-26T10:03:30.644Z</time>
            </trkpt>
            <trkpt lon="100.999425" lat="12.882692">
                <ele>82.700000</ele>
                <time>2018-02-26T10:03:31.644Z</time>
            </trkpt>
            <trkpt lon="100.999374" lat="12.882732">
                <ele>82.500000</ele>
                <time>2018-02-26T10:03:32.644Z</time>
            </trkpt>
            <trkpt lon="100.999322" lat="12.882777">
                <ele>82.400000</ele>
                <time>2018-02-26T10:03:33.644Z</time>
            </trkpt>
            <trkpt lon="100.999273" lat="12.882818">
                <ele>82.300000</ele>
                <time>2018-02-26T10:03:34.644Z</time>
            </trkpt>
            <trkpt lon="100.999220" lat="12.882855">
                <ele>82.200000</ele>
                <time>2018-02-26T10:03:35.644Z</time>
            </trkpt>
            <trkpt lon="100.999172" lat="12.882891">
                <ele>82.100000</ele>
                <time>2018-02-26T10:03:36.644Z</time>
            </trkpt>
            <trkpt lon="100.999124" lat="12.882925">
                <ele>81.900000</ele>
                <time>2018-02-26T10:03:37.644Z</time>
            </trkpt>
            <trkpt lon="100.999078" lat="12.882960">
                <ele>81.800000</ele>
                <time>2018-02-26T10:03:38.644Z</time>
            </trkpt>
            <trkpt lon="100.999034" lat="12.882997">
                <ele>81.700000</ele>
                <time>2018-02-26T10:03:39.644Z</time>
            </trkpt>
            <trkpt lon="100.998992" lat="12.883036">
                <ele>81.600000</ele>
                <time>2018-02-26T10:03:40.644Z</time>
            </trkpt>
            <trkpt lon="100.998950" lat="12.883075">
                <ele>81.400000</ele>
                <time>2018-02-26T10:03:41.644Z</time>
            </trkpt>
            <trkpt lon="100.998908" lat="12.883113">
                <ele>81.300000</ele>
                <time>2018-02-26T10:03:42.644Z</time>
            </trkpt>
            <trkpt lon="100.998862" lat="12.883153">
                <ele>81.200000</ele>
                <time>2018-02-26T10:03:43.644Z</time>
            </trkpt>
            <trkpt lon="100.998817" lat="12.883192">
                <ele>81.100000</ele>
                <time>2018-02-26T10:03:44.644Z</time>
            </trkpt>
            <trkpt lon="100.998772" lat="12.883228">
                <ele>81.000000</ele>
                <time>2018-02-26T10:03:45.644Z</time>
            </trkpt>
            <trkpt lon="100.998727" lat="12.883264">
                <ele>80.900000</ele>
                <time>2018-02-26T10:03:46.644Z</time>
            </trkpt>
            <trkpt lon="100.998680" lat="12.883302">
                <ele>80.800000</ele>
                <time>2018-02-26T10:03:47.644Z</time>
            </trkpt>
            <trkpt lon="100.998634" lat="12.883337">
                <ele>80.700000</ele>
                <time>2018-02-26T10:03:48.644Z</time>
            </trkpt>
            <trkpt lon="100.998586" lat="12.883372">
                <ele>80.600000</ele>
                <time>2018-02-26T10:03:49.644Z</time>
            </trkpt>
            <trkpt lon="100.998539" lat="12.883403">
                <ele>80.400000</ele>
                <time>2018-02-26T10:03:50.644Z</time>
            </trkpt>
            <trkpt lon="100.998486" lat="12.883424">
                <ele>80.300000</ele>
                <time>2018-02-26T10:03:51.644Z</time>
            </trkpt>
            <trkpt lon="100.998426" lat="12.883438">
                <ele>80.100000</ele>
                <time>2018-02-26T10:03:52.644Z</time>
            </trkpt>
            <trkpt lon="100.998366" lat="12.883448">
                <ele>80.000000</ele>
                <time>2018-02-26T10:03:53.644Z</time>
            </trkpt>
            <trkpt lon="100.998305" lat="12.883458">
                <ele>80.000000</ele>
                <time>2018-02-26T10:03:54.644Z</time>
            </trkpt>
            <trkpt lon="100.998238" lat="12.883455">
                <ele>79.800000</ele>
                <time>2018-02-26T10:03:55.644Z</time>
            </trkpt>
            <trkpt lon="100.998175" lat="12.883455">
                <ele>79.800000</ele>
                <time>2018-02-26T10:03:56.644Z</time>
            </trkpt>
            <trkpt lon="100.998112" lat="12.883458">
                <ele>79.600000</ele>
                <time>2018-02-26T10:03:57.644Z</time>
            </trkpt>
            <trkpt lon="100.998051" lat="12.883462">
                <ele>79.500000</ele>
                <time>2018-02-26T10:03:58.644Z</time>
            </trkpt>
            <trkpt lon="100.997989" lat="12.883467">
                <ele>79.400000</ele>
                <time>2018-02-26T10:03:59.644Z</time>
            </trkpt>
            <trkpt lon="100.997933" lat="12.883481">
                <ele>79.300000</ele>
                <time>2018-02-26T10:04:00.644Z</time>
            </trkpt>
            <trkpt lon="100.997877" lat="12.883501">
                <ele>79.100000</ele>
                <time>2018-02-26T10:04:01.644Z</time>
            </trkpt>
            <trkpt lon="100.997823" lat="12.883522">
                <ele>79.000000</ele>
                <time>2018-02-26T10:04:02.644Z</time>
            </trkpt>
            <trkpt lon="100.997770" lat="12.883546">
                <ele>78.900000</ele>
                <time>2018-02-26T10:04:03.644Z</time>
            </trkpt>
            <trkpt lon="100.997716" lat="12.883572">
                <ele>78.700000</ele>
                <time>2018-02-26T10:04:04.644Z</time>
            </trkpt>
            <trkpt lon="100.997663" lat="12.883603">
                <ele>78.600000</ele>
                <time>2018-02-26T10:04:05.644Z</time>
            </trkpt>
            <trkpt lon="100.997612" lat="12.883635">
                <ele>78.400000</ele>
                <time>2018-02-26T10:04:06.644Z</time>
            </trkpt>
            <trkpt lon="100.997564" lat="12.883666">
                <ele>78.300000</ele>
                <time>2018-02-26T10:04:07.644Z</time>
            </trkpt>
            <trkpt lon="100.997516" lat="12.883697">
                <ele>78.200000</ele>
                <time>2018-02-26T10:04:08.644Z</time>
            </trkpt>
            <trkpt lon="100.997464" lat="12.883730">
                <ele>78.100000</ele>
                <time>2018-02-26T10:04:09.644Z</time>
            </trkpt>
            <trkpt lon="100.997414" lat="12.883755">
                <ele>78.000000</ele>
                <time>2018-02-26T10:04:10.644Z</time>
            </trkpt>
            <trkpt lon="100.997366" lat="12.883777">
                <ele>78.000000</ele>
                <time>2018-02-26T10:04:11.644Z</time>
            </trkpt>
            <trkpt lon="100.997320" lat="12.883801">
                <ele>77.900000</ele>
                <time>2018-02-26T10:04:12.644Z</time>
            </trkpt>
            <trkpt lon="100.997275" lat="12.883829">
                <ele>77.900000</ele>
                <time>2018-02-26T10:04:13.644Z</time>
            </trkpt>
            <trkpt lon="100.997225" lat="12.883858">
                <ele>77.800000</ele>
                <time>2018-02-26T10:04:14.644Z</time>
            </trkpt>
            <trkpt lon="100.997180" lat="12.883884">
                <ele>77.800000</ele>
                <time>2018-02-26T10:04:15.644Z</time>
            </trkpt>
            <trkpt lon="100.997136" lat="12.883910">
                <ele>77.800000</ele>
                <time>2018-02-26T10:04:16.644Z</time>
            </trkpt>
            <trkpt lon="100.997092" lat="12.883940">
                <ele>77.700000</ele>
                <time>2018-02-26T10:04:17.644Z</time>
            </trkpt>
            <trkpt lon="100.997054" lat="12.883969">
                <ele>77.700000</ele>
                <time>2018-02-26T10:04:18.644Z</time>
            </trkpt>
            <trkpt lon="100.997021" lat="12.884001">
                <ele>77.700000</ele>
                <time>2018-02-26T10:04:19.644Z</time>
            </trkpt>
            <trkpt lon="100.996988" lat="12.884034">
                <ele>77.600000</ele>
                <time>2018-02-26T10:04:20.644Z</time>
            </trkpt>
            <trkpt lon="100.996959" lat="12.884068">
                <ele>77.600000</ele>
                <time>2018-02-26T10:04:21.644Z</time>
            </trkpt>
            <trkpt lon="100.996930" lat="12.884103">
                <ele>77.600000</ele>
                <time>2018-02-26T10:04:22.644Z</time>
            </trkpt>
            <trkpt lon="100.996914" lat="12.884136">
                <ele>77.600000</ele>
                <time>2018-02-26T10:04:23.644Z</time>
            </trkpt>
            <trkpt lon="100.996898" lat="12.884171">
                <ele>77.500000</ele>
                <time>2018-02-26T10:04:24.644Z</time>
            </trkpt>
            <trkpt lon="100.996885" lat="12.884203">
                <ele>77.500000</ele>
                <time>2018-02-26T10:04:25.644Z</time>
            </trkpt>
            <trkpt lon="100.996878" lat="12.884244">
                <ele>77.500000</ele>
                <time>2018-02-26T10:04:26.644Z</time>
            </trkpt>
            <trkpt lon="100.996880" lat="12.884287">
                <ele>77.500000</ele>
                <time>2018-02-26T10:04:27.644Z</time>
            </trkpt>
            <trkpt lon="100.996878" lat="12.884328">
                <ele>77.400000</ele>
                <time>2018-02-26T10:04:28.644Z</time>
            </trkpt>
            <trkpt lon="100.996876" lat="12.884371">
                <ele>77.400000</ele>
                <time>2018-02-26T10:04:29.644Z</time>
            </trkpt>
            <trkpt lon="100.996876" lat="12.884414">
                <ele>77.400000</ele>
                <time>2018-02-26T10:04:30.644Z</time>
            </trkpt>
            <trkpt lon="100.996874" lat="12.884459">
                <ele>77.300000</ele>
                <time>2018-02-26T10:04:31.644Z</time>
            </trkpt>
            <trkpt lon="100.996870" lat="12.884504">
                <ele>77.300000</ele>
                <time>2018-02-26T10:04:32.644Z</time>
            </trkpt>
            <trkpt lon="100.996865" lat="12.884549">
                <ele>77.200000</ele>
                <time>2018-02-26T10:04:33.644Z</time>
            </trkpt>
            <trkpt lon="100.996860" lat="12.884594">
                <ele>77.200000</ele>
                <time>2018-02-26T10:04:34.644Z</time>
            </trkpt>
            <trkpt lon="100.996855" lat="12.884644">
                <ele>77.100000</ele>
                <time>2018-02-26T10:04:35.644Z</time>
            </trkpt>
            <trkpt lon="100.996848" lat="12.884695">
                <ele>77.000000</ele>
                <time>2018-02-26T10:04:36.644Z</time>
            </trkpt>
            <trkpt lon="100.996844" lat="12.884742">
                <ele>77.000000</ele>
                <time>2018-02-26T10:04:37.644Z</time>
            </trkpt>
            <trkpt lon="100.996839" lat="12.884789">
                <ele>76.900000</ele>
                <time>2018-02-26T10:04:38.644Z</time>
            </trkpt>
            <trkpt lon="100.996827" lat="12.884834">
                <ele>76.800000</ele>
                <time>2018-02-26T10:04:39.644Z</time>
            </trkpt>
            <trkpt lon="100.996810" lat="12.884881">
                <ele>76.800000</ele>
                <time>2018-02-26T10:04:40.644Z</time>
            </trkpt>
            <trkpt lon="100.996788" lat="12.884925">
                <ele>76.700000</ele>
                <time>2018-02-26T10:04:41.644Z</time>
            </trkpt>
            <trkpt lon="100.996766" lat="12.884970">
                <ele>76.600000</ele>
                <time>2018-02-26T10:04:42.644Z</time>
            </trkpt>
            <trkpt lon="100.996745" lat="12.885016">
                <ele>76.500000</ele>
                <time>2018-02-26T10:04:43.644Z</time>
            </trkpt>
            <trkpt lon="100.996716" lat="12.885068">
                <ele>76.400000</ele>
                <time>2018-02-26T10:04:44.644Z</time>
            </trkpt>
            <trkpt lon="100.996674" lat="12.885105">
                <ele>76.200000</ele>
                <time>2018-02-26T10:04:45.644Z</time>
            </trkpt>
            <trkpt lon="100.996635" lat="12.885142">
                <ele>76.100000</ele>
                <time>2018-02-26T10:04:46.644Z</time>
            </trkpt>
            <trkpt lon="100.996585" lat="12.885177">
                <ele>75.900000</ele>
                <time>2018-02-26T10:04:47.644Z</time>
            </trkpt>
            <trkpt lon="100.996533" lat="12.885188">
                <ele>75.800000</ele>
                <time>2018-02-26T10:04:48.644Z</time>
            </trkpt>
            <trkpt lon="100.996474" lat="12.885196">
                <ele>75.600000</ele>
                <time>2018-02-26T10:04:49.644Z</time>
            </trkpt>
            <trkpt lon="100.996414" lat="12.885210">
                <ele>75.400000</ele>
                <time>2018-02-26T10:04:50.644Z</time>
            </trkpt>
            <trkpt lon="100.996357" lat="12.885226">
                <ele>75.300000</ele>
                <time>2018-02-26T10:04:51.644Z</time>
            </trkpt>
            <trkpt lon="100.996296" lat="12.885241">
                <ele>75.200000</ele>
                <time>2018-02-26T10:04:52.644Z</time>
            </trkpt>
            <trkpt lon="100.996235" lat="12.885253">
                <ele>75.000000</ele>
                <time>2018-02-26T10:04:53.644Z</time>
            </trkpt>
            <trkpt lon="100.996169" lat="12.885266">
                <ele>74.800000</ele>
                <time>2018-02-26T10:04:54.644Z</time>
            </trkpt>
            <trkpt lon="100.996106" lat="12.885280">
                <ele>74.700000</ele>
                <time>2018-02-26T10:04:55.644Z</time>
            </trkpt>
            <trkpt lon="100.996039" lat="12.885297">
                <ele>74.400000</ele>
                <time>2018-02-26T10:04:56.644Z</time>
            </trkpt>
            <trkpt lon="100.995977" lat="12.885313">
                <ele>74.200000</ele>
                <time>2018-02-26T10:04:57.644Z</time>
            </trkpt>
            <trkpt lon="100.995917" lat="12.885324">
                <ele>74.000000</ele>
                <time>2018-02-26T10:04:58.644Z</time>
            </trkpt>
            <trkpt lon="100.995853" lat="12.885336">
                <ele>73.900000</ele>
                <time>2018-02-26T10:04:59.644Z</time>
            </trkpt>
            <trkpt lon="100.995793" lat="12.885348">
                <ele>73.700000</ele>
                <time>2018-02-26T10:05:00.644Z</time>
            </trkpt>
            <trkpt lon="100.995731" lat="12.885357">
                <ele>73.600000</ele>
                <time>2018-02-26T10:05:01.644Z</time>
            </trkpt>
            <trkpt lon="100.995670" lat="12.885359">
                <ele>73.400000</ele>
                <time>2018-02-26T10:05:02.644Z</time>
            </trkpt>
            <trkpt lon="100.995612" lat="12.885362">
                <ele>73.200000</ele>
                <time>2018-02-26T10:05:03.644Z</time>
            </trkpt>
            <trkpt lon="100.995554" lat="12.885365">
                <ele>73.100000</ele>
                <time>2018-02-26T10:05:04.644Z</time>
            </trkpt>
            <trkpt lon="100.995499" lat="12.885368">
                <ele>73.000000</ele>
                <time>2018-02-26T10:05:05.644Z</time>
            </trkpt>
            <trkpt lon="100.995438" lat="12.885374">
                <ele>72.800000</ele>
                <time>2018-02-26T10:05:06.644Z</time>
            </trkpt>
            <trkpt lon="100.995379" lat="12.885388">
                <ele>72.700000</ele>
                <time>2018-02-26T10:05:07.644Z</time>
            </trkpt>
            <trkpt lon="100.995322" lat="12.885408">
                <ele>72.600000</ele>
                <time>2018-02-26T10:05:08.644Z</time>
            </trkpt>
            <trkpt lon="100.995269" lat="12.885426">
                <ele>72.500000</ele>
                <time>2018-02-26T10:05:09.644Z</time>
            </trkpt>
            <trkpt lon="100.995223" lat="12.885441">
                <ele>72.400000</ele>
                <time>2018-02-26T10:05:10.644Z</time>
            </trkpt>
            <trkpt lon="100.995172" lat="12.885458">
                <ele>72.100000</ele>
                <time>2018-02-26T10:05:11.644Z</time>
            </trkpt>
            <trkpt lon="100.995117" lat="12.885475">
                <ele>72.000000</ele>
                <time>2018-02-26T10:05:12.644Z</time>
            </trkpt>
            <trkpt lon="100.995065" lat="12.885491">
                <ele>71.900000</ele>
                <time>2018-02-26T10:05:13.644Z</time>
            </trkpt>
            <trkpt lon="100.995015" lat="12.885506">
                <ele>71.800000</ele>
                <time>2018-02-26T10:05:14.644Z</time>
            </trkpt>
            <trkpt lon="100.994962" lat="12.885523">
                <ele>71.600000</ele>
                <time>2018-02-26T10:05:15.644Z</time>
            </trkpt>
            <trkpt lon="100.994904" lat="12.885543">
                <ele>71.500000</ele>
                <time>2018-02-26T10:05:16.644Z</time>
            </trkpt>
            <trkpt lon="100.994840" lat="12.885562">
                <ele>71.300000</ele>
                <time>2018-02-26T10:05:17.644Z</time>
            </trkpt>
            <trkpt lon="100.994761" lat="12.885582">
                <ele>71.000000</ele>
                <time>2018-02-26T10:05:18.644Z</time>
            </trkpt>
            <trkpt lon="100.994679" lat="12.885604">
                <ele>70.800000</ele>
                <time>2018-02-26T10:05:19.644Z</time>
            </trkpt>
            <trkpt lon="100.994604" lat="12.885625">
                <ele>70.500000</ele>
                <time>2018-02-26T10:05:20.644Z</time>
            </trkpt>
            <trkpt lon="100.994538" lat="12.885644">
                <ele>70.300000</ele>
                <time>2018-02-26T10:05:21.644Z</time>
            </trkpt>
            <trkpt lon="100.994475" lat="12.885663">
                <ele>70.100000</ele>
                <time>2018-02-26T10:05:22.644Z</time>
            </trkpt>
            <trkpt lon="100.994414" lat="12.885681">
                <ele>69.900000</ele>
                <time>2018-02-26T10:05:23.644Z</time>
            </trkpt>
            <trkpt lon="100.994353" lat="12.885700">
                <ele>69.700000</ele>
                <time>2018-02-26T10:05:24.644Z</time>
            </trkpt>
            <trkpt lon="100.994290" lat="12.885716">
                <ele>69.600000</ele>
                <time>2018-02-26T10:05:25.644Z</time>
            </trkpt>
            <trkpt lon="100.994227" lat="12.885734">
                <ele>69.400000</ele>
                <time>2018-02-26T10:05:26.644Z</time>
            </trkpt>
            <trkpt lon="100.994163" lat="12.885753">
                <ele>69.200000</ele>
                <time>2018-02-26T10:05:27.644Z</time>
            </trkpt>
            <trkpt lon="100.994098" lat="12.885770">
                <ele>69.000000</ele>
                <time>2018-02-26T10:05:28.644Z</time>
            </trkpt>
            <trkpt lon="100.994026" lat="12.885790">
                <ele>68.700000</ele>
                <time>2018-02-26T10:05:29.644Z</time>
            </trkpt>
            <trkpt lon="100.993961" lat="12.885807">
                <ele>68.500000</ele>
                <time>2018-02-26T10:05:30.644Z</time>
            </trkpt>
            <trkpt lon="100.993897" lat="12.885823">
                <ele>68.300000</ele>
                <time>2018-02-26T10:05:31.644Z</time>
            </trkpt>
            <trkpt lon="100.993833" lat="12.885834">
                <ele>68.100000</ele>
                <time>2018-02-26T10:05:32.644Z</time>
            </trkpt>
            <trkpt lon="100.993772" lat="12.885847">
                <ele>67.900000</ele>
                <time>2018-02-26T10:05:33.644Z</time>
            </trkpt>
            <trkpt lon="100.993715" lat="12.885862">
                <ele>67.700000</ele>
                <time>2018-02-26T10:05:34.644Z</time>
            </trkpt>
            <trkpt lon="100.993661" lat="12.885878">
                <ele>67.600000</ele>
                <time>2018-02-26T10:05:35.644Z</time>
            </trkpt>
            <trkpt lon="100.993605" lat="12.885896">
                <ele>67.500000</ele>
                <time>2018-02-26T10:05:36.644Z</time>
            </trkpt>
            <trkpt lon="100.993547" lat="12.885908">
                <ele>67.400000</ele>
                <time>2018-02-26T10:05:37.644Z</time>
            </trkpt>
            <trkpt lon="100.993480" lat="12.885927">
                <ele>67.300000</ele>
                <time>2018-02-26T10:05:38.644Z</time>
            </trkpt>
            <trkpt lon="100.993415" lat="12.885943">
                <ele>67.100000</ele>
                <time>2018-02-26T10:05:39.644Z</time>
            </trkpt>
            <trkpt lon="100.993354" lat="12.885963">
                <ele>67.000000</ele>
                <time>2018-02-26T10:05:40.644Z</time>
            </trkpt>
            <trkpt lon="100.993292" lat="12.885985">
                <ele>66.900000</ele>
                <time>2018-02-26T10:05:41.644Z</time>
            </trkpt>
            <trkpt lon="100.993230" lat="12.886011">
                <ele>66.800000</ele>
                <time>2018-02-26T10:05:42.644Z</time>
            </trkpt>
            <trkpt lon="100.993168" lat="12.886033">
                <ele>66.700000</ele>
                <time>2018-02-26T10:05:43.644Z</time>
            </trkpt>
            <trkpt lon="100.993108" lat="12.886055">
                <ele>66.500000</ele>
                <time>2018-02-26T10:05:44.644Z</time>
            </trkpt>
            <trkpt lon="100.993051" lat="12.886076">
                <ele>66.400000</ele>
                <time>2018-02-26T10:05:45.644Z</time>
            </trkpt>
            <trkpt lon="100.992990" lat="12.886101">
                <ele>66.300000</ele>
                <time>2018-02-26T10:05:46.644Z</time>
            </trkpt>
            <trkpt lon="100.992930" lat="12.886124">
                <ele>66.200000</ele>
                <time>2018-02-26T10:05:47.644Z</time>
            </trkpt>
            <trkpt lon="100.992876" lat="12.886144">
                <ele>66.000000</ele>
                <time>2018-02-26T10:05:48.644Z</time>
            </trkpt>
            <trkpt lon="100.992818" lat="12.886163">
                <ele>65.900000</ele>
                <time>2018-02-26T10:05:49.644Z</time>
            </trkpt>
            <trkpt lon="100.992758" lat="12.886184">
                <ele>65.700000</ele>
                <time>2018-02-26T10:05:50.644Z</time>
            </trkpt>
            <trkpt lon="100.992696" lat="12.886204">
                <ele>65.600000</ele>
                <time>2018-02-26T10:05:51.644Z</time>
            </trkpt>
            <trkpt lon="100.992631" lat="12.886225">
                <ele>65.500000</ele>
                <time>2018-02-26T10:05:52.644Z</time>
            </trkpt>
            <trkpt lon="100.992572" lat="12.886241">
                <ele>65.400000</ele>
                <time>2018-02-26T10:05:53.644Z</time>
            </trkpt>
            <trkpt lon="100.992514" lat="12.886249">
                <ele>65.300000</ele>
                <time>2018-02-26T10:05:54.644Z</time>
            </trkpt>
            <trkpt lon="100.992454" lat="12.886259">
                <ele>65.100000</ele>
                <time>2018-02-26T10:05:55.644Z</time>
            </trkpt>
            <trkpt lon="100.992397" lat="12.886266">
                <ele>65.100000</ele>
                <time>2018-02-26T10:05:56.644Z</time>
            </trkpt>
            <trkpt lon="100.992335" lat="12.886274">
                <ele>65.000000</ele>
                <time>2018-02-26T10:05:57.644Z</time>
            </trkpt>
            <trkpt lon="100.992279" lat="12.886283">
                <ele>64.900000</ele>
                <time>2018-02-26T10:05:58.644Z</time>
            </trkpt>
            <trkpt lon="100.992221" lat="12.886292">
                <ele>64.800000</ele>
                <time>2018-02-26T10:05:59.644Z</time>
            </trkpt>
            <trkpt lon="100.992161" lat="12.886300">
                <ele>64.800000</ele>
                <time>2018-02-26T10:06:00.644Z</time>
            </trkpt>
            <trkpt lon="100.992101" lat="12.886308">
                <ele>64.700000</ele>
                <time>2018-02-26T10:06:01.644Z</time>
            </trkpt>
            <trkpt lon="100.992040" lat="12.886318">
                <ele>64.600000</ele>
                <time>2018-02-26T10:06:02.644Z</time>
            </trkpt>
            <trkpt lon="100.991981" lat="12.886331">
                <ele>64.500000</ele>
                <time>2018-02-26T10:06:03.644Z</time>
            </trkpt>
            <trkpt lon="100.991922" lat="12.886346">
                <ele>64.400000</ele>
                <time>2018-02-26T10:06:04.644Z</time>
            </trkpt>
            <trkpt lon="100.991865" lat="12.886357">
                <ele>64.400000</ele>
                <time>2018-02-26T10:06:05.644Z</time>
            </trkpt>
            <trkpt lon="100.991808" lat="12.886369">
                <ele>64.300000</ele>
                <time>2018-02-26T10:06:06.644Z</time>
            </trkpt>
            <trkpt lon="100.991744" lat="12.886379">
                <ele>64.300000</ele>
                <time>2018-02-26T10:06:07.644Z</time>
            </trkpt>
            <trkpt lon="100.991680" lat="12.886389">
                <ele>64.200000</ele>
                <time>2018-02-26T10:06:08.644Z</time>
            </trkpt>
            <trkpt lon="100.991619" lat="12.886399">
                <ele>64.200000</ele>
                <time>2018-02-26T10:06:09.644Z</time>
            </trkpt>
            <trkpt lon="100.991563" lat="12.886400">
                <ele>64.200000</ele>
                <time>2018-02-26T10:06:10.644Z</time>
            </trkpt>
            <trkpt lon="100.991511" lat="12.886401">
                <ele>64.100000</ele>
                <time>2018-02-26T10:06:11.644Z</time>
            </trkpt>
            <trkpt lon="100.991457" lat="12.886402">
                <ele>64.100000</ele>
                <time>2018-02-26T10:06:12.644Z</time>
            </trkpt>
            <trkpt lon="100.991405" lat="12.886407">
                <ele>64.000000</ele>
                <time>2018-02-26T10:06:13.644Z</time>
            </trkpt>
            <trkpt lon="100.991354" lat="12.886415">
                <ele>64.000000</ele>
                <time>2018-02-26T10:06:14.644Z</time>
            </trkpt>
            <trkpt lon="100.991300" lat="12.886419">
                <ele>63.900000</ele>
                <time>2018-02-26T10:06:15.644Z</time>
            </trkpt>
            <trkpt lon="100.991244" lat="12.886422">
                <ele>63.800000</ele>
                <time>2018-02-26T10:06:16.644Z</time>
            </trkpt>
            <trkpt lon="100.991188" lat="12.886423">
                <ele>63.700000</ele>
                <time>2018-02-26T10:06:17.644Z</time>
            </trkpt>
            <trkpt lon="100.991124" lat="12.886424">
                <ele>63.600000</ele>
                <time>2018-02-26T10:06:18.644Z</time>
            </trkpt>
            <trkpt lon="100.991054" lat="12.886419">
                <ele>63.600000</ele>
                <time>2018-02-26T10:06:19.644Z</time>
            </trkpt>
            <trkpt lon="100.990982" lat="12.886417">
                <ele>63.500000</ele>
                <time>2018-02-26T10:06:20.644Z</time>
            </trkpt>
            <trkpt lon="100.990910" lat="12.886415">
                <ele>63.400000</ele>
                <time>2018-02-26T10:06:21.644Z</time>
            </trkpt>
            <trkpt lon="100.990840" lat="12.886414">
                <ele>63.300000</ele>
                <time>2018-02-26T10:06:22.644Z</time>
            </trkpt>
            <trkpt lon="100.990768" lat="12.886412">
                <ele>63.200000</ele>
                <time>2018-02-26T10:06:23.644Z</time>
            </trkpt>
            <trkpt lon="100.990695" lat="12.886409">
                <ele>63.100000</ele>
                <time>2018-02-26T10:06:24.644Z</time>
            </trkpt>
            <trkpt lon="100.990626" lat="12.886403">
                <ele>63.000000</ele>
                <time>2018-02-26T10:06:25.644Z</time>
            </trkpt>
            <trkpt lon="100.990556" lat="12.886401">
                <ele>63.000000</ele>
                <time>2018-02-26T10:06:26.644Z</time>
            </trkpt>
            <trkpt lon="100.990490" lat="12.886401">
                <ele>62.900000</ele>
                <time>2018-02-26T10:06:27.644Z</time>
            </trkpt>
            <trkpt lon="100.990424" lat="12.886406">
                <ele>62.800000</ele>
                <time>2018-02-26T10:06:28.644Z</time>
            </trkpt>
            <trkpt lon="100.990360" lat="12.886407">
                <ele>62.700000</ele>
                <time>2018-02-26T10:06:29.644Z</time>
            </trkpt>
            <trkpt lon="100.990299" lat="12.886401">
                <ele>62.600000</ele>
                <time>2018-02-26T10:06:30.644Z</time>
            </trkpt>
            <trkpt lon="100.990238" lat="12.886396">
                <ele>62.600000</ele>
                <time>2018-02-26T10:06:31.644Z</time>
            </trkpt>
            <trkpt lon="100.990179" lat="12.886392">
                <ele>62.500000</ele>
                <time>2018-02-26T10:06:32.644Z</time>
            </trkpt>
            <trkpt lon="100.990120" lat="12.886388">
                <ele>62.500000</ele>
                <time>2018-02-26T10:06:33.644Z</time>
            </trkpt>
            <trkpt lon="100.990050" lat="12.886385">
                <ele>62.400000</ele>
                <time>2018-02-26T10:06:34.644Z</time>
            </trkpt>
            <trkpt lon="100.989985" lat="12.886382">
                <ele>62.300000</ele>
                <time>2018-02-26T10:06:35.644Z</time>
            </trkpt>
            <trkpt lon="100.989925" lat="12.886380">
                <ele>62.300000</ele>
                <time>2018-02-26T10:06:36.644Z</time>
            </trkpt>
            <trkpt lon="100.989852" lat="12.886378">
                <ele>62.200000</ele>
                <time>2018-02-26T10:06:37.644Z</time>
            </trkpt>
            <trkpt lon="100.989784" lat="12.886373">
                <ele>62.000000</ele>
                <time>2018-02-26T10:06:38.644Z</time>
            </trkpt>
            <trkpt lon="100.989714" lat="12.886369">
                <ele>62.000000</ele>
                <time>2018-02-26T10:06:39.644Z</time>
            </trkpt>
            <trkpt lon="100.989647" lat="12.886366">
                <ele>61.900000</ele>
                <time>2018-02-26T10:06:40.644Z</time>
            </trkpt>
            <trkpt lon="100.989583" lat="12.886365">
                <ele>61.800000</ele>
                <time>2018-02-26T10:06:41.644Z</time>
            </trkpt>
            <trkpt lon="100.989520" lat="12.886364">
                <ele>61.700000</ele>
                <time>2018-02-26T10:06:42.644Z</time>
            </trkpt>
            <trkpt lon="100.989459" lat="12.886364">
                <ele>61.600000</ele>
                <time>2018-02-26T10:06:43.644Z</time>
            </trkpt>
            <trkpt lon="100.989395" lat="12.886367">
                <ele>61.500000</ele>
                <time>2018-02-26T10:06:44.644Z</time>
            </trkpt>
            <trkpt lon="100.989331" lat="12.886369">
                <ele>61.300000</ele>
                <time>2018-02-26T10:06:45.644Z</time>
            </trkpt>
            <trkpt lon="100.989269" lat="12.886370">
                <ele>61.200000</ele>
                <time>2018-02-26T10:06:46.644Z</time>
            </trkpt>
            <trkpt lon="100.989206" lat="12.886373">
                <ele>61.100000</ele>
                <time>2018-02-26T10:06:47.644Z</time>
            </trkpt>
            <trkpt lon="100.989142" lat="12.886376">
                <ele>61.000000</ele>
                <time>2018-02-26T10:06:48.644Z</time>
            </trkpt>
            <trkpt lon="100.989080" lat="12.886377">
                <ele>61.000000</ele>
                <time>2018-02-26T10:06:49.644Z</time>
            </trkpt>
            <trkpt lon="100.989014" lat="12.886379">
                <ele>60.900000</ele>
                <time>2018-02-26T10:06:50.644Z</time>
            </trkpt>
            <trkpt lon="100.988948" lat="12.886379">
                <ele>60.800000</ele>
                <time>2018-02-26T10:06:51.644Z</time>
            </trkpt>
            <trkpt lon="100.988883" lat="12.886380">
                <ele>60.700000</ele>
                <time>2018-02-26T10:06:52.644Z</time>
            </trkpt>
            <trkpt lon="100.988816" lat="12.886384">
                <ele>60.500000</ele>
                <time>2018-02-26T10:06:53.644Z</time>
            </trkpt>
            <trkpt lon="100.988755" lat="12.886386">
                <ele>60.400000</ele>
                <time>2018-02-26T10:06:54.644Z</time>
            </trkpt>
            <trkpt lon="100.988695" lat="12.886387">
                <ele>60.300000</ele>
                <time>2018-02-26T10:06:55.644Z</time>
            </trkpt>
            <trkpt lon="100.988641" lat="12.886388">
                <ele>60.200000</ele>
                <time>2018-02-26T10:06:56.644Z</time>
            </trkpt>
            <trkpt lon="100.988600" lat="12.886386">
                <ele>60.200000</ele>
                <time>2018-02-26T10:06:57.644Z</time>
            </trkpt>
            <trkpt lon="100.988552" lat="12.886387">
                <ele>60.100000</ele>
                <time>2018-02-26T10:07:14.644Z</time>
            </trkpt>
            <trkpt lon="100.988522" lat="12.886363">
                <ele>60.000000</ele>
                <time>2018-02-26T10:07:16.644Z</time>
            </trkpt>
            <trkpt lon="100.988529" lat="12.886328">
                <ele>60.000000</ele>
                <time>2018-02-26T10:07:19.644Z</time>
            </trkpt>
            <trkpt lon="100.988550" lat="12.886300">
                <ele>60.000000</ele>
                <time>2018-02-26T10:07:22.644Z</time>
            </trkpt>
            <trkpt lon="100.988568" lat="12.886267">
                <ele>60.000000</ele>
                <time>2018-02-26T10:07:25.644Z</time>
            </trkpt>
            <trkpt lon="100.988586" lat="12.886244">
                <ele>60.000000</ele>
                <time>2018-02-26T10:07:27.644Z</time>
            </trkpt>
            <trkpt lon="100.988610" lat="12.886218">
                <ele>60.000000</ele>
                <time>2018-02-26T10:07:29.644Z</time>
            </trkpt>
            <trkpt lon="100.988640" lat="12.886175">
                <ele>60.000000</ele>
                <time>2018-02-26T10:07:31.644Z</time>
            </trkpt>
            <trkpt lon="100.988666" lat="12.886136">
                <ele>60.000000</ele>
                <time>2018-02-26T10:07:33.644Z</time>
            </trkpt>
            <trkpt lon="100.988682" lat="12.886111">
                <ele>60.000000</ele>
                <time>2018-02-26T10:07:34.644Z</time>
            </trkpt>
            <trkpt lon="100.988698" lat="12.886086">
                <ele>60.000000</ele>
                <time>2018-02-26T10:07:35.644Z</time>
            </trkpt>
            <trkpt lon="100.988714" lat="12.886057">
                <ele>60.000000</ele>
                <time>2018-02-26T10:07:36.644Z</time>
            </trkpt>
            <trkpt lon="100.988729" lat="12.886027">
                <ele>60.000000</ele>
                <time>2018-02-26T10:07:37.644Z</time>
            </trkpt>
            <trkpt lon="100.988743" lat="12.885999">
                <ele>60.000000</ele>
                <time>2018-02-26T10:07:38.644Z</time>
            </trkpt>
            <trkpt lon="100.988754" lat="12.885973">
                <ele>60.000000</ele>
                <time>2018-02-26T10:07:39.644Z</time>
            </trkpt>
            <trkpt lon="100.988767" lat="12.885946">
                <ele>60.000000</ele>
                <time>2018-02-26T10:07:40.644Z</time>
            </trkpt>
            <trkpt lon="100.988780" lat="12.885921">
                <ele>60.000000</ele>
                <time>2018-02-26T10:07:41.644Z</time>
            </trkpt>
            <trkpt lon="100.988796" lat="12.885895">
                <ele>60.000000</ele>
                <time>2018-02-26T10:07:42.644Z</time>
            </trkpt>
            <trkpt lon="100.988811" lat="12.885869">
                <ele>60.000000</ele>
                <time>2018-02-26T10:07:43.644Z</time>
            </trkpt>
            <trkpt lon="100.988828" lat="12.885839">
                <ele>60.000000</ele>
                <time>2018-02-26T10:07:44.644Z</time>
            </trkpt>
            <trkpt lon="100.988844" lat="12.885807">
                <ele>60.000000</ele>
                <time>2018-02-26T10:07:45.644Z</time>
            </trkpt>
            <trkpt lon="100.988863" lat="12.885777">
                <ele>60.000000</ele>
                <time>2018-02-26T10:07:46.644Z</time>
            </trkpt>
            <trkpt lon="100.988883" lat="12.885748">
                <ele>60.000000</ele>
                <time>2018-02-26T10:07:47.644Z</time>
            </trkpt>
            <trkpt lon="100.988903" lat="12.885719">
                <ele>60.000000</ele>
                <time>2018-02-26T10:07:48.644Z</time>
            </trkpt>
            <trkpt lon="100.988919" lat="12.885694">
                <ele>60.000000</ele>
                <time>2018-02-26T10:07:49.644Z</time>
            </trkpt>
            <trkpt lon="100.988937" lat="12.885667">
                <ele>60.000000</ele>
                <time>2018-02-26T10:07:50.644Z</time>
            </trkpt>
            <trkpt lon="100.988958" lat="12.885640">
                <ele>60.100000</ele>
                <time>2018-02-26T10:07:51.644Z</time>
            </trkpt>
            <trkpt lon="100.988976" lat="12.885611">
                <ele>60.100000</ele>
                <time>2018-02-26T10:07:52.644Z</time>
            </trkpt>
            <trkpt lon="100.988992" lat="12.885579">
                <ele>60.100000</ele>
                <time>2018-02-26T10:07:53.644Z</time>
            </trkpt>
            <trkpt lon="100.989006" lat="12.885548">
                <ele>60.100000</ele>
                <time>2018-02-26T10:07:54.644Z</time>
            </trkpt>
            <trkpt lon="100.989023" lat="12.885517">
                <ele>60.100000</ele>
                <time>2018-02-26T10:07:55.644Z</time>
            </trkpt>
            <trkpt lon="100.989040" lat="12.885486">
                <ele>60.200000</ele>
                <time>2018-02-26T10:07:56.644Z</time>
            </trkpt>
            <trkpt lon="100.989058" lat="12.885455">
                <ele>60.200000</ele>
                <time>2018-02-26T10:07:57.644Z</time>
            </trkpt>
            <trkpt lon="100.989079" lat="12.885424">
                <ele>60.200000</ele>
                <time>2018-02-26T10:07:58.644Z</time>
            </trkpt>
            <trkpt lon="100.989099" lat="12.885390">
                <ele>60.200000</ele>
                <time>2018-02-26T10:07:59.644Z</time>
            </trkpt>
            <trkpt lon="100.989117" lat="12.885356">
                <ele>60.300000</ele>
                <time>2018-02-26T10:08:00.644Z</time>
            </trkpt>
            <trkpt lon="100.989129" lat="12.885321">
                <ele>60.300000</ele>
                <time>2018-02-26T10:08:01.644Z</time>
            </trkpt>
            <trkpt lon="100.989146" lat="12.885288">
                <ele>60.300000</ele>
                <time>2018-02-26T10:08:02.644Z</time>
            </trkpt>
            <trkpt lon="100.989163" lat="12.885259">
                <ele>60.300000</ele>
                <time>2018-02-26T10:08:03.644Z</time>
            </trkpt>
            <trkpt lon="100.989184" lat="12.885228">
                <ele>60.400000</ele>
                <time>2018-02-26T10:08:04.644Z</time>
            </trkpt>
            <trkpt lon="100.989202" lat="12.885199">
                <ele>60.400000</ele>
                <time>2018-02-26T10:08:05.644Z</time>
            </trkpt>
            <trkpt lon="100.989220" lat="12.885170">
                <ele>60.400000</ele>
                <time>2018-02-26T10:08:06.644Z</time>
            </trkpt>
            <trkpt lon="100.989239" lat="12.885142">
                <ele>60.400000</ele>
                <time>2018-02-26T10:08:07.644Z</time>
            </trkpt>
            <trkpt lon="100.989255" lat="12.885115">
                <ele>60.500000</ele>
                <time>2018-02-26T10:08:08.644Z</time>
            </trkpt>
            <trkpt lon="100.989271" lat="12.885090">
                <ele>60.500000</ele>
                <time>2018-02-26T10:08:09.644Z</time>
            </trkpt>
            <trkpt lon="100.989286" lat="12.885065">
                <ele>60.500000</ele>
                <time>2018-02-26T10:08:10.644Z</time>
            </trkpt>
            <trkpt lon="100.989303" lat="12.885042">
                <ele>60.600000</ele>
                <time>2018-02-26T10:08:11.644Z</time>
            </trkpt>
            <trkpt lon="100.989321" lat="12.885019">
                <ele>60.600000</ele>
                <time>2018-02-26T10:08:12.644Z</time>
            </trkpt>
            <trkpt lon="100.989341" lat="12.884996">
                <ele>60.700000</ele>
                <time>2018-02-26T10:08:13.644Z</time>
            </trkpt>
            <trkpt lon="100.989359" lat="12.884973">
                <ele>60.700000</ele>
                <time>2018-02-26T10:08:14.644Z</time>
            </trkpt>
            <trkpt lon="100.989390" lat="12.884938">
                <ele>60.800000</ele>
                <time>2018-02-26T10:08:16.644Z</time>
            </trkpt>
            <trkpt lon="100.989406" lat="12.884907">
                <ele>60.800000</ele>
                <time>2018-02-26T10:08:20.644Z</time>
            </trkpt>
            <trkpt lon="100.989423" lat="12.884864">
                <ele>60.900000</ele>
                <time>2018-02-26T10:08:22.644Z</time>
            </trkpt>
            <trkpt lon="100.989437" lat="12.884840">
                <ele>60.900000</ele>
                <time>2018-02-26T10:08:23.644Z</time>
            </trkpt>
            <trkpt lon="100.989454" lat="12.884813">
                <ele>61.000000</ele>
                <time>2018-02-26T10:08:24.644Z</time>
            </trkpt>
            <trkpt lon="100.989469" lat="12.884787">
                <ele>61.100000</ele>
                <time>2018-02-26T10:08:25.644Z</time>
            </trkpt>
            <trkpt lon="100.989484" lat="12.884760">
                <ele>61.100000</ele>
                <time>2018-02-26T10:08:26.644Z</time>
            </trkpt>
            <trkpt lon="100.989498" lat="12.884733">
                <ele>61.200000</ele>
                <time>2018-02-26T10:08:27.644Z</time>
            </trkpt>
            <trkpt lon="100.989510" lat="12.884703">
                <ele>61.300000</ele>
                <time>2018-02-26T10:08:28.644Z</time>
            </trkpt>
            <trkpt lon="100.989518" lat="12.884676">
                <ele>61.400000</ele>
                <time>2018-02-26T10:08:29.644Z</time>
            </trkpt>
            <trkpt lon="100.989525" lat="12.884648">
                <ele>61.500000</ele>
                <time>2018-02-26T10:08:30.644Z</time>
            </trkpt>
            <trkpt lon="100.989525" lat="12.884621">
                <ele>61.600000</ele>
                <time>2018-02-26T10:08:31.644Z</time>
            </trkpt>
            <trkpt lon="100.989517" lat="12.884592">
                <ele>61.600000</ele>
                <time>2018-02-26T10:08:39.644Z</time>
            </trkpt>
            <trkpt lon="100.989500" lat="12.884557">
                <ele>61.700000</ele>
                <time>2018-02-26T10:08:41.644Z</time>
            </trkpt>
            <trkpt lon="100.989469" lat="12.884516">
                <ele>61.800000</ele>
                <time>2018-02-26T10:08:43.644Z</time>
            </trkpt>
            <trkpt lon="100.989448" lat="12.884493">
                <ele>62.100000</ele>
                <time>2018-02-26T10:08:44.644Z</time>
            </trkpt>
            <trkpt lon="100.989424" lat="12.884472">
                <ele>62.300000</ele>
                <time>2018-02-26T10:08:45.644Z</time>
            </trkpt>
            <trkpt lon="100.989399" lat="12.884450">
                <ele>62.400000</ele>
                <time>2018-02-26T10:08:46.644Z</time>
            </trkpt>
            <trkpt lon="100.989373" lat="12.884424">
                <ele>62.600000</ele>
                <time>2018-02-26T10:08:47.644Z</time>
            </trkpt>
            <trkpt lon="100.989346" lat="12.884396">
                <ele>62.700000</ele>
                <time>2018-02-26T10:08:48.644Z</time>
            </trkpt>
            <trkpt lon="100.989320" lat="12.884370">
                <ele>62.700000</ele>
                <time>2018-02-26T10:08:49.644Z</time>
            </trkpt>
            <trkpt lon="100.989295" lat="12.884342">
                <ele>62.700000</ele>
                <time>2018-02-26T10:08:50.644Z</time>
            </trkpt>
            <trkpt lon="100.989266" lat="12.884312">
                <ele>62.400000</ele>
                <time>2018-02-26T10:08:51.644Z</time>
            </trkpt>
            <trkpt lon="100.989237" lat="12.884283">
                <ele>62.200000</ele>
                <time>2018-02-26T10:08:52.644Z</time>
            </trkpt>
            <trkpt lon="100.989209" lat="12.884254">
                <ele>62.200000</ele>
                <time>2018-02-26T10:08:53.644Z</time>
            </trkpt>
            <trkpt lon="100.989177" lat="12.884225">
                <ele>62.000000</ele>
                <time>2018-02-26T10:08:54.644Z</time>
            </trkpt>
            <trkpt lon="100.989144" lat="12.884200">
                <ele>61.800000</ele>
                <time>2018-02-26T10:08:55.644Z</time>
            </trkpt>
            <trkpt lon="100.989108" lat="12.884178">
                <ele>61.600000</ele>
                <time>2018-02-26T10:08:56.644Z</time>
            </trkpt>
            <trkpt lon="100.989071" lat="12.884158">
                <ele>61.400000</ele>
                <time>2018-02-26T10:08:57.644Z</time>
            </trkpt>
            <trkpt lon="100.989032" lat="12.884140">
                <ele>61.400000</ele>
                <time>2018-02-26T10:08:58.644Z</time>
            </trkpt>
            <trkpt lon="100.988996" lat="12.884121">
                <ele>61.200000</ele>
                <time>2018-02-26T10:08:59.644Z</time>
            </trkpt>
            <trkpt lon="100.988955" lat="12.884104">
                <ele>61.000000</ele>
                <time>2018-02-26T10:09:00.644Z</time>
            </trkpt>
            <trkpt lon="100.988909" lat="12.884086">
                <ele>61.000000</ele>
                <time>2018-02-26T10:09:01.644Z</time>
            </trkpt>
            <trkpt lon="100.988861" lat="12.884068">
                <ele>61.100000</ele>
                <time>2018-02-26T10:09:02.644Z</time>
            </trkpt>
            <trkpt lon="100.988821" lat="12.884048">
                <ele>61.100000</ele>
                <time>2018-02-26T10:09:03.644Z</time>
            </trkpt>
            <trkpt lon="100.988783" lat="12.884024">
                <ele>61.100000</ele>
                <time>2018-02-26T10:09:04.644Z</time>
            </trkpt>
            <trkpt lon="100.988745" lat="12.883998">
                <ele>61.100000</ele>
                <time>2018-02-26T10:09:05.644Z</time>
            </trkpt>
            <trkpt lon="100.988706" lat="12.883974">
                <ele>61.200000</ele>
                <time>2018-02-26T10:09:06.644Z</time>
            </trkpt>
            <trkpt lon="100.988667" lat="12.883955">
                <ele>61.200000</ele>
                <time>2018-02-26T10:09:07.644Z</time>
            </trkpt>
            <trkpt lon="100.988630" lat="12.883936">
                <ele>61.200000</ele>
                <time>2018-02-26T10:09:08.644Z</time>
            </trkpt>
            <trkpt lon="100.988592" lat="12.883920">
                <ele>61.500000</ele>
                <time>2018-02-26T10:09:09.644Z</time>
            </trkpt>
            <trkpt lon="100.988552" lat="12.883903">
                <ele>61.600000</ele>
                <time>2018-02-26T10:09:10.644Z</time>
            </trkpt>
            <trkpt lon="100.988509" lat="12.883887">
                <ele>62.000000</ele>
                <time>2018-02-26T10:09:11.644Z</time>
            </trkpt>
            <trkpt lon="100.988472" lat="12.883870">
                <ele>62.200000</ele>
                <time>2018-02-26T10:09:12.644Z</time>
            </trkpt>
            <trkpt lon="100.988435" lat="12.883856">
                <ele>62.200000</ele>
                <time>2018-02-26T10:09:13.644Z</time>
            </trkpt>
            <trkpt lon="100.988396" lat="12.883839">
                <ele>62.300000</ele>
                <time>2018-02-26T10:09:14.644Z</time>
            </trkpt>
            <trkpt lon="100.988358" lat="12.883822">
                <ele>62.300000</ele>
                <time>2018-02-26T10:09:15.644Z</time>
            </trkpt>
            <trkpt lon="100.988321" lat="12.883807">
                <ele>62.300000</ele>
                <time>2018-02-26T10:09:16.644Z</time>
            </trkpt>
            <trkpt lon="100.988286" lat="12.883792">
                <ele>62.400000</ele>
                <time>2018-02-26T10:09:17.644Z</time>
            </trkpt>
            <trkpt lon="100.988256" lat="12.883776">
                <ele>62.100000</ele>
                <time>2018-02-26T10:09:18.644Z</time>
            </trkpt>
            <trkpt lon="100.988231" lat="12.883752">
                <ele>62.200000</ele>
                <time>2018-02-26T10:09:19.644Z</time>
            </trkpt>
            <trkpt lon="100.988208" lat="12.883727">
                <ele>62.100000</ele>
                <time>2018-02-26T10:09:20.644Z</time>
            </trkpt>
            <trkpt lon="100.988186" lat="12.883702">
                <ele>62.000000</ele>
                <time>2018-02-26T10:09:21.644Z</time>
            </trkpt>
            <trkpt lon="100.988166" lat="12.883675">
                <ele>61.900000</ele>
                <time>2018-02-26T10:09:22.644Z</time>
            </trkpt>
            <trkpt lon="100.988155" lat="12.883642">
                <ele>61.800000</ele>
                <time>2018-02-26T10:09:23.644Z</time>
            </trkpt>
            <trkpt lon="100.988146" lat="12.883605">
                <ele>61.600000</ele>
                <time>2018-02-26T10:09:24.644Z</time>
            </trkpt>
            <trkpt lon="100.988144" lat="12.883566">
                <ele>61.500000</ele>
                <time>2018-02-26T10:09:25.644Z</time>
            </trkpt>
            <trkpt lon="100.988148" lat="12.883525">
                <ele>61.400000</ele>
                <time>2018-02-26T10:09:26.644Z</time>
            </trkpt>
            <trkpt lon="100.988156" lat="12.883486">
                <ele>61.100000</ele>
                <time>2018-02-26T10:09:27.644Z</time>
            </trkpt>
            <trkpt lon="100.988164" lat="12.883448">
                <ele>60.900000</ele>
                <time>2018-02-26T10:09:28.644Z</time>
            </trkpt>
            <trkpt lon="100.988173" lat="12.883408">
                <ele>60.600000</ele>
                <time>2018-02-26T10:09:29.644Z</time>
            </trkpt>
            <trkpt lon="100.988181" lat="12.883370">
                <ele>60.300000</ele>
                <time>2018-02-26T10:09:30.644Z</time>
            </trkpt>
            <trkpt lon="100.988184" lat="12.883337">
                <ele>59.900000</ele>
                <time>2018-02-26T10:09:31.644Z</time>
            </trkpt>
            <trkpt lon="100.988185" lat="12.883310">
                <ele>59.600000</ele>
                <time>2018-02-26T10:09:32.644Z</time>
            </trkpt>
            <trkpt lon="100.988180" lat="12.883264">
                <ele>59.200000</ele>
                <time>2018-02-26T10:09:34.644Z</time>
            </trkpt>
            <trkpt lon="100.988171" lat="12.883234">
                <ele>58.900000</ele>
                <time>2018-02-26T10:09:36.644Z</time>
            </trkpt>
            <trkpt lon="100.988154" lat="12.883191">
                <ele>58.400000</ele>
                <time>2018-02-26T10:09:43.644Z</time>
            </trkpt>
            <trkpt lon="100.988140" lat="12.883148">
                <ele>58.100000</ele>
                <time>2018-02-26T10:09:45.644Z</time>
            </trkpt>
            <trkpt lon="100.988136" lat="12.883121">
                <ele>58.100000</ele>
                <time>2018-02-26T10:09:46.644Z</time>
            </trkpt>
            <trkpt lon="100.988129" lat="12.883068">
                <ele>58.300000</ele>
                <time>2018-02-26T10:09:48.644Z</time>
            </trkpt>
            <trkpt lon="100.988131" lat="12.883037">
                <ele>58.300000</ele>
                <time>2018-02-26T10:09:49.644Z</time>
            </trkpt>
            <trkpt lon="100.988132" lat="12.882979">
                <ele>58.400000</ele>
                <time>2018-02-26T10:09:51.644Z</time>
            </trkpt>
            <trkpt lon="100.988132" lat="12.882949">
                <ele>58.500000</ele>
                <time>2018-02-26T10:09:52.644Z</time>
            </trkpt>
            <trkpt lon="100.988128" lat="12.882913">
                <ele>58.500000</ele>
                <time>2018-02-26T10:09:53.644Z</time>
            </trkpt>
            <trkpt lon="100.988127" lat="12.882880">
                <ele>58.500000</ele>
                <time>2018-02-26T10:09:54.644Z</time>
            </trkpt>
            <trkpt lon="100.988128" lat="12.882844">
                <ele>58.600000</ele>
                <time>2018-02-26T10:09:55.644Z</time>
            </trkpt>
            <trkpt lon="100.988128" lat="12.882809">
                <ele>58.600000</ele>
                <time>2018-02-26T10:09:56.644Z</time>
            </trkpt>
            <trkpt lon="100.988130" lat="12.882767">
                <ele>58.700000</ele>
                <time>2018-02-26T10:09:57.644Z</time>
            </trkpt>
            <trkpt lon="100.988130" lat="12.882724">
                <ele>58.700000</ele>
                <time>2018-02-26T10:09:58.644Z</time>
            </trkpt>
            <trkpt lon="100.988138" lat="12.882683">
                <ele>58.800000</ele>
                <time>2018-02-26T10:09:59.644Z</time>
            </trkpt>
            <trkpt lon="100.988144" lat="12.882644">
                <ele>58.800000</ele>
                <time>2018-02-26T10:10:00.644Z</time>
            </trkpt>
            <trkpt lon="100.988147" lat="12.882606">
                <ele>58.900000</ele>
                <time>2018-02-26T10:10:01.644Z</time>
            </trkpt>
            <trkpt lon="100.988142" lat="12.882572">
                <ele>58.900000</ele>
                <time>2018-02-26T10:10:02.644Z</time>
            </trkpt>
            <trkpt lon="100.988138" lat="12.882536">
                <ele>59.000000</ele>
                <time>2018-02-26T10:10:03.644Z</time>
            </trkpt>
            <trkpt lon="100.988136" lat="12.882500">
                <ele>59.000000</ele>
                <time>2018-02-26T10:10:04.644Z</time>
            </trkpt>
            <trkpt lon="100.988135" lat="12.882463">
                <ele>59.000000</ele>
                <time>2018-02-26T10:10:05.644Z</time>
            </trkpt>
            <trkpt lon="100.988136" lat="12.882427">
                <ele>59.100000</ele>
                <time>2018-02-26T10:10:06.644Z</time>
            </trkpt>
            <trkpt lon="100.988134" lat="12.882387">
                <ele>59.100000</ele>
                <time>2018-02-26T10:10:07.644Z</time>
            </trkpt>
            <trkpt lon="100.988131" lat="12.882346">
                <ele>59.100000</ele>
                <time>2018-02-26T10:10:08.644Z</time>
            </trkpt>
            <trkpt lon="100.988131" lat="12.882306">
                <ele>59.200000</ele>
                <time>2018-02-26T10:10:09.644Z</time>
            </trkpt>
            <trkpt lon="100.988125" lat="12.882265">
                <ele>59.200000</ele>
                <time>2018-02-26T10:10:10.644Z</time>
            </trkpt>
            <trkpt lon="100.988119" lat="12.882227">
                <ele>59.200000</ele>
                <time>2018-02-26T10:10:11.644Z</time>
            </trkpt>
            <trkpt lon="100.988112" lat="12.882190">
                <ele>59.200000</ele>
                <time>2018-02-26T10:10:12.644Z</time>
            </trkpt>
            <trkpt lon="100.988100" lat="12.882154">
                <ele>59.300000</ele>
                <time>2018-02-26T10:10:13.644Z</time>
            </trkpt>
            <trkpt lon="100.988093" lat="12.882118">
                <ele>59.300000</ele>
                <time>2018-02-26T10:10:14.644Z</time>
            </trkpt>
            <trkpt lon="100.988093" lat="12.882078">
                <ele>59.300000</ele>
                <time>2018-02-26T10:10:15.644Z</time>
            </trkpt>
            <trkpt lon="100.988088" lat="12.882042">
                <ele>59.300000</ele>
                <time>2018-02-26T10:10:16.644Z</time>
            </trkpt>
            <trkpt lon="100.988090" lat="12.882009">
                <ele>59.300000</ele>
                <time>2018-02-26T10:10:17.644Z</time>
            </trkpt>
            <trkpt lon="100.988092" lat="12.881980">
                <ele>59.300000</ele>
                <time>2018-02-26T10:10:18.644Z</time>
            </trkpt>
            <trkpt lon="100.988100" lat="12.881934">
                <ele>59.300000</ele>
                <time>2018-02-26T10:10:20.644Z</time>
            </trkpt>
            <trkpt lon="100.988110" lat="12.881894">
                <ele>59.300000</ele>
                <time>2018-02-26T10:10:22.644Z</time>
            </trkpt>
            <trkpt lon="100.988121" lat="12.881865">
                <ele>59.300000</ele>
                <time>2018-02-26T10:10:24.644Z</time>
            </trkpt>
            <trkpt lon="100.988154" lat="12.881851">
                <ele>59.300000</ele>
                <time>2018-02-26T10:10:27.644Z</time>
            </trkpt>
            <trkpt lon="100.988187" lat="12.881864">
                <ele>59.200000</ele>
                <time>2018-02-26T10:10:36.644Z</time>
            </trkpt>
            <trkpt lon="100.988222" lat="12.881877">
                <ele>59.200000</ele>
                <time>2018-02-26T10:10:38.644Z</time>
            </trkpt>
            <trkpt lon="100.988263" lat="12.881886">
                <ele>59.100000</ele>
                <time>2018-02-26T10:10:40.644Z</time>
            </trkpt>
            <trkpt lon="100.988303" lat="12.881905">
                <ele>59.200000</ele>
                <time>2018-02-26T10:10:42.644Z</time>
            </trkpt>
            <trkpt lon="100.988343" lat="12.881920">
                <ele>59.100000</ele>
                <time>2018-02-26T10:10:44.644Z</time>
            </trkpt>
            <trkpt lon="100.988391" lat="12.881937">
                <ele>59.400000</ele>
                <time>2018-02-26T10:10:46.644Z</time>
            </trkpt>
            <trkpt lon="100.988419" lat="12.881950">
                <ele>59.400000</ele>
                <time>2018-02-26T10:10:47.644Z</time>
            </trkpt>
            <trkpt lon="100.988447" lat="12.881962">
                <ele>59.500000</ele>
                <time>2018-02-26T10:10:48.644Z</time>
            </trkpt>
            <trkpt lon="100.988475" lat="12.881972">
                <ele>59.700000</ele>
                <time>2018-02-26T10:10:49.644Z</time>
            </trkpt>
            <trkpt lon="100.988504" lat="12.881985">
                <ele>59.700000</ele>
                <time>2018-02-26T10:10:50.644Z</time>
            </trkpt>
            <trkpt lon="100.988534" lat="12.881998">
                <ele>59.700000</ele>
                <time>2018-02-26T10:10:51.644Z</time>
            </trkpt>
            <trkpt lon="100.988566" lat="12.882006">
                <ele>59.600000</ele>
                <time>2018-02-26T10:10:52.644Z</time>
            </trkpt>
            <trkpt lon="100.988604" lat="12.882013">
                <ele>59.700000</ele>
                <time>2018-02-26T10:10:53.644Z</time>
            </trkpt>
            <trkpt lon="100.988635" lat="12.882024">
                <ele>59.700000</ele>
                <time>2018-02-26T10:10:54.644Z</time>
            </trkpt>
            <trkpt lon="100.988668" lat="12.882035">
                <ele>59.600000</ele>
                <time>2018-02-26T10:10:55.644Z</time>
            </trkpt>
            <trkpt lon="100.988703" lat="12.882047">
                <ele>59.600000</ele>
                <time>2018-02-26T10:10:56.644Z</time>
            </trkpt>
            <trkpt lon="100.988737" lat="12.882058">
                <ele>59.800000</ele>
                <time>2018-02-26T10:10:57.644Z</time>
            </trkpt>
            <trkpt lon="100.988765" lat="12.882067">
                <ele>59.700000</ele>
                <time>2018-02-26T10:10:58.644Z</time>
            </trkpt>
            <trkpt lon="100.988809" lat="12.882084">
                <ele>59.800000</ele>
                <time>2018-02-26T10:11:00.644Z</time>
            </trkpt>
            <trkpt lon="100.988846" lat="12.882097">
                <ele>60.000000</ele>
                <time>2018-02-26T10:11:02.644Z</time>
            </trkpt>
            <trkpt lon="100.988882" lat="12.882106">
                <ele>60.000000</ele>
                <time>2018-02-26T10:11:04.644Z</time>
            </trkpt>
            <trkpt lon="100.988913" lat="12.882118">
                <ele>59.900000</ele>
                <time>2018-02-26T10:11:07.644Z</time>
            </trkpt>
            <trkpt lon="100.988946" lat="12.882129">
                <ele>59.900000</ele>
                <time>2018-02-26T10:11:09.644Z</time>
            </trkpt>
            <trkpt lon="100.988993" lat="12.882146">
                <ele>59.900000</ele>
                <time>2018-02-26T10:11:11.644Z</time>
            </trkpt>
            <trkpt lon="100.989019" lat="12.882161">
                <ele>59.900000</ele>
                <time>2018-02-26T10:11:13.644Z</time>
            </trkpt>
            <trkpt lon="100.988994" lat="12.882172">
                <ele>59.900000</ele>
                <time>2018-02-26T10:12:04.644Z</time>
            </trkpt>
            <trkpt lon="100.989032" lat="12.882186">
                <ele>59.600000</ele>
                <time>2018-02-26T10:12:18.644Z</time>
            </trkpt>
            <trkpt lon="100.989090" lat="12.882205">
                <ele>59.300000</ele>
                <time>2018-02-26T10:12:20.644Z</time>
            </trkpt>
            <trkpt lon="100.989121" lat="12.882217">
                <ele>59.000000</ele>
                <time>2018-02-26T10:12:21.644Z</time>
            </trkpt>
            <trkpt lon="100.989149" lat="12.882230">
                <ele>58.700000</ele>
                <time>2018-02-26T10:12:22.644Z</time>
            </trkpt>
            <trkpt lon="100.989176" lat="12.882239">
                <ele>58.500000</ele>
                <time>2018-02-26T10:12:23.644Z</time>
            </trkpt>
            <trkpt lon="100.989205" lat="12.882252">
                <ele>58.300000</ele>
                <time>2018-02-26T10:12:24.644Z</time>
            </trkpt>
            <trkpt lon="100.989234" lat="12.882263">
                <ele>58.100000</ele>
                <time>2018-02-26T10:12:25.644Z</time>
            </trkpt>
            <trkpt lon="100.989279" lat="12.882269">
                <ele>57.900000</ele>
                <time>2018-02-26T10:12:26.644Z</time>
            </trkpt>
            <trkpt lon="100.989308" lat="12.882272">
                <ele>57.800000</ele>
                <time>2018-02-26T10:12:27.644Z</time>
            </trkpt>
            <trkpt lon="100.989362" lat="12.882276">
                <ele>57.700000</ele>
                <time>2018-02-26T10:12:29.644Z</time>
            </trkpt>
            <trkpt lon="100.989414" lat="12.882274">
                <ele>57.700000</ele>
                <time>2018-02-26T10:12:31.644Z</time>
            </trkpt>
            <trkpt lon="100.989440" lat="12.882242">
                <ele>57.600000</ele>
                <time>2018-02-26T10:12:42.644Z</time>
            </trkpt>
            <trkpt lon="100.989455" lat="12.882197">
                <ele>57.600000</ele>
                <time>2018-02-26T10:12:44.644Z</time>
            </trkpt>
            <trkpt lon="100.989455" lat="12.882166">
                <ele>57.800000</ele>
                <time>2018-02-26T10:12:45.644Z</time>
            </trkpt>
            <trkpt lon="100.989452" lat="12.882135">
                <ele>58.100000</ele>
                <time>2018-02-26T10:12:46.644Z</time>
            </trkpt>
            <trkpt lon="100.989448" lat="12.882108">
                <ele>58.100000</ele>
                <time>2018-02-26T10:12:47.644Z</time>
            </trkpt>
            <trkpt lon="100.989454" lat="12.882077">
                <ele>58.500000</ele>
                <time>2018-02-26T10:12:54.644Z</time>
            </trkpt>
            <trkpt lon="100.989454" lat="12.882026">
                <ele>58.800000</ele>
                <time>2018-02-26T10:12:56.644Z</time>
            </trkpt>
            <trkpt lon="100.989457" lat="12.881998">
                <ele>59.100000</ele>
                <time>2018-02-26T10:12:57.644Z</time>
            </trkpt>
            <trkpt lon="100.989458" lat="12.881970">
                <ele>59.100000</ele>
                <time>2018-02-26T10:12:58.644Z</time>
            </trkpt>
            <trkpt lon="100.989455" lat="12.881923">
                <ele>59.500000</ele>
                <time>2018-02-26T10:13:00.644Z</time>
            </trkpt>
            <trkpt lon="100.989450" lat="12.881872">
                <ele>59.700000</ele>
                <time>2018-02-26T10:13:02.644Z</time>
            </trkpt>
            <trkpt lon="100.989440" lat="12.881825">
                <ele>59.800000</ele>
                <time>2018-02-26T10:13:04.644Z</time>
            </trkpt>
            <trkpt lon="100.989434" lat="12.881784">
                <ele>59.800000</ele>
                <time>2018-02-26T10:13:06.644Z</time>
            </trkpt>
            <trkpt lon="100.989445" lat="12.881748">
                <ele>59.700000</ele>
                <time>2018-02-26T10:13:08.644Z</time>
            </trkpt>
            <trkpt lon="100.989460" lat="12.881712">
                <ele>59.700000</ele>
                <time>2018-02-26T10:13:10.644Z</time>
            </trkpt>
            <trkpt lon="100.989488" lat="12.881695">
                <ele>59.900000</ele>
                <time>2018-02-26T10:13:12.644Z</time>
            </trkpt>
            <trkpt lon="100.989531" lat="12.881686">
                <ele>60.100000</ele>
                <time>2018-02-26T10:13:14.644Z</time>
            </trkpt>
            <trkpt lon="100.989571" lat="12.881678">
                <ele>60.200000</ele>
                <time>2018-02-26T10:13:16.644Z</time>
            </trkpt>
            <trkpt lon="100.989596" lat="12.881692">
                <ele>60.400000</ele>
                <time>2018-02-26T10:13:31.644Z</time>
            </trkpt>
            <trkpt lon="100.989623" lat="12.881699">
                <ele>60.400000</ele>
                <time>2018-02-26T10:13:34.644Z</time>
            </trkpt>
            <trkpt lon="100.989667" lat="12.881708">
                <ele>60.500000</ele>
                <time>2018-02-26T10:13:37.644Z</time>
            </trkpt>
            <trkpt lon="100.989702" lat="12.881729">
                <ele>60.500000</ele>
                <time>2018-02-26T10:13:39.644Z</time>
            </trkpt>
            <trkpt lon="100.989739" lat="12.881743">
                <ele>60.700000</ele>
                <time>2018-02-26T10:13:41.644Z</time>
            </trkpt>
            <trkpt lon="100.989780" lat="12.881755">
                <ele>60.900000</ele>
                <time>2018-02-26T10:13:43.644Z</time>
            </trkpt>
            <trkpt lon="100.989821" lat="12.881770">
                <ele>60.900000</ele>
                <time>2018-02-26T10:13:45.644Z</time>
            </trkpt>
            <trkpt lon="100.989861" lat="12.881786">
                <ele>60.900000</ele>
                <time>2018-02-26T10:13:47.644Z</time>
            </trkpt>
            <trkpt lon="100.989902" lat="12.881797">
                <ele>60.900000</ele>
                <time>2018-02-26T10:13:49.644Z</time>
            </trkpt>
            <trkpt lon="100.989946" lat="12.881802">
                <ele>60.600000</ele>
                <time>2018-02-26T10:13:51.644Z</time>
            </trkpt>
            <trkpt lon="100.989999" lat="12.881811">
                <ele>60.500000</ele>
                <time>2018-02-26T10:13:53.644Z</time>
            </trkpt>
            <trkpt lon="100.990042" lat="12.881826">
                <ele>60.500000</ele>
                <time>2018-02-26T10:13:55.644Z</time>
            </trkpt>
            <trkpt lon="100.990088" lat="12.881849">
                <ele>60.300000</ele>
                <time>2018-02-26T10:13:57.644Z</time>
            </trkpt>
            <trkpt lon="100.990127" lat="12.881883">
                <ele>60.300000</ele>
                <time>2018-02-26T10:13:59.644Z</time>
            </trkpt>
            <trkpt lon="100.990154" lat="12.881911">
                <ele>60.200000</ele>
                <time>2018-02-26T10:14:01.644Z</time>
            </trkpt>
            <trkpt lon="100.990178" lat="12.881926">
                <ele>60.200000</ele>
                <time>2018-02-26T10:14:04.644Z</time>
            </trkpt>
            <trkpt lon="100.990206" lat="12.881929">
                <ele>60.200000</ele>
                <time>2018-02-26T10:14:55.644Z</time>
            </trkpt>
            <trkpt lon="100.990242" lat="12.881940">
                <ele>60.300000</ele>
                <time>2018-02-26T10:14:57.644Z</time>
            </trkpt>
            <trkpt lon="100.990269" lat="12.881950">
                <ele>60.300000</ele>
                <time>2018-02-26T10:14:58.644Z</time>
            </trkpt>
            <trkpt lon="100.990299" lat="12.881964">
                <ele>60.400000</ele>
                <time>2018-02-26T10:14:59.644Z</time>
            </trkpt>
            <trkpt lon="100.990326" lat="12.881975">
                <ele>60.700000</ele>
                <time>2018-02-26T10:15:00.644Z</time>
            </trkpt>
            <trkpt lon="100.990354" lat="12.881986">
                <ele>60.700000</ele>
                <time>2018-02-26T10:15:01.644Z</time>
            </trkpt>
            <trkpt lon="100.990382" lat="12.881992">
                <ele>60.700000</ele>
                <time>2018-02-26T10:15:02.644Z</time>
            </trkpt>
            <trkpt lon="100.990411" lat="12.882000">
                <ele>60.700000</ele>
                <time>2018-02-26T10:15:03.644Z</time>
            </trkpt>
            <trkpt lon="100.990442" lat="12.882009">
                <ele>60.700000</ele>
                <time>2018-02-26T10:15:04.644Z</time>
            </trkpt>
            <trkpt lon="100.990471" lat="12.882019">
                <ele>60.800000</ele>
                <time>2018-02-26T10:15:05.644Z</time>
            </trkpt>
            <trkpt lon="100.990501" lat="12.882030">
                <ele>60.800000</ele>
                <time>2018-02-26T10:15:06.644Z</time>
            </trkpt>
            <trkpt lon="100.990530" lat="12.882042">
                <ele>60.800000</ele>
                <time>2018-02-26T10:15:07.644Z</time>
            </trkpt>
            <trkpt lon="100.990559" lat="12.882056">
                <ele>61.100000</ele>
                <time>2018-02-26T10:15:08.644Z</time>
            </trkpt>
            <trkpt lon="100.990588" lat="12.882068">
                <ele>61.200000</ele>
                <time>2018-02-26T10:15:09.644Z</time>
            </trkpt>
            <trkpt lon="100.990614" lat="12.882080">
                <ele>61.100000</ele>
                <time>2018-02-26T10:15:10.644Z</time>
            </trkpt>
            <trkpt lon="100.990648" lat="12.882099">
                <ele>61.300000</ele>
                <time>2018-02-26T10:15:11.644Z</time>
            </trkpt>
            <trkpt lon="100.990677" lat="12.882111">
                <ele>61.400000</ele>
                <time>2018-02-26T10:15:12.644Z</time>
            </trkpt>
            <trkpt lon="100.990723" lat="12.882131">
                <ele>61.500000</ele>
                <time>2018-02-26T10:15:14.644Z</time>
            </trkpt>
            <trkpt lon="100.990751" lat="12.882136">
                <ele>61.700000</ele>
                <time>2018-02-26T10:15:15.644Z</time>
            </trkpt>
            <trkpt lon="100.990781" lat="12.882146">
                <ele>61.700000</ele>
                <time>2018-02-26T10:15:16.644Z</time>
            </trkpt>
            <trkpt lon="100.990814" lat="12.882160">
                <ele>61.900000</ele>
                <time>2018-02-26T10:15:17.644Z</time>
            </trkpt>
            <trkpt lon="100.990849" lat="12.882173">
                <ele>62.100000</ele>
                <time>2018-02-26T10:15:18.644Z</time>
            </trkpt>
            <trkpt lon="100.990884" lat="12.882183">
                <ele>62.300000</ele>
                <time>2018-02-26T10:15:19.644Z</time>
            </trkpt>
            <trkpt lon="100.990916" lat="12.882189">
                <ele>62.300000</ele>
                <time>2018-02-26T10:15:20.644Z</time>
            </trkpt>
            <trkpt lon="100.990949" lat="12.882196">
                <ele>62.700000</ele>
                <time>2018-02-26T10:15:21.644Z</time>
            </trkpt>
            <trkpt lon="100.990981" lat="12.882202">
                <ele>63.100000</ele>
                <time>2018-02-26T10:15:22.644Z</time>
            </trkpt>
            <trkpt lon="100.991013" lat="12.882208">
                <ele>63.600000</ele>
                <time>2018-02-26T10:15:23.644Z</time>
            </trkpt>
            <trkpt lon="100.991042" lat="12.882214">
                <ele>63.500000</ele>
                <time>2018-02-26T10:15:24.644Z</time>
            </trkpt>
            <trkpt lon="100.991093" lat="12.882221">
                <ele>63.500000</ele>
                <time>2018-02-26T10:15:26.644Z</time>
            </trkpt>
            <trkpt lon="100.991139" lat="12.882224">
                <ele>63.400000</ele>
                <time>2018-02-26T10:15:28.644Z</time>
            </trkpt>
            <trkpt lon="100.991186" lat="12.882223">
                <ele>63.400000</ele>
                <time>2018-02-26T10:15:30.644Z</time>
            </trkpt>
            <trkpt lon="100.991233" lat="12.882225">
                <ele>63.300000</ele>
                <time>2018-02-26T10:15:32.644Z</time>
            </trkpt>
            <trkpt lon="100.991275" lat="12.882222">
                <ele>63.200000</ele>
                <time>2018-02-26T10:15:34.644Z</time>
            </trkpt>
            <trkpt lon="100.991302" lat="12.882193">
                <ele>63.200000</ele>
                <time>2018-02-26T10:15:36.644Z</time>
            </trkpt>
            <trkpt lon="100.991315" lat="12.882150">
                <ele>63.100000</ele>
                <time>2018-02-26T10:15:38.644Z</time>
            </trkpt>
            <trkpt lon="100.991332" lat="12.882108">
                <ele>63.100000</ele>
                <time>2018-02-26T10:15:40.644Z</time>
            </trkpt>
            <trkpt lon="100.991345" lat="12.882066">
                <ele>62.900000</ele>
                <time>2018-02-26T10:15:42.644Z</time>
            </trkpt>
            <trkpt lon="100.991352" lat="12.882019">
                <ele>62.900000</ele>
                <time>2018-02-26T10:15:44.644Z</time>
            </trkpt>
            <trkpt lon="100.991361" lat="12.881965">
                <ele>62.800000</ele>
                <time>2018-02-26T10:15:46.644Z</time>
            </trkpt>
            <trkpt lon="100.991365" lat="12.881933">
                <ele>62.800000</ele>
                <time>2018-02-26T10:15:47.644Z</time>
            </trkpt>
            <trkpt lon="100.991375" lat="12.881892">
                <ele>62.700000</ele>
                <time>2018-02-26T10:15:48.644Z</time>
            </trkpt>
            <trkpt lon="100.991382" lat="12.881855">
                <ele>62.700000</ele>
                <time>2018-02-26T10:15:49.644Z</time>
            </trkpt>
            <trkpt lon="100.991388" lat="12.881823">
                <ele>62.600000</ele>
                <time>2018-02-26T10:15:50.644Z</time>
            </trkpt>
            <trkpt lon="100.991399" lat="12.881784">
                <ele>62.600000</ele>
                <time>2018-02-26T10:15:51.644Z</time>
            </trkpt>
            <trkpt lon="100.991408" lat="12.881748">
                <ele>62.500000</ele>
                <time>2018-02-26T10:15:52.644Z</time>
            </trkpt>
            <trkpt lon="100.991413" lat="12.881710">
                <ele>62.500000</ele>
                <time>2018-02-26T10:15:53.644Z</time>
            </trkpt>
            <trkpt lon="100.991425" lat="12.881673">
                <ele>62.400000</ele>
                <time>2018-02-26T10:15:54.644Z</time>
            </trkpt>
            <trkpt lon="100.991433" lat="12.881635">
                <ele>62.400000</ele>
                <time>2018-02-26T10:15:55.644Z</time>
            </trkpt>
            <trkpt lon="100.991442" lat="12.881604">
                <ele>62.300000</ele>
                <time>2018-02-26T10:15:56.644Z</time>
            </trkpt>
            <trkpt lon="100.991461" lat="12.881565">
                <ele>62.300000</ele>
                <time>2018-02-26T10:15:58.644Z</time>
            </trkpt>
            <trkpt lon="100.991456" lat="12.881522">
                <ele>62.200000</ele>
                <time>2018-02-26T10:16:03.644Z</time>
            </trkpt>
            <trkpt lon="100.991459" lat="12.881495">
                <ele>62.200000</ele>
                <time>2018-02-26T10:16:04.644Z</time>
            </trkpt>
            <trkpt lon="100.991461" lat="12.881467">
                <ele>62.200000</ele>
                <time>2018-02-26T10:16:05.644Z</time>
            </trkpt>
            <trkpt lon="100.991468" lat="12.881438">
                <ele>62.200000</ele>
                <time>2018-02-26T10:16:06.644Z</time>
            </trkpt>
            <trkpt lon="100.991479" lat="12.881411">
                <ele>62.100000</ele>
                <time>2018-02-26T10:16:07.644Z</time>
            </trkpt>
            <trkpt lon="100.991490" lat="12.881385">
                <ele>62.100000</ele>
                <time>2018-02-26T10:16:08.644Z</time>
            </trkpt>
            <trkpt lon="100.991499" lat="12.881358">
                <ele>62.100000</ele>
                <time>2018-02-26T10:16:09.644Z</time>
            </trkpt>
            <trkpt lon="100.991508" lat="12.881330">
                <ele>62.000000</ele>
                <time>2018-02-26T10:16:10.644Z</time>
            </trkpt>
            <trkpt lon="100.991512" lat="12.881303">
                <ele>62.000000</ele>
                <time>2018-02-26T10:16:11.644Z</time>
            </trkpt>
            <trkpt lon="100.991507" lat="12.881252">
                <ele>61.800000</ele>
                <time>2018-02-26T10:16:13.644Z</time>
            </trkpt>
            <trkpt lon="100.991502" lat="12.881224">
                <ele>61.900000</ele>
                <time>2018-02-26T10:16:14.644Z</time>
            </trkpt>
            <trkpt lon="100.991488" lat="12.881182">
                <ele>61.800000</ele>
                <time>2018-02-26T10:16:16.644Z</time>
            </trkpt>
            <trkpt lon="100.991482" lat="12.881153">
                <ele>61.600000</ele>
                <time>2018-02-26T10:16:18.644Z</time>
            </trkpt>
            <trkpt lon="100.991446" lat="12.881125">
                <ele>60.900000</ele>
                <time>2018-02-26T10:16:27.644Z</time>
            </trkpt>
            <trkpt lon="100.991420" lat="12.881087">
                <ele>60.200000</ele>
                <time>2018-02-26T10:16:29.644Z</time>
            </trkpt>
            <trkpt lon="100.991407" lat="12.881044">
                <ele>59.900000</ele>
                <time>2018-02-26T10:16:31.644Z</time>
            </trkpt>
            <trkpt lon="100.991391" lat="12.881002">
                <ele>59.400000</ele>
                <time>2018-02-26T10:16:33.644Z</time>
            </trkpt>
            <trkpt lon="100.991370" lat="12.880959">
                <ele>59.200000</ele>
                <time>2018-02-26T10:16:35.644Z</time>
            </trkpt>
            <trkpt lon="100.991353" lat="12.880920">
                <ele>58.900000</ele>
                <time>2018-02-26T10:16:37.644Z</time>
            </trkpt>
            <trkpt lon="100.991340" lat="12.880888">
                <ele>58.800000</ele>
                <time>2018-02-26T10:16:39.644Z</time>
            </trkpt>
            <trkpt lon="100.991313" lat="12.880841">
                <ele>58.400000</ele>
                <time>2018-02-26T10:16:41.644Z</time>
            </trkpt>
            <trkpt lon="100.991298" lat="12.880811">
                <ele>57.900000</ele>
                <time>2018-02-26T10:16:42.644Z</time>
            </trkpt>
            <trkpt lon="100.991284" lat="12.880779">
                <ele>57.700000</ele>
                <time>2018-02-26T10:16:43.644Z</time>
            </trkpt>
            <trkpt lon="100.991276" lat="12.880742">
                <ele>57.400000</ele>
                <time>2018-02-26T10:16:44.644Z</time>
            </trkpt>
            <trkpt lon="100.991270" lat="12.880705">
                <ele>57.200000</ele>
                <time>2018-02-26T10:16:45.644Z</time>
            </trkpt>
            <trkpt lon="100.991265" lat="12.880673">
                <ele>57.200000</ele>
                <time>2018-02-26T10:16:46.644Z</time>
            </trkpt>
            <trkpt lon="100.991261" lat="12.880641">
                <ele>56.900000</ele>
                <time>2018-02-26T10:16:47.644Z</time>
            </trkpt>
            <trkpt lon="100.991252" lat="12.880611">
                <ele>56.900000</ele>
                <time>2018-02-26T10:16:48.644Z</time>
            </trkpt>
            <trkpt lon="100.991238" lat="12.880586">
                <ele>56.900000</ele>
                <time>2018-02-26T10:16:49.644Z</time>
            </trkpt>
            <trkpt lon="100.991224" lat="12.880537">
                <ele>56.900000</ele>
                <time>2018-02-26T10:16:51.644Z</time>
            </trkpt>
            <trkpt lon="100.991216" lat="12.880510">
                <ele>56.800000</ele>
                <time>2018-02-26T10:16:52.644Z</time>
            </trkpt>
            <trkpt lon="100.991205" lat="12.880473">
                <ele>56.900000</ele>
                <time>2018-02-26T10:16:54.644Z</time>
            </trkpt>
            <trkpt lon="100.991195" lat="12.880434">
                <ele>57.200000</ele>
                <time>2018-02-26T10:16:56.644Z</time>
            </trkpt>
            <trkpt lon="100.991189" lat="12.880407">
                <ele>57.400000</ele>
                <time>2018-02-26T10:16:57.644Z</time>
            </trkpt>
            <trkpt lon="100.991183" lat="12.880376">
                <ele>57.700000</ele>
                <time>2018-02-26T10:16:58.644Z</time>
            </trkpt>
            <trkpt lon="100.991173" lat="12.880337">
                <ele>58.000000</ele>
                <time>2018-02-26T10:16:59.644Z</time>
            </trkpt>
            <trkpt lon="100.991159" lat="12.880302">
                <ele>58.000000</ele>
                <time>2018-02-26T10:17:00.644Z</time>
            </trkpt>
            <trkpt lon="100.991149" lat="12.880273">
                <ele>58.300000</ele>
                <time>2018-02-26T10:17:01.644Z</time>
            </trkpt>
            <trkpt lon="100.991143" lat="12.880242">
                <ele>58.500000</ele>
                <time>2018-02-26T10:17:02.644Z</time>
            </trkpt>
            <trkpt lon="100.991135" lat="12.880205">
                <ele>58.800000</ele>
                <time>2018-02-26T10:17:03.644Z</time>
            </trkpt>
            <trkpt lon="100.991127" lat="12.880176">
                <ele>58.800000</ele>
                <time>2018-02-26T10:17:04.644Z</time>
            </trkpt>
            <trkpt lon="100.991118" lat="12.880139">
                <ele>59.100000</ele>
                <time>2018-02-26T10:17:06.644Z</time>
            </trkpt>
            <trkpt lon="100.991102" lat="12.880088">
                <ele>59.300000</ele>
                <time>2018-02-26T10:17:08.644Z</time>
            </trkpt>
            <trkpt lon="100.991091" lat="12.880057">
                <ele>59.600000</ele>
                <time>2018-02-26T10:17:09.644Z</time>
            </trkpt>
            <trkpt lon="100.991081" lat="12.880028">
                <ele>59.900000</ele>
                <time>2018-02-26T10:17:10.644Z</time>
            </trkpt>
            <trkpt lon="100.991073" lat="12.880002">
                <ele>60.000000</ele>
                <time>2018-02-26T10:17:11.644Z</time>
            </trkpt>
            <trkpt lon="100.991068" lat="12.879960">
                <ele>60.100000</ele>
                <time>2018-02-26T10:17:13.644Z</time>
            </trkpt>
            <trkpt lon="100.991053" lat="12.879909">
                <ele>60.100000</ele>
                <time>2018-02-26T10:17:15.644Z</time>
            </trkpt>
            <trkpt lon="100.991043" lat="12.879849">
                <ele>60.100000</ele>
                <time>2018-02-26T10:17:17.644Z</time>
            </trkpt>
            <trkpt lon="100.991047" lat="12.879817">
                <ele>60.100000</ele>
                <time>2018-02-26T10:17:18.644Z</time>
            </trkpt>
            <trkpt lon="100.991052" lat="12.879788">
                <ele>60.300000</ele>
                <time>2018-02-26T10:17:19.644Z</time>
            </trkpt>
            <trkpt lon="100.991063" lat="12.879763">
                <ele>60.300000</ele>
                <time>2018-02-26T10:17:20.644Z</time>
            </trkpt>
            <trkpt lon="100.991078" lat="12.879715">
                <ele>60.300000</ele>
                <time>2018-02-26T10:17:22.644Z</time>
            </trkpt>
            <trkpt lon="100.991086" lat="12.879688">
                <ele>60.300000</ele>
                <time>2018-02-26T10:17:23.644Z</time>
            </trkpt>
            <trkpt lon="100.991093" lat="12.879661">
                <ele>60.600000</ele>
                <time>2018-02-26T10:17:24.644Z</time>
            </trkpt>
            <trkpt lon="100.991105" lat="12.879626">
                <ele>60.600000</ele>
                <time>2018-02-26T10:17:25.644Z</time>
            </trkpt>
            <trkpt lon="100.991116" lat="12.879596">
                <ele>60.600000</ele>
                <time>2018-02-26T10:17:26.644Z</time>
            </trkpt>
            <trkpt lon="100.991127" lat="12.879569">
                <ele>60.600000</ele>
                <time>2018-02-26T10:17:27.644Z</time>
            </trkpt>
            <trkpt lon="100.991137" lat="12.879539">
                <ele>60.900000</ele>
                <time>2018-02-26T10:17:28.644Z</time>
            </trkpt>
            <trkpt lon="100.991149" lat="12.879512">
                <ele>60.900000</ele>
                <time>2018-02-26T10:17:29.644Z</time>
            </trkpt>
            <trkpt lon="100.991160" lat="12.879485">
                <ele>60.900000</ele>
                <time>2018-02-26T10:17:30.644Z</time>
            </trkpt>
            <trkpt lon="100.991166" lat="12.879459">
                <ele>60.900000</ele>
                <time>2018-02-26T10:17:31.644Z</time>
            </trkpt>
            <trkpt lon="100.991167" lat="12.879410">
                <ele>60.600000</ele>
                <time>2018-02-26T10:17:33.644Z</time>
            </trkpt>
            <trkpt lon="100.991168" lat="12.879377">
                <ele>60.600000</ele>
                <time>2018-02-26T10:17:34.644Z</time>
            </trkpt>
            <trkpt lon="100.991169" lat="12.879343">
                <ele>60.400000</ele>
                <time>2018-02-26T10:17:35.644Z</time>
            </trkpt>
            <trkpt lon="100.991173" lat="12.879291">
                <ele>60.400000</ele>
                <time>2018-02-26T10:17:37.644Z</time>
            </trkpt>
            <trkpt lon="100.991178" lat="12.879245">
                <ele>60.400000</ele>
                <time>2018-02-26T10:17:39.644Z</time>
            </trkpt>
            <trkpt lon="100.991175" lat="12.879215">
                <ele>60.400000</ele>
                <time>2018-02-26T10:17:41.644Z</time>
            </trkpt>
            <trkpt lon="100.991161" lat="12.879186">
                <ele>60.400000</ele>
                <time>2018-02-26T10:17:43.644Z</time>
            </trkpt>
            <trkpt lon="100.991147" lat="12.879154">
                <ele>60.500000</ele>
                <time>2018-02-26T10:17:45.644Z</time>
            </trkpt>
            <trkpt lon="100.991128" lat="12.879109">
                <ele>60.600000</ele>
                <time>2018-02-26T10:17:47.644Z</time>
            </trkpt>
            <trkpt lon="100.991119" lat="12.879082">
                <ele>60.700000</ele>
                <time>2018-02-26T10:17:48.644Z</time>
            </trkpt>
            <trkpt lon="100.991111" lat="12.879052">
                <ele>60.700000</ele>
                <time>2018-02-26T10:17:49.644Z</time>
            </trkpt>
            <trkpt lon="100.991108" lat="12.879023">
                <ele>60.800000</ele>
                <time>2018-02-26T10:17:50.644Z</time>
            </trkpt>
            <trkpt lon="100.991103" lat="12.878993">
                <ele>60.900000</ele>
                <time>2018-02-26T10:17:51.644Z</time>
            </trkpt>
            <trkpt lon="100.991098" lat="12.878944">
                <ele>60.900000</ele>
                <time>2018-02-26T10:17:53.644Z</time>
            </trkpt>
            <trkpt lon="100.991093" lat="12.878908">
                <ele>60.900000</ele>
                <time>2018-02-26T10:17:55.644Z</time>
            </trkpt>
            <trkpt lon="100.991092" lat="12.878868">
                <ele>60.900000</ele>
                <time>2018-02-26T10:17:57.644Z</time>
            </trkpt>
            <trkpt lon="100.991090" lat="12.878840">
                <ele>60.700000</ele>
                <time>2018-02-26T10:17:58.644Z</time>
            </trkpt>
            <trkpt lon="100.991086" lat="12.878782">
                <ele>60.700000</ele>
                <time>2018-02-26T10:18:00.644Z</time>
            </trkpt>
            <trkpt lon="100.991083" lat="12.878755">
                <ele>60.700000</ele>
                <time>2018-02-26T10:18:01.644Z</time>
            </trkpt>
            <trkpt lon="100.991080" lat="12.878724">
                <ele>60.800000</ele>
                <time>2018-02-26T10:18:02.644Z</time>
            </trkpt>
            <trkpt lon="100.991077" lat="12.878692">
                <ele>60.800000</ele>
                <time>2018-02-26T10:18:03.644Z</time>
            </trkpt>
            <trkpt lon="100.991069" lat="12.878645">
                <ele>60.800000</ele>
                <time>2018-02-26T10:18:05.644Z</time>
            </trkpt>
            <trkpt lon="100.991064" lat="12.878610">
                <ele>60.800000</ele>
                <time>2018-02-26T10:18:06.644Z</time>
            </trkpt>
            <trkpt lon="100.991051" lat="12.878576">
                <ele>60.800000</ele>
                <time>2018-02-26T10:18:07.644Z</time>
            </trkpt>
            <trkpt lon="100.991038" lat="12.878542">
                <ele>60.700000</ele>
                <time>2018-02-26T10:18:08.644Z</time>
            </trkpt>
            <trkpt lon="100.991025" lat="12.878492">
                <ele>60.800000</ele>
                <time>2018-02-26T10:18:10.644Z</time>
            </trkpt>
            <trkpt lon="100.991019" lat="12.878465">
                <ele>60.800000</ele>
                <time>2018-02-26T10:18:11.644Z</time>
            </trkpt>
            <trkpt lon="100.991013" lat="12.878432">
                <ele>61.100000</ele>
                <time>2018-02-26T10:18:12.644Z</time>
            </trkpt>
            <trkpt lon="100.991004" lat="12.878394">
                <ele>61.400000</ele>
                <time>2018-02-26T10:18:13.644Z</time>
            </trkpt>
            <trkpt lon="100.990997" lat="12.878356">
                <ele>61.600000</ele>
                <time>2018-02-26T10:18:14.644Z</time>
            </trkpt>
            <trkpt lon="100.990996" lat="12.878318">
                <ele>61.900000</ele>
                <time>2018-02-26T10:18:15.644Z</time>
            </trkpt>
            <trkpt lon="100.990992" lat="12.878280">
                <ele>62.200000</ele>
                <time>2018-02-26T10:18:16.644Z</time>
            </trkpt>
            <trkpt lon="100.990986" lat="12.878242">
                <ele>62.400000</ele>
                <time>2018-02-26T10:18:17.644Z</time>
            </trkpt>
            <trkpt lon="100.990978" lat="12.878205">
                <ele>62.400000</ele>
                <time>2018-02-26T10:18:18.644Z</time>
            </trkpt>
            <trkpt lon="100.990971" lat="12.878168">
                <ele>62.700000</ele>
                <time>2018-02-26T10:18:19.644Z</time>
            </trkpt>
            <trkpt lon="100.990964" lat="12.878131">
                <ele>62.900000</ele>
                <time>2018-02-26T10:18:20.644Z</time>
            </trkpt>
            <trkpt lon="100.990955" lat="12.878092">
                <ele>62.900000</ele>
                <time>2018-02-26T10:18:21.644Z</time>
            </trkpt>
            <trkpt lon="100.990948" lat="12.878052">
                <ele>62.900000</ele>
                <time>2018-02-26T10:18:22.644Z</time>
            </trkpt>
            <trkpt lon="100.990939" lat="12.878010">
                <ele>62.900000</ele>
                <time>2018-02-26T10:18:23.644Z</time>
            </trkpt>
            <trkpt lon="100.990930" lat="12.877968">
                <ele>62.900000</ele>
                <time>2018-02-26T10:18:24.644Z</time>
            </trkpt>
            <trkpt lon="100.990922" lat="12.877930">
                <ele>62.800000</ele>
                <time>2018-02-26T10:18:25.644Z</time>
            </trkpt>
            <trkpt lon="100.990914" lat="12.877893">
                <ele>62.900000</ele>
                <time>2018-02-26T10:18:26.644Z</time>
            </trkpt>
            <trkpt lon="100.990906" lat="12.877857">
                <ele>62.900000</ele>
                <time>2018-02-26T10:18:27.644Z</time>
            </trkpt>
            <trkpt lon="100.990898" lat="12.877820">
                <ele>62.800000</ele>
                <time>2018-02-26T10:18:28.644Z</time>
            </trkpt>
            <trkpt lon="100.990889" lat="12.877786">
                <ele>62.800000</ele>
                <time>2018-02-26T10:18:29.644Z</time>
            </trkpt>
            <trkpt lon="100.990881" lat="12.877750">
                <ele>62.600000</ele>
                <time>2018-02-26T10:18:30.644Z</time>
            </trkpt>
            <trkpt lon="100.990874" lat="12.877714">
                <ele>62.600000</ele>
                <time>2018-02-26T10:18:31.644Z</time>
            </trkpt>
            <trkpt lon="100.990867" lat="12.877676">
                <ele>62.400000</ele>
                <time>2018-02-26T10:18:32.644Z</time>
            </trkpt>
            <trkpt lon="100.990860" lat="12.877639">
                <ele>62.200000</ele>
                <time>2018-02-26T10:18:33.644Z</time>
            </trkpt>
            <trkpt lon="100.990853" lat="12.877600">
                <ele>62.200000</ele>
                <time>2018-02-26T10:18:34.644Z</time>
            </trkpt>
            <trkpt lon="100.990847" lat="12.877562">
                <ele>62.200000</ele>
                <time>2018-02-26T10:18:35.644Z</time>
            </trkpt>
            <trkpt lon="100.990839" lat="12.877527">
                <ele>62.300000</ele>
                <time>2018-02-26T10:18:36.644Z</time>
            </trkpt>
            <trkpt lon="100.990833" lat="12.877490">
                <ele>62.500000</ele>
                <time>2018-02-26T10:18:37.644Z</time>
            </trkpt>
            <trkpt lon="100.990826" lat="12.877457">
                <ele>62.500000</ele>
                <time>2018-02-26T10:18:38.644Z</time>
            </trkpt>
            <trkpt lon="100.990818" lat="12.877425">
                <ele>62.200000</ele>
                <time>2018-02-26T10:18:39.644Z</time>
            </trkpt>
            <trkpt lon="100.990813" lat="12.877391">
                <ele>62.000000</ele>
                <time>2018-02-26T10:18:40.644Z</time>
            </trkpt>
            <trkpt lon="100.990809" lat="12.877362">
                <ele>61.800000</ele>
                <time>2018-02-26T10:18:41.644Z</time>
            </trkpt>
            <trkpt lon="100.990806" lat="12.877332">
                <ele>61.800000</ele>
                <time>2018-02-26T10:18:42.644Z</time>
            </trkpt>
            <trkpt lon="100.990805" lat="12.877300">
                <ele>61.600000</ele>
                <time>2018-02-26T10:18:43.644Z</time>
            </trkpt>
            <trkpt lon="100.990810" lat="12.877266">
                <ele>61.600000</ele>
                <time>2018-02-26T10:18:44.644Z</time>
            </trkpt>
            <trkpt lon="100.990814" lat="12.877237">
                <ele>61.700000</ele>
                <time>2018-02-26T10:18:45.644Z</time>
            </trkpt>
            <trkpt lon="100.990817" lat="12.877210">
                <ele>61.700000</ele>
                <time>2018-02-26T10:18:46.644Z</time>
            </trkpt>
            <trkpt lon="100.990820" lat="12.877182">
                <ele>61.700000</ele>
                <time>2018-02-26T10:18:47.644Z</time>
            </trkpt>
            <trkpt lon="100.990827" lat="12.877152">
                <ele>61.800000</ele>
                <time>2018-02-26T10:18:48.644Z</time>
            </trkpt>
            <trkpt lon="100.990838" lat="12.877122">
                <ele>61.500000</ele>
                <time>2018-02-26T10:18:49.644Z</time>
            </trkpt>
            <trkpt lon="100.990850" lat="12.877089">
                <ele>61.800000</ele>
                <time>2018-02-26T10:18:50.644Z</time>
            </trkpt>
            <trkpt lon="100.990857" lat="12.877051">
                <ele>62.100000</ele>
                <time>2018-02-26T10:18:51.644Z</time>
            </trkpt>
            <trkpt lon="100.990862" lat="12.877016">
                <ele>62.300000</ele>
                <time>2018-02-26T10:18:52.644Z</time>
            </trkpt>
            <trkpt lon="100.990868" lat="12.876982">
                <ele>62.700000</ele>
                <time>2018-02-26T10:18:53.644Z</time>
            </trkpt>
            <trkpt lon="100.990877" lat="12.876946">
                <ele>63.100000</ele>
                <time>2018-02-26T10:18:54.644Z</time>
            </trkpt>
            <trkpt lon="100.990889" lat="12.876913">
                <ele>63.000000</ele>
                <time>2018-02-26T10:18:55.644Z</time>
            </trkpt>
            <trkpt lon="100.990901" lat="12.876877">
                <ele>63.500000</ele>
                <time>2018-02-26T10:18:56.644Z</time>
            </trkpt>
            <trkpt lon="100.990909" lat="12.876842">
                <ele>64.100000</ele>
                <time>2018-02-26T10:18:57.644Z</time>
            </trkpt>
            <trkpt lon="100.990915" lat="12.876806">
                <ele>64.600000</ele>
                <time>2018-02-26T10:18:58.644Z</time>
            </trkpt>
            <trkpt lon="100.990925" lat="12.876772">
                <ele>64.800000</ele>
                <time>2018-02-26T10:18:59.644Z</time>
            </trkpt>
            <trkpt lon="100.990939" lat="12.876741">
                <ele>64.900000</ele>
                <time>2018-02-26T10:19:00.644Z</time>
            </trkpt>
            <trkpt lon="100.990960" lat="12.876711">
                <ele>65.100000</ele>
                <time>2018-02-26T10:19:01.644Z</time>
            </trkpt>
            <trkpt lon="100.990974" lat="12.876666">
                <ele>65.400000</ele>
                <time>2018-02-26T10:19:03.644Z</time>
            </trkpt>
            <trkpt lon="100.990984" lat="12.876628">
                <ele>65.600000</ele>
                <time>2018-02-26T10:19:05.644Z</time>
            </trkpt>
            <trkpt lon="100.991007" lat="12.876593">
                <ele>65.600000</ele>
                <time>2018-02-26T10:19:07.644Z</time>
            </trkpt>
            <trkpt lon="100.991045" lat="12.876575">
                <ele>65.600000</ele>
                <time>2018-02-26T10:19:09.644Z</time>
            </trkpt>
            <trkpt lon="100.991091" lat="12.876590">
                <ele>65.500000</ele>
                <time>2018-02-26T10:19:11.644Z</time>
            </trkpt>
            <trkpt lon="100.991135" lat="12.876605">
                <ele>65.000000</ele>
                <time>2018-02-26T10:19:13.644Z</time>
            </trkpt>
            <trkpt lon="100.991188" lat="12.876624">
                <ele>64.800000</ele>
                <time>2018-02-26T10:19:15.644Z</time>
            </trkpt>
            <trkpt lon="100.991221" lat="12.876630">
                <ele>64.600000</ele>
                <time>2018-02-26T10:19:16.644Z</time>
            </trkpt>
            <trkpt lon="100.991251" lat="12.876634">
                <ele>64.600000</ele>
                <time>2018-02-26T10:19:17.644Z</time>
            </trkpt>
            <trkpt lon="100.991283" lat="12.876637">
                <ele>64.300000</ele>
                <time>2018-02-26T10:19:18.644Z</time>
            </trkpt>
            <trkpt lon="100.991315" lat="12.876638">
                <ele>64.100000</ele>
                <time>2018-02-26T10:19:19.644Z</time>
            </trkpt>
            <trkpt lon="100.991348" lat="12.876639">
                <ele>64.100000</ele>
                <time>2018-02-26T10:19:20.644Z</time>
            </trkpt>
            <trkpt lon="100.991381" lat="12.876637">
                <ele>63.900000</ele>
                <time>2018-02-26T10:19:21.644Z</time>
            </trkpt>
            <trkpt lon="100.991410" lat="12.876635">
                <ele>63.800000</ele>
                <time>2018-02-26T10:19:22.644Z</time>
            </trkpt>
            <trkpt lon="100.991439" lat="12.876634">
                <ele>63.800000</ele>
                <time>2018-02-26T10:19:23.644Z</time>
            </trkpt>
            <trkpt lon="100.991468" lat="12.876640">
                <ele>63.800000</ele>
                <time>2018-02-26T10:19:24.644Z</time>
            </trkpt>
            <trkpt lon="100.991504" lat="12.876660">
                <ele>63.800000</ele>
                <time>2018-02-26T10:19:25.644Z</time>
            </trkpt>
            <trkpt lon="100.991543" lat="12.876679">
                <ele>63.900000</ele>
                <time>2018-02-26T10:19:26.644Z</time>
            </trkpt>
            <trkpt lon="100.991581" lat="12.876695">
                <ele>63.900000</ele>
                <time>2018-02-26T10:19:27.644Z</time>
            </trkpt>
            <trkpt lon="100.991619" lat="12.876702">
                <ele>63.900000</ele>
                <time>2018-02-26T10:19:28.644Z</time>
            </trkpt>
            <trkpt lon="100.991656" lat="12.876708">
                <ele>63.900000</ele>
                <time>2018-02-26T10:19:29.644Z</time>
            </trkpt>
            <trkpt lon="100.991691" lat="12.876714">
                <ele>63.900000</ele>
                <time>2018-02-26T10:19:30.644Z</time>
            </trkpt>
            <trkpt lon="100.991728" lat="12.876721">
                <ele>63.900000</ele>
                <time>2018-02-26T10:19:31.644Z</time>
            </trkpt>
            <trkpt lon="100.991759" lat="12.876734">
                <ele>64.000000</ele>
                <time>2018-02-26T10:19:32.644Z</time>
            </trkpt>
            <trkpt lon="100.991792" lat="12.876745">
                <ele>64.000000</ele>
                <time>2018-02-26T10:19:33.644Z</time>
            </trkpt>
            <trkpt lon="100.991820" lat="12.876750">
                <ele>64.000000</ele>
                <time>2018-02-26T10:19:34.644Z</time>
            </trkpt>
            <trkpt lon="100.991873" lat="12.876770">
                <ele>64.000000</ele>
                <time>2018-02-26T10:19:36.644Z</time>
            </trkpt>
            <trkpt lon="100.991900" lat="12.876782">
                <ele>64.000000</ele>
                <time>2018-02-26T10:19:37.644Z</time>
            </trkpt>
            <trkpt lon="100.991949" lat="12.876791">
                <ele>64.200000</ele>
                <time>2018-02-26T10:19:39.644Z</time>
            </trkpt>
            <trkpt lon="100.992000" lat="12.876806">
                <ele>64.600000</ele>
                <time>2018-02-26T10:19:41.644Z</time>
            </trkpt>
            <trkpt lon="100.992028" lat="12.876813">
                <ele>64.700000</ele>
                <time>2018-02-26T10:19:42.644Z</time>
            </trkpt>
            <trkpt lon="100.992078" lat="12.876822">
                <ele>64.900000</ele>
                <time>2018-02-26T10:19:44.644Z</time>
            </trkpt>
            <trkpt lon="100.992125" lat="12.876825">
                <ele>64.800000</ele>
                <time>2018-02-26T10:19:46.644Z</time>
            </trkpt>
            <trkpt lon="100.992166" lat="12.876808">
                <ele>64.500000</ele>
                <time>2018-02-26T10:19:48.644Z</time>
            </trkpt>
            <trkpt lon="100.992195" lat="12.876780">
                <ele>64.400000</ele>
                <time>2018-02-26T10:19:50.644Z</time>
            </trkpt>
            <trkpt lon="100.992189" lat="12.876737">
                <ele>64.300000</ele>
                <time>2018-02-26T10:19:52.644Z</time>
            </trkpt>
            <trkpt lon="100.992185" lat="12.876710">
                <ele>64.300000</ele>
                <time>2018-02-26T10:19:53.644Z</time>
            </trkpt>
            <trkpt lon="100.992179" lat="12.876680">
                <ele>64.300000</ele>
                <time>2018-02-26T10:19:54.644Z</time>
            </trkpt>
            <trkpt lon="100.992172" lat="12.876650">
                <ele>64.200000</ele>
                <time>2018-02-26T10:19:55.644Z</time>
            </trkpt>
            <trkpt lon="100.992166" lat="12.876623">
                <ele>64.200000</ele>
                <time>2018-02-26T10:19:56.644Z</time>
            </trkpt>
            <trkpt lon="100.992160" lat="12.876590">
                <ele>64.200000</ele>
                <time>2018-02-26T10:19:57.644Z</time>
            </trkpt>
            <trkpt lon="100.992156" lat="12.876556">
                <ele>64.300000</ele>
                <time>2018-02-26T10:19:58.644Z</time>
            </trkpt>
            <trkpt lon="100.992151" lat="12.876521">
                <ele>64.300000</ele>
                <time>2018-02-26T10:19:59.644Z</time>
            </trkpt>
            <trkpt lon="100.992146" lat="12.876489">
                <ele>64.300000</ele>
                <time>2018-02-26T10:20:00.644Z</time>
            </trkpt>
            <trkpt lon="100.992143" lat="12.876454">
                <ele>64.300000</ele>
                <time>2018-02-26T10:20:01.644Z</time>
            </trkpt>
            <trkpt lon="100.992138" lat="12.876417">
                <ele>64.300000</ele>
                <time>2018-02-26T10:20:02.644Z</time>
            </trkpt>
            <trkpt lon="100.992133" lat="12.876375">
                <ele>64.300000</ele>
                <time>2018-02-26T10:20:03.644Z</time>
            </trkpt>
            <trkpt lon="100.992127" lat="12.876334">
                <ele>64.400000</ele>
                <time>2018-02-26T10:20:04.644Z</time>
            </trkpt>
            <trkpt lon="100.992120" lat="12.876293">
                <ele>64.400000</ele>
                <time>2018-02-26T10:20:05.644Z</time>
            </trkpt>
            <trkpt lon="100.992109" lat="12.876253">
                <ele>64.700000</ele>
                <time>2018-02-26T10:20:06.644Z</time>
            </trkpt>
            <trkpt lon="100.992103" lat="12.876211">
                <ele>65.000000</ele>
                <time>2018-02-26T10:20:07.644Z</time>
            </trkpt>
            <trkpt lon="100.992096" lat="12.876167">
                <ele>65.200000</ele>
                <time>2018-02-26T10:20:08.644Z</time>
            </trkpt>
            <trkpt lon="100.992089" lat="12.876127">
                <ele>65.500000</ele>
                <time>2018-02-26T10:20:09.644Z</time>
            </trkpt>
            <trkpt lon="100.992084" lat="12.876083">
                <ele>65.700000</ele>
                <time>2018-02-26T10:20:10.644Z</time>
            </trkpt>
            <trkpt lon="100.992080" lat="12.876039">
                <ele>66.100000</ele>
                <time>2018-02-26T10:20:11.644Z</time>
            </trkpt>
            <trkpt lon="100.992076" lat="12.875997">
                <ele>66.300000</ele>
                <time>2018-02-26T10:20:12.644Z</time>
            </trkpt>
            <trkpt lon="100.992074" lat="12.875956">
                <ele>66.400000</ele>
                <time>2018-02-26T10:20:13.644Z</time>
            </trkpt>
            <trkpt lon="100.992072" lat="12.875914">
                <ele>66.400000</ele>
                <time>2018-02-26T10:20:14.644Z</time>
            </trkpt>
            <trkpt lon="100.992070" lat="12.875874">
                <ele>66.500000</ele>
                <time>2018-02-26T10:20:15.644Z</time>
            </trkpt>
            <trkpt lon="100.992067" lat="12.875832">
                <ele>66.500000</ele>
                <time>2018-02-26T10:20:16.644Z</time>
            </trkpt>
            <trkpt lon="100.992063" lat="12.875790">
                <ele>66.700000</ele>
                <time>2018-02-26T10:20:17.644Z</time>
            </trkpt>
            <trkpt lon="100.992059" lat="12.875742">
                <ele>67.000000</ele>
                <time>2018-02-26T10:20:18.644Z</time>
            </trkpt>
            <trkpt lon="100.992054" lat="12.875699">
                <ele>67.200000</ele>
                <time>2018-02-26T10:20:19.644Z</time>
            </trkpt>
            <trkpt lon="100.992047" lat="12.875658">
                <ele>67.400000</ele>
                <time>2018-02-26T10:20:20.644Z</time>
            </trkpt>
            <trkpt lon="100.992043" lat="12.875617">
                <ele>67.300000</ele>
                <time>2018-02-26T10:20:21.644Z</time>
            </trkpt>
            <trkpt lon="100.992039" lat="12.875572">
                <ele>67.100000</ele>
                <time>2018-02-26T10:20:22.644Z</time>
            </trkpt>
            <trkpt lon="100.992035" lat="12.875524">
                <ele>66.700000</ele>
                <time>2018-02-26T10:20:23.644Z</time>
            </trkpt>
            <trkpt lon="100.992028" lat="12.875486">
                <ele>66.700000</ele>
                <time>2018-02-26T10:20:24.644Z</time>
            </trkpt>
            <trkpt lon="100.992022" lat="12.875445">
                <ele>66.500000</ele>
                <time>2018-02-26T10:20:25.644Z</time>
            </trkpt>
            <trkpt lon="100.992017" lat="12.875398">
                <ele>66.000000</ele>
                <time>2018-02-26T10:20:26.644Z</time>
            </trkpt>
            <trkpt lon="100.992010" lat="12.875354">
                <ele>65.800000</ele>
                <time>2018-02-26T10:20:27.644Z</time>
            </trkpt>
            <trkpt lon="100.992003" lat="12.875309">
                <ele>65.700000</ele>
                <time>2018-02-26T10:20:28.644Z</time>
            </trkpt>
            <trkpt lon="100.991997" lat="12.875266">
                <ele>65.800000</ele>
                <time>2018-02-26T10:20:29.644Z</time>
            </trkpt>
            <trkpt lon="100.991993" lat="12.875223">
                <ele>65.800000</ele>
                <time>2018-02-26T10:20:30.644Z</time>
            </trkpt>
            <trkpt lon="100.991988" lat="12.875178">
                <ele>65.800000</ele>
                <time>2018-02-26T10:20:31.644Z</time>
            </trkpt>
            <trkpt lon="100.991982" lat="12.875137">
                <ele>65.800000</ele>
                <time>2018-02-26T10:20:32.644Z</time>
            </trkpt>
            <trkpt lon="100.991975" lat="12.875098">
                <ele>65.800000</ele>
                <time>2018-02-26T10:20:33.644Z</time>
            </trkpt>
            <trkpt lon="100.991968" lat="12.875058">
                <ele>65.800000</ele>
                <time>2018-02-26T10:20:34.644Z</time>
            </trkpt>
            <trkpt lon="100.991963" lat="12.875019">
                <ele>65.900000</ele>
                <time>2018-02-26T10:20:35.644Z</time>
            </trkpt>
            <trkpt lon="100.991961" lat="12.874991">
                <ele>65.900000</ele>
                <time>2018-02-26T10:20:36.644Z</time>
            </trkpt>
            <trkpt lon="100.991963" lat="12.874955">
                <ele>65.900000</ele>
                <time>2018-02-26T10:20:39.644Z</time>
            </trkpt>
            <trkpt lon="100.991930" lat="12.874950">
                <ele>66.000000</ele>
                <time>2018-02-26T10:20:41.644Z</time>
            </trkpt>
            <trkpt lon="100.991897" lat="12.874945">
                <ele>66.000000</ele>
                <time>2018-02-26T10:20:43.644Z</time>
            </trkpt>
            <trkpt lon="100.991860" lat="12.874943">
                <ele>66.000000</ele>
                <time>2018-02-26T10:20:45.644Z</time>
            </trkpt>
            <trkpt lon="100.991815" lat="12.874942">
                <ele>66.000000</ele>
                <time>2018-02-26T10:20:47.644Z</time>
            </trkpt>
            <trkpt lon="100.991773" lat="12.874943">
                <ele>66.000000</ele>
                <time>2018-02-26T10:20:49.644Z</time>
            </trkpt>
            <trkpt lon="100.991722" lat="12.874945">
                <ele>66.000000</ele>
                <time>2018-02-26T10:20:51.644Z</time>
            </trkpt>
            <trkpt lon="100.991691" lat="12.874948">
                <ele>66.000000</ele>
                <time>2018-02-26T10:20:52.644Z</time>
            </trkpt>
            <trkpt lon="100.991663" lat="12.874950">
                <ele>66.000000</ele>
                <time>2018-02-26T10:20:53.644Z</time>
            </trkpt>
            <trkpt lon="100.991608" lat="12.874957">
                <ele>65.900000</ele>
                <time>2018-02-26T10:20:55.644Z</time>
            </trkpt>
            <trkpt lon="100.991552" lat="12.874957">
                <ele>65.800000</ele>
                <time>2018-02-26T10:20:57.644Z</time>
            </trkpt>
            <trkpt lon="100.991515" lat="12.874957">
                <ele>65.700000</ele>
                <time>2018-02-26T10:20:58.644Z</time>
            </trkpt>
            <trkpt lon="100.991481" lat="12.874955">
                <ele>65.500000</ele>
                <time>2018-02-26T10:20:59.644Z</time>
            </trkpt>
            <trkpt lon="100.991448" lat="12.874955">
                <ele>65.300000</ele>
                <time>2018-02-26T10:21:00.644Z</time>
            </trkpt>
            <trkpt lon="100.991410" lat="12.874958">
                <ele>65.100000</ele>
                <time>2018-02-26T10:21:01.644Z</time>
            </trkpt>
            <trkpt lon="100.991363" lat="12.874964">
                <ele>64.800000</ele>
                <time>2018-02-26T10:21:02.644Z</time>
            </trkpt>
            <trkpt lon="100.991323" lat="12.874970">
                <ele>64.600000</ele>
                <time>2018-02-26T10:21:03.644Z</time>
            </trkpt>
            <trkpt lon="100.991286" lat="12.874971">
                <ele>64.400000</ele>
                <time>2018-02-26T10:21:04.644Z</time>
            </trkpt>
            <trkpt lon="100.991249" lat="12.874974">
                <ele>64.300000</ele>
                <time>2018-02-26T10:21:05.644Z</time>
            </trkpt>
            <trkpt lon="100.991210" lat="12.874977">
                <ele>64.200000</ele>
                <time>2018-02-26T10:21:06.644Z</time>
            </trkpt>
            <trkpt lon="100.991175" lat="12.874977">
                <ele>64.200000</ele>
                <time>2018-02-26T10:21:07.644Z</time>
            </trkpt>
            <trkpt lon="100.991139" lat="12.874983">
                <ele>64.400000</ele>
                <time>2018-02-26T10:21:08.644Z</time>
            </trkpt>
            <trkpt lon="100.991102" lat="12.874987">
                <ele>64.600000</ele>
                <time>2018-02-26T10:21:09.644Z</time>
            </trkpt>
            <trkpt lon="100.991067" lat="12.874991">
                <ele>64.700000</ele>
                <time>2018-02-26T10:21:10.644Z</time>
            </trkpt>
            <trkpt lon="100.991028" lat="12.874996">
                <ele>64.800000</ele>
                <time>2018-02-26T10:21:11.644Z</time>
            </trkpt>
            <trkpt lon="100.990991" lat="12.875001">
                <ele>64.900000</ele>
                <time>2018-02-26T10:21:12.644Z</time>
            </trkpt>
            <trkpt lon="100.990959" lat="12.875007">
                <ele>64.900000</ele>
                <time>2018-02-26T10:21:13.644Z</time>
            </trkpt>
            <trkpt lon="100.990928" lat="12.875012">
                <ele>65.000000</ele>
                <time>2018-02-26T10:21:14.644Z</time>
            </trkpt>
            <trkpt lon="100.990900" lat="12.875012">
                <ele>65.000000</ele>
                <time>2018-02-26T10:21:15.644Z</time>
            </trkpt>
            <trkpt lon="100.990871" lat="12.875013">
                <ele>64.900000</ele>
                <time>2018-02-26T10:21:16.644Z</time>
            </trkpt>
            <trkpt lon="100.990820" lat="12.875017">
                <ele>64.900000</ele>
                <time>2018-02-26T10:21:18.644Z</time>
            </trkpt>
            <trkpt lon="100.990791" lat="12.875019">
                <ele>64.700000</ele>
                <time>2018-02-26T10:21:19.644Z</time>
            </trkpt>
            <trkpt lon="100.990757" lat="12.875020">
                <ele>64.500000</ele>
                <time>2018-02-26T10:21:20.644Z</time>
            </trkpt>
            <trkpt lon="100.990722" lat="12.875019">
                <ele>64.400000</ele>
                <time>2018-02-26T10:21:21.644Z</time>
            </trkpt>
            <trkpt lon="100.990683" lat="12.875018">
                <ele>64.200000</ele>
                <time>2018-02-26T10:21:22.644Z</time>
            </trkpt>
            <trkpt lon="100.990642" lat="12.875016">
                <ele>64.000000</ele>
                <time>2018-02-26T10:21:23.644Z</time>
            </trkpt>
            <trkpt lon="100.990599" lat="12.875014">
                <ele>64.000000</ele>
                <time>2018-02-26T10:21:24.644Z</time>
            </trkpt>
            <trkpt lon="100.990554" lat="12.875015">
                <ele>64.000000</ele>
                <time>2018-02-26T10:21:25.644Z</time>
            </trkpt>
            <trkpt lon="100.990507" lat="12.875017">
                <ele>63.900000</ele>
                <time>2018-02-26T10:21:26.644Z</time>
            </trkpt>
            <trkpt lon="100.990461" lat="12.875020">
                <ele>63.900000</ele>
                <time>2018-02-26T10:21:27.644Z</time>
            </trkpt>
            <trkpt lon="100.990414" lat="12.875022">
                <ele>63.900000</ele>
                <time>2018-02-26T10:21:28.644Z</time>
            </trkpt>
            <trkpt lon="100.990370" lat="12.875026">
                <ele>64.000000</ele>
                <time>2018-02-26T10:21:29.644Z</time>
            </trkpt>
            <trkpt lon="100.990328" lat="12.875028">
                <ele>64.000000</ele>
                <time>2018-02-26T10:21:30.644Z</time>
            </trkpt>
            <trkpt lon="100.990286" lat="12.875030">
                <ele>64.000000</ele>
                <time>2018-02-26T10:21:31.644Z</time>
            </trkpt>
            <trkpt lon="100.990248" lat="12.875029">
                <ele>64.000000</ele>
                <time>2018-02-26T10:21:32.644Z</time>
            </trkpt>
            <trkpt lon="100.990207" lat="12.875023">
                <ele>64.000000</ele>
                <time>2018-02-26T10:21:33.644Z</time>
            </trkpt>
            <trkpt lon="100.990170" lat="12.875018">
                <ele>64.000000</ele>
                <time>2018-02-26T10:21:34.644Z</time>
            </trkpt>
            <trkpt lon="100.990133" lat="12.875015">
                <ele>64.000000</ele>
                <time>2018-02-26T10:21:35.644Z</time>
            </trkpt>
            <trkpt lon="100.990097" lat="12.875013">
                <ele>64.000000</ele>
                <time>2018-02-26T10:21:36.644Z</time>
            </trkpt>
            <trkpt lon="100.990057" lat="12.875010">
                <ele>64.000000</ele>
                <time>2018-02-26T10:21:37.644Z</time>
            </trkpt>
            <trkpt lon="100.990016" lat="12.875006">
                <ele>64.000000</ele>
                <time>2018-02-26T10:21:38.644Z</time>
            </trkpt>
            <trkpt lon="100.989989" lat="12.875003">
                <ele>64.000000</ele>
                <time>2018-02-26T10:21:39.644Z</time>
            </trkpt>
            <trkpt lon="100.989957" lat="12.874995">
                <ele>64.000000</ele>
                <time>2018-02-26T10:21:40.644Z</time>
            </trkpt>
            <trkpt lon="100.989922" lat="12.874989">
                <ele>64.000000</ele>
                <time>2018-02-26T10:21:41.644Z</time>
            </trkpt>
            <trkpt lon="100.989888" lat="12.874981">
                <ele>64.000000</ele>
                <time>2018-02-26T10:21:42.644Z</time>
            </trkpt>
            <trkpt lon="100.989854" lat="12.874975">
                <ele>64.000000</ele>
                <time>2018-02-26T10:21:43.644Z</time>
            </trkpt>
            <trkpt lon="100.989815" lat="12.874975">
                <ele>64.000000</ele>
                <time>2018-02-26T10:21:44.644Z</time>
            </trkpt>
            <trkpt lon="100.989781" lat="12.874977">
                <ele>64.000000</ele>
                <time>2018-02-26T10:21:45.644Z</time>
            </trkpt>
            <trkpt lon="100.989749" lat="12.874976">
                <ele>64.000000</ele>
                <time>2018-02-26T10:21:46.644Z</time>
            </trkpt>
            <trkpt lon="100.989719" lat="12.874974">
                <ele>64.000000</ele>
                <time>2018-02-26T10:21:47.644Z</time>
            </trkpt>
            <trkpt lon="100.989689" lat="12.874973">
                <ele>64.000000</ele>
                <time>2018-02-26T10:21:48.644Z</time>
            </trkpt>
            <trkpt lon="100.989656" lat="12.874972">
                <ele>63.900000</ele>
                <time>2018-02-26T10:21:49.644Z</time>
            </trkpt>
            <trkpt lon="100.989623" lat="12.874971">
                <ele>63.900000</ele>
                <time>2018-02-26T10:21:50.644Z</time>
            </trkpt>
            <trkpt lon="100.989594" lat="12.874971">
                <ele>63.900000</ele>
                <time>2018-02-26T10:21:51.644Z</time>
            </trkpt>
            <trkpt lon="100.989558" lat="12.874972">
                <ele>63.900000</ele>
                <time>2018-02-26T10:21:52.644Z</time>
            </trkpt>
            <trkpt lon="100.989528" lat="12.874972">
                <ele>63.900000</ele>
                <time>2018-02-26T10:21:53.644Z</time>
            </trkpt>
            <trkpt lon="100.989493" lat="12.874974">
                <ele>63.900000</ele>
                <time>2018-02-26T10:21:54.644Z</time>
            </trkpt>
            <trkpt lon="100.989460" lat="12.874978">
                <ele>63.900000</ele>
                <time>2018-02-26T10:21:55.644Z</time>
            </trkpt>
            <trkpt lon="100.989426" lat="12.874981">
                <ele>63.900000</ele>
                <time>2018-02-26T10:21:56.644Z</time>
            </trkpt>
            <trkpt lon="100.989392" lat="12.874990">
                <ele>63.900000</ele>
                <time>2018-02-26T10:21:57.644Z</time>
            </trkpt>
            <trkpt lon="100.989356" lat="12.874996">
                <ele>63.900000</ele>
                <time>2018-02-26T10:21:58.644Z</time>
            </trkpt>
            <trkpt lon="100.989320" lat="12.875002">
                <ele>63.900000</ele>
                <time>2018-02-26T10:21:59.644Z</time>
            </trkpt>
            <trkpt lon="100.989285" lat="12.875007">
                <ele>63.900000</ele>
                <time>2018-02-26T10:22:00.644Z</time>
            </trkpt>
            <trkpt lon="100.989248" lat="12.875006">
                <ele>63.900000</ele>
                <time>2018-02-26T10:22:01.644Z</time>
            </trkpt>
            <trkpt lon="100.989214" lat="12.874997">
                <ele>63.800000</ele>
                <time>2018-02-26T10:22:02.644Z</time>
            </trkpt>
            <trkpt lon="100.989185" lat="12.874994">
                <ele>63.600000</ele>
                <time>2018-02-26T10:22:03.644Z</time>
            </trkpt>
            <trkpt lon="100.989137" lat="12.874998">
                <ele>63.400000</ele>
                <time>2018-02-26T10:22:05.644Z</time>
            </trkpt>
            <trkpt lon="100.989109" lat="12.875001">
                <ele>63.200000</ele>
                <time>2018-02-26T10:22:06.644Z</time>
            </trkpt>
            <trkpt lon="100.989081" lat="12.875000">
                <ele>63.100000</ele>
                <time>2018-02-26T10:22:07.644Z</time>
            </trkpt>
            <trkpt lon="100.989051" lat="12.874999">
                <ele>62.900000</ele>
                <time>2018-02-26T10:22:08.644Z</time>
            </trkpt>
            <trkpt lon="100.989018" lat="12.874999">
                <ele>62.800000</ele>
                <time>2018-02-26T10:22:09.644Z</time>
            </trkpt>
            <trkpt lon="100.988983" lat="12.874999">
                <ele>62.600000</ele>
                <time>2018-02-26T10:22:10.644Z</time>
            </trkpt>
            <trkpt lon="100.988951" lat="12.874999">
                <ele>62.500000</ele>
                <time>2018-02-26T10:22:11.644Z</time>
            </trkpt>
            <trkpt lon="100.988922" lat="12.874996">
                <ele>62.300000</ele>
                <time>2018-02-26T10:22:12.644Z</time>
            </trkpt>
            <trkpt lon="100.988892" lat="12.874990">
                <ele>62.500000</ele>
                <time>2018-02-26T10:22:13.644Z</time>
            </trkpt>
            <trkpt lon="100.988865" lat="12.874983">
                <ele>62.600000</ele>
                <time>2018-02-26T10:22:14.644Z</time>
            </trkpt>
            <trkpt lon="100.988843" lat="12.874961">
                <ele>62.500000</ele>
                <time>2018-02-26T10:22:15.644Z</time>
            </trkpt>
            <trkpt lon="100.988825" lat="12.874931">
                <ele>62.500000</ele>
                <time>2018-02-26T10:22:16.644Z</time>
            </trkpt>
            <trkpt lon="100.988809" lat="12.874905">
                <ele>62.700000</ele>
                <time>2018-02-26T10:22:17.644Z</time>
            </trkpt>
            <trkpt lon="100.988797" lat="12.874879">
                <ele>62.900000</ele>
                <time>2018-02-26T10:22:18.644Z</time>
            </trkpt>
            <trkpt lon="100.988794" lat="12.874829">
                <ele>63.300000</ele>
                <time>2018-02-26T10:22:20.644Z</time>
            </trkpt>
            <trkpt lon="100.988794" lat="12.874798">
                <ele>63.500000</ele>
                <time>2018-02-26T10:22:21.644Z</time>
            </trkpt>
            <trkpt lon="100.988791" lat="12.874765">
                <ele>63.700000</ele>
                <time>2018-02-26T10:22:22.644Z</time>
            </trkpt>
            <trkpt lon="100.988787" lat="12.874732">
                <ele>63.800000</ele>
                <time>2018-02-26T10:22:23.644Z</time>
            </trkpt>
            <trkpt lon="100.988785" lat="12.874699">
                <ele>63.900000</ele>
                <time>2018-02-26T10:22:24.644Z</time>
            </trkpt>
            <trkpt lon="100.988783" lat="12.874666">
                <ele>63.900000</ele>
                <time>2018-02-26T10:22:25.644Z</time>
            </trkpt>
            <trkpt lon="100.988779" lat="12.874629">
                <ele>64.000000</ele>
                <time>2018-02-26T10:22:26.644Z</time>
            </trkpt>
            <trkpt lon="100.988775" lat="12.874592">
                <ele>64.000000</ele>
                <time>2018-02-26T10:22:27.644Z</time>
            </trkpt>
            <trkpt lon="100.988771" lat="12.874555">
                <ele>64.000000</ele>
                <time>2018-02-26T10:22:28.644Z</time>
            </trkpt>
            <trkpt lon="100.988769" lat="12.874514">
                <ele>64.000000</ele>
                <time>2018-02-26T10:22:29.644Z</time>
            </trkpt>
            <trkpt lon="100.988766" lat="12.874470">
                <ele>64.000000</ele>
                <time>2018-02-26T10:22:30.644Z</time>
            </trkpt>
            <trkpt lon="100.988763" lat="12.874422">
                <ele>64.000000</ele>
                <time>2018-02-26T10:22:31.644Z</time>
            </trkpt>
            <trkpt lon="100.988757" lat="12.874378">
                <ele>64.000000</ele>
                <time>2018-02-26T10:22:32.644Z</time>
            </trkpt>
            <trkpt lon="100.988751" lat="12.874332">
                <ele>64.100000</ele>
                <time>2018-02-26T10:22:33.644Z</time>
            </trkpt>
            <trkpt lon="100.988746" lat="12.874293">
                <ele>64.300000</ele>
                <time>2018-02-26T10:22:34.644Z</time>
            </trkpt>
            <trkpt lon="100.988738" lat="12.874249">
                <ele>64.500000</ele>
                <time>2018-02-26T10:22:35.644Z</time>
            </trkpt>
            <trkpt lon="100.988731" lat="12.874205">
                <ele>64.800000</ele>
                <time>2018-02-26T10:22:36.644Z</time>
            </trkpt>
            <trkpt lon="100.988723" lat="12.874161">
                <ele>65.000000</ele>
                <time>2018-02-26T10:22:37.644Z</time>
            </trkpt>
            <trkpt lon="100.988713" lat="12.874112">
                <ele>65.300000</ele>
                <time>2018-02-26T10:22:38.644Z</time>
            </trkpt>
            <trkpt lon="100.988703" lat="12.874071">
                <ele>65.500000</ele>
                <time>2018-02-26T10:22:39.644Z</time>
            </trkpt>
            <trkpt lon="100.988693" lat="12.874029">
                <ele>65.800000</ele>
                <time>2018-02-26T10:22:40.644Z</time>
            </trkpt>
            <trkpt lon="100.988686" lat="12.873982">
                <ele>65.900000</ele>
                <time>2018-02-26T10:22:41.644Z</time>
            </trkpt>
            <trkpt lon="100.988680" lat="12.873943">
                <ele>66.000000</ele>
                <time>2018-02-26T10:22:42.644Z</time>
            </trkpt>
            <trkpt lon="100.988673" lat="12.873901">
                <ele>66.000000</ele>
                <time>2018-02-26T10:22:43.644Z</time>
            </trkpt>
            <trkpt lon="100.988666" lat="12.873860">
                <ele>65.900000</ele>
                <time>2018-02-26T10:22:44.644Z</time>
            </trkpt>
            <trkpt lon="100.988657" lat="12.873818">
                <ele>65.800000</ele>
                <time>2018-02-26T10:22:45.644Z</time>
            </trkpt>
            <trkpt lon="100.988651" lat="12.873776">
                <ele>65.400000</ele>
                <time>2018-02-26T10:22:46.644Z</time>
            </trkpt>
            <trkpt lon="100.988644" lat="12.873735">
                <ele>65.000000</ele>
                <time>2018-02-26T10:22:47.644Z</time>
            </trkpt>
            <trkpt lon="100.988637" lat="12.873700">
                <ele>64.600000</ele>
                <time>2018-02-26T10:22:48.644Z</time>
            </trkpt>
            <trkpt lon="100.988637" lat="12.873664">
                <ele>64.200000</ele>
                <time>2018-02-26T10:22:49.644Z</time>
            </trkpt>
            <trkpt lon="100.988640" lat="12.873636">
                <ele>63.900000</ele>
                <time>2018-02-26T10:22:50.644Z</time>
            </trkpt>
            <trkpt lon="100.988641" lat="12.873607">
                <ele>63.600000</ele>
                <time>2018-02-26T10:22:51.644Z</time>
            </trkpt>
            <trkpt lon="100.988640" lat="12.873578">
                <ele>63.300000</ele>
                <time>2018-02-26T10:22:52.644Z</time>
            </trkpt>
            <trkpt lon="100.988636" lat="12.873544">
                <ele>62.900000</ele>
                <time>2018-02-26T10:22:53.644Z</time>
            </trkpt>
            <trkpt lon="100.988631" lat="12.873508">
                <ele>62.500000</ele>
                <time>2018-02-26T10:22:54.644Z</time>
            </trkpt>
            <trkpt lon="100.988627" lat="12.873469">
                <ele>62.100000</ele>
                <time>2018-02-26T10:22:55.644Z</time>
            </trkpt>
            <trkpt lon="100.988621" lat="12.873428">
                <ele>61.800000</ele>
                <time>2018-02-26T10:22:56.644Z</time>
            </trkpt>
            <trkpt lon="100.988614" lat="12.873384">
                <ele>61.500000</ele>
                <time>2018-02-26T10:22:57.644Z</time>
            </trkpt>
            <trkpt lon="100.988605" lat="12.873343">
                <ele>61.300000</ele>
                <time>2018-02-26T10:22:58.644Z</time>
            </trkpt>
            <trkpt lon="100.988597" lat="12.873302">
                <ele>61.100000</ele>
                <time>2018-02-26T10:22:59.644Z</time>
            </trkpt>
            <trkpt lon="100.988589" lat="12.873259">
                <ele>60.800000</ele>
                <time>2018-02-26T10:23:00.644Z</time>
            </trkpt>
            <trkpt lon="100.988582" lat="12.873219">
                <ele>60.600000</ele>
                <time>2018-02-26T10:23:01.644Z</time>
            </trkpt>
            <trkpt lon="100.988577" lat="12.873180">
                <ele>60.400000</ele>
                <time>2018-02-26T10:23:02.644Z</time>
            </trkpt>
            <trkpt lon="100.988570" lat="12.873142">
                <ele>60.100000</ele>
                <time>2018-02-26T10:23:03.644Z</time>
            </trkpt>
            <trkpt lon="100.988564" lat="12.873097">
                <ele>60.000000</ele>
                <time>2018-02-26T10:23:04.644Z</time>
            </trkpt>
            <trkpt lon="100.988556" lat="12.873053">
                <ele>60.000000</ele>
                <time>2018-02-26T10:23:05.644Z</time>
            </trkpt>
            <trkpt lon="100.988547" lat="12.873008">
                <ele>60.000000</ele>
                <time>2018-02-26T10:23:06.644Z</time>
            </trkpt>
            <trkpt lon="100.988540" lat="12.872964">
                <ele>60.000000</ele>
                <time>2018-02-26T10:23:07.644Z</time>
            </trkpt>
            <trkpt lon="100.988535" lat="12.872926">
                <ele>60.000000</ele>
                <time>2018-02-26T10:23:08.644Z</time>
            </trkpt>
            <trkpt lon="100.988527" lat="12.872896">
                <ele>60.000000</ele>
                <time>2018-02-26T10:23:09.644Z</time>
            </trkpt>
            <trkpt lon="100.988498" lat="12.872874">
                <ele>60.000000</ele>
                <time>2018-02-26T10:23:11.644Z</time>
            </trkpt>
            <trkpt lon="100.988459" lat="12.872878">
                <ele>59.900000</ele>
                <time>2018-02-26T10:23:23.644Z</time>
            </trkpt>
            <trkpt lon="100.988414" lat="12.872875">
                <ele>60.000000</ele>
                <time>2018-02-26T10:23:25.644Z</time>
            </trkpt>
            <trkpt lon="100.988379" lat="12.872875">
                <ele>60.000000</ele>
                <time>2018-02-26T10:23:26.644Z</time>
            </trkpt>
            <trkpt lon="100.988346" lat="12.872877">
                <ele>59.900000</ele>
                <time>2018-02-26T10:23:27.644Z</time>
            </trkpt>
            <trkpt lon="100.988314" lat="12.872878">
                <ele>59.900000</ele>
                <time>2018-02-26T10:23:28.644Z</time>
            </trkpt>
            <trkpt lon="100.988277" lat="12.872882">
                <ele>60.000000</ele>
                <time>2018-02-26T10:23:29.644Z</time>
            </trkpt>
            <trkpt lon="100.988240" lat="12.872883">
                <ele>60.100000</ele>
                <time>2018-02-26T10:23:30.644Z</time>
            </trkpt>
            <trkpt lon="100.988203" lat="12.872883">
                <ele>60.200000</ele>
                <time>2018-02-26T10:23:31.644Z</time>
            </trkpt>
            <trkpt lon="100.988165" lat="12.872880">
                <ele>60.300000</ele>
                <time>2018-02-26T10:23:32.644Z</time>
            </trkpt>
            <trkpt lon="100.988126" lat="12.872876">
                <ele>60.300000</ele>
                <time>2018-02-26T10:23:33.644Z</time>
            </trkpt>
            <trkpt lon="100.988087" lat="12.872875">
                <ele>60.300000</ele>
                <time>2018-02-26T10:23:34.644Z</time>
            </trkpt>
            <trkpt lon="100.988046" lat="12.872874">
                <ele>60.200000</ele>
                <time>2018-02-26T10:23:35.644Z</time>
            </trkpt>
            <trkpt lon="100.988005" lat="12.872875">
                <ele>60.200000</ele>
                <time>2018-02-26T10:23:36.644Z</time>
            </trkpt>
            <trkpt lon="100.987959" lat="12.872877">
                <ele>60.100000</ele>
                <time>2018-02-26T10:23:37.644Z</time>
            </trkpt>
            <trkpt lon="100.987911" lat="12.872878">
                <ele>60.000000</ele>
                <time>2018-02-26T10:23:38.644Z</time>
            </trkpt>
            <trkpt lon="100.987863" lat="12.872879">
                <ele>60.000000</ele>
                <time>2018-02-26T10:23:39.644Z</time>
            </trkpt>
            <trkpt lon="100.987820" lat="12.872879">
                <ele>59.900000</ele>
                <time>2018-02-26T10:23:40.644Z</time>
            </trkpt>
            <trkpt lon="100.987778" lat="12.872881">
                <ele>59.800000</ele>
                <time>2018-02-26T10:23:41.644Z</time>
            </trkpt>
            <trkpt lon="100.987734" lat="12.872882">
                <ele>59.800000</ele>
                <time>2018-02-26T10:23:42.644Z</time>
            </trkpt>
            <trkpt lon="100.987696" lat="12.872876">
                <ele>59.700000</ele>
                <time>2018-02-26T10:23:43.644Z</time>
            </trkpt>
            <trkpt lon="100.987655" lat="12.872872">
                <ele>59.700000</ele>
                <time>2018-02-26T10:23:44.644Z</time>
            </trkpt>
            <trkpt lon="100.987615" lat="12.872867">
                <ele>59.600000</ele>
                <time>2018-02-26T10:23:45.644Z</time>
            </trkpt>
            <trkpt lon="100.987573" lat="12.872863">
                <ele>59.500000</ele>
                <time>2018-02-26T10:23:46.644Z</time>
            </trkpt>
            <trkpt lon="100.987532" lat="12.872862">
                <ele>59.400000</ele>
                <time>2018-02-26T10:23:47.644Z</time>
            </trkpt>
            <trkpt lon="100.987487" lat="12.872864">
                <ele>59.200000</ele>
                <time>2018-02-26T10:23:48.644Z</time>
            </trkpt>
            <trkpt lon="100.987439" lat="12.872860">
                <ele>58.900000</ele>
                <time>2018-02-26T10:23:49.644Z</time>
            </trkpt>
            <trkpt lon="100.987396" lat="12.872852">
                <ele>58.500000</ele>
                <time>2018-02-26T10:23:50.644Z</time>
            </trkpt>
            <trkpt lon="100.987354" lat="12.872847">
                <ele>58.500000</ele>
                <time>2018-02-26T10:23:51.644Z</time>
            </trkpt>
            <trkpt lon="100.987311" lat="12.872842">
                <ele>58.200000</ele>
                <time>2018-02-26T10:23:52.644Z</time>
            </trkpt>
            <trkpt lon="100.987269" lat="12.872836">
                <ele>57.900000</ele>
                <time>2018-02-26T10:23:53.644Z</time>
            </trkpt>
            <trkpt lon="100.987231" lat="12.872837">
                <ele>57.900000</ele>
                <time>2018-02-26T10:23:54.644Z</time>
            </trkpt>
            <trkpt lon="100.987190" lat="12.872850">
                <ele>57.400000</ele>
                <time>2018-02-26T10:23:55.644Z</time>
            </trkpt>
            <trkpt lon="100.987148" lat="12.872861">
                <ele>57.400000</ele>
                <time>2018-02-26T10:23:56.644Z</time>
            </trkpt>
            <trkpt lon="100.987110" lat="12.872863">
                <ele>57.400000</ele>
                <time>2018-02-26T10:23:57.644Z</time>
            </trkpt>
            <trkpt lon="100.987067" lat="12.872858">
                <ele>57.500000</ele>
                <time>2018-02-26T10:23:58.644Z</time>
            </trkpt>
            <trkpt lon="100.987032" lat="12.872854">
                <ele>57.700000</ele>
                <time>2018-02-26T10:23:59.644Z</time>
            </trkpt>
            <trkpt lon="100.986995" lat="12.872851">
                <ele>57.900000</ele>
                <time>2018-02-26T10:24:00.644Z</time>
            </trkpt>
            <trkpt lon="100.986957" lat="12.872848">
                <ele>58.300000</ele>
                <time>2018-02-26T10:24:01.644Z</time>
            </trkpt>
            <trkpt lon="100.986918" lat="12.872845">
                <ele>58.400000</ele>
                <time>2018-02-26T10:24:02.644Z</time>
            </trkpt>
            <trkpt lon="100.986880" lat="12.872845">
                <ele>58.400000</ele>
                <time>2018-02-26T10:24:03.644Z</time>
            </trkpt>
            <trkpt lon="100.986839" lat="12.872845">
                <ele>58.400000</ele>
                <time>2018-02-26T10:24:04.644Z</time>
            </trkpt>
            <trkpt lon="100.986798" lat="12.872844">
                <ele>58.300000</ele>
                <time>2018-02-26T10:24:05.644Z</time>
            </trkpt>
            <trkpt lon="100.986765" lat="12.872845">
                <ele>58.300000</ele>
                <time>2018-02-26T10:24:06.644Z</time>
            </trkpt>
            <trkpt lon="100.986737" lat="12.872843">
                <ele>58.200000</ele>
                <time>2018-02-26T10:24:07.644Z</time>
            </trkpt>
            <trkpt lon="100.986706" lat="12.872839">
                <ele>58.200000</ele>
                <time>2018-02-26T10:24:08.644Z</time>
            </trkpt>
            <trkpt lon="100.986673" lat="12.872839">
                <ele>58.100000</ele>
                <time>2018-02-26T10:24:09.644Z</time>
            </trkpt>
            <trkpt lon="100.986631" lat="12.872834">
                <ele>58.100000</ele>
                <time>2018-02-26T10:24:11.644Z</time>
            </trkpt>
            <trkpt lon="100.986594" lat="12.872814">
                <ele>58.000000</ele>
                <time>2018-02-26T10:24:13.644Z</time>
            </trkpt>
            <trkpt lon="100.986577" lat="12.872792">
                <ele>58.000000</ele>
                <time>2018-02-26T10:24:14.644Z</time>
            </trkpt>
            <trkpt lon="100.986560" lat="12.872734">
                <ele>57.900000</ele>
                <time>2018-02-26T10:24:16.644Z</time>
            </trkpt>
            <trkpt lon="100.986551" lat="12.872705">
                <ele>57.900000</ele>
                <time>2018-02-26T10:24:17.644Z</time>
            </trkpt>
            <trkpt lon="100.986538" lat="12.872673">
                <ele>57.800000</ele>
                <time>2018-02-26T10:24:18.644Z</time>
            </trkpt>
            <trkpt lon="100.986523" lat="12.872643">
                <ele>57.700000</ele>
                <time>2018-02-26T10:24:19.644Z</time>
            </trkpt>
            <trkpt lon="100.986503" lat="12.872620">
                <ele>57.600000</ele>
                <time>2018-02-26T10:24:20.644Z</time>
            </trkpt>
            <trkpt lon="100.986478" lat="12.872599">
                <ele>57.600000</ele>
                <time>2018-02-26T10:24:21.644Z</time>
            </trkpt>
            <trkpt lon="100.986449" lat="12.872581">
                <ele>57.500000</ele>
                <time>2018-02-26T10:24:22.644Z</time>
            </trkpt>
            <trkpt lon="100.986414" lat="12.872567">
                <ele>57.500000</ele>
                <time>2018-02-26T10:24:23.644Z</time>
            </trkpt>
            <trkpt lon="100.986380" lat="12.872558">
                <ele>57.400000</ele>
                <time>2018-02-26T10:24:24.644Z</time>
            </trkpt>
            <trkpt lon="100.986342" lat="12.872549">
                <ele>57.400000</ele>
                <time>2018-02-26T10:24:25.644Z</time>
            </trkpt>
            <trkpt lon="100.986302" lat="12.872543">
                <ele>57.300000</ele>
                <time>2018-02-26T10:24:26.644Z</time>
            </trkpt>
            <trkpt lon="100.986265" lat="12.872538">
                <ele>57.200000</ele>
                <time>2018-02-26T10:24:27.644Z</time>
            </trkpt>
            <trkpt lon="100.986225" lat="12.872537">
                <ele>57.200000</ele>
                <time>2018-02-26T10:24:28.644Z</time>
            </trkpt>
            <trkpt lon="100.986183" lat="12.872535">
                <ele>57.100000</ele>
                <time>2018-02-26T10:24:29.644Z</time>
            </trkpt>
            <trkpt lon="100.986136" lat="12.872530">
                <ele>57.100000</ele>
                <time>2018-02-26T10:24:30.644Z</time>
            </trkpt>
            <trkpt lon="100.986093" lat="12.872523">
                <ele>57.000000</ele>
                <time>2018-02-26T10:24:31.644Z</time>
            </trkpt>
            <trkpt lon="100.986050" lat="12.872515">
                <ele>56.900000</ele>
                <time>2018-02-26T10:24:32.644Z</time>
            </trkpt>
            <trkpt lon="100.986008" lat="12.872508">
                <ele>56.900000</ele>
                <time>2018-02-26T10:24:33.644Z</time>
            </trkpt>
            <trkpt lon="100.985960" lat="12.872501">
                <ele>56.800000</ele>
                <time>2018-02-26T10:24:34.644Z</time>
            </trkpt>
            <trkpt lon="100.985916" lat="12.872493">
                <ele>56.700000</ele>
                <time>2018-02-26T10:24:35.644Z</time>
            </trkpt>
            <trkpt lon="100.985873" lat="12.872486">
                <ele>56.700000</ele>
                <time>2018-02-26T10:24:36.644Z</time>
            </trkpt>
            <trkpt lon="100.985829" lat="12.872479">
                <ele>56.600000</ele>
                <time>2018-02-26T10:24:37.644Z</time>
            </trkpt>
            <trkpt lon="100.985787" lat="12.872471">
                <ele>56.600000</ele>
                <time>2018-02-26T10:24:38.644Z</time>
            </trkpt>
            <trkpt lon="100.985741" lat="12.872460">
                <ele>56.600000</ele>
                <time>2018-02-26T10:24:39.644Z</time>
            </trkpt>
            <trkpt lon="100.985698" lat="12.872451">
                <ele>56.500000</ele>
                <time>2018-02-26T10:24:40.644Z</time>
            </trkpt>
            <trkpt lon="100.985654" lat="12.872439">
                <ele>56.500000</ele>
                <time>2018-02-26T10:24:41.644Z</time>
            </trkpt>
            <trkpt lon="100.985611" lat="12.872430">
                <ele>56.500000</ele>
                <time>2018-02-26T10:24:42.644Z</time>
            </trkpt>
            <trkpt lon="100.985569" lat="12.872420">
                <ele>56.500000</ele>
                <time>2018-02-26T10:24:43.644Z</time>
            </trkpt>
            <trkpt lon="100.985527" lat="12.872413">
                <ele>56.400000</ele>
                <time>2018-02-26T10:24:44.644Z</time>
            </trkpt>
            <trkpt lon="100.985491" lat="12.872410">
                <ele>56.400000</ele>
                <time>2018-02-26T10:24:45.644Z</time>
            </trkpt>
            <trkpt lon="100.985452" lat="12.872405">
                <ele>56.300000</ele>
                <time>2018-02-26T10:24:46.644Z</time>
            </trkpt>
            <trkpt lon="100.985415" lat="12.872403">
                <ele>56.300000</ele>
                <time>2018-02-26T10:24:47.644Z</time>
            </trkpt>
            <trkpt lon="100.985377" lat="12.872405">
                <ele>56.300000</ele>
                <time>2018-02-26T10:24:48.644Z</time>
            </trkpt>
            <trkpt lon="100.985343" lat="12.872411">
                <ele>56.300000</ele>
                <time>2018-02-26T10:24:49.644Z</time>
            </trkpt>
            <trkpt lon="100.985308" lat="12.872421">
                <ele>56.200000</ele>
                <time>2018-02-26T10:24:50.644Z</time>
            </trkpt>
            <trkpt lon="100.985276" lat="12.872428">
                <ele>56.200000</ele>
                <time>2018-02-26T10:24:51.644Z</time>
            </trkpt>
            <trkpt lon="100.985242" lat="12.872437">
                <ele>56.200000</ele>
                <time>2018-02-26T10:24:52.644Z</time>
            </trkpt>
            <trkpt lon="100.985209" lat="12.872448">
                <ele>56.200000</ele>
                <time>2018-02-26T10:24:53.644Z</time>
            </trkpt>
            <trkpt lon="100.985175" lat="12.872458">
                <ele>56.100000</ele>
                <time>2018-02-26T10:24:54.644Z</time>
            </trkpt>
            <trkpt lon="100.985143" lat="12.872462">
                <ele>56.100000</ele>
                <time>2018-02-26T10:24:55.644Z</time>
            </trkpt>
            <trkpt lon="100.985107" lat="12.872469">
                <ele>56.100000</ele>
                <time>2018-02-26T10:24:56.644Z</time>
            </trkpt>
            <trkpt lon="100.985076" lat="12.872476">
                <ele>56.100000</ele>
                <time>2018-02-26T10:24:57.644Z</time>
            </trkpt>
            <trkpt lon="100.985044" lat="12.872482">
                <ele>56.100000</ele>
                <time>2018-02-26T10:24:58.644Z</time>
            </trkpt>
            <trkpt lon="100.985013" lat="12.872488">
                <ele>56.000000</ele>
                <time>2018-02-26T10:24:59.644Z</time>
            </trkpt>
            <trkpt lon="100.984981" lat="12.872494">
                <ele>56.000000</ele>
                <time>2018-02-26T10:25:00.644Z</time>
            </trkpt>
            <trkpt lon="100.984946" lat="12.872500">
                <ele>56.000000</ele>
                <time>2018-02-26T10:25:01.644Z</time>
            </trkpt>
            <trkpt lon="100.984910" lat="12.872504">
                <ele>56.000000</ele>
                <time>2018-02-26T10:25:02.644Z</time>
            </trkpt>
            <trkpt lon="100.984876" lat="12.872506">
                <ele>55.900000</ele>
                <time>2018-02-26T10:25:03.644Z</time>
            </trkpt>
            <trkpt lon="100.984840" lat="12.872512">
                <ele>55.900000</ele>
                <time>2018-02-26T10:25:04.644Z</time>
            </trkpt>
            <trkpt lon="100.984802" lat="12.872519">
                <ele>55.900000</ele>
                <time>2018-02-26T10:25:05.644Z</time>
            </trkpt>
            <trkpt lon="100.984764" lat="12.872527">
                <ele>55.800000</ele>
                <time>2018-02-26T10:25:06.644Z</time>
            </trkpt>
            <trkpt lon="100.984727" lat="12.872521">
                <ele>55.800000</ele>
                <time>2018-02-26T10:25:07.644Z</time>
            </trkpt>
            <trkpt lon="100.984692" lat="12.872503">
                <ele>55.800000</ele>
                <time>2018-02-26T10:25:08.644Z</time>
            </trkpt>
            <trkpt lon="100.984656" lat="12.872483">
                <ele>55.700000</ele>
                <time>2018-02-26T10:25:09.644Z</time>
            </trkpt>
            <trkpt lon="100.984625" lat="12.872456">
                <ele>55.700000</ele>
                <time>2018-02-26T10:25:10.644Z</time>
            </trkpt>
            <trkpt lon="100.984607" lat="12.872423">
                <ele>55.600000</ele>
                <time>2018-02-26T10:25:11.644Z</time>
            </trkpt>
            <trkpt lon="100.984595" lat="12.872390">
                <ele>55.600000</ele>
                <time>2018-02-26T10:25:12.644Z</time>
            </trkpt>
            <trkpt lon="100.984580" lat="12.872353">
                <ele>55.600000</ele>
                <time>2018-02-26T10:25:13.644Z</time>
            </trkpt>
            <trkpt lon="100.984564" lat="12.872315">
                <ele>55.500000</ele>
                <time>2018-02-26T10:25:14.644Z</time>
            </trkpt>
            <trkpt lon="100.984553" lat="12.872270">
                <ele>55.400000</ele>
                <time>2018-02-26T10:25:15.644Z</time>
            </trkpt>
            <trkpt lon="100.984536" lat="12.872222">
                <ele>55.400000</ele>
                <time>2018-02-26T10:25:16.644Z</time>
            </trkpt>
            <trkpt lon="100.984515" lat="12.872176">
                <ele>55.300000</ele>
                <time>2018-02-26T10:25:17.644Z</time>
            </trkpt>
            <trkpt lon="100.984491" lat="12.872130">
                <ele>55.200000</ele>
                <time>2018-02-26T10:25:18.644Z</time>
            </trkpt>
            <trkpt lon="100.984465" lat="12.872084">
                <ele>55.200000</ele>
                <time>2018-02-26T10:25:19.644Z</time>
            </trkpt>
            <trkpt lon="100.984434" lat="12.872039">
                <ele>55.100000</ele>
                <time>2018-02-26T10:25:20.644Z</time>
            </trkpt>
            <trkpt lon="100.984405" lat="12.871991">
                <ele>55.000000</ele>
                <time>2018-02-26T10:25:21.644Z</time>
            </trkpt>
            <trkpt lon="100.984377" lat="12.871938">
                <ele>54.900000</ele>
                <time>2018-02-26T10:25:22.644Z</time>
            </trkpt>
            <trkpt lon="100.984353" lat="12.871887">
                <ele>54.800000</ele>
                <time>2018-02-26T10:25:23.644Z</time>
            </trkpt>
            <trkpt lon="100.984326" lat="12.871840">
                <ele>54.800000</ele>
                <time>2018-02-26T10:25:24.644Z</time>
            </trkpt>
            <trkpt lon="100.984299" lat="12.871793">
                <ele>54.700000</ele>
                <time>2018-02-26T10:25:25.644Z</time>
            </trkpt>
            <trkpt lon="100.984274" lat="12.871749">
                <ele>54.600000</ele>
                <time>2018-02-26T10:25:26.644Z</time>
            </trkpt>
            <trkpt lon="100.984248" lat="12.871708">
                <ele>54.600000</ele>
                <time>2018-02-26T10:25:27.644Z</time>
            </trkpt>
            <trkpt lon="100.984222" lat="12.871670">
                <ele>54.500000</ele>
                <time>2018-02-26T10:25:28.644Z</time>
            </trkpt>
            <trkpt lon="100.984198" lat="12.871632">
                <ele>54.400000</ele>
                <time>2018-02-26T10:25:29.644Z</time>
            </trkpt>
            <trkpt lon="100.984176" lat="12.871592">
                <ele>54.400000</ele>
                <time>2018-02-26T10:25:30.644Z</time>
            </trkpt>
            <trkpt lon="100.984152" lat="12.871551">
                <ele>54.300000</ele>
                <time>2018-02-26T10:25:31.644Z</time>
            </trkpt>
            <trkpt lon="100.984130" lat="12.871514">
                <ele>54.300000</ele>
                <time>2018-02-26T10:25:32.644Z</time>
            </trkpt>
            <trkpt lon="100.984105" lat="12.871475">
                <ele>54.300000</ele>
                <time>2018-02-26T10:25:33.644Z</time>
            </trkpt>
            <trkpt lon="100.984078" lat="12.871436">
                <ele>54.200000</ele>
                <time>2018-02-26T10:25:34.644Z</time>
            </trkpt>
            <trkpt lon="100.984054" lat="12.871398">
                <ele>54.200000</ele>
                <time>2018-02-26T10:25:35.644Z</time>
            </trkpt>
            <trkpt lon="100.984032" lat="12.871360">
                <ele>54.100000</ele>
                <time>2018-02-26T10:25:36.644Z</time>
            </trkpt>
            <trkpt lon="100.984009" lat="12.871325">
                <ele>54.100000</ele>
                <time>2018-02-26T10:25:37.644Z</time>
            </trkpt>
            <trkpt lon="100.983982" lat="12.871292">
                <ele>54.100000</ele>
                <time>2018-02-26T10:25:38.644Z</time>
            </trkpt>
            <trkpt lon="100.983956" lat="12.871260">
                <ele>54.100000</ele>
                <time>2018-02-26T10:25:39.644Z</time>
            </trkpt>
            <trkpt lon="100.983933" lat="12.871226">
                <ele>54.000000</ele>
                <time>2018-02-26T10:25:40.644Z</time>
            </trkpt>
            <trkpt lon="100.983909" lat="12.871185">
                <ele>54.000000</ele>
                <time>2018-02-26T10:25:41.644Z</time>
            </trkpt>
            <trkpt lon="100.983887" lat="12.871142">
                <ele>53.900000</ele>
                <time>2018-02-26T10:25:42.644Z</time>
            </trkpt>
            <trkpt lon="100.983863" lat="12.871098">
                <ele>53.800000</ele>
                <time>2018-02-26T10:25:43.644Z</time>
            </trkpt>
            <trkpt lon="100.983841" lat="12.871053">
                <ele>53.800000</ele>
                <time>2018-02-26T10:25:44.644Z</time>
            </trkpt>
            <trkpt lon="100.983820" lat="12.871010">
                <ele>53.700000</ele>
                <time>2018-02-26T10:25:45.644Z</time>
            </trkpt>
            <trkpt lon="100.983797" lat="12.870969">
                <ele>53.600000</ele>
                <time>2018-02-26T10:25:46.644Z</time>
            </trkpt>
            <trkpt lon="100.983777" lat="12.870929">
                <ele>53.600000</ele>
                <time>2018-02-26T10:25:47.644Z</time>
            </trkpt>
            <trkpt lon="100.983762" lat="12.870892">
                <ele>53.500000</ele>
                <time>2018-02-26T10:25:48.644Z</time>
            </trkpt>
            <trkpt lon="100.983747" lat="12.870854">
                <ele>53.500000</ele>
                <time>2018-02-26T10:25:49.644Z</time>
            </trkpt>
            <trkpt lon="100.983731" lat="12.870818">
                <ele>53.400000</ele>
                <time>2018-02-26T10:25:50.644Z</time>
            </trkpt>
            <trkpt lon="100.983714" lat="12.870786">
                <ele>53.400000</ele>
                <time>2018-02-26T10:25:51.644Z</time>
            </trkpt>
            <trkpt lon="100.983698" lat="12.870752">
                <ele>53.400000</ele>
                <time>2018-02-26T10:25:52.644Z</time>
            </trkpt>
            <trkpt lon="100.983681" lat="12.870720">
                <ele>53.400000</ele>
                <time>2018-02-26T10:25:53.644Z</time>
            </trkpt>
            <trkpt lon="100.983665" lat="12.870686">
                <ele>53.300000</ele>
                <time>2018-02-26T10:25:54.644Z</time>
            </trkpt>
            <trkpt lon="100.983649" lat="12.870653">
                <ele>53.300000</ele>
                <time>2018-02-26T10:25:55.644Z</time>
            </trkpt>
            <trkpt lon="100.983634" lat="12.870617">
                <ele>53.300000</ele>
                <time>2018-02-26T10:25:56.644Z</time>
            </trkpt>
            <trkpt lon="100.983616" lat="12.870581">
                <ele>53.300000</ele>
                <time>2018-02-26T10:25:57.644Z</time>
            </trkpt>
            <trkpt lon="100.983598" lat="12.870542">
                <ele>53.200000</ele>
                <time>2018-02-26T10:25:58.644Z</time>
            </trkpt>
            <trkpt lon="100.983579" lat="12.870502">
                <ele>53.200000</ele>
                <time>2018-02-26T10:25:59.644Z</time>
            </trkpt>
            <trkpt lon="100.983560" lat="12.870458">
                <ele>53.200000</ele>
                <time>2018-02-26T10:26:00.644Z</time>
            </trkpt>
            <trkpt lon="100.983537" lat="12.870412">
                <ele>53.200000</ele>
                <time>2018-02-26T10:26:01.644Z</time>
            </trkpt>
            <trkpt lon="100.983515" lat="12.870367">
                <ele>53.100000</ele>
                <time>2018-02-26T10:26:02.644Z</time>
            </trkpt>
            <trkpt lon="100.983492" lat="12.870322">
                <ele>53.100000</ele>
                <time>2018-02-26T10:26:03.644Z</time>
            </trkpt>
            <trkpt lon="100.983469" lat="12.870282">
                <ele>53.000000</ele>
                <time>2018-02-26T10:26:04.644Z</time>
            </trkpt>
            <trkpt lon="100.983449" lat="12.870242">
                <ele>53.000000</ele>
                <time>2018-02-26T10:26:05.644Z</time>
            </trkpt>
            <trkpt lon="100.983429" lat="12.870199">
                <ele>53.000000</ele>
                <time>2018-02-26T10:26:06.644Z</time>
            </trkpt>
            <trkpt lon="100.983413" lat="12.870160">
                <ele>52.900000</ele>
                <time>2018-02-26T10:26:07.644Z</time>
            </trkpt>
            <trkpt lon="100.983397" lat="12.870120">
                <ele>52.900000</ele>
                <time>2018-02-26T10:26:08.644Z</time>
            </trkpt>
            <trkpt lon="100.983381" lat="12.870081">
                <ele>52.900000</ele>
                <time>2018-02-26T10:26:09.644Z</time>
            </trkpt>
            <trkpt lon="100.983368" lat="12.870041">
                <ele>52.800000</ele>
                <time>2018-02-26T10:26:10.644Z</time>
            </trkpt>
            <trkpt lon="100.983356" lat="12.870000">
                <ele>52.800000</ele>
                <time>2018-02-26T10:26:11.644Z</time>
            </trkpt>
            <trkpt lon="100.983345" lat="12.869962">
                <ele>52.800000</ele>
                <time>2018-02-26T10:26:12.644Z</time>
            </trkpt>
            <trkpt lon="100.983333" lat="12.869922">
                <ele>52.800000</ele>
                <time>2018-02-26T10:26:13.644Z</time>
            </trkpt>
            <trkpt lon="100.983325" lat="12.869876">
                <ele>52.800000</ele>
                <time>2018-02-26T10:26:14.644Z</time>
            </trkpt>
            <trkpt lon="100.983315" lat="12.869830">
                <ele>52.800000</ele>
                <time>2018-02-26T10:26:15.644Z</time>
            </trkpt>
            <trkpt lon="100.983311" lat="12.869786">
                <ele>52.700000</ele>
                <time>2018-02-26T10:26:16.644Z</time>
            </trkpt>
            <trkpt lon="100.983306" lat="12.869748">
                <ele>52.700000</ele>
                <time>2018-02-26T10:26:17.644Z</time>
            </trkpt>
            <trkpt lon="100.983301" lat="12.869711">
                <ele>52.700000</ele>
                <time>2018-02-26T10:26:18.644Z</time>
            </trkpt>
            <trkpt lon="100.983296" lat="12.869674">
                <ele>52.700000</ele>
                <time>2018-02-26T10:26:19.644Z</time>
            </trkpt>
            <trkpt lon="100.983287" lat="12.869638">
                <ele>52.700000</ele>
                <time>2018-02-26T10:26:20.644Z</time>
            </trkpt>
            <trkpt lon="100.983274" lat="12.869605">
                <ele>52.700000</ele>
                <time>2018-02-26T10:26:21.644Z</time>
            </trkpt>
            <trkpt lon="100.983261" lat="12.869572">
                <ele>52.700000</ele>
                <time>2018-02-26T10:26:22.644Z</time>
            </trkpt>
            <trkpt lon="100.983250" lat="12.869537">
                <ele>52.700000</ele>
                <time>2018-02-26T10:26:23.644Z</time>
            </trkpt>
            <trkpt lon="100.983234" lat="12.869505">
                <ele>52.600000</ele>
                <time>2018-02-26T10:26:24.644Z</time>
            </trkpt>
            <trkpt lon="100.983217" lat="12.869472">
                <ele>52.600000</ele>
                <time>2018-02-26T10:26:25.644Z</time>
            </trkpt>
            <trkpt lon="100.983198" lat="12.869440">
                <ele>52.600000</ele>
                <time>2018-02-26T10:26:26.644Z</time>
            </trkpt>
            <trkpt lon="100.983177" lat="12.869411">
                <ele>52.600000</ele>
                <time>2018-02-26T10:26:27.644Z</time>
            </trkpt>
            <trkpt lon="100.983154" lat="12.869383">
                <ele>52.600000</ele>
                <time>2018-02-26T10:26:28.644Z</time>
            </trkpt>
            <trkpt lon="100.983130" lat="12.869347">
                <ele>52.500000</ele>
                <time>2018-02-26T10:26:29.644Z</time>
            </trkpt>
            <trkpt lon="100.983103" lat="12.869310">
                <ele>52.500000</ele>
                <time>2018-02-26T10:26:30.644Z</time>
            </trkpt>
            <trkpt lon="100.983077" lat="12.869278">
                <ele>52.400000</ele>
                <time>2018-02-26T10:26:31.644Z</time>
            </trkpt>
            <trkpt lon="100.983051" lat="12.869247">
                <ele>52.400000</ele>
                <time>2018-02-26T10:26:32.644Z</time>
            </trkpt>
            <trkpt lon="100.983026" lat="12.869215">
                <ele>52.400000</ele>
                <time>2018-02-26T10:26:33.644Z</time>
            </trkpt>
            <trkpt lon="100.982999" lat="12.869187">
                <ele>52.300000</ele>
                <time>2018-02-26T10:26:34.644Z</time>
            </trkpt>
            <trkpt lon="100.982971" lat="12.869157">
                <ele>52.300000</ele>
                <time>2018-02-26T10:26:35.644Z</time>
            </trkpt>
            <trkpt lon="100.982943" lat="12.869121">
                <ele>52.200000</ele>
                <time>2018-02-26T10:26:36.644Z</time>
            </trkpt>
            <trkpt lon="100.982916" lat="12.869083">
                <ele>52.200000</ele>
                <time>2018-02-26T10:26:37.644Z</time>
            </trkpt>
            <trkpt lon="100.982890" lat="12.869047">
                <ele>52.100000</ele>
                <time>2018-02-26T10:26:38.644Z</time>
            </trkpt>
            <trkpt lon="100.982863" lat="12.869011">
                <ele>52.100000</ele>
                <time>2018-02-26T10:26:39.644Z</time>
            </trkpt>
            <trkpt lon="100.982831" lat="12.868981">
                <ele>52.100000</ele>
                <time>2018-02-26T10:26:40.644Z</time>
            </trkpt>
            <trkpt lon="100.982797" lat="12.868952">
                <ele>52.000000</ele>
                <time>2018-02-26T10:26:41.644Z</time>
            </trkpt>
            <trkpt lon="100.982772" lat="12.868911">
                <ele>51.900000</ele>
                <time>2018-02-26T10:26:42.644Z</time>
            </trkpt>
            <trkpt lon="100.982751" lat="12.868879">
                <ele>51.900000</ele>
                <time>2018-02-26T10:26:43.644Z</time>
            </trkpt>
            <trkpt lon="100.982730" lat="12.868845">
                <ele>51.800000</ele>
                <time>2018-02-26T10:26:44.644Z</time>
            </trkpt>
            <trkpt lon="100.982708" lat="12.868822">
                <ele>51.800000</ele>
                <time>2018-02-26T10:26:45.644Z</time>
            </trkpt>
            <trkpt lon="100.982685" lat="12.868801">
                <ele>51.800000</ele>
                <time>2018-02-26T10:26:46.644Z</time>
            </trkpt>
            <trkpt lon="100.982665" lat="12.868777">
                <ele>51.700000</ele>
                <time>2018-02-26T10:26:47.644Z</time>
            </trkpt>
            <trkpt lon="100.982647" lat="12.868755">
                <ele>51.600000</ele>
                <time>2018-02-26T10:26:48.644Z</time>
            </trkpt>
            <trkpt lon="100.982630" lat="12.868729">
                <ele>51.600000</ele>
                <time>2018-02-26T10:26:51.644Z</time>
            </trkpt>
            <trkpt lon="100.982608" lat="12.868712">
                <ele>51.500000</ele>
                <time>2018-02-26T10:27:13.644Z</time>
            </trkpt>
            <trkpt lon="100.982585" lat="12.868696">
                <ele>51.500000</ele>
                <time>2018-02-26T10:28:00.644Z</time>
            </trkpt>
            <trkpt lon="100.982555" lat="12.868687">
                <ele>51.400000</ele>
                <time>2018-02-26T10:28:18.644Z</time>
            </trkpt>
            <trkpt lon="100.982521" lat="12.868671">
                <ele>51.400000</ele>
                <time>2018-02-26T10:28:20.644Z</time>
            </trkpt>
            <trkpt lon="100.982475" lat="12.868653">
                <ele>51.300000</ele>
                <time>2018-02-26T10:28:22.644Z</time>
            </trkpt>
            <trkpt lon="100.982432" lat="12.868634">
                <ele>51.200000</ele>
                <time>2018-02-26T10:28:24.644Z</time>
            </trkpt>
            <trkpt lon="100.982399" lat="12.868626">
                <ele>51.100000</ele>
                <time>2018-02-26T10:28:26.644Z</time>
            </trkpt>
            <trkpt lon="100.982361" lat="12.868619">
                <ele>51.000000</ele>
                <time>2018-02-26T10:28:28.644Z</time>
            </trkpt>
            <trkpt lon="100.982323" lat="12.868611">
                <ele>51.000000</ele>
                <time>2018-02-26T10:28:30.644Z</time>
            </trkpt>
            <trkpt lon="100.982284" lat="12.868608">
                <ele>50.900000</ele>
                <time>2018-02-26T10:28:32.644Z</time>
            </trkpt>
            <trkpt lon="100.982236" lat="12.868605">
                <ele>50.800000</ele>
                <time>2018-02-26T10:28:34.644Z</time>
            </trkpt>
            <trkpt lon="100.982192" lat="12.868599">
                <ele>50.700000</ele>
                <time>2018-02-26T10:28:36.644Z</time>
            </trkpt>
            <trkpt lon="100.982144" lat="12.868589">
                <ele>50.600000</ele>
                <time>2018-02-26T10:28:38.644Z</time>
            </trkpt>
            <trkpt lon="100.982100" lat="12.868577">
                <ele>50.400000</ele>
                <time>2018-02-26T10:28:40.644Z</time>
            </trkpt>
            <trkpt lon="100.982054" lat="12.868565">
                <ele>50.400000</ele>
                <time>2018-02-26T10:28:42.644Z</time>
            </trkpt>
            <trkpt lon="100.982027" lat="12.868560">
                <ele>50.400000</ele>
                <time>2018-02-26T10:28:43.644Z</time>
            </trkpt>
            <trkpt lon="100.981997" lat="12.868554">
                <ele>50.500000</ele>
                <time>2018-02-26T10:28:44.644Z</time>
            </trkpt>
            <trkpt lon="100.981966" lat="12.868544">
                <ele>50.600000</ele>
                <time>2018-02-26T10:28:45.644Z</time>
            </trkpt>
            <trkpt lon="100.981939" lat="12.868538">
                <ele>50.700000</ele>
                <time>2018-02-26T10:28:46.644Z</time>
            </trkpt>
            <trkpt lon="100.981898" lat="12.868530">
                <ele>50.900000</ele>
                <time>2018-02-26T10:28:48.644Z</time>
            </trkpt>
            <trkpt lon="100.981857" lat="12.868521">
                <ele>50.900000</ele>
                <time>2018-02-26T10:28:50.644Z</time>
            </trkpt>
            <trkpt lon="100.981806" lat="12.868515">
                <ele>51.000000</ele>
                <time>2018-02-26T10:28:52.644Z</time>
            </trkpt>
            <trkpt lon="100.981776" lat="12.868510">
                <ele>51.100000</ele>
                <time>2018-02-26T10:28:53.644Z</time>
            </trkpt>
            <trkpt lon="100.981725" lat="12.868505">
                <ele>51.300000</ele>
                <time>2018-02-26T10:28:55.644Z</time>
            </trkpt>
            <trkpt lon="100.981697" lat="12.868502">
                <ele>51.400000</ele>
                <time>2018-02-26T10:28:56.644Z</time>
            </trkpt>
            <trkpt lon="100.981662" lat="12.868497">
                <ele>51.500000</ele>
                <time>2018-02-26T10:28:57.644Z</time>
            </trkpt>
            <trkpt lon="100.981624" lat="12.868491">
                <ele>51.500000</ele>
                <time>2018-02-26T10:28:58.644Z</time>
            </trkpt>
            <trkpt lon="100.981594" lat="12.868486">
                <ele>51.600000</ele>
                <time>2018-02-26T10:28:59.644Z</time>
            </trkpt>
            <trkpt lon="100.981555" lat="12.868477">
                <ele>51.600000</ele>
                <time>2018-02-26T10:29:01.644Z</time>
            </trkpt>
            <trkpt lon="100.981523" lat="12.868475">
                <ele>51.600000</ele>
                <time>2018-02-26T10:29:03.644Z</time>
            </trkpt>
            <trkpt lon="100.981490" lat="12.868477">
                <ele>51.500000</ele>
                <time>2018-02-26T10:29:05.644Z</time>
            </trkpt>
            <trkpt lon="100.981452" lat="12.868482">
                <ele>51.400000</ele>
                <time>2018-02-26T10:29:07.644Z</time>
            </trkpt>
            <trkpt lon="100.981399" lat="12.868488">
                <ele>51.300000</ele>
                <time>2018-02-26T10:29:09.644Z</time>
            </trkpt>
            <trkpt lon="100.981363" lat="12.868493">
                <ele>51.000000</ele>
                <time>2018-02-26T10:29:10.644Z</time>
            </trkpt>
            <trkpt lon="100.981330" lat="12.868497">
                <ele>50.800000</ele>
                <time>2018-02-26T10:29:11.644Z</time>
            </trkpt>
            <trkpt lon="100.981292" lat="12.868502">
                <ele>50.600000</ele>
                <time>2018-02-26T10:29:12.644Z</time>
            </trkpt>
            <trkpt lon="100.981245" lat="12.868510">
                <ele>50.400000</ele>
                <time>2018-02-26T10:29:13.644Z</time>
            </trkpt>
            <trkpt lon="100.981210" lat="12.868517">
                <ele>50.100000</ele>
                <time>2018-02-26T10:29:14.644Z</time>
            </trkpt>
            <trkpt lon="100.981176" lat="12.868520">
                <ele>49.800000</ele>
                <time>2018-02-26T10:29:16.644Z</time>
            </trkpt>
            <trkpt lon="100.981149" lat="12.868511">
                <ele>49.800000</ele>
                <time>2018-02-26T10:29:24.644Z</time>
            </trkpt>
            <trkpt lon="100.981099" lat="12.868506">
                <ele>49.600000</ele>
                <time>2018-02-26T10:29:26.644Z</time>
            </trkpt>
            <trkpt lon="100.981070" lat="12.868505">
                <ele>49.200000</ele>
                <time>2018-02-26T10:29:27.644Z</time>
            </trkpt>
            <trkpt lon="100.981016" lat="12.868497">
                <ele>48.700000</ele>
                <time>2018-02-26T10:29:29.644Z</time>
            </trkpt>
            <trkpt lon="100.980987" lat="12.868491">
                <ele>48.300000</ele>
                <time>2018-02-26T10:29:30.644Z</time>
            </trkpt>
            <trkpt lon="100.980932" lat="12.868473">
                <ele>47.800000</ele>
                <time>2018-02-26T10:29:32.644Z</time>
            </trkpt>
            <trkpt lon="100.980904" lat="12.868455">
                <ele>47.400000</ele>
                <time>2018-02-26T10:29:33.644Z</time>
            </trkpt>
            <trkpt lon="100.980878" lat="12.868435">
                <ele>47.400000</ele>
                <time>2018-02-26T10:29:34.644Z</time>
            </trkpt>
            <trkpt lon="100.980843" lat="12.868414">
                <ele>47.100000</ele>
                <time>2018-02-26T10:29:35.644Z</time>
            </trkpt>
            <trkpt lon="100.980811" lat="12.868399">
                <ele>47.100000</ele>
                <time>2018-02-26T10:29:36.644Z</time>
            </trkpt>
            <trkpt lon="100.980770" lat="12.868390">
                <ele>46.800000</ele>
                <time>2018-02-26T10:29:37.644Z</time>
            </trkpt>
            <trkpt lon="100.980720" lat="12.868381">
                <ele>46.600000</ele>
                <time>2018-02-26T10:29:38.644Z</time>
            </trkpt>
            <trkpt lon="100.980674" lat="12.868373">
                <ele>46.600000</ele>
                <time>2018-02-26T10:29:39.644Z</time>
            </trkpt>
            <trkpt lon="100.980626" lat="12.868363">
                <ele>46.500000</ele>
                <time>2018-02-26T10:29:40.644Z</time>
            </trkpt>
            <trkpt lon="100.980581" lat="12.868358">
                <ele>46.400000</ele>
                <time>2018-02-26T10:29:41.644Z</time>
            </trkpt>
            <trkpt lon="100.980544" lat="12.868354">
                <ele>46.200000</ele>
                <time>2018-02-26T10:29:42.644Z</time>
            </trkpt>
            <trkpt lon="100.980496" lat="12.868363">
                <ele>45.900000</ele>
                <time>2018-02-26T10:29:44.644Z</time>
            </trkpt>
            <trkpt lon="100.980457" lat="12.868393">
                <ele>45.700000</ele>
                <time>2018-02-26T10:29:46.644Z</time>
            </trkpt>
            <trkpt lon="100.980435" lat="12.868411">
                <ele>45.400000</ele>
                <time>2018-02-26T10:29:47.644Z</time>
            </trkpt>
            <trkpt lon="100.980413" lat="12.868436">
                <ele>45.400000</ele>
                <time>2018-02-26T10:29:48.644Z</time>
            </trkpt>
            <trkpt lon="100.980395" lat="12.868463">
                <ele>45.500000</ele>
                <time>2018-02-26T10:29:49.644Z</time>
            </trkpt>
            <trkpt lon="100.980378" lat="12.868492">
                <ele>45.500000</ele>
                <time>2018-02-26T10:29:50.644Z</time>
            </trkpt>
            <trkpt lon="100.980367" lat="12.868522">
                <ele>45.800000</ele>
                <time>2018-02-26T10:29:51.644Z</time>
            </trkpt>
            <trkpt lon="100.980360" lat="12.868550">
                <ele>46.200000</ele>
                <time>2018-02-26T10:29:52.644Z</time>
            </trkpt>
            <trkpt lon="100.980355" lat="12.868599">
                <ele>46.500000</ele>
                <time>2018-02-26T10:29:54.644Z</time>
            </trkpt>
            <trkpt lon="100.980359" lat="12.868631">
                <ele>46.900000</ele>
                <time>2018-02-26T10:29:55.644Z</time>
            </trkpt>
            <trkpt lon="100.980362" lat="12.868663">
                <ele>46.900000</ele>
                <time>2018-02-26T10:29:56.644Z</time>
            </trkpt>
            <trkpt lon="100.980360" lat="12.868696">
                <ele>47.400000</ele>
                <time>2018-02-26T10:29:57.644Z</time>
            </trkpt>
            <trkpt lon="100.980357" lat="12.868732">
                <ele>47.800000</ele>
                <time>2018-02-26T10:29:58.644Z</time>
            </trkpt>
            <trkpt lon="100.980353" lat="12.868764">
                <ele>48.300000</ele>
                <time>2018-02-26T10:29:59.644Z</time>
            </trkpt>
            <trkpt lon="100.980345" lat="12.868798">
                <ele>48.700000</ele>
                <time>2018-02-26T10:30:00.644Z</time>
            </trkpt>
            <trkpt lon="100.980333" lat="12.868829">
                <ele>48.700000</ele>
                <time>2018-02-26T10:30:01.644Z</time>
            </trkpt>
            <trkpt lon="100.980318" lat="12.868858">
                <ele>49.100000</ele>
                <time>2018-02-26T10:30:02.644Z</time>
            </trkpt>
            <trkpt lon="100.980297" lat="12.868885">
                <ele>49.400000</ele>
                <time>2018-02-26T10:30:03.644Z</time>
            </trkpt>
            <trkpt lon="100.980275" lat="12.868906">
                <ele>49.600000</ele>
                <time>2018-02-26T10:30:04.644Z</time>
            </trkpt>
            <trkpt lon="100.980247" lat="12.868927">
                <ele>49.900000</ele>
                <time>2018-02-26T10:30:05.644Z</time>
            </trkpt>
            <trkpt lon="100.980214" lat="12.868945">
                <ele>49.900000</ele>
                <time>2018-02-26T10:30:06.644Z</time>
            </trkpt>
            <trkpt lon="100.980176" lat="12.868952">
                <ele>49.600000</ele>
                <time>2018-02-26T10:30:07.644Z</time>
            </trkpt>
            <trkpt lon="100.980137" lat="12.868949">
                <ele>49.400000</ele>
                <time>2018-02-26T10:30:08.644Z</time>
            </trkpt>
            <trkpt lon="100.980099" lat="12.868940">
                <ele>49.200000</ele>
                <time>2018-02-26T10:30:09.644Z</time>
            </trkpt>
            <trkpt lon="100.980057" lat="12.868930">
                <ele>49.000000</ele>
                <time>2018-02-26T10:30:10.644Z</time>
            </trkpt>
            <trkpt lon="100.980017" lat="12.868920">
                <ele>49.000000</ele>
                <time>2018-02-26T10:30:11.644Z</time>
            </trkpt>
            <trkpt lon="100.979979" lat="12.868914">
                <ele>49.000000</ele>
                <time>2018-02-26T10:30:12.644Z</time>
            </trkpt>
            <trkpt lon="100.979940" lat="12.868907">
                <ele>49.000000</ele>
                <time>2018-02-26T10:30:13.644Z</time>
            </trkpt>
            <trkpt lon="100.979899" lat="12.868905">
                <ele>49.000000</ele>
                <time>2018-02-26T10:30:14.644Z</time>
            </trkpt>
            <trkpt lon="100.979860" lat="12.868902">
                <ele>48.900000</ele>
                <time>2018-02-26T10:30:15.644Z</time>
            </trkpt>
            <trkpt lon="100.979819" lat="12.868899">
                <ele>48.700000</ele>
                <time>2018-02-26T10:30:16.644Z</time>
            </trkpt>
            <trkpt lon="100.979779" lat="12.868895">
                <ele>48.600000</ele>
                <time>2018-02-26T10:30:17.644Z</time>
            </trkpt>
            <trkpt lon="100.979733" lat="12.868892">
                <ele>48.400000</ele>
                <time>2018-02-26T10:30:18.644Z</time>
            </trkpt>
            <trkpt lon="100.979688" lat="12.868885">
                <ele>48.200000</ele>
                <time>2018-02-26T10:30:19.644Z</time>
            </trkpt>
            <trkpt lon="100.979649" lat="12.868876">
                <ele>47.800000</ele>
                <time>2018-02-26T10:30:20.644Z</time>
            </trkpt>
            <trkpt lon="100.979608" lat="12.868870">
                <ele>47.600000</ele>
                <time>2018-02-26T10:30:21.644Z</time>
            </trkpt>
            <trkpt lon="100.979568" lat="12.868868">
                <ele>47.100000</ele>
                <time>2018-02-26T10:30:22.644Z</time>
            </trkpt>
            <trkpt lon="100.979522" lat="12.868864">
                <ele>46.800000</ele>
                <time>2018-02-26T10:30:23.644Z</time>
            </trkpt>
            <trkpt lon="100.979474" lat="12.868866">
                <ele>46.500000</ele>
                <time>2018-02-26T10:30:24.644Z</time>
            </trkpt>
            <trkpt lon="100.979426" lat="12.868866">
                <ele>46.300000</ele>
                <time>2018-02-26T10:30:25.644Z</time>
            </trkpt>
            <trkpt lon="100.979381" lat="12.868864">
                <ele>46.000000</ele>
                <time>2018-02-26T10:30:26.644Z</time>
            </trkpt>
            <trkpt lon="100.979337" lat="12.868861">
                <ele>45.800000</ele>
                <time>2018-02-26T10:30:27.644Z</time>
            </trkpt>
            <trkpt lon="100.979290" lat="12.868859">
                <ele>45.600000</ele>
                <time>2018-02-26T10:30:28.644Z</time>
            </trkpt>
            <trkpt lon="100.979243" lat="12.868855">
                <ele>45.500000</ele>
                <time>2018-02-26T10:30:29.644Z</time>
            </trkpt>
            <trkpt lon="100.979199" lat="12.868853">
                <ele>45.400000</ele>
                <time>2018-02-26T10:30:30.644Z</time>
            </trkpt>
            <trkpt lon="100.979155" lat="12.868851">
                <ele>45.200000</ele>
                <time>2018-02-26T10:30:31.644Z</time>
            </trkpt>
            <trkpt lon="100.979109" lat="12.868847">
                <ele>45.100000</ele>
                <time>2018-02-26T10:30:32.644Z</time>
            </trkpt>
            <trkpt lon="100.979066" lat="12.868844">
                <ele>44.900000</ele>
                <time>2018-02-26T10:30:33.644Z</time>
            </trkpt>
            <trkpt lon="100.979021" lat="12.868840">
                <ele>44.900000</ele>
                <time>2018-02-26T10:30:34.644Z</time>
            </trkpt>
            <trkpt lon="100.978977" lat="12.868836">
                <ele>45.000000</ele>
                <time>2018-02-26T10:30:35.644Z</time>
            </trkpt>
            <trkpt lon="100.978937" lat="12.868834">
                <ele>45.100000</ele>
                <time>2018-02-26T10:30:36.644Z</time>
            </trkpt>
            <trkpt lon="100.978896" lat="12.868832">
                <ele>45.500000</ele>
                <time>2018-02-26T10:30:37.644Z</time>
            </trkpt>
            <trkpt lon="100.978858" lat="12.868835">
                <ele>45.400000</ele>
                <time>2018-02-26T10:30:38.644Z</time>
            </trkpt>
            <trkpt lon="100.978821" lat="12.868836">
                <ele>45.400000</ele>
                <time>2018-02-26T10:30:39.644Z</time>
            </trkpt>
            <trkpt lon="100.978782" lat="12.868838">
                <ele>45.500000</ele>
                <time>2018-02-26T10:30:40.644Z</time>
            </trkpt>
            <trkpt lon="100.978743" lat="12.868839">
                <ele>45.600000</ele>
                <time>2018-02-26T10:30:41.644Z</time>
            </trkpt>
            <trkpt lon="100.978705" lat="12.868836">
                <ele>45.600000</ele>
                <time>2018-02-26T10:30:42.644Z</time>
            </trkpt>
            <trkpt lon="100.978669" lat="12.868830">
                <ele>45.800000</ele>
                <time>2018-02-26T10:30:43.644Z</time>
            </trkpt>
            <trkpt lon="100.978629" lat="12.868822">
                <ele>46.000000</ele>
                <time>2018-02-26T10:30:45.644Z</time>
            </trkpt>
            <trkpt lon="100.978588" lat="12.868824">
                <ele>46.200000</ele>
                <time>2018-02-26T10:30:48.644Z</time>
            </trkpt>
            <trkpt lon="100.978534" lat="12.868827">
                <ele>46.400000</ele>
                <time>2018-02-26T10:30:50.644Z</time>
            </trkpt>
            <trkpt lon="100.978497" lat="12.868831">
                <ele>46.500000</ele>
                <time>2018-02-26T10:30:51.644Z</time>
            </trkpt>
            <trkpt lon="100.978457" lat="12.868835">
                <ele>46.400000</ele>
                <time>2018-02-26T10:30:52.644Z</time>
            </trkpt>
            <trkpt lon="100.978415" lat="12.868839">
                <ele>46.500000</ele>
                <time>2018-02-26T10:30:53.644Z</time>
            </trkpt>
            <trkpt lon="100.978373" lat="12.868837">
                <ele>46.600000</ele>
                <time>2018-02-26T10:30:54.644Z</time>
            </trkpt>
            <trkpt lon="100.978334" lat="12.868829">
                <ele>46.600000</ele>
                <time>2018-02-26T10:30:55.644Z</time>
            </trkpt>
            <trkpt lon="100.978298" lat="12.868822">
                <ele>46.600000</ele>
                <time>2018-02-26T10:30:56.644Z</time>
            </trkpt>
            <trkpt lon="100.978259" lat="12.868815">
                <ele>46.600000</ele>
                <time>2018-02-26T10:30:57.644Z</time>
            </trkpt>
            <trkpt lon="100.978224" lat="12.868806">
                <ele>46.600000</ele>
                <time>2018-02-26T10:30:58.644Z</time>
            </trkpt>
            <trkpt lon="100.978188" lat="12.868795">
                <ele>46.600000</ele>
                <time>2018-02-26T10:30:59.644Z</time>
            </trkpt>
            <trkpt lon="100.978152" lat="12.868787">
                <ele>46.500000</ele>
                <time>2018-02-26T10:31:00.644Z</time>
            </trkpt>
            <trkpt lon="100.978118" lat="12.868780">
                <ele>46.300000</ele>
                <time>2018-02-26T10:31:01.644Z</time>
            </trkpt>
            <trkpt lon="100.978081" lat="12.868776">
                <ele>46.000000</ele>
                <time>2018-02-26T10:31:02.644Z</time>
            </trkpt>
            <trkpt lon="100.978042" lat="12.868775">
                <ele>45.800000</ele>
                <time>2018-02-26T10:31:03.644Z</time>
            </trkpt>
            <trkpt lon="100.978006" lat="12.868774">
                <ele>45.800000</ele>
                <time>2018-02-26T10:31:04.644Z</time>
            </trkpt>
            <trkpt lon="100.977970" lat="12.868768">
                <ele>45.600000</ele>
                <time>2018-02-26T10:31:05.644Z</time>
            </trkpt>
            <trkpt lon="100.977935" lat="12.868760">
                <ele>45.600000</ele>
                <time>2018-02-26T10:31:06.644Z</time>
            </trkpt>
            <trkpt lon="100.977901" lat="12.868752">
                <ele>45.500000</ele>
                <time>2018-02-26T10:31:07.644Z</time>
            </trkpt>
            <trkpt lon="100.977870" lat="12.868742">
                <ele>45.500000</ele>
                <time>2018-02-26T10:31:08.644Z</time>
            </trkpt>
            <trkpt lon="100.977835" lat="12.868729">
                <ele>45.500000</ele>
                <time>2018-02-26T10:31:09.644Z</time>
            </trkpt>
            <trkpt lon="100.977805" lat="12.868716">
                <ele>45.500000</ele>
                <time>2018-02-26T10:31:10.644Z</time>
            </trkpt>
            <trkpt lon="100.977772" lat="12.868701">
                <ele>45.500000</ele>
                <time>2018-02-26T10:31:11.644Z</time>
            </trkpt>
            <trkpt lon="100.977744" lat="12.868688">
                <ele>45.400000</ele>
                <time>2018-02-26T10:31:12.644Z</time>
            </trkpt>
            <trkpt lon="100.977719" lat="12.868673">
                <ele>45.400000</ele>
                <time>2018-02-26T10:31:13.644Z</time>
            </trkpt>
            <trkpt lon="100.977693" lat="12.868655">
                <ele>45.400000</ele>
                <time>2018-02-26T10:31:14.644Z</time>
            </trkpt>
            <trkpt lon="100.977678" lat="12.868631">
                <ele>45.400000</ele>
                <time>2018-02-26T10:31:15.644Z</time>
            </trkpt>
            <trkpt lon="100.977659" lat="12.868588">
                <ele>45.600000</ele>
                <time>2018-02-26T10:31:17.644Z</time>
            </trkpt>
            <trkpt lon="100.977658" lat="12.868549">
                <ele>45.800000</ele>
                <time>2018-02-26T10:31:19.644Z</time>
            </trkpt>
            <trkpt lon="100.977659" lat="12.868508">
                <ele>46.000000</ele>
                <time>2018-02-26T10:31:21.644Z</time>
            </trkpt>
            <trkpt lon="100.977646" lat="12.868471">
                <ele>46.200000</ele>
                <time>2018-02-26T10:31:23.644Z</time>
            </trkpt>
            <trkpt lon="100.977615" lat="12.868464">
                <ele>46.300000</ele>
                <time>2018-02-26T10:31:25.644Z</time>
            </trkpt>
            <trkpt lon="100.977570" lat="12.868467">
                <ele>46.300000</ele>
                <time>2018-02-26T10:31:27.644Z</time>
            </trkpt>
            <trkpt lon="100.977541" lat="12.868468">
                <ele>46.300000</ele>
                <time>2018-02-26T10:31:28.644Z</time>
            </trkpt>
            <trkpt lon="100.977512" lat="12.868468">
                <ele>46.300000</ele>
                <time>2018-02-26T10:31:29.644Z</time>
            </trkpt>
            <trkpt lon="100.977478" lat="12.868464">
                <ele>46.300000</ele>
                <time>2018-02-26T10:31:30.644Z</time>
            </trkpt>
            <trkpt lon="100.977445" lat="12.868460">
                <ele>46.300000</ele>
                <time>2018-02-26T10:31:31.644Z</time>
            </trkpt>
            <trkpt lon="100.977406" lat="12.868455">
                <ele>46.300000</ele>
                <time>2018-02-26T10:31:32.644Z</time>
            </trkpt>
            <trkpt lon="100.977371" lat="12.868451">
                <ele>46.300000</ele>
                <time>2018-02-26T10:31:33.644Z</time>
            </trkpt>
            <trkpt lon="100.977331" lat="12.868445">
                <ele>46.300000</ele>
                <time>2018-02-26T10:31:34.644Z</time>
            </trkpt>
            <trkpt lon="100.977291" lat="12.868437">
                <ele>46.300000</ele>
                <time>2018-02-26T10:31:35.644Z</time>
            </trkpt>
            <trkpt lon="100.977247" lat="12.868428">
                <ele>46.300000</ele>
                <time>2018-02-26T10:31:36.644Z</time>
            </trkpt>
            <trkpt lon="100.977199" lat="12.868421">
                <ele>46.200000</ele>
                <time>2018-02-26T10:31:37.644Z</time>
            </trkpt>
            <trkpt lon="100.977153" lat="12.868417">
                <ele>46.200000</ele>
                <time>2018-02-26T10:31:38.644Z</time>
            </trkpt>
            <trkpt lon="100.977103" lat="12.868412">
                <ele>46.100000</ele>
                <time>2018-02-26T10:31:39.644Z</time>
            </trkpt>
            <trkpt lon="100.977056" lat="12.868405">
                <ele>45.600000</ele>
                <time>2018-02-26T10:31:40.644Z</time>
            </trkpt>
            <trkpt lon="100.977013" lat="12.868402">
                <ele>45.400000</ele>
                <time>2018-02-26T10:31:41.644Z</time>
            </trkpt>
            <trkpt lon="100.976966" lat="12.868397">
                <ele>45.100000</ele>
                <time>2018-02-26T10:31:42.644Z</time>
            </trkpt>
            <trkpt lon="100.976926" lat="12.868390">
                <ele>44.900000</ele>
                <time>2018-02-26T10:31:43.644Z</time>
            </trkpt>
            <trkpt lon="100.976882" lat="12.868373">
                <ele>44.600000</ele>
                <time>2018-02-26T10:31:44.644Z</time>
            </trkpt>
            <trkpt lon="100.976844" lat="12.868357">
                <ele>44.600000</ele>
                <time>2018-02-26T10:31:45.644Z</time>
            </trkpt>
            <trkpt lon="100.976807" lat="12.868342">
                <ele>44.300000</ele>
                <time>2018-02-26T10:31:46.644Z</time>
            </trkpt>
            <trkpt lon="100.976771" lat="12.868330">
                <ele>44.100000</ele>
                <time>2018-02-26T10:31:47.644Z</time>
            </trkpt>
            <trkpt lon="100.976732" lat="12.868318">
                <ele>43.800000</ele>
                <time>2018-02-26T10:31:48.644Z</time>
            </trkpt>
            <trkpt lon="100.976692" lat="12.868310">
                <ele>43.500000</ele>
                <time>2018-02-26T10:31:49.644Z</time>
            </trkpt>
            <trkpt lon="100.976649" lat="12.868298">
                <ele>43.300000</ele>
                <time>2018-02-26T10:31:50.644Z</time>
            </trkpt>
            <trkpt lon="100.976609" lat="12.868286">
                <ele>43.000000</ele>
                <time>2018-02-26T10:31:51.644Z</time>
            </trkpt>
            <trkpt lon="100.976570" lat="12.868273">
                <ele>42.800000</ele>
                <time>2018-02-26T10:31:52.644Z</time>
            </trkpt>
            <trkpt lon="100.976531" lat="12.868258">
                <ele>42.500000</ele>
                <time>2018-02-26T10:31:53.644Z</time>
            </trkpt>
            <trkpt lon="100.976492" lat="12.868248">
                <ele>42.200000</ele>
                <time>2018-02-26T10:31:54.644Z</time>
            </trkpt>
            <trkpt lon="100.976456" lat="12.868239">
                <ele>42.100000</ele>
                <time>2018-02-26T10:31:55.644Z</time>
            </trkpt>
            <trkpt lon="100.976415" lat="12.868231">
                <ele>42.000000</ele>
                <time>2018-02-26T10:31:56.644Z</time>
            </trkpt>
            <trkpt lon="100.976378" lat="12.868230">
                <ele>42.000000</ele>
                <time>2018-02-26T10:31:57.644Z</time>
            </trkpt>
            <trkpt lon="100.976340" lat="12.868232">
                <ele>42.000000</ele>
                <time>2018-02-26T10:31:58.644Z</time>
            </trkpt>
            <trkpt lon="100.976304" lat="12.868230">
                <ele>42.000000</ele>
                <time>2018-02-26T10:31:59.644Z</time>
            </trkpt>
            <trkpt lon="100.976271" lat="12.868228">
                <ele>41.900000</ele>
                <time>2018-02-26T10:32:00.644Z</time>
            </trkpt>
            <trkpt lon="100.976238" lat="12.868225">
                <ele>41.700000</ele>
                <time>2018-02-26T10:32:01.644Z</time>
            </trkpt>
            <trkpt lon="100.976203" lat="12.868225">
                <ele>41.700000</ele>
                <time>2018-02-26T10:32:02.644Z</time>
            </trkpt>
            <trkpt lon="100.976170" lat="12.868227">
                <ele>41.400000</ele>
                <time>2018-02-26T10:32:03.644Z</time>
            </trkpt>
            <trkpt lon="100.976138" lat="12.868230">
                <ele>41.100000</ele>
                <time>2018-02-26T10:32:04.644Z</time>
            </trkpt>
            <trkpt lon="100.976090" lat="12.868225">
                <ele>41.000000</ele>
                <time>2018-02-26T10:32:06.644Z</time>
            </trkpt>
            <trkpt lon="100.976031" lat="12.868213">
                <ele>40.900000</ele>
                <time>2018-02-26T10:32:08.644Z</time>
            </trkpt>
            <trkpt lon="100.975999" lat="12.868205">
                <ele>40.900000</ele>
                <time>2018-02-26T10:32:09.644Z</time>
            </trkpt>
            <trkpt lon="100.975968" lat="12.868197">
                <ele>40.900000</ele>
                <time>2018-02-26T10:32:10.644Z</time>
            </trkpt>
            <trkpt lon="100.975934" lat="12.868190">
                <ele>40.900000</ele>
                <time>2018-02-26T10:32:11.644Z</time>
            </trkpt>
            <trkpt lon="100.975901" lat="12.868183">
                <ele>40.900000</ele>
                <time>2018-02-26T10:32:12.644Z</time>
            </trkpt>
            <trkpt lon="100.975868" lat="12.868172">
                <ele>41.100000</ele>
                <time>2018-02-26T10:32:13.644Z</time>
            </trkpt>
            <trkpt lon="100.975836" lat="12.868163">
                <ele>41.200000</ele>
                <time>2018-02-26T10:32:14.644Z</time>
            </trkpt>
            <trkpt lon="100.975807" lat="12.868157">
                <ele>41.500000</ele>
                <time>2018-02-26T10:32:15.644Z</time>
            </trkpt>
            <trkpt lon="100.975776" lat="12.868148">
                <ele>41.500000</ele>
                <time>2018-02-26T10:32:16.644Z</time>
            </trkpt>
            <trkpt lon="100.975745" lat="12.868135">
                <ele>41.700000</ele>
                <time>2018-02-26T10:32:17.644Z</time>
            </trkpt>
            <trkpt lon="100.975710" lat="12.868124">
                <ele>42.000000</ele>
                <time>2018-02-26T10:32:18.644Z</time>
            </trkpt>
            <trkpt lon="100.975674" lat="12.868113">
                <ele>42.400000</ele>
                <time>2018-02-26T10:32:19.644Z</time>
            </trkpt>
            <trkpt lon="100.975635" lat="12.868102">
                <ele>42.600000</ele>
                <time>2018-02-26T10:32:20.644Z</time>
            </trkpt>
            <trkpt lon="100.975596" lat="12.868088">
                <ele>42.800000</ele>
                <time>2018-02-26T10:32:21.644Z</time>
            </trkpt>
            <trkpt lon="100.975554" lat="12.868076">
                <ele>42.800000</ele>
                <time>2018-02-26T10:32:22.644Z</time>
            </trkpt>
            <trkpt lon="100.975513" lat="12.868061">
                <ele>42.800000</ele>
                <time>2018-02-26T10:32:23.644Z</time>
            </trkpt>
            <trkpt lon="100.975477" lat="12.868043">
                <ele>42.800000</ele>
                <time>2018-02-26T10:32:24.644Z</time>
            </trkpt>
            <trkpt lon="100.975437" lat="12.868022">
                <ele>42.800000</ele>
                <time>2018-02-26T10:32:25.644Z</time>
            </trkpt>
            <trkpt lon="100.975398" lat="12.868005">
                <ele>42.800000</ele>
                <time>2018-02-26T10:32:26.644Z</time>
            </trkpt>
            <trkpt lon="100.975366" lat="12.867999">
                <ele>42.700000</ele>
                <time>2018-02-26T10:32:27.644Z</time>
            </trkpt>
            <trkpt lon="100.975334" lat="12.867994">
                <ele>42.600000</ele>
                <time>2018-02-26T10:32:28.644Z</time>
            </trkpt>
            <trkpt lon="100.975303" lat="12.867990">
                <ele>42.600000</ele>
                <time>2018-02-26T10:32:29.644Z</time>
            </trkpt>
            <trkpt lon="100.975274" lat="12.867984">
                <ele>42.600000</ele>
                <time>2018-02-26T10:32:30.644Z</time>
            </trkpt>
            <trkpt lon="100.975244" lat="12.867983">
                <ele>42.800000</ele>
                <time>2018-02-26T10:32:33.644Z</time>
            </trkpt>
            <trkpt lon="100.975224" lat="12.868022">
                <ele>42.700000</ele>
                <time>2018-02-26T10:33:47.644Z</time>
            </trkpt>
            <trkpt lon="100.975204" lat="12.868068">
                <ele>43.100000</ele>
                <time>2018-02-26T10:33:49.644Z</time>
            </trkpt>
            <trkpt lon="100.975189" lat="12.868107">
                <ele>43.100000</ele>
                <time>2018-02-26T10:33:50.644Z</time>
            </trkpt>
            <trkpt lon="100.975175" lat="12.868141">
                <ele>43.100000</ele>
                <time>2018-02-26T10:33:51.644Z</time>
            </trkpt>
            <trkpt lon="100.975160" lat="12.868171">
                <ele>43.100000</ele>
                <time>2018-02-26T10:33:52.644Z</time>
            </trkpt>
            <trkpt lon="100.975148" lat="12.868203">
                <ele>43.100000</ele>
                <time>2018-02-26T10:33:53.644Z</time>
            </trkpt>
            <trkpt lon="100.975136" lat="12.868233">
                <ele>42.800000</ele>
                <time>2018-02-26T10:33:54.644Z</time>
            </trkpt>
            <trkpt lon="100.975125" lat="12.868260">
                <ele>42.700000</ele>
                <time>2018-02-26T10:33:55.644Z</time>
            </trkpt>
            <trkpt lon="100.975113" lat="12.868293">
                <ele>42.600000</ele>
                <time>2018-02-26T10:33:56.644Z</time>
            </trkpt>
            <trkpt lon="100.975103" lat="12.868321">
                <ele>42.500000</ele>
                <time>2018-02-26T10:33:57.644Z</time>
            </trkpt>
            <trkpt lon="100.975094" lat="12.868352">
                <ele>42.600000</ele>
                <time>2018-02-26T10:33:58.644Z</time>
            </trkpt>
            <trkpt lon="100.975088" lat="12.868378">
                <ele>42.600000</ele>
                <time>2018-02-26T10:33:59.644Z</time>
            </trkpt>
            <trkpt lon="100.975079" lat="12.868405">
                <ele>42.500000</ele>
                <time>2018-02-26T10:34:00.644Z</time>
            </trkpt>
            <trkpt lon="100.975057" lat="12.868451">
                <ele>42.400000</ele>
                <time>2018-02-26T10:34:02.644Z</time>
            </trkpt>
            <trkpt lon="100.975045" lat="12.868477">
                <ele>42.300000</ele>
                <time>2018-02-26T10:34:03.644Z</time>
            </trkpt>
            <trkpt lon="100.975039" lat="12.868504">
                <ele>41.900000</ele>
                <time>2018-02-26T10:34:04.644Z</time>
            </trkpt>
            <trkpt lon="100.975030" lat="12.868531">
                <ele>41.900000</ele>
                <time>2018-02-26T10:34:05.644Z</time>
            </trkpt>
            <trkpt lon="100.975015" lat="12.868558">
                <ele>41.800000</ele>
                <time>2018-02-26T10:34:06.644Z</time>
            </trkpt>
            <trkpt lon="100.974998" lat="12.868583">
                <ele>41.600000</ele>
                <time>2018-02-26T10:34:07.644Z</time>
            </trkpt>
            <trkpt lon="100.974979" lat="12.868611">
                <ele>41.600000</ele>
                <time>2018-02-26T10:34:08.644Z</time>
            </trkpt>
            <trkpt lon="100.974952" lat="12.868665">
                <ele>41.500000</ele>
                <time>2018-02-26T10:34:10.644Z</time>
            </trkpt>
            <trkpt lon="100.974923" lat="12.868715">
                <ele>41.500000</ele>
                <time>2018-02-26T10:34:12.644Z</time>
            </trkpt>
            <trkpt lon="100.974905" lat="12.868736">
                <ele>41.300000</ele>
                <time>2018-02-26T10:34:13.644Z</time>
            </trkpt>
            <trkpt lon="100.974868" lat="12.868764">
                <ele>41.100000</ele>
                <time>2018-02-26T10:34:15.644Z</time>
            </trkpt>
            <trkpt lon="100.974823" lat="12.868767">
                <ele>40.800000</ele>
                <time>2018-02-26T10:34:17.644Z</time>
            </trkpt>
            <trkpt lon="100.974780" lat="12.868759">
                <ele>40.500000</ele>
                <time>2018-02-26T10:34:19.644Z</time>
            </trkpt>
            <trkpt lon="100.974736" lat="12.868747">
                <ele>40.400000</ele>
                <time>2018-02-26T10:34:21.644Z</time>
            </trkpt>
            <trkpt lon="100.974703" lat="12.868742">
                <ele>40.400000</ele>
                <time>2018-02-26T10:34:23.644Z</time>
            </trkpt>
            <trkpt lon="100.974673" lat="12.868757">
                <ele>40.200000</ele>
                <time>2018-02-26T10:34:25.644Z</time>
            </trkpt>
            <trkpt lon="100.974662" lat="12.868787">
                <ele>40.200000</ele>
                <time>2018-02-26T10:34:34.644Z</time>
            </trkpt>
            <trkpt lon="100.974665" lat="12.868825">
                <ele>40.200000</ele>
                <time>2018-02-26T10:34:36.644Z</time>
            </trkpt>
            <trkpt lon="100.974665" lat="12.868866">
                <ele>40.200000</ele>
                <time>2018-02-26T10:34:38.644Z</time>
            </trkpt>
            <trkpt lon="100.974667" lat="12.868913">
                <ele>40.200000</ele>
                <time>2018-02-26T10:34:40.644Z</time>
            </trkpt>
            <trkpt lon="100.974675" lat="12.868957">
                <ele>40.400000</ele>
                <time>2018-02-26T10:34:42.644Z</time>
            </trkpt>
            <trkpt lon="100.974678" lat="12.869001">
                <ele>41.200000</ele>
                <time>2018-02-26T10:34:44.644Z</time>
            </trkpt>
            <trkpt lon="100.974677" lat="12.869047">
                <ele>41.700000</ele>
                <time>2018-02-26T10:34:46.644Z</time>
            </trkpt>
            <trkpt lon="100.974677" lat="12.869093">
                <ele>42.100000</ele>
                <time>2018-02-26T10:34:48.644Z</time>
            </trkpt>
            <trkpt lon="100.974680" lat="12.869145">
                <ele>42.500000</ele>
                <time>2018-02-26T10:34:50.644Z</time>
            </trkpt>
            <trkpt lon="100.974681" lat="12.869174">
                <ele>42.700000</ele>
                <time>2018-02-26T10:34:51.644Z</time>
            </trkpt>
            <trkpt lon="100.974682" lat="12.869224">
                <ele>42.900000</ele>
                <time>2018-02-26T10:34:53.644Z</time>
            </trkpt>
            <trkpt lon="100.974686" lat="12.869265">
                <ele>43.100000</ele>
                <time>2018-02-26T10:34:55.644Z</time>
            </trkpt>
            <trkpt lon="100.974694" lat="12.869310">
                <ele>43.400000</ele>
                <time>2018-02-26T10:34:57.644Z</time>
            </trkpt>
            <trkpt lon="100.974706" lat="12.869338">
                <ele>43.100000</ele>
                <time>2018-02-26T10:34:58.644Z</time>
            </trkpt>
            <trkpt lon="100.974721" lat="12.869363">
                <ele>43.000000</ele>
                <time>2018-02-26T10:34:59.644Z</time>
            </trkpt>
            <trkpt lon="100.974729" lat="12.869394">
                <ele>43.400000</ele>
                <time>2018-02-26T10:35:00.644Z</time>
            </trkpt>
            <trkpt lon="100.974730" lat="12.869425">
                <ele>43.600000</ele>
                <time>2018-02-26T10:35:01.644Z</time>
            </trkpt>
            <trkpt lon="100.974730" lat="12.869456">
                <ele>43.600000</ele>
                <time>2018-02-26T10:35:02.644Z</time>
            </trkpt>
            <trkpt lon="100.974731" lat="12.869488">
                <ele>43.700000</ele>
                <time>2018-02-26T10:35:03.644Z</time>
            </trkpt>
            <trkpt lon="100.974730" lat="12.869523">
                <ele>43.700000</ele>
                <time>2018-02-26T10:35:04.644Z</time>
            </trkpt>
            <trkpt lon="100.974730" lat="12.869558">
                <ele>43.600000</ele>
                <time>2018-02-26T10:35:05.644Z</time>
            </trkpt>
            <trkpt lon="100.974731" lat="12.869600">
                <ele>43.500000</ele>
                <time>2018-02-26T10:35:06.644Z</time>
            </trkpt>
            <trkpt lon="100.974736" lat="12.869638">
                <ele>43.600000</ele>
                <time>2018-02-26T10:35:07.644Z</time>
            </trkpt>
            <trkpt lon="100.974743" lat="12.869674">
                <ele>43.400000</ele>
                <time>2018-02-26T10:35:08.644Z</time>
            </trkpt>
            <trkpt lon="100.974753" lat="12.869709">
                <ele>43.400000</ele>
                <time>2018-02-26T10:35:09.644Z</time>
            </trkpt>
            <trkpt lon="100.974763" lat="12.869745">
                <ele>43.700000</ele>
                <time>2018-02-26T10:35:10.644Z</time>
            </trkpt>
            <trkpt lon="100.974774" lat="12.869782">
                <ele>43.900000</ele>
                <time>2018-02-26T10:35:11.644Z</time>
            </trkpt>
            <trkpt lon="100.974788" lat="12.869817">
                <ele>43.800000</ele>
                <time>2018-02-26T10:35:12.644Z</time>
            </trkpt>
            <trkpt lon="100.974803" lat="12.869851">
                <ele>43.900000</ele>
                <time>2018-02-26T10:35:13.644Z</time>
            </trkpt>
            <trkpt lon="100.974823" lat="12.869883">
                <ele>43.900000</ele>
                <time>2018-02-26T10:35:14.644Z</time>
            </trkpt>
            <trkpt lon="100.974839" lat="12.869914">
                <ele>43.500000</ele>
                <time>2018-02-26T10:35:15.644Z</time>
            </trkpt>
            <trkpt lon="100.974840" lat="12.869942">
                <ele>43.500000</ele>
                <time>2018-02-26T10:35:16.644Z</time>
            </trkpt>
            <trkpt lon="100.974837" lat="12.869969">
                <ele>43.500000</ele>
                <time>2018-02-26T10:35:17.644Z</time>
            </trkpt>
            <trkpt lon="100.974825" lat="12.870020">
                <ele>43.600000</ele>
                <time>2018-02-26T10:35:19.644Z</time>
            </trkpt>
            <trkpt lon="100.974816" lat="12.870048">
                <ele>43.500000</ele>
                <time>2018-02-26T10:35:20.644Z</time>
            </trkpt>
            <trkpt lon="100.974807" lat="12.870081">
                <ele>43.500000</ele>
                <time>2018-02-26T10:35:21.644Z</time>
            </trkpt>
            <trkpt lon="100.974796" lat="12.870117">
                <ele>43.300000</ele>
                <time>2018-02-26T10:35:22.644Z</time>
            </trkpt>
            <trkpt lon="100.974786" lat="12.870150">
                <ele>42.900000</ele>
                <time>2018-02-26T10:35:23.644Z</time>
            </trkpt>
            <trkpt lon="100.974776" lat="12.870181">
                <ele>42.400000</ele>
                <time>2018-02-26T10:35:24.644Z</time>
            </trkpt>
            <trkpt lon="100.974765" lat="12.870210">
                <ele>42.300000</ele>
                <time>2018-02-26T10:35:25.644Z</time>
            </trkpt>
            <trkpt lon="100.974753" lat="12.870244">
                <ele>41.800000</ele>
                <time>2018-02-26T10:35:26.644Z</time>
            </trkpt>
            <trkpt lon="100.974741" lat="12.870271">
                <ele>41.200000</ele>
                <time>2018-02-26T10:35:27.644Z</time>
            </trkpt>
            <trkpt lon="100.974731" lat="12.870297">
                <ele>40.700000</ele>
                <time>2018-02-26T10:35:28.644Z</time>
            </trkpt>
            <trkpt lon="100.974717" lat="12.870324">
                <ele>40.600000</ele>
                <time>2018-02-26T10:35:29.644Z</time>
            </trkpt>
            <trkpt lon="100.974702" lat="12.870357">
                <ele>40.000000</ele>
                <time>2018-02-26T10:35:30.644Z</time>
            </trkpt>
            <trkpt lon="100.974684" lat="12.870392">
                <ele>39.500000</ele>
                <time>2018-02-26T10:35:31.644Z</time>
            </trkpt>
            <trkpt lon="100.974656" lat="12.870420">
                <ele>39.500000</ele>
                <time>2018-02-26T10:35:32.644Z</time>
            </trkpt>
            <trkpt lon="100.974631" lat="12.870442">
                <ele>39.000000</ele>
                <time>2018-02-26T10:35:33.644Z</time>
            </trkpt>
            <trkpt lon="100.974601" lat="12.870461">
                <ele>39.100000</ele>
                <time>2018-02-26T10:35:34.644Z</time>
            </trkpt>
            <trkpt lon="100.974571" lat="12.870467">
                <ele>38.700000</ele>
                <time>2018-02-26T10:35:35.644Z</time>
            </trkpt>
            <trkpt lon="100.974541" lat="12.870460">
                <ele>39.100000</ele>
                <time>2018-02-26T10:35:36.644Z</time>
            </trkpt>
            <trkpt lon="100.974514" lat="12.870452">
                <ele>39.200000</ele>
                <time>2018-02-26T10:35:37.644Z</time>
            </trkpt>
            <trkpt lon="100.974485" lat="12.870440">
                <ele>39.100000</ele>
                <time>2018-02-26T10:35:38.644Z</time>
            </trkpt>
            <trkpt lon="100.974427" lat="12.870428">
                <ele>39.100000</ele>
                <time>2018-02-26T10:35:40.644Z</time>
            </trkpt>
            <trkpt lon="100.974392" lat="12.870426">
                <ele>39.100000</ele>
                <time>2018-02-26T10:35:41.644Z</time>
            </trkpt>
            <trkpt lon="100.974349" lat="12.870420">
                <ele>39.600000</ele>
                <time>2018-02-26T10:35:42.644Z</time>
            </trkpt>
            <trkpt lon="100.974304" lat="12.870412">
                <ele>39.500000</ele>
                <time>2018-02-26T10:35:43.644Z</time>
            </trkpt>
            <trkpt lon="100.974260" lat="12.870402">
                <ele>39.500000</ele>
                <time>2018-02-26T10:35:44.644Z</time>
            </trkpt>
            <trkpt lon="100.974217" lat="12.870393">
                <ele>39.600000</ele>
                <time>2018-02-26T10:35:45.644Z</time>
            </trkpt>
            <trkpt lon="100.974174" lat="12.870386">
                <ele>39.800000</ele>
                <time>2018-02-26T10:35:46.644Z</time>
            </trkpt>
            <trkpt lon="100.974136" lat="12.870380">
                <ele>40.600000</ele>
                <time>2018-02-26T10:35:47.644Z</time>
            </trkpt>
            <trkpt lon="100.974096" lat="12.870377">
                <ele>40.900000</ele>
                <time>2018-02-26T10:35:48.644Z</time>
            </trkpt>
            <trkpt lon="100.974059" lat="12.870374">
                <ele>40.900000</ele>
                <time>2018-02-26T10:35:49.644Z</time>
            </trkpt>
            <trkpt lon="100.974020" lat="12.870366">
                <ele>41.300000</ele>
                <time>2018-02-26T10:35:50.644Z</time>
            </trkpt>
            <trkpt lon="100.973983" lat="12.870360">
                <ele>41.600000</ele>
                <time>2018-02-26T10:35:51.644Z</time>
            </trkpt>
            <trkpt lon="100.973948" lat="12.870356">
                <ele>41.800000</ele>
                <time>2018-02-26T10:35:52.644Z</time>
            </trkpt>
            <trkpt lon="100.973912" lat="12.870351">
                <ele>41.900000</ele>
                <time>2018-02-26T10:35:53.644Z</time>
            </trkpt>
            <trkpt lon="100.973868" lat="12.870344">
                <ele>41.900000</ele>
                <time>2018-02-26T10:35:54.644Z</time>
            </trkpt>
            <trkpt lon="100.973827" lat="12.870338">
                <ele>42.100000</ele>
                <time>2018-02-26T10:35:55.644Z</time>
            </trkpt>
            <trkpt lon="100.973785" lat="12.870328">
                <ele>41.800000</ele>
                <time>2018-02-26T10:35:56.644Z</time>
            </trkpt>
            <trkpt lon="100.973744" lat="12.870317">
                <ele>41.600000</ele>
                <time>2018-02-26T10:35:57.644Z</time>
            </trkpt>
            <trkpt lon="100.973703" lat="12.870306">
                <ele>41.400000</ele>
                <time>2018-02-26T10:35:58.644Z</time>
            </trkpt>
            <trkpt lon="100.973661" lat="12.870298">
                <ele>41.400000</ele>
                <time>2018-02-26T10:35:59.644Z</time>
            </trkpt>
            <trkpt lon="100.973620" lat="12.870292">
                <ele>41.700000</ele>
                <time>2018-02-26T10:36:00.644Z</time>
            </trkpt>
            <trkpt lon="100.973580" lat="12.870283">
                <ele>41.700000</ele>
                <time>2018-02-26T10:36:01.644Z</time>
            </trkpt>
            <trkpt lon="100.973540" lat="12.870273">
                <ele>41.700000</ele>
                <time>2018-02-26T10:36:02.644Z</time>
            </trkpt>
            <trkpt lon="100.973503" lat="12.870263">
                <ele>41.800000</ele>
                <time>2018-02-26T10:36:03.644Z</time>
            </trkpt>
            <trkpt lon="100.973461" lat="12.870249">
                <ele>42.000000</ele>
                <time>2018-02-26T10:36:04.644Z</time>
            </trkpt>
            <trkpt lon="100.973413" lat="12.870234">
                <ele>42.000000</ele>
                <time>2018-02-26T10:36:05.644Z</time>
            </trkpt>
            <trkpt lon="100.973372" lat="12.870218">
                <ele>42.000000</ele>
                <time>2018-02-26T10:36:06.644Z</time>
            </trkpt>
            <trkpt lon="100.973330" lat="12.870205">
                <ele>42.200000</ele>
                <time>2018-02-26T10:36:07.644Z</time>
            </trkpt>
            <trkpt lon="100.973294" lat="12.870195">
                <ele>42.200000</ele>
                <time>2018-02-26T10:36:08.644Z</time>
            </trkpt>
            <trkpt lon="100.973255" lat="12.870180">
                <ele>42.200000</ele>
                <time>2018-02-26T10:36:09.644Z</time>
            </trkpt>
            <trkpt lon="100.973212" lat="12.870166">
                <ele>42.400000</ele>
                <time>2018-02-26T10:36:10.644Z</time>
            </trkpt>
            <trkpt lon="100.973173" lat="12.870150">
                <ele>42.400000</ele>
                <time>2018-02-26T10:36:11.644Z</time>
            </trkpt>
            <trkpt lon="100.973137" lat="12.870139">
                <ele>42.500000</ele>
                <time>2018-02-26T10:36:12.644Z</time>
            </trkpt>
            <trkpt lon="100.973099" lat="12.870129">
                <ele>42.600000</ele>
                <time>2018-02-26T10:36:13.644Z</time>
            </trkpt>
            <trkpt lon="100.973059" lat="12.870119">
                <ele>42.600000</ele>
                <time>2018-02-26T10:36:14.644Z</time>
            </trkpt>
            <trkpt lon="100.973018" lat="12.870106">
                <ele>42.500000</ele>
                <time>2018-02-26T10:36:15.644Z</time>
            </trkpt>
            <trkpt lon="100.972977" lat="12.870095">
                <ele>42.300000</ele>
                <time>2018-02-26T10:36:16.644Z</time>
            </trkpt>
            <trkpt lon="100.972933" lat="12.870086">
                <ele>42.100000</ele>
                <time>2018-02-26T10:36:17.644Z</time>
            </trkpt>
            <trkpt lon="100.972888" lat="12.870077">
                <ele>41.800000</ele>
                <time>2018-02-26T10:36:18.644Z</time>
            </trkpt>
            <trkpt lon="100.972845" lat="12.870067">
                <ele>41.300000</ele>
                <time>2018-02-26T10:36:19.644Z</time>
            </trkpt>
            <trkpt lon="100.972805" lat="12.870060">
                <ele>40.700000</ele>
                <time>2018-02-26T10:36:20.644Z</time>
            </trkpt>
            <trkpt lon="100.972766" lat="12.870053">
                <ele>40.100000</ele>
                <time>2018-02-26T10:36:21.644Z</time>
            </trkpt>
            <trkpt lon="100.972725" lat="12.870044">
                <ele>40.100000</ele>
                <time>2018-02-26T10:36:22.644Z</time>
            </trkpt>
            <trkpt lon="100.972685" lat="12.870038">
                <ele>39.500000</ele>
                <time>2018-02-26T10:36:23.644Z</time>
            </trkpt>
            <trkpt lon="100.972644" lat="12.870030">
                <ele>39.100000</ele>
                <time>2018-02-26T10:36:24.644Z</time>
            </trkpt>
            <trkpt lon="100.972599" lat="12.870025">
                <ele>38.800000</ele>
                <time>2018-02-26T10:36:25.644Z</time>
            </trkpt>
            <trkpt lon="100.972553" lat="12.870019">
                <ele>38.600000</ele>
                <time>2018-02-26T10:36:26.644Z</time>
            </trkpt>
            <trkpt lon="100.972511" lat="12.870013">
                <ele>38.400000</ele>
                <time>2018-02-26T10:36:27.644Z</time>
            </trkpt>
            <trkpt lon="100.972469" lat="12.870009">
                <ele>38.100000</ele>
                <time>2018-02-26T10:36:28.644Z</time>
            </trkpt>
            <trkpt lon="100.972430" lat="12.870003">
                <ele>37.900000</ele>
                <time>2018-02-26T10:36:29.644Z</time>
            </trkpt>
            <trkpt lon="100.972387" lat="12.869996">
                <ele>37.600000</ele>
                <time>2018-02-26T10:36:30.644Z</time>
            </trkpt>
            <trkpt lon="100.972345" lat="12.869995">
                <ele>37.300000</ele>
                <time>2018-02-26T10:36:31.644Z</time>
            </trkpt>
            <trkpt lon="100.972303" lat="12.869994">
                <ele>37.100000</ele>
                <time>2018-02-26T10:36:32.644Z</time>
            </trkpt>
            <trkpt lon="100.972260" lat="12.869995">
                <ele>37.000000</ele>
                <time>2018-02-26T10:36:33.644Z</time>
            </trkpt>
            <trkpt lon="100.972221" lat="12.869995">
                <ele>37.000000</ele>
                <time>2018-02-26T10:36:34.644Z</time>
            </trkpt>
            <trkpt lon="100.972184" lat="12.869996">
                <ele>37.100000</ele>
                <time>2018-02-26T10:36:35.644Z</time>
            </trkpt>
            <trkpt lon="100.972141" lat="12.869993">
                <ele>37.300000</ele>
                <time>2018-02-26T10:36:36.644Z</time>
            </trkpt>
            <trkpt lon="100.972101" lat="12.869998">
                <ele>37.600000</ele>
                <time>2018-02-26T10:36:37.644Z</time>
            </trkpt>
            <trkpt lon="100.972063" lat="12.870001">
                <ele>37.900000</ele>
                <time>2018-02-26T10:36:38.644Z</time>
            </trkpt>
            <trkpt lon="100.972026" lat="12.869999">
                <ele>38.200000</ele>
                <time>2018-02-26T10:36:39.644Z</time>
            </trkpt>
            <trkpt lon="100.971998" lat="12.870000">
                <ele>38.100000</ele>
                <time>2018-02-26T10:36:40.644Z</time>
            </trkpt>
            <trkpt lon="100.971961" lat="12.869998">
                <ele>38.200000</ele>
                <time>2018-02-26T10:36:41.644Z</time>
            </trkpt>
            <trkpt lon="100.971928" lat="12.869997">
                <ele>38.200000</ele>
                <time>2018-02-26T10:36:42.644Z</time>
            </trkpt>
            <trkpt lon="100.971890" lat="12.869996">
                <ele>38.200000</ele>
                <time>2018-02-26T10:36:43.644Z</time>
            </trkpt>
            <trkpt lon="100.971851" lat="12.869995">
                <ele>38.200000</ele>
                <time>2018-02-26T10:36:44.644Z</time>
            </trkpt>
            <trkpt lon="100.971814" lat="12.869998">
                <ele>38.400000</ele>
                <time>2018-02-26T10:36:45.644Z</time>
            </trkpt>
            <trkpt lon="100.971777" lat="12.869998">
                <ele>38.700000</ele>
                <time>2018-02-26T10:36:46.644Z</time>
            </trkpt>
            <trkpt lon="100.971735" lat="12.869997">
                <ele>39.000000</ele>
                <time>2018-02-26T10:36:47.644Z</time>
            </trkpt>
            <trkpt lon="100.971692" lat="12.869999">
                <ele>39.200000</ele>
                <time>2018-02-26T10:36:48.644Z</time>
            </trkpt>
            <trkpt lon="100.971649" lat="12.870001">
                <ele>39.300000</ele>
                <time>2018-02-26T10:36:49.644Z</time>
            </trkpt>
            <trkpt lon="100.971608" lat="12.870002">
                <ele>39.300000</ele>
                <time>2018-02-26T10:36:50.644Z</time>
            </trkpt>
            <trkpt lon="100.971566" lat="12.869999">
                <ele>39.300000</ele>
                <time>2018-02-26T10:36:51.644Z</time>
            </trkpt>
            <trkpt lon="100.971527" lat="12.869995">
                <ele>39.200000</ele>
                <time>2018-02-26T10:36:52.644Z</time>
            </trkpt>
            <trkpt lon="100.971490" lat="12.869994">
                <ele>39.100000</ele>
                <time>2018-02-26T10:36:53.644Z</time>
            </trkpt>
            <trkpt lon="100.971451" lat="12.869993">
                <ele>39.000000</ele>
                <time>2018-02-26T10:36:54.644Z</time>
            </trkpt>
            <trkpt lon="100.971413" lat="12.869990">
                <ele>39.000000</ele>
                <time>2018-02-26T10:36:55.644Z</time>
            </trkpt>
            <trkpt lon="100.971377" lat="12.869991">
                <ele>39.000000</ele>
                <time>2018-02-26T10:36:56.644Z</time>
            </trkpt>
            <trkpt lon="100.971339" lat="12.869992">
                <ele>39.000000</ele>
                <time>2018-02-26T10:36:57.644Z</time>
            </trkpt>
            <trkpt lon="100.971301" lat="12.869993">
                <ele>39.100000</ele>
                <time>2018-02-26T10:36:58.644Z</time>
            </trkpt>
            <trkpt lon="100.971266" lat="12.869995">
                <ele>39.100000</ele>
                <time>2018-02-26T10:36:59.644Z</time>
            </trkpt>
            <trkpt lon="100.971237" lat="12.869995">
                <ele>39.200000</ele>
                <time>2018-02-26T10:37:00.644Z</time>
            </trkpt>
            <trkpt lon="100.971182" lat="12.869995">
                <ele>39.200000</ele>
                <time>2018-02-26T10:37:02.644Z</time>
            </trkpt>
            <trkpt lon="100.971128" lat="12.869991">
                <ele>39.000000</ele>
                <time>2018-02-26T10:37:04.644Z</time>
            </trkpt>
            <trkpt lon="100.971098" lat="12.869990">
                <ele>39.000000</ele>
                <time>2018-02-26T10:37:05.644Z</time>
            </trkpt>
            <trkpt lon="100.971053" lat="12.869994">
                <ele>38.700000</ele>
                <time>2018-02-26T10:37:07.644Z</time>
            </trkpt>
            <trkpt lon="100.971024" lat="12.869997">
                <ele>38.400000</ele>
                <time>2018-02-26T10:37:22.644Z</time>
            </trkpt>
            <trkpt lon="100.971053" lat="12.869997">
                <ele>38.700000</ele>
                <time>2018-02-26T10:37:57.644Z</time>
            </trkpt>
            <trkpt lon="100.971034" lat="12.869953">
                <ele>38.700000</ele>
                <time>2018-02-26T10:38:17.644Z</time>
            </trkpt>
            <trkpt lon="100.971026" lat="12.869927">
                <ele>38.700000</ele>
                <time>2018-02-26T10:38:18.644Z</time>
            </trkpt>
            <trkpt lon="100.971019" lat="12.869897">
                <ele>38.700000</ele>
                <time>2018-02-26T10:38:19.644Z</time>
            </trkpt>
            <trkpt lon="100.971011" lat="12.869863">
                <ele>38.700000</ele>
                <time>2018-02-26T10:38:20.644Z</time>
            </trkpt>
            <trkpt lon="100.971003" lat="12.869826">
                <ele>38.700000</ele>
                <time>2018-02-26T10:38:21.644Z</time>
            </trkpt>
            <trkpt lon="100.970993" lat="12.869792">
                <ele>38.800000</ele>
                <time>2018-02-26T10:38:22.644Z</time>
            </trkpt>
            <trkpt lon="100.970988" lat="12.869754">
                <ele>38.800000</ele>
                <time>2018-02-26T10:38:23.644Z</time>
            </trkpt>
            <trkpt lon="100.970982" lat="12.869719">
                <ele>38.800000</ele>
                <time>2018-02-26T10:38:24.644Z</time>
            </trkpt>
            <trkpt lon="100.970974" lat="12.869684">
                <ele>38.800000</ele>
                <time>2018-02-26T10:38:25.644Z</time>
            </trkpt>
            <trkpt lon="100.970974" lat="12.869645">
                <ele>38.800000</ele>
                <time>2018-02-26T10:38:26.644Z</time>
            </trkpt>
            <trkpt lon="100.970975" lat="12.869604">
                <ele>38.800000</ele>
                <time>2018-02-26T10:38:27.644Z</time>
            </trkpt>
            <trkpt lon="100.970977" lat="12.869563">
                <ele>38.800000</ele>
                <time>2018-02-26T10:38:28.644Z</time>
            </trkpt>
            <trkpt lon="100.970975" lat="12.869522">
                <ele>38.900000</ele>
                <time>2018-02-26T10:38:29.644Z</time>
            </trkpt>
            <trkpt lon="100.970975" lat="12.869475">
                <ele>38.900000</ele>
                <time>2018-02-26T10:38:30.644Z</time>
            </trkpt>
            <trkpt lon="100.970970" lat="12.869438">
                <ele>38.900000</ele>
                <time>2018-02-26T10:38:31.644Z</time>
            </trkpt>
            <trkpt lon="100.970969" lat="12.869392">
                <ele>38.900000</ele>
                <time>2018-02-26T10:38:32.644Z</time>
            </trkpt>
            <trkpt lon="100.970968" lat="12.869347">
                <ele>38.900000</ele>
                <time>2018-02-26T10:38:33.644Z</time>
            </trkpt>
            <trkpt lon="100.970965" lat="12.869302">
                <ele>38.900000</ele>
                <time>2018-02-26T10:38:34.644Z</time>
            </trkpt>
            <trkpt lon="100.970963" lat="12.869259">
                <ele>38.900000</ele>
                <time>2018-02-26T10:38:35.644Z</time>
            </trkpt>
            <trkpt lon="100.970961" lat="12.869219">
                <ele>38.900000</ele>
                <time>2018-02-26T10:38:36.644Z</time>
            </trkpt>
            <trkpt lon="100.970962" lat="12.869181">
                <ele>38.900000</ele>
                <time>2018-02-26T10:38:37.644Z</time>
            </trkpt>
            <trkpt lon="100.970966" lat="12.869141">
                <ele>38.900000</ele>
                <time>2018-02-26T10:38:38.644Z</time>
            </trkpt>
            <trkpt lon="100.970969" lat="12.869109">
                <ele>38.900000</ele>
                <time>2018-02-26T10:38:39.644Z</time>
            </trkpt>
            <trkpt lon="100.970985" lat="12.869081">
                <ele>38.900000</ele>
                <time>2018-02-26T10:38:40.644Z</time>
            </trkpt>
            <trkpt lon="100.970999" lat="12.869049">
                <ele>39.000000</ele>
                <time>2018-02-26T10:38:41.644Z</time>
            </trkpt>
            <trkpt lon="100.971010" lat="12.869024">
                <ele>39.000000</ele>
                <time>2018-02-26T10:38:42.644Z</time>
            </trkpt>
            <trkpt lon="100.970904" lat="12.868963">
                <ele>39.000000</ele>
                <time>2018-02-26T11:00:35.644Z</time>
            </trkpt>
            <trkpt lon="100.970917" lat="12.868930">
                <ele>39.000000</ele>
                <time>2018-02-26T11:00:39.644Z</time>
            </trkpt>
            <trkpt lon="100.970945" lat="12.868921">
                <ele>39.000000</ele>
                <time>2018-02-26T11:00:44.644Z</time>
            </trkpt>
            <trkpt lon="100.970993" lat="12.868982">
                <ele>39.000000</ele>
                <time>2018-02-26T11:01:58.644Z</time>
            </trkpt>
            <trkpt lon="100.970975" lat="12.869027">
                <ele>39.000000</ele>
                <time>2018-02-26T11:02:00.644Z</time>
            </trkpt>
            <trkpt lon="100.970962" lat="12.869059">
                <ele>39.000000</ele>
                <time>2018-02-26T11:02:01.644Z</time>
            </trkpt>
            <trkpt lon="100.970951" lat="12.869089">
                <ele>39.000000</ele>
                <time>2018-02-26T11:02:02.644Z</time>
            </trkpt>
            <trkpt lon="100.970940" lat="12.869124">
                <ele>39.000000</ele>
                <time>2018-02-26T11:02:03.644Z</time>
            </trkpt>
            <trkpt lon="100.970933" lat="12.869160">
                <ele>38.900000</ele>
                <time>2018-02-26T11:02:04.644Z</time>
            </trkpt>
            <trkpt lon="100.970926" lat="12.869197">
                <ele>38.900000</ele>
                <time>2018-02-26T11:02:05.644Z</time>
            </trkpt>
            <trkpt lon="100.970921" lat="12.869236">
                <ele>38.900000</ele>
                <time>2018-02-26T11:02:06.644Z</time>
            </trkpt>
            <trkpt lon="100.970924" lat="12.869277">
                <ele>38.900000</ele>
                <time>2018-02-26T11:02:07.644Z</time>
            </trkpt>
            <trkpt lon="100.970927" lat="12.869319">
                <ele>38.900000</ele>
                <time>2018-02-26T11:02:08.644Z</time>
            </trkpt>
            <trkpt lon="100.970929" lat="12.869361">
                <ele>38.900000</ele>
                <time>2018-02-26T11:02:09.644Z</time>
            </trkpt>
            <trkpt lon="100.970931" lat="12.869400">
                <ele>38.900000</ele>
                <time>2018-02-26T11:02:10.644Z</time>
            </trkpt>
            <trkpt lon="100.970934" lat="12.869440">
                <ele>38.900000</ele>
                <time>2018-02-26T11:02:11.644Z</time>
            </trkpt>
            <trkpt lon="100.970936" lat="12.869480">
                <ele>38.900000</ele>
                <time>2018-02-26T11:02:12.644Z</time>
            </trkpt>
            <trkpt lon="100.970939" lat="12.869523">
                <ele>38.900000</ele>
                <time>2018-02-26T11:02:13.644Z</time>
            </trkpt>
            <trkpt lon="100.970942" lat="12.869567">
                <ele>38.900000</ele>
                <time>2018-02-26T11:02:14.644Z</time>
            </trkpt>
            <trkpt lon="100.970943" lat="12.869611">
                <ele>38.800000</ele>
                <time>2018-02-26T11:02:15.644Z</time>
            </trkpt>
            <trkpt lon="100.970943" lat="12.869651">
                <ele>38.800000</ele>
                <time>2018-02-26T11:02:16.644Z</time>
            </trkpt>
            <trkpt lon="100.970943" lat="12.869698">
                <ele>38.800000</ele>
                <time>2018-02-26T11:02:17.644Z</time>
            </trkpt>
            <trkpt lon="100.970944" lat="12.869740">
                <ele>38.800000</ele>
                <time>2018-02-26T11:02:18.644Z</time>
            </trkpt>
            <trkpt lon="100.970946" lat="12.869790">
                <ele>38.800000</ele>
                <time>2018-02-26T11:02:19.644Z</time>
            </trkpt>
            <trkpt lon="100.970948" lat="12.869838">
                <ele>38.700000</ele>
                <time>2018-02-26T11:02:20.644Z</time>
            </trkpt>
            <trkpt lon="100.970948" lat="12.869884">
                <ele>38.700000</ele>
                <time>2018-02-26T11:02:21.644Z</time>
            </trkpt>
            <trkpt lon="100.970953" lat="12.869927">
                <ele>38.700000</ele>
                <time>2018-02-26T11:02:22.644Z</time>
            </trkpt>
            <trkpt lon="100.970955" lat="12.869972">
                <ele>38.700000</ele>
                <time>2018-02-26T11:02:23.644Z</time>
            </trkpt>
            <trkpt lon="100.970957" lat="12.870015">
                <ele>38.700000</ele>
                <time>2018-02-26T11:02:24.644Z</time>
            </trkpt>
            <trkpt lon="100.970958" lat="12.870059">
                <ele>38.700000</ele>
                <time>2018-02-26T11:02:25.644Z</time>
            </trkpt>
            <trkpt lon="100.970961" lat="12.870102">
                <ele>38.700000</ele>
                <time>2018-02-26T11:02:26.644Z</time>
            </trkpt>
            <trkpt lon="100.970962" lat="12.870147">
                <ele>38.700000</ele>
                <time>2018-02-26T11:02:27.644Z</time>
            </trkpt>
            <trkpt lon="100.970966" lat="12.870193">
                <ele>38.600000</ele>
                <time>2018-02-26T11:02:28.644Z</time>
            </trkpt>
            <trkpt lon="100.970967" lat="12.870241">
                <ele>38.600000</ele>
                <time>2018-02-26T11:02:29.644Z</time>
            </trkpt>
            <trkpt lon="100.970968" lat="12.870284">
                <ele>38.600000</ele>
                <time>2018-02-26T11:02:30.644Z</time>
            </trkpt>
            <trkpt lon="100.970969" lat="12.870328">
                <ele>38.600000</ele>
                <time>2018-02-26T11:02:31.644Z</time>
            </trkpt>
            <trkpt lon="100.970971" lat="12.870375">
                <ele>38.600000</ele>
                <time>2018-02-26T11:02:32.644Z</time>
            </trkpt>
            <trkpt lon="100.970973" lat="12.870423">
                <ele>38.600000</ele>
                <time>2018-02-26T11:02:33.644Z</time>
            </trkpt>
            <trkpt lon="100.970976" lat="12.870469">
                <ele>38.600000</ele>
                <time>2018-02-26T11:02:34.644Z</time>
            </trkpt>
            <trkpt lon="100.970978" lat="12.870515">
                <ele>38.500000</ele>
                <time>2018-02-26T11:02:35.644Z</time>
            </trkpt>
            <trkpt lon="100.970981" lat="12.870558">
                <ele>38.500000</ele>
                <time>2018-02-26T11:02:36.644Z</time>
            </trkpt>
            <trkpt lon="100.970982" lat="12.870604">
                <ele>38.500000</ele>
                <time>2018-02-26T11:02:37.644Z</time>
            </trkpt>
            <trkpt lon="100.970985" lat="12.870653">
                <ele>38.500000</ele>
                <time>2018-02-26T11:02:38.644Z</time>
            </trkpt>
            <trkpt lon="100.970988" lat="12.870699">
                <ele>38.500000</ele>
                <time>2018-02-26T11:02:39.644Z</time>
            </trkpt>
            <trkpt lon="100.970990" lat="12.870743">
                <ele>38.500000</ele>
                <time>2018-02-26T11:02:40.644Z</time>
            </trkpt>
            <trkpt lon="100.970992" lat="12.870792">
                <ele>38.500000</ele>
                <time>2018-02-26T11:02:41.644Z</time>
            </trkpt>
            <trkpt lon="100.970996" lat="12.870837">
                <ele>38.500000</ele>
                <time>2018-02-26T11:02:42.644Z</time>
            </trkpt>
            <trkpt lon="100.970999" lat="12.870883">
                <ele>38.500000</ele>
                <time>2018-02-26T11:02:43.644Z</time>
            </trkpt>
            <trkpt lon="100.971000" lat="12.870932">
                <ele>38.500000</ele>
                <time>2018-02-26T11:02:44.644Z</time>
            </trkpt>
            <trkpt lon="100.971000" lat="12.870982">
                <ele>38.400000</ele>
                <time>2018-02-26T11:02:45.644Z</time>
            </trkpt>
            <trkpt lon="100.971001" lat="12.871033">
                <ele>38.400000</ele>
                <time>2018-02-26T11:02:46.644Z</time>
            </trkpt>
            <trkpt lon="100.971002" lat="12.871080">
                <ele>38.400000</ele>
                <time>2018-02-26T11:02:47.644Z</time>
            </trkpt>
            <trkpt lon="100.971003" lat="12.871128">
                <ele>38.400000</ele>
                <time>2018-02-26T11:02:48.644Z</time>
            </trkpt>
            <trkpt lon="100.971007" lat="12.871172">
                <ele>38.400000</ele>
                <time>2018-02-26T11:02:49.644Z</time>
            </trkpt>
            <trkpt lon="100.971009" lat="12.871214">
                <ele>38.400000</ele>
                <time>2018-02-26T11:02:50.644Z</time>
            </trkpt>
            <trkpt lon="100.971012" lat="12.871255">
                <ele>38.400000</ele>
                <time>2018-02-26T11:02:51.644Z</time>
            </trkpt>
            <trkpt lon="100.971016" lat="12.871298">
                <ele>38.400000</ele>
                <time>2018-02-26T11:02:52.644Z</time>
            </trkpt>
            <trkpt lon="100.971020" lat="12.871343">
                <ele>38.400000</ele>
                <time>2018-02-26T11:02:53.644Z</time>
            </trkpt>
            <trkpt lon="100.971024" lat="12.871387">
                <ele>38.400000</ele>
                <time>2018-02-26T11:02:54.644Z</time>
            </trkpt>
            <trkpt lon="100.971029" lat="12.871433">
                <ele>38.300000</ele>
                <time>2018-02-26T11:02:55.644Z</time>
            </trkpt>
            <trkpt lon="100.971034" lat="12.871478">
                <ele>38.300000</ele>
                <time>2018-02-26T11:02:56.644Z</time>
            </trkpt>
            <trkpt lon="100.971035" lat="12.871525">
                <ele>38.300000</ele>
                <time>2018-02-26T11:02:57.644Z</time>
            </trkpt>
            <trkpt lon="100.971038" lat="12.871571">
                <ele>38.300000</ele>
                <time>2018-02-26T11:02:58.644Z</time>
            </trkpt>
            <trkpt lon="100.971043" lat="12.871619">
                <ele>38.300000</ele>
                <time>2018-02-26T11:02:59.644Z</time>
            </trkpt>
            <trkpt lon="100.971046" lat="12.871664">
                <ele>38.300000</ele>
                <time>2018-02-26T11:03:00.644Z</time>
            </trkpt>
            <trkpt lon="100.971050" lat="12.871710">
                <ele>38.300000</ele>
                <time>2018-02-26T11:03:01.644Z</time>
            </trkpt>
            <trkpt lon="100.971052" lat="12.871755">
                <ele>38.300000</ele>
                <time>2018-02-26T11:03:02.644Z</time>
            </trkpt>
            <trkpt lon="100.971055" lat="12.871797">
                <ele>38.300000</ele>
                <time>2018-02-26T11:03:03.644Z</time>
            </trkpt>
            <trkpt lon="100.971058" lat="12.871842">
                <ele>38.300000</ele>
                <time>2018-02-26T11:03:04.644Z</time>
            </trkpt>
            <trkpt lon="100.971059" lat="12.871889">
                <ele>38.200000</ele>
                <time>2018-02-26T11:03:05.644Z</time>
            </trkpt>
            <trkpt lon="100.971061" lat="12.871935">
                <ele>38.200000</ele>
                <time>2018-02-26T11:03:06.644Z</time>
            </trkpt>
            <trkpt lon="100.971065" lat="12.871983">
                <ele>38.200000</ele>
                <time>2018-02-26T11:03:07.644Z</time>
            </trkpt>
            <trkpt lon="100.971067" lat="12.872030">
                <ele>38.200000</ele>
                <time>2018-02-26T11:03:08.644Z</time>
            </trkpt>
            <trkpt lon="100.971069" lat="12.872076">
                <ele>38.200000</ele>
                <time>2018-02-26T11:03:09.644Z</time>
            </trkpt>
            <trkpt lon="100.971071" lat="12.872121">
                <ele>38.200000</ele>
                <time>2018-02-26T11:03:10.644Z</time>
            </trkpt>
            <trkpt lon="100.971075" lat="12.872168">
                <ele>38.200000</ele>
                <time>2018-02-26T11:03:11.644Z</time>
            </trkpt>
            <trkpt lon="100.971079" lat="12.872213">
                <ele>38.200000</ele>
                <time>2018-02-26T11:03:12.644Z</time>
            </trkpt>
            <trkpt lon="100.971085" lat="12.872261">
                <ele>38.200000</ele>
                <time>2018-02-26T11:03:13.644Z</time>
            </trkpt>
            <trkpt lon="100.971085" lat="12.872309">
                <ele>38.200000</ele>
                <time>2018-02-26T11:03:14.644Z</time>
            </trkpt>
            <trkpt lon="100.971088" lat="12.872356">
                <ele>38.200000</ele>
                <time>2018-02-26T11:03:15.644Z</time>
            </trkpt>
            <trkpt lon="100.971093" lat="12.872404">
                <ele>38.200000</ele>
                <time>2018-02-26T11:03:16.644Z</time>
            </trkpt>
            <trkpt lon="100.971096" lat="12.872451">
                <ele>38.200000</ele>
                <time>2018-02-26T11:03:17.644Z</time>
            </trkpt>
            <trkpt lon="100.971099" lat="12.872499">
                <ele>38.300000</ele>
                <time>2018-02-26T11:03:18.644Z</time>
            </trkpt>
            <trkpt lon="100.971103" lat="12.872546">
                <ele>38.300000</ele>
                <time>2018-02-26T11:03:19.644Z</time>
            </trkpt>
            <trkpt lon="100.971104" lat="12.872596">
                <ele>38.300000</ele>
                <time>2018-02-26T11:03:20.644Z</time>
            </trkpt>
            <trkpt lon="100.971108" lat="12.872644">
                <ele>38.400000</ele>
                <time>2018-02-26T11:03:21.644Z</time>
            </trkpt>
            <trkpt lon="100.971111" lat="12.872690">
                <ele>38.400000</ele>
                <time>2018-02-26T11:03:22.644Z</time>
            </trkpt>
            <trkpt lon="100.971111" lat="12.872731">
                <ele>38.500000</ele>
                <time>2018-02-26T11:03:23.644Z</time>
            </trkpt>
            <trkpt lon="100.971115" lat="12.872773">
                <ele>38.500000</ele>
                <time>2018-02-26T11:03:24.644Z</time>
            </trkpt>
            <trkpt lon="100.971118" lat="12.872815">
                <ele>38.600000</ele>
                <time>2018-02-26T11:03:25.644Z</time>
            </trkpt>
            <trkpt lon="100.971122" lat="12.872853">
                <ele>38.700000</ele>
                <time>2018-02-26T11:03:26.644Z</time>
            </trkpt>
            <trkpt lon="100.971124" lat="12.872890">
                <ele>38.800000</ele>
                <time>2018-02-26T11:03:27.644Z</time>
            </trkpt>
            <trkpt lon="100.971124" lat="12.872917">
                <ele>38.800000</ele>
                <time>2018-02-26T11:03:28.644Z</time>
            </trkpt>
            <trkpt lon="100.971117" lat="12.872954">
                <ele>38.900000</ele>
                <time>2018-02-26T11:03:31.644Z</time>
            </trkpt>
            <trkpt lon="100.971073" lat="12.872944">
                <ele>38.900000</ele>
                <time>2018-02-26T11:03:33.644Z</time>
            </trkpt>
            <trkpt lon="100.971046" lat="12.872933">
                <ele>38.900000</ele>
                <time>2018-02-26T11:03:34.644Z</time>
            </trkpt>
            <trkpt lon="100.971017" lat="12.872928">
                <ele>39.000000</ele>
                <time>2018-02-26T11:03:35.644Z</time>
            </trkpt>
            <trkpt lon="100.970956" lat="12.872915">
                <ele>38.900000</ele>
                <time>2018-02-26T11:03:37.644Z</time>
            </trkpt>
            <trkpt lon="100.970929" lat="12.872904">
                <ele>38.900000</ele>
                <time>2018-02-26T11:03:38.644Z</time>
            </trkpt>
            <trkpt lon="100.970902" lat="12.872892">
                <ele>38.700000</ele>
                <time>2018-02-26T11:03:39.644Z</time>
            </trkpt>
            <trkpt lon="100.970879" lat="12.872873">
                <ele>38.800000</ele>
                <time>2018-02-26T11:03:40.644Z</time>
            </trkpt>
            <trkpt lon="100.970855" lat="12.872858">
                <ele>38.700000</ele>
                <time>2018-02-26T11:03:41.644Z</time>
            </trkpt>
            <trkpt lon="100.970825" lat="12.872842">
                <ele>38.800000</ele>
                <time>2018-02-26T11:03:42.644Z</time>
            </trkpt>
            <trkpt lon="100.970791" lat="12.872823">
                <ele>38.700000</ele>
                <time>2018-02-26T11:03:43.644Z</time>
            </trkpt>
            <trkpt lon="100.970755" lat="12.872800">
                <ele>38.900000</ele>
                <time>2018-02-26T11:03:44.644Z</time>
            </trkpt>
            <trkpt lon="100.970720" lat="12.872773">
                <ele>38.700000</ele>
                <time>2018-02-26T11:03:45.644Z</time>
            </trkpt>
            <trkpt lon="100.970690" lat="12.872751">
                <ele>38.700000</ele>
                <time>2018-02-26T11:03:46.644Z</time>
            </trkpt>
            <trkpt lon="100.970667" lat="12.872728">
                <ele>38.700000</ele>
                <time>2018-02-26T11:03:47.644Z</time>
            </trkpt>
            <trkpt lon="100.970634" lat="12.872707">
                <ele>38.700000</ele>
                <time>2018-02-26T11:03:48.644Z</time>
            </trkpt>
            <trkpt lon="100.970598" lat="12.872691">
                <ele>38.500000</ele>
                <time>2018-02-26T11:03:49.644Z</time>
            </trkpt>
            <trkpt lon="100.970560" lat="12.872674">
                <ele>38.500000</ele>
                <time>2018-02-26T11:03:50.644Z</time>
            </trkpt>
            <trkpt lon="100.970527" lat="12.872656">
                <ele>38.200000</ele>
                <time>2018-02-26T11:03:51.644Z</time>
            </trkpt>
            <trkpt lon="100.970492" lat="12.872640">
                <ele>37.900000</ele>
                <time>2018-02-26T11:03:52.644Z</time>
            </trkpt>
            <trkpt lon="100.970455" lat="12.872623">
                <ele>38.200000</ele>
                <time>2018-02-26T11:03:53.644Z</time>
            </trkpt>
            <trkpt lon="100.970410" lat="12.872606">
                <ele>37.900000</ele>
                <time>2018-02-26T11:03:54.644Z</time>
            </trkpt>
            <trkpt lon="100.970367" lat="12.872593">
                <ele>37.900000</ele>
                <time>2018-02-26T11:03:55.644Z</time>
            </trkpt>
            <trkpt lon="100.970319" lat="12.872580">
                <ele>37.300000</ele>
                <time>2018-02-26T11:03:56.644Z</time>
            </trkpt>
            <trkpt lon="100.970269" lat="12.872575">
                <ele>37.100000</ele>
                <time>2018-02-26T11:03:57.644Z</time>
            </trkpt>
            <trkpt lon="100.970222" lat="12.872576">
                <ele>36.900000</ele>
                <time>2018-02-26T11:03:58.644Z</time>
            </trkpt>
            <trkpt lon="100.970175" lat="12.872576">
                <ele>36.900000</ele>
                <time>2018-02-26T11:03:59.644Z</time>
            </trkpt>
            <trkpt lon="100.970123" lat="12.872578">
                <ele>36.800000</ele>
                <time>2018-02-26T11:04:00.644Z</time>
            </trkpt>
            <trkpt lon="100.970071" lat="12.872585">
                <ele>36.800000</ele>
                <time>2018-02-26T11:04:01.644Z</time>
            </trkpt>
            <trkpt lon="100.970026" lat="12.872591">
                <ele>36.900000</ele>
                <time>2018-02-26T11:04:02.644Z</time>
            </trkpt>
            <trkpt lon="100.969982" lat="12.872596">
                <ele>36.900000</ele>
                <time>2018-02-26T11:04:03.644Z</time>
            </trkpt>
            <trkpt lon="100.969937" lat="12.872599">
                <ele>36.900000</ele>
                <time>2018-02-26T11:04:04.644Z</time>
            </trkpt>
            <trkpt lon="100.969889" lat="12.872604">
                <ele>36.800000</ele>
                <time>2018-02-26T11:04:05.644Z</time>
            </trkpt>
            <trkpt lon="100.969850" lat="12.872609">
                <ele>36.800000</ele>
                <time>2018-02-26T11:04:06.644Z</time>
            </trkpt>
            <trkpt lon="100.969813" lat="12.872614">
                <ele>36.700000</ele>
                <time>2018-02-26T11:04:07.644Z</time>
            </trkpt>
            <trkpt lon="100.969763" lat="12.872609">
                <ele>36.800000</ele>
                <time>2018-02-26T11:04:08.644Z</time>
            </trkpt>
            <trkpt lon="100.969719" lat="12.872603">
                <ele>37.100000</ele>
                <time>2018-02-26T11:04:09.644Z</time>
            </trkpt>
            <trkpt lon="100.969676" lat="12.872594">
                <ele>37.200000</ele>
                <time>2018-02-26T11:04:10.644Z</time>
            </trkpt>
            <trkpt lon="100.969632" lat="12.872581">
                <ele>37.400000</ele>
                <time>2018-02-26T11:04:11.644Z</time>
            </trkpt>
            <trkpt lon="100.969592" lat="12.872564">
                <ele>37.400000</ele>
                <time>2018-02-26T11:04:12.644Z</time>
            </trkpt>
            <trkpt lon="100.969556" lat="12.872540">
                <ele>37.200000</ele>
                <time>2018-02-26T11:04:13.644Z</time>
            </trkpt>
            <trkpt lon="100.969523" lat="12.872521">
                <ele>37.300000</ele>
                <time>2018-02-26T11:04:14.644Z</time>
            </trkpt>
            <trkpt lon="100.969488" lat="12.872492">
                <ele>37.000000</ele>
                <time>2018-02-26T11:04:15.644Z</time>
            </trkpt>
            <trkpt lon="100.969451" lat="12.872460">
                <ele>36.700000</ele>
                <time>2018-02-26T11:04:16.644Z</time>
            </trkpt>
            <trkpt lon="100.969411" lat="12.872429">
                <ele>36.300000</ele>
                <time>2018-02-26T11:04:17.644Z</time>
            </trkpt>
            <trkpt lon="100.969372" lat="12.872399">
                <ele>36.300000</ele>
                <time>2018-02-26T11:04:18.644Z</time>
            </trkpt>
            <trkpt lon="100.969337" lat="12.872362">
                <ele>36.000000</ele>
                <time>2018-02-26T11:04:19.644Z</time>
            </trkpt>
            <trkpt lon="100.969298" lat="12.872326">
                <ele>35.900000</ele>
                <time>2018-02-26T11:04:20.644Z</time>
            </trkpt>
            <trkpt lon="100.969261" lat="12.872292">
                <ele>35.800000</ele>
                <time>2018-02-26T11:04:21.644Z</time>
            </trkpt>
            <trkpt lon="100.969222" lat="12.872261">
                <ele>35.700000</ele>
                <time>2018-02-26T11:04:22.644Z</time>
            </trkpt>
            <trkpt lon="100.969182" lat="12.872236">
                <ele>35.600000</ele>
                <time>2018-02-26T11:04:23.644Z</time>
            </trkpt>
            <trkpt lon="100.969145" lat="12.872208">
                <ele>35.600000</ele>
                <time>2018-02-26T11:04:24.644Z</time>
            </trkpt>
            <trkpt lon="100.969105" lat="12.872185">
                <ele>35.600000</ele>
                <time>2018-02-26T11:04:25.644Z</time>
            </trkpt>
            <trkpt lon="100.969067" lat="12.872163">
                <ele>35.900000</ele>
                <time>2018-02-26T11:04:26.644Z</time>
            </trkpt>
            <trkpt lon="100.969030" lat="12.872144">
                <ele>36.100000</ele>
                <time>2018-02-26T11:04:27.644Z</time>
            </trkpt>
            <trkpt lon="100.968994" lat="12.872125">
                <ele>36.200000</ele>
                <time>2018-02-26T11:04:28.644Z</time>
            </trkpt>
            <trkpt lon="100.968959" lat="12.872102">
                <ele>36.500000</ele>
                <time>2018-02-26T11:04:29.644Z</time>
            </trkpt>
            <trkpt lon="100.968919" lat="12.872082">
                <ele>36.700000</ele>
                <time>2018-02-26T11:04:30.644Z</time>
            </trkpt>
            <trkpt lon="100.968878" lat="12.872064">
                <ele>36.800000</ele>
                <time>2018-02-26T11:04:31.644Z</time>
            </trkpt>
            <trkpt lon="100.968837" lat="12.872051">
                <ele>36.800000</ele>
                <time>2018-02-26T11:04:32.644Z</time>
            </trkpt>
            <trkpt lon="100.968795" lat="12.872036">
                <ele>36.800000</ele>
                <time>2018-02-26T11:04:33.644Z</time>
            </trkpt>
            <trkpt lon="100.968747" lat="12.872024">
                <ele>36.900000</ele>
                <time>2018-02-26T11:04:34.644Z</time>
            </trkpt>
            <trkpt lon="100.968700" lat="12.872005">
                <ele>36.900000</ele>
                <time>2018-02-26T11:04:35.644Z</time>
            </trkpt>
            <trkpt lon="100.968653" lat="12.871989">
                <ele>36.900000</ele>
                <time>2018-02-26T11:04:36.644Z</time>
            </trkpt>
            <trkpt lon="100.968607" lat="12.871979">
                <ele>36.900000</ele>
                <time>2018-02-26T11:04:37.644Z</time>
            </trkpt>
            <trkpt lon="100.968562" lat="12.871971">
                <ele>36.900000</ele>
                <time>2018-02-26T11:04:38.644Z</time>
            </trkpt>
            <trkpt lon="100.968519" lat="12.871961">
                <ele>36.800000</ele>
                <time>2018-02-26T11:04:39.644Z</time>
            </trkpt>
            <trkpt lon="100.968482" lat="12.871953">
                <ele>36.500000</ele>
                <time>2018-02-26T11:04:40.644Z</time>
            </trkpt>
            <trkpt lon="100.968443" lat="12.871941">
                <ele>36.200000</ele>
                <time>2018-02-26T11:04:41.644Z</time>
            </trkpt>
            <trkpt lon="100.968400" lat="12.871929">
                <ele>35.900000</ele>
                <time>2018-02-26T11:04:42.644Z</time>
            </trkpt>
            <trkpt lon="100.968359" lat="12.871917">
                <ele>35.600000</ele>
                <time>2018-02-26T11:04:43.644Z</time>
            </trkpt>
            <trkpt lon="100.968315" lat="12.871907">
                <ele>35.300000</ele>
                <time>2018-02-26T11:04:44.644Z</time>
            </trkpt>
            <trkpt lon="100.968273" lat="12.871896">
                <ele>35.100000</ele>
                <time>2018-02-26T11:04:45.644Z</time>
            </trkpt>
            <trkpt lon="100.968232" lat="12.871882">
                <ele>34.900000</ele>
                <time>2018-02-26T11:04:46.644Z</time>
            </trkpt>
            <trkpt lon="100.968187" lat="12.871867">
                <ele>34.600000</ele>
                <time>2018-02-26T11:04:47.644Z</time>
            </trkpt>
            <trkpt lon="100.968140" lat="12.871847">
                <ele>34.300000</ele>
                <time>2018-02-26T11:04:48.644Z</time>
            </trkpt>
            <trkpt lon="100.968091" lat="12.871827">
                <ele>34.000000</ele>
                <time>2018-02-26T11:04:49.644Z</time>
            </trkpt>
            <trkpt lon="100.968042" lat="12.871808">
                <ele>33.800000</ele>
                <time>2018-02-26T11:04:50.644Z</time>
            </trkpt>
            <trkpt lon="100.967995" lat="12.871789">
                <ele>34.200000</ele>
                <time>2018-02-26T11:04:51.644Z</time>
            </trkpt>
            <trkpt lon="100.967948" lat="12.871770">
                <ele>34.500000</ele>
                <time>2018-02-26T11:04:52.644Z</time>
            </trkpt>
            <trkpt lon="100.967905" lat="12.871752">
                <ele>34.800000</ele>
                <time>2018-02-26T11:04:53.644Z</time>
            </trkpt>
            <trkpt lon="100.967862" lat="12.871732">
                <ele>35.000000</ele>
                <time>2018-02-26T11:04:54.644Z</time>
            </trkpt>
            <trkpt lon="100.967817" lat="12.871715">
                <ele>34.900000</ele>
                <time>2018-02-26T11:04:55.644Z</time>
            </trkpt>
            <trkpt lon="100.967776" lat="12.871696">
                <ele>34.800000</ele>
                <time>2018-02-26T11:04:56.644Z</time>
            </trkpt>
            <trkpt lon="100.967740" lat="12.871670">
                <ele>34.800000</ele>
                <time>2018-02-26T11:04:57.644Z</time>
            </trkpt>
            <trkpt lon="100.967702" lat="12.871649">
                <ele>34.900000</ele>
                <time>2018-02-26T11:04:58.644Z</time>
            </trkpt>
            <trkpt lon="100.967664" lat="12.871626">
                <ele>34.900000</ele>
                <time>2018-02-26T11:04:59.644Z</time>
            </trkpt>
            <trkpt lon="100.967624" lat="12.871608">
                <ele>35.100000</ele>
                <time>2018-02-26T11:05:00.644Z</time>
            </trkpt>
            <trkpt lon="100.967586" lat="12.871582">
                <ele>35.200000</ele>
                <time>2018-02-26T11:05:01.644Z</time>
            </trkpt>
            <trkpt lon="100.967546" lat="12.871557">
                <ele>35.400000</ele>
                <time>2018-02-26T11:05:02.644Z</time>
            </trkpt>
            <trkpt lon="100.967510" lat="12.871536">
                <ele>35.200000</ele>
                <time>2018-02-26T11:05:03.644Z</time>
            </trkpt>
            <trkpt lon="100.967476" lat="12.871517">
                <ele>35.200000</ele>
                <time>2018-02-26T11:05:04.644Z</time>
            </trkpt>
            <trkpt lon="100.967442" lat="12.871494">
                <ele>34.900000</ele>
                <time>2018-02-26T11:05:05.644Z</time>
            </trkpt>
            <trkpt lon="100.967411" lat="12.871471">
                <ele>34.900000</ele>
                <time>2018-02-26T11:05:06.644Z</time>
            </trkpt>
            <trkpt lon="100.967382" lat="12.871451">
                <ele>34.800000</ele>
                <time>2018-02-26T11:05:07.644Z</time>
            </trkpt>
            <trkpt lon="100.967353" lat="12.871435">
                <ele>34.700000</ele>
                <time>2018-02-26T11:05:08.644Z</time>
            </trkpt>
            <trkpt lon="100.967326" lat="12.871412">
                <ele>34.700000</ele>
                <time>2018-02-26T11:05:09.644Z</time>
            </trkpt>
            <trkpt lon="100.967293" lat="12.871390">
                <ele>34.700000</ele>
                <time>2018-02-26T11:05:10.644Z</time>
            </trkpt>
            <trkpt lon="100.967259" lat="12.871371">
                <ele>34.800000</ele>
                <time>2018-02-26T11:05:11.644Z</time>
            </trkpt>
            <trkpt lon="100.967227" lat="12.871352">
                <ele>34.800000</ele>
                <time>2018-02-26T11:05:12.644Z</time>
            </trkpt>
            <trkpt lon="100.967203" lat="12.871326">
                <ele>34.800000</ele>
                <time>2018-02-26T11:05:13.644Z</time>
            </trkpt>
            <trkpt lon="100.967172" lat="12.871309">
                <ele>34.900000</ele>
                <time>2018-02-26T11:05:14.644Z</time>
            </trkpt>
            <trkpt lon="100.967142" lat="12.871291">
                <ele>34.700000</ele>
                <time>2018-02-26T11:05:15.644Z</time>
            </trkpt>
            <trkpt lon="100.967111" lat="12.871272">
                <ele>34.700000</ele>
                <time>2018-02-26T11:05:16.644Z</time>
            </trkpt>
            <trkpt lon="100.967080" lat="12.871253">
                <ele>34.400000</ele>
                <time>2018-02-26T11:05:17.644Z</time>
            </trkpt>
            <trkpt lon="100.967047" lat="12.871233">
                <ele>34.400000</ele>
                <time>2018-02-26T11:05:18.644Z</time>
            </trkpt>
            <trkpt lon="100.967015" lat="12.871213">
                <ele>34.200000</ele>
                <time>2018-02-26T11:05:19.644Z</time>
            </trkpt>
            <trkpt lon="100.966984" lat="12.871190">
                <ele>34.200000</ele>
                <time>2018-02-26T11:05:20.644Z</time>
            </trkpt>
            <trkpt lon="100.966951" lat="12.871170">
                <ele>34.000000</ele>
                <time>2018-02-26T11:05:21.644Z</time>
            </trkpt>
            <trkpt lon="100.966918" lat="12.871148">
                <ele>34.000000</ele>
                <time>2018-02-26T11:05:22.644Z</time>
            </trkpt>
            <trkpt lon="100.966883" lat="12.871123">
                <ele>33.700000</ele>
                <time>2018-02-26T11:05:23.644Z</time>
            </trkpt>
            <trkpt lon="100.966849" lat="12.871098">
                <ele>33.700000</ele>
                <time>2018-02-26T11:05:24.644Z</time>
            </trkpt>
            <trkpt lon="100.966816" lat="12.871072">
                <ele>33.400000</ele>
                <time>2018-02-26T11:05:25.644Z</time>
            </trkpt>
            <trkpt lon="100.966782" lat="12.871043">
                <ele>33.300000</ele>
                <time>2018-02-26T11:05:26.644Z</time>
            </trkpt>
            <trkpt lon="100.966750" lat="12.871011">
                <ele>33.500000</ele>
                <time>2018-02-26T11:05:27.644Z</time>
            </trkpt>
            <trkpt lon="100.966720" lat="12.870980">
                <ele>33.400000</ele>
                <time>2018-02-26T11:05:28.644Z</time>
            </trkpt>
            <trkpt lon="100.966691" lat="12.870952">
                <ele>33.700000</ele>
                <time>2018-02-26T11:05:29.644Z</time>
            </trkpt>
            <trkpt lon="100.966661" lat="12.870925">
                <ele>33.900000</ele>
                <time>2018-02-26T11:05:30.644Z</time>
            </trkpt>
            <trkpt lon="100.966630" lat="12.870894">
                <ele>33.900000</ele>
                <time>2018-02-26T11:05:31.644Z</time>
            </trkpt>
            <trkpt lon="100.966599" lat="12.870863">
                <ele>33.900000</ele>
                <time>2018-02-26T11:05:32.644Z</time>
            </trkpt>
            <trkpt lon="100.966570" lat="12.870830">
                <ele>33.900000</ele>
                <time>2018-02-26T11:05:33.644Z</time>
            </trkpt>
            <trkpt lon="100.966539" lat="12.870794">
                <ele>33.800000</ele>
                <time>2018-02-26T11:05:34.644Z</time>
            </trkpt>
            <trkpt lon="100.966510" lat="12.870762">
                <ele>33.800000</ele>
                <time>2018-02-26T11:05:35.644Z</time>
            </trkpt>
            <trkpt lon="100.966481" lat="12.870730">
                <ele>33.800000</ele>
                <time>2018-02-26T11:05:36.644Z</time>
            </trkpt>
            <trkpt lon="100.966451" lat="12.870698">
                <ele>33.700000</ele>
                <time>2018-02-26T11:05:37.644Z</time>
            </trkpt>
            <trkpt lon="100.966421" lat="12.870664">
                <ele>33.700000</ele>
                <time>2018-02-26T11:05:38.644Z</time>
            </trkpt>
            <trkpt lon="100.966388" lat="12.870630">
                <ele>33.600000</ele>
                <time>2018-02-26T11:05:39.644Z</time>
            </trkpt>
            <trkpt lon="100.966355" lat="12.870594">
                <ele>33.700000</ele>
                <time>2018-02-26T11:05:40.644Z</time>
            </trkpt>
            <trkpt lon="100.966320" lat="12.870562">
                <ele>33.900000</ele>
                <time>2018-02-26T11:05:41.644Z</time>
            </trkpt>
            <trkpt lon="100.966288" lat="12.870529">
                <ele>33.900000</ele>
                <time>2018-02-26T11:05:42.644Z</time>
            </trkpt>
            <trkpt lon="100.966258" lat="12.870493">
                <ele>34.100000</ele>
                <time>2018-02-26T11:05:43.644Z</time>
            </trkpt>
            <trkpt lon="100.966225" lat="12.870452">
                <ele>34.400000</ele>
                <time>2018-02-26T11:05:44.644Z</time>
            </trkpt>
            <trkpt lon="100.966192" lat="12.870415">
                <ele>34.600000</ele>
                <time>2018-02-26T11:05:45.644Z</time>
            </trkpt>
            <trkpt lon="100.966155" lat="12.870378">
                <ele>34.800000</ele>
                <time>2018-02-26T11:05:46.644Z</time>
            </trkpt>
            <trkpt lon="100.966117" lat="12.870342">
                <ele>34.800000</ele>
                <time>2018-02-26T11:05:47.644Z</time>
            </trkpt>
            <trkpt lon="100.966084" lat="12.870307">
                <ele>34.900000</ele>
                <time>2018-02-26T11:05:48.644Z</time>
            </trkpt>
            <trkpt lon="100.966047" lat="12.870277">
                <ele>34.900000</ele>
                <time>2018-02-26T11:05:49.644Z</time>
            </trkpt>
            <trkpt lon="100.966009" lat="12.870242">
                <ele>34.800000</ele>
                <time>2018-02-26T11:05:50.644Z</time>
            </trkpt>
            <trkpt lon="100.965974" lat="12.870212">
                <ele>34.700000</ele>
                <time>2018-02-26T11:05:51.644Z</time>
            </trkpt>
            <trkpt lon="100.965937" lat="12.870180">
                <ele>34.500000</ele>
                <time>2018-02-26T11:05:52.644Z</time>
            </trkpt>
            <trkpt lon="100.965905" lat="12.870148">
                <ele>34.500000</ele>
                <time>2018-02-26T11:05:53.644Z</time>
            </trkpt>
            <trkpt lon="100.965872" lat="12.870114">
                <ele>34.100000</ele>
                <time>2018-02-26T11:05:54.644Z</time>
            </trkpt>
            <trkpt lon="100.965835" lat="12.870081">
                <ele>33.900000</ele>
                <time>2018-02-26T11:05:55.644Z</time>
            </trkpt>
            <trkpt lon="100.965799" lat="12.870045">
                <ele>33.600000</ele>
                <time>2018-02-26T11:05:56.644Z</time>
            </trkpt>
            <trkpt lon="100.965766" lat="12.870011">
                <ele>33.400000</ele>
                <time>2018-02-26T11:05:57.644Z</time>
            </trkpt>
            <trkpt lon="100.965734" lat="12.869976">
                <ele>33.300000</ele>
                <time>2018-02-26T11:05:58.644Z</time>
            </trkpt>
            <trkpt lon="100.965700" lat="12.869945">
                <ele>33.100000</ele>
                <time>2018-02-26T11:05:59.644Z</time>
            </trkpt>
            <trkpt lon="100.965668" lat="12.869910">
                <ele>33.100000</ele>
                <time>2018-02-26T11:06:00.644Z</time>
            </trkpt>
            <trkpt lon="100.965632" lat="12.869877">
                <ele>33.300000</ele>
                <time>2018-02-26T11:06:01.644Z</time>
            </trkpt>
            <trkpt lon="100.965597" lat="12.869840">
                <ele>33.200000</ele>
                <time>2018-02-26T11:06:02.644Z</time>
            </trkpt>
            <trkpt lon="100.965563" lat="12.869802">
                <ele>33.400000</ele>
                <time>2018-02-26T11:06:03.644Z</time>
            </trkpt>
            <trkpt lon="100.965530" lat="12.869763">
                <ele>33.400000</ele>
                <time>2018-02-26T11:06:04.644Z</time>
            </trkpt>
            <trkpt lon="100.965498" lat="12.869728">
                <ele>33.300000</ele>
                <time>2018-02-26T11:06:05.644Z</time>
            </trkpt>
            <trkpt lon="100.965467" lat="12.869690">
                <ele>33.300000</ele>
                <time>2018-02-26T11:06:06.644Z</time>
            </trkpt>
            <trkpt lon="100.965438" lat="12.869657">
                <ele>33.600000</ele>
                <time>2018-02-26T11:06:07.644Z</time>
            </trkpt>
            <trkpt lon="100.965411" lat="12.869624">
                <ele>33.600000</ele>
                <time>2018-02-26T11:06:08.644Z</time>
            </trkpt>
            <trkpt lon="100.965385" lat="12.869591">
                <ele>33.400000</ele>
                <time>2018-02-26T11:06:09.644Z</time>
            </trkpt>
            <trkpt lon="100.965359" lat="12.869562">
                <ele>33.600000</ele>
                <time>2018-02-26T11:06:10.644Z</time>
            </trkpt>
            <trkpt lon="100.965334" lat="12.869541">
                <ele>33.500000</ele>
                <time>2018-02-26T11:06:11.644Z</time>
            </trkpt>
            <trkpt lon="100.965305" lat="12.869504">
                <ele>33.500000</ele>
                <time>2018-02-26T11:06:13.644Z</time>
            </trkpt>
            <trkpt lon="100.965281" lat="12.869473">
                <ele>33.600000</ele>
                <time>2018-02-26T11:06:15.644Z</time>
            </trkpt>
            <trkpt lon="100.965263" lat="12.869445">
                <ele>33.800000</ele>
                <time>2018-02-26T11:06:17.644Z</time>
            </trkpt>
            <trkpt lon="100.965286" lat="12.869429">
                <ele>33.800000</ele>
                <time>2018-02-26T11:06:25.644Z</time>
            </trkpt>
            <trkpt lon="100.965301" lat="12.869396">
                <ele>34.100000</ele>
                <time>2018-02-26T11:06:41.644Z</time>
            </trkpt>
            <trkpt lon="100.965309" lat="12.869361">
                <ele>34.400000</ele>
                <time>2018-02-26T11:06:44.644Z</time>
            </trkpt>
            <trkpt lon="100.965348" lat="12.869330">
                <ele>34.300000</ele>
                <time>2018-02-26T11:06:46.644Z</time>
            </trkpt>
            <trkpt lon="100.965384" lat="12.869296">
                <ele>34.300000</ele>
                <time>2018-02-26T11:06:48.644Z</time>
            </trkpt>
            <trkpt lon="100.965408" lat="12.869283">
                <ele>34.100000</ele>
                <time>2018-02-26T11:06:50.644Z</time>
            </trkpt>
            <trkpt lon="100.965422" lat="12.869251">
                <ele>34.100000</ele>
                <time>2018-02-26T11:06:53.644Z</time>
            </trkpt>
            <trkpt lon="100.965418" lat="12.869212">
                <ele>34.400000</ele>
                <time>2018-02-26T11:06:56.644Z</time>
            </trkpt>
            <trkpt lon="100.965392" lat="12.869180">
                <ele>34.700000</ele>
                <time>2018-02-26T11:06:59.644Z</time>
            </trkpt>
            <trkpt lon="100.965357" lat="12.869139">
                <ele>34.900000</ele>
                <time>2018-02-26T11:07:01.644Z</time>
            </trkpt>
            <trkpt lon="100.965332" lat="12.869118">
                <ele>34.800000</ele>
                <time>2018-02-26T11:07:02.644Z</time>
            </trkpt>
            <trkpt lon="100.965303" lat="12.869102">
                <ele>34.800000</ele>
                <time>2018-02-26T11:07:03.644Z</time>
            </trkpt>
            <trkpt lon="100.965276" lat="12.869085">
                <ele>34.700000</ele>
                <time>2018-02-26T11:07:04.644Z</time>
            </trkpt>
            <trkpt lon="100.965251" lat="12.869071">
                <ele>34.800000</ele>
                <time>2018-02-26T11:07:05.644Z</time>
            </trkpt>
            <trkpt lon="100.965226" lat="12.869058">
                <ele>34.800000</ele>
                <time>2018-02-26T11:07:06.644Z</time>
            </trkpt>
            <trkpt lon="100.965201" lat="12.869045">
                <ele>34.800000</ele>
                <time>2018-02-26T11:07:07.644Z</time>
            </trkpt>
            <trkpt lon="100.965169" lat="12.869036">
                <ele>34.800000</ele>
                <time>2018-02-26T11:07:08.644Z</time>
            </trkpt>
            <trkpt lon="100.965137" lat="12.869027">
                <ele>34.800000</ele>
                <time>2018-02-26T11:07:09.644Z</time>
            </trkpt>
            <trkpt lon="100.965102" lat="12.869016">
                <ele>34.800000</ele>
                <time>2018-02-26T11:07:10.644Z</time>
            </trkpt>
            <trkpt lon="100.965069" lat="12.869007">
                <ele>34.800000</ele>
                <time>2018-02-26T11:07:11.644Z</time>
            </trkpt>
            <trkpt lon="100.965034" lat="12.868999">
                <ele>34.800000</ele>
                <time>2018-02-26T11:07:12.644Z</time>
            </trkpt>
            <trkpt lon="100.964991" lat="12.868997">
                <ele>34.700000</ele>
                <time>2018-02-26T11:07:13.644Z</time>
            </trkpt>
            <trkpt lon="100.964951" lat="12.869003">
                <ele>34.400000</ele>
                <time>2018-02-26T11:07:14.644Z</time>
            </trkpt>
            <trkpt lon="100.964917" lat="12.869009">
                <ele>34.400000</ele>
                <time>2018-02-26T11:07:15.644Z</time>
            </trkpt>
            <trkpt lon="100.964883" lat="12.869017">
                <ele>34.200000</ele>
                <time>2018-02-26T11:07:16.644Z</time>
            </trkpt>
            <trkpt lon="100.964839" lat="12.869036">
                <ele>34.000000</ele>
                <time>2018-02-26T11:07:18.644Z</time>
            </trkpt>
            <trkpt lon="100.964785" lat="12.869046">
                <ele>33.700000</ele>
                <time>2018-02-26T11:07:20.644Z</time>
            </trkpt>
            <trkpt lon="100.964734" lat="12.869051">
                <ele>33.700000</ele>
                <time>2018-02-26T11:07:22.644Z</time>
            </trkpt>
            <trkpt lon="100.964686" lat="12.869059">
                <ele>33.800000</ele>
                <time>2018-02-26T11:07:24.644Z</time>
            </trkpt>
            <trkpt lon="100.964631" lat="12.869071">
                <ele>33.800000</ele>
                <time>2018-02-26T11:07:26.644Z</time>
            </trkpt>
            <trkpt lon="100.964572" lat="12.869079">
                <ele>33.800000</ele>
                <time>2018-02-26T11:07:28.644Z</time>
            </trkpt>
            <trkpt lon="100.964541" lat="12.869080">
                <ele>33.700000</ele>
                <time>2018-02-26T11:07:29.644Z</time>
            </trkpt>
            <trkpt lon="100.964506" lat="12.869067">
                <ele>33.600000</ele>
                <time>2018-02-26T11:07:31.644Z</time>
            </trkpt>
            <trkpt lon="100.964476" lat="12.869075">
                <ele>33.600000</ele>
                <time>2018-02-26T11:07:33.644Z</time>
            </trkpt>
            <trkpt lon="100.964505" lat="12.869096">
                <ele>33.600000</ele>
                <time>2018-02-26T11:07:47.644Z</time>
            </trkpt>
            <trkpt lon="100.964566" lat="12.869098">
                <ele>33.700000</ele>
                <time>2018-02-26T11:07:49.644Z</time>
            </trkpt>
            <trkpt lon="100.964603" lat="12.869094">
                <ele>33.700000</ele>
                <time>2018-02-26T11:07:50.644Z</time>
            </trkpt>
            <trkpt lon="100.964646" lat="12.869087">
                <ele>33.800000</ele>
                <time>2018-02-26T11:07:51.644Z</time>
            </trkpt>
            <trkpt lon="100.964685" lat="12.869077">
                <ele>33.800000</ele>
                <time>2018-02-26T11:07:52.644Z</time>
            </trkpt>
            <trkpt lon="100.964724" lat="12.869067">
                <ele>33.700000</ele>
                <time>2018-02-26T11:07:53.644Z</time>
            </trkpt>
            <trkpt lon="100.964766" lat="12.869057">
                <ele>33.700000</ele>
                <time>2018-02-26T11:07:54.644Z</time>
            </trkpt>
            <trkpt lon="100.964812" lat="12.869047">
                <ele>33.700000</ele>
                <time>2018-02-26T11:07:55.644Z</time>
            </trkpt>
            <trkpt lon="100.964853" lat="12.869038">
                <ele>33.900000</ele>
                <time>2018-02-26T11:07:56.644Z</time>
            </trkpt>
            <trkpt lon="100.964897" lat="12.869029">
                <ele>34.200000</ele>
                <time>2018-02-26T11:07:57.644Z</time>
            </trkpt>
            <trkpt lon="100.964943" lat="12.869023">
                <ele>34.400000</ele>
                <time>2018-02-26T11:07:58.644Z</time>
            </trkpt>
            <trkpt lon="100.964988" lat="12.869026">
                <ele>34.500000</ele>
                <time>2018-02-26T11:07:59.644Z</time>
            </trkpt>
            <trkpt lon="100.965031" lat="12.869033">
                <ele>34.700000</ele>
                <time>2018-02-26T11:08:00.644Z</time>
            </trkpt>
            <trkpt lon="100.965071" lat="12.869046">
                <ele>34.700000</ele>
                <time>2018-02-26T11:08:01.644Z</time>
            </trkpt>
            <trkpt lon="100.965111" lat="12.869060">
                <ele>34.800000</ele>
                <time>2018-02-26T11:08:02.644Z</time>
            </trkpt>
            <trkpt lon="100.965148" lat="12.869073">
                <ele>34.800000</ele>
                <time>2018-02-26T11:08:03.644Z</time>
            </trkpt>
            <trkpt lon="100.965178" lat="12.869087">
                <ele>34.800000</ele>
                <time>2018-02-26T11:08:04.644Z</time>
            </trkpt>
            <trkpt lon="100.965204" lat="12.869099">
                <ele>34.800000</ele>
                <time>2018-02-26T11:08:05.644Z</time>
            </trkpt>
            <trkpt lon="100.965245" lat="12.869116">
                <ele>34.700000</ele>
                <time>2018-02-26T11:08:07.644Z</time>
            </trkpt>
            <trkpt lon="100.965280" lat="12.869132">
                <ele>34.700000</ele>
                <time>2018-02-26T11:08:09.644Z</time>
            </trkpt>
            <trkpt lon="100.965310" lat="12.869150">
                <ele>34.800000</ele>
                <time>2018-02-26T11:08:11.644Z</time>
            </trkpt>
            <trkpt lon="100.965339" lat="12.869177">
                <ele>34.800000</ele>
                <time>2018-02-26T11:08:14.644Z</time>
            </trkpt>
            <trkpt lon="100.965367" lat="12.869199">
                <ele>34.800000</ele>
                <time>2018-02-26T11:08:17.644Z</time>
            </trkpt>
            <trkpt lon="100.965400" lat="12.869209">
                <ele>34.400000</ele>
                <time>2018-02-26T11:08:20.644Z</time>
            </trkpt>
            <trkpt lon="100.965427" lat="12.869215">
                <ele>34.400000</ele>
                <time>2018-02-26T11:08:23.644Z</time>
            </trkpt>
            <trkpt lon="100.965446" lat="12.869244">
                <ele>34.200000</ele>
                <time>2018-02-26T11:08:26.644Z</time>
            </trkpt>
            <trkpt lon="100.965411" lat="12.869267">
                <ele>34.100000</ele>
                <time>2018-02-26T11:08:30.644Z</time>
            </trkpt>
            <trkpt lon="100.965379" lat="12.869282">
                <ele>34.400000</ele>
                <time>2018-02-26T11:08:33.644Z</time>
            </trkpt>
            <trkpt lon="100.965357" lat="12.869303">
                <ele>34.200000</ele>
                <time>2018-02-26T11:08:35.644Z</time>
            </trkpt>
            <trkpt lon="100.965338" lat="12.869330">
                <ele>34.500000</ele>
                <time>2018-02-26T11:08:36.644Z</time>
            </trkpt>
            <trkpt lon="100.965309" lat="12.869361">
                <ele>34.300000</ele>
                <time>2018-02-26T11:08:37.644Z</time>
            </trkpt>
            <trkpt lon="100.965285" lat="12.869388">
                <ele>34.100000</ele>
                <time>2018-02-26T11:08:38.644Z</time>
            </trkpt>
            <trkpt lon="100.965268" lat="12.869410">
                <ele>34.100000</ele>
                <time>2018-02-26T11:08:40.644Z</time>
            </trkpt>
            <trkpt lon="100.965256" lat="12.869445">
                <ele>33.600000</ele>
                <time>2018-02-26T11:08:44.644Z</time>
            </trkpt>
            <trkpt lon="100.965221" lat="12.869439">
                <ele>33.600000</ele>
                <time>2018-02-26T11:08:46.644Z</time>
            </trkpt>
            <trkpt lon="100.965183" lat="12.869411">
                <ele>33.600000</ele>
                <time>2018-02-26T11:08:48.644Z</time>
            </trkpt>
            <trkpt lon="100.965160" lat="12.869393">
                <ele>33.300000</ele>
                <time>2018-02-26T11:08:49.644Z</time>
            </trkpt>
            <trkpt lon="100.965132" lat="12.869375">
                <ele>33.600000</ele>
                <time>2018-02-26T11:08:50.644Z</time>
            </trkpt>
            <trkpt lon="100.965104" lat="12.869357">
                <ele>33.200000</ele>
                <time>2018-02-26T11:08:51.644Z</time>
            </trkpt>
            <trkpt lon="100.965070" lat="12.869334">
                <ele>33.100000</ele>
                <time>2018-02-26T11:08:52.644Z</time>
            </trkpt>
            <trkpt lon="100.965031" lat="12.869312">
                <ele>32.800000</ele>
                <time>2018-02-26T11:08:53.644Z</time>
            </trkpt>
            <trkpt lon="100.964986" lat="12.869287">
                <ele>32.800000</ele>
                <time>2018-02-26T11:08:54.644Z</time>
            </trkpt>
            <trkpt lon="100.964934" lat="12.869269">
                <ele>32.800000</ele>
                <time>2018-02-26T11:08:55.644Z</time>
            </trkpt>
            <trkpt lon="100.964879" lat="12.869259">
                <ele>32.900000</ele>
                <time>2018-02-26T11:08:56.644Z</time>
            </trkpt>
            <trkpt lon="100.964821" lat="12.869260">
                <ele>33.600000</ele>
                <time>2018-02-26T11:08:57.644Z</time>
            </trkpt>
            <trkpt lon="100.964767" lat="12.869263">
                <ele>33.800000</ele>
                <time>2018-02-26T11:08:58.644Z</time>
            </trkpt>
            <trkpt lon="100.964717" lat="12.869262">
                <ele>33.900000</ele>
                <time>2018-02-26T11:08:59.644Z</time>
            </trkpt>
            <trkpt lon="100.964670" lat="12.869262">
                <ele>33.800000</ele>
                <time>2018-02-26T11:09:00.644Z</time>
            </trkpt>
            <trkpt lon="100.964625" lat="12.869269">
                <ele>33.800000</ele>
                <time>2018-02-26T11:09:01.644Z</time>
            </trkpt>
            <trkpt lon="100.964580" lat="12.869277">
                <ele>33.700000</ele>
                <time>2018-02-26T11:09:02.644Z</time>
            </trkpt>
            <trkpt lon="100.964536" lat="12.869282">
                <ele>33.700000</ele>
                <time>2018-02-26T11:09:03.644Z</time>
            </trkpt>
            <trkpt lon="100.964492" lat="12.869286">
                <ele>33.700000</ele>
                <time>2018-02-26T11:09:04.644Z</time>
            </trkpt>
            <trkpt lon="100.964451" lat="12.869291">
                <ele>33.700000</ele>
                <time>2018-02-26T11:09:05.644Z</time>
            </trkpt>
            <trkpt lon="100.964413" lat="12.869291">
                <ele>33.700000</ele>
                <time>2018-02-26T11:09:06.644Z</time>
            </trkpt>
            <trkpt lon="100.964381" lat="12.869282">
                <ele>33.700000</ele>
                <time>2018-02-26T11:09:07.644Z</time>
            </trkpt>
            <trkpt lon="100.964347" lat="12.869271">
                <ele>33.800000</ele>
                <time>2018-02-26T11:09:08.644Z</time>
            </trkpt>
            <trkpt lon="100.964309" lat="12.869253">
                <ele>33.800000</ele>
                <time>2018-02-26T11:09:09.644Z</time>
            </trkpt>
            <trkpt lon="100.964277" lat="12.869231">
                <ele>34.000000</ele>
                <time>2018-02-26T11:09:10.644Z</time>
            </trkpt>
            <trkpt lon="100.964247" lat="12.869211">
                <ele>34.000000</ele>
                <time>2018-02-26T11:09:11.644Z</time>
            </trkpt>
            <trkpt lon="100.964221" lat="12.869190">
                <ele>34.300000</ele>
                <time>2018-02-26T11:09:12.644Z</time>
            </trkpt>
            <trkpt lon="100.964195" lat="12.869167">
                <ele>34.300000</ele>
                <time>2018-02-26T11:09:13.644Z</time>
            </trkpt>
            <trkpt lon="100.964169" lat="12.869146">
                <ele>34.500000</ele>
                <time>2018-02-26T11:09:14.644Z</time>
            </trkpt>
            <trkpt lon="100.964147" lat="12.869126">
                <ele>34.500000</ele>
                <time>2018-02-26T11:09:15.644Z</time>
            </trkpt>
            <trkpt lon="100.964121" lat="12.869109">
                <ele>34.700000</ele>
                <time>2018-02-26T11:09:16.644Z</time>
            </trkpt>
            <trkpt lon="100.964095" lat="12.869091">
                <ele>34.500000</ele>
                <time>2018-02-26T11:09:17.644Z</time>
            </trkpt>
            <trkpt lon="100.964068" lat="12.869066">
                <ele>34.600000</ele>
                <time>2018-02-26T11:09:18.644Z</time>
            </trkpt>
            <trkpt lon="100.964037" lat="12.869040">
                <ele>34.500000</ele>
                <time>2018-02-26T11:09:19.644Z</time>
            </trkpt>
            <trkpt lon="100.964007" lat="12.869011">
                <ele>34.400000</ele>
                <time>2018-02-26T11:09:20.644Z</time>
            </trkpt>
            <trkpt lon="100.963974" lat="12.868978">
                <ele>34.600000</ele>
                <time>2018-02-26T11:09:21.644Z</time>
            </trkpt>
            <trkpt lon="100.963942" lat="12.868944">
                <ele>34.500000</ele>
                <time>2018-02-26T11:09:22.644Z</time>
            </trkpt>
            <trkpt lon="100.963911" lat="12.868910">
                <ele>33.700000</ele>
                <time>2018-02-26T11:09:23.644Z</time>
            </trkpt>
            <trkpt lon="100.963885" lat="12.868876">
                <ele>33.700000</ele>
                <time>2018-02-26T11:09:24.644Z</time>
            </trkpt>
            <trkpt lon="100.963858" lat="12.868845">
                <ele>33.100000</ele>
                <time>2018-02-26T11:09:25.644Z</time>
            </trkpt>
            <trkpt lon="100.963832" lat="12.868814">
                <ele>32.800000</ele>
                <time>2018-02-26T11:09:26.644Z</time>
            </trkpt>
            <trkpt lon="100.963807" lat="12.868782">
                <ele>32.600000</ele>
                <time>2018-02-26T11:09:27.644Z</time>
            </trkpt>
            <trkpt lon="100.963783" lat="12.868747">
                <ele>32.300000</ele>
                <time>2018-02-26T11:09:28.644Z</time>
            </trkpt>
            <trkpt lon="100.963758" lat="12.868713">
                <ele>32.300000</ele>
                <time>2018-02-26T11:09:29.644Z</time>
            </trkpt>
            <trkpt lon="100.963733" lat="12.868678">
                <ele>32.100000</ele>
                <time>2018-02-26T11:09:30.644Z</time>
            </trkpt>
            <trkpt lon="100.963707" lat="12.868646">
                <ele>32.100000</ele>
                <time>2018-02-26T11:09:31.644Z</time>
            </trkpt>
            <trkpt lon="100.963682" lat="12.868612">
                <ele>32.100000</ele>
                <time>2018-02-26T11:09:32.644Z</time>
            </trkpt>
            <trkpt lon="100.963654" lat="12.868581">
                <ele>32.400000</ele>
                <time>2018-02-26T11:09:33.644Z</time>
            </trkpt>
            <trkpt lon="100.963621" lat="12.868554">
                <ele>32.600000</ele>
                <time>2018-02-26T11:09:34.644Z</time>
            </trkpt>
            <trkpt lon="100.963585" lat="12.868527">
                <ele>32.600000</ele>
                <time>2018-02-26T11:09:35.644Z</time>
            </trkpt>
            <trkpt lon="100.963547" lat="12.868503">
                <ele>32.600000</ele>
                <time>2018-02-26T11:09:36.644Z</time>
            </trkpt>
            <trkpt lon="100.963506" lat="12.868483">
                <ele>32.600000</ele>
                <time>2018-02-26T11:09:37.644Z</time>
            </trkpt>
            <trkpt lon="100.963464" lat="12.868465">
                <ele>32.600000</ele>
                <time>2018-02-26T11:09:38.644Z</time>
            </trkpt>
            <trkpt lon="100.963423" lat="12.868446">
                <ele>32.700000</ele>
                <time>2018-02-26T11:09:39.644Z</time>
            </trkpt>
            <trkpt lon="100.963384" lat="12.868427">
                <ele>32.500000</ele>
                <time>2018-02-26T11:09:40.644Z</time>
            </trkpt>
            <trkpt lon="100.963346" lat="12.868409">
                <ele>32.400000</ele>
                <time>2018-02-26T11:09:41.644Z</time>
            </trkpt>
            <trkpt lon="100.963305" lat="12.868390">
                <ele>32.200000</ele>
                <time>2018-02-26T11:09:42.644Z</time>
            </trkpt>
            <trkpt lon="100.963264" lat="12.868372">
                <ele>32.100000</ele>
                <time>2018-02-26T11:09:43.644Z</time>
            </trkpt>
            <trkpt lon="100.963227" lat="12.868357">
                <ele>32.100000</ele>
                <time>2018-02-26T11:09:44.644Z</time>
            </trkpt>
            <trkpt lon="100.963191" lat="12.868342">
                <ele>32.000000</ele>
                <time>2018-02-26T11:09:45.644Z</time>
            </trkpt>
            <trkpt lon="100.963160" lat="12.868328">
                <ele>32.100000</ele>
                <time>2018-02-26T11:09:46.644Z</time>
            </trkpt>
            <trkpt lon="100.963128" lat="12.868314">
                <ele>31.900000</ele>
                <time>2018-02-26T11:09:47.644Z</time>
            </trkpt>
            <trkpt lon="100.963100" lat="12.868300">
                <ele>31.700000</ele>
                <time>2018-02-26T11:09:48.644Z</time>
            </trkpt>
            <trkpt lon="100.963068" lat="12.868284">
                <ele>31.700000</ele>
                <time>2018-02-26T11:09:49.644Z</time>
            </trkpt>
            <trkpt lon="100.963034" lat="12.868271">
                <ele>31.700000</ele>
                <time>2018-02-26T11:09:50.644Z</time>
            </trkpt>
            <trkpt lon="100.962994" lat="12.868256">
                <ele>31.700000</ele>
                <time>2018-02-26T11:09:51.644Z</time>
            </trkpt>
            <trkpt lon="100.962956" lat="12.868242">
                <ele>31.700000</ele>
                <time>2018-02-26T11:09:52.644Z</time>
            </trkpt>
            <trkpt lon="100.962918" lat="12.868227">
                <ele>31.700000</ele>
                <time>2018-02-26T11:09:53.644Z</time>
            </trkpt>
            <trkpt lon="100.962880" lat="12.868213">
                <ele>31.500000</ele>
                <time>2018-02-26T11:09:54.644Z</time>
            </trkpt>
            <trkpt lon="100.962843" lat="12.868199">
                <ele>31.500000</ele>
                <time>2018-02-26T11:09:55.644Z</time>
            </trkpt>
            <trkpt lon="100.962807" lat="12.868186">
                <ele>31.400000</ele>
                <time>2018-02-26T11:09:56.644Z</time>
            </trkpt>
            <trkpt lon="100.962771" lat="12.868173">
                <ele>31.400000</ele>
                <time>2018-02-26T11:09:57.644Z</time>
            </trkpt>
            <trkpt lon="100.962734" lat="12.868164">
                <ele>31.300000</ele>
                <time>2018-02-26T11:09:58.644Z</time>
            </trkpt>
            <trkpt lon="100.962695" lat="12.868155">
                <ele>31.500000</ele>
                <time>2018-02-26T11:09:59.644Z</time>
            </trkpt>
            <trkpt lon="100.962657" lat="12.868148">
                <ele>31.400000</ele>
                <time>2018-02-26T11:10:00.644Z</time>
            </trkpt>
            <trkpt lon="100.962607" lat="12.868148">
                <ele>31.400000</ele>
                <time>2018-02-26T11:10:01.644Z</time>
            </trkpt>
            <trkpt lon="100.962559" lat="12.868150">
                <ele>31.300000</ele>
                <time>2018-02-26T11:10:02.644Z</time>
            </trkpt>
            <trkpt lon="100.962514" lat="12.868154">
                <ele>31.300000</ele>
                <time>2018-02-26T11:10:03.644Z</time>
            </trkpt>
            <trkpt lon="100.962464" lat="12.868164">
                <ele>30.800000</ele>
                <time>2018-02-26T11:10:04.644Z</time>
            </trkpt>
            <trkpt lon="100.962411" lat="12.868179">
                <ele>30.800000</ele>
                <time>2018-02-26T11:10:05.644Z</time>
            </trkpt>
            <trkpt lon="100.962362" lat="12.868193">
                <ele>30.900000</ele>
                <time>2018-02-26T11:10:06.644Z</time>
            </trkpt>
            <trkpt lon="100.962313" lat="12.868214">
                <ele>30.600000</ele>
                <time>2018-02-26T11:10:07.644Z</time>
            </trkpt>
            <trkpt lon="100.962268" lat="12.868240">
                <ele>30.800000</ele>
                <time>2018-02-26T11:10:08.644Z</time>
            </trkpt>
            <trkpt lon="100.962230" lat="12.868281">
                <ele>30.700000</ele>
                <time>2018-02-26T11:10:09.644Z</time>
            </trkpt>
            <trkpt lon="100.962195" lat="12.868327">
                <ele>30.800000</ele>
                <time>2018-02-26T11:10:10.644Z</time>
            </trkpt>
            <trkpt lon="100.962178" lat="12.868382">
                <ele>30.800000</ele>
                <time>2018-02-26T11:10:11.644Z</time>
            </trkpt>
            <trkpt lon="100.962173" lat="12.868440">
                <ele>30.800000</ele>
                <time>2018-02-26T11:10:12.644Z</time>
            </trkpt>
            <trkpt lon="100.962167" lat="12.868498">
                <ele>30.400000</ele>
                <time>2018-02-26T11:10:13.644Z</time>
            </trkpt>
            <trkpt lon="100.962162" lat="12.868555">
                <ele>30.400000</ele>
                <time>2018-02-26T11:10:14.644Z</time>
            </trkpt>
            <trkpt lon="100.962157" lat="12.868609">
                <ele>30.200000</ele>
                <time>2018-02-26T11:10:15.644Z</time>
            </trkpt>
            <trkpt lon="100.962152" lat="12.868661">
                <ele>29.800000</ele>
                <time>2018-02-26T11:10:16.644Z</time>
            </trkpt>
            <trkpt lon="100.962144" lat="12.868713">
                <ele>29.100000</ele>
                <time>2018-02-26T11:10:17.644Z</time>
            </trkpt>
            <trkpt lon="100.962133" lat="12.868761">
                <ele>28.800000</ele>
                <time>2018-02-26T11:10:18.644Z</time>
            </trkpt>
            <trkpt lon="100.962110" lat="12.868806">
                <ele>28.500000</ele>
                <time>2018-02-26T11:10:19.644Z</time>
            </trkpt>
            <trkpt lon="100.962089" lat="12.868850">
                <ele>28.400000</ele>
                <time>2018-02-26T11:10:20.644Z</time>
            </trkpt>
            <trkpt lon="100.962068" lat="12.868892">
                <ele>28.000000</ele>
                <time>2018-02-26T11:10:21.644Z</time>
            </trkpt>
            <trkpt lon="100.962046" lat="12.868932">
                <ele>27.800000</ele>
                <time>2018-02-26T11:10:22.644Z</time>
            </trkpt>
            <trkpt lon="100.962026" lat="12.868970">
                <ele>27.600000</ele>
                <time>2018-02-26T11:10:23.644Z</time>
            </trkpt>
            <trkpt lon="100.962003" lat="12.869008">
                <ele>27.600000</ele>
                <time>2018-02-26T11:10:24.644Z</time>
            </trkpt>
            <trkpt lon="100.961977" lat="12.869044">
                <ele>27.600000</ele>
                <time>2018-02-26T11:10:25.644Z</time>
            </trkpt>
            <trkpt lon="100.961950" lat="12.869078">
                <ele>27.600000</ele>
                <time>2018-02-26T11:10:26.644Z</time>
            </trkpt>
            <trkpt lon="100.961917" lat="12.869112">
                <ele>27.600000</ele>
                <time>2018-02-26T11:10:27.644Z</time>
            </trkpt>
            <trkpt lon="100.961885" lat="12.869145">
                <ele>27.600000</ele>
                <time>2018-02-26T11:10:28.644Z</time>
            </trkpt>
            <trkpt lon="100.961850" lat="12.869174">
                <ele>27.600000</ele>
                <time>2018-02-26T11:10:29.644Z</time>
            </trkpt>
            <trkpt lon="100.961815" lat="12.869204">
                <ele>27.600000</ele>
                <time>2018-02-26T11:10:30.644Z</time>
            </trkpt>
            <trkpt lon="100.961779" lat="12.869231">
                <ele>27.600000</ele>
                <time>2018-02-26T11:10:31.644Z</time>
            </trkpt>
            <trkpt lon="100.961742" lat="12.869257">
                <ele>27.600000</ele>
                <time>2018-02-26T11:10:32.644Z</time>
            </trkpt>
            <trkpt lon="100.961708" lat="12.869280">
                <ele>27.600000</ele>
                <time>2018-02-26T11:10:33.644Z</time>
            </trkpt>
            <trkpt lon="100.961674" lat="12.869302">
                <ele>27.900000</ele>
                <time>2018-02-26T11:10:34.644Z</time>
            </trkpt>
            <trkpt lon="100.961638" lat="12.869327">
                <ele>28.100000</ele>
                <time>2018-02-26T11:10:35.644Z</time>
            </trkpt>
            <trkpt lon="100.961594" lat="12.869355">
                <ele>28.400000</ele>
                <time>2018-02-26T11:10:36.644Z</time>
            </trkpt>
            <trkpt lon="100.961546" lat="12.869377">
                <ele>28.600000</ele>
                <time>2018-02-26T11:10:37.644Z</time>
            </trkpt>
            <trkpt lon="100.961491" lat="12.869390">
                <ele>28.700000</ele>
                <time>2018-02-26T11:10:38.644Z</time>
            </trkpt>
            <trkpt lon="100.961431" lat="12.869395">
                <ele>28.800000</ele>
                <time>2018-02-26T11:10:39.644Z</time>
            </trkpt>
            <trkpt lon="100.961372" lat="12.869397">
                <ele>28.900000</ele>
                <time>2018-02-26T11:10:40.644Z</time>
            </trkpt>
            <trkpt lon="100.961315" lat="12.869398">
                <ele>29.000000</ele>
                <time>2018-02-26T11:10:41.644Z</time>
            </trkpt>
            <trkpt lon="100.961265" lat="12.869402">
                <ele>29.300000</ele>
                <time>2018-02-26T11:10:42.644Z</time>
            </trkpt>
            <trkpt lon="100.961218" lat="12.869409">
                <ele>29.500000</ele>
                <time>2018-02-26T11:10:43.644Z</time>
            </trkpt>
            <trkpt lon="100.961173" lat="12.869424">
                <ele>29.600000</ele>
                <time>2018-02-26T11:10:44.644Z</time>
            </trkpt>
            <trkpt lon="100.961129" lat="12.869440">
                <ele>29.600000</ele>
                <time>2018-02-26T11:10:45.644Z</time>
            </trkpt>
            <trkpt lon="100.961087" lat="12.869456">
                <ele>29.600000</ele>
                <time>2018-02-26T11:10:46.644Z</time>
            </trkpt>
            <trkpt lon="100.961043" lat="12.869471">
                <ele>29.500000</ele>
                <time>2018-02-26T11:10:47.644Z</time>
            </trkpt>
            <trkpt lon="100.961004" lat="12.869485">
                <ele>29.600000</ele>
                <time>2018-02-26T11:10:48.644Z</time>
            </trkpt>
            <trkpt lon="100.960966" lat="12.869495">
                <ele>29.600000</ele>
                <time>2018-02-26T11:10:49.644Z</time>
            </trkpt>
            <trkpt lon="100.960921" lat="12.869505">
                <ele>29.600000</ele>
                <time>2018-02-26T11:10:50.644Z</time>
            </trkpt>
            <trkpt lon="100.960877" lat="12.869514">
                <ele>29.600000</ele>
                <time>2018-02-26T11:10:51.644Z</time>
            </trkpt>
            <trkpt lon="100.960835" lat="12.869522">
                <ele>29.600000</ele>
                <time>2018-02-26T11:10:52.644Z</time>
            </trkpt>
            <trkpt lon="100.960794" lat="12.869534">
                <ele>29.600000</ele>
                <time>2018-02-26T11:10:53.644Z</time>
            </trkpt>
            <trkpt lon="100.960755" lat="12.869552">
                <ele>29.600000</ele>
                <time>2018-02-26T11:10:54.644Z</time>
            </trkpt>
            <trkpt lon="100.960718" lat="12.869570">
                <ele>29.600000</ele>
                <time>2018-02-26T11:10:55.644Z</time>
            </trkpt>
            <trkpt lon="100.960681" lat="12.869590">
                <ele>29.600000</ele>
                <time>2018-02-26T11:10:56.644Z</time>
            </trkpt>
            <trkpt lon="100.960647" lat="12.869611">
                <ele>29.600000</ele>
                <time>2018-02-26T11:10:57.644Z</time>
            </trkpt>
            <trkpt lon="100.960614" lat="12.869633">
                <ele>29.600000</ele>
                <time>2018-02-26T11:10:58.644Z</time>
            </trkpt>
            <trkpt lon="100.960580" lat="12.869654">
                <ele>29.600000</ele>
                <time>2018-02-26T11:10:59.644Z</time>
            </trkpt>
            <trkpt lon="100.960546" lat="12.869674">
                <ele>29.600000</ele>
                <time>2018-02-26T11:11:00.644Z</time>
            </trkpt>
            <trkpt lon="100.960509" lat="12.869693">
                <ele>29.600000</ele>
                <time>2018-02-26T11:11:01.644Z</time>
            </trkpt>
            <trkpt lon="100.960469" lat="12.869713">
                <ele>29.700000</ele>
                <time>2018-02-26T11:11:02.644Z</time>
            </trkpt>
            <trkpt lon="100.960428" lat="12.869732">
                <ele>30.000000</ele>
                <time>2018-02-26T11:11:03.644Z</time>
            </trkpt>
            <trkpt lon="100.960383" lat="12.869744">
                <ele>30.200000</ele>
                <time>2018-02-26T11:11:04.644Z</time>
            </trkpt>
            <trkpt lon="100.960335" lat="12.869748">
                <ele>30.500000</ele>
                <time>2018-02-26T11:11:05.644Z</time>
            </trkpt>
            <trkpt lon="100.960289" lat="12.869754">
                <ele>30.600000</ele>
                <time>2018-02-26T11:11:06.644Z</time>
            </trkpt>
            <trkpt lon="100.960242" lat="12.869758">
                <ele>30.600000</ele>
                <time>2018-02-26T11:11:07.644Z</time>
            </trkpt>
            <trkpt lon="100.960195" lat="12.869759">
                <ele>30.600000</ele>
                <time>2018-02-26T11:11:08.644Z</time>
            </trkpt>
            <trkpt lon="100.960149" lat="12.869761">
                <ele>30.600000</ele>
                <time>2018-02-26T11:11:09.644Z</time>
            </trkpt>
            <trkpt lon="100.960104" lat="12.869759">
                <ele>30.600000</ele>
                <time>2018-02-26T11:11:10.644Z</time>
            </trkpt>
            <trkpt lon="100.960059" lat="12.869755">
                <ele>30.600000</ele>
                <time>2018-02-26T11:11:11.644Z</time>
            </trkpt>
            <trkpt lon="100.960015" lat="12.869748">
                <ele>30.600000</ele>
                <time>2018-02-26T11:11:12.644Z</time>
            </trkpt>
            <trkpt lon="100.959973" lat="12.869742">
                <ele>30.400000</ele>
                <time>2018-02-26T11:11:13.644Z</time>
            </trkpt>
            <trkpt lon="100.959938" lat="12.869739">
                <ele>30.400000</ele>
                <time>2018-02-26T11:11:14.644Z</time>
            </trkpt>
            <trkpt lon="100.959906" lat="12.869747">
                <ele>30.200000</ele>
                <time>2018-02-26T11:11:15.644Z</time>
            </trkpt>
            <trkpt lon="100.959873" lat="12.869761">
                <ele>29.900000</ele>
                <time>2018-02-26T11:11:16.644Z</time>
            </trkpt>
            <trkpt lon="100.959852" lat="12.869790">
                <ele>29.900000</ele>
                <time>2018-02-26T11:11:17.644Z</time>
            </trkpt>
            <trkpt lon="100.959841" lat="12.869822">
                <ele>29.700000</ele>
                <time>2018-02-26T11:11:18.644Z</time>
            </trkpt>
            <trkpt lon="100.959833" lat="12.869854">
                <ele>29.600000</ele>
                <time>2018-02-26T11:11:19.644Z</time>
            </trkpt>
            <trkpt lon="100.959822" lat="12.869887">
                <ele>29.600000</ele>
                <time>2018-02-26T11:11:20.644Z</time>
            </trkpt>
            <trkpt lon="100.959805" lat="12.869919">
                <ele>29.600000</ele>
                <time>2018-02-26T11:11:21.644Z</time>
            </trkpt>
            <trkpt lon="100.959787" lat="12.869951">
                <ele>29.600000</ele>
                <time>2018-02-26T11:11:22.644Z</time>
            </trkpt>
            <trkpt lon="100.959776" lat="12.869985">
                <ele>29.600000</ele>
                <time>2018-02-26T11:11:23.644Z</time>
            </trkpt>
            <trkpt lon="100.959768" lat="12.870020">
                <ele>29.600000</ele>
                <time>2018-02-26T11:11:24.644Z</time>
            </trkpt>
            <trkpt lon="100.959764" lat="12.870052">
                <ele>29.600000</ele>
                <time>2018-02-26T11:11:25.644Z</time>
            </trkpt>
            <trkpt lon="100.959766" lat="12.870084">
                <ele>29.600000</ele>
                <time>2018-02-26T11:11:26.644Z</time>
            </trkpt>
            <trkpt lon="100.959767" lat="12.870113">
                <ele>29.600000</ele>
                <time>2018-02-26T11:11:27.644Z</time>
            </trkpt>
            <trkpt lon="100.959764" lat="12.870146">
                <ele>29.600000</ele>
                <time>2018-02-26T11:11:28.644Z</time>
            </trkpt>
            <trkpt lon="100.959764" lat="12.870182">
                <ele>29.600000</ele>
                <time>2018-02-26T11:11:29.644Z</time>
            </trkpt>
            <trkpt lon="100.959770" lat="12.870217">
                <ele>29.600000</ele>
                <time>2018-02-26T11:11:30.644Z</time>
            </trkpt>
            <trkpt lon="100.959777" lat="12.870252">
                <ele>29.600000</ele>
                <time>2018-02-26T11:11:31.644Z</time>
            </trkpt>
            <trkpt lon="100.959784" lat="12.870290">
                <ele>29.600000</ele>
                <time>2018-02-26T11:11:32.644Z</time>
            </trkpt>
            <trkpt lon="100.959791" lat="12.870326">
                <ele>29.700000</ele>
                <time>2018-02-26T11:11:33.644Z</time>
            </trkpt>
            <trkpt lon="100.959796" lat="12.870360">
                <ele>29.900000</ele>
                <time>2018-02-26T11:11:34.644Z</time>
            </trkpt>
            <trkpt lon="100.959787" lat="12.870400">
                <ele>30.100000</ele>
                <time>2018-02-26T11:11:35.644Z</time>
            </trkpt>
            <trkpt lon="100.959779" lat="12.870440">
                <ele>30.300000</ele>
                <time>2018-02-26T11:11:36.644Z</time>
            </trkpt>
            <trkpt lon="100.959780" lat="12.870477">
                <ele>30.600000</ele>
                <time>2018-02-26T11:11:37.644Z</time>
            </trkpt>
            <trkpt lon="100.959781" lat="12.870515">
                <ele>30.800000</ele>
                <time>2018-02-26T11:11:38.644Z</time>
            </trkpt>
            <trkpt lon="100.959786" lat="12.870553">
                <ele>31.000000</ele>
                <time>2018-02-26T11:11:39.644Z</time>
            </trkpt>
            <trkpt lon="100.959797" lat="12.870589">
                <ele>31.000000</ele>
                <time>2018-02-26T11:11:40.644Z</time>
            </trkpt>
            <trkpt lon="100.959808" lat="12.870630">
                <ele>31.400000</ele>
                <time>2018-02-26T11:11:41.644Z</time>
            </trkpt>
            <trkpt lon="100.959814" lat="12.870672">
                <ele>31.700000</ele>
                <time>2018-02-26T11:11:42.644Z</time>
            </trkpt>
            <trkpt lon="100.959813" lat="12.870712">
                <ele>31.900000</ele>
                <time>2018-02-26T11:11:43.644Z</time>
            </trkpt>
            <trkpt lon="100.959816" lat="12.870752">
                <ele>32.200000</ele>
                <time>2018-02-26T11:11:44.644Z</time>
            </trkpt>
            <trkpt lon="100.959816" lat="12.870790">
                <ele>32.400000</ele>
                <time>2018-02-26T11:11:45.644Z</time>
            </trkpt>
            <trkpt lon="100.959820" lat="12.870822">
                <ele>32.700000</ele>
                <time>2018-02-26T11:11:46.644Z</time>
            </trkpt>
            <trkpt lon="100.959829" lat="12.870860">
                <ele>32.900000</ele>
                <time>2018-02-26T11:11:48.644Z</time>
            </trkpt>
            <trkpt lon="100.959809" lat="12.870890">
                <ele>33.100000</ele>
                <time>2018-02-26T11:11:51.644Z</time>
            </trkpt>
            <trkpt lon="100.959783" lat="12.870907">
                <ele>33.000000</ele>
                <time>2018-02-26T11:11:53.644Z</time>
            </trkpt>
            <trkpt lon="100.959756" lat="12.870898">
                <ele>32.800000</ele>
                <time>2018-02-26T11:11:55.644Z</time>
            </trkpt>
            <trkpt lon="100.959719" lat="12.870902">
                <ele>32.500000</ele>
                <time>2018-02-26T11:11:57.644Z</time>
            </trkpt>
            <trkpt lon="100.959675" lat="12.870901">
                <ele>32.300000</ele>
                <time>2018-02-26T11:11:59.644Z</time>
            </trkpt>
            <trkpt lon="100.959634" lat="12.870909">
                <ele>32.000000</ele>
                <time>2018-02-26T11:12:01.644Z</time>
            </trkpt>
            <trkpt lon="100.959604" lat="12.870913">
                <ele>32.000000</ele>
                <time>2018-02-26T11:12:02.644Z</time>
            </trkpt>
            <trkpt lon="100.959550" lat="12.870913">
                <ele>31.800000</ele>
                <time>2018-02-26T11:12:04.644Z</time>
            </trkpt>
            <trkpt lon="100.959518" lat="12.870912">
                <ele>31.800000</ele>
                <time>2018-02-26T11:12:05.644Z</time>
            </trkpt>
            <trkpt lon="100.959488" lat="12.870911">
                <ele>31.800000</ele>
                <time>2018-02-26T11:12:06.644Z</time>
            </trkpt>
            <trkpt lon="100.959456" lat="12.870917">
                <ele>31.800000</ele>
                <time>2018-02-26T11:12:08.644Z</time>
            </trkpt>
            <trkpt lon="100.959415" lat="12.870906">
                <ele>31.700000</ele>
                <time>2018-02-26T11:12:11.644Z</time>
            </trkpt>
            <trkpt lon="100.959376" lat="12.870891">
                <ele>31.700000</ele>
                <time>2018-02-26T11:12:13.644Z</time>
            </trkpt>
            <trkpt lon="100.959335" lat="12.870871">
                <ele>31.700000</ele>
                <time>2018-02-26T11:12:15.644Z</time>
            </trkpt>
            <trkpt lon="100.959291" lat="12.870863">
                <ele>31.700000</ele>
                <time>2018-02-26T11:12:17.644Z</time>
            </trkpt>
            <trkpt lon="100.959257" lat="12.870853">
                <ele>31.700000</ele>
                <time>2018-02-26T11:12:19.644Z</time>
            </trkpt>
            <trkpt lon="100.959211" lat="12.870835">
                <ele>31.700000</ele>
                <time>2018-02-26T11:12:21.644Z</time>
            </trkpt>
            <trkpt lon="100.959159" lat="12.870812">
                <ele>31.700000</ele>
                <time>2018-02-26T11:12:23.644Z</time>
            </trkpt>
            <trkpt lon="100.959131" lat="12.870801">
                <ele>31.700000</ele>
                <time>2018-02-26T11:12:24.644Z</time>
            </trkpt>
            <trkpt lon="100.959100" lat="12.870791">
                <ele>31.700000</ele>
                <time>2018-02-26T11:12:25.644Z</time>
            </trkpt>
            <trkpt lon="100.959068" lat="12.870782">
                <ele>31.700000</ele>
                <time>2018-02-26T11:12:26.644Z</time>
            </trkpt>
            <trkpt lon="100.959038" lat="12.870774">
                <ele>31.700000</ele>
                <time>2018-02-26T11:12:27.644Z</time>
            </trkpt>
            <trkpt lon="100.959007" lat="12.870764">
                <ele>31.700000</ele>
                <time>2018-02-26T11:12:28.644Z</time>
            </trkpt>
            <trkpt lon="100.958981" lat="12.870753">
                <ele>31.700000</ele>
                <time>2018-02-26T11:12:29.644Z</time>
            </trkpt>
            <trkpt lon="100.958928" lat="12.870740">
                <ele>31.700000</ele>
                <time>2018-02-26T11:12:31.644Z</time>
            </trkpt>
            <trkpt lon="100.958897" lat="12.870734">
                <ele>31.700000</ele>
                <time>2018-02-26T11:12:32.644Z</time>
            </trkpt>
            <trkpt lon="100.958864" lat="12.870732">
                <ele>31.700000</ele>
                <time>2018-02-26T11:12:33.644Z</time>
            </trkpt>
            <trkpt lon="100.958831" lat="12.870728">
                <ele>31.700000</ele>
                <time>2018-02-26T11:12:34.644Z</time>
            </trkpt>
            <trkpt lon="100.958796" lat="12.870725">
                <ele>31.700000</ele>
                <time>2018-02-26T11:12:35.644Z</time>
            </trkpt>
            <trkpt lon="100.958762" lat="12.870720">
                <ele>31.700000</ele>
                <time>2018-02-26T11:12:36.644Z</time>
            </trkpt>
            <trkpt lon="100.958730" lat="12.870716">
                <ele>31.700000</ele>
                <time>2018-02-26T11:12:37.644Z</time>
            </trkpt>
            <trkpt lon="100.958700" lat="12.870711">
                <ele>31.700000</ele>
                <time>2018-02-26T11:12:38.644Z</time>
            </trkpt>
            <trkpt lon="100.958667" lat="12.870705">
                <ele>31.800000</ele>
                <time>2018-02-26T11:12:39.644Z</time>
            </trkpt>
            <trkpt lon="100.958630" lat="12.870699">
                <ele>31.800000</ele>
                <time>2018-02-26T11:12:40.644Z</time>
            </trkpt>
            <trkpt lon="100.958593" lat="12.870690">
                <ele>31.800000</ele>
                <time>2018-02-26T11:12:41.644Z</time>
            </trkpt>
            <trkpt lon="100.958557" lat="12.870679">
                <ele>31.800000</ele>
                <time>2018-02-26T11:12:42.644Z</time>
            </trkpt>
            <trkpt lon="100.958519" lat="12.870669">
                <ele>31.800000</ele>
                <time>2018-02-26T11:12:43.644Z</time>
            </trkpt>
            <trkpt lon="100.958482" lat="12.870660">
                <ele>31.800000</ele>
                <time>2018-02-26T11:12:44.644Z</time>
            </trkpt>
            <trkpt lon="100.958448" lat="12.870651">
                <ele>31.800000</ele>
                <time>2018-02-26T11:12:45.644Z</time>
            </trkpt>
            <trkpt lon="100.958411" lat="12.870645">
                <ele>31.800000</ele>
                <time>2018-02-26T11:12:46.644Z</time>
            </trkpt>
            <trkpt lon="100.958372" lat="12.870635">
                <ele>31.900000</ele>
                <time>2018-02-26T11:12:47.644Z</time>
            </trkpt>
            <trkpt lon="100.958336" lat="12.870627">
                <ele>31.900000</ele>
                <time>2018-02-26T11:12:48.644Z</time>
            </trkpt>
            <trkpt lon="100.958298" lat="12.870616">
                <ele>31.900000</ele>
                <time>2018-02-26T11:12:49.644Z</time>
            </trkpt>
            <trkpt lon="100.958256" lat="12.870605">
                <ele>31.900000</ele>
                <time>2018-02-26T11:12:50.644Z</time>
            </trkpt>
            <trkpt lon="100.958220" lat="12.870595">
                <ele>31.900000</ele>
                <time>2018-02-26T11:12:51.644Z</time>
            </trkpt>
            <trkpt lon="100.958182" lat="12.870584">
                <ele>31.900000</ele>
                <time>2018-02-26T11:12:52.644Z</time>
            </trkpt>
            <trkpt lon="100.958148" lat="12.870575">
                <ele>32.000000</ele>
                <time>2018-02-26T11:12:53.644Z</time>
            </trkpt>
            <trkpt lon="100.958118" lat="12.870566">
                <ele>32.000000</ele>
                <time>2018-02-26T11:12:54.644Z</time>
            </trkpt>
            <trkpt lon="100.958089" lat="12.870558">
                <ele>32.000000</ele>
                <time>2018-02-26T11:12:55.644Z</time>
            </trkpt>
            <trkpt lon="100.958063" lat="12.870548">
                <ele>32.000000</ele>
                <time>2018-02-26T11:12:56.644Z</time>
            </trkpt>
            <trkpt lon="100.958032" lat="12.870540">
                <ele>32.000000</ele>
                <time>2018-02-26T11:12:57.644Z</time>
            </trkpt>
            <trkpt lon="100.957999" lat="12.870532">
                <ele>32.100000</ele>
                <time>2018-02-26T11:12:58.644Z</time>
            </trkpt>
            <trkpt lon="100.957965" lat="12.870526">
                <ele>32.100000</ele>
                <time>2018-02-26T11:12:59.644Z</time>
            </trkpt>
            <trkpt lon="100.957928" lat="12.870518">
                <ele>32.100000</ele>
                <time>2018-02-26T11:13:00.644Z</time>
            </trkpt>
            <trkpt lon="100.957892" lat="12.870511">
                <ele>32.100000</ele>
                <time>2018-02-26T11:13:01.644Z</time>
            </trkpt>
            <trkpt lon="100.957855" lat="12.870503">
                <ele>32.200000</ele>
                <time>2018-02-26T11:13:02.644Z</time>
            </trkpt>
            <trkpt lon="100.957821" lat="12.870496">
                <ele>32.200000</ele>
                <time>2018-02-26T11:13:03.644Z</time>
            </trkpt>
            <trkpt lon="100.957784" lat="12.870488">
                <ele>32.200000</ele>
                <time>2018-02-26T11:13:04.644Z</time>
            </trkpt>
            <trkpt lon="100.957747" lat="12.870479">
                <ele>32.200000</ele>
                <time>2018-02-26T11:13:05.644Z</time>
            </trkpt>
            <trkpt lon="100.957707" lat="12.870471">
                <ele>32.300000</ele>
                <time>2018-02-26T11:13:06.644Z</time>
            </trkpt>
            <trkpt lon="100.957666" lat="12.870463">
                <ele>32.300000</ele>
                <time>2018-02-26T11:13:07.644Z</time>
            </trkpt>
            <trkpt lon="100.957629" lat="12.870459">
                <ele>32.300000</ele>
                <time>2018-02-26T11:13:08.644Z</time>
            </trkpt>
            <trkpt lon="100.957593" lat="12.870456">
                <ele>32.300000</ele>
                <time>2018-02-26T11:13:09.644Z</time>
            </trkpt>
            <trkpt lon="100.957559" lat="12.870454">
                <ele>32.400000</ele>
                <time>2018-02-26T11:13:10.644Z</time>
            </trkpt>
            <trkpt lon="100.957526" lat="12.870452">
                <ele>32.400000</ele>
                <time>2018-02-26T11:13:11.644Z</time>
            </trkpt>
            <trkpt lon="100.957494" lat="12.870452">
                <ele>32.400000</ele>
                <time>2018-02-26T11:13:12.644Z</time>
            </trkpt>
            <trkpt lon="100.957457" lat="12.870451">
                <ele>32.400000</ele>
                <time>2018-02-26T11:13:13.644Z</time>
            </trkpt>
            <trkpt lon="100.957419" lat="12.870452">
                <ele>32.400000</ele>
                <time>2018-02-26T11:13:14.644Z</time>
            </trkpt>
            <trkpt lon="100.957379" lat="12.870450">
                <ele>32.500000</ele>
                <time>2018-02-26T11:13:15.644Z</time>
            </trkpt>
            <trkpt lon="100.957340" lat="12.870450">
                <ele>32.500000</ele>
                <time>2018-02-26T11:13:16.644Z</time>
            </trkpt>
            <trkpt lon="100.957303" lat="12.870450">
                <ele>32.500000</ele>
                <time>2018-02-26T11:13:17.644Z</time>
            </trkpt>
            <trkpt lon="100.957265" lat="12.870451">
                <ele>32.600000</ele>
                <time>2018-02-26T11:13:18.644Z</time>
            </trkpt>
            <trkpt lon="100.957226" lat="12.870452">
                <ele>32.600000</ele>
                <time>2018-02-26T11:13:19.644Z</time>
            </trkpt>
            <trkpt lon="100.957187" lat="12.870453">
                <ele>32.700000</ele>
                <time>2018-02-26T11:13:20.644Z</time>
            </trkpt>
            <trkpt lon="100.957150" lat="12.870453">
                <ele>32.700000</ele>
                <time>2018-02-26T11:13:21.644Z</time>
            </trkpt>
            <trkpt lon="100.957111" lat="12.870450">
                <ele>32.800000</ele>
                <time>2018-02-26T11:13:22.644Z</time>
            </trkpt>
            <trkpt lon="100.957073" lat="12.870448">
                <ele>32.900000</ele>
                <time>2018-02-26T11:13:23.644Z</time>
            </trkpt>
            <trkpt lon="100.957035" lat="12.870447">
                <ele>32.900000</ele>
                <time>2018-02-26T11:13:24.644Z</time>
            </trkpt>
            <trkpt lon="100.956997" lat="12.870448">
                <ele>33.000000</ele>
                <time>2018-02-26T11:13:25.644Z</time>
            </trkpt>
            <trkpt lon="100.956960" lat="12.870448">
                <ele>33.100000</ele>
                <time>2018-02-26T11:13:26.644Z</time>
            </trkpt>
            <trkpt lon="100.956921" lat="12.870447">
                <ele>33.300000</ele>
                <time>2018-02-26T11:13:27.644Z</time>
            </trkpt>
            <trkpt lon="100.956884" lat="12.870447">
                <ele>33.400000</ele>
                <time>2018-02-26T11:13:28.644Z</time>
            </trkpt>
            <trkpt lon="100.956847" lat="12.870447">
                <ele>33.600000</ele>
                <time>2018-02-26T11:13:29.644Z</time>
            </trkpt>
            <trkpt lon="100.956809" lat="12.870448">
                <ele>33.700000</ele>
                <time>2018-02-26T11:13:30.644Z</time>
            </trkpt>
            <trkpt lon="100.956772" lat="12.870452">
                <ele>33.800000</ele>
                <time>2018-02-26T11:13:31.644Z</time>
            </trkpt>
            <trkpt lon="100.956733" lat="12.870452">
                <ele>34.000000</ele>
                <time>2018-02-26T11:13:32.644Z</time>
            </trkpt>
            <trkpt lon="100.956696" lat="12.870452">
                <ele>34.100000</ele>
                <time>2018-02-26T11:13:33.644Z</time>
            </trkpt>
            <trkpt lon="100.956658" lat="12.870450">
                <ele>34.200000</ele>
                <time>2018-02-26T11:13:34.644Z</time>
            </trkpt>
            <trkpt lon="100.956631" lat="12.870446">
                <ele>34.400000</ele>
                <time>2018-02-26T11:13:35.644Z</time>
            </trkpt>
            <trkpt lon="100.956619" lat="12.870421">
                <ele>34.500000</ele>
                <time>2018-02-26T11:14:04.644Z</time>
            </trkpt>
            <trkpt lon="100.956614" lat="12.870394">
                <ele>34.700000</ele>
                <time>2018-02-26T11:14:26.644Z</time>
            </trkpt>
            <trkpt lon="100.956647" lat="12.870392">
                <ele>34.900000</ele>
                <time>2018-02-26T11:14:33.644Z</time>
            </trkpt>
            <trkpt lon="100.956637" lat="12.870355">
                <ele>34.900000</ele>
                <time>2018-02-26T11:14:36.644Z</time>
            </trkpt>
            <trkpt lon="100.956631" lat="12.870327">
                <ele>34.900000</ele>
                <time>2018-02-26T11:14:37.644Z</time>
            </trkpt>
            <trkpt lon="100.956624" lat="12.870298">
                <ele>34.800000</ele>
                <time>2018-02-26T11:14:38.644Z</time>
            </trkpt>
            <trkpt lon="100.956613" lat="12.870259">
                <ele>34.800000</ele>
                <time>2018-02-26T11:14:39.644Z</time>
            </trkpt>
            <trkpt lon="100.956603" lat="12.870221">
                <ele>34.700000</ele>
                <time>2018-02-26T11:14:40.644Z</time>
            </trkpt>
            <trkpt lon="100.956598" lat="12.870186">
                <ele>34.700000</ele>
                <time>2018-02-26T11:14:41.644Z</time>
            </trkpt>
            <trkpt lon="100.956593" lat="12.870155">
                <ele>34.700000</ele>
                <time>2018-02-26T11:14:42.644Z</time>
            </trkpt>
            <trkpt lon="100.956582" lat="12.870123">
                <ele>34.700000</ele>
                <time>2018-02-26T11:14:43.644Z</time>
            </trkpt>
            <trkpt lon="100.956571" lat="12.870097">
                <ele>34.700000</ele>
                <time>2018-02-26T11:14:44.644Z</time>
            </trkpt>
            <trkpt lon="100.956556" lat="12.870070">
                <ele>34.600000</ele>
                <time>2018-02-26T11:14:45.644Z</time>
            </trkpt>
            <trkpt lon="100.956535" lat="12.870047">
                <ele>34.600000</ele>
                <time>2018-02-26T11:14:46.644Z</time>
            </trkpt>
            <trkpt lon="100.956507" lat="12.870031">
                <ele>34.600000</ele>
                <time>2018-02-26T11:14:47.644Z</time>
            </trkpt>
            <trkpt lon="100.956464" lat="12.870021">
                <ele>34.600000</ele>
                <time>2018-02-26T11:14:49.644Z</time>
            </trkpt>
            <trkpt lon="100.956417" lat="12.870030">
                <ele>34.600000</ele>
                <time>2018-02-26T11:15:41.644Z</time>
            </trkpt>
            <trkpt lon="100.956383" lat="12.870031">
                <ele>34.500000</ele>
                <time>2018-02-26T11:15:42.644Z</time>
            </trkpt>
            <trkpt lon="100.956342" lat="12.870038">
                <ele>34.500000</ele>
                <time>2018-02-26T11:15:43.644Z</time>
            </trkpt>
            <trkpt lon="100.956282" lat="12.870044">
                <ele>34.500000</ele>
                <time>2018-02-26T11:15:44.644Z</time>
            </trkpt>
            <trkpt lon="100.956241" lat="12.870052">
                <ele>34.400000</ele>
                <time>2018-02-26T11:15:45.644Z</time>
            </trkpt>
            <trkpt lon="100.956198" lat="12.870062">
                <ele>34.400000</ele>
                <time>2018-02-26T11:15:46.644Z</time>
            </trkpt>
            <trkpt lon="100.956150" lat="12.870071">
                <ele>34.300000</ele>
                <time>2018-02-26T11:15:47.644Z</time>
            </trkpt>
            <trkpt lon="100.956110" lat="12.870081">
                <ele>34.200000</ele>
                <time>2018-02-26T11:15:48.644Z</time>
            </trkpt>
            <trkpt lon="100.956072" lat="12.870089">
                <ele>34.100000</ele>
                <time>2018-02-26T11:15:49.644Z</time>
            </trkpt>
            <trkpt lon="100.956030" lat="12.870100">
                <ele>34.100000</ele>
                <time>2018-02-26T11:15:50.644Z</time>
            </trkpt>
            <trkpt lon="100.955986" lat="12.870108">
                <ele>33.900000</ele>
                <time>2018-02-26T11:15:51.644Z</time>
            </trkpt>
            <trkpt lon="100.955937" lat="12.870114">
                <ele>33.900000</ele>
                <time>2018-02-26T11:15:52.644Z</time>
            </trkpt>
            <trkpt lon="100.955887" lat="12.870122">
                <ele>33.900000</ele>
                <time>2018-02-26T11:15:53.644Z</time>
            </trkpt>
            <trkpt lon="100.955841" lat="12.870130">
                <ele>34.000000</ele>
                <time>2018-02-26T11:15:54.644Z</time>
            </trkpt>
            <trkpt lon="100.955796" lat="12.870135">
                <ele>33.800000</ele>
                <time>2018-02-26T11:15:55.644Z</time>
            </trkpt>
            <trkpt lon="100.955749" lat="12.870136">
                <ele>33.600000</ele>
                <time>2018-02-26T11:15:56.644Z</time>
            </trkpt>
            <trkpt lon="100.955700" lat="12.870137">
                <ele>33.400000</ele>
                <time>2018-02-26T11:15:57.644Z</time>
            </trkpt>
            <trkpt lon="100.955648" lat="12.870138">
                <ele>33.200000</ele>
                <time>2018-02-26T11:15:58.644Z</time>
            </trkpt>
            <trkpt lon="100.955598" lat="12.870138">
                <ele>32.700000</ele>
                <time>2018-02-26T11:15:59.644Z</time>
            </trkpt>
            <trkpt lon="100.955550" lat="12.870140">
                <ele>32.500000</ele>
                <time>2018-02-26T11:16:00.644Z</time>
            </trkpt>
            <trkpt lon="100.955495" lat="12.870141">
                <ele>32.400000</ele>
                <time>2018-02-26T11:16:01.644Z</time>
            </trkpt>
            <trkpt lon="100.955442" lat="12.870144">
                <ele>32.400000</ele>
                <time>2018-02-26T11:16:02.644Z</time>
            </trkpt>
            <trkpt lon="100.955389" lat="12.870146">
                <ele>32.400000</ele>
                <time>2018-02-26T11:16:03.644Z</time>
            </trkpt>
            <trkpt lon="100.955335" lat="12.870147">
                <ele>32.400000</ele>
                <time>2018-02-26T11:16:04.644Z</time>
            </trkpt>
            <trkpt lon="100.955289" lat="12.870153">
                <ele>32.600000</ele>
                <time>2018-02-26T11:16:05.644Z</time>
            </trkpt>
            <trkpt lon="100.955243" lat="12.870154">
                <ele>32.900000</ele>
                <time>2018-02-26T11:16:06.644Z</time>
            </trkpt>
            <trkpt lon="100.955199" lat="12.870157">
                <ele>33.100000</ele>
                <time>2018-02-26T11:16:07.644Z</time>
            </trkpt>
            <trkpt lon="100.955152" lat="12.870156">
                <ele>33.300000</ele>
                <time>2018-02-26T11:16:08.644Z</time>
            </trkpt>
            <trkpt lon="100.955108" lat="12.870155">
                <ele>33.400000</ele>
                <time>2018-02-26T11:16:09.644Z</time>
            </trkpt>
            <trkpt lon="100.955066" lat="12.870156">
                <ele>33.400000</ele>
                <time>2018-02-26T11:16:10.644Z</time>
            </trkpt>
            <trkpt lon="100.955019" lat="12.870159">
                <ele>33.500000</ele>
                <time>2018-02-26T11:16:11.644Z</time>
            </trkpt>
            <trkpt lon="100.954968" lat="12.870162">
                <ele>33.500000</ele>
                <time>2018-02-26T11:16:12.644Z</time>
            </trkpt>
            <trkpt lon="100.954920" lat="12.870165">
                <ele>33.600000</ele>
                <time>2018-02-26T11:16:13.644Z</time>
            </trkpt>
            <trkpt lon="100.954873" lat="12.870168">
                <ele>33.600000</ele>
                <time>2018-02-26T11:16:14.644Z</time>
            </trkpt>
            <trkpt lon="100.954826" lat="12.870171">
                <ele>33.600000</ele>
                <time>2018-02-26T11:16:15.644Z</time>
            </trkpt>
            <trkpt lon="100.954779" lat="12.870172">
                <ele>33.700000</ele>
                <time>2018-02-26T11:16:16.644Z</time>
            </trkpt>
            <trkpt lon="100.954732" lat="12.870172">
                <ele>33.700000</ele>
                <time>2018-02-26T11:16:17.644Z</time>
            </trkpt>
            <trkpt lon="100.954689" lat="12.870173">
                <ele>33.700000</ele>
                <time>2018-02-26T11:16:18.644Z</time>
            </trkpt>
            <trkpt lon="100.954653" lat="12.870176">
                <ele>33.700000</ele>
                <time>2018-02-26T11:16:19.644Z</time>
            </trkpt>
            <trkpt lon="100.954624" lat="12.870174">
                <ele>33.800000</ele>
                <time>2018-02-26T11:16:20.644Z</time>
            </trkpt>
            <trkpt lon="100.954594" lat="12.870172">
                <ele>33.800000</ele>
                <time>2018-02-26T11:16:21.644Z</time>
            </trkpt>
            <trkpt lon="100.954562" lat="12.870170">
                <ele>33.800000</ele>
                <time>2018-02-26T11:16:22.644Z</time>
            </trkpt>
            <trkpt lon="100.954527" lat="12.870168">
                <ele>33.900000</ele>
                <time>2018-02-26T11:16:23.644Z</time>
            </trkpt>
            <trkpt lon="100.954487" lat="12.870165">
                <ele>33.900000</ele>
                <time>2018-02-26T11:16:24.644Z</time>
            </trkpt>
            <trkpt lon="100.954446" lat="12.870160">
                <ele>33.900000</ele>
                <time>2018-02-26T11:16:25.644Z</time>
            </trkpt>
            <trkpt lon="100.954403" lat="12.870156">
                <ele>33.700000</ele>
                <time>2018-02-26T11:16:26.644Z</time>
            </trkpt>
            <trkpt lon="100.954352" lat="12.870148">
                <ele>33.300000</ele>
                <time>2018-02-26T11:16:27.644Z</time>
            </trkpt>
            <trkpt lon="100.954305" lat="12.870142">
                <ele>33.100000</ele>
                <time>2018-02-26T11:16:28.644Z</time>
            </trkpt>
            <trkpt lon="100.954262" lat="12.870134">
                <ele>32.800000</ele>
                <time>2018-02-26T11:16:29.644Z</time>
            </trkpt>
            <trkpt lon="100.954218" lat="12.870127">
                <ele>32.400000</ele>
                <time>2018-02-26T11:16:30.644Z</time>
            </trkpt>
            <trkpt lon="100.954173" lat="12.870123">
                <ele>32.200000</ele>
                <time>2018-02-26T11:16:31.644Z</time>
            </trkpt>
            <trkpt lon="100.954125" lat="12.870120">
                <ele>32.100000</ele>
                <time>2018-02-26T11:16:32.644Z</time>
            </trkpt>
            <trkpt lon="100.954078" lat="12.870116">
                <ele>32.100000</ele>
                <time>2018-02-26T11:16:33.644Z</time>
            </trkpt>
            <trkpt lon="100.954033" lat="12.870109">
                <ele>32.100000</ele>
                <time>2018-02-26T11:16:34.644Z</time>
            </trkpt>
            <trkpt lon="100.953987" lat="12.870099">
                <ele>32.100000</ele>
                <time>2018-02-26T11:16:35.644Z</time>
            </trkpt>
            <trkpt lon="100.953942" lat="12.870090">
                <ele>32.100000</ele>
                <time>2018-02-26T11:16:36.644Z</time>
            </trkpt>
            <trkpt lon="100.953900" lat="12.870088">
                <ele>32.100000</ele>
                <time>2018-02-26T11:16:37.644Z</time>
            </trkpt>
            <trkpt lon="100.953857" lat="12.870084">
                <ele>31.900000</ele>
                <time>2018-02-26T11:16:38.644Z</time>
            </trkpt>
            <trkpt lon="100.953818" lat="12.870084">
                <ele>31.900000</ele>
                <time>2018-02-26T11:16:39.644Z</time>
            </trkpt>
            <trkpt lon="100.953786" lat="12.870089">
                <ele>31.900000</ele>
                <time>2018-02-26T11:16:40.644Z</time>
            </trkpt>
            <trkpt lon="100.953737" lat="12.870091">
                <ele>32.000000</ele>
                <time>2018-02-26T11:16:42.644Z</time>
            </trkpt>
            <trkpt lon="100.953698" lat="12.870085">
                <ele>32.000000</ele>
                <time>2018-02-26T11:16:44.644Z</time>
            </trkpt>
            <trkpt lon="100.953676" lat="12.870108">
                <ele>32.000000</ele>
                <time>2018-02-26T11:16:47.644Z</time>
            </trkpt>
            <trkpt lon="100.953665" lat="12.870148">
                <ele>32.000000</ele>
                <time>2018-02-26T11:16:50.644Z</time>
            </trkpt>
            <trkpt lon="100.953646" lat="12.870183">
                <ele>32.100000</ele>
                <time>2018-02-26T11:16:52.644Z</time>
            </trkpt>
            <trkpt lon="100.953628" lat="12.870207">
                <ele>32.100000</ele>
                <time>2018-02-26T11:16:54.644Z</time>
            </trkpt>
            <trkpt lon="100.953607" lat="12.870239">
                <ele>32.100000</ele>
                <time>2018-02-26T11:16:56.644Z</time>
            </trkpt>
            <trkpt lon="100.953570" lat="12.870271">
                <ele>32.100000</ele>
                <time>2018-02-26T11:16:58.644Z</time>
            </trkpt>
            <trkpt lon="100.953550" lat="12.870294">
                <ele>32.100000</ele>
                <time>2018-02-26T11:16:59.644Z</time>
            </trkpt>
            <trkpt lon="100.953537" lat="12.870319">
                <ele>32.100000</ele>
                <time>2018-02-26T11:17:00.644Z</time>
            </trkpt>
            <trkpt lon="100.953525" lat="12.870344">
                <ele>32.100000</ele>
                <time>2018-02-26T11:17:01.644Z</time>
            </trkpt>
            <trkpt lon="100.953509" lat="12.870367">
                <ele>32.100000</ele>
                <time>2018-02-26T11:17:02.644Z</time>
            </trkpt>
            <trkpt lon="100.953474" lat="12.870403">
                <ele>32.200000</ele>
                <time>2018-02-26T11:17:04.644Z</time>
            </trkpt>
            <trkpt lon="100.953434" lat="12.870445">
                <ele>32.200000</ele>
                <time>2018-02-26T11:17:06.644Z</time>
            </trkpt>
            <trkpt lon="100.953412" lat="12.870469">
                <ele>32.200000</ele>
                <time>2018-02-26T11:17:07.644Z</time>
            </trkpt>
            <trkpt lon="100.953390" lat="12.870497">
                <ele>32.200000</ele>
                <time>2018-02-26T11:17:08.644Z</time>
            </trkpt>
            <trkpt lon="100.953369" lat="12.870527">
                <ele>32.200000</ele>
                <time>2018-02-26T11:17:09.644Z</time>
            </trkpt>
            <trkpt lon="100.953345" lat="12.870557">
                <ele>32.200000</ele>
                <time>2018-02-26T11:17:10.644Z</time>
            </trkpt>
            <trkpt lon="100.953317" lat="12.870588">
                <ele>32.200000</ele>
                <time>2018-02-26T11:17:11.644Z</time>
            </trkpt>
            <trkpt lon="100.953288" lat="12.870617">
                <ele>32.200000</ele>
                <time>2018-02-26T11:17:12.644Z</time>
            </trkpt>
            <trkpt lon="100.953264" lat="12.870650">
                <ele>32.200000</ele>
                <time>2018-02-26T11:17:13.644Z</time>
            </trkpt>
            <trkpt lon="100.953236" lat="12.870686">
                <ele>32.300000</ele>
                <time>2018-02-26T11:17:14.644Z</time>
            </trkpt>
            <trkpt lon="100.953207" lat="12.870723">
                <ele>32.300000</ele>
                <time>2018-02-26T11:17:15.644Z</time>
            </trkpt>
            <trkpt lon="100.953179" lat="12.870760">
                <ele>32.300000</ele>
                <time>2018-02-26T11:17:16.644Z</time>
            </trkpt>
            <trkpt lon="100.953147" lat="12.870799">
                <ele>32.300000</ele>
                <time>2018-02-26T11:17:17.644Z</time>
            </trkpt>
            <trkpt lon="100.953115" lat="12.870837">
                <ele>32.300000</ele>
                <time>2018-02-26T11:17:18.644Z</time>
            </trkpt>
            <trkpt lon="100.953084" lat="12.870874">
                <ele>32.300000</ele>
                <time>2018-02-26T11:17:19.644Z</time>
            </trkpt>
            <trkpt lon="100.953055" lat="12.870912">
                <ele>32.300000</ele>
                <time>2018-02-26T11:17:20.644Z</time>
            </trkpt>
            <trkpt lon="100.953028" lat="12.870951">
                <ele>32.400000</ele>
                <time>2018-02-26T11:17:21.644Z</time>
            </trkpt>
            <trkpt lon="100.952997" lat="12.870992">
                <ele>32.400000</ele>
                <time>2018-02-26T11:17:22.644Z</time>
            </trkpt>
            <trkpt lon="100.952964" lat="12.871034">
                <ele>32.400000</ele>
                <time>2018-02-26T11:17:23.644Z</time>
            </trkpt>
            <trkpt lon="100.952930" lat="12.871077">
                <ele>32.400000</ele>
                <time>2018-02-26T11:17:24.644Z</time>
            </trkpt>
            <trkpt lon="100.952899" lat="12.871120">
                <ele>32.500000</ele>
                <time>2018-02-26T11:17:25.644Z</time>
            </trkpt>
            <trkpt lon="100.952866" lat="12.871167">
                <ele>32.500000</ele>
                <time>2018-02-26T11:17:26.644Z</time>
            </trkpt>
            <trkpt lon="100.952836" lat="12.871211">
                <ele>32.500000</ele>
                <time>2018-02-26T11:17:27.644Z</time>
            </trkpt>
            <trkpt lon="100.952806" lat="12.871255">
                <ele>32.600000</ele>
                <time>2018-02-26T11:17:28.644Z</time>
            </trkpt>
            <trkpt lon="100.952776" lat="12.871295">
                <ele>32.600000</ele>
                <time>2018-02-26T11:17:29.644Z</time>
            </trkpt>
            <trkpt lon="100.952745" lat="12.871332">
                <ele>32.700000</ele>
                <time>2018-02-26T11:17:30.644Z</time>
            </trkpt>
            <trkpt lon="100.952714" lat="12.871366">
                <ele>32.700000</ele>
                <time>2018-02-26T11:17:31.644Z</time>
            </trkpt>
            <trkpt lon="100.952679" lat="12.871394">
                <ele>32.800000</ele>
                <time>2018-02-26T11:17:32.644Z</time>
            </trkpt>
            <trkpt lon="100.952644" lat="12.871424">
                <ele>32.800000</ele>
                <time>2018-02-26T11:17:33.644Z</time>
            </trkpt>
            <trkpt lon="100.952609" lat="12.871455">
                <ele>32.800000</ele>
                <time>2018-02-26T11:17:34.644Z</time>
            </trkpt>
            <trkpt lon="100.952575" lat="12.871485">
                <ele>32.800000</ele>
                <time>2018-02-26T11:17:35.644Z</time>
            </trkpt>
            <trkpt lon="100.952543" lat="12.871518">
                <ele>32.900000</ele>
                <time>2018-02-26T11:17:36.644Z</time>
            </trkpt>
            <trkpt lon="100.952514" lat="12.871551">
                <ele>32.900000</ele>
                <time>2018-02-26T11:17:37.644Z</time>
            </trkpt>
            <trkpt lon="100.952483" lat="12.871578">
                <ele>32.900000</ele>
                <time>2018-02-26T11:17:38.644Z</time>
            </trkpt>
            <trkpt lon="100.952453" lat="12.871604">
                <ele>32.900000</ele>
                <time>2018-02-26T11:17:39.644Z</time>
            </trkpt>
            <trkpt lon="100.952424" lat="12.871632">
                <ele>32.900000</ele>
                <time>2018-02-26T11:17:40.644Z</time>
            </trkpt>
            <trkpt lon="100.952397" lat="12.871665">
                <ele>33.000000</ele>
                <time>2018-02-26T11:17:41.644Z</time>
            </trkpt>
            <trkpt lon="100.952375" lat="12.871698">
                <ele>33.000000</ele>
                <time>2018-02-26T11:17:42.644Z</time>
            </trkpt>
            <trkpt lon="100.952357" lat="12.871739">
                <ele>33.000000</ele>
                <time>2018-02-26T11:17:43.644Z</time>
            </trkpt>
            <trkpt lon="100.952351" lat="12.871782">
                <ele>33.100000</ele>
                <time>2018-02-26T11:17:44.644Z</time>
            </trkpt>
            <trkpt lon="100.952345" lat="12.871831">
                <ele>33.100000</ele>
                <time>2018-02-26T11:17:45.644Z</time>
            </trkpt>
            <trkpt lon="100.952344" lat="12.871876">
                <ele>33.100000</ele>
                <time>2018-02-26T11:17:46.644Z</time>
            </trkpt>
            <trkpt lon="100.952342" lat="12.871917">
                <ele>33.200000</ele>
                <time>2018-02-26T11:17:47.644Z</time>
            </trkpt>
            <trkpt lon="100.952336" lat="12.871958">
                <ele>33.200000</ele>
                <time>2018-02-26T11:17:48.644Z</time>
            </trkpt>
            <trkpt lon="100.952328" lat="12.872002">
                <ele>33.300000</ele>
                <time>2018-02-26T11:17:49.644Z</time>
            </trkpt>
            <trkpt lon="100.952317" lat="12.872044">
                <ele>33.300000</ele>
                <time>2018-02-26T11:17:50.644Z</time>
            </trkpt>
            <trkpt lon="100.952300" lat="12.872084">
                <ele>33.400000</ele>
                <time>2018-02-26T11:17:51.644Z</time>
            </trkpt>
            <trkpt lon="100.952285" lat="12.872123">
                <ele>33.400000</ele>
                <time>2018-02-26T11:17:52.644Z</time>
            </trkpt>
            <trkpt lon="100.952270" lat="12.872161">
                <ele>33.400000</ele>
                <time>2018-02-26T11:17:53.644Z</time>
            </trkpt>
            <trkpt lon="100.952254" lat="12.872197">
                <ele>33.500000</ele>
                <time>2018-02-26T11:17:54.644Z</time>
            </trkpt>
            <trkpt lon="100.952241" lat="12.872230">
                <ele>33.500000</ele>
                <time>2018-02-26T11:17:55.644Z</time>
            </trkpt>
            <trkpt lon="100.952231" lat="12.872264">
                <ele>33.500000</ele>
                <time>2018-02-26T11:17:56.644Z</time>
            </trkpt>
            <trkpt lon="100.952225" lat="12.872296">
                <ele>33.600000</ele>
                <time>2018-02-26T11:17:57.644Z</time>
            </trkpt>
            <trkpt lon="100.952221" lat="12.872334">
                <ele>33.600000</ele>
                <time>2018-02-26T11:17:58.644Z</time>
            </trkpt>
            <trkpt lon="100.952218" lat="12.872372">
                <ele>33.700000</ele>
                <time>2018-02-26T11:17:59.644Z</time>
            </trkpt>
            <trkpt lon="100.952213" lat="12.872413">
                <ele>33.700000</ele>
                <time>2018-02-26T11:18:00.644Z</time>
            </trkpt>
            <trkpt lon="100.952202" lat="12.872455">
                <ele>33.700000</ele>
                <time>2018-02-26T11:18:01.644Z</time>
            </trkpt>
            <trkpt lon="100.952190" lat="12.872502">
                <ele>33.800000</ele>
                <time>2018-02-26T11:18:02.644Z</time>
            </trkpt>
            <trkpt lon="100.952184" lat="12.872551">
                <ele>33.900000</ele>
                <time>2018-02-26T11:18:03.644Z</time>
            </trkpt>
            <trkpt lon="100.952179" lat="12.872605">
                <ele>34.000000</ele>
                <time>2018-02-26T11:18:04.644Z</time>
            </trkpt>
            <trkpt lon="100.952171" lat="12.872657">
                <ele>34.100000</ele>
                <time>2018-02-26T11:18:05.644Z</time>
            </trkpt>
            <trkpt lon="100.952162" lat="12.872707">
                <ele>34.300000</ele>
                <time>2018-02-26T11:18:06.644Z</time>
            </trkpt>
            <trkpt lon="100.952154" lat="12.872757">
                <ele>34.600000</ele>
                <time>2018-02-26T11:18:07.644Z</time>
            </trkpt>
            <trkpt lon="100.952147" lat="12.872811">
                <ele>35.000000</ele>
                <time>2018-02-26T11:18:08.644Z</time>
            </trkpt>
            <trkpt lon="100.952140" lat="12.872865">
                <ele>35.400000</ele>
                <time>2018-02-26T11:18:09.644Z</time>
            </trkpt>
            <trkpt lon="100.952134" lat="12.872914">
                <ele>35.700000</ele>
                <time>2018-02-26T11:18:10.644Z</time>
            </trkpt>
            <trkpt lon="100.952128" lat="12.872968">
                <ele>35.800000</ele>
                <time>2018-02-26T11:18:11.644Z</time>
            </trkpt>
            <trkpt lon="100.952122" lat="12.873023">
                <ele>35.900000</ele>
                <time>2018-02-26T11:18:12.644Z</time>
            </trkpt>
            <trkpt lon="100.952118" lat="12.873078">
                <ele>36.000000</ele>
                <time>2018-02-26T11:18:13.644Z</time>
            </trkpt>
            <trkpt lon="100.952114" lat="12.873130">
                <ele>36.000000</ele>
                <time>2018-02-26T11:18:14.644Z</time>
            </trkpt>
            <trkpt lon="100.952107" lat="12.873180">
                <ele>36.100000</ele>
                <time>2018-02-26T11:18:15.644Z</time>
            </trkpt>
            <trkpt lon="100.952102" lat="12.873225">
                <ele>36.100000</ele>
                <time>2018-02-26T11:18:16.644Z</time>
            </trkpt>
            <trkpt lon="100.952097" lat="12.873270">
                <ele>36.200000</ele>
                <time>2018-02-26T11:18:17.644Z</time>
            </trkpt>
            <trkpt lon="100.952092" lat="12.873314">
                <ele>36.300000</ele>
                <time>2018-02-26T11:18:18.644Z</time>
            </trkpt>
            <trkpt lon="100.952086" lat="12.873357">
                <ele>36.300000</ele>
                <time>2018-02-26T11:18:19.644Z</time>
            </trkpt>
            <trkpt lon="100.952081" lat="12.873400">
                <ele>36.400000</ele>
                <time>2018-02-26T11:18:20.644Z</time>
            </trkpt>
            <trkpt lon="100.952076" lat="12.873449">
                <ele>36.400000</ele>
                <time>2018-02-26T11:18:21.644Z</time>
            </trkpt>
            <trkpt lon="100.952069" lat="12.873500">
                <ele>36.500000</ele>
                <time>2018-02-26T11:18:22.644Z</time>
            </trkpt>
            <trkpt lon="100.952063" lat="12.873550">
                <ele>36.500000</ele>
                <time>2018-02-26T11:18:23.644Z</time>
            </trkpt>
            <trkpt lon="100.952057" lat="12.873599">
                <ele>36.500000</ele>
                <time>2018-02-26T11:18:24.644Z</time>
            </trkpt>
            <trkpt lon="100.952051" lat="12.873648">
                <ele>36.600000</ele>
                <time>2018-02-26T11:18:25.644Z</time>
            </trkpt>
            <trkpt lon="100.952049" lat="12.873696">
                <ele>36.600000</ele>
                <time>2018-02-26T11:18:26.644Z</time>
            </trkpt>
            <trkpt lon="100.952048" lat="12.873743">
                <ele>36.600000</ele>
                <time>2018-02-26T11:18:27.644Z</time>
            </trkpt>
            <trkpt lon="100.952044" lat="12.873791">
                <ele>36.600000</ele>
                <time>2018-02-26T11:18:28.644Z</time>
            </trkpt>
            <trkpt lon="100.952034" lat="12.873837">
                <ele>36.700000</ele>
                <time>2018-02-26T11:18:29.644Z</time>
            </trkpt>
            <trkpt lon="100.952024" lat="12.873881">
                <ele>36.700000</ele>
                <time>2018-02-26T11:18:30.644Z</time>
            </trkpt>
            <trkpt lon="100.952010" lat="12.873924">
                <ele>36.700000</ele>
                <time>2018-02-26T11:18:31.644Z</time>
            </trkpt>
            <trkpt lon="100.951993" lat="12.873970">
                <ele>36.800000</ele>
                <time>2018-02-26T11:18:32.644Z</time>
            </trkpt>
            <trkpt lon="100.951981" lat="12.874008">
                <ele>36.800000</ele>
                <time>2018-02-26T11:18:33.644Z</time>
            </trkpt>
            <trkpt lon="100.951968" lat="12.874051">
                <ele>36.800000</ele>
                <time>2018-02-26T11:18:34.644Z</time>
            </trkpt>
            <trkpt lon="100.951954" lat="12.874094">
                <ele>36.800000</ele>
                <time>2018-02-26T11:18:35.644Z</time>
            </trkpt>
            <trkpt lon="100.951940" lat="12.874139">
                <ele>36.800000</ele>
                <time>2018-02-26T11:18:36.644Z</time>
            </trkpt>
            <trkpt lon="100.951924" lat="12.874183">
                <ele>36.900000</ele>
                <time>2018-02-26T11:18:37.644Z</time>
            </trkpt>
            <trkpt lon="100.951908" lat="12.874229">
                <ele>36.900000</ele>
                <time>2018-02-26T11:18:38.644Z</time>
            </trkpt>
            <trkpt lon="100.951894" lat="12.874276">
                <ele>36.900000</ele>
                <time>2018-02-26T11:18:39.644Z</time>
            </trkpt>
            <trkpt lon="100.951881" lat="12.874325">
                <ele>36.900000</ele>
                <time>2018-02-26T11:18:40.644Z</time>
            </trkpt>
            <trkpt lon="100.951867" lat="12.874374">
                <ele>37.000000</ele>
                <time>2018-02-26T11:18:41.644Z</time>
            </trkpt>
            <trkpt lon="100.951852" lat="12.874425">
                <ele>37.000000</ele>
                <time>2018-02-26T11:18:42.644Z</time>
            </trkpt>
            <trkpt lon="100.951831" lat="12.874475">
                <ele>37.000000</ele>
                <time>2018-02-26T11:18:43.644Z</time>
            </trkpt>
            <trkpt lon="100.951810" lat="12.874519">
                <ele>37.000000</ele>
                <time>2018-02-26T11:18:44.644Z</time>
            </trkpt>
            <trkpt lon="100.951786" lat="12.874563">
                <ele>37.000000</ele>
                <time>2018-02-26T11:18:45.644Z</time>
            </trkpt>
            <trkpt lon="100.951767" lat="12.874605">
                <ele>37.000000</ele>
                <time>2018-02-26T11:18:46.644Z</time>
            </trkpt>
            <trkpt lon="100.951747" lat="12.874642">
                <ele>37.000000</ele>
                <time>2018-02-26T11:18:47.644Z</time>
            </trkpt>
            <trkpt lon="100.951719" lat="12.874676">
                <ele>37.100000</ele>
                <time>2018-02-26T11:18:48.644Z</time>
            </trkpt>
            <trkpt lon="100.951683" lat="12.874706">
                <ele>37.100000</ele>
                <time>2018-02-26T11:18:49.644Z</time>
            </trkpt>
            <trkpt lon="100.951642" lat="12.874735">
                <ele>37.100000</ele>
                <time>2018-02-26T11:18:50.644Z</time>
            </trkpt>
            <trkpt lon="100.951598" lat="12.874761">
                <ele>37.100000</ele>
                <time>2018-02-26T11:18:51.644Z</time>
            </trkpt>
            <trkpt lon="100.951554" lat="12.874787">
                <ele>37.200000</ele>
                <time>2018-02-26T11:18:52.644Z</time>
            </trkpt>
            <trkpt lon="100.951513" lat="12.874813">
                <ele>37.200000</ele>
                <time>2018-02-26T11:18:53.644Z</time>
            </trkpt>
            <trkpt lon="100.951472" lat="12.874838">
                <ele>37.200000</ele>
                <time>2018-02-26T11:18:54.644Z</time>
            </trkpt>
            <trkpt lon="100.951429" lat="12.874862">
                <ele>37.200000</ele>
                <time>2018-02-26T11:18:55.644Z</time>
            </trkpt>
            <trkpt lon="100.951387" lat="12.874884">
                <ele>37.200000</ele>
                <time>2018-02-26T11:18:56.644Z</time>
            </trkpt>
            <trkpt lon="100.951348" lat="12.874905">
                <ele>37.300000</ele>
                <time>2018-02-26T11:18:57.644Z</time>
            </trkpt>
            <trkpt lon="100.951311" lat="12.874928">
                <ele>37.300000</ele>
                <time>2018-02-26T11:18:58.644Z</time>
            </trkpt>
            <trkpt lon="100.951275" lat="12.874955">
                <ele>37.300000</ele>
                <time>2018-02-26T11:18:59.644Z</time>
            </trkpt>
            <trkpt lon="100.951240" lat="12.874983">
                <ele>37.300000</ele>
                <time>2018-02-26T11:19:00.644Z</time>
            </trkpt>
            <trkpt lon="100.951206" lat="12.875011">
                <ele>37.300000</ele>
                <time>2018-02-26T11:19:01.644Z</time>
            </trkpt>
            <trkpt lon="100.951169" lat="12.875038">
                <ele>37.400000</ele>
                <time>2018-02-26T11:19:02.644Z</time>
            </trkpt>
            <trkpt lon="100.951129" lat="12.875064">
                <ele>37.400000</ele>
                <time>2018-02-26T11:19:03.644Z</time>
            </trkpt>
            <trkpt lon="100.951087" lat="12.875087">
                <ele>37.400000</ele>
                <time>2018-02-26T11:19:04.644Z</time>
            </trkpt>
            <trkpt lon="100.951043" lat="12.875110">
                <ele>37.400000</ele>
                <time>2018-02-26T11:19:05.644Z</time>
            </trkpt>
            <trkpt lon="100.950997" lat="12.875134">
                <ele>37.400000</ele>
                <time>2018-02-26T11:19:06.644Z</time>
            </trkpt>
            <trkpt lon="100.950952" lat="12.875159">
                <ele>37.400000</ele>
                <time>2018-02-26T11:19:07.644Z</time>
            </trkpt>
            <trkpt lon="100.950908" lat="12.875184">
                <ele>37.500000</ele>
                <time>2018-02-26T11:19:08.644Z</time>
            </trkpt>
            <trkpt lon="100.950867" lat="12.875211">
                <ele>37.500000</ele>
                <time>2018-02-26T11:19:09.644Z</time>
            </trkpt>
            <trkpt lon="100.950825" lat="12.875240">
                <ele>37.500000</ele>
                <time>2018-02-26T11:19:10.644Z</time>
            </trkpt>
            <trkpt lon="100.950783" lat="12.875268">
                <ele>37.500000</ele>
                <time>2018-02-26T11:19:11.644Z</time>
            </trkpt>
            <trkpt lon="100.950742" lat="12.875296">
                <ele>37.500000</ele>
                <time>2018-02-26T11:19:12.644Z</time>
            </trkpt>
            <trkpt lon="100.950700" lat="12.875323">
                <ele>37.600000</ele>
                <time>2018-02-26T11:19:13.644Z</time>
            </trkpt>
            <trkpt lon="100.950660" lat="12.875351">
                <ele>37.600000</ele>
                <time>2018-02-26T11:19:14.644Z</time>
            </trkpt>
            <trkpt lon="100.950619" lat="12.875379">
                <ele>37.600000</ele>
                <time>2018-02-26T11:19:15.644Z</time>
            </trkpt>
            <trkpt lon="100.950577" lat="12.875406">
                <ele>37.600000</ele>
                <time>2018-02-26T11:19:16.644Z</time>
            </trkpt>
            <trkpt lon="100.950534" lat="12.875435">
                <ele>37.600000</ele>
                <time>2018-02-26T11:19:17.644Z</time>
            </trkpt>
            <trkpt lon="100.950491" lat="12.875460">
                <ele>37.600000</ele>
                <time>2018-02-26T11:19:18.644Z</time>
            </trkpt>
            <trkpt lon="100.950449" lat="12.875485">
                <ele>37.600000</ele>
                <time>2018-02-26T11:19:19.644Z</time>
            </trkpt>
            <trkpt lon="100.950412" lat="12.875510">
                <ele>37.600000</ele>
                <time>2018-02-26T11:19:20.644Z</time>
            </trkpt>
            <trkpt lon="100.950377" lat="12.875534">
                <ele>37.700000</ele>
                <time>2018-02-26T11:19:21.644Z</time>
            </trkpt>
            <trkpt lon="100.950342" lat="12.875557">
                <ele>37.700000</ele>
                <time>2018-02-26T11:19:22.644Z</time>
            </trkpt>
            <trkpt lon="100.950307" lat="12.875580">
                <ele>37.700000</ele>
                <time>2018-02-26T11:19:23.644Z</time>
            </trkpt>
            <trkpt lon="100.950271" lat="12.875604">
                <ele>37.700000</ele>
                <time>2018-02-26T11:19:24.644Z</time>
            </trkpt>
            <trkpt lon="100.950235" lat="12.875627">
                <ele>37.700000</ele>
                <time>2018-02-26T11:19:25.644Z</time>
            </trkpt>
            <trkpt lon="100.950198" lat="12.875651">
                <ele>37.700000</ele>
                <time>2018-02-26T11:19:26.644Z</time>
            </trkpt>
            <trkpt lon="100.950162" lat="12.875675">
                <ele>37.700000</ele>
                <time>2018-02-26T11:19:27.644Z</time>
            </trkpt>
            <trkpt lon="100.950125" lat="12.875697">
                <ele>37.700000</ele>
                <time>2018-02-26T11:19:28.644Z</time>
            </trkpt>
            <trkpt lon="100.950087" lat="12.875718">
                <ele>37.700000</ele>
                <time>2018-02-26T11:19:29.644Z</time>
            </trkpt>
            <trkpt lon="100.950050" lat="12.875741">
                <ele>37.700000</ele>
                <time>2018-02-26T11:19:30.644Z</time>
            </trkpt>
            <trkpt lon="100.950011" lat="12.875766">
                <ele>37.700000</ele>
                <time>2018-02-26T11:19:31.644Z</time>
            </trkpt>
            <trkpt lon="100.949972" lat="12.875791">
                <ele>37.800000</ele>
                <time>2018-02-26T11:19:32.644Z</time>
            </trkpt>
            <trkpt lon="100.949933" lat="12.875816">
                <ele>37.800000</ele>
                <time>2018-02-26T11:19:33.644Z</time>
            </trkpt>
            <trkpt lon="100.949893" lat="12.875839">
                <ele>37.800000</ele>
                <time>2018-02-26T11:19:34.644Z</time>
            </trkpt>
            <trkpt lon="100.949852" lat="12.875862">
                <ele>37.800000</ele>
                <time>2018-02-26T11:19:35.644Z</time>
            </trkpt>
            <trkpt lon="100.949812" lat="12.875886">
                <ele>37.800000</ele>
                <time>2018-02-26T11:19:36.644Z</time>
            </trkpt>
            <trkpt lon="100.949770" lat="12.875910">
                <ele>37.800000</ele>
                <time>2018-02-26T11:19:37.644Z</time>
            </trkpt>
            <trkpt lon="100.949727" lat="12.875936">
                <ele>37.800000</ele>
                <time>2018-02-26T11:19:38.644Z</time>
            </trkpt>
            <trkpt lon="100.949687" lat="12.875962">
                <ele>37.800000</ele>
                <time>2018-02-26T11:19:39.644Z</time>
            </trkpt>
            <trkpt lon="100.949643" lat="12.875990">
                <ele>37.800000</ele>
                <time>2018-02-26T11:19:40.644Z</time>
            </trkpt>
            <trkpt lon="100.949600" lat="12.876017">
                <ele>37.900000</ele>
                <time>2018-02-26T11:19:41.644Z</time>
            </trkpt>
            <trkpt lon="100.949556" lat="12.876045">
                <ele>37.900000</ele>
                <time>2018-02-26T11:19:42.644Z</time>
            </trkpt>
            <trkpt lon="100.949518" lat="12.876068">
                <ele>37.900000</ele>
                <time>2018-02-26T11:19:43.644Z</time>
            </trkpt>
            <trkpt lon="100.949481" lat="12.876092">
                <ele>37.900000</ele>
                <time>2018-02-26T11:19:44.644Z</time>
            </trkpt>
            <trkpt lon="100.949446" lat="12.876117">
                <ele>37.900000</ele>
                <time>2018-02-26T11:19:45.644Z</time>
            </trkpt>
            <trkpt lon="100.949411" lat="12.876141">
                <ele>37.900000</ele>
                <time>2018-02-26T11:19:46.644Z</time>
            </trkpt>
            <trkpt lon="100.949374" lat="12.876165">
                <ele>37.900000</ele>
                <time>2018-02-26T11:19:47.644Z</time>
            </trkpt>
            <trkpt lon="100.949334" lat="12.876189">
                <ele>37.900000</ele>
                <time>2018-02-26T11:19:48.644Z</time>
            </trkpt>
            <trkpt lon="100.949294" lat="12.876212">
                <ele>38.000000</ele>
                <time>2018-02-26T11:19:49.644Z</time>
            </trkpt>
            <trkpt lon="100.949257" lat="12.876234">
                <ele>38.000000</ele>
                <time>2018-02-26T11:19:50.644Z</time>
            </trkpt>
            <trkpt lon="100.949225" lat="12.876257">
                <ele>38.000000</ele>
                <time>2018-02-26T11:19:51.644Z</time>
            </trkpt>
            <trkpt lon="100.949198" lat="12.876285">
                <ele>38.000000</ele>
                <time>2018-02-26T11:19:52.644Z</time>
            </trkpt>
            <trkpt lon="100.949182" lat="12.876322">
                <ele>37.900000</ele>
                <time>2018-02-26T11:19:53.644Z</time>
            </trkpt>
            <trkpt lon="100.949177" lat="12.876361">
                <ele>37.800000</ele>
                <time>2018-02-26T11:19:54.644Z</time>
            </trkpt>
            <trkpt lon="100.949180" lat="12.876393">
                <ele>37.800000</ele>
                <time>2018-02-26T11:19:55.644Z</time>
            </trkpt>
            <trkpt lon="100.949198" lat="12.876417">
                <ele>37.700000</ele>
                <time>2018-02-26T11:19:56.644Z</time>
            </trkpt>
            <trkpt lon="100.949218" lat="12.876441">
                <ele>37.600000</ele>
                <time>2018-02-26T11:19:57.644Z</time>
            </trkpt>
            <trkpt lon="100.949236" lat="12.876470">
                <ele>37.600000</ele>
                <time>2018-02-26T11:19:58.644Z</time>
            </trkpt>
            <trkpt lon="100.949255" lat="12.876500">
                <ele>37.500000</ele>
                <time>2018-02-26T11:19:59.644Z</time>
            </trkpt>
            <trkpt lon="100.949273" lat="12.876528">
                <ele>37.500000</ele>
                <time>2018-02-26T11:20:00.644Z</time>
            </trkpt>
            <trkpt lon="100.949292" lat="12.876558">
                <ele>37.400000</ele>
                <time>2018-02-26T11:20:01.644Z</time>
            </trkpt>
            <trkpt lon="100.949314" lat="12.876584">
                <ele>37.400000</ele>
                <time>2018-02-26T11:20:02.644Z</time>
            </trkpt>
            <trkpt lon="100.949334" lat="12.876613">
                <ele>37.300000</ele>
                <time>2018-02-26T11:20:03.644Z</time>
            </trkpt>
            <trkpt lon="100.949352" lat="12.876645">
                <ele>37.300000</ele>
                <time>2018-02-26T11:20:04.644Z</time>
            </trkpt>
            <trkpt lon="100.949365" lat="12.876674">
                <ele>37.200000</ele>
                <time>2018-02-26T11:20:05.644Z</time>
            </trkpt>
            <trkpt lon="100.949374" lat="12.876705">
                <ele>37.200000</ele>
                <time>2018-02-26T11:20:06.644Z</time>
            </trkpt>
            <trkpt lon="100.949380" lat="12.876739">
                <ele>37.100000</ele>
                <time>2018-02-26T11:20:07.644Z</time>
            </trkpt>
            <trkpt lon="100.949382" lat="12.876770">
                <ele>37.100000</ele>
                <time>2018-02-26T11:20:08.644Z</time>
            </trkpt>
            <trkpt lon="100.949370" lat="12.876819">
                <ele>37.100000</ele>
                <time>2018-02-26T11:20:10.644Z</time>
            </trkpt>
            <trkpt lon="100.949344" lat="12.876869">
                <ele>37.000000</ele>
                <time>2018-02-26T11:20:12.644Z</time>
            </trkpt>
            <trkpt lon="100.949331" lat="12.876894">
                <ele>37.000000</ele>
                <time>2018-02-26T11:20:13.644Z</time>
            </trkpt>
            <trkpt lon="100.949312" lat="12.876923">
                <ele>36.900000</ele>
                <time>2018-02-26T11:20:14.644Z</time>
            </trkpt>
            <trkpt lon="100.949292" lat="12.876954">
                <ele>36.900000</ele>
                <time>2018-02-26T11:20:15.644Z</time>
            </trkpt>
            <trkpt lon="100.949268" lat="12.876987">
                <ele>36.800000</ele>
                <time>2018-02-26T11:20:16.644Z</time>
            </trkpt>
            <trkpt lon="100.949244" lat="12.877019">
                <ele>36.800000</ele>
                <time>2018-02-26T11:20:17.644Z</time>
            </trkpt>
            <trkpt lon="100.949221" lat="12.877051">
                <ele>36.700000</ele>
                <time>2018-02-26T11:20:18.644Z</time>
            </trkpt>
            <trkpt lon="100.949200" lat="12.877081">
                <ele>36.600000</ele>
                <time>2018-02-26T11:20:19.644Z</time>
            </trkpt>
            <trkpt lon="100.949181" lat="12.877111">
                <ele>36.600000</ele>
                <time>2018-02-26T11:20:20.644Z</time>
            </trkpt>
            <trkpt lon="100.949158" lat="12.877143">
                <ele>36.500000</ele>
                <time>2018-02-26T11:20:21.644Z</time>
            </trkpt>
            <trkpt lon="100.949133" lat="12.877174">
                <ele>36.500000</ele>
                <time>2018-02-26T11:20:22.644Z</time>
            </trkpt>
            <trkpt lon="100.949101" lat="12.877204">
                <ele>36.400000</ele>
                <time>2018-02-26T11:20:23.644Z</time>
            </trkpt>
            <trkpt lon="100.949067" lat="12.877233">
                <ele>36.300000</ele>
                <time>2018-02-26T11:20:24.644Z</time>
            </trkpt>
            <trkpt lon="100.949035" lat="12.877263">
                <ele>36.200000</ele>
                <time>2018-02-26T11:20:25.644Z</time>
            </trkpt>
            <trkpt lon="100.949005" lat="12.877292">
                <ele>36.200000</ele>
                <time>2018-02-26T11:20:26.644Z</time>
            </trkpt>
            <trkpt lon="100.948980" lat="12.877324">
                <ele>36.100000</ele>
                <time>2018-02-26T11:20:27.644Z</time>
            </trkpt>
            <trkpt lon="100.948958" lat="12.877357">
                <ele>36.100000</ele>
                <time>2018-02-26T11:20:28.644Z</time>
            </trkpt>
            <trkpt lon="100.948937" lat="12.877389">
                <ele>36.000000</ele>
                <time>2018-02-26T11:20:29.644Z</time>
            </trkpt>
            <trkpt lon="100.948915" lat="12.877420">
                <ele>36.000000</ele>
                <time>2018-02-26T11:20:30.644Z</time>
            </trkpt>
            <trkpt lon="100.948895" lat="12.877453">
                <ele>35.900000</ele>
                <time>2018-02-26T11:20:31.644Z</time>
            </trkpt>
            <trkpt lon="100.948875" lat="12.877483">
                <ele>35.800000</ele>
                <time>2018-02-26T11:20:32.644Z</time>
            </trkpt>
            <trkpt lon="100.948854" lat="12.877513">
                <ele>35.800000</ele>
                <time>2018-02-26T11:20:33.644Z</time>
            </trkpt>
            <trkpt lon="100.948831" lat="12.877541">
                <ele>35.700000</ele>
                <time>2018-02-26T11:20:34.644Z</time>
            </trkpt>
            <trkpt lon="100.948807" lat="12.877570">
                <ele>35.600000</ele>
                <time>2018-02-26T11:20:35.644Z</time>
            </trkpt>
            <trkpt lon="100.948782" lat="12.877600">
                <ele>35.600000</ele>
                <time>2018-02-26T11:20:36.644Z</time>
            </trkpt>
            <trkpt lon="100.948755" lat="12.877635">
                <ele>35.500000</ele>
                <time>2018-02-26T11:20:37.644Z</time>
            </trkpt>
            <trkpt lon="100.948728" lat="12.877671">
                <ele>35.400000</ele>
                <time>2018-02-26T11:20:38.644Z</time>
            </trkpt>
            <trkpt lon="100.948702" lat="12.877707">
                <ele>35.300000</ele>
                <time>2018-02-26T11:20:39.644Z</time>
            </trkpt>
            <trkpt lon="100.948677" lat="12.877740">
                <ele>35.300000</ele>
                <time>2018-02-26T11:20:40.644Z</time>
            </trkpt>
            <trkpt lon="100.948651" lat="12.877775">
                <ele>35.200000</ele>
                <time>2018-02-26T11:20:41.644Z</time>
            </trkpt>
            <trkpt lon="100.948625" lat="12.877812">
                <ele>35.100000</ele>
                <time>2018-02-26T11:20:42.644Z</time>
            </trkpt>
            <trkpt lon="100.948599" lat="12.877851">
                <ele>35.100000</ele>
                <time>2018-02-26T11:20:43.644Z</time>
            </trkpt>
            <trkpt lon="100.948575" lat="12.877889">
                <ele>35.000000</ele>
                <time>2018-02-26T11:20:44.644Z</time>
            </trkpt>
            <trkpt lon="100.948550" lat="12.877928">
                <ele>34.900000</ele>
                <time>2018-02-26T11:20:45.644Z</time>
            </trkpt>
            <trkpt lon="100.948524" lat="12.877966">
                <ele>34.900000</ele>
                <time>2018-02-26T11:20:46.644Z</time>
            </trkpt>
            <trkpt lon="100.948495" lat="12.878002">
                <ele>34.800000</ele>
                <time>2018-02-26T11:20:47.644Z</time>
            </trkpt>
            <trkpt lon="100.948467" lat="12.878039">
                <ele>34.700000</ele>
                <time>2018-02-26T11:20:48.644Z</time>
            </trkpt>
            <trkpt lon="100.948440" lat="12.878076">
                <ele>34.600000</ele>
                <time>2018-02-26T11:20:49.644Z</time>
            </trkpt>
            <trkpt lon="100.948409" lat="12.878111">
                <ele>34.500000</ele>
                <time>2018-02-26T11:20:50.644Z</time>
            </trkpt>
            <trkpt lon="100.948289" lat="12.878166">
                <ele>34.100000</ele>
                <time>2018-02-26T11:20:53.644Z</time>
            </trkpt>
            <trkpt lon="100.948250" lat="12.878165">
                <ele>34.000000</ele>
                <time>2018-02-26T11:20:54.644Z</time>
            </trkpt>
            <trkpt lon="100.948218" lat="12.878156">
                <ele>33.900000</ele>
                <time>2018-02-26T11:20:55.644Z</time>
            </trkpt>
            <trkpt lon="100.948167" lat="12.878155">
                <ele>33.700000</ele>
                <time>2018-02-26T11:20:57.644Z</time>
            </trkpt>
            <trkpt lon="100.948145" lat="12.878174">
                <ele>33.600000</ele>
                <time>2018-02-26T11:20:58.644Z</time>
            </trkpt>
            <trkpt lon="100.948091" lat="12.878182">
                <ele>33.400000</ele>
                <time>2018-02-26T11:21:00.644Z</time>
            </trkpt>
            <trkpt lon="100.948062" lat="12.878178">
                <ele>33.300000</ele>
                <time>2018-02-26T11:21:01.644Z</time>
            </trkpt>
            <trkpt lon="100.948029" lat="12.878174">
                <ele>33.100000</ele>
                <time>2018-02-26T11:21:02.644Z</time>
            </trkpt>
            <trkpt lon="100.947995" lat="12.878170">
                <ele>33.000000</ele>
                <time>2018-02-26T11:21:03.644Z</time>
            </trkpt>
            <trkpt lon="100.947947" lat="12.878153">
                <ele>32.800000</ele>
                <time>2018-02-26T11:21:04.644Z</time>
            </trkpt>
            <trkpt lon="100.947903" lat="12.878132">
                <ele>32.600000</ele>
                <time>2018-02-26T11:21:05.644Z</time>
            </trkpt>
            <trkpt lon="100.947858" lat="12.878116">
                <ele>32.400000</ele>
                <time>2018-02-26T11:21:06.644Z</time>
            </trkpt>
            <trkpt lon="100.947812" lat="12.878109">
                <ele>32.200000</ele>
                <time>2018-02-26T11:21:07.644Z</time>
            </trkpt>
            <trkpt lon="100.947764" lat="12.878107">
                <ele>32.000000</ele>
                <time>2018-02-26T11:21:08.644Z</time>
            </trkpt>
            <trkpt lon="100.947712" lat="12.878108">
                <ele>31.800000</ele>
                <time>2018-02-26T11:21:09.644Z</time>
            </trkpt>
            <trkpt lon="100.947654" lat="12.878106">
                <ele>31.500000</ele>
                <time>2018-02-26T11:21:10.644Z</time>
            </trkpt>
            <trkpt lon="100.947595" lat="12.878101">
                <ele>31.200000</ele>
                <time>2018-02-26T11:21:11.644Z</time>
            </trkpt>
            <trkpt lon="100.947538" lat="12.878094">
                <ele>30.900000</ele>
                <time>2018-02-26T11:21:12.644Z</time>
            </trkpt>
            <trkpt lon="100.947476" lat="12.878091">
                <ele>30.600000</ele>
                <time>2018-02-26T11:21:13.644Z</time>
            </trkpt>
            <trkpt lon="100.947413" lat="12.878094">
                <ele>30.300000</ele>
                <time>2018-02-26T11:21:14.644Z</time>
            </trkpt>
            <trkpt lon="100.947352" lat="12.878096">
                <ele>30.100000</ele>
                <time>2018-02-26T11:21:15.644Z</time>
            </trkpt>
            <trkpt lon="100.947291" lat="12.878095">
                <ele>29.800000</ele>
                <time>2018-02-26T11:21:16.644Z</time>
            </trkpt>
            <trkpt lon="100.947233" lat="12.878095">
                <ele>29.600000</ele>
                <time>2018-02-26T11:21:17.644Z</time>
            </trkpt>
            <trkpt lon="100.947178" lat="12.878096">
                <ele>29.300000</ele>
                <time>2018-02-26T11:21:18.644Z</time>
            </trkpt>
            <trkpt lon="100.947123" lat="12.878091">
                <ele>29.100000</ele>
                <time>2018-02-26T11:21:19.644Z</time>
            </trkpt>
            <trkpt lon="100.947066" lat="12.878086">
                <ele>28.900000</ele>
                <time>2018-02-26T11:21:20.644Z</time>
            </trkpt>
            <trkpt lon="100.947014" lat="12.878083">
                <ele>28.600000</ele>
                <time>2018-02-26T11:21:21.644Z</time>
            </trkpt>
            <trkpt lon="100.946965" lat="12.878080">
                <ele>28.400000</ele>
                <time>2018-02-26T11:21:22.644Z</time>
            </trkpt>
            <trkpt lon="100.946913" lat="12.878072">
                <ele>28.200000</ele>
                <time>2018-02-26T11:21:23.644Z</time>
            </trkpt>
            <trkpt lon="100.946861" lat="12.878065">
                <ele>28.000000</ele>
                <time>2018-02-26T11:21:24.644Z</time>
            </trkpt>
            <trkpt lon="100.946813" lat="12.878064">
                <ele>27.600000</ele>
                <time>2018-02-26T11:21:25.644Z</time>
            </trkpt>
            <trkpt lon="100.946760" lat="12.878064">
                <ele>27.200000</ele>
                <time>2018-02-26T11:21:26.644Z</time>
            </trkpt>
            <trkpt lon="100.946711" lat="12.878065">
                <ele>26.900000</ele>
                <time>2018-02-26T11:21:27.644Z</time>
            </trkpt>
            <trkpt lon="100.946659" lat="12.878064">
                <ele>26.600000</ele>
                <time>2018-02-26T11:21:28.644Z</time>
            </trkpt>
            <trkpt lon="100.946607" lat="12.878064">
                <ele>26.400000</ele>
                <time>2018-02-26T11:21:29.644Z</time>
            </trkpt>
            <trkpt lon="100.946553" lat="12.878065">
                <ele>26.100000</ele>
                <time>2018-02-26T11:21:30.644Z</time>
            </trkpt>
            <trkpt lon="100.946500" lat="12.878064">
                <ele>25.800000</ele>
                <time>2018-02-26T11:21:31.644Z</time>
            </trkpt>
            <trkpt lon="100.946448" lat="12.878062">
                <ele>25.600000</ele>
                <time>2018-02-26T11:21:32.644Z</time>
            </trkpt>
            <trkpt lon="100.946395" lat="12.878061">
                <ele>25.400000</ele>
                <time>2018-02-26T11:21:33.644Z</time>
            </trkpt>
            <trkpt lon="100.946341" lat="12.878060">
                <ele>25.200000</ele>
                <time>2018-02-26T11:21:34.644Z</time>
            </trkpt>
            <trkpt lon="100.946286" lat="12.878057">
                <ele>25.000000</ele>
                <time>2018-02-26T11:21:35.644Z</time>
            </trkpt>
            <trkpt lon="100.946229" lat="12.878054">
                <ele>24.700000</ele>
                <time>2018-02-26T11:21:36.644Z</time>
            </trkpt>
            <trkpt lon="100.946175" lat="12.878049">
                <ele>24.600000</ele>
                <time>2018-02-26T11:21:37.644Z</time>
            </trkpt>
            <trkpt lon="100.946121" lat="12.878044">
                <ele>24.300000</ele>
                <time>2018-02-26T11:21:38.644Z</time>
            </trkpt>
            <trkpt lon="100.946068" lat="12.878039">
                <ele>24.000000</ele>
                <time>2018-02-26T11:21:39.644Z</time>
            </trkpt>
            <trkpt lon="100.946016" lat="12.878036">
                <ele>23.900000</ele>
                <time>2018-02-26T11:21:40.644Z</time>
            </trkpt>
            <trkpt lon="100.945965" lat="12.878031">
                <ele>23.800000</ele>
                <time>2018-02-26T11:21:41.644Z</time>
            </trkpt>
            <trkpt lon="100.945915" lat="12.878027">
                <ele>23.700000</ele>
                <time>2018-02-26T11:21:42.644Z</time>
            </trkpt>
            <trkpt lon="100.945869" lat="12.878024">
                <ele>23.600000</ele>
                <time>2018-02-26T11:21:43.644Z</time>
            </trkpt>
            <trkpt lon="100.945823" lat="12.878021">
                <ele>23.500000</ele>
                <time>2018-02-26T11:21:44.644Z</time>
            </trkpt>
            <trkpt lon="100.945780" lat="12.878018">
                <ele>23.400000</ele>
                <time>2018-02-26T11:21:45.644Z</time>
            </trkpt>
            <trkpt lon="100.945739" lat="12.878020">
                <ele>23.400000</ele>
                <time>2018-02-26T11:21:46.644Z</time>
            </trkpt>
            <trkpt lon="100.945696" lat="12.878018">
                <ele>23.300000</ele>
                <time>2018-02-26T11:21:47.644Z</time>
            </trkpt>
            <trkpt lon="100.945653" lat="12.878014">
                <ele>23.200000</ele>
                <time>2018-02-26T11:21:48.644Z</time>
            </trkpt>
            <trkpt lon="100.945614" lat="12.878008">
                <ele>23.200000</ele>
                <time>2018-02-26T11:21:49.644Z</time>
            </trkpt>
            <trkpt lon="100.945586" lat="12.878000">
                <ele>23.100000</ele>
                <time>2018-02-26T11:21:50.644Z</time>
            </trkpt>
            <trkpt lon="100.945548" lat="12.877990">
                <ele>23.000000</ele>
                <time>2018-02-26T11:21:52.644Z</time>
            </trkpt>
            <trkpt lon="100.945519" lat="12.877991">
                <ele>23.000000</ele>
                <time>2018-02-26T11:21:54.644Z</time>
            </trkpt>
            <trkpt lon="100.945499" lat="12.878012">
                <ele>23.000000</ele>
                <time>2018-02-26T11:21:56.644Z</time>
            </trkpt>
            <trkpt lon="100.945475" lat="12.878047">
                <ele>23.100000</ele>
                <time>2018-02-26T11:22:37.644Z</time>
            </trkpt>
            <trkpt lon="100.945438" lat="12.878089">
                <ele>23.100000</ele>
                <time>2018-02-26T11:22:39.644Z</time>
            </trkpt>
            <trkpt lon="100.945423" lat="12.878116">
                <ele>23.100000</ele>
                <time>2018-02-26T11:22:40.644Z</time>
            </trkpt>
            <trkpt lon="100.945394" lat="12.878166">
                <ele>23.200000</ele>
                <time>2018-02-26T11:22:42.644Z</time>
            </trkpt>
            <trkpt lon="100.945378" lat="12.878199">
                <ele>23.200000</ele>
                <time>2018-02-26T11:22:43.644Z</time>
            </trkpt>
            <trkpt lon="100.945365" lat="12.878226">
                <ele>23.300000</ele>
                <time>2018-02-26T11:22:44.644Z</time>
            </trkpt>
            <trkpt lon="100.945353" lat="12.878258">
                <ele>23.300000</ele>
                <time>2018-02-26T11:22:45.644Z</time>
            </trkpt>
            <trkpt lon="100.945341" lat="12.878290">
                <ele>23.300000</ele>
                <time>2018-02-26T11:22:46.644Z</time>
            </trkpt>
            <trkpt lon="100.945330" lat="12.878324">
                <ele>23.300000</ele>
                <time>2018-02-26T11:22:47.644Z</time>
            </trkpt>
            <trkpt lon="100.945320" lat="12.878358">
                <ele>23.400000</ele>
                <time>2018-02-26T11:22:48.644Z</time>
            </trkpt>
            <trkpt lon="100.945310" lat="12.878391">
                <ele>23.400000</ele>
                <time>2018-02-26T11:22:49.644Z</time>
            </trkpt>
            <trkpt lon="100.945298" lat="12.878421">
                <ele>23.400000</ele>
                <time>2018-02-26T11:22:50.644Z</time>
            </trkpt>
            <trkpt lon="100.945282" lat="12.878452">
                <ele>23.400000</ele>
                <time>2018-02-26T11:22:51.644Z</time>
            </trkpt>
            <trkpt lon="100.945266" lat="12.878484">
                <ele>23.500000</ele>
                <time>2018-02-26T11:22:52.644Z</time>
            </trkpt>
            <trkpt lon="100.945251" lat="12.878516">
                <ele>23.500000</ele>
                <time>2018-02-26T11:22:53.644Z</time>
            </trkpt>
            <trkpt lon="100.945237" lat="12.878546">
                <ele>23.500000</ele>
                <time>2018-02-26T11:22:54.644Z</time>
            </trkpt>
            <trkpt lon="100.945222" lat="12.878579">
                <ele>23.500000</ele>
                <time>2018-02-26T11:22:55.644Z</time>
            </trkpt>
            <trkpt lon="100.945210" lat="12.878615">
                <ele>23.600000</ele>
                <time>2018-02-26T11:22:56.644Z</time>
            </trkpt>
            <trkpt lon="100.945198" lat="12.878651">
                <ele>23.600000</ele>
                <time>2018-02-26T11:22:57.644Z</time>
            </trkpt>
            <trkpt lon="100.945182" lat="12.878688">
                <ele>23.600000</ele>
                <time>2018-02-26T11:22:58.644Z</time>
            </trkpt>
            <trkpt lon="100.945163" lat="12.878722">
                <ele>23.600000</ele>
                <time>2018-02-26T11:22:59.644Z</time>
            </trkpt>
            <trkpt lon="100.945146" lat="12.878756">
                <ele>23.600000</ele>
                <time>2018-02-26T11:23:00.644Z</time>
            </trkpt>
            <trkpt lon="100.945126" lat="12.878794">
                <ele>23.700000</ele>
                <time>2018-02-26T11:23:01.644Z</time>
            </trkpt>
            <trkpt lon="100.945109" lat="12.878830">
                <ele>23.700000</ele>
                <time>2018-02-26T11:23:02.644Z</time>
            </trkpt>
            <trkpt lon="100.945090" lat="12.878866">
                <ele>23.700000</ele>
                <time>2018-02-26T11:23:03.644Z</time>
            </trkpt>
            <trkpt lon="100.945072" lat="12.878901">
                <ele>23.700000</ele>
                <time>2018-02-26T11:23:04.644Z</time>
            </trkpt>
            <trkpt lon="100.945052" lat="12.878935">
                <ele>23.700000</ele>
                <time>2018-02-26T11:23:05.644Z</time>
            </trkpt>
            <trkpt lon="100.945033" lat="12.878970">
                <ele>23.800000</ele>
                <time>2018-02-26T11:23:06.644Z</time>
            </trkpt>
            <trkpt lon="100.945012" lat="12.879004">
                <ele>23.800000</ele>
                <time>2018-02-26T11:23:07.644Z</time>
            </trkpt>
            <trkpt lon="100.944989" lat="12.879039">
                <ele>23.800000</ele>
                <time>2018-02-26T11:23:08.644Z</time>
            </trkpt>
            <trkpt lon="100.944966" lat="12.879078">
                <ele>23.800000</ele>
                <time>2018-02-26T11:23:09.644Z</time>
            </trkpt>
            <trkpt lon="100.944944" lat="12.879112">
                <ele>23.800000</ele>
                <time>2018-02-26T11:23:10.644Z</time>
            </trkpt>
            <trkpt lon="100.944919" lat="12.879146">
                <ele>23.900000</ele>
                <time>2018-02-26T11:23:11.644Z</time>
            </trkpt>
            <trkpt lon="100.944897" lat="12.879181">
                <ele>23.900000</ele>
                <time>2018-02-26T11:23:12.644Z</time>
            </trkpt>
            <trkpt lon="100.944875" lat="12.879218">
                <ele>23.900000</ele>
                <time>2018-02-26T11:23:13.644Z</time>
            </trkpt>
            <trkpt lon="100.944853" lat="12.879255">
                <ele>23.900000</ele>
                <time>2018-02-26T11:23:14.644Z</time>
            </trkpt>
            <trkpt lon="100.944832" lat="12.879290">
                <ele>23.900000</ele>
                <time>2018-02-26T11:23:15.644Z</time>
            </trkpt>
            <trkpt lon="100.944809" lat="12.879324">
                <ele>23.900000</ele>
                <time>2018-02-26T11:23:16.644Z</time>
            </trkpt>
            <trkpt lon="100.944788" lat="12.879358">
                <ele>23.900000</ele>
                <time>2018-02-26T11:23:17.644Z</time>
            </trkpt>
            <trkpt lon="100.944768" lat="12.879395">
                <ele>24.000000</ele>
                <time>2018-02-26T11:23:18.644Z</time>
            </trkpt>
            <trkpt lon="100.944749" lat="12.879433">
                <ele>24.000000</ele>
                <time>2018-02-26T11:23:19.644Z</time>
            </trkpt>
            <trkpt lon="100.944729" lat="12.879469">
                <ele>24.000000</ele>
                <time>2018-02-26T11:23:20.644Z</time>
            </trkpt>
            <trkpt lon="100.944709" lat="12.879506">
                <ele>24.000000</ele>
                <time>2018-02-26T11:23:21.644Z</time>
            </trkpt>
            <trkpt lon="100.944688" lat="12.879542">
                <ele>24.000000</ele>
                <time>2018-02-26T11:23:22.644Z</time>
            </trkpt>
            <trkpt lon="100.944671" lat="12.879578">
                <ele>24.100000</ele>
                <time>2018-02-26T11:23:23.644Z</time>
            </trkpt>
            <trkpt lon="100.944662" lat="12.879607">
                <ele>24.100000</ele>
                <time>2018-02-26T11:23:24.644Z</time>
            </trkpt>
            <trkpt lon="100.944654" lat="12.879638">
                <ele>24.100000</ele>
                <time>2018-02-26T11:23:25.644Z</time>
            </trkpt>
            <trkpt lon="100.944645" lat="12.879674">
                <ele>24.200000</ele>
                <time>2018-02-26T11:23:26.644Z</time>
            </trkpt>
            <trkpt lon="100.944641" lat="12.879703">
                <ele>24.200000</ele>
                <time>2018-02-26T11:23:27.644Z</time>
            </trkpt>
            <trkpt lon="100.944636" lat="12.879736">
                <ele>24.300000</ele>
                <time>2018-02-26T11:23:28.644Z</time>
            </trkpt>
            <trkpt lon="100.944637" lat="12.879770">
                <ele>24.400000</ele>
                <time>2018-02-26T11:23:29.644Z</time>
            </trkpt>
            <trkpt lon="100.944642" lat="12.879810">
                <ele>24.500000</ele>
                <time>2018-02-26T11:23:30.644Z</time>
            </trkpt>
            <trkpt lon="100.944647" lat="12.879851">
                <ele>24.600000</ele>
                <time>2018-02-26T11:23:31.644Z</time>
            </trkpt>
            <trkpt lon="100.944650" lat="12.879897">
                <ele>24.700000</ele>
                <time>2018-02-26T11:23:32.644Z</time>
            </trkpt>
            <trkpt lon="100.944659" lat="12.879943">
                <ele>24.800000</ele>
                <time>2018-02-26T11:23:33.644Z</time>
            </trkpt>
            <trkpt lon="100.944668" lat="12.879988">
                <ele>24.900000</ele>
                <time>2018-02-26T11:23:34.644Z</time>
            </trkpt>
            <trkpt lon="100.944677" lat="12.880030">
                <ele>25.100000</ele>
                <time>2018-02-26T11:23:35.644Z</time>
            </trkpt>
            <trkpt lon="100.944686" lat="12.880072">
                <ele>25.100000</ele>
                <time>2018-02-26T11:23:36.644Z</time>
            </trkpt>
            <trkpt lon="100.944698" lat="12.880111">
                <ele>25.200000</ele>
                <time>2018-02-26T11:23:37.644Z</time>
            </trkpt>
            <trkpt lon="100.944708" lat="12.880151">
                <ele>25.300000</ele>
                <time>2018-02-26T11:23:38.644Z</time>
            </trkpt>
            <trkpt lon="100.944719" lat="12.880189">
                <ele>25.300000</ele>
                <time>2018-02-26T11:23:39.644Z</time>
            </trkpt>
            <trkpt lon="100.944732" lat="12.880229">
                <ele>25.400000</ele>
                <time>2018-02-26T11:23:40.644Z</time>
            </trkpt>
            <trkpt lon="100.944744" lat="12.880271">
                <ele>25.400000</ele>
                <time>2018-02-26T11:23:41.644Z</time>
            </trkpt>
            <trkpt lon="100.944760" lat="12.880303">
                <ele>25.500000</ele>
                <time>2018-02-26T11:23:42.644Z</time>
            </trkpt>
            <trkpt lon="100.944779" lat="12.880343">
                <ele>25.500000</ele>
                <time>2018-02-26T11:23:43.644Z</time>
            </trkpt>
            <trkpt lon="100.944795" lat="12.880380">
                <ele>25.600000</ele>
                <time>2018-02-26T11:23:44.644Z</time>
            </trkpt>
            <trkpt lon="100.944815" lat="12.880417">
                <ele>25.600000</ele>
                <time>2018-02-26T11:23:45.644Z</time>
            </trkpt>
            <trkpt lon="100.944832" lat="12.880452">
                <ele>25.700000</ele>
                <time>2018-02-26T11:23:46.644Z</time>
            </trkpt>
            <trkpt lon="100.944854" lat="12.880488">
                <ele>25.700000</ele>
                <time>2018-02-26T11:23:47.644Z</time>
            </trkpt>
            <trkpt lon="100.944872" lat="12.880525">
                <ele>25.800000</ele>
                <time>2018-02-26T11:23:48.644Z</time>
            </trkpt>
            <trkpt lon="100.944892" lat="12.880563">
                <ele>25.800000</ele>
                <time>2018-02-26T11:23:49.644Z</time>
            </trkpt>
            <trkpt lon="100.944913" lat="12.880598">
                <ele>25.800000</ele>
                <time>2018-02-26T11:23:50.644Z</time>
            </trkpt>
            <trkpt lon="100.944934" lat="12.880636">
                <ele>25.900000</ele>
                <time>2018-02-26T11:23:51.644Z</time>
            </trkpt>
            <trkpt lon="100.944954" lat="12.880672">
                <ele>25.900000</ele>
                <time>2018-02-26T11:23:52.644Z</time>
            </trkpt>
            <trkpt lon="100.944976" lat="12.880709">
                <ele>26.000000</ele>
                <time>2018-02-26T11:23:53.644Z</time>
            </trkpt>
            <trkpt lon="100.945000" lat="12.880746">
                <ele>26.000000</ele>
                <time>2018-02-26T11:23:54.644Z</time>
            </trkpt>
            <trkpt lon="100.945024" lat="12.880782">
                <ele>26.000000</ele>
                <time>2018-02-26T11:23:55.644Z</time>
            </trkpt>
            <trkpt lon="100.945045" lat="12.880817">
                <ele>26.100000</ele>
                <time>2018-02-26T11:23:56.644Z</time>
            </trkpt>
            <trkpt lon="100.945064" lat="12.880850">
                <ele>26.100000</ele>
                <time>2018-02-26T11:23:57.644Z</time>
            </trkpt>
            <trkpt lon="100.945085" lat="12.880882">
                <ele>26.100000</ele>
                <time>2018-02-26T11:23:58.644Z</time>
            </trkpt>
            <trkpt lon="100.945106" lat="12.880915">
                <ele>26.200000</ele>
                <time>2018-02-26T11:23:59.644Z</time>
            </trkpt>
            <trkpt lon="100.945127" lat="12.880947">
                <ele>26.200000</ele>
                <time>2018-02-26T11:24:00.644Z</time>
            </trkpt>
            <trkpt lon="100.945147" lat="12.880977">
                <ele>26.200000</ele>
                <time>2018-02-26T11:24:01.644Z</time>
            </trkpt>
            <trkpt lon="100.945170" lat="12.881010">
                <ele>26.300000</ele>
                <time>2018-02-26T11:24:02.644Z</time>
            </trkpt>
            <trkpt lon="100.945191" lat="12.881039">
                <ele>26.300000</ele>
                <time>2018-02-26T11:24:03.644Z</time>
            </trkpt>
            <trkpt lon="100.945212" lat="12.881070">
                <ele>26.300000</ele>
                <time>2018-02-26T11:24:04.644Z</time>
            </trkpt>
            <trkpt lon="100.945232" lat="12.881104">
                <ele>26.400000</ele>
                <time>2018-02-26T11:24:05.644Z</time>
            </trkpt>
            <trkpt lon="100.945254" lat="12.881138">
                <ele>26.400000</ele>
                <time>2018-02-26T11:24:06.644Z</time>
            </trkpt>
            <trkpt lon="100.945279" lat="12.881171">
                <ele>26.500000</ele>
                <time>2018-02-26T11:24:07.644Z</time>
            </trkpt>
            <trkpt lon="100.945300" lat="12.881207">
                <ele>26.500000</ele>
                <time>2018-02-26T11:24:08.644Z</time>
            </trkpt>
            <trkpt lon="100.945324" lat="12.881244">
                <ele>26.500000</ele>
                <time>2018-02-26T11:24:09.644Z</time>
            </trkpt>
            <trkpt lon="100.945347" lat="12.881281">
                <ele>26.600000</ele>
                <time>2018-02-26T11:24:10.644Z</time>
            </trkpt>
            <trkpt lon="100.945369" lat="12.881318">
                <ele>26.600000</ele>
                <time>2018-02-26T11:24:11.644Z</time>
            </trkpt>
            <trkpt lon="100.945392" lat="12.881352">
                <ele>26.600000</ele>
                <time>2018-02-26T11:24:12.644Z</time>
            </trkpt>
            <trkpt lon="100.945416" lat="12.881386">
                <ele>26.600000</ele>
                <time>2018-02-26T11:24:13.644Z</time>
            </trkpt>
            <trkpt lon="100.945437" lat="12.881420">
                <ele>26.600000</ele>
                <time>2018-02-26T11:24:14.644Z</time>
            </trkpt>
            <trkpt lon="100.945457" lat="12.881454">
                <ele>26.700000</ele>
                <time>2018-02-26T11:24:15.644Z</time>
            </trkpt>
            <trkpt lon="100.945478" lat="12.881488">
                <ele>26.700000</ele>
                <time>2018-02-26T11:24:16.644Z</time>
            </trkpt>
            <trkpt lon="100.945499" lat="12.881518">
                <ele>26.700000</ele>
                <time>2018-02-26T11:24:17.644Z</time>
            </trkpt>
            <trkpt lon="100.945521" lat="12.881549">
                <ele>26.700000</ele>
                <time>2018-02-26T11:24:18.644Z</time>
            </trkpt>
            <trkpt lon="100.945546" lat="12.881579">
                <ele>26.700000</ele>
                <time>2018-02-26T11:24:19.644Z</time>
            </trkpt>
            <trkpt lon="100.945572" lat="12.881609">
                <ele>26.800000</ele>
                <time>2018-02-26T11:24:20.644Z</time>
            </trkpt>
            <trkpt lon="100.945593" lat="12.881642">
                <ele>26.800000</ele>
                <time>2018-02-26T11:24:21.644Z</time>
            </trkpt>
            <trkpt lon="100.945607" lat="12.881673">
                <ele>26.800000</ele>
                <time>2018-02-26T11:24:22.644Z</time>
            </trkpt>
            <trkpt lon="100.945619" lat="12.881698">
                <ele>26.800000</ele>
                <time>2018-02-26T11:24:23.644Z</time>
            </trkpt>
            <trkpt lon="100.945633" lat="12.881725">
                <ele>26.800000</ele>
                <time>2018-02-26T11:24:54.644Z</time>
            </trkpt>
            <trkpt lon="100.945662" lat="12.881742">
                <ele>26.800000</ele>
                <time>2018-02-26T11:24:56.644Z</time>
            </trkpt>
            <trkpt lon="100.945699" lat="12.881763">
                <ele>26.800000</ele>
                <time>2018-02-26T11:24:58.644Z</time>
            </trkpt>
            <trkpt lon="100.945738" lat="12.881782">
                <ele>26.900000</ele>
                <time>2018-02-26T11:25:00.644Z</time>
            </trkpt>
            <trkpt lon="100.945774" lat="12.881797">
                <ele>26.900000</ele>
                <time>2018-02-26T11:25:02.644Z</time>
            </trkpt>
            <trkpt lon="100.945817" lat="12.881818">
                <ele>26.900000</ele>
                <time>2018-02-26T11:25:04.644Z</time>
            </trkpt>
            <trkpt lon="100.945856" lat="12.881835">
                <ele>26.900000</ele>
                <time>2018-02-26T11:25:06.644Z</time>
            </trkpt>
            <trkpt lon="100.945907" lat="12.881836">
                <ele>27.300000</ele>
                <time>2018-02-26T11:25:08.644Z</time>
            </trkpt>
            <trkpt lon="100.945962" lat="12.881841">
                <ele>27.300000</ele>
                <time>2018-02-26T11:25:10.644Z</time>
            </trkpt>
            <trkpt lon="100.945989" lat="12.881853">
                <ele>27.100000</ele>
                <time>2018-02-26T11:25:11.644Z</time>
            </trkpt>
            <trkpt lon="100.946017" lat="12.881868">
                <ele>27.100000</ele>
                <time>2018-02-26T11:25:12.644Z</time>
            </trkpt>
            <trkpt lon="100.946046" lat="12.881886">
                <ele>26.900000</ele>
                <time>2018-02-26T11:25:13.644Z</time>
            </trkpt>
            <trkpt lon="100.946067" lat="12.881911">
                <ele>26.900000</ele>
                <time>2018-02-26T11:25:14.644Z</time>
            </trkpt>
            <trkpt lon="100.946088" lat="12.881934">
                <ele>26.800000</ele>
                <time>2018-02-26T11:25:15.644Z</time>
            </trkpt>
            <trkpt lon="100.946111" lat="12.881957">
                <ele>26.900000</ele>
                <time>2018-02-26T11:25:16.644Z</time>
            </trkpt>
            <trkpt lon="100.946143" lat="12.881975">
                <ele>26.900000</ele>
                <time>2018-02-26T11:25:17.644Z</time>
            </trkpt>
            <trkpt lon="100.946174" lat="12.881993">
                <ele>27.200000</ele>
                <time>2018-02-26T11:25:18.644Z</time>
            </trkpt>
            <trkpt lon="100.946201" lat="12.882010">
                <ele>27.200000</ele>
                <time>2018-02-26T11:25:19.644Z</time>
            </trkpt>
            <trkpt lon="100.946239" lat="12.882031">
                <ele>27.300000</ele>
                <time>2018-02-26T11:25:21.644Z</time>
            </trkpt>
            <trkpt lon="100.946284" lat="12.882041">
                <ele>27.600000</ele>
                <time>2018-02-26T11:25:23.644Z</time>
            </trkpt>
            <trkpt lon="100.946330" lat="12.882056">
                <ele>27.900000</ele>
                <time>2018-02-26T11:25:25.644Z</time>
            </trkpt>
            <trkpt lon="100.946352" lat="12.882072">
                <ele>28.100000</ele>
                <time>2018-02-26T11:25:26.644Z</time>
            </trkpt>
            <trkpt lon="100.946375" lat="12.882091">
                <ele>28.400000</ele>
                <time>2018-02-26T11:25:27.644Z</time>
            </trkpt>
            <trkpt lon="100.946395" lat="12.882111">
                <ele>28.400000</ele>
                <time>2018-02-26T11:25:28.644Z</time>
            </trkpt>
            <trkpt lon="100.946417" lat="12.882133">
                <ele>28.700000</ele>
                <time>2018-02-26T11:25:29.644Z</time>
            </trkpt>
            <trkpt lon="100.946439" lat="12.882156">
                <ele>28.700000</ele>
                <time>2018-02-26T11:25:30.644Z</time>
            </trkpt>
            <trkpt lon="100.946462" lat="12.882175">
                <ele>29.000000</ele>
                <time>2018-02-26T11:25:31.644Z</time>
            </trkpt>
            <trkpt lon="100.946487" lat="12.882190">
                <ele>28.900000</ele>
                <time>2018-02-26T11:25:32.644Z</time>
            </trkpt>
            <trkpt lon="100.946512" lat="12.882206">
                <ele>29.200000</ele>
                <time>2018-02-26T11:25:33.644Z</time>
            </trkpt>
            <trkpt lon="100.946536" lat="12.882224">
                <ele>29.000000</ele>
                <time>2018-02-26T11:25:34.644Z</time>
            </trkpt>
            <trkpt lon="100.946562" lat="12.882242">
                <ele>29.300000</ele>
                <time>2018-02-26T11:25:35.644Z</time>
            </trkpt>
            <trkpt lon="100.946584" lat="12.882264">
                <ele>29.000000</ele>
                <time>2018-02-26T11:25:36.644Z</time>
            </trkpt>
            <trkpt lon="100.946604" lat="12.882286">
                <ele>29.200000</ele>
                <time>2018-02-26T11:25:37.644Z</time>
            </trkpt>
            <trkpt lon="100.946624" lat="12.882305">
                <ele>28.900000</ele>
                <time>2018-02-26T11:25:38.644Z</time>
            </trkpt>
            <trkpt lon="100.946658" lat="12.882345">
                <ele>29.000000</ele>
                <time>2018-02-26T11:25:40.644Z</time>
            </trkpt>
            <trkpt lon="100.946681" lat="12.882379">
                <ele>28.600000</ele>
                <time>2018-02-26T11:25:42.644Z</time>
            </trkpt>
            <trkpt lon="100.946719" lat="12.882399">
                <ele>28.200000</ele>
                <time>2018-02-26T11:25:44.644Z</time>
            </trkpt>
            <trkpt lon="100.946739" lat="12.882417">
                <ele>28.200000</ele>
                <time>2018-02-26T11:25:45.644Z</time>
            </trkpt>
            <trkpt lon="100.946756" lat="12.882441">
                <ele>27.700000</ele>
                <time>2018-02-26T11:25:46.644Z</time>
            </trkpt>
            <trkpt lon="100.946782" lat="12.882486">
                <ele>27.400000</ele>
                <time>2018-02-26T11:25:48.644Z</time>
            </trkpt>
            <trkpt lon="100.946795" lat="12.882511">
                <ele>27.400000</ele>
                <time>2018-02-26T11:25:49.644Z</time>
            </trkpt>
            <trkpt lon="100.946823" lat="12.882553">
                <ele>27.300000</ele>
                <time>2018-02-26T11:25:51.644Z</time>
            </trkpt>
            <trkpt lon="100.946846" lat="12.882588">
                <ele>27.100000</ele>
                <time>2018-02-26T11:25:53.644Z</time>
            </trkpt>
            <trkpt lon="100.946863" lat="12.882623">
                <ele>27.100000</ele>
                <time>2018-02-26T11:25:55.644Z</time>
            </trkpt>
            <trkpt lon="100.946885" lat="12.882664">
                <ele>26.900000</ele>
                <time>2018-02-26T11:25:57.644Z</time>
            </trkpt>
            <trkpt lon="100.946923" lat="12.882697">
                <ele>27.000000</ele>
                <time>2018-02-26T11:25:59.644Z</time>
            </trkpt>
            <trkpt lon="100.946970" lat="12.882721">
                <ele>27.600000</ele>
                <time>2018-02-26T11:26:01.644Z</time>
            </trkpt>
            <trkpt lon="100.947019" lat="12.882732">
                <ele>29.100000</ele>
                <time>2018-02-26T11:26:03.644Z</time>
            </trkpt>
            <trkpt lon="100.947055" lat="12.882723">
                <ele>29.100000</ele>
                <time>2018-02-26T11:26:24.644Z</time>
            </trkpt>
            <trkpt lon="100.947084" lat="12.882710">
                <ele>29.900000</ele>
                <time>2018-02-26T11:26:26.644Z</time>
            </trkpt>
            <trkpt lon="100.947125" lat="12.882697">
                <ele>30.500000</ele>
                <time>2018-02-26T11:26:28.644Z</time>
            </trkpt>
            <trkpt lon="100.947179" lat="12.882683">
                <ele>31.100000</ele>
                <time>2018-02-26T11:26:30.644Z</time>
            </trkpt>
            <trkpt lon="100.947209" lat="12.882673">
                <ele>31.600000</ele>
                <time>2018-02-26T11:26:31.644Z</time>
            </trkpt>
            <trkpt lon="100.947238" lat="12.882658">
                <ele>32.100000</ele>
                <time>2018-02-26T11:26:32.644Z</time>
            </trkpt>
            <trkpt lon="100.947268" lat="12.882649">
                <ele>32.100000</ele>
                <time>2018-02-26T11:26:33.644Z</time>
            </trkpt>
            <trkpt lon="100.947315" lat="12.882658">
                <ele>32.600000</ele>
                <time>2018-02-26T11:26:35.644Z</time>
            </trkpt>
            <trkpt lon="100.947363" lat="12.882661">
                <ele>33.700000</ele>
                <time>2018-02-26T11:26:37.644Z</time>
            </trkpt>
            <trkpt lon="100.947407" lat="12.882663">
                <ele>34.200000</ele>
                <time>2018-02-26T11:26:39.644Z</time>
            </trkpt>
            <trkpt lon="100.947460" lat="12.882663">
                <ele>34.600000</ele>
                <time>2018-02-26T11:26:41.644Z</time>
            </trkpt>
            <trkpt lon="100.947490" lat="12.882663">
                <ele>34.800000</ele>
                <time>2018-02-26T11:26:42.644Z</time>
            </trkpt>
            <trkpt lon="100.947519" lat="12.882661">
                <ele>34.800000</ele>
                <time>2018-02-26T11:26:43.644Z</time>
            </trkpt>
            <trkpt lon="100.947573" lat="12.882652">
                <ele>35.100000</ele>
                <time>2018-02-26T11:26:45.644Z</time>
            </trkpt>
            <trkpt lon="100.947618" lat="12.882636">
                <ele>35.100000</ele>
                <time>2018-02-26T11:26:47.644Z</time>
            </trkpt>
            <trkpt lon="100.947660" lat="12.882631">
                <ele>35.200000</ele>
                <time>2018-02-26T11:26:49.644Z</time>
            </trkpt>
            <trkpt lon="100.947689" lat="12.882628">
                <ele>35.200000</ele>
                <time>2018-02-26T11:26:54.644Z</time>
            </trkpt>
            <trkpt lon="100.947729" lat="12.882626">
                <ele>35.200000</ele>
                <time>2018-02-26T11:26:56.644Z</time>
            </trkpt>
            <trkpt lon="100.947774" lat="12.882640">
                <ele>35.500000</ele>
                <time>2018-02-26T11:26:58.644Z</time>
            </trkpt>
            <trkpt lon="100.947801" lat="12.882649">
                <ele>35.400000</ele>
                <time>2018-02-26T11:26:59.644Z</time>
            </trkpt>
            <trkpt lon="100.947828" lat="12.882657">
                <ele>35.500000</ele>
                <time>2018-02-26T11:27:00.644Z</time>
            </trkpt>
            <trkpt lon="100.947876" lat="12.882667">
                <ele>35.000000</ele>
                <time>2018-02-26T11:27:02.644Z</time>
            </trkpt>
            <trkpt lon="100.947918" lat="12.882685">
                <ele>35.100000</ele>
                <time>2018-02-26T11:27:04.644Z</time>
            </trkpt>
            <trkpt lon="100.947951" lat="12.882692">
                <ele>34.900000</ele>
                <time>2018-02-26T11:27:06.644Z</time>
            </trkpt>
            <trkpt lon="100.947999" lat="12.882692">
                <ele>34.800000</ele>
                <time>2018-02-26T11:27:08.644Z</time>
            </trkpt>
            <trkpt lon="100.948052" lat="12.882692">
                <ele>34.800000</ele>
                <time>2018-02-26T11:27:10.644Z</time>
            </trkpt>
            <trkpt lon="100.948080" lat="12.882694">
                <ele>34.900000</ele>
                <time>2018-02-26T11:27:11.644Z</time>
            </trkpt>
            <trkpt lon="100.948110" lat="12.882699">
                <ele>34.900000</ele>
                <time>2018-02-26T11:27:12.644Z</time>
            </trkpt>
            <trkpt lon="100.948142" lat="12.882703">
                <ele>34.800000</ele>
                <time>2018-02-26T11:27:13.644Z</time>
            </trkpt>
            <trkpt lon="100.948175" lat="12.882709">
                <ele>34.800000</ele>
                <time>2018-02-26T11:27:14.644Z</time>
            </trkpt>
            <trkpt lon="100.948205" lat="12.882714">
                <ele>34.600000</ele>
                <time>2018-02-26T11:27:15.644Z</time>
            </trkpt>
            <trkpt lon="100.948238" lat="12.882722">
                <ele>34.400000</ele>
                <time>2018-02-26T11:27:16.644Z</time>
            </trkpt>
            <trkpt lon="100.948268" lat="12.882728">
                <ele>34.100000</ele>
                <time>2018-02-26T11:27:17.644Z</time>
            </trkpt>
            <trkpt lon="100.948300" lat="12.882737">
                <ele>34.200000</ele>
                <time>2018-02-26T11:27:18.644Z</time>
            </trkpt>
            <trkpt lon="100.948331" lat="12.882742">
                <ele>34.100000</ele>
                <time>2018-02-26T11:27:19.644Z</time>
            </trkpt>
            <trkpt lon="100.948362" lat="12.882749">
                <ele>34.100000</ele>
                <time>2018-02-26T11:27:20.644Z</time>
            </trkpt>
            <trkpt lon="100.948396" lat="12.882755">
                <ele>34.100000</ele>
                <time>2018-02-26T11:27:21.644Z</time>
            </trkpt>
            <trkpt lon="100.948428" lat="12.882763">
                <ele>34.100000</ele>
                <time>2018-02-26T11:27:22.644Z</time>
            </trkpt>
            <trkpt lon="100.948459" lat="12.882770">
                <ele>34.200000</ele>
                <time>2018-02-26T11:27:23.644Z</time>
            </trkpt>
            <trkpt lon="100.948487" lat="12.882777">
                <ele>34.200000</ele>
                <time>2018-02-26T11:27:24.644Z</time>
            </trkpt>
            <trkpt lon="100.948516" lat="12.882779">
                <ele>34.200000</ele>
                <time>2018-02-26T11:27:25.644Z</time>
            </trkpt>
            <trkpt lon="100.948547" lat="12.882786">
                <ele>34.200000</ele>
                <time>2018-02-26T11:27:26.644Z</time>
            </trkpt>
            <trkpt lon="100.948577" lat="12.882792">
                <ele>34.300000</ele>
                <time>2018-02-26T11:27:27.644Z</time>
            </trkpt>
            <trkpt lon="100.948610" lat="12.882809">
                <ele>34.300000</ele>
                <time>2018-02-26T11:27:29.644Z</time>
            </trkpt>
            <trkpt lon="100.948651" lat="12.882809">
                <ele>34.500000</ele>
                <time>2018-02-26T11:27:31.644Z</time>
            </trkpt>
            <trkpt lon="100.948703" lat="12.882810">
                <ele>35.100000</ele>
                <time>2018-02-26T11:27:33.644Z</time>
            </trkpt>
            <trkpt lon="100.948732" lat="12.882811">
                <ele>35.100000</ele>
                <time>2018-02-26T11:27:34.644Z</time>
            </trkpt>
            <trkpt lon="100.948785" lat="12.882813">
                <ele>36.100000</ele>
                <time>2018-02-26T11:27:36.644Z</time>
            </trkpt>
            <trkpt lon="100.948813" lat="12.882818">
                <ele>36.100000</ele>
                <time>2018-02-26T11:27:37.644Z</time>
            </trkpt>
            <trkpt lon="100.948841" lat="12.882822">
                <ele>36.700000</ele>
                <time>2018-02-26T11:27:38.644Z</time>
            </trkpt>
            <trkpt lon="100.948870" lat="12.882825">
                <ele>37.200000</ele>
                <time>2018-02-26T11:27:39.644Z</time>
            </trkpt>
            <trkpt lon="100.948898" lat="12.882828">
                <ele>37.200000</ele>
                <time>2018-02-26T11:27:40.644Z</time>
            </trkpt>
            <trkpt lon="100.948926" lat="12.882830">
                <ele>37.700000</ele>
                <time>2018-02-26T11:27:41.644Z</time>
            </trkpt>
            <trkpt lon="100.948955" lat="12.882831">
                <ele>38.300000</ele>
                <time>2018-02-26T11:27:42.644Z</time>
            </trkpt>
            <trkpt lon="100.948985" lat="12.882834">
                <ele>38.300000</ele>
                <time>2018-02-26T11:27:43.644Z</time>
            </trkpt>
            <trkpt lon="100.949016" lat="12.882835">
                <ele>38.700000</ele>
                <time>2018-02-26T11:27:44.644Z</time>
            </trkpt>
            <trkpt lon="100.949047" lat="12.882830">
                <ele>39.000000</ele>
                <time>2018-02-26T11:27:45.644Z</time>
            </trkpt>
            <trkpt lon="100.949079" lat="12.882825">
                <ele>39.300000</ele>
                <time>2018-02-26T11:27:46.644Z</time>
            </trkpt>
            <trkpt lon="100.949109" lat="12.882822">
                <ele>39.400000</ele>
                <time>2018-02-26T11:27:47.644Z</time>
            </trkpt>
            <trkpt lon="100.949142" lat="12.882825">
                <ele>39.700000</ele>
                <time>2018-02-26T11:27:48.644Z</time>
            </trkpt>
            <trkpt lon="100.949172" lat="12.882825">
                <ele>40.000000</ele>
                <time>2018-02-26T11:27:49.644Z</time>
            </trkpt>
            <trkpt lon="100.949201" lat="12.882823">
                <ele>40.000000</ele>
                <time>2018-02-26T11:27:50.644Z</time>
            </trkpt>
            <trkpt lon="100.949229" lat="12.882806">
                <ele>40.200000</ele>
                <time>2018-02-26T11:27:51.644Z</time>
            </trkpt>
            <trkpt lon="100.949260" lat="12.882797">
                <ele>40.600000</ele>
                <time>2018-02-26T11:27:52.644Z</time>
            </trkpt>
            <trkpt lon="100.949291" lat="12.882789">
                <ele>40.600000</ele>
                <time>2018-02-26T11:27:53.644Z</time>
            </trkpt>
            <trkpt lon="100.949324" lat="12.882785">
                <ele>40.800000</ele>
                <time>2018-02-26T11:27:54.644Z</time>
            </trkpt>
            <trkpt lon="100.949355" lat="12.882776">
                <ele>41.000000</ele>
                <time>2018-02-26T11:27:55.644Z</time>
            </trkpt>
            <trkpt lon="100.949390" lat="12.882770">
                <ele>41.300000</ele>
                <time>2018-02-26T11:27:56.644Z</time>
            </trkpt>
            <trkpt lon="100.949425" lat="12.882763">
                <ele>41.500000</ele>
                <time>2018-02-26T11:27:57.644Z</time>
            </trkpt>
            <trkpt lon="100.949457" lat="12.882760">
                <ele>41.600000</ele>
                <time>2018-02-26T11:27:58.644Z</time>
            </trkpt>
            <trkpt lon="100.949493" lat="12.882756">
                <ele>41.800000</ele>
                <time>2018-02-26T11:27:59.644Z</time>
            </trkpt>
            <trkpt lon="100.949523" lat="12.882758">
                <ele>42.200000</ele>
                <time>2018-02-26T11:28:00.644Z</time>
            </trkpt>
            <trkpt lon="100.949553" lat="12.882762">
                <ele>42.700000</ele>
                <time>2018-02-26T11:28:01.644Z</time>
            </trkpt>
            <trkpt lon="100.949599" lat="12.882777">
                <ele>43.300000</ele>
                <time>2018-02-26T11:28:03.644Z</time>
            </trkpt>
            <trkpt lon="100.949640" lat="12.882795">
                <ele>43.800000</ele>
                <time>2018-02-26T11:28:05.644Z</time>
            </trkpt>
            <trkpt lon="100.949666" lat="12.882812">
                <ele>43.800000</ele>
                <time>2018-02-26T11:28:07.644Z</time>
            </trkpt>
            <trkpt lon="100.949694" lat="12.882818">
                <ele>44.100000</ele>
                <time>2018-02-26T11:28:09.644Z</time>
            </trkpt>
            <trkpt lon="100.949742" lat="12.882821">
                <ele>44.200000</ele>
                <time>2018-02-26T11:28:11.644Z</time>
            </trkpt>
            <trkpt lon="100.949773" lat="12.882818">
                <ele>44.300000</ele>
                <time>2018-02-26T11:28:12.644Z</time>
            </trkpt>
            <trkpt lon="100.949805" lat="12.882811">
                <ele>44.300000</ele>
                <time>2018-02-26T11:28:13.644Z</time>
            </trkpt>
            <trkpt lon="100.949840" lat="12.882801">
                <ele>44.600000</ele>
                <time>2018-02-26T11:28:14.644Z</time>
            </trkpt>
            <trkpt lon="100.949872" lat="12.882789">
                <ele>44.700000</ele>
                <time>2018-02-26T11:28:15.644Z</time>
            </trkpt>
            <trkpt lon="100.949907" lat="12.882779">
                <ele>45.000000</ele>
                <time>2018-02-26T11:28:16.644Z</time>
            </trkpt>
            <trkpt lon="100.949939" lat="12.882769">
                <ele>45.300000</ele>
                <time>2018-02-26T11:28:17.644Z</time>
            </trkpt>
            <trkpt lon="100.949970" lat="12.882757">
                <ele>45.600000</ele>
                <time>2018-02-26T11:28:18.644Z</time>
            </trkpt>
            <trkpt lon="100.950002" lat="12.882744">
                <ele>45.800000</ele>
                <time>2018-02-26T11:28:19.644Z</time>
            </trkpt>
            <trkpt lon="100.950034" lat="12.882738">
                <ele>46.200000</ele>
                <time>2018-02-26T11:28:20.644Z</time>
            </trkpt>
            <trkpt lon="100.950065" lat="12.882743">
                <ele>46.700000</ele>
                <time>2018-02-26T11:28:21.644Z</time>
            </trkpt>
            <trkpt lon="100.950102" lat="12.882766">
                <ele>46.500000</ele>
                <time>2018-02-26T11:28:23.644Z</time>
            </trkpt>
            <trkpt lon="100.950123" lat="12.882787">
                <ele>47.000000</ele>
                <time>2018-02-26T11:28:25.644Z</time>
            </trkpt>
            <trkpt lon="100.950161" lat="12.882806">
                <ele>47.300000</ele>
                <time>2018-02-26T11:28:27.644Z</time>
            </trkpt>
            <trkpt lon="100.950184" lat="12.882826">
                <ele>47.300000</ele>
                <time>2018-02-26T11:28:28.644Z</time>
            </trkpt>
            <trkpt lon="100.950205" lat="12.882845">
                <ele>47.900000</ele>
                <time>2018-02-26T11:28:29.644Z</time>
            </trkpt>
            <trkpt lon="100.950229" lat="12.882869">
                <ele>47.600000</ele>
                <time>2018-02-26T11:28:30.644Z</time>
            </trkpt>
            <trkpt lon="100.950246" lat="12.882895">
                <ele>47.800000</ele>
                <time>2018-02-26T11:28:31.644Z</time>
            </trkpt>
            <trkpt lon="100.950261" lat="12.882923">
                <ele>47.800000</ele>
                <time>2018-02-26T11:28:32.644Z</time>
            </trkpt>
            <trkpt lon="100.950273" lat="12.882948">
                <ele>47.500000</ele>
                <time>2018-02-26T11:28:33.644Z</time>
            </trkpt>
            <trkpt lon="100.950287" lat="12.882974">
                <ele>47.500000</ele>
                <time>2018-02-26T11:28:34.644Z</time>
            </trkpt>
            <trkpt lon="100.950319" lat="12.883019">
                <ele>47.100000</ele>
                <time>2018-02-26T11:28:36.644Z</time>
            </trkpt>
            <trkpt lon="100.950360" lat="12.883057">
                <ele>46.900000</ele>
                <time>2018-02-26T11:28:38.644Z</time>
            </trkpt>
            <trkpt lon="100.950388" lat="12.883074">
                <ele>47.000000</ele>
                <time>2018-02-26T11:28:39.644Z</time>
            </trkpt>
            <trkpt lon="100.950420" lat="12.883093">
                <ele>47.500000</ele>
                <time>2018-02-26T11:28:40.644Z</time>
            </trkpt>
            <trkpt lon="100.950447" lat="12.883105">
                <ele>47.800000</ele>
                <time>2018-02-26T11:28:41.644Z</time>
            </trkpt>
            <trkpt lon="100.950480" lat="12.883115">
                <ele>48.200000</ele>
                <time>2018-02-26T11:28:42.644Z</time>
            </trkpt>
            <trkpt lon="100.950509" lat="12.883121">
                <ele>48.500000</ele>
                <time>2018-02-26T11:28:43.644Z</time>
            </trkpt>
            <trkpt lon="100.950543" lat="12.883129">
                <ele>48.800000</ele>
                <time>2018-02-26T11:28:44.644Z</time>
            </trkpt>
            <trkpt lon="100.950573" lat="12.883133">
                <ele>49.000000</ele>
                <time>2018-02-26T11:28:45.644Z</time>
            </trkpt>
            <trkpt lon="100.950605" lat="12.883139">
                <ele>49.300000</ele>
                <time>2018-02-26T11:28:46.644Z</time>
            </trkpt>
            <trkpt lon="100.950633" lat="12.883144">
                <ele>49.500000</ele>
                <time>2018-02-26T11:28:47.644Z</time>
            </trkpt>
            <trkpt lon="100.950661" lat="12.883146">
                <ele>49.800000</ele>
                <time>2018-02-26T11:28:48.644Z</time>
            </trkpt>
            <trkpt lon="100.950691" lat="12.883140">
                <ele>50.000000</ele>
                <time>2018-02-26T11:28:49.644Z</time>
            </trkpt>
            <trkpt lon="100.950720" lat="12.883136">
                <ele>50.300000</ele>
                <time>2018-02-26T11:28:50.644Z</time>
            </trkpt>
            <trkpt lon="100.950746" lat="12.883127">
                <ele>50.500000</ele>
                <time>2018-02-26T11:28:51.644Z</time>
            </trkpt>
            <trkpt lon="100.950775" lat="12.883120">
                <ele>50.700000</ele>
                <time>2018-02-26T11:28:52.644Z</time>
            </trkpt>
            <trkpt lon="100.950818" lat="12.883098">
                <ele>51.000000</ele>
                <time>2018-02-26T11:28:54.644Z</time>
            </trkpt>
            <trkpt lon="100.950854" lat="12.883078">
                <ele>51.400000</ele>
                <time>2018-02-26T11:28:56.644Z</time>
            </trkpt>
            <trkpt lon="100.950875" lat="12.883060">
                <ele>51.700000</ele>
                <time>2018-02-26T11:28:57.644Z</time>
            </trkpt>
            <trkpt lon="100.950914" lat="12.883029">
                <ele>52.200000</ele>
                <time>2018-02-26T11:28:59.644Z</time>
            </trkpt>
            <trkpt lon="100.950953" lat="12.882995">
                <ele>52.800000</ele>
                <time>2018-02-26T11:29:01.644Z</time>
            </trkpt>
            <trkpt lon="100.950983" lat="12.882956">
                <ele>53.300000</ele>
                <time>2018-02-26T11:29:03.644Z</time>
            </trkpt>
            <trkpt lon="100.951000" lat="12.882919">
                <ele>53.700000</ele>
                <time>2018-02-26T11:29:05.644Z</time>
            </trkpt>
            <trkpt lon="100.951023" lat="12.882881">
                <ele>54.100000</ele>
                <time>2018-02-26T11:29:07.644Z</time>
            </trkpt>
            <trkpt lon="100.951047" lat="12.882844">
                <ele>54.400000</ele>
                <time>2018-02-26T11:29:09.644Z</time>
            </trkpt>
            <trkpt lon="100.951077" lat="12.882836">
                <ele>54.500000</ele>
                <time>2018-02-26T11:29:10.644Z</time>
            </trkpt>
            <trkpt lon="100.951133" lat="12.882836">
                <ele>54.800000</ele>
                <time>2018-02-26T11:29:12.644Z</time>
            </trkpt>
            <trkpt lon="100.951185" lat="12.882842">
                <ele>55.000000</ele>
                <time>2018-02-26T11:29:14.644Z</time>
            </trkpt>
            <trkpt lon="100.951214" lat="12.882849">
                <ele>55.100000</ele>
                <time>2018-02-26T11:29:15.644Z</time>
            </trkpt>
            <trkpt lon="100.951241" lat="12.882857">
                <ele>55.300000</ele>
                <time>2018-02-26T11:29:16.644Z</time>
            </trkpt>
            <trkpt lon="100.951292" lat="12.882861">
                <ele>55.500000</ele>
                <time>2018-02-26T11:29:18.644Z</time>
            </trkpt>
            <trkpt lon="100.951346" lat="12.882867">
                <ele>55.700000</ele>
                <time>2018-02-26T11:29:20.644Z</time>
            </trkpt>
            <trkpt lon="100.951398" lat="12.882874">
                <ele>56.200000</ele>
                <time>2018-02-26T11:29:22.644Z</time>
            </trkpt>
            <trkpt lon="100.951453" lat="12.882889">
                <ele>56.700000</ele>
                <time>2018-02-26T11:29:24.644Z</time>
            </trkpt>
            <trkpt lon="100.951483" lat="12.882896">
                <ele>57.000000</ele>
                <time>2018-02-26T11:29:25.644Z</time>
            </trkpt>
            <trkpt lon="100.951515" lat="12.882903">
                <ele>57.300000</ele>
                <time>2018-02-26T11:29:26.644Z</time>
            </trkpt>
            <trkpt lon="100.951550" lat="12.882912">
                <ele>57.600000</ele>
                <time>2018-02-26T11:29:27.644Z</time>
            </trkpt>
            <trkpt lon="100.951588" lat="12.882923">
                <ele>58.000000</ele>
                <time>2018-02-26T11:29:28.644Z</time>
            </trkpt>
            <trkpt lon="100.951624" lat="12.882934">
                <ele>58.300000</ele>
                <time>2018-02-26T11:29:29.644Z</time>
            </trkpt>
            <trkpt lon="100.951660" lat="12.882943">
                <ele>58.600000</ele>
                <time>2018-02-26T11:29:30.644Z</time>
            </trkpt>
            <trkpt lon="100.951695" lat="12.882952">
                <ele>59.000000</ele>
                <time>2018-02-26T11:29:31.644Z</time>
            </trkpt>
            <trkpt lon="100.951732" lat="12.882961">
                <ele>59.200000</ele>
                <time>2018-02-26T11:29:32.644Z</time>
            </trkpt>
            <trkpt lon="100.951769" lat="12.882972">
                <ele>59.300000</ele>
                <time>2018-02-26T11:29:33.644Z</time>
            </trkpt>
            <trkpt lon="100.951808" lat="12.882985">
                <ele>59.500000</ele>
                <time>2018-02-26T11:29:34.644Z</time>
            </trkpt>
            <trkpt lon="100.951841" lat="12.882995">
                <ele>59.600000</ele>
                <time>2018-02-26T11:29:35.644Z</time>
            </trkpt>
            <trkpt lon="100.951872" lat="12.883001">
                <ele>59.700000</ele>
                <time>2018-02-26T11:29:36.644Z</time>
            </trkpt>
            <trkpt lon="100.951903" lat="12.883008">
                <ele>59.900000</ele>
                <time>2018-02-26T11:29:37.644Z</time>
            </trkpt>
            <trkpt lon="100.951934" lat="12.883015">
                <ele>60.000000</ele>
                <time>2018-02-26T11:29:38.644Z</time>
            </trkpt>
            <trkpt lon="100.951964" lat="12.883023">
                <ele>60.100000</ele>
                <time>2018-02-26T11:29:39.644Z</time>
            </trkpt>
            <trkpt lon="100.951998" lat="12.883031">
                <ele>60.300000</ele>
                <time>2018-02-26T11:29:40.644Z</time>
            </trkpt>
            <trkpt lon="100.952032" lat="12.883044">
                <ele>60.400000</ele>
                <time>2018-02-26T11:29:41.644Z</time>
            </trkpt>
            <trkpt lon="100.952071" lat="12.883055">
                <ele>60.600000</ele>
                <time>2018-02-26T11:29:42.644Z</time>
            </trkpt>
            <trkpt lon="100.952106" lat="12.883058">
                <ele>60.700000</ele>
                <time>2018-02-26T11:29:43.644Z</time>
            </trkpt>
            <trkpt lon="100.952143" lat="12.883062">
                <ele>61.000000</ele>
                <time>2018-02-26T11:29:44.644Z</time>
            </trkpt>
            <trkpt lon="100.952180" lat="12.883072">
                <ele>61.300000</ele>
                <time>2018-02-26T11:29:45.644Z</time>
            </trkpt>
            <trkpt lon="100.952222" lat="12.883078">
                <ele>61.800000</ele>
                <time>2018-02-26T11:29:46.644Z</time>
            </trkpt>
            <trkpt lon="100.952255" lat="12.883088">
                <ele>62.100000</ele>
                <time>2018-02-26T11:29:47.644Z</time>
            </trkpt>
            <trkpt lon="100.952289" lat="12.883094">
                <ele>62.500000</ele>
                <time>2018-02-26T11:29:48.644Z</time>
            </trkpt>
            <trkpt lon="100.952325" lat="12.883100">
                <ele>62.900000</ele>
                <time>2018-02-26T11:29:49.644Z</time>
            </trkpt>
            <trkpt lon="100.952365" lat="12.883106">
                <ele>63.400000</ele>
                <time>2018-02-26T11:29:50.644Z</time>
            </trkpt>
            <trkpt lon="100.952398" lat="12.883114">
                <ele>63.800000</ele>
                <time>2018-02-26T11:29:51.644Z</time>
            </trkpt>
            <trkpt lon="100.952434" lat="12.883126">
                <ele>64.200000</ele>
                <time>2018-02-26T11:29:52.644Z</time>
            </trkpt>
            <trkpt lon="100.952469" lat="12.883134">
                <ele>64.600000</ele>
                <time>2018-02-26T11:29:53.644Z</time>
            </trkpt>
            <trkpt lon="100.952499" lat="12.883140">
                <ele>65.000000</ele>
                <time>2018-02-26T11:29:54.644Z</time>
            </trkpt>
            <trkpt lon="100.952548" lat="12.883145">
                <ele>65.600000</ele>
                <time>2018-02-26T11:29:56.644Z</time>
            </trkpt>
            <trkpt lon="100.952576" lat="12.883142">
                <ele>65.900000</ele>
                <time>2018-02-26T11:30:05.644Z</time>
            </trkpt>
            <trkpt lon="100.952616" lat="12.883151">
                <ele>66.300000</ele>
                <time>2018-02-26T11:30:07.644Z</time>
            </trkpt>
            <trkpt lon="100.952658" lat="12.883152">
                <ele>66.700000</ele>
                <time>2018-02-26T11:30:09.644Z</time>
            </trkpt>
            <trkpt lon="100.952698" lat="12.883146">
                <ele>66.900000</ele>
                <time>2018-02-26T11:30:11.644Z</time>
            </trkpt>
            <trkpt lon="100.952724" lat="12.883157">
                <ele>67.000000</ele>
                <time>2018-02-26T11:30:13.644Z</time>
            </trkpt>
            <trkpt lon="100.952762" lat="12.883163">
                <ele>67.100000</ele>
                <time>2018-02-26T11:30:15.644Z</time>
            </trkpt>
            <trkpt lon="100.952790" lat="12.883165">
                <ele>67.200000</ele>
                <time>2018-02-26T11:30:16.644Z</time>
            </trkpt>
            <trkpt lon="100.952819" lat="12.883169">
                <ele>67.300000</ele>
                <time>2018-02-26T11:30:17.644Z</time>
            </trkpt>
            <trkpt lon="100.952851" lat="12.883170">
                <ele>67.400000</ele>
                <time>2018-02-26T11:30:18.644Z</time>
            </trkpt>
            <trkpt lon="100.952880" lat="12.883168">
                <ele>67.500000</ele>
                <time>2018-02-26T11:30:19.644Z</time>
            </trkpt>
            <trkpt lon="100.952909" lat="12.883166">
                <ele>67.600000</ele>
                <time>2018-02-26T11:30:20.644Z</time>
            </trkpt>
            <trkpt lon="100.952965" lat="12.883161">
                <ele>67.900000</ele>
                <time>2018-02-26T11:30:22.644Z</time>
            </trkpt>
            <trkpt lon="100.952995" lat="12.883160">
                <ele>68.000000</ele>
                <time>2018-02-26T11:30:23.644Z</time>
            </trkpt>
            <trkpt lon="100.953027" lat="12.883161">
                <ele>68.100000</ele>
                <time>2018-02-26T11:30:24.644Z</time>
            </trkpt>
            <trkpt lon="100.953057" lat="12.883163">
                <ele>68.200000</ele>
                <time>2018-02-26T11:30:25.644Z</time>
            </trkpt>
            <trkpt lon="100.953087" lat="12.883164">
                <ele>68.300000</ele>
                <time>2018-02-26T11:30:26.644Z</time>
            </trkpt>
            <trkpt lon="100.953137" lat="12.883150">
                <ele>68.500000</ele>
                <time>2018-02-26T11:30:28.644Z</time>
            </trkpt>
            <trkpt lon="100.953196" lat="12.883143">
                <ele>68.700000</ele>
                <time>2018-02-26T11:30:30.644Z</time>
            </trkpt>
            <trkpt lon="100.953224" lat="12.883139">
                <ele>68.800000</ele>
                <time>2018-02-26T11:30:31.644Z</time>
            </trkpt>
            <trkpt lon="100.953254" lat="12.883137">
                <ele>68.900000</ele>
                <time>2018-02-26T11:30:32.644Z</time>
            </trkpt>
            <trkpt lon="100.953283" lat="12.883136">
                <ele>69.000000</ele>
                <time>2018-02-26T11:30:33.644Z</time>
            </trkpt>
            <trkpt lon="100.953315" lat="12.883132">
                <ele>69.200000</ele>
                <time>2018-02-26T11:30:34.644Z</time>
            </trkpt>
            <trkpt lon="100.953345" lat="12.883133">
                <ele>69.300000</ele>
                <time>2018-02-26T11:30:35.644Z</time>
            </trkpt>
            <trkpt lon="100.953400" lat="12.883132">
                <ele>69.500000</ele>
                <time>2018-02-26T11:30:37.644Z</time>
            </trkpt>
            <trkpt lon="100.953453" lat="12.883127">
                <ele>69.700000</ele>
                <time>2018-02-26T11:30:39.644Z</time>
            </trkpt>
            <trkpt lon="100.953495" lat="12.883125">
                <ele>69.800000</ele>
                <time>2018-02-26T11:30:41.644Z</time>
            </trkpt>
            <trkpt lon="100.953526" lat="12.883127">
                <ele>69.900000</ele>
                <time>2018-02-26T11:30:43.644Z</time>
            </trkpt>
            <trkpt lon="100.953496" lat="12.883104">
                <ele>69.800000</ele>
                <time>2018-02-26T11:31:41.644Z</time>
            </trkpt>
            <trkpt lon="100.953466" lat="12.883113">
                <ele>69.700000</ele>
                <time>2018-02-26T11:31:43.644Z</time>
            </trkpt>
            <trkpt lon="100.953440" lat="12.883123">
                <ele>69.600000</ele>
                <time>2018-02-26T11:31:44.644Z</time>
            </trkpt>
            <trkpt lon="100.953411" lat="12.883129">
                <ele>69.500000</ele>
                <time>2018-02-26T11:31:45.644Z</time>
            </trkpt>
            <trkpt lon="100.953374" lat="12.883136">
                <ele>69.400000</ele>
                <time>2018-02-26T11:31:46.644Z</time>
            </trkpt>
            <trkpt lon="100.953330" lat="12.883138">
                <ele>69.300000</ele>
                <time>2018-02-26T11:31:47.644Z</time>
            </trkpt>
            <trkpt lon="100.953285" lat="12.883145">
                <ele>69.000000</ele>
                <time>2018-02-26T11:31:48.644Z</time>
            </trkpt>
            <trkpt lon="100.953248" lat="12.883150">
                <ele>68.800000</ele>
                <time>2018-02-26T11:31:49.644Z</time>
            </trkpt>
            <trkpt lon="100.953201" lat="12.883151">
                <ele>68.700000</ele>
                <time>2018-02-26T11:31:50.644Z</time>
            </trkpt>
            <trkpt lon="100.953155" lat="12.883155">
                <ele>68.600000</ele>
                <time>2018-02-26T11:31:51.644Z</time>
            </trkpt>
            <trkpt lon="100.953114" lat="12.883159">
                <ele>68.400000</ele>
                <time>2018-02-26T11:31:52.644Z</time>
            </trkpt>
            <trkpt lon="100.953070" lat="12.883160">
                <ele>68.300000</ele>
                <time>2018-02-26T11:31:53.644Z</time>
            </trkpt>
            <trkpt lon="100.953029" lat="12.883159">
                <ele>68.100000</ele>
                <time>2018-02-26T11:31:54.644Z</time>
            </trkpt>
            <trkpt lon="100.952990" lat="12.883158">
                <ele>68.000000</ele>
                <time>2018-02-26T11:31:55.644Z</time>
            </trkpt>
            <trkpt lon="100.952948" lat="12.883155">
                <ele>67.900000</ele>
                <time>2018-02-26T11:31:56.644Z</time>
            </trkpt>
            <trkpt lon="100.952910" lat="12.883153">
                <ele>67.700000</ele>
                <time>2018-02-26T11:31:57.644Z</time>
            </trkpt>
            <trkpt lon="100.952868" lat="12.883151">
                <ele>67.600000</ele>
                <time>2018-02-26T11:31:58.644Z</time>
            </trkpt>
            <trkpt lon="100.952829" lat="12.883140">
                <ele>67.500000</ele>
                <time>2018-02-26T11:31:59.644Z</time>
            </trkpt>
            <trkpt lon="100.952794" lat="12.883134">
                <ele>67.300000</ele>
                <time>2018-02-26T11:32:00.644Z</time>
            </trkpt>
            <trkpt lon="100.952764" lat="12.883129">
                <ele>67.200000</ele>
                <time>2018-02-26T11:32:01.644Z</time>
            </trkpt>
            <trkpt lon="100.952733" lat="12.883128">
                <ele>67.100000</ele>
                <time>2018-02-26T11:32:02.644Z</time>
            </trkpt>
            <trkpt lon="100.952679" lat="12.883123">
                <ele>66.900000</ele>
                <time>2018-02-26T11:32:04.644Z</time>
            </trkpt>
            <trkpt lon="100.952644" lat="12.883128">
                <ele>66.800000</ele>
                <time>2018-02-26T11:32:05.644Z</time>
            </trkpt>
            <trkpt lon="100.952606" lat="12.883146">
                <ele>66.500000</ele>
                <time>2018-02-26T11:32:06.644Z</time>
            </trkpt>
            <trkpt lon="100.952575" lat="12.883168">
                <ele>66.200000</ele>
                <time>2018-02-26T11:32:07.644Z</time>
            </trkpt>
            <trkpt lon="100.952550" lat="12.883199">
                <ele>65.800000</ele>
                <time>2018-02-26T11:32:08.644Z</time>
            </trkpt>
            <trkpt lon="100.952527" lat="12.883227">
                <ele>65.400000</ele>
                <time>2018-02-26T11:32:09.644Z</time>
            </trkpt>
            <trkpt lon="100.952502" lat="12.883257">
                <ele>65.000000</ele>
                <time>2018-02-26T11:32:10.644Z</time>
            </trkpt>
            <trkpt lon="100.952476" lat="12.883288">
                <ele>64.600000</ele>
                <time>2018-02-26T11:32:11.644Z</time>
            </trkpt>
            <trkpt lon="100.952449" lat="12.883322">
                <ele>63.800000</ele>
                <time>2018-02-26T11:32:12.644Z</time>
            </trkpt>
            <trkpt lon="100.952429" lat="12.883355">
                <ele>63.200000</ele>
                <time>2018-02-26T11:32:13.644Z</time>
            </trkpt>
            <trkpt lon="100.952421" lat="12.883397">
                <ele>62.900000</ele>
                <time>2018-02-26T11:32:14.644Z</time>
            </trkpt>
            <trkpt lon="100.952410" lat="12.883435">
                <ele>62.700000</ele>
                <time>2018-02-26T11:32:15.644Z</time>
            </trkpt>
            <trkpt lon="100.952400" lat="12.883480">
                <ele>62.400000</ele>
                <time>2018-02-26T11:32:16.644Z</time>
            </trkpt>
            <trkpt lon="100.952390" lat="12.883526">
                <ele>62.100000</ele>
                <time>2018-02-26T11:32:17.644Z</time>
            </trkpt>
            <trkpt lon="100.952380" lat="12.883571">
                <ele>61.800000</ele>
                <time>2018-02-26T11:32:18.644Z</time>
            </trkpt>
            <trkpt lon="100.952374" lat="12.883619">
                <ele>61.500000</ele>
                <time>2018-02-26T11:32:19.644Z</time>
            </trkpt>
            <trkpt lon="100.952367" lat="12.883670">
                <ele>61.300000</ele>
                <time>2018-02-26T11:32:20.644Z</time>
            </trkpt>
            <trkpt lon="100.952361" lat="12.883726">
                <ele>60.200000</ele>
                <time>2018-02-26T11:32:21.644Z</time>
            </trkpt>
            <trkpt lon="100.952352" lat="12.883784">
                <ele>59.500000</ele>
                <time>2018-02-26T11:32:22.644Z</time>
            </trkpt>
            <trkpt lon="100.952343" lat="12.883843">
                <ele>58.900000</ele>
                <time>2018-02-26T11:32:23.644Z</time>
            </trkpt>
            <trkpt lon="100.952334" lat="12.883905">
                <ele>58.200000</ele>
                <time>2018-02-26T11:32:24.644Z</time>
            </trkpt>
            <trkpt lon="100.952325" lat="12.883964">
                <ele>57.900000</ele>
                <time>2018-02-26T11:32:25.644Z</time>
            </trkpt>
            <trkpt lon="100.952316" lat="12.884022">
                <ele>57.300000</ele>
                <time>2018-02-26T11:32:26.644Z</time>
            </trkpt>
            <trkpt lon="100.952310" lat="12.884077">
                <ele>57.300000</ele>
                <time>2018-02-26T11:32:27.644Z</time>
            </trkpt>
            <trkpt lon="100.952308" lat="12.884140">
                <ele>57.300000</ele>
                <time>2018-02-26T11:32:28.644Z</time>
            </trkpt>
            <trkpt lon="100.952304" lat="12.884196">
                <ele>57.100000</ele>
                <time>2018-02-26T11:32:29.644Z</time>
            </trkpt>
            <trkpt lon="100.952303" lat="12.884254">
                <ele>56.900000</ele>
                <time>2018-02-26T11:32:30.644Z</time>
            </trkpt>
            <trkpt lon="100.952300" lat="12.884298">
                <ele>56.600000</ele>
                <time>2018-02-26T11:32:31.644Z</time>
            </trkpt>
            <trkpt lon="100.952302" lat="12.884340">
                <ele>56.300000</ele>
                <time>2018-02-26T11:32:32.644Z</time>
            </trkpt>
            <trkpt lon="100.952300" lat="12.884379">
                <ele>56.000000</ele>
                <time>2018-02-26T11:32:33.644Z</time>
            </trkpt>
            <trkpt lon="100.952299" lat="12.884410">
                <ele>55.500000</ele>
                <time>2018-02-26T11:32:34.644Z</time>
            </trkpt>
            <trkpt lon="100.952296" lat="12.884447">
                <ele>55.400000</ele>
                <time>2018-02-26T11:32:35.644Z</time>
            </trkpt>
            <trkpt lon="100.952293" lat="12.884482">
                <ele>54.900000</ele>
                <time>2018-02-26T11:32:36.644Z</time>
            </trkpt>
            <trkpt lon="100.952292" lat="12.884519">
                <ele>54.900000</ele>
                <time>2018-02-26T11:32:37.644Z</time>
            </trkpt>
            <trkpt lon="100.952295" lat="12.884552">
                <ele>54.400000</ele>
                <time>2018-02-26T11:32:38.644Z</time>
            </trkpt>
            <trkpt lon="100.952300" lat="12.884583">
                <ele>53.600000</ele>
                <time>2018-02-26T11:32:39.644Z</time>
            </trkpt>
            <trkpt lon="100.952305" lat="12.884632">
                <ele>53.100000</ele>
                <time>2018-02-26T11:32:41.644Z</time>
            </trkpt>
            <trkpt lon="100.952279" lat="12.884658">
                <ele>52.800000</ele>
                <time>2018-02-26T11:32:43.644Z</time>
            </trkpt>
            <trkpt lon="100.952251" lat="12.884670">
                <ele>53.000000</ele>
                <time>2018-02-26T11:33:12.644Z</time>
            </trkpt>
            <trkpt lon="100.952216" lat="12.884663">
                <ele>53.000000</ele>
                <time>2018-02-26T11:33:14.644Z</time>
            </trkpt>
            <trkpt lon="100.952169" lat="12.884651">
                <ele>53.200000</ele>
                <time>2018-02-26T11:33:16.644Z</time>
            </trkpt>
            <trkpt lon="100.952142" lat="12.884645">
                <ele>53.900000</ele>
                <time>2018-02-26T11:33:17.644Z</time>
            </trkpt>
            <trkpt lon="100.952113" lat="12.884640">
                <ele>54.200000</ele>
                <time>2018-02-26T11:33:18.644Z</time>
            </trkpt>
            <trkpt lon="100.952080" lat="12.884636">
                <ele>54.200000</ele>
                <time>2018-02-26T11:33:19.644Z</time>
            </trkpt>
            <trkpt lon="100.952040" lat="12.884632">
                <ele>54.200000</ele>
                <time>2018-02-26T11:33:20.644Z</time>
            </trkpt>
            <trkpt lon="100.952008" lat="12.884628">
                <ele>54.100000</ele>
                <time>2018-02-26T11:33:21.644Z</time>
            </trkpt>
            <trkpt lon="100.951967" lat="12.884621">
                <ele>54.100000</ele>
                <time>2018-02-26T11:33:22.644Z</time>
            </trkpt>
            <trkpt lon="100.951934" lat="12.884617">
                <ele>54.100000</ele>
                <time>2018-02-26T11:33:23.644Z</time>
            </trkpt>
            <trkpt lon="100.951889" lat="12.884612">
                <ele>53.900000</ele>
                <time>2018-02-26T11:33:24.644Z</time>
            </trkpt>
            <trkpt lon="100.951848" lat="12.884607">
                <ele>53.600000</ele>
                <time>2018-02-26T11:33:25.644Z</time>
            </trkpt>
            <trkpt lon="100.951803" lat="12.884601">
                <ele>53.800000</ele>
                <time>2018-02-26T11:33:26.644Z</time>
            </trkpt>
            <trkpt lon="100.951767" lat="12.884595">
                <ele>53.500000</ele>
                <time>2018-02-26T11:33:27.644Z</time>
            </trkpt>
            <trkpt lon="100.951722" lat="12.884586">
                <ele>53.200000</ele>
                <time>2018-02-26T11:33:28.644Z</time>
            </trkpt>
            <trkpt lon="100.951685" lat="12.884580">
                <ele>52.800000</ele>
                <time>2018-02-26T11:33:29.644Z</time>
            </trkpt>
            <trkpt lon="100.951644" lat="12.884571">
                <ele>52.500000</ele>
                <time>2018-02-26T11:33:30.644Z</time>
            </trkpt>
            <trkpt lon="100.951616" lat="12.884567">
                <ele>52.500000</ele>
                <time>2018-02-26T11:33:31.644Z</time>
            </trkpt>
            <trkpt lon="100.951587" lat="12.884561">
                <ele>52.100000</ele>
                <time>2018-02-26T11:33:33.644Z</time>
            </trkpt>
            <trkpt lon="100.951561" lat="12.884551">
                <ele>51.800000</ele>
                <time>2018-02-26T11:33:44.644Z</time>
            </trkpt>
            <trkpt lon="100.951543" lat="12.884582">
                <ele>51.800000</ele>
                <time>2018-02-26T11:33:51.644Z</time>
            </trkpt>
            <trkpt lon="100.951532" lat="12.884612">
                <ele>51.800000</ele>
                <time>2018-02-26T11:33:53.644Z</time>
            </trkpt>
            <trkpt lon="100.951524" lat="12.884638">
                <ele>51.800000</ele>
                <time>2018-02-26T11:33:55.644Z</time>
            </trkpt>
            <trkpt lon="100.951520" lat="12.884667">
                <ele>51.800000</ele>
                <time>2018-02-26T11:33:58.644Z</time>
            </trkpt>
            <trkpt lon="100.951496" lat="12.884683">
                <ele>51.700000</ele>
                <time>2018-02-26T11:34:29.644Z</time>
            </trkpt>
            <trkpt lon="100.951491" lat="12.884734">
                <ele>51.800000</ele>
                <time>2018-02-26T11:34:58.644Z</time>
            </trkpt>
            <trkpt lon="100.951497" lat="12.884764">
                <ele>51.800000</ele>
                <time>2018-02-26T11:34:59.644Z</time>
            </trkpt>
            <trkpt lon="100.951506" lat="12.884816">
                <ele>51.700000</ele>
                <time>2018-02-26T11:35:01.644Z</time>
            </trkpt>
            <trkpt lon="100.951502" lat="12.884846">
                <ele>51.700000</ele>
                <time>2018-02-26T11:35:02.644Z</time>
            </trkpt>
            <trkpt lon="100.951501" lat="12.884876">
                <ele>51.600000</ele>
                <time>2018-02-26T11:35:03.644Z</time>
            </trkpt>
            <trkpt lon="100.951502" lat="12.884908">
                <ele>51.200000</ele>
                <time>2018-02-26T11:35:04.644Z</time>
            </trkpt>
            <trkpt lon="100.951506" lat="12.884939">
                <ele>51.200000</ele>
                <time>2018-02-26T11:35:05.644Z</time>
            </trkpt>
            <trkpt lon="100.951509" lat="12.884966">
                <ele>50.800000</ele>
                <time>2018-02-26T11:35:06.644Z</time>
            </trkpt>
            <trkpt lon="100.951512" lat="12.884998">
                <ele>50.400000</ele>
                <time>2018-02-26T11:35:07.644Z</time>
            </trkpt>
            <trkpt lon="100.951513" lat="12.885043">
                <ele>50.000000</ele>
                <time>2018-02-26T11:35:09.644Z</time>
            </trkpt>
            <trkpt lon="100.951512" lat="12.885086">
                <ele>49.600000</ele>
                <time>2018-02-26T11:35:11.644Z</time>
            </trkpt>
            <trkpt lon="100.951508" lat="12.885126">
                <ele>49.200000</ele>
                <time>2018-02-26T11:35:13.644Z</time>
            </trkpt>
            <trkpt lon="100.951490" lat="12.885179">
                <ele>48.900000</ele>
                <time>2018-02-26T11:35:15.644Z</time>
            </trkpt>
            <trkpt lon="100.951476" lat="12.885210">
                <ele>47.900000</ele>
                <time>2018-02-26T11:35:16.644Z</time>
            </trkpt>
            <trkpt lon="100.951456" lat="12.885254">
                <ele>47.400000</ele>
                <time>2018-02-26T11:35:18.644Z</time>
            </trkpt>
            <trkpt lon="100.951440" lat="12.885299">
                <ele>46.900000</ele>
                <time>2018-02-26T11:35:20.644Z</time>
            </trkpt>
            <trkpt lon="100.951432" lat="12.885327">
                <ele>45.900000</ele>
                <time>2018-02-26T11:35:21.644Z</time>
            </trkpt>
            <trkpt lon="100.951422" lat="12.885378">
                <ele>45.500000</ele>
                <time>2018-02-26T11:35:23.644Z</time>
            </trkpt>
            <trkpt lon="100.951415" lat="12.885408">
                <ele>45.400000</ele>
                <time>2018-02-26T11:35:24.644Z</time>
            </trkpt>
            <trkpt lon="100.951389" lat="12.885461">
                <ele>45.300000</ele>
                <time>2018-02-26T11:35:26.644Z</time>
            </trkpt>
            <trkpt lon="100.951372" lat="12.885486">
                <ele>45.200000</ele>
                <time>2018-02-26T11:35:27.644Z</time>
            </trkpt>
            <trkpt lon="100.951355" lat="12.885513">
                <ele>45.200000</ele>
                <time>2018-02-26T11:35:28.644Z</time>
            </trkpt>
            <trkpt lon="100.951338" lat="12.885541">
                <ele>45.200000</ele>
                <time>2018-02-26T11:35:29.644Z</time>
            </trkpt>
            <trkpt lon="100.951324" lat="12.885577">
                <ele>45.200000</ele>
                <time>2018-02-26T11:35:31.644Z</time>
            </trkpt>
            <trkpt lon="100.951318" lat="12.885612">
                <ele>45.100000</ele>
                <time>2018-02-26T11:35:33.644Z</time>
            </trkpt>
            <trkpt lon="100.951320" lat="12.885639">
                <ele>45.100000</ele>
                <time>2018-02-26T11:35:43.644Z</time>
            </trkpt>
            <trkpt lon="100.951328" lat="12.885672">
                <ele>45.100000</ele>
                <time>2018-02-26T11:35:48.644Z</time>
            </trkpt>
            <trkpt lon="100.951337" lat="12.885714">
                <ele>45.100000</ele>
                <time>2018-02-26T11:35:50.644Z</time>
            </trkpt>
            <trkpt lon="100.951345" lat="12.885753">
                <ele>45.200000</ele>
                <time>2018-02-26T11:35:52.644Z</time>
            </trkpt>
            <trkpt lon="100.951354" lat="12.885798">
                <ele>45.400000</ele>
                <time>2018-02-26T11:35:54.644Z</time>
            </trkpt>
            <trkpt lon="100.951363" lat="12.885846">
                <ele>45.600000</ele>
                <time>2018-02-26T11:35:56.644Z</time>
            </trkpt>
            <trkpt lon="100.951375" lat="12.885889">
                <ele>45.800000</ele>
                <time>2018-02-26T11:35:58.644Z</time>
            </trkpt>
            <trkpt lon="100.951390" lat="12.885938">
                <ele>45.700000</ele>
                <time>2018-02-26T11:36:00.644Z</time>
            </trkpt>
            <trkpt lon="100.951380" lat="12.885972">
                <ele>45.700000</ele>
                <time>2018-02-26T11:36:02.644Z</time>
            </trkpt>
            <trkpt lon="100.951363" lat="12.886007">
                <ele>45.700000</ele>
                <time>2018-02-26T11:36:04.644Z</time>
            </trkpt>
            <trkpt lon="100.951346" lat="12.886046">
                <ele>45.300000</ele>
                <time>2018-02-26T11:36:06.644Z</time>
            </trkpt>
            <trkpt lon="100.951339" lat="12.886077">
                <ele>44.900000</ele>
                <time>2018-02-26T11:36:08.644Z</time>
            </trkpt>
            <trkpt lon="100.951349" lat="12.886103">
                <ele>44.800000</ele>
                <time>2018-02-26T11:36:10.644Z</time>
            </trkpt>
            <trkpt lon="100.951354" lat="12.886145">
                <ele>44.500000</ele>
                <time>2018-02-26T11:36:12.644Z</time>
            </trkpt>
            <trkpt lon="100.951348" lat="12.886188">
                <ele>44.000000</ele>
                <time>2018-02-26T11:36:14.644Z</time>
            </trkpt>
            <trkpt lon="100.951349" lat="12.886220">
                <ele>43.600000</ele>
                <time>2018-02-26T11:36:16.644Z</time>
            </trkpt>
            <trkpt lon="100.951339" lat="12.886254">
                <ele>43.000000</ele>
                <time>2018-02-26T11:36:18.644Z</time>
            </trkpt>
            <trkpt lon="100.951324" lat="12.886295">
                <ele>42.500000</ele>
                <time>2018-02-26T11:36:20.644Z</time>
            </trkpt>
            <trkpt lon="100.951311" lat="12.886335">
                <ele>42.000000</ele>
                <time>2018-02-26T11:36:22.644Z</time>
            </trkpt>
            <trkpt lon="100.951299" lat="12.886367">
                <ele>41.500000</ele>
                <time>2018-02-26T11:36:24.644Z</time>
            </trkpt>
            <trkpt lon="100.951279" lat="12.886397">
                <ele>41.400000</ele>
                <time>2018-02-26T11:36:26.644Z</time>
            </trkpt>
            <trkpt lon="100.951255" lat="12.886422">
                <ele>40.900000</ele>
                <time>2018-02-26T11:36:28.644Z</time>
            </trkpt>
            <trkpt lon="100.951237" lat="12.886447">
                <ele>40.400000</ele>
                <time>2018-02-26T11:36:30.644Z</time>
            </trkpt>
            <trkpt lon="100.951219" lat="12.886478">
                <ele>40.300000</ele>
                <time>2018-02-26T11:36:33.644Z</time>
            </trkpt>
            <trkpt lon="100.951204" lat="12.886503">
                <ele>39.800000</ele>
                <time>2018-02-26T11:36:46.644Z</time>
            </trkpt>
            <trkpt lon="100.951186" lat="12.886535">
                <ele>39.300000</ele>
                <time>2018-02-26T11:36:49.644Z</time>
            </trkpt>
            <trkpt lon="100.951177" lat="12.886562">
                <ele>39.300000</ele>
                <time>2018-02-26T11:36:52.644Z</time>
            </trkpt>
            <trkpt lon="100.951183" lat="12.886596">
                <ele>39.000000</ele>
                <time>2018-02-26T11:36:54.644Z</time>
            </trkpt>
            <trkpt lon="100.951182" lat="12.886626">
                <ele>38.800000</ele>
                <time>2018-02-26T11:36:56.644Z</time>
            </trkpt>
            <trkpt lon="100.951170" lat="12.886661">
                <ele>38.500000</ele>
                <time>2018-02-26T11:36:58.644Z</time>
            </trkpt>
            <trkpt lon="100.951153" lat="12.886692">
                <ele>38.500000</ele>
                <time>2018-02-26T11:37:00.644Z</time>
            </trkpt>
            <trkpt lon="100.951134" lat="12.886711">
                <ele>38.200000</ele>
                <time>2018-02-26T11:37:03.644Z</time>
            </trkpt>
            <trkpt lon="100.951115" lat="12.886732">
                <ele>38.200000</ele>
                <time>2018-02-26T11:37:25.644Z</time>
            </trkpt>
            <trkpt lon="100.951112" lat="12.886764">
                <ele>38.100000</ele>
                <time>2018-02-26T11:37:32.644Z</time>
            </trkpt>
            <trkpt lon="100.951137" lat="12.886797">
                <ele>37.900000</ele>
                <time>2018-02-26T11:37:35.644Z</time>
            </trkpt>
            <trkpt lon="100.951152" lat="12.886830">
                <ele>37.600000</ele>
                <time>2018-02-26T11:37:37.644Z</time>
            </trkpt>
            <trkpt lon="100.951169" lat="12.886865">
                <ele>37.500000</ele>
                <time>2018-02-26T11:37:39.644Z</time>
            </trkpt>
            <trkpt lon="100.951182" lat="12.886900">
                <ele>37.200000</ele>
                <time>2018-02-26T11:37:41.644Z</time>
            </trkpt>
            <trkpt lon="100.951193" lat="12.886944">
                <ele>37.200000</ele>
                <time>2018-02-26T11:37:43.644Z</time>
            </trkpt>
            <trkpt lon="100.951200" lat="12.886971">
                <ele>37.200000</ele>
                <time>2018-02-26T11:37:44.644Z</time>
            </trkpt>
            <trkpt lon="100.951209" lat="12.887009">
                <ele>37.100000</ele>
                <time>2018-02-26T11:37:45.644Z</time>
            </trkpt>
            <trkpt lon="100.951219" lat="12.887042">
                <ele>37.300000</ele>
                <time>2018-02-26T11:37:46.644Z</time>
            </trkpt>
            <trkpt lon="100.951238" lat="12.887094">
                <ele>37.400000</ele>
                <time>2018-02-26T11:37:48.644Z</time>
            </trkpt>
            <trkpt lon="100.951246" lat="12.887121">
                <ele>37.600000</ele>
                <time>2018-02-26T11:37:49.644Z</time>
            </trkpt>
            <trkpt lon="100.951238" lat="12.887155">
                <ele>37.600000</ele>
                <time>2018-02-26T11:37:51.644Z</time>
            </trkpt>
            <trkpt lon="100.951202" lat="12.887171">
                <ele>37.800000</ele>
                <time>2018-02-26T11:37:53.644Z</time>
            </trkpt>
            <trkpt lon="100.951165" lat="12.887192">
                <ele>37.800000</ele>
                <time>2018-02-26T11:37:55.644Z</time>
            </trkpt>
            <trkpt lon="100.951132" lat="12.887225">
                <ele>37.900000</ele>
                <time>2018-02-26T11:37:57.644Z</time>
            </trkpt>
            <trkpt lon="100.951114" lat="12.887262">
                <ele>38.000000</ele>
                <time>2018-02-26T11:37:59.644Z</time>
            </trkpt>
            <trkpt lon="100.951105" lat="12.887313">
                <ele>38.200000</ele>
                <time>2018-02-26T11:38:01.644Z</time>
            </trkpt>
            <trkpt lon="100.951123" lat="12.887371">
                <ele>38.400000</ele>
                <time>2018-02-26T11:38:03.644Z</time>
            </trkpt>
            <trkpt lon="100.951138" lat="12.887413">
                <ele>38.300000</ele>
                <time>2018-02-26T11:38:04.644Z</time>
            </trkpt>
            <trkpt lon="100.951154" lat="12.887456">
                <ele>38.500000</ele>
                <time>2018-02-26T11:38:05.644Z</time>
            </trkpt>
            <trkpt lon="100.951169" lat="12.887490">
                <ele>38.400000</ele>
                <time>2018-02-26T11:38:06.644Z</time>
            </trkpt>
            <trkpt lon="100.951181" lat="12.887517">
                <ele>38.500000</ele>
                <time>2018-02-26T11:38:07.644Z</time>
            </trkpt>
            <trkpt lon="100.951181" lat="12.887561">
                <ele>38.600000</ele>
                <time>2018-02-26T11:38:09.644Z</time>
            </trkpt>
            <trkpt lon="100.951188" lat="12.887604">
                <ele>38.600000</ele>
                <time>2018-02-26T11:38:11.644Z</time>
            </trkpt>
            <trkpt lon="100.951214" lat="12.887648">
                <ele>38.600000</ele>
                <time>2018-02-26T11:38:13.644Z</time>
            </trkpt>
            <trkpt lon="100.951243" lat="12.887693">
                <ele>38.500000</ele>
                <time>2018-02-26T11:38:15.644Z</time>
            </trkpt>
            <trkpt lon="100.951259" lat="12.887717">
                <ele>38.400000</ele>
                <time>2018-02-26T11:38:16.644Z</time>
            </trkpt>
            <trkpt lon="100.951273" lat="12.887745">
                <ele>38.400000</ele>
                <time>2018-02-26T11:38:17.644Z</time>
            </trkpt>
            <trkpt lon="100.951286" lat="12.887780">
                <ele>38.400000</ele>
                <time>2018-02-26T11:38:18.644Z</time>
            </trkpt>
            <trkpt lon="100.951291" lat="12.887827">
                <ele>38.400000</ele>
                <time>2018-02-26T11:38:20.644Z</time>
            </trkpt>
            <trkpt lon="100.951285" lat="12.887856">
                <ele>38.300000</ele>
                <time>2018-02-26T11:38:22.644Z</time>
            </trkpt>
            <trkpt lon="100.951262" lat="12.887894">
                <ele>38.500000</ele>
                <time>2018-02-26T11:38:24.644Z</time>
            </trkpt>
            <trkpt lon="100.951236" lat="12.887941">
                <ele>38.700000</ele>
                <time>2018-02-26T11:38:26.644Z</time>
            </trkpt>
            <trkpt lon="100.951222" lat="12.887977">
                <ele>39.000000</ele>
                <time>2018-02-26T11:38:28.644Z</time>
            </trkpt>
            <trkpt lon="100.951201" lat="12.888015">
                <ele>39.200000</ele>
                <time>2018-02-26T11:38:30.644Z</time>
            </trkpt>
            <trkpt lon="100.951180" lat="12.888036">
                <ele>39.200000</ele>
                <time>2018-02-26T11:38:31.644Z</time>
            </trkpt>
            <trkpt lon="100.951141" lat="12.888062">
                <ele>39.200000</ele>
                <time>2018-02-26T11:38:33.644Z</time>
            </trkpt>
            <trkpt lon="100.951105" lat="12.888073">
                <ele>39.100000</ele>
                <time>2018-02-26T11:38:35.644Z</time>
            </trkpt>
            <trkpt lon="100.951069" lat="12.888082">
                <ele>39.100000</ele>
                <time>2018-02-26T11:38:37.644Z</time>
            </trkpt>
            <trkpt lon="100.951021" lat="12.888093">
                <ele>39.200000</ele>
                <time>2018-02-26T11:38:39.644Z</time>
            </trkpt>
            <trkpt lon="100.950975" lat="12.888102">
                <ele>39.500000</ele>
                <time>2018-02-26T11:38:41.644Z</time>
            </trkpt>
            <trkpt lon="100.950925" lat="12.888115">
                <ele>39.700000</ele>
                <time>2018-02-26T11:38:43.644Z</time>
            </trkpt>
            <trkpt lon="100.950877" lat="12.888121">
                <ele>39.900000</ele>
                <time>2018-02-26T11:38:45.644Z</time>
            </trkpt>
            <trkpt lon="100.950849" lat="12.888118">
                <ele>39.900000</ele>
                <time>2018-02-26T11:38:46.644Z</time>
            </trkpt>
            <trkpt lon="100.950804" lat="12.888111">
                <ele>39.800000</ele>
                <time>2018-02-26T11:38:48.644Z</time>
            </trkpt>
            <trkpt lon="100.950751" lat="12.888113">
                <ele>39.500000</ele>
                <time>2018-02-26T11:38:50.644Z</time>
            </trkpt>
            <trkpt lon="100.950707" lat="12.888128">
                <ele>39.000000</ele>
                <time>2018-02-26T11:38:52.644Z</time>
            </trkpt>
            <trkpt lon="100.950686" lat="12.888170">
                <ele>38.800000</ele>
                <time>2018-02-26T11:38:54.644Z</time>
            </trkpt>
            <trkpt lon="100.950670" lat="12.888196">
                <ele>38.700000</ele>
                <time>2018-02-26T11:38:55.644Z</time>
            </trkpt>
            <trkpt lon="100.950665" lat="12.888232">
                <ele>38.500000</ele>
                <time>2018-02-26T11:38:56.644Z</time>
            </trkpt>
            <trkpt lon="100.950666" lat="12.888263">
                <ele>39.000000</ele>
                <time>2018-02-26T11:38:57.644Z</time>
            </trkpt>
            <trkpt lon="100.950668" lat="12.888290">
                <ele>39.100000</ele>
                <time>2018-02-26T11:38:58.644Z</time>
            </trkpt>
            <trkpt lon="100.950672" lat="12.888317">
                <ele>39.100000</ele>
                <time>2018-02-26T11:38:59.644Z</time>
            </trkpt>
            <trkpt lon="100.950677" lat="12.888346">
                <ele>39.300000</ele>
                <time>2018-02-26T11:39:00.644Z</time>
            </trkpt>
            <trkpt lon="100.950681" lat="12.888374">
                <ele>39.600000</ele>
                <time>2018-02-26T11:39:01.644Z</time>
            </trkpt>
            <trkpt lon="100.950686" lat="12.888402">
                <ele>39.500000</ele>
                <time>2018-02-26T11:39:02.644Z</time>
            </trkpt>
            <trkpt lon="100.950692" lat="12.888455">
                <ele>40.200000</ele>
                <time>2018-02-26T11:39:04.644Z</time>
            </trkpt>
            <trkpt lon="100.950696" lat="12.888484">
                <ele>40.100000</ele>
                <time>2018-02-26T11:39:05.644Z</time>
            </trkpt>
            <trkpt lon="100.950701" lat="12.888515">
                <ele>40.500000</ele>
                <time>2018-02-26T11:39:06.644Z</time>
            </trkpt>
            <trkpt lon="100.950707" lat="12.888544">
                <ele>40.900000</ele>
                <time>2018-02-26T11:39:07.644Z</time>
            </trkpt>
            <trkpt lon="100.950713" lat="12.888572">
                <ele>40.900000</ele>
                <time>2018-02-26T11:39:08.644Z</time>
            </trkpt>
            <trkpt lon="100.950725" lat="12.888617">
                <ele>41.400000</ele>
                <time>2018-02-26T11:39:10.644Z</time>
            </trkpt>
            <trkpt lon="100.950732" lat="12.888645">
                <ele>41.800000</ele>
                <time>2018-02-26T11:39:11.644Z</time>
            </trkpt>
            <trkpt lon="100.950741" lat="12.888671">
                <ele>42.300000</ele>
                <time>2018-02-26T11:39:12.644Z</time>
            </trkpt>
            <trkpt lon="100.950749" lat="12.888700">
                <ele>42.300000</ele>
                <time>2018-02-26T11:39:13.644Z</time>
            </trkpt>
            <trkpt lon="100.950758" lat="12.888730">
                <ele>43.000000</ele>
                <time>2018-02-26T11:39:14.644Z</time>
            </trkpt>
            <trkpt lon="100.950776" lat="12.888764">
                <ele>43.500000</ele>
                <time>2018-02-26T11:39:15.644Z</time>
            </trkpt>
            <trkpt lon="100.950790" lat="12.888801">
                <ele>44.000000</ele>
                <time>2018-02-26T11:39:16.644Z</time>
            </trkpt>
            <trkpt lon="100.950795" lat="12.888835">
                <ele>44.700000</ele>
                <time>2018-02-26T11:39:17.644Z</time>
            </trkpt>
            <trkpt lon="100.950801" lat="12.888866">
                <ele>44.700000</ele>
                <time>2018-02-26T11:39:18.644Z</time>
            </trkpt>
            <trkpt lon="100.950805" lat="12.888897">
                <ele>45.000000</ele>
                <time>2018-02-26T11:39:19.644Z</time>
            </trkpt>
            <trkpt lon="100.950809" lat="12.888928">
                <ele>45.200000</ele>
                <time>2018-02-26T11:39:20.644Z</time>
            </trkpt>
            <trkpt lon="100.950813" lat="12.888960">
                <ele>45.400000</ele>
                <time>2018-02-26T11:39:21.644Z</time>
            </trkpt>
            <trkpt lon="100.950818" lat="12.888991">
                <ele>45.400000</ele>
                <time>2018-02-26T11:39:22.644Z</time>
            </trkpt>
            <trkpt lon="100.950823" lat="12.889022">
                <ele>45.600000</ele>
                <time>2018-02-26T11:39:23.644Z</time>
            </trkpt>
            <trkpt lon="100.950830" lat="12.889052">
                <ele>45.500000</ele>
                <time>2018-02-26T11:39:24.644Z</time>
            </trkpt>
            <trkpt lon="100.950839" lat="12.889081">
                <ele>45.500000</ele>
                <time>2018-02-26T11:39:25.644Z</time>
            </trkpt>
            <trkpt lon="100.950842" lat="12.889112">
                <ele>45.400000</ele>
                <time>2018-02-26T11:39:26.644Z</time>
            </trkpt>
            <trkpt lon="100.950844" lat="12.889145">
                <ele>45.200000</ele>
                <time>2018-02-26T11:39:27.644Z</time>
            </trkpt>
            <trkpt lon="100.950849" lat="12.889177">
                <ele>44.900000</ele>
                <time>2018-02-26T11:39:28.644Z</time>
            </trkpt>
            <trkpt lon="100.950854" lat="12.889208">
                <ele>44.600000</ele>
                <time>2018-02-26T11:39:29.644Z</time>
            </trkpt>
            <trkpt lon="100.950857" lat="12.889237">
                <ele>44.600000</ele>
                <time>2018-02-26T11:39:30.644Z</time>
            </trkpt>
            <trkpt lon="100.950859" lat="12.889265">
                <ele>44.400000</ele>
                <time>2018-02-26T11:39:31.644Z</time>
            </trkpt>
            <trkpt lon="100.950861" lat="12.889294">
                <ele>44.100000</ele>
                <time>2018-02-26T11:39:32.644Z</time>
            </trkpt>
            <trkpt lon="100.950864" lat="12.889343">
                <ele>43.900000</ele>
                <time>2018-02-26T11:39:34.644Z</time>
            </trkpt>
            <trkpt lon="100.950868" lat="12.889377">
                <ele>43.800000</ele>
                <time>2018-02-26T11:39:35.644Z</time>
            </trkpt>
            <trkpt lon="100.950872" lat="12.889408">
                <ele>43.800000</ele>
                <time>2018-02-26T11:39:36.644Z</time>
            </trkpt>
            <trkpt lon="100.950877" lat="12.889438">
                <ele>43.700000</ele>
                <time>2018-02-26T11:39:37.644Z</time>
            </trkpt>
            <trkpt lon="100.950881" lat="12.889466">
                <ele>43.700000</ele>
                <time>2018-02-26T11:39:38.644Z</time>
            </trkpt>
            <trkpt lon="100.950887" lat="12.889498">
                <ele>43.700000</ele>
                <time>2018-02-26T11:39:39.644Z</time>
            </trkpt>
            <trkpt lon="100.950892" lat="12.889527">
                <ele>43.700000</ele>
                <time>2018-02-26T11:39:40.644Z</time>
            </trkpt>
            <trkpt lon="100.950895" lat="12.889560">
                <ele>43.600000</ele>
                <time>2018-02-26T11:39:41.644Z</time>
            </trkpt>
            <trkpt lon="100.950900" lat="12.889605">
                <ele>43.600000</ele>
                <time>2018-02-26T11:39:43.644Z</time>
            </trkpt>
            <trkpt lon="100.950904" lat="12.889639">
                <ele>43.600000</ele>
                <time>2018-02-26T11:39:44.644Z</time>
            </trkpt>
            <trkpt lon="100.950908" lat="12.889679">
                <ele>43.500000</ele>
                <time>2018-02-26T11:39:45.644Z</time>
            </trkpt>
            <trkpt lon="100.950919" lat="12.889719">
                <ele>43.500000</ele>
                <time>2018-02-26T11:39:46.644Z</time>
            </trkpt>
            <trkpt lon="100.950931" lat="12.889754">
                <ele>43.500000</ele>
                <time>2018-02-26T11:39:47.644Z</time>
            </trkpt>
            <trkpt lon="100.950941" lat="12.889789">
                <ele>43.500000</ele>
                <time>2018-02-26T11:39:48.644Z</time>
            </trkpt>
            <trkpt lon="100.950950" lat="12.889823">
                <ele>43.400000</ele>
                <time>2018-02-26T11:39:49.644Z</time>
            </trkpt>
            <trkpt lon="100.950959" lat="12.889856">
                <ele>43.400000</ele>
                <time>2018-02-26T11:39:50.644Z</time>
            </trkpt>
            <trkpt lon="100.950968" lat="12.889886">
                <ele>43.400000</ele>
                <time>2018-02-26T11:39:51.644Z</time>
            </trkpt>
            <trkpt lon="100.950976" lat="12.889919">
                <ele>43.300000</ele>
                <time>2018-02-26T11:39:52.644Z</time>
            </trkpt>
            <trkpt lon="100.950986" lat="12.889948">
                <ele>43.300000</ele>
                <time>2018-02-26T11:39:53.644Z</time>
            </trkpt>
            <trkpt lon="100.950996" lat="12.889975">
                <ele>43.300000</ele>
                <time>2018-02-26T11:39:54.644Z</time>
            </trkpt>
            <trkpt lon="100.951017" lat="12.890027">
                <ele>43.300000</ele>
                <time>2018-02-26T11:39:56.644Z</time>
            </trkpt>
            <trkpt lon="100.951029" lat="12.890054">
                <ele>43.400000</ele>
                <time>2018-02-26T11:39:57.644Z</time>
            </trkpt>
            <trkpt lon="100.951040" lat="12.890086">
                <ele>43.600000</ele>
                <time>2018-02-26T11:39:58.644Z</time>
            </trkpt>
            <trkpt lon="100.951051" lat="12.890114">
                <ele>43.600000</ele>
                <time>2018-02-26T11:39:59.644Z</time>
            </trkpt>
            <trkpt lon="100.951066" lat="12.890146">
                <ele>43.800000</ele>
                <time>2018-02-26T11:40:00.644Z</time>
            </trkpt>
            <trkpt lon="100.951079" lat="12.890176">
                <ele>44.000000</ele>
                <time>2018-02-26T11:40:01.644Z</time>
            </trkpt>
            <trkpt lon="100.951092" lat="12.890202">
                <ele>44.000000</ele>
                <time>2018-02-26T11:40:02.644Z</time>
            </trkpt>
            <trkpt lon="100.951105" lat="12.890227">
                <ele>44.100000</ele>
                <time>2018-02-26T11:40:03.644Z</time>
            </trkpt>
            <trkpt lon="100.951132" lat="12.890268">
                <ele>44.200000</ele>
                <time>2018-02-26T11:40:05.644Z</time>
            </trkpt>
            <trkpt lon="100.951162" lat="12.890317">
                <ele>44.400000</ele>
                <time>2018-02-26T11:40:07.644Z</time>
            </trkpt>
            <trkpt lon="100.951178" lat="12.890341">
                <ele>44.500000</ele>
                <time>2018-02-26T11:40:08.644Z</time>
            </trkpt>
            <trkpt lon="100.951209" lat="12.890385">
                <ele>44.800000</ele>
                <time>2018-02-26T11:40:10.644Z</time>
            </trkpt>
            <trkpt lon="100.951227" lat="12.890410">
                <ele>45.000000</ele>
                <time>2018-02-26T11:40:11.644Z</time>
            </trkpt>
            <trkpt lon="100.951246" lat="12.890435">
                <ele>45.000000</ele>
                <time>2018-02-26T11:40:12.644Z</time>
            </trkpt>
            <trkpt lon="100.951264" lat="12.890461">
                <ele>44.900000</ele>
                <time>2018-02-26T11:40:13.644Z</time>
            </trkpt>
            <trkpt lon="100.951282" lat="12.890488">
                <ele>45.200000</ele>
                <time>2018-02-26T11:40:14.644Z</time>
            </trkpt>
            <trkpt lon="100.951296" lat="12.890519">
                <ele>45.100000</ele>
                <time>2018-02-26T11:40:15.644Z</time>
            </trkpt>
            <trkpt lon="100.951305" lat="12.890551">
                <ele>45.200000</ele>
                <time>2018-02-26T11:40:16.644Z</time>
            </trkpt>
            <trkpt lon="100.951306" lat="12.890582">
                <ele>45.200000</ele>
                <time>2018-02-26T11:40:17.644Z</time>
            </trkpt>
            <trkpt lon="100.951297" lat="12.890619">
                <ele>45.300000</ele>
                <time>2018-02-26T11:40:18.644Z</time>
            </trkpt>
            <trkpt lon="100.951282" lat="12.890653">
                <ele>45.500000</ele>
                <time>2018-02-26T11:40:19.644Z</time>
            </trkpt>
            <trkpt lon="100.951264" lat="12.890687">
                <ele>45.600000</ele>
                <time>2018-02-26T11:40:20.644Z</time>
            </trkpt>
            <trkpt lon="100.951243" lat="12.890717">
                <ele>45.600000</ele>
                <time>2018-02-26T11:40:21.644Z</time>
            </trkpt>
            <trkpt lon="100.951225" lat="12.890743">
                <ele>45.600000</ele>
                <time>2018-02-26T11:40:22.644Z</time>
            </trkpt>
            <trkpt lon="100.951205" lat="12.890771">
                <ele>45.600000</ele>
                <time>2018-02-26T11:40:23.644Z</time>
            </trkpt>
            <trkpt lon="100.951184" lat="12.890800">
                <ele>45.600000</ele>
                <time>2018-02-26T11:40:24.644Z</time>
            </trkpt>
            <trkpt lon="100.951166" lat="12.890826">
                <ele>45.500000</ele>
                <time>2018-02-26T11:40:25.644Z</time>
            </trkpt>
            <trkpt lon="100.951149" lat="12.890851">
                <ele>45.500000</ele>
                <time>2018-02-26T11:40:26.644Z</time>
            </trkpt>
            <trkpt lon="100.951132" lat="12.890876">
                <ele>45.500000</ele>
                <time>2018-02-26T11:40:27.644Z</time>
            </trkpt>
            <trkpt lon="100.951120" lat="12.890904">
                <ele>45.300000</ele>
                <time>2018-02-26T11:40:28.644Z</time>
            </trkpt>
            <trkpt lon="100.951102" lat="12.890943">
                <ele>45.000000</ele>
                <time>2018-02-26T11:40:30.644Z</time>
            </trkpt>
            <trkpt lon="100.951106" lat="12.890975">
                <ele>45.000000</ele>
                <time>2018-02-26T11:40:33.644Z</time>
            </trkpt>
            <trkpt lon="100.951132" lat="12.891006">
                <ele>45.000000</ele>
                <time>2018-02-26T11:40:36.644Z</time>
            </trkpt>
            <trkpt lon="100.951172" lat="12.891013">
                <ele>45.000000</ele>
                <time>2018-02-26T11:40:38.644Z</time>
            </trkpt>
            <trkpt lon="100.951222" lat="12.891017">
                <ele>45.000000</ele>
                <time>2018-02-26T11:40:40.644Z</time>
            </trkpt>
            <trkpt lon="100.951271" lat="12.891029">
                <ele>45.000000</ele>
                <time>2018-02-26T11:40:42.644Z</time>
            </trkpt>
            <trkpt lon="100.951327" lat="12.891035">
                <ele>45.100000</ele>
                <time>2018-02-26T11:40:44.644Z</time>
            </trkpt>
            <trkpt lon="100.951358" lat="12.891040">
                <ele>45.100000</ele>
                <time>2018-02-26T11:40:45.644Z</time>
            </trkpt>
            <trkpt lon="100.951391" lat="12.891045">
                <ele>45.100000</ele>
                <time>2018-02-26T11:40:46.644Z</time>
            </trkpt>
            <trkpt lon="100.951423" lat="12.891049">
                <ele>45.100000</ele>
                <time>2018-02-26T11:40:47.644Z</time>
            </trkpt>
            <trkpt lon="100.951455" lat="12.891054">
                <ele>45.100000</ele>
                <time>2018-02-26T11:40:48.644Z</time>
            </trkpt>
            <trkpt lon="100.951487" lat="12.891058">
                <ele>45.100000</ele>
                <time>2018-02-26T11:40:49.644Z</time>
            </trkpt>
            <trkpt lon="100.951519" lat="12.891064">
                <ele>45.100000</ele>
                <time>2018-02-26T11:40:50.644Z</time>
            </trkpt>
            <trkpt lon="100.951552" lat="12.891070">
                <ele>45.100000</ele>
                <time>2018-02-26T11:40:51.644Z</time>
            </trkpt>
            <trkpt lon="100.951585" lat="12.891075">
                <ele>45.200000</ele>
                <time>2018-02-26T11:40:52.644Z</time>
            </trkpt>
            <trkpt lon="100.951624" lat="12.891080">
                <ele>45.200000</ele>
                <time>2018-02-26T11:40:53.644Z</time>
            </trkpt>
            <trkpt lon="100.951661" lat="12.891084">
                <ele>45.200000</ele>
                <time>2018-02-26T11:40:54.644Z</time>
            </trkpt>
            <trkpt lon="100.951695" lat="12.891086">
                <ele>45.200000</ele>
                <time>2018-02-26T11:40:55.644Z</time>
            </trkpt>
            <trkpt lon="100.951733" lat="12.891093">
                <ele>45.200000</ele>
                <time>2018-02-26T11:40:56.644Z</time>
            </trkpt>
            <trkpt lon="100.951772" lat="12.891101">
                <ele>45.200000</ele>
                <time>2018-02-26T11:40:57.644Z</time>
            </trkpt>
            <trkpt lon="100.951804" lat="12.891113">
                <ele>45.300000</ele>
                <time>2018-02-26T11:40:58.644Z</time>
            </trkpt>
            <trkpt lon="100.951836" lat="12.891122">
                <ele>45.300000</ele>
                <time>2018-02-26T11:40:59.644Z</time>
            </trkpt>
            <trkpt lon="100.951870" lat="12.891126">
                <ele>45.300000</ele>
                <time>2018-02-26T11:41:00.644Z</time>
            </trkpt>
            <trkpt lon="100.951897" lat="12.891130">
                <ele>45.300000</ele>
                <time>2018-02-26T11:41:01.644Z</time>
            </trkpt>
            <trkpt lon="100.951928" lat="12.891132">
                <ele>45.300000</ele>
                <time>2018-02-26T11:41:02.644Z</time>
            </trkpt>
            <trkpt lon="100.951959" lat="12.891137">
                <ele>45.400000</ele>
                <time>2018-02-26T11:41:03.644Z</time>
            </trkpt>
            <trkpt lon="100.951993" lat="12.891141">
                <ele>45.400000</ele>
                <time>2018-02-26T11:41:04.644Z</time>
            </trkpt>
            <trkpt lon="100.952029" lat="12.891145">
                <ele>45.400000</ele>
                <time>2018-02-26T11:41:05.644Z</time>
            </trkpt>
            <trkpt lon="100.952067" lat="12.891149">
                <ele>45.400000</ele>
                <time>2018-02-26T11:41:06.644Z</time>
            </trkpt>
            <trkpt lon="100.952103" lat="12.891155">
                <ele>45.500000</ele>
                <time>2018-02-26T11:41:07.644Z</time>
            </trkpt>
            <trkpt lon="100.952140" lat="12.891161">
                <ele>45.500000</ele>
                <time>2018-02-26T11:41:08.644Z</time>
            </trkpt>
            <trkpt lon="100.952172" lat="12.891167">
                <ele>45.500000</ele>
                <time>2018-02-26T11:41:09.644Z</time>
            </trkpt>
            <trkpt lon="100.952206" lat="12.891173">
                <ele>45.600000</ele>
                <time>2018-02-26T11:41:10.644Z</time>
            </trkpt>
            <trkpt lon="100.952243" lat="12.891178">
                <ele>45.600000</ele>
                <time>2018-02-26T11:41:11.644Z</time>
            </trkpt>
            <trkpt lon="100.952285" lat="12.891184">
                <ele>45.700000</ele>
                <time>2018-02-26T11:41:12.644Z</time>
            </trkpt>
            <trkpt lon="100.952329" lat="12.891191">
                <ele>45.700000</ele>
                <time>2018-02-26T11:41:13.644Z</time>
            </trkpt>
            <trkpt lon="100.952376" lat="12.891193">
                <ele>45.700000</ele>
                <time>2018-02-26T11:41:14.644Z</time>
            </trkpt>
            <trkpt lon="100.952424" lat="12.891195">
                <ele>45.800000</ele>
                <time>2018-02-26T11:41:15.644Z</time>
            </trkpt>
            <trkpt lon="100.952465" lat="12.891201">
                <ele>45.800000</ele>
                <time>2018-02-26T11:41:16.644Z</time>
            </trkpt>
            <trkpt lon="100.952505" lat="12.891205">
                <ele>45.900000</ele>
                <time>2018-02-26T11:41:17.644Z</time>
            </trkpt>
            <trkpt lon="100.952548" lat="12.891210">
                <ele>45.900000</ele>
                <time>2018-02-26T11:41:18.644Z</time>
            </trkpt>
            <trkpt lon="100.952587" lat="12.891216">
                <ele>46.000000</ele>
                <time>2018-02-26T11:41:19.644Z</time>
            </trkpt>
            <trkpt lon="100.952626" lat="12.891221">
                <ele>46.000000</ele>
                <time>2018-02-26T11:41:20.644Z</time>
            </trkpt>
            <trkpt lon="100.952660" lat="12.891225">
                <ele>46.100000</ele>
                <time>2018-02-26T11:41:21.644Z</time>
            </trkpt>
            <trkpt lon="100.952694" lat="12.891228">
                <ele>46.100000</ele>
                <time>2018-02-26T11:41:22.644Z</time>
            </trkpt>
            <trkpt lon="100.952728" lat="12.891230">
                <ele>46.100000</ele>
                <time>2018-02-26T11:41:23.644Z</time>
            </trkpt>
            <trkpt lon="100.952760" lat="12.891234">
                <ele>46.200000</ele>
                <time>2018-02-26T11:41:24.644Z</time>
            </trkpt>
            <trkpt lon="100.952795" lat="12.891238">
                <ele>46.200000</ele>
                <time>2018-02-26T11:41:25.644Z</time>
            </trkpt>
            <trkpt lon="100.952832" lat="12.891242">
                <ele>46.300000</ele>
                <time>2018-02-26T11:41:26.644Z</time>
            </trkpt>
            <trkpt lon="100.952862" lat="12.891246">
                <ele>46.300000</ele>
                <time>2018-02-26T11:41:27.644Z</time>
            </trkpt>
            <trkpt lon="100.952895" lat="12.891253">
                <ele>46.300000</ele>
                <time>2018-02-26T11:41:28.644Z</time>
            </trkpt>
            <trkpt lon="100.952937" lat="12.891275">
                <ele>46.500000</ele>
                <time>2018-02-26T11:41:30.644Z</time>
            </trkpt>
            <trkpt lon="100.952963" lat="12.891305">
                <ele>46.500000</ele>
                <time>2018-02-26T11:41:32.644Z</time>
            </trkpt>
            <trkpt lon="100.952983" lat="12.891325">
                <ele>46.600000</ele>
                <time>2018-02-26T11:41:33.644Z</time>
            </trkpt>
            <trkpt lon="100.953009" lat="12.891345">
                <ele>46.600000</ele>
                <time>2018-02-26T11:41:34.644Z</time>
            </trkpt>
            <trkpt lon="100.953034" lat="12.891365">
                <ele>46.700000</ele>
                <time>2018-02-26T11:41:35.644Z</time>
            </trkpt>
            <trkpt lon="100.953056" lat="12.891382">
                <ele>46.700000</ele>
                <time>2018-02-26T11:41:36.644Z</time>
            </trkpt>
            <trkpt lon="100.953085" lat="12.891393">
                <ele>46.800000</ele>
                <time>2018-02-26T11:41:37.644Z</time>
            </trkpt>
            <trkpt lon="100.953140" lat="12.891408">
                <ele>46.800000</ele>
                <time>2018-02-26T11:41:39.644Z</time>
            </trkpt>
            <trkpt lon="100.953187" lat="12.891429">
                <ele>47.000000</ele>
                <time>2018-02-26T11:41:41.644Z</time>
            </trkpt>
            <trkpt lon="100.953195" lat="12.891460">
                <ele>47.000000</ele>
                <time>2018-02-26T11:41:43.644Z</time>
            </trkpt>
            <trkpt lon="100.953167" lat="12.891473">
                <ele>47.000000</ele>
                <time>2018-02-26T11:42:25.644Z</time>
            </trkpt>
            <trkpt lon="100.953133" lat="12.891481">
                <ele>47.000000</ele>
                <time>2018-02-26T11:42:28.644Z</time>
            </trkpt>
            <trkpt lon="100.953080" lat="12.891495">
                <ele>47.000000</ele>
                <time>2018-02-26T11:42:30.644Z</time>
            </trkpt>
            <trkpt lon="100.953051" lat="12.891509">
                <ele>47.000000</ele>
                <time>2018-02-26T11:42:31.644Z</time>
            </trkpt>
            <trkpt lon="100.953018" lat="12.891525">
                <ele>47.000000</ele>
                <time>2018-02-26T11:42:32.644Z</time>
            </trkpt>
            <trkpt lon="100.952985" lat="12.891543">
                <ele>47.000000</ele>
                <time>2018-02-26T11:42:33.644Z</time>
            </trkpt>
            <trkpt lon="100.952951" lat="12.891560">
                <ele>47.000000</ele>
                <time>2018-02-26T11:42:34.644Z</time>
            </trkpt>
            <trkpt lon="100.952917" lat="12.891573">
                <ele>47.000000</ele>
                <time>2018-02-26T11:42:35.644Z</time>
            </trkpt>
            <trkpt lon="100.952892" lat="12.891593">
                <ele>47.000000</ele>
                <time>2018-02-26T11:42:36.644Z</time>
            </trkpt>
            <trkpt lon="100.952860" lat="12.891607">
                <ele>47.000000</ele>
                <time>2018-02-26T11:42:37.644Z</time>
            </trkpt>
            <trkpt lon="100.952835" lat="12.891620">
                <ele>47.000000</ele>
                <time>2018-02-26T11:42:38.644Z</time>
            </trkpt>
            <trkpt lon="100.952784" lat="12.891643">
                <ele>46.900000</ele>
                <time>2018-02-26T11:42:40.644Z</time>
            </trkpt>
            <trkpt lon="100.952758" lat="12.891665">
                <ele>46.900000</ele>
                <time>2018-02-26T11:42:41.644Z</time>
            </trkpt>
            <trkpt lon="100.952734" lat="12.891687">
                <ele>46.900000</ele>
                <time>2018-02-26T11:42:42.644Z</time>
            </trkpt>
            <trkpt lon="100.952707" lat="12.891712">
                <ele>46.900000</ele>
                <time>2018-02-26T11:42:43.644Z</time>
            </trkpt>
            <trkpt lon="100.952680" lat="12.891732">
                <ele>46.900000</ele>
                <time>2018-02-26T11:42:44.644Z</time>
            </trkpt>
            <trkpt lon="100.952655" lat="12.891751">
                <ele>46.900000</ele>
                <time>2018-02-26T11:42:45.644Z</time>
            </trkpt>
            <trkpt lon="100.952630" lat="12.891770">
                <ele>46.900000</ele>
                <time>2018-02-26T11:42:46.644Z</time>
            </trkpt>
            <trkpt lon="100.952605" lat="12.891787">
                <ele>46.900000</ele>
                <time>2018-02-26T11:42:47.644Z</time>
            </trkpt>
            <trkpt lon="100.952582" lat="12.891804">
                <ele>46.900000</ele>
                <time>2018-02-26T11:42:48.644Z</time>
            </trkpt>
            <trkpt lon="100.952541" lat="12.891833">
                <ele>46.900000</ele>
                <time>2018-02-26T11:42:50.644Z</time>
            </trkpt>
            <trkpt lon="100.952518" lat="12.891850">
                <ele>46.900000</ele>
                <time>2018-02-26T11:42:51.644Z</time>
            </trkpt>
            <trkpt lon="100.952496" lat="12.891868">
                <ele>46.900000</ele>
                <time>2018-02-26T11:42:52.644Z</time>
            </trkpt>
            <trkpt lon="100.952473" lat="12.891886">
                <ele>46.900000</ele>
                <time>2018-02-26T11:42:53.644Z</time>
            </trkpt>
            <trkpt lon="100.952449" lat="12.891905">
                <ele>46.900000</ele>
                <time>2018-02-26T11:42:54.644Z</time>
            </trkpt>
            <trkpt lon="100.952424" lat="12.891927">
                <ele>46.900000</ele>
                <time>2018-02-26T11:42:55.644Z</time>
            </trkpt>
            <trkpt lon="100.952398" lat="12.891945">
                <ele>46.900000</ele>
                <time>2018-02-26T11:42:56.644Z</time>
            </trkpt>
            <trkpt lon="100.952370" lat="12.891969">
                <ele>46.900000</ele>
                <time>2018-02-26T11:42:57.644Z</time>
            </trkpt>
            <trkpt lon="100.952341" lat="12.891990">
                <ele>46.900000</ele>
                <time>2018-02-26T11:42:58.644Z</time>
            </trkpt>
            <trkpt lon="100.952313" lat="12.892012">
                <ele>46.900000</ele>
                <time>2018-02-26T11:42:59.644Z</time>
            </trkpt>
            <trkpt lon="100.952284" lat="12.892036">
                <ele>46.900000</ele>
                <time>2018-02-26T11:43:00.644Z</time>
            </trkpt>
            <trkpt lon="100.952257" lat="12.892057">
                <ele>46.900000</ele>
                <time>2018-02-26T11:43:01.644Z</time>
            </trkpt>
            <trkpt lon="100.952230" lat="12.892077">
                <ele>46.900000</ele>
                <time>2018-02-26T11:43:02.644Z</time>
            </trkpt>
            <trkpt lon="100.952208" lat="12.892098">
                <ele>46.900000</ele>
                <time>2018-02-26T11:43:03.644Z</time>
            </trkpt>
            <trkpt lon="100.952170" lat="12.892133">
                <ele>46.900000</ele>
                <time>2018-02-26T11:43:05.644Z</time>
            </trkpt>
            <trkpt lon="100.952152" lat="12.892178">
                <ele>46.800000</ele>
                <time>2018-02-26T11:43:53.644Z</time>
            </trkpt>
            <trkpt lon="100.952144" lat="12.892232">
                <ele>46.800000</ele>
                <time>2018-02-26T11:43:55.644Z</time>
            </trkpt>
            <trkpt lon="100.952145" lat="12.892260">
                <ele>46.800000</ele>
                <time>2018-02-26T11:43:56.644Z</time>
            </trkpt>
            <trkpt lon="100.952171" lat="12.892295">
                <ele>46.800000</ele>
                <time>2018-02-26T11:43:58.644Z</time>
            </trkpt>
            <trkpt lon="100.952197" lat="12.892328">
                <ele>46.800000</ele>
                <time>2018-02-26T11:44:00.644Z</time>
            </trkpt>
            <trkpt lon="100.952219" lat="12.892365">
                <ele>46.700000</ele>
                <time>2018-02-26T11:44:02.644Z</time>
            </trkpt>
            <trkpt lon="100.952207" lat="12.892411">
                <ele>46.700000</ele>
                <time>2018-02-26T11:44:04.644Z</time>
            </trkpt>
            <trkpt lon="100.952206" lat="12.892443">
                <ele>46.700000</ele>
                <time>2018-02-26T11:44:05.644Z</time>
            </trkpt>
            <trkpt lon="100.952204" lat="12.892475">
                <ele>46.700000</ele>
                <time>2018-02-26T11:44:06.644Z</time>
            </trkpt>
            <trkpt lon="100.952204" lat="12.892503">
                <ele>46.700000</ele>
                <time>2018-02-26T11:44:07.644Z</time>
            </trkpt>
            <trkpt lon="100.952202" lat="12.892534">
                <ele>46.700000</ele>
                <time>2018-02-26T11:44:08.644Z</time>
            </trkpt>
            <trkpt lon="100.952200" lat="12.892565">
                <ele>46.600000</ele>
                <time>2018-02-26T11:44:09.644Z</time>
            </trkpt>
            <trkpt lon="100.952195" lat="12.892616">
                <ele>46.500000</ele>
                <time>2018-02-26T11:44:11.644Z</time>
            </trkpt>
            <trkpt lon="100.952191" lat="12.892642">
                <ele>46.300000</ele>
                <time>2018-02-26T11:44:12.644Z</time>
            </trkpt>
            <trkpt lon="100.952182" lat="12.892699">
                <ele>46.200000</ele>
                <time>2018-02-26T11:44:14.644Z</time>
            </trkpt>
            <trkpt lon="100.952178" lat="12.892728">
                <ele>46.100000</ele>
                <time>2018-02-26T11:44:15.644Z</time>
            </trkpt>
            <trkpt lon="100.952174" lat="12.892757">
                <ele>46.100000</ele>
                <time>2018-02-26T11:44:16.644Z</time>
            </trkpt>
            <trkpt lon="100.952169" lat="12.892806">
                <ele>46.100000</ele>
                <time>2018-02-26T11:44:18.644Z</time>
            </trkpt>
            <trkpt lon="100.952172" lat="12.892862">
                <ele>46.100000</ele>
                <time>2018-02-26T11:44:20.644Z</time>
            </trkpt>
            <trkpt lon="100.952178" lat="12.892891">
                <ele>46.100000</ele>
                <time>2018-02-26T11:44:21.644Z</time>
            </trkpt>
            <trkpt lon="100.952183" lat="12.892925">
                <ele>46.100000</ele>
                <time>2018-02-26T11:44:22.644Z</time>
            </trkpt>
            <trkpt lon="100.952188" lat="12.892956">
                <ele>46.100000</ele>
                <time>2018-02-26T11:44:23.644Z</time>
            </trkpt>
            <trkpt lon="100.952200" lat="12.892992">
                <ele>46.100000</ele>
                <time>2018-02-26T11:44:24.644Z</time>
            </trkpt>
            <trkpt lon="100.952210" lat="12.893025">
                <ele>46.100000</ele>
                <time>2018-02-26T11:44:25.644Z</time>
            </trkpt>
            <trkpt lon="100.952223" lat="12.893060">
                <ele>46.100000</ele>
                <time>2018-02-26T11:44:26.644Z</time>
            </trkpt>
            <trkpt lon="100.952231" lat="12.893096">
                <ele>46.100000</ele>
                <time>2018-02-26T11:44:27.644Z</time>
            </trkpt>
            <trkpt lon="100.952241" lat="12.893128">
                <ele>46.200000</ele>
                <time>2018-02-26T11:44:28.644Z</time>
            </trkpt>
            <trkpt lon="100.952248" lat="12.893164">
                <ele>46.200000</ele>
                <time>2018-02-26T11:44:29.644Z</time>
            </trkpt>
            <trkpt lon="100.952257" lat="12.893199">
                <ele>46.200000</ele>
                <time>2018-02-26T11:44:30.644Z</time>
            </trkpt>
            <trkpt lon="100.952263" lat="12.893234">
                <ele>46.300000</ele>
                <time>2018-02-26T11:44:31.644Z</time>
            </trkpt>
            <trkpt lon="100.952269" lat="12.893270">
                <ele>46.500000</ele>
                <time>2018-02-26T11:44:32.644Z</time>
            </trkpt>
            <trkpt lon="100.952275" lat="12.893309">
                <ele>46.700000</ele>
                <time>2018-02-26T11:44:33.644Z</time>
            </trkpt>
            <trkpt lon="100.952286" lat="12.893347">
                <ele>46.700000</ele>
                <time>2018-02-26T11:44:34.644Z</time>
            </trkpt>
            <trkpt lon="100.952295" lat="12.893384">
                <ele>47.000000</ele>
                <time>2018-02-26T11:44:35.644Z</time>
            </trkpt>
            <trkpt lon="100.952307" lat="12.893421">
                <ele>47.200000</ele>
                <time>2018-02-26T11:44:36.644Z</time>
            </trkpt>
            <trkpt lon="100.952323" lat="12.893460">
                <ele>47.400000</ele>
                <time>2018-02-26T11:44:37.644Z</time>
            </trkpt>
            <trkpt lon="100.952342" lat="12.893500">
                <ele>47.400000</ele>
                <time>2018-02-26T11:44:38.644Z</time>
            </trkpt>
            <trkpt lon="100.952362" lat="12.893541">
                <ele>47.500000</ele>
                <time>2018-02-26T11:44:39.644Z</time>
            </trkpt>
            <trkpt lon="100.952383" lat="12.893589">
                <ele>47.300000</ele>
                <time>2018-02-26T11:44:40.644Z</time>
            </trkpt>
            <trkpt lon="100.952398" lat="12.893624">
                <ele>47.300000</ele>
                <time>2018-02-26T11:44:41.644Z</time>
            </trkpt>
            <trkpt lon="100.952415" lat="12.893667">
                <ele>47.300000</ele>
                <time>2018-02-26T11:44:42.644Z</time>
            </trkpt>
            <trkpt lon="100.952428" lat="12.893699">
                <ele>47.100000</ele>
                <time>2018-02-26T11:44:43.644Z</time>
            </trkpt>
            <trkpt lon="100.952442" lat="12.893732">
                <ele>47.200000</ele>
                <time>2018-02-26T11:44:44.644Z</time>
            </trkpt>
            <trkpt lon="100.952449" lat="12.893761">
                <ele>47.200000</ele>
                <time>2018-02-26T11:44:45.644Z</time>
            </trkpt>
            <trkpt lon="100.952456" lat="12.893792">
                <ele>47.500000</ele>
                <time>2018-02-26T11:44:46.644Z</time>
            </trkpt>
            <trkpt lon="100.952463" lat="12.893822">
                <ele>47.700000</ele>
                <time>2018-02-26T11:44:47.644Z</time>
            </trkpt>
            <trkpt lon="100.952470" lat="12.893849">
                <ele>47.700000</ele>
                <time>2018-02-26T11:44:48.644Z</time>
            </trkpt>
            <trkpt lon="100.952477" lat="12.893894">
                <ele>48.200000</ele>
                <time>2018-02-26T11:44:50.644Z</time>
            </trkpt>
            <trkpt lon="100.952494" lat="12.893939">
                <ele>48.300000</ele>
                <time>2018-02-26T11:44:52.644Z</time>
            </trkpt>
            <trkpt lon="100.952517" lat="12.893956">
                <ele>48.300000</ele>
                <time>2018-02-26T11:44:53.644Z</time>
            </trkpt>
            <trkpt lon="100.952540" lat="12.893976">
                <ele>48.400000</ele>
                <time>2018-02-26T11:44:54.644Z</time>
            </trkpt>
            <trkpt lon="100.952562" lat="12.893996">
                <ele>48.200000</ele>
                <time>2018-02-26T11:44:55.644Z</time>
            </trkpt>
            <trkpt lon="100.952586" lat="12.894020">
                <ele>48.300000</ele>
                <time>2018-02-26T11:44:56.644Z</time>
            </trkpt>
            <trkpt lon="100.952610" lat="12.894046">
                <ele>48.100000</ele>
                <time>2018-02-26T11:44:57.644Z</time>
            </trkpt>
            <trkpt lon="100.952638" lat="12.894079">
                <ele>48.200000</ele>
                <time>2018-02-26T11:44:58.644Z</time>
            </trkpt>
            <trkpt lon="100.952658" lat="12.894109">
                <ele>48.400000</ele>
                <time>2018-02-26T11:44:59.644Z</time>
            </trkpt>
            <trkpt lon="100.952672" lat="12.894136">
                <ele>48.400000</ele>
                <time>2018-02-26T11:45:00.644Z</time>
            </trkpt>
            <trkpt lon="100.952680" lat="12.894171">
                <ele>48.700000</ele>
                <time>2018-02-26T11:45:01.644Z</time>
            </trkpt>
            <trkpt lon="100.952687" lat="12.894202">
                <ele>48.900000</ele>
                <time>2018-02-26T11:45:02.644Z</time>
            </trkpt>
            <trkpt lon="100.952691" lat="12.894235">
                <ele>49.100000</ele>
                <time>2018-02-26T11:45:03.644Z</time>
            </trkpt>
            <trkpt lon="100.952697" lat="12.894268">
                <ele>49.100000</ele>
                <time>2018-02-26T11:45:04.644Z</time>
            </trkpt>
            <trkpt lon="100.952704" lat="12.894305">
                <ele>49.300000</ele>
                <time>2018-02-26T11:45:05.644Z</time>
            </trkpt>
            <trkpt lon="100.952712" lat="12.894340">
                <ele>49.400000</ele>
                <time>2018-02-26T11:45:06.644Z</time>
            </trkpt>
            <trkpt lon="100.952723" lat="12.894377">
                <ele>49.600000</ele>
                <time>2018-02-26T11:45:07.644Z</time>
            </trkpt>
            <trkpt lon="100.952737" lat="12.894414">
                <ele>49.800000</ele>
                <time>2018-02-26T11:45:08.644Z</time>
            </trkpt>
            <trkpt lon="100.952751" lat="12.894453">
                <ele>49.600000</ele>
                <time>2018-02-26T11:45:09.644Z</time>
            </trkpt>
            <trkpt lon="100.952769" lat="12.894491">
                <ele>49.600000</ele>
                <time>2018-02-26T11:45:10.644Z</time>
            </trkpt>
            <trkpt lon="100.952789" lat="12.894527">
                <ele>49.300000</ele>
                <time>2018-02-26T11:45:11.644Z</time>
            </trkpt>
            <trkpt lon="100.952810" lat="12.894556">
                <ele>49.300000</ele>
                <time>2018-02-26T11:45:12.644Z</time>
            </trkpt>
            <trkpt lon="100.952831" lat="12.894585">
                <ele>49.300000</ele>
                <time>2018-02-26T11:45:13.644Z</time>
            </trkpt>
            <trkpt lon="100.952855" lat="12.894612">
                <ele>49.300000</ele>
                <time>2018-02-26T11:45:14.644Z</time>
            </trkpt>
            <trkpt lon="100.952876" lat="12.894642">
                <ele>49.300000</ele>
                <time>2018-02-26T11:45:15.644Z</time>
            </trkpt>
            <trkpt lon="100.952894" lat="12.894666">
                <ele>49.100000</ele>
                <time>2018-02-26T11:45:16.644Z</time>
            </trkpt>
            <trkpt lon="100.952910" lat="12.894692">
                <ele>49.100000</ele>
                <time>2018-02-26T11:45:17.644Z</time>
            </trkpt>
            <trkpt lon="100.952941" lat="12.894736">
                <ele>49.000000</ele>
                <time>2018-02-26T11:45:19.644Z</time>
            </trkpt>
            <trkpt lon="100.952970" lat="12.894786">
                <ele>48.800000</ele>
                <time>2018-02-26T11:45:21.644Z</time>
            </trkpt>
            <trkpt lon="100.952992" lat="12.894814">
                <ele>48.500000</ele>
                <time>2018-02-26T11:45:22.644Z</time>
            </trkpt>
            <trkpt lon="100.953012" lat="12.894847">
                <ele>48.500000</ele>
                <time>2018-02-26T11:45:23.644Z</time>
            </trkpt>
            <trkpt lon="100.953028" lat="12.894879">
                <ele>48.200000</ele>
                <time>2018-02-26T11:45:24.644Z</time>
            </trkpt>
            <trkpt lon="100.953042" lat="12.894910">
                <ele>48.100000</ele>
                <time>2018-02-26T11:45:25.644Z</time>
            </trkpt>
            <trkpt lon="100.953050" lat="12.894939">
                <ele>48.100000</ele>
                <time>2018-02-26T11:45:26.644Z</time>
            </trkpt>
            <trkpt lon="100.953059" lat="12.894972">
                <ele>48.100000</ele>
                <time>2018-02-26T11:45:27.644Z</time>
            </trkpt>
            <trkpt lon="100.953066" lat="12.895007">
                <ele>48.100000</ele>
                <time>2018-02-26T11:45:28.644Z</time>
            </trkpt>
            <trkpt lon="100.953072" lat="12.895042">
                <ele>48.100000</ele>
                <time>2018-02-26T11:45:29.644Z</time>
            </trkpt>
            <trkpt lon="100.953079" lat="12.895081">
                <ele>48.100000</ele>
                <time>2018-02-26T11:45:30.644Z</time>
            </trkpt>
            <trkpt lon="100.953084" lat="12.895123">
                <ele>48.400000</ele>
                <time>2018-02-26T11:45:31.644Z</time>
            </trkpt>
            <trkpt lon="100.953090" lat="12.895168">
                <ele>48.600000</ele>
                <time>2018-02-26T11:45:32.644Z</time>
            </trkpt>
            <trkpt lon="100.953094" lat="12.895205">
                <ele>48.700000</ele>
                <time>2018-02-26T11:45:33.644Z</time>
            </trkpt>
            <trkpt lon="100.953100" lat="12.895247">
                <ele>49.000000</ele>
                <time>2018-02-26T11:45:34.644Z</time>
            </trkpt>
            <trkpt lon="100.953111" lat="12.895291">
                <ele>49.200000</ele>
                <time>2018-02-26T11:45:35.644Z</time>
            </trkpt>
            <trkpt lon="100.953138" lat="12.895333">
                <ele>49.700000</ele>
                <time>2018-02-26T11:45:36.644Z</time>
            </trkpt>
            <trkpt lon="100.953164" lat="12.895368">
                <ele>50.200000</ele>
                <time>2018-02-26T11:45:37.644Z</time>
            </trkpt>
            <trkpt lon="100.953199" lat="12.895399">
                <ele>50.700000</ele>
                <time>2018-02-26T11:45:38.644Z</time>
            </trkpt>
            <trkpt lon="100.953236" lat="12.895426">
                <ele>50.700000</ele>
                <time>2018-02-26T11:45:39.644Z</time>
            </trkpt>
            <trkpt lon="100.953284" lat="12.895442">
                <ele>51.400000</ele>
                <time>2018-02-26T11:45:40.644Z</time>
            </trkpt>
            <trkpt lon="100.953322" lat="12.895455">
                <ele>51.400000</ele>
                <time>2018-02-26T11:45:41.644Z</time>
            </trkpt>
            <trkpt lon="100.953361" lat="12.895467">
                <ele>51.400000</ele>
                <time>2018-02-26T11:45:42.644Z</time>
            </trkpt>
            <trkpt lon="100.953389" lat="12.895466">
                <ele>51.400000</ele>
                <time>2018-02-26T11:45:43.644Z</time>
            </trkpt>
            <trkpt lon="100.953429" lat="12.895464">
                <ele>51.400000</ele>
                <time>2018-02-26T11:45:45.644Z</time>
            </trkpt>
            <trkpt lon="100.953466" lat="12.895455">
                <ele>51.300000</ele>
                <time>2018-02-26T11:45:47.644Z</time>
            </trkpt>
            <trkpt lon="100.953515" lat="12.895452">
                <ele>51.300000</ele>
                <time>2018-02-26T11:45:49.644Z</time>
            </trkpt>
            <trkpt lon="100.953546" lat="12.895450">
                <ele>51.200000</ele>
                <time>2018-02-26T11:45:50.644Z</time>
            </trkpt>
            <trkpt lon="100.953580" lat="12.895446">
                <ele>51.200000</ele>
                <time>2018-02-26T11:45:51.644Z</time>
            </trkpt>
            <trkpt lon="100.953617" lat="12.895445">
                <ele>51.100000</ele>
                <time>2018-02-26T11:45:52.644Z</time>
            </trkpt>
            <trkpt lon="100.953655" lat="12.895442">
                <ele>50.900000</ele>
                <time>2018-02-26T11:45:53.644Z</time>
            </trkpt>
            <trkpt lon="100.953696" lat="12.895439">
                <ele>50.600000</ele>
                <time>2018-02-26T11:45:54.644Z</time>
            </trkpt>
            <trkpt lon="100.953737" lat="12.895436">
                <ele>50.400000</ele>
                <time>2018-02-26T11:45:55.644Z</time>
            </trkpt>
            <trkpt lon="100.953780" lat="12.895433">
                <ele>50.100000</ele>
                <time>2018-02-26T11:45:56.644Z</time>
            </trkpt>
            <trkpt lon="100.953823" lat="12.895424">
                <ele>50.100000</ele>
                <time>2018-02-26T11:45:57.644Z</time>
            </trkpt>
            <trkpt lon="100.953867" lat="12.895418">
                <ele>50.100000</ele>
                <time>2018-02-26T11:45:58.644Z</time>
            </trkpt>
            <trkpt lon="100.953912" lat="12.895412">
                <ele>50.100000</ele>
                <time>2018-02-26T11:45:59.644Z</time>
            </trkpt>
            <trkpt lon="100.953959" lat="12.895407">
                <ele>50.100000</ele>
                <time>2018-02-26T11:46:00.644Z</time>
            </trkpt>
            <trkpt lon="100.954007" lat="12.895404">
                <ele>50.100000</ele>
                <time>2018-02-26T11:46:01.644Z</time>
            </trkpt>
            <trkpt lon="100.954051" lat="12.895398">
                <ele>50.100000</ele>
                <time>2018-02-26T11:46:02.644Z</time>
            </trkpt>
            <trkpt lon="100.954094" lat="12.895394">
                <ele>50.100000</ele>
                <time>2018-02-26T11:46:03.644Z</time>
            </trkpt>
            <trkpt lon="100.954136" lat="12.895391">
                <ele>50.100000</ele>
                <time>2018-02-26T11:46:04.644Z</time>
            </trkpt>
            <trkpt lon="100.954176" lat="12.895385">
                <ele>50.100000</ele>
                <time>2018-02-26T11:46:05.644Z</time>
            </trkpt>
            <trkpt lon="100.954214" lat="12.895381">
                <ele>50.100000</ele>
                <time>2018-02-26T11:46:06.644Z</time>
            </trkpt>
            <trkpt lon="100.954249" lat="12.895376">
                <ele>50.100000</ele>
                <time>2018-02-26T11:46:07.644Z</time>
            </trkpt>
            <trkpt lon="100.954296" lat="12.895377">
                <ele>50.100000</ele>
                <time>2018-02-26T11:46:09.644Z</time>
            </trkpt>
            <trkpt lon="100.954328" lat="12.895375">
                <ele>50.100000</ele>
                <time>2018-02-26T11:46:19.644Z</time>
            </trkpt>
            <trkpt lon="100.954376" lat="12.895365">
                <ele>50.100000</ele>
                <time>2018-02-26T11:47:08.644Z</time>
            </trkpt>
            <trkpt lon="100.954438" lat="12.895363">
                <ele>50.100000</ele>
                <time>2018-02-26T11:47:10.644Z</time>
            </trkpt>
            <trkpt lon="100.954470" lat="12.895362">
                <ele>50.100000</ele>
                <time>2018-02-26T11:47:11.644Z</time>
            </trkpt>
            <trkpt lon="100.954509" lat="12.895366">
                <ele>50.100000</ele>
                <time>2018-02-26T11:47:12.644Z</time>
            </trkpt>
            <trkpt lon="100.954543" lat="12.895364">
                <ele>50.100000</ele>
                <time>2018-02-26T11:47:13.644Z</time>
            </trkpt>
            <trkpt lon="100.954585" lat="12.895362">
                <ele>50.100000</ele>
                <time>2018-02-26T11:47:14.644Z</time>
            </trkpt>
            <trkpt lon="100.954621" lat="12.895359">
                <ele>50.100000</ele>
                <time>2018-02-26T11:47:15.644Z</time>
            </trkpt>
            <trkpt lon="100.954663" lat="12.895357">
                <ele>50.200000</ele>
                <time>2018-02-26T11:47:16.644Z</time>
            </trkpt>
            <trkpt lon="100.954698" lat="12.895351">
                <ele>50.200000</ele>
                <time>2018-02-26T11:47:17.644Z</time>
            </trkpt>
            <trkpt lon="100.954733" lat="12.895345">
                <ele>50.500000</ele>
                <time>2018-02-26T11:47:18.644Z</time>
            </trkpt>
            <trkpt lon="100.954768" lat="12.895341">
                <ele>50.700000</ele>
                <time>2018-02-26T11:47:19.644Z</time>
            </trkpt>
            <trkpt lon="100.954801" lat="12.895339">
                <ele>51.000000</ele>
                <time>2018-02-26T11:47:20.644Z</time>
            </trkpt>
            <trkpt lon="100.954831" lat="12.895336">
                <ele>51.200000</ele>
                <time>2018-02-26T11:47:21.644Z</time>
            </trkpt>
            <trkpt lon="100.954859" lat="12.895334">
                <ele>51.200000</ele>
                <time>2018-02-26T11:47:22.644Z</time>
            </trkpt>
            <trkpt lon="100.954889" lat="12.895331">
                <ele>51.500000</ele>
                <time>2018-02-26T11:47:23.644Z</time>
            </trkpt>
            <trkpt lon="100.954924" lat="12.895331">
                <ele>51.700000</ele>
                <time>2018-02-26T11:47:24.644Z</time>
            </trkpt>
            <trkpt lon="100.954959" lat="12.895327">
                <ele>52.000000</ele>
                <time>2018-02-26T11:47:25.644Z</time>
            </trkpt>
            <trkpt lon="100.954994" lat="12.895323">
                <ele>52.000000</ele>
                <time>2018-02-26T11:47:26.644Z</time>
            </trkpt>
            <trkpt lon="100.955030" lat="12.895318">
                <ele>52.200000</ele>
                <time>2018-02-26T11:47:27.644Z</time>
            </trkpt>
            <trkpt lon="100.955068" lat="12.895316">
                <ele>52.500000</ele>
                <time>2018-02-26T11:47:28.644Z</time>
            </trkpt>
            <trkpt lon="100.955107" lat="12.895311">
                <ele>52.700000</ele>
                <time>2018-02-26T11:47:29.644Z</time>
            </trkpt>
            <trkpt lon="100.955151" lat="12.895308">
                <ele>53.000000</ele>
                <time>2018-02-26T11:47:30.644Z</time>
            </trkpt>
            <trkpt lon="100.955192" lat="12.895303">
                <ele>53.100000</ele>
                <time>2018-02-26T11:47:31.644Z</time>
            </trkpt>
            <trkpt lon="100.955231" lat="12.895298">
                <ele>53.100000</ele>
                <time>2018-02-26T11:47:32.644Z</time>
            </trkpt>
            <trkpt lon="100.955270" lat="12.895293">
                <ele>53.100000</ele>
                <time>2018-02-26T11:47:33.644Z</time>
            </trkpt>
            <trkpt lon="100.955307" lat="12.895291">
                <ele>53.100000</ele>
                <time>2018-02-26T11:47:34.644Z</time>
            </trkpt>
            <trkpt lon="100.955343" lat="12.895285">
                <ele>53.100000</ele>
                <time>2018-02-26T11:47:35.644Z</time>
            </trkpt>
            <trkpt lon="100.955380" lat="12.895280">
                <ele>52.900000</ele>
                <time>2018-02-26T11:47:36.644Z</time>
            </trkpt>
            <trkpt lon="100.955418" lat="12.895275">
                <ele>52.800000</ele>
                <time>2018-02-26T11:47:37.644Z</time>
            </trkpt>
            <trkpt lon="100.955462" lat="12.895272">
                <ele>52.400000</ele>
                <time>2018-02-26T11:47:38.644Z</time>
            </trkpt>
            <trkpt lon="100.955503" lat="12.895267">
                <ele>52.200000</ele>
                <time>2018-02-26T11:47:39.644Z</time>
            </trkpt>
            <trkpt lon="100.955551" lat="12.895264">
                <ele>52.000000</ele>
                <time>2018-02-26T11:47:40.644Z</time>
            </trkpt>
            <trkpt lon="100.955597" lat="12.895258">
                <ele>51.700000</ele>
                <time>2018-02-26T11:47:41.644Z</time>
            </trkpt>
            <trkpt lon="100.955644" lat="12.895254">
                <ele>51.200000</ele>
                <time>2018-02-26T11:47:42.644Z</time>
            </trkpt>
            <trkpt lon="100.955687" lat="12.895248">
                <ele>51.100000</ele>
                <time>2018-02-26T11:47:43.644Z</time>
            </trkpt>
            <trkpt lon="100.955733" lat="12.895245">
                <ele>51.100000</ele>
                <time>2018-02-26T11:47:44.644Z</time>
            </trkpt>
            <trkpt lon="100.955777" lat="12.895241">
                <ele>51.100000</ele>
                <time>2018-02-26T11:47:45.644Z</time>
            </trkpt>
            <trkpt lon="100.955827" lat="12.895240">
                <ele>51.100000</ele>
                <time>2018-02-26T11:47:46.644Z</time>
            </trkpt>
            <trkpt lon="100.955871" lat="12.895237">
                <ele>51.200000</ele>
                <time>2018-02-26T11:47:47.644Z</time>
            </trkpt>
            <trkpt lon="100.955916" lat="12.895237">
                <ele>51.400000</ele>
                <time>2018-02-26T11:47:48.644Z</time>
            </trkpt>
            <trkpt lon="100.955955" lat="12.895234">
                <ele>51.700000</ele>
                <time>2018-02-26T11:47:49.644Z</time>
            </trkpt>
            <trkpt lon="100.955995" lat="12.895231">
                <ele>51.900000</ele>
                <time>2018-02-26T11:47:50.644Z</time>
            </trkpt>
            <trkpt lon="100.956033" lat="12.895227">
                <ele>52.100000</ele>
                <time>2018-02-26T11:47:51.644Z</time>
            </trkpt>
            <trkpt lon="100.956073" lat="12.895224">
                <ele>52.100000</ele>
                <time>2018-02-26T11:47:52.644Z</time>
            </trkpt>
            <trkpt lon="100.956109" lat="12.895219">
                <ele>52.100000</ele>
                <time>2018-02-26T11:47:53.644Z</time>
            </trkpt>
            <trkpt lon="100.956144" lat="12.895218">
                <ele>52.200000</ele>
                <time>2018-02-26T11:47:54.644Z</time>
            </trkpt>
            <trkpt lon="100.956173" lat="12.895218">
                <ele>52.200000</ele>
                <time>2018-02-26T11:47:55.644Z</time>
            </trkpt>
            <trkpt lon="100.956206" lat="12.895220">
                <ele>52.100000</ele>
                <time>2018-02-26T11:47:56.644Z</time>
            </trkpt>
            <trkpt lon="100.956239" lat="12.895218">
                <ele>52.100000</ele>
                <time>2018-02-26T11:47:57.644Z</time>
            </trkpt>
            <trkpt lon="100.956272" lat="12.895217">
                <ele>51.900000</ele>
                <time>2018-02-26T11:47:58.644Z</time>
            </trkpt>
            <trkpt lon="100.956306" lat="12.895216">
                <ele>51.700000</ele>
                <time>2018-02-26T11:47:59.644Z</time>
            </trkpt>
            <trkpt lon="100.956340" lat="12.895218">
                <ele>51.500000</ele>
                <time>2018-02-26T11:48:00.644Z</time>
            </trkpt>
            <trkpt lon="100.956374" lat="12.895218">
                <ele>51.400000</ele>
                <time>2018-02-26T11:48:01.644Z</time>
            </trkpt>
            <trkpt lon="100.956410" lat="12.895215">
                <ele>51.400000</ele>
                <time>2018-02-26T11:48:02.644Z</time>
            </trkpt>
            <trkpt lon="100.956442" lat="12.895212">
                <ele>51.300000</ele>
                <time>2018-02-26T11:48:03.644Z</time>
            </trkpt>
            <trkpt lon="100.956473" lat="12.895206">
                <ele>51.300000</ele>
                <time>2018-02-26T11:48:04.644Z</time>
            </trkpt>
            <trkpt lon="100.956506" lat="12.895203">
                <ele>51.200000</ele>
                <time>2018-02-26T11:48:05.644Z</time>
            </trkpt>
            <trkpt lon="100.956542" lat="12.895201">
                <ele>51.200000</ele>
                <time>2018-02-26T11:48:06.644Z</time>
            </trkpt>
            <trkpt lon="100.956579" lat="12.895201">
                <ele>51.200000</ele>
                <time>2018-02-26T11:48:07.644Z</time>
            </trkpt>
            <trkpt lon="100.956617" lat="12.895199">
                <ele>51.100000</ele>
                <time>2018-02-26T11:48:08.644Z</time>
            </trkpt>
            <trkpt lon="100.956654" lat="12.895194">
                <ele>51.100000</ele>
                <time>2018-02-26T11:48:09.644Z</time>
            </trkpt>
            <trkpt lon="100.956690" lat="12.895191">
                <ele>51.100000</ele>
                <time>2018-02-26T11:48:10.644Z</time>
            </trkpt>
            <trkpt lon="100.956726" lat="12.895188">
                <ele>50.900000</ele>
                <time>2018-02-26T11:48:11.644Z</time>
            </trkpt>
            <trkpt lon="100.956764" lat="12.895185">
                <ele>50.800000</ele>
                <time>2018-02-26T11:48:12.644Z</time>
            </trkpt>
            <trkpt lon="100.956799" lat="12.895184">
                <ele>50.800000</ele>
                <time>2018-02-26T11:48:13.644Z</time>
            </trkpt>
            <trkpt lon="100.956837" lat="12.895181">
                <ele>50.700000</ele>
                <time>2018-02-26T11:48:14.644Z</time>
            </trkpt>
            <trkpt lon="100.956876" lat="12.895179">
                <ele>50.500000</ele>
                <time>2018-02-26T11:48:15.644Z</time>
            </trkpt>
            <trkpt lon="100.956919" lat="12.895173">
                <ele>50.400000</ele>
                <time>2018-02-26T11:48:16.644Z</time>
            </trkpt>
            <trkpt lon="100.956962" lat="12.895168">
                <ele>50.300000</ele>
                <time>2018-02-26T11:48:17.644Z</time>
            </trkpt>
            <trkpt lon="100.957003" lat="12.895163">
                <ele>50.200000</ele>
                <time>2018-02-26T11:48:18.644Z</time>
            </trkpt>
            <trkpt lon="100.957042" lat="12.895159">
                <ele>50.100000</ele>
                <time>2018-02-26T11:48:19.644Z</time>
            </trkpt>
            <trkpt lon="100.957081" lat="12.895156">
                <ele>50.300000</ele>
                <time>2018-02-26T11:48:20.644Z</time>
            </trkpt>
            <trkpt lon="100.957120" lat="12.895152">
                <ele>50.700000</ele>
                <time>2018-02-26T11:48:21.644Z</time>
            </trkpt>
            <trkpt lon="100.957161" lat="12.895150">
                <ele>51.100000</ele>
                <time>2018-02-26T11:48:22.644Z</time>
            </trkpt>
            <trkpt lon="100.957198" lat="12.895148">
                <ele>51.500000</ele>
                <time>2018-02-26T11:48:23.644Z</time>
            </trkpt>
            <trkpt lon="100.957234" lat="12.895152">
                <ele>51.500000</ele>
                <time>2018-02-26T11:48:24.644Z</time>
            </trkpt>
            <trkpt lon="100.957270" lat="12.895188">
                <ele>51.500000</ele>
                <time>2018-02-26T11:48:26.644Z</time>
            </trkpt>
            <trkpt lon="100.957285" lat="12.895211">
                <ele>51.600000</ele>
                <time>2018-02-26T11:48:27.644Z</time>
            </trkpt>
            <trkpt lon="100.957308" lat="12.895256">
                <ele>51.600000</ele>
                <time>2018-02-26T11:48:29.644Z</time>
            </trkpt>
            <trkpt lon="100.957314" lat="12.895285">
                <ele>51.700000</ele>
                <time>2018-02-26T11:48:30.644Z</time>
            </trkpt>
            <trkpt lon="100.957317" lat="12.895313">
                <ele>51.700000</ele>
                <time>2018-02-26T11:48:31.644Z</time>
            </trkpt>
            <trkpt lon="100.957323" lat="12.895343">
                <ele>51.800000</ele>
                <time>2018-02-26T11:48:32.644Z</time>
            </trkpt>
            <trkpt lon="100.957326" lat="12.895374">
                <ele>51.900000</ele>
                <time>2018-02-26T11:48:33.644Z</time>
            </trkpt>
            <trkpt lon="100.957331" lat="12.895406">
                <ele>52.000000</ele>
                <time>2018-02-26T11:48:34.644Z</time>
            </trkpt>
            <trkpt lon="100.957334" lat="12.895438">
                <ele>52.100000</ele>
                <time>2018-02-26T11:48:35.644Z</time>
            </trkpt>
            <trkpt lon="100.957340" lat="12.895472">
                <ele>52.200000</ele>
                <time>2018-02-26T11:48:36.644Z</time>
            </trkpt>
            <trkpt lon="100.957347" lat="12.895508">
                <ele>52.400000</ele>
                <time>2018-02-26T11:48:37.644Z</time>
            </trkpt>
            <trkpt lon="100.957359" lat="12.895548">
                <ele>52.600000</ele>
                <time>2018-02-26T11:48:38.644Z</time>
            </trkpt>
            <trkpt lon="100.957369" lat="12.895590">
                <ele>52.900000</ele>
                <time>2018-02-26T11:48:39.644Z</time>
            </trkpt>
            <trkpt lon="100.957382" lat="12.895634">
                <ele>52.700000</ele>
                <time>2018-02-26T11:48:40.644Z</time>
            </trkpt>
            <trkpt lon="100.957391" lat="12.895679">
                <ele>52.500000</ele>
                <time>2018-02-26T11:48:41.644Z</time>
            </trkpt>
            <trkpt lon="100.957405" lat="12.895731">
                <ele>52.500000</ele>
                <time>2018-02-26T11:48:42.644Z</time>
            </trkpt>
            <trkpt lon="100.957415" lat="12.895778">
                <ele>52.000000</ele>
                <time>2018-02-26T11:48:43.644Z</time>
            </trkpt>
            <trkpt lon="100.957427" lat="12.895825">
                <ele>51.800000</ele>
                <time>2018-02-26T11:48:44.644Z</time>
            </trkpt>
            <trkpt lon="100.957438" lat="12.895875">
                <ele>51.600000</ele>
                <time>2018-02-26T11:48:45.644Z</time>
            </trkpt>
            <trkpt lon="100.957452" lat="12.895921">
                <ele>51.600000</ele>
                <time>2018-02-26T11:48:46.644Z</time>
            </trkpt>
            <trkpt lon="100.957462" lat="12.895968">
                <ele>51.400000</ele>
                <time>2018-02-26T11:48:47.644Z</time>
            </trkpt>
            <trkpt lon="100.957475" lat="12.896019">
                <ele>51.100000</ele>
                <time>2018-02-26T11:48:48.644Z</time>
            </trkpt>
            <trkpt lon="100.957485" lat="12.896066">
                <ele>50.900000</ele>
                <time>2018-02-26T11:48:49.644Z</time>
            </trkpt>
            <trkpt lon="100.957498" lat="12.896114">
                <ele>50.700000</ele>
                <time>2018-02-26T11:48:50.644Z</time>
            </trkpt>
            <trkpt lon="100.957507" lat="12.896157">
                <ele>50.500000</ele>
                <time>2018-02-26T11:48:51.644Z</time>
            </trkpt>
            <trkpt lon="100.957519" lat="12.896204">
                <ele>50.200000</ele>
                <time>2018-02-26T11:48:52.644Z</time>
            </trkpt>
            <trkpt lon="100.957528" lat="12.896250">
                <ele>50.100000</ele>
                <time>2018-02-26T11:48:53.644Z</time>
            </trkpt>
            <trkpt lon="100.957537" lat="12.896300">
                <ele>50.700000</ele>
                <time>2018-02-26T11:48:54.644Z</time>
            </trkpt>
            <trkpt lon="100.957546" lat="12.896346">
                <ele>50.900000</ele>
                <time>2018-02-26T11:48:55.644Z</time>
            </trkpt>
            <trkpt lon="100.957557" lat="12.896395">
                <ele>51.200000</ele>
                <time>2018-02-26T11:48:56.644Z</time>
            </trkpt>
            <trkpt lon="100.957566" lat="12.896441">
                <ele>51.500000</ele>
                <time>2018-02-26T11:48:57.644Z</time>
            </trkpt>
            <trkpt lon="100.957575" lat="12.896483">
                <ele>52.000000</ele>
                <time>2018-02-26T11:48:58.644Z</time>
            </trkpt>
            <trkpt lon="100.957584" lat="12.896527">
                <ele>52.300000</ele>
                <time>2018-02-26T11:48:59.644Z</time>
            </trkpt>
            <trkpt lon="100.957597" lat="12.896568">
                <ele>52.500000</ele>
                <time>2018-02-26T11:49:00.644Z</time>
            </trkpt>
            <trkpt lon="100.957608" lat="12.896603">
                <ele>52.800000</ele>
                <time>2018-02-26T11:49:01.644Z</time>
            </trkpt>
            <trkpt lon="100.957620" lat="12.896638">
                <ele>53.200000</ele>
                <time>2018-02-26T11:49:02.644Z</time>
            </trkpt>
            <trkpt lon="100.957630" lat="12.896672">
                <ele>53.400000</ele>
                <time>2018-02-26T11:49:03.644Z</time>
            </trkpt>
            <trkpt lon="100.957640" lat="12.896706">
                <ele>53.600000</ele>
                <time>2018-02-26T11:49:04.644Z</time>
            </trkpt>
            <trkpt lon="100.957651" lat="12.896739">
                <ele>53.700000</ele>
                <time>2018-02-26T11:49:05.644Z</time>
            </trkpt>
            <trkpt lon="100.957659" lat="12.896772">
                <ele>53.700000</ele>
                <time>2018-02-26T11:49:06.644Z</time>
            </trkpt>
            <trkpt lon="100.957666" lat="12.896808">
                <ele>53.600000</ele>
                <time>2018-02-26T11:49:07.644Z</time>
            </trkpt>
            <trkpt lon="100.957673" lat="12.896844">
                <ele>53.400000</ele>
                <time>2018-02-26T11:49:08.644Z</time>
            </trkpt>
            <trkpt lon="100.957681" lat="12.896882">
                <ele>53.300000</ele>
                <time>2018-02-26T11:49:09.644Z</time>
            </trkpt>
            <trkpt lon="100.957689" lat="12.896923">
                <ele>53.100000</ele>
                <time>2018-02-26T11:49:10.644Z</time>
            </trkpt>
            <trkpt lon="100.957696" lat="12.896963">
                <ele>52.900000</ele>
                <time>2018-02-26T11:49:11.644Z</time>
            </trkpt>
            <trkpt lon="100.957703" lat="12.897003">
                <ele>52.700000</ele>
                <time>2018-02-26T11:49:12.644Z</time>
            </trkpt>
            <trkpt lon="100.957709" lat="12.897042">
                <ele>52.200000</ele>
                <time>2018-02-26T11:49:13.644Z</time>
            </trkpt>
            <trkpt lon="100.957710" lat="12.897077">
                <ele>52.200000</ele>
                <time>2018-02-26T11:49:14.644Z</time>
            </trkpt>
            <trkpt lon="100.957703" lat="12.897106">
                <ele>52.100000</ele>
                <time>2018-02-26T11:49:15.644Z</time>
            </trkpt>
            <trkpt lon="100.957678" lat="12.897146">
                <ele>52.100000</ele>
                <time>2018-02-26T11:49:17.644Z</time>
            </trkpt>
            <trkpt lon="100.957640" lat="12.897174">
                <ele>52.100000</ele>
                <time>2018-02-26T11:49:19.644Z</time>
            </trkpt>
            <trkpt lon="100.957607" lat="12.897188">
                <ele>52.000000</ele>
                <time>2018-02-26T11:49:21.644Z</time>
            </trkpt>
            <trkpt lon="100.957583" lat="12.897211">
                <ele>52.000000</ele>
                <time>2018-02-26T11:49:25.644Z</time>
            </trkpt>
            <trkpt lon="100.957551" lat="12.897228">
                <ele>52.000000</ele>
                <time>2018-02-26T11:49:27.644Z</time>
            </trkpt>
            <trkpt lon="100.957503" lat="12.897247">
                <ele>52.000000</ele>
                <time>2018-02-26T11:49:29.644Z</time>
            </trkpt>
            <trkpt lon="100.957478" lat="12.897262">
                <ele>51.900000</ele>
                <time>2018-02-26T11:49:30.644Z</time>
            </trkpt>
            <trkpt lon="100.957448" lat="12.897277">
                <ele>51.900000</ele>
                <time>2018-02-26T11:49:31.644Z</time>
            </trkpt>
            <trkpt lon="100.957416" lat="12.897285">
                <ele>51.900000</ele>
                <time>2018-02-26T11:49:32.644Z</time>
            </trkpt>
            <trkpt lon="100.957382" lat="12.897297">
                <ele>51.900000</ele>
                <time>2018-02-26T11:49:33.644Z</time>
            </trkpt>
            <trkpt lon="100.957350" lat="12.897312">
                <ele>51.800000</ele>
                <time>2018-02-26T11:49:34.644Z</time>
            </trkpt>
            <trkpt lon="100.957318" lat="12.897325">
                <ele>51.800000</ele>
                <time>2018-02-26T11:49:35.644Z</time>
            </trkpt>
            <trkpt lon="100.957288" lat="12.897339">
                <ele>51.800000</ele>
                <time>2018-02-26T11:49:36.644Z</time>
            </trkpt>
            <trkpt lon="100.957256" lat="12.897349">
                <ele>51.800000</ele>
                <time>2018-02-26T11:49:37.644Z</time>
            </trkpt>
            <trkpt lon="100.957220" lat="12.897358">
                <ele>51.700000</ele>
                <time>2018-02-26T11:49:38.644Z</time>
            </trkpt>
            <trkpt lon="100.957180" lat="12.897370">
                <ele>51.700000</ele>
                <time>2018-02-26T11:49:39.644Z</time>
            </trkpt>
            <trkpt lon="100.957143" lat="12.897381">
                <ele>51.700000</ele>
                <time>2018-02-26T11:49:40.644Z</time>
            </trkpt>
            <trkpt lon="100.957110" lat="12.897390">
                <ele>51.700000</ele>
                <time>2018-02-26T11:49:41.644Z</time>
            </trkpt>
            <trkpt lon="100.957081" lat="12.897398">
                <ele>51.700000</ele>
                <time>2018-02-26T11:49:42.644Z</time>
            </trkpt>
            <trkpt lon="100.957047" lat="12.897410">
                <ele>51.700000</ele>
                <time>2018-02-26T11:49:43.644Z</time>
            </trkpt>
            <trkpt lon="100.957014" lat="12.897423">
                <ele>51.700000</ele>
                <time>2018-02-26T11:49:44.644Z</time>
            </trkpt>
            <trkpt lon="100.956989" lat="12.897438">
                <ele>51.700000</ele>
                <time>2018-02-26T11:49:45.644Z</time>
            </trkpt>
            <trkpt lon="100.956970" lat="12.897475">
                <ele>51.700000</ele>
                <time>2018-02-26T11:49:47.644Z</time>
            </trkpt>
            <trkpt lon="100.956980" lat="12.897512">
                <ele>51.700000</ele>
                <time>2018-02-26T11:49:58.644Z</time>
            </trkpt>
            <trkpt lon="100.956991" lat="12.897547">
                <ele>51.600000</ele>
                <time>2018-02-26T11:50:00.644Z</time>
            </trkpt>
            <trkpt lon="100.957000" lat="12.897589">
                <ele>51.600000</ele>
                <time>2018-02-26T11:50:02.644Z</time>
            </trkpt>
            <trkpt lon="100.957002" lat="12.897620">
                <ele>51.600000</ele>
                <time>2018-02-26T11:50:03.644Z</time>
            </trkpt>
            <trkpt lon="100.957003" lat="12.897651">
                <ele>51.700000</ele>
                <time>2018-02-26T11:50:04.644Z</time>
            </trkpt>
            <trkpt lon="100.957006" lat="12.897687">
                <ele>51.700000</ele>
                <time>2018-02-26T11:50:05.644Z</time>
            </trkpt>
            <trkpt lon="100.957007" lat="12.897729">
                <ele>51.700000</ele>
                <time>2018-02-26T11:50:06.644Z</time>
            </trkpt>
            <trkpt lon="100.957009" lat="12.897771">
                <ele>51.700000</ele>
                <time>2018-02-26T11:50:07.644Z</time>
            </trkpt>
            <trkpt lon="100.957008" lat="12.897812">
                <ele>51.600000</ele>
                <time>2018-02-26T11:50:08.644Z</time>
            </trkpt>
            <trkpt lon="100.957007" lat="12.897856">
                <ele>51.500000</ele>
                <time>2018-02-26T11:50:09.644Z</time>
            </trkpt>
            <trkpt lon="100.957006" lat="12.897903">
                <ele>51.500000</ele>
                <time>2018-02-26T11:50:10.644Z</time>
            </trkpt>
            <trkpt lon="100.957005" lat="12.897949">
                <ele>51.400000</ele>
                <time>2018-02-26T11:50:11.644Z</time>
            </trkpt>
            <trkpt lon="100.957001" lat="12.897991">
                <ele>51.200000</ele>
                <time>2018-02-26T11:50:12.644Z</time>
            </trkpt>
            <trkpt lon="100.956996" lat="12.898035">
                <ele>50.900000</ele>
                <time>2018-02-26T11:50:13.644Z</time>
            </trkpt>
            <trkpt lon="100.956990" lat="12.898074">
                <ele>50.900000</ele>
                <time>2018-02-26T11:50:14.644Z</time>
            </trkpt>
            <trkpt lon="100.956985" lat="12.898116">
                <ele>50.900000</ele>
                <time>2018-02-26T11:50:15.644Z</time>
            </trkpt>
            <trkpt lon="100.956982" lat="12.898157">
                <ele>50.900000</ele>
                <time>2018-02-26T11:50:16.644Z</time>
            </trkpt>
            <trkpt lon="100.956982" lat="12.898199">
                <ele>51.000000</ele>
                <time>2018-02-26T11:50:17.644Z</time>
            </trkpt>
            <trkpt lon="100.956985" lat="12.898241">
                <ele>51.000000</ele>
                <time>2018-02-26T11:50:18.644Z</time>
            </trkpt>
            <trkpt lon="100.956991" lat="12.898286">
                <ele>51.000000</ele>
                <time>2018-02-26T11:50:19.644Z</time>
            </trkpt>
            <trkpt lon="100.956997" lat="12.898325">
                <ele>51.000000</ele>
                <time>2018-02-26T11:50:20.644Z</time>
            </trkpt>
            <trkpt lon="100.956997" lat="12.898367">
                <ele>51.100000</ele>
                <time>2018-02-26T11:50:21.644Z</time>
            </trkpt>
            <trkpt lon="100.956993" lat="12.898408">
                <ele>51.100000</ele>
                <time>2018-02-26T11:50:22.644Z</time>
            </trkpt>
            <trkpt lon="100.956992" lat="12.898452">
                <ele>51.600000</ele>
                <time>2018-02-26T11:50:23.644Z</time>
            </trkpt>
            <trkpt lon="100.956992" lat="12.898497">
                <ele>51.800000</ele>
                <time>2018-02-26T11:50:24.644Z</time>
            </trkpt>
            <trkpt lon="100.956998" lat="12.898542">
                <ele>52.100000</ele>
                <time>2018-02-26T11:50:25.644Z</time>
            </trkpt>
            <trkpt lon="100.957003" lat="12.898580">
                <ele>52.300000</ele>
                <time>2018-02-26T11:50:26.644Z</time>
            </trkpt>
            <trkpt lon="100.957004" lat="12.898616">
                <ele>52.300000</ele>
                <time>2018-02-26T11:50:27.644Z</time>
            </trkpt>
            <trkpt lon="100.957005" lat="12.898658">
                <ele>52.400000</ele>
                <time>2018-02-26T11:50:28.644Z</time>
            </trkpt>
            <trkpt lon="100.957008" lat="12.898699">
                <ele>52.500000</ele>
                <time>2018-02-26T11:50:29.644Z</time>
            </trkpt>
            <trkpt lon="100.957011" lat="12.898737">
                <ele>52.600000</ele>
                <time>2018-02-26T11:50:30.644Z</time>
            </trkpt>
            <trkpt lon="100.957018" lat="12.898777">
                <ele>52.600000</ele>
                <time>2018-02-26T11:50:31.644Z</time>
            </trkpt>
            <trkpt lon="100.957024" lat="12.898816">
                <ele>52.800000</ele>
                <time>2018-02-26T11:50:32.644Z</time>
            </trkpt>
            <trkpt lon="100.957028" lat="12.898850">
                <ele>53.100000</ele>
                <time>2018-02-26T11:50:33.644Z</time>
            </trkpt>
            <trkpt lon="100.957028" lat="12.898885">
                <ele>53.300000</ele>
                <time>2018-02-26T11:50:34.644Z</time>
            </trkpt>
            <trkpt lon="100.957025" lat="12.898922">
                <ele>53.400000</ele>
                <time>2018-02-26T11:50:35.644Z</time>
            </trkpt>
            <trkpt lon="100.957027" lat="12.898962">
                <ele>53.400000</ele>
                <time>2018-02-26T11:50:36.644Z</time>
            </trkpt>
            <trkpt lon="100.957025" lat="12.898998">
                <ele>53.400000</ele>
                <time>2018-02-26T11:50:37.644Z</time>
            </trkpt>
            <trkpt lon="100.957026" lat="12.899038">
                <ele>53.500000</ele>
                <time>2018-02-26T11:50:38.644Z</time>
            </trkpt>
            <trkpt lon="100.957030" lat="12.899079">
                <ele>53.500000</ele>
                <time>2018-02-26T11:50:39.644Z</time>
            </trkpt>
            <trkpt lon="100.957035" lat="12.899121">
                <ele>53.500000</ele>
                <time>2018-02-26T11:50:40.644Z</time>
            </trkpt>
            <trkpt lon="100.957039" lat="12.899166">
                <ele>53.500000</ele>
                <time>2018-02-26T11:50:41.644Z</time>
            </trkpt>
            <trkpt lon="100.957043" lat="12.899207">
                <ele>53.600000</ele>
                <time>2018-02-26T11:50:42.644Z</time>
            </trkpt>
            <trkpt lon="100.957047" lat="12.899251">
                <ele>53.600000</ele>
                <time>2018-02-26T11:50:43.644Z</time>
            </trkpt>
            <trkpt lon="100.957054" lat="12.899296">
                <ele>53.600000</ele>
                <time>2018-02-26T11:50:44.644Z</time>
            </trkpt>
            <trkpt lon="100.957061" lat="12.899341">
                <ele>53.700000</ele>
                <time>2018-02-26T11:50:45.644Z</time>
            </trkpt>
            <trkpt lon="100.957066" lat="12.899384">
                <ele>53.800000</ele>
                <time>2018-02-26T11:50:46.644Z</time>
            </trkpt>
            <trkpt lon="100.957070" lat="12.899426">
                <ele>54.000000</ele>
                <time>2018-02-26T11:50:47.644Z</time>
            </trkpt>
            <trkpt lon="100.957070" lat="12.899468">
                <ele>54.200000</ele>
                <time>2018-02-26T11:50:48.644Z</time>
            </trkpt>
            <trkpt lon="100.957073" lat="12.899508">
                <ele>54.500000</ele>
                <time>2018-02-26T11:50:49.644Z</time>
            </trkpt>
            <trkpt lon="100.957078" lat="12.899543">
                <ele>54.700000</ele>
                <time>2018-02-26T11:50:50.644Z</time>
            </trkpt>
            <trkpt lon="100.957083" lat="12.899577">
                <ele>54.700000</ele>
                <time>2018-02-26T11:50:51.644Z</time>
            </trkpt>
            <trkpt lon="100.957088" lat="12.899613">
                <ele>54.800000</ele>
                <time>2018-02-26T11:50:52.644Z</time>
            </trkpt>
            <trkpt lon="100.957095" lat="12.899647">
                <ele>54.800000</ele>
                <time>2018-02-26T11:50:53.644Z</time>
            </trkpt>
            <trkpt lon="100.957101" lat="12.899683">
                <ele>54.900000</ele>
                <time>2018-02-26T11:50:54.644Z</time>
            </trkpt>
            <trkpt lon="100.957104" lat="12.899714">
                <ele>54.900000</ele>
                <time>2018-02-26T11:50:55.644Z</time>
            </trkpt>
            <trkpt lon="100.957112" lat="12.899761">
                <ele>55.000000</ele>
                <time>2018-02-26T11:50:57.644Z</time>
            </trkpt>
            <trkpt lon="100.957134" lat="12.899800">
                <ele>55.100000</ele>
                <time>2018-02-26T11:50:59.644Z</time>
            </trkpt>
            <trkpt lon="100.957153" lat="12.899829">
                <ele>55.200000</ele>
                <time>2018-02-26T11:51:01.644Z</time>
            </trkpt>
            <trkpt lon="100.957148" lat="12.899856">
                <ele>55.400000</ele>
                <time>2018-02-26T11:51:03.644Z</time>
            </trkpt>
            <trkpt lon="100.957141" lat="12.899896">
                <ele>55.400000</ele>
                <time>2018-02-26T11:51:05.644Z</time>
            </trkpt>
            <trkpt lon="100.957136" lat="12.899943">
                <ele>55.400000</ele>
                <time>2018-02-26T11:51:07.644Z</time>
            </trkpt>
            <trkpt lon="100.957121" lat="12.899995">
                <ele>55.400000</ele>
                <time>2018-02-26T11:51:09.644Z</time>
            </trkpt>
            <trkpt lon="100.957113" lat="12.900023">
                <ele>55.400000</ele>
                <time>2018-02-26T11:51:10.644Z</time>
            </trkpt>
            <trkpt lon="100.957105" lat="12.900051">
                <ele>55.400000</ele>
                <time>2018-02-26T11:51:11.644Z</time>
            </trkpt>
            <trkpt lon="100.957097" lat="12.900077">
                <ele>55.400000</ele>
                <time>2018-02-26T11:51:12.644Z</time>
            </trkpt>
            <trkpt lon="100.957088" lat="12.900122">
                <ele>55.400000</ele>
                <time>2018-02-26T11:51:14.644Z</time>
            </trkpt>
            <trkpt lon="100.957088" lat="12.900152">
                <ele>55.400000</ele>
                <time>2018-02-26T11:51:16.644Z</time>
            </trkpt>
            <trkpt lon="100.957105" lat="12.900190">
                <ele>55.400000</ele>
                <time>2018-02-26T11:51:22.644Z</time>
            </trkpt>
            <trkpt lon="100.957117" lat="12.900236">
                <ele>55.400000</ele>
                <time>2018-02-26T11:51:24.644Z</time>
            </trkpt>
            <trkpt lon="100.957132" lat="12.900291">
                <ele>55.400000</ele>
                <time>2018-02-26T11:51:26.644Z</time>
            </trkpt>
            <trkpt lon="100.957138" lat="12.900319">
                <ele>55.400000</ele>
                <time>2018-02-26T11:51:27.644Z</time>
            </trkpt>
            <trkpt lon="100.957150" lat="12.900350">
                <ele>55.700000</ele>
                <time>2018-02-26T11:51:28.644Z</time>
            </trkpt>
            <trkpt lon="100.957165" lat="12.900386">
                <ele>55.700000</ele>
                <time>2018-02-26T11:51:29.644Z</time>
            </trkpt>
            <trkpt lon="100.957177" lat="12.900417">
                <ele>55.700000</ele>
                <time>2018-02-26T11:51:30.644Z</time>
            </trkpt>
            <trkpt lon="100.957190" lat="12.900447">
                <ele>55.900000</ele>
                <time>2018-02-26T11:51:31.644Z</time>
            </trkpt>
            <trkpt lon="100.957204" lat="12.900472">
                <ele>55.900000</ele>
                <time>2018-02-26T11:51:32.644Z</time>
            </trkpt>
            <trkpt lon="100.957235" lat="12.900520">
                <ele>56.200000</ele>
                <time>2018-02-26T11:51:35.644Z</time>
            </trkpt>
            <trkpt lon="100.957260" lat="12.900553">
                <ele>56.200000</ele>
                <time>2018-02-26T11:51:37.644Z</time>
            </trkpt>
            <trkpt lon="100.957285" lat="12.900586">
                <ele>56.300000</ele>
                <time>2018-02-26T11:51:39.644Z</time>
            </trkpt>
            <trkpt lon="100.957313" lat="12.900621">
                <ele>56.400000</ele>
                <time>2018-02-26T11:51:41.644Z</time>
            </trkpt>
            <trkpt lon="100.957341" lat="12.900668">
                <ele>56.600000</ele>
                <time>2018-02-26T11:51:43.644Z</time>
            </trkpt>
            <trkpt lon="100.957362" lat="12.900715">
                <ele>56.900000</ele>
                <time>2018-02-26T11:51:45.644Z</time>
            </trkpt>
            <trkpt lon="100.957387" lat="12.900768">
                <ele>56.700000</ele>
                <time>2018-02-26T11:51:47.644Z</time>
            </trkpt>
            <trkpt lon="100.957388" lat="12.900802">
                <ele>56.500000</ele>
                <time>2018-02-26T11:51:48.644Z</time>
            </trkpt>
            <trkpt lon="100.957386" lat="12.900837">
                <ele>56.300000</ele>
                <time>2018-02-26T11:51:49.644Z</time>
            </trkpt>
            <trkpt lon="100.957376" lat="12.900870">
                <ele>56.300000</ele>
                <time>2018-02-26T11:51:50.644Z</time>
            </trkpt>
            <trkpt lon="100.957363" lat="12.900901">
                <ele>56.100000</ele>
                <time>2018-02-26T11:51:51.644Z</time>
            </trkpt>
            <trkpt lon="100.957337" lat="12.900927">
                <ele>55.600000</ele>
                <time>2018-02-26T11:51:52.644Z</time>
            </trkpt>
            <trkpt lon="100.957313" lat="12.900952">
                <ele>55.300000</ele>
                <time>2018-02-26T11:51:53.644Z</time>
            </trkpt>
            <trkpt lon="100.957293" lat="12.900973">
                <ele>55.100000</ele>
                <time>2018-02-26T11:51:54.644Z</time>
            </trkpt>
            <trkpt lon="100.957270" lat="12.900995">
                <ele>54.800000</ele>
                <time>2018-02-26T11:51:55.644Z</time>
            </trkpt>
            <trkpt lon="100.957250" lat="12.901026">
                <ele>54.600000</ele>
                <time>2018-02-26T11:51:56.644Z</time>
            </trkpt>
            <trkpt lon="100.957232" lat="12.901059">
                <ele>54.300000</ele>
                <time>2018-02-26T11:51:57.644Z</time>
            </trkpt>
            <trkpt lon="100.957214" lat="12.901090">
                <ele>54.100000</ele>
                <time>2018-02-26T11:51:58.644Z</time>
            </trkpt>
            <trkpt lon="100.957188" lat="12.901118">
                <ele>54.100000</ele>
                <time>2018-02-26T11:51:59.644Z</time>
            </trkpt>
            <trkpt lon="100.957160" lat="12.901142">
                <ele>54.100000</ele>
                <time>2018-02-26T11:52:00.644Z</time>
            </trkpt>
            <trkpt lon="100.957134" lat="12.901168">
                <ele>54.100000</ele>
                <time>2018-02-26T11:52:01.644Z</time>
            </trkpt>
            <trkpt lon="100.957110" lat="12.901193">
                <ele>54.100000</ele>
                <time>2018-02-26T11:52:02.644Z</time>
            </trkpt>
            <trkpt lon="100.957081" lat="12.901218">
                <ele>54.100000</ele>
                <time>2018-02-26T11:52:03.644Z</time>
            </trkpt>
            <trkpt lon="100.957050" lat="12.901246">
                <ele>54.100000</ele>
                <time>2018-02-26T11:52:04.644Z</time>
            </trkpt>
            <trkpt lon="100.957019" lat="12.901276">
                <ele>54.100000</ele>
                <time>2018-02-26T11:52:05.644Z</time>
            </trkpt>
            <trkpt lon="100.956989" lat="12.901307">
                <ele>54.100000</ele>
                <time>2018-02-26T11:52:06.644Z</time>
            </trkpt>
            <trkpt lon="100.956962" lat="12.901336">
                <ele>54.100000</ele>
                <time>2018-02-26T11:52:07.644Z</time>
            </trkpt>
            <trkpt lon="100.956934" lat="12.901364">
                <ele>54.100000</ele>
                <time>2018-02-26T11:52:08.644Z</time>
            </trkpt>
            <trkpt lon="100.956906" lat="12.901394">
                <ele>54.100000</ele>
                <time>2018-02-26T11:52:09.644Z</time>
            </trkpt>
            <trkpt lon="100.956878" lat="12.901424">
                <ele>54.200000</ele>
                <time>2018-02-26T11:52:10.644Z</time>
            </trkpt>
            <trkpt lon="100.956850" lat="12.901456">
                <ele>54.200000</ele>
                <time>2018-02-26T11:52:11.644Z</time>
            </trkpt>
            <trkpt lon="100.956823" lat="12.901489">
                <ele>54.400000</ele>
                <time>2018-02-26T11:52:12.644Z</time>
            </trkpt>
            <trkpt lon="100.956797" lat="12.901520">
                <ele>54.400000</ele>
                <time>2018-02-26T11:52:13.644Z</time>
            </trkpt>
            <trkpt lon="100.956773" lat="12.901551">
                <ele>54.200000</ele>
                <time>2018-02-26T11:52:14.644Z</time>
            </trkpt>
            <trkpt lon="100.956748" lat="12.901584">
                <ele>54.300000</ele>
                <time>2018-02-26T11:52:15.644Z</time>
            </trkpt>
            <trkpt lon="100.956718" lat="12.901608">
                <ele>54.300000</ele>
                <time>2018-02-26T11:52:16.644Z</time>
            </trkpt>
            <trkpt lon="100.956689" lat="12.901630">
                <ele>54.500000</ele>
                <time>2018-02-26T11:52:17.644Z</time>
            </trkpt>
            <trkpt lon="100.956664" lat="12.901654">
                <ele>55.100000</ele>
                <time>2018-02-26T11:52:18.644Z</time>
            </trkpt>
            <trkpt lon="100.956645" lat="12.901680">
                <ele>55.300000</ele>
                <time>2018-02-26T11:52:19.644Z</time>
            </trkpt>
            <trkpt lon="100.956627" lat="12.901706">
                <ele>55.600000</ele>
                <time>2018-02-26T11:52:20.644Z</time>
            </trkpt>
            <trkpt lon="100.956607" lat="12.901733">
                <ele>55.700000</ele>
                <time>2018-02-26T11:52:21.644Z</time>
            </trkpt>
            <trkpt lon="100.956584" lat="12.901760">
                <ele>56.300000</ele>
                <time>2018-02-26T11:52:22.644Z</time>
            </trkpt>
            <trkpt lon="100.956551" lat="12.901789">
                <ele>56.300000</ele>
                <time>2018-02-26T11:52:23.644Z</time>
            </trkpt>
            <trkpt lon="100.956522" lat="12.901818">
                <ele>57.000000</ele>
                <time>2018-02-26T11:52:24.644Z</time>
            </trkpt>
            <trkpt lon="100.956491" lat="12.901847">
                <ele>57.600000</ele>
                <time>2018-02-26T11:52:25.644Z</time>
            </trkpt>
            <trkpt lon="100.956463" lat="12.901876">
                <ele>57.600000</ele>
                <time>2018-02-26T11:52:26.644Z</time>
            </trkpt>
            <trkpt lon="100.956438" lat="12.901903">
                <ele>58.100000</ele>
                <time>2018-02-26T11:52:27.644Z</time>
            </trkpt>
            <trkpt lon="100.956426" lat="12.901935">
                <ele>58.200000</ele>
                <time>2018-02-26T11:52:28.644Z</time>
            </trkpt>
            <trkpt lon="100.956417" lat="12.901966">
                <ele>58.200000</ele>
                <time>2018-02-26T11:52:29.644Z</time>
            </trkpt>
            <trkpt lon="100.956407" lat="12.902001">
                <ele>58.200000</ele>
                <time>2018-02-26T11:52:30.644Z</time>
            </trkpt>
            <trkpt lon="100.956404" lat="12.902029">
                <ele>58.200000</ele>
                <time>2018-02-26T11:52:31.644Z</time>
            </trkpt>
            <trkpt lon="100.956407" lat="12.902066">
                <ele>58.200000</ele>
                <time>2018-02-26T11:52:32.644Z</time>
            </trkpt>
            <trkpt lon="100.956417" lat="12.902096">
                <ele>58.200000</ele>
                <time>2018-02-26T11:52:33.644Z</time>
            </trkpt>
            <trkpt lon="100.956441" lat="12.902131">
                <ele>58.200000</ele>
                <time>2018-02-26T11:52:35.644Z</time>
            </trkpt>
            <trkpt lon="100.956468" lat="12.902155">
                <ele>58.200000</ele>
                <time>2018-02-26T11:52:37.644Z</time>
            </trkpt>
            <trkpt lon="100.956495" lat="12.902188">
                <ele>58.200000</ele>
                <time>2018-02-26T11:52:39.644Z</time>
            </trkpt>
            <trkpt lon="100.956532" lat="12.902219">
                <ele>58.200000</ele>
                <time>2018-02-26T11:52:41.644Z</time>
            </trkpt>
            <trkpt lon="100.956568" lat="12.902258">
                <ele>58.200000</ele>
                <time>2018-02-26T11:52:43.644Z</time>
            </trkpt>
            <trkpt lon="100.956588" lat="12.902284">
                <ele>58.200000</ele>
                <time>2018-02-26T11:52:44.644Z</time>
            </trkpt>
            <trkpt lon="100.956609" lat="12.902315">
                <ele>58.100000</ele>
                <time>2018-02-26T11:52:45.644Z</time>
            </trkpt>
            <trkpt lon="100.956629" lat="12.902346">
                <ele>58.000000</ele>
                <time>2018-02-26T11:52:46.644Z</time>
            </trkpt>
            <trkpt lon="100.956652" lat="12.902378">
                <ele>57.900000</ele>
                <time>2018-02-26T11:52:47.644Z</time>
            </trkpt>
            <trkpt lon="100.956677" lat="12.902408">
                <ele>57.500000</ele>
                <time>2018-02-26T11:52:48.644Z</time>
            </trkpt>
            <trkpt lon="100.956700" lat="12.902438">
                <ele>57.400000</ele>
                <time>2018-02-26T11:52:49.644Z</time>
            </trkpt>
            <trkpt lon="100.956721" lat="12.902473">
                <ele>57.300000</ele>
                <time>2018-02-26T11:52:50.644Z</time>
            </trkpt>
            <trkpt lon="100.956739" lat="12.902506">
                <ele>57.300000</ele>
                <time>2018-02-26T11:52:51.644Z</time>
            </trkpt>
            <trkpt lon="100.956758" lat="12.902543">
                <ele>57.300000</ele>
                <time>2018-02-26T11:52:52.644Z</time>
            </trkpt>
            <trkpt lon="100.956775" lat="12.902579">
                <ele>57.300000</ele>
                <time>2018-02-26T11:52:53.644Z</time>
            </trkpt>
            <trkpt lon="100.956793" lat="12.902612">
                <ele>57.300000</ele>
                <time>2018-02-26T11:52:54.644Z</time>
            </trkpt>
            <trkpt lon="100.956807" lat="12.902645">
                <ele>57.300000</ele>
                <time>2018-02-26T11:52:55.644Z</time>
            </trkpt>
            <trkpt lon="100.956820" lat="12.902677">
                <ele>57.300000</ele>
                <time>2018-02-26T11:52:56.644Z</time>
            </trkpt>
            <trkpt lon="100.956836" lat="12.902704">
                <ele>57.300000</ele>
                <time>2018-02-26T11:52:57.644Z</time>
            </trkpt>
            <trkpt lon="100.956856" lat="12.902730">
                <ele>57.300000</ele>
                <time>2018-02-26T11:52:58.644Z</time>
            </trkpt>
            <trkpt lon="100.956878" lat="12.902757">
                <ele>57.300000</ele>
                <time>2018-02-26T11:52:59.644Z</time>
            </trkpt>
            <trkpt lon="100.956901" lat="12.902784">
                <ele>57.300000</ele>
                <time>2018-02-26T11:53:00.644Z</time>
            </trkpt>
            <trkpt lon="100.956924" lat="12.902815">
                <ele>57.300000</ele>
                <time>2018-02-26T11:53:01.644Z</time>
            </trkpt>
            <trkpt lon="100.956944" lat="12.902847">
                <ele>57.300000</ele>
                <time>2018-02-26T11:53:02.644Z</time>
            </trkpt>
            <trkpt lon="100.956959" lat="12.902881">
                <ele>57.300000</ele>
                <time>2018-02-26T11:53:03.644Z</time>
            </trkpt>
            <trkpt lon="100.956973" lat="12.902917">
                <ele>57.300000</ele>
                <time>2018-02-26T11:53:04.644Z</time>
            </trkpt>
            <trkpt lon="100.956981" lat="12.902952">
                <ele>57.300000</ele>
                <time>2018-02-26T11:53:05.644Z</time>
            </trkpt>
            <trkpt lon="100.956987" lat="12.902986">
                <ele>57.300000</ele>
                <time>2018-02-26T11:53:06.644Z</time>
            </trkpt>
            <trkpt lon="100.956995" lat="12.903016">
                <ele>57.300000</ele>
                <time>2018-02-26T11:53:07.644Z</time>
            </trkpt>
            <trkpt lon="100.957003" lat="12.903048">
                <ele>57.300000</ele>
                <time>2018-02-26T11:53:08.644Z</time>
            </trkpt>
            <trkpt lon="100.957017" lat="12.903082">
                <ele>57.300000</ele>
                <time>2018-02-26T11:53:09.644Z</time>
            </trkpt>
            <trkpt lon="100.957030" lat="12.903117">
                <ele>57.200000</ele>
                <time>2018-02-26T11:53:10.644Z</time>
            </trkpt>
            <trkpt lon="100.957039" lat="12.903145">
                <ele>57.000000</ele>
                <time>2018-02-26T11:53:11.644Z</time>
            </trkpt>
            <trkpt lon="100.957048" lat="12.903173">
                <ele>57.000000</ele>
                <time>2018-02-26T11:53:12.644Z</time>
            </trkpt>
            <trkpt lon="100.957060" lat="12.903200">
                <ele>56.700000</ele>
                <time>2018-02-26T11:53:13.644Z</time>
            </trkpt>
            <trkpt lon="100.957071" lat="12.903227">
                <ele>56.500000</ele>
                <time>2018-02-26T11:53:14.644Z</time>
            </trkpt>
            <trkpt lon="100.957083" lat="12.903254">
                <ele>56.500000</ele>
                <time>2018-02-26T11:53:15.644Z</time>
            </trkpt>
            <trkpt lon="100.957095" lat="12.903285">
                <ele>56.400000</ele>
                <time>2018-02-26T11:53:16.644Z</time>
            </trkpt>
            <trkpt lon="100.957096" lat="12.903320">
                <ele>56.400000</ele>
                <time>2018-02-26T11:53:17.644Z</time>
            </trkpt>
            <trkpt lon="100.957095" lat="12.903358">
                <ele>56.400000</ele>
                <time>2018-02-26T11:53:18.644Z</time>
            </trkpt>
            <trkpt lon="100.957096" lat="12.903394">
                <ele>56.400000</ele>
                <time>2018-02-26T11:53:19.644Z</time>
            </trkpt>
            <trkpt lon="100.957100" lat="12.903431">
                <ele>56.300000</ele>
                <time>2018-02-26T11:53:20.644Z</time>
            </trkpt>
            <trkpt lon="100.957104" lat="12.903468">
                <ele>56.300000</ele>
                <time>2018-02-26T11:53:21.644Z</time>
            </trkpt>
            <trkpt lon="100.957106" lat="12.903504">
                <ele>56.000000</ele>
                <time>2018-02-26T11:53:22.644Z</time>
            </trkpt>
            <trkpt lon="100.957114" lat="12.903542">
                <ele>55.800000</ele>
                <time>2018-02-26T11:53:23.644Z</time>
            </trkpt>
            <trkpt lon="100.957125" lat="12.903572">
                <ele>55.500000</ele>
                <time>2018-02-26T11:53:24.644Z</time>
            </trkpt>
            <trkpt lon="100.957144" lat="12.903604">
                <ele>55.300000</ele>
                <time>2018-02-26T11:53:25.644Z</time>
            </trkpt>
            <trkpt lon="100.957164" lat="12.903633">
                <ele>55.300000</ele>
                <time>2018-02-26T11:53:26.644Z</time>
            </trkpt>
            <trkpt lon="100.957185" lat="12.903659">
                <ele>55.000000</ele>
                <time>2018-02-26T11:53:27.644Z</time>
            </trkpt>
            <trkpt lon="100.957205" lat="12.903684">
                <ele>54.800000</ele>
                <time>2018-02-26T11:53:28.644Z</time>
            </trkpt>
            <trkpt lon="100.957228" lat="12.903707">
                <ele>54.800000</ele>
                <time>2018-02-26T11:53:29.644Z</time>
            </trkpt>
            <trkpt lon="100.957249" lat="12.903726">
                <ele>54.800000</ele>
                <time>2018-02-26T11:53:30.644Z</time>
            </trkpt>
            <trkpt lon="100.957281" lat="12.903733">
                <ele>55.300000</ele>
                <time>2018-02-26T11:53:32.644Z</time>
            </trkpt>
            <trkpt lon="100.957324" lat="12.903733">
                <ele>55.800000</ele>
                <time>2018-02-26T11:53:34.644Z</time>
            </trkpt>
            <trkpt lon="100.957379" lat="12.903745">
                <ele>56.200000</ele>
                <time>2018-02-26T11:53:36.644Z</time>
            </trkpt>
            <trkpt lon="100.957410" lat="12.903751">
                <ele>56.700000</ele>
                <time>2018-02-26T11:53:37.644Z</time>
            </trkpt>
            <trkpt lon="100.957442" lat="12.903758">
                <ele>56.700000</ele>
                <time>2018-02-26T11:53:38.644Z</time>
            </trkpt>
            <trkpt lon="100.957472" lat="12.903763">
                <ele>57.200000</ele>
                <time>2018-02-26T11:53:39.644Z</time>
            </trkpt>
            <trkpt lon="100.957514" lat="12.903763">
                <ele>57.700000</ele>
                <time>2018-02-26T11:53:46.644Z</time>
            </trkpt>
            <trkpt lon="100.957567" lat="12.903771">
                <ele>58.100000</ele>
                <time>2018-02-26T11:53:48.644Z</time>
            </trkpt>
            <trkpt lon="100.957600" lat="12.903777">
                <ele>58.500000</ele>
                <time>2018-02-26T11:53:49.644Z</time>
            </trkpt>
            <trkpt lon="100.957635" lat="12.903786">
                <ele>58.700000</ele>
                <time>2018-02-26T11:53:50.644Z</time>
            </trkpt>
            <trkpt lon="100.957671" lat="12.903794">
                <ele>59.000000</ele>
                <time>2018-02-26T11:53:51.644Z</time>
            </trkpt>
            <trkpt lon="100.957704" lat="12.903801">
                <ele>59.200000</ele>
                <time>2018-02-26T11:53:52.644Z</time>
            </trkpt>
            <trkpt lon="100.957739" lat="12.903811">
                <ele>59.000000</ele>
                <time>2018-02-26T11:53:53.644Z</time>
            </trkpt>
            <trkpt lon="100.957774" lat="12.903825">
                <ele>59.100000</ele>
                <time>2018-02-26T11:53:54.644Z</time>
            </trkpt>
            <trkpt lon="100.957810" lat="12.903838">
                <ele>59.100000</ele>
                <time>2018-02-26T11:53:55.644Z</time>
            </trkpt>
            <trkpt lon="100.957844" lat="12.903845">
                <ele>59.100000</ele>
                <time>2018-02-26T11:53:56.644Z</time>
            </trkpt>
            <trkpt lon="100.957879" lat="12.903852">
                <ele>58.900000</ele>
                <time>2018-02-26T11:53:57.644Z</time>
            </trkpt>
            <trkpt lon="100.957918" lat="12.903859">
                <ele>58.900000</ele>
                <time>2018-02-26T11:53:58.644Z</time>
            </trkpt>
            <trkpt lon="100.957959" lat="12.903872">
                <ele>58.800000</ele>
                <time>2018-02-26T11:53:59.644Z</time>
            </trkpt>
            <trkpt lon="100.957995" lat="12.903886">
                <ele>58.700000</ele>
                <time>2018-02-26T11:54:00.644Z</time>
            </trkpt>
            <trkpt lon="100.958031" lat="12.903900">
                <ele>58.500000</ele>
                <time>2018-02-26T11:54:01.644Z</time>
            </trkpt>
            <trkpt lon="100.958064" lat="12.903912">
                <ele>58.500000</ele>
                <time>2018-02-26T11:54:02.644Z</time>
            </trkpt>
            <trkpt lon="100.958096" lat="12.903921">
                <ele>58.200000</ele>
                <time>2018-02-26T11:54:03.644Z</time>
            </trkpt>
            <trkpt lon="100.958129" lat="12.903929">
                <ele>58.200000</ele>
                <time>2018-02-26T11:54:04.644Z</time>
            </trkpt>
            <trkpt lon="100.958161" lat="12.903937">
                <ele>57.800000</ele>
                <time>2018-02-26T11:54:05.644Z</time>
            </trkpt>
            <trkpt lon="100.958192" lat="12.903947">
                <ele>57.300000</ele>
                <time>2018-02-26T11:54:06.644Z</time>
            </trkpt>
            <trkpt lon="100.958241" lat="12.903974">
                <ele>57.300000</ele>
                <time>2018-02-26T11:54:08.644Z</time>
            </trkpt>
            <trkpt lon="100.958268" lat="12.903986">
                <ele>57.400000</ele>
                <time>2018-02-26T11:54:09.644Z</time>
            </trkpt>
            <trkpt lon="100.958294" lat="12.903997">
                <ele>57.400000</ele>
                <time>2018-02-26T11:54:10.644Z</time>
            </trkpt>
            <trkpt lon="100.958318" lat="12.904015">
                <ele>58.400000</ele>
                <time>2018-02-26T11:54:11.644Z</time>
            </trkpt>
            <trkpt lon="100.958341" lat="12.904034">
                <ele>58.400000</ele>
                <time>2018-02-26T11:54:12.644Z</time>
            </trkpt>
            <trkpt lon="100.958363" lat="12.904050">
                <ele>58.800000</ele>
                <time>2018-02-26T11:54:13.644Z</time>
            </trkpt>
            <trkpt lon="100.958386" lat="12.904067">
                <ele>59.400000</ele>
                <time>2018-02-26T11:54:14.644Z</time>
            </trkpt>
            <trkpt lon="100.958411" lat="12.904086">
                <ele>59.900000</ele>
                <time>2018-02-26T11:54:15.644Z</time>
            </trkpt>
            <trkpt lon="100.958428" lat="12.904108">
                <ele>60.500000</ele>
                <time>2018-02-26T11:54:16.644Z</time>
            </trkpt>
            <trkpt lon="100.958441" lat="12.904134">
                <ele>61.000000</ele>
                <time>2018-02-26T11:54:19.644Z</time>
            </trkpt>
            <trkpt lon="100.958466" lat="12.904169">
                <ele>61.500000</ele>
                <time>2018-02-26T11:54:22.644Z</time>
            </trkpt>
            <trkpt lon="100.958473" lat="12.904205">
                <ele>62.000000</ele>
                <time>2018-02-26T11:54:24.644Z</time>
            </trkpt>
            <trkpt lon="100.958474" lat="12.904244">
                <ele>62.500000</ele>
                <time>2018-02-26T11:54:26.644Z</time>
            </trkpt>
            <trkpt lon="100.958470" lat="12.904275">
                <ele>63.000000</ele>
                <time>2018-02-26T11:54:28.644Z</time>
            </trkpt>
            <trkpt lon="100.958470" lat="12.904316">
                <ele>63.500000</ele>
                <time>2018-02-26T11:54:30.644Z</time>
            </trkpt>
            <trkpt lon="100.958470" lat="12.904352">
                <ele>64.000000</ele>
                <time>2018-02-26T11:54:40.644Z</time>
            </trkpt>
            <trkpt lon="100.958465" lat="12.904386">
                <ele>64.000000</ele>
                <time>2018-02-26T11:54:42.644Z</time>
            </trkpt>
            <trkpt lon="100.958459" lat="12.904428">
                <ele>64.600000</ele>
                <time>2018-02-26T11:54:44.644Z</time>
            </trkpt>
            <trkpt lon="100.958450" lat="12.904475">
                <ele>64.900000</ele>
                <time>2018-02-26T11:54:46.644Z</time>
            </trkpt>
            <trkpt lon="100.958444" lat="12.904531">
                <ele>65.400000</ele>
                <time>2018-02-26T11:54:48.644Z</time>
            </trkpt>
            <trkpt lon="100.958434" lat="12.904562">
                <ele>65.600000</ele>
                <time>2018-02-26T11:54:49.644Z</time>
            </trkpt>
            <trkpt lon="100.958425" lat="12.904595">
                <ele>65.100000</ele>
                <time>2018-02-26T11:54:50.644Z</time>
            </trkpt>
            <trkpt lon="100.958422" lat="12.904630">
                <ele>65.300000</ele>
                <time>2018-02-26T11:54:51.644Z</time>
            </trkpt>
            <trkpt lon="100.958415" lat="12.904668">
                <ele>65.600000</ele>
                <time>2018-02-26T11:54:52.644Z</time>
            </trkpt>
            <trkpt lon="100.958405" lat="12.904704">
                <ele>65.900000</ele>
                <time>2018-02-26T11:54:53.644Z</time>
            </trkpt>
            <trkpt lon="100.958397" lat="12.904743">
                <ele>66.100000</ele>
                <time>2018-02-26T11:54:54.644Z</time>
            </trkpt>
            <trkpt lon="100.958385" lat="12.904780">
                <ele>65.500000</ele>
                <time>2018-02-26T11:54:55.644Z</time>
            </trkpt>
            <trkpt lon="100.958371" lat="12.904819">
                <ele>65.400000</ele>
                <time>2018-02-26T11:54:56.644Z</time>
            </trkpt>
            <trkpt lon="100.958364" lat="12.904860">
                <ele>65.300000</ele>
                <time>2018-02-26T11:54:57.644Z</time>
            </trkpt>
            <trkpt lon="100.958359" lat="12.904901">
                <ele>65.200000</ele>
                <time>2018-02-26T11:54:58.644Z</time>
            </trkpt>
            <trkpt lon="100.958352" lat="12.904943">
                <ele>65.200000</ele>
                <time>2018-02-26T11:54:59.644Z</time>
            </trkpt>
            <trkpt lon="100.958345" lat="12.904984">
                <ele>64.200000</ele>
                <time>2018-02-26T11:55:00.644Z</time>
            </trkpt>
            <trkpt lon="100.958337" lat="12.905020">
                <ele>64.200000</ele>
                <time>2018-02-26T11:55:01.644Z</time>
            </trkpt>
            <trkpt lon="100.958330" lat="12.905050">
                <ele>64.200000</ele>
                <time>2018-02-26T11:55:02.644Z</time>
            </trkpt>
            <trkpt lon="100.958320" lat="12.905085">
                <ele>64.200000</ele>
                <time>2018-02-26T11:55:04.644Z</time>
            </trkpt>
            <trkpt lon="100.958315" lat="12.905115">
                <ele>64.100000</ele>
                <time>2018-02-26T11:55:08.644Z</time>
            </trkpt>
            <trkpt lon="100.958315" lat="12.905168">
                <ele>63.800000</ele>
                <time>2018-02-26T11:55:10.644Z</time>
            </trkpt>
            <trkpt lon="100.958310" lat="12.905206">
                <ele>63.600000</ele>
                <time>2018-02-26T11:55:11.644Z</time>
            </trkpt>
            <trkpt lon="100.958302" lat="12.905243">
                <ele>62.400000</ele>
                <time>2018-02-26T11:55:12.644Z</time>
            </trkpt>
            <trkpt lon="100.958296" lat="12.905279">
                <ele>62.200000</ele>
                <time>2018-02-26T11:55:13.644Z</time>
            </trkpt>
            <trkpt lon="100.958289" lat="12.905323">
                <ele>62.200000</ele>
                <time>2018-02-26T11:55:14.644Z</time>
            </trkpt>
            <trkpt lon="100.958283" lat="12.905362">
                <ele>62.100000</ele>
                <time>2018-02-26T11:55:15.644Z</time>
            </trkpt>
            <trkpt lon="100.958276" lat="12.905405">
                <ele>62.100000</ele>
                <time>2018-02-26T11:55:16.644Z</time>
            </trkpt>
            <trkpt lon="100.958264" lat="12.905447">
                <ele>61.900000</ele>
                <time>2018-02-26T11:55:17.644Z</time>
            </trkpt>
            <trkpt lon="100.958253" lat="12.905487">
                <ele>60.500000</ele>
                <time>2018-02-26T11:55:18.644Z</time>
            </trkpt>
            <trkpt lon="100.958241" lat="12.905527">
                <ele>60.000000</ele>
                <time>2018-02-26T11:55:19.644Z</time>
            </trkpt>
            <trkpt lon="100.958231" lat="12.905564">
                <ele>59.500000</ele>
                <time>2018-02-26T11:55:20.644Z</time>
            </trkpt>
            <trkpt lon="100.958224" lat="12.905593">
                <ele>59.500000</ele>
                <time>2018-02-26T11:55:21.644Z</time>
            </trkpt>
            <trkpt lon="100.958214" lat="12.905623">
                <ele>58.000000</ele>
                <time>2018-02-26T11:55:22.644Z</time>
            </trkpt>
            <trkpt lon="100.958201" lat="12.905658">
                <ele>57.400000</ele>
                <time>2018-02-26T11:55:23.644Z</time>
            </trkpt>
            <trkpt lon="100.958189" lat="12.905692">
                <ele>56.700000</ele>
                <time>2018-02-26T11:55:24.644Z</time>
            </trkpt>
            <trkpt lon="100.958176" lat="12.905726">
                <ele>56.700000</ele>
                <time>2018-02-26T11:55:25.644Z</time>
            </trkpt>
            <trkpt lon="100.958163" lat="12.905756">
                <ele>55.300000</ele>
                <time>2018-02-26T11:55:26.644Z</time>
            </trkpt>
            <trkpt lon="100.958150" lat="12.905789">
                <ele>54.800000</ele>
                <time>2018-02-26T11:55:28.644Z</time>
            </trkpt>
            <trkpt lon="100.958155" lat="12.905829">
                <ele>54.400000</ele>
                <time>2018-02-26T11:55:38.644Z</time>
            </trkpt>
            <trkpt lon="100.958154" lat="12.905861">
                <ele>54.100000</ele>
                <time>2018-02-26T11:55:39.644Z</time>
            </trkpt>
            <trkpt lon="100.958149" lat="12.905892">
                <ele>54.100000</ele>
                <time>2018-02-26T11:55:40.644Z</time>
            </trkpt>
            <trkpt lon="100.958146" lat="12.905928">
                <ele>53.700000</ele>
                <time>2018-02-26T11:55:41.644Z</time>
            </trkpt>
            <trkpt lon="100.958142" lat="12.905968">
                <ele>53.300000</ele>
                <time>2018-02-26T11:55:42.644Z</time>
            </trkpt>
            <trkpt lon="100.958137" lat="12.906010">
                <ele>52.800000</ele>
                <time>2018-02-26T11:55:43.644Z</time>
            </trkpt>
            <trkpt lon="100.958128" lat="12.906051">
                <ele>51.900000</ele>
                <time>2018-02-26T11:55:44.644Z</time>
            </trkpt>
            <trkpt lon="100.958118" lat="12.906092">
                <ele>51.400000</ele>
                <time>2018-02-26T11:55:45.644Z</time>
            </trkpt>
            <trkpt lon="100.958109" lat="12.906136">
                <ele>50.900000</ele>
                <time>2018-02-26T11:55:46.644Z</time>
            </trkpt>
            <trkpt lon="100.958104" lat="12.906178">
                <ele>50.600000</ele>
                <time>2018-02-26T11:55:47.644Z</time>
            </trkpt>
            <trkpt lon="100.958100" lat="12.906219">
                <ele>50.300000</ele>
                <time>2018-02-26T11:55:48.644Z</time>
            </trkpt>
            <trkpt lon="100.958093" lat="12.906260">
                <ele>50.000000</ele>
                <time>2018-02-26T11:55:49.644Z</time>
            </trkpt>
            <trkpt lon="100.958090" lat="12.906301">
                <ele>49.500000</ele>
                <time>2018-02-26T11:55:50.644Z</time>
            </trkpt>
            <trkpt lon="100.958086" lat="12.906342">
                <ele>48.700000</ele>
                <time>2018-02-26T11:55:51.644Z</time>
            </trkpt>
            <trkpt lon="100.958082" lat="12.906379">
                <ele>48.100000</ele>
                <time>2018-02-26T11:55:52.644Z</time>
            </trkpt>
            <trkpt lon="100.958077" lat="12.906417">
                <ele>47.400000</ele>
                <time>2018-02-26T11:55:53.644Z</time>
            </trkpt>
            <trkpt lon="100.958074" lat="12.906451">
                <ele>46.700000</ele>
                <time>2018-02-26T11:55:54.644Z</time>
            </trkpt>
            <trkpt lon="100.958071" lat="12.906482">
                <ele>46.700000</ele>
                <time>2018-02-26T11:55:56.644Z</time>
            </trkpt>
            <trkpt lon="100.958093" lat="12.906519">
                <ele>46.100000</ele>
                <time>2018-02-26T11:56:02.644Z</time>
            </trkpt>
            <trkpt lon="100.958100" lat="12.906549">
                <ele>45.600000</ele>
                <time>2018-02-26T11:56:03.644Z</time>
            </trkpt>
            <trkpt lon="100.958104" lat="12.906576">
                <ele>45.000000</ele>
                <time>2018-02-26T11:56:04.644Z</time>
            </trkpt>
            <trkpt lon="100.958105" lat="12.906604">
                <ele>45.000000</ele>
                <time>2018-02-26T11:56:05.644Z</time>
            </trkpt>
            <trkpt lon="100.958094" lat="12.906633">
                <ele>44.500000</ele>
                <time>2018-02-26T11:56:06.644Z</time>
            </trkpt>
            <trkpt lon="100.958088" lat="12.906662">
                <ele>44.000000</ele>
                <time>2018-02-26T11:56:07.644Z</time>
            </trkpt>
            <trkpt lon="100.958099" lat="12.906699">
                <ele>43.000000</ele>
                <time>2018-02-26T11:56:09.644Z</time>
            </trkpt>
            <trkpt lon="100.958125" lat="12.906717">
                <ele>43.000000</ele>
                <time>2018-02-26T11:56:12.644Z</time>
            </trkpt>
            <trkpt lon="100.958154" lat="12.906741">
                <ele>42.300000</ele>
                <time>2018-02-26T11:56:14.644Z</time>
            </trkpt>
            <trkpt lon="100.958189" lat="12.906777">
                <ele>41.800000</ele>
                <time>2018-02-26T11:56:16.644Z</time>
            </trkpt>
            <trkpt lon="100.958220" lat="12.906820">
                <ele>41.800000</ele>
                <time>2018-02-26T11:56:18.644Z</time>
            </trkpt>
            <trkpt lon="100.958236" lat="12.906842">
                <ele>41.800000</ele>
                <time>2018-02-26T11:56:19.644Z</time>
            </trkpt>
            <trkpt lon="100.958254" lat="12.906864">
                <ele>41.800000</ele>
                <time>2018-02-26T11:56:20.644Z</time>
            </trkpt>
            <trkpt lon="100.958277" lat="12.906908">
                <ele>42.000000</ele>
                <time>2018-02-26T11:56:22.644Z</time>
            </trkpt>
            <trkpt lon="100.958305" lat="12.906943">
                <ele>42.200000</ele>
                <time>2018-02-26T11:56:24.644Z</time>
            </trkpt>
            <trkpt lon="100.958338" lat="12.906980">
                <ele>42.300000</ele>
                <time>2018-02-26T11:56:26.644Z</time>
            </trkpt>
            <trkpt lon="100.958366" lat="12.907023">
                <ele>42.800000</ele>
                <time>2018-02-26T11:56:28.644Z</time>
            </trkpt>
            <trkpt lon="100.958390" lat="12.907064">
                <ele>43.000000</ele>
                <time>2018-02-26T11:56:30.644Z</time>
            </trkpt>
            <trkpt lon="100.958418" lat="12.907096">
                <ele>43.500000</ele>
                <time>2018-02-26T11:56:32.644Z</time>
            </trkpt>
            <trkpt lon="100.958432" lat="12.907072">
                <ele>43.600000</ele>
                <time>2018-02-26T11:58:58.644Z</time>
            </trkpt>
            <trkpt lon="100.958449" lat="12.907047">
                <ele>43.600000</ele>
                <time>2018-02-26T11:59:02.644Z</time>
            </trkpt>
            <trkpt lon="100.958461" lat="12.907015">
                <ele>43.300000</ele>
                <time>2018-02-26T11:59:10.644Z</time>
            </trkpt>
            <trkpt lon="100.958474" lat="12.906985">
                <ele>43.100000</ele>
                <time>2018-02-26T11:59:13.644Z</time>
            </trkpt>
            <trkpt lon="100.958487" lat="12.906958">
                <ele>43.300000</ele>
                <time>2018-02-26T11:59:17.644Z</time>
            </trkpt>
            <trkpt lon="100.958520" lat="12.906951">
                <ele>43.600000</ele>
                <time>2018-02-26T11:59:28.644Z</time>
            </trkpt>
            <trkpt lon="100.958559" lat="12.906917">
                <ele>43.400000</ele>
                <time>2018-02-26T11:59:30.644Z</time>
            </trkpt>
            <trkpt lon="100.958570" lat="12.906884">
                <ele>43.400000</ele>
                <time>2018-02-26T11:59:33.644Z</time>
            </trkpt>
            <trkpt lon="100.958584" lat="12.906861">
                <ele>43.400000</ele>
                <time>2018-02-26T11:59:35.644Z</time>
            </trkpt>
            <trkpt lon="100.958593" lat="12.906833">
                <ele>43.200000</ele>
                <time>2018-02-26T11:59:37.644Z</time>
            </trkpt>
            <trkpt lon="100.958595" lat="12.906802">
                <ele>43.000000</ele>
                <time>2018-02-26T11:59:39.644Z</time>
            </trkpt>
            <trkpt lon="100.958595" lat="12.906767">
                <ele>43.200000</ele>
                <time>2018-02-26T11:59:41.644Z</time>
            </trkpt>
            <trkpt lon="100.958587" lat="12.906733">
                <ele>43.700000</ele>
                <time>2018-02-26T11:59:43.644Z</time>
            </trkpt>
            <trkpt lon="100.958588" lat="12.906701">
                <ele>43.700000</ele>
                <time>2018-02-26T11:59:45.644Z</time>
            </trkpt>
            <trkpt lon="100.958590" lat="12.906671">
                <ele>44.200000</ele>
                <time>2018-02-26T11:59:47.644Z</time>
            </trkpt>
            <trkpt lon="100.958593" lat="12.906632">
                <ele>44.700000</ele>
                <time>2018-02-26T11:59:49.644Z</time>
            </trkpt>
            <trkpt lon="100.958593" lat="12.906586">
                <ele>45.300000</ele>
                <time>2018-02-26T11:59:51.644Z</time>
            </trkpt>
            <trkpt lon="100.958594" lat="12.906549">
                <ele>46.100000</ele>
                <time>2018-02-26T11:59:53.644Z</time>
            </trkpt>
            <trkpt lon="100.958610" lat="12.906518">
                <ele>46.800000</ele>
                <time>2018-02-26T11:59:55.644Z</time>
            </trkpt>
            <trkpt lon="100.958643" lat="12.906488">
                <ele>46.800000</ele>
                <time>2018-02-26T11:59:57.644Z</time>
            </trkpt>
            <trkpt lon="100.958662" lat="12.906461">
                <ele>47.300000</ele>
                <time>2018-02-26T11:59:59.644Z</time>
            </trkpt>
            <trkpt lon="100.958678" lat="12.906433">
                <ele>48.300000</ele>
                <time>2018-02-26T12:00:02.644Z</time>
            </trkpt>
            <trkpt lon="100.958695" lat="12.906405">
                <ele>48.100000</ele>
                <time>2018-02-26T12:00:04.644Z</time>
            </trkpt>
            <trkpt lon="100.958715" lat="12.906380">
                <ele>49.300000</ele>
                <time>2018-02-26T12:00:06.644Z</time>
            </trkpt>
            <trkpt lon="100.958738" lat="12.906360">
                <ele>49.100000</ele>
                <time>2018-02-26T12:00:08.644Z</time>
            </trkpt>
            <trkpt lon="100.958778" lat="12.906342">
                <ele>50.100000</ele>
                <time>2018-02-26T12:00:11.644Z</time>
            </trkpt>
            <trkpt lon="100.958819" lat="12.906332">
                <ele>50.100000</ele>
                <time>2018-02-26T12:00:13.644Z</time>
            </trkpt>
            <trkpt lon="100.958873" lat="12.906329">
                <ele>49.500000</ele>
                <time>2018-02-26T12:00:15.644Z</time>
            </trkpt>
            <trkpt lon="100.958908" lat="12.906322">
                <ele>49.100000</ele>
                <time>2018-02-26T12:00:16.644Z</time>
            </trkpt>
            <trkpt lon="100.958939" lat="12.906315">
                <ele>50.000000</ele>
                <time>2018-02-26T12:00:17.644Z</time>
            </trkpt>
            <trkpt lon="100.958969" lat="12.906309">
                <ele>49.600000</ele>
                <time>2018-02-26T12:00:18.644Z</time>
            </trkpt>
            <trkpt lon="100.959018" lat="12.906298">
                <ele>49.400000</ele>
                <time>2018-02-26T12:00:20.644Z</time>
            </trkpt>
            <trkpt lon="100.959062" lat="12.906296">
                <ele>49.100000</ele>
                <time>2018-02-26T12:00:22.644Z</time>
            </trkpt>
            <trkpt lon="100.959094" lat="12.906300">
                <ele>48.900000</ele>
                <time>2018-02-26T12:00:24.644Z</time>
            </trkpt>
            <trkpt lon="100.959133" lat="12.906315">
                <ele>48.500000</ele>
                <time>2018-02-26T12:00:26.644Z</time>
            </trkpt>
            <trkpt lon="100.959170" lat="12.906316">
                <ele>47.300000</ele>
                <time>2018-02-26T12:00:28.644Z</time>
            </trkpt>
            <trkpt lon="100.959212" lat="12.906305">
                <ele>47.500000</ele>
                <time>2018-02-26T12:00:30.644Z</time>
            </trkpt>
            <trkpt lon="100.959233" lat="12.906277">
                <ele>47.500000</ele>
                <time>2018-02-26T12:00:32.644Z</time>
            </trkpt>
            <trkpt lon="100.959250" lat="12.906243">
                <ele>48.100000</ele>
                <time>2018-02-26T12:00:34.644Z</time>
            </trkpt>
            <trkpt lon="100.959263" lat="12.906208">
                <ele>49.400000</ele>
                <time>2018-02-26T12:00:36.644Z</time>
            </trkpt>
            <trkpt lon="100.959275" lat="12.906181">
                <ele>50.600000</ele>
                <time>2018-02-26T12:00:38.644Z</time>
            </trkpt>
            <trkpt lon="100.959293" lat="12.906143">
                <ele>51.400000</ele>
                <time>2018-02-26T12:00:40.644Z</time>
            </trkpt>
            <trkpt lon="100.959315" lat="12.906106">
                <ele>52.800000</ele>
                <time>2018-02-26T12:00:42.644Z</time>
            </trkpt>
            <trkpt lon="100.959353" lat="12.906085">
                <ele>52.300000</ele>
                <time>2018-02-26T12:00:44.644Z</time>
            </trkpt>
            <trkpt lon="100.959403" lat="12.906071">
                <ele>51.800000</ele>
                <time>2018-02-26T12:00:46.644Z</time>
            </trkpt>
            <trkpt lon="100.959446" lat="12.906056">
                <ele>52.800000</ele>
                <time>2018-02-26T12:00:48.644Z</time>
            </trkpt>
            <trkpt lon="100.959496" lat="12.906031">
                <ele>52.200000</ele>
                <time>2018-02-26T12:00:50.644Z</time>
            </trkpt>
            <trkpt lon="100.959540" lat="12.906027">
                <ele>51.500000</ele>
                <time>2018-02-26T12:00:52.644Z</time>
            </trkpt>
            <trkpt lon="100.959594" lat="12.906019">
                <ele>51.200000</ele>
                <time>2018-02-26T12:00:54.644Z</time>
            </trkpt>
            <trkpt lon="100.959617" lat="12.905993">
                <ele>51.200000</ele>
                <time>2018-02-26T12:00:56.644Z</time>
            </trkpt>
            <trkpt lon="100.959645" lat="12.906006">
                <ele>50.300000</ele>
                <time>2018-02-26T12:00:59.644Z</time>
            </trkpt>
            <trkpt lon="100.959677" lat="12.906022">
                <ele>50.300000</ele>
                <time>2018-02-26T12:01:02.644Z</time>
            </trkpt>
            <trkpt lon="100.959707" lat="12.906011">
                <ele>49.500000</ele>
                <time>2018-02-26T12:01:04.644Z</time>
            </trkpt>
            <trkpt lon="100.959734" lat="12.906006">
                <ele>48.700000</ele>
                <time>2018-02-26T12:01:06.644Z</time>
            </trkpt>
            <trkpt lon="100.959763" lat="12.905992">
                <ele>48.700000</ele>
                <time>2018-02-26T12:01:09.644Z</time>
            </trkpt>
            <trkpt lon="100.959807" lat="12.905981">
                <ele>47.800000</ele>
                <time>2018-02-26T12:01:23.644Z</time>
            </trkpt>
            <trkpt lon="100.959844" lat="12.905979">
                <ele>47.800000</ele>
                <time>2018-02-26T12:01:26.644Z</time>
            </trkpt>
            <trkpt lon="100.959876" lat="12.905978">
                <ele>47.600000</ele>
                <time>2018-02-26T12:01:28.644Z</time>
            </trkpt>
            <trkpt lon="100.959909" lat="12.905970">
                <ele>47.300000</ele>
                <time>2018-02-26T12:01:35.644Z</time>
            </trkpt>
            <trkpt lon="100.959944" lat="12.905954">
                <ele>47.100000</ele>
                <time>2018-02-26T12:01:39.644Z</time>
            </trkpt>
            <trkpt lon="100.959974" lat="12.905937">
                <ele>47.700000</ele>
                <time>2018-02-26T12:01:41.644Z</time>
            </trkpt>
            <trkpt lon="100.960010" lat="12.905917">
                <ele>47.800000</ele>
                <time>2018-02-26T12:01:43.644Z</time>
            </trkpt>
            <trkpt lon="100.960040" lat="12.905897">
                <ele>48.900000</ele>
                <time>2018-02-26T12:01:45.644Z</time>
            </trkpt>
            <trkpt lon="100.960069" lat="12.905884">
                <ele>49.300000</ele>
                <time>2018-02-26T12:01:47.644Z</time>
            </trkpt>
            <trkpt lon="100.960101" lat="12.905865">
                <ele>49.300000</ele>
                <time>2018-02-26T12:01:49.644Z</time>
            </trkpt>
            <trkpt lon="100.960141" lat="12.905853">
                <ele>50.200000</ele>
                <time>2018-02-26T12:01:51.644Z</time>
            </trkpt>
            <trkpt lon="100.960180" lat="12.905840">
                <ele>50.600000</ele>
                <time>2018-02-26T12:01:53.644Z</time>
            </trkpt>
            <trkpt lon="100.960216" lat="12.905819">
                <ele>50.900000</ele>
                <time>2018-02-26T12:01:55.644Z</time>
            </trkpt>
            <trkpt lon="100.960244" lat="12.905776">
                <ele>51.600000</ele>
                <time>2018-02-26T12:01:57.644Z</time>
            </trkpt>
            <trkpt lon="100.960262" lat="12.905755">
                <ele>51.900000</ele>
                <time>2018-02-26T12:01:58.644Z</time>
            </trkpt>
            <trkpt lon="100.960303" lat="12.905725">
                <ele>52.400000</ele>
                <time>2018-02-26T12:02:00.644Z</time>
            </trkpt>
            <trkpt lon="100.960331" lat="12.905707">
                <ele>52.400000</ele>
                <time>2018-02-26T12:02:02.644Z</time>
            </trkpt>
            <trkpt lon="100.960355" lat="12.905689">
                <ele>52.400000</ele>
                <time>2018-02-26T12:02:04.644Z</time>
            </trkpt>
            <trkpt lon="100.960356" lat="12.905658">
                <ele>52.700000</ele>
                <time>2018-02-26T12:02:06.644Z</time>
            </trkpt>
            <trkpt lon="100.960369" lat="12.905631">
                <ele>52.700000</ele>
                <time>2018-02-26T12:02:08.644Z</time>
            </trkpt>
            <trkpt lon="100.960405" lat="12.905606">
                <ele>52.700000</ele>
                <time>2018-02-26T12:02:10.644Z</time>
            </trkpt>
            <trkpt lon="100.960449" lat="12.905586">
                <ele>52.700000</ele>
                <time>2018-02-26T12:02:12.644Z</time>
            </trkpt>
            <trkpt lon="100.960487" lat="12.905573">
                <ele>52.400000</ele>
                <time>2018-02-26T12:02:14.644Z</time>
            </trkpt>
            <trkpt lon="100.960526" lat="12.905542">
                <ele>52.500000</ele>
                <time>2018-02-26T12:02:16.644Z</time>
            </trkpt>
            <trkpt lon="100.960555" lat="12.905532">
                <ele>52.200000</ele>
                <time>2018-02-26T12:02:17.644Z</time>
            </trkpt>
            <trkpt lon="100.960599" lat="12.905519">
                <ele>52.200000</ele>
                <time>2018-02-26T12:02:19.644Z</time>
            </trkpt>
            <trkpt lon="100.960633" lat="12.905511">
                <ele>52.000000</ele>
                <time>2018-02-26T12:02:21.644Z</time>
            </trkpt>
            <trkpt lon="100.960658" lat="12.905486">
                <ele>52.000000</ele>
                <time>2018-02-26T12:02:23.644Z</time>
            </trkpt>
            <trkpt lon="100.960674" lat="12.905452">
                <ele>52.100000</ele>
                <time>2018-02-26T12:02:25.644Z</time>
            </trkpt>
            <trkpt lon="100.960679" lat="12.905415">
                <ele>52.500000</ele>
                <time>2018-02-26T12:02:27.644Z</time>
            </trkpt>
            <trkpt lon="100.960687" lat="12.905378">
                <ele>52.900000</ele>
                <time>2018-02-26T12:02:29.644Z</time>
            </trkpt>
            <trkpt lon="100.960707" lat="12.905343">
                <ele>53.400000</ele>
                <time>2018-02-26T12:02:32.644Z</time>
            </trkpt>
            <trkpt lon="100.960732" lat="12.905322">
                <ele>53.300000</ele>
                <time>2018-02-26T12:02:35.644Z</time>
            </trkpt>
            <trkpt lon="100.960768" lat="12.905301">
                <ele>53.500000</ele>
                <time>2018-02-26T12:02:38.644Z</time>
            </trkpt>
            <trkpt lon="100.960798" lat="12.905279">
                <ele>53.200000</ele>
                <time>2018-02-26T12:02:40.644Z</time>
            </trkpt>
            <trkpt lon="100.960837" lat="12.905262">
                <ele>53.400000</ele>
                <time>2018-02-26T12:02:42.644Z</time>
            </trkpt>
            <trkpt lon="100.960892" lat="12.905256">
                <ele>53.200000</ele>
                <time>2018-02-26T12:02:44.644Z</time>
            </trkpt>
            <trkpt lon="100.960927" lat="12.905253">
                <ele>52.900000</ele>
                <time>2018-02-26T12:02:45.644Z</time>
            </trkpt>
            <trkpt lon="100.960956" lat="12.905251">
                <ele>52.900000</ele>
                <time>2018-02-26T12:02:46.644Z</time>
            </trkpt>
            <trkpt lon="100.960987" lat="12.905240">
                <ele>52.700000</ele>
                <time>2018-02-26T12:02:47.644Z</time>
            </trkpt>
            <trkpt lon="100.961017" lat="12.905230">
                <ele>52.400000</ele>
                <time>2018-02-26T12:02:48.644Z</time>
            </trkpt>
            <trkpt lon="100.961045" lat="12.905223">
                <ele>52.900000</ele>
                <time>2018-02-26T12:02:51.644Z</time>
            </trkpt>
            <trkpt lon="100.961074" lat="12.905228">
                <ele>52.700000</ele>
                <time>2018-02-26T12:02:54.644Z</time>
            </trkpt>
            <trkpt lon="100.961113" lat="12.905229">
                <ele>51.900000</ele>
                <time>2018-02-26T12:02:57.644Z</time>
            </trkpt>
            <trkpt lon="100.961149" lat="12.905240">
                <ele>51.700000</ele>
                <time>2018-02-26T12:02:59.644Z</time>
            </trkpt>
            <trkpt lon="100.961173" lat="12.905260">
                <ele>51.700000</ele>
                <time>2018-02-26T12:03:00.644Z</time>
            </trkpt>
            <trkpt lon="100.961206" lat="12.905275">
                <ele>51.100000</ele>
                <time>2018-02-26T12:03:01.644Z</time>
            </trkpt>
            <trkpt lon="100.961229" lat="12.905292">
                <ele>51.100000</ele>
                <time>2018-02-26T12:03:02.644Z</time>
            </trkpt>
            <trkpt lon="100.961268" lat="12.905333">
                <ele>50.900000</ele>
                <time>2018-02-26T12:03:04.644Z</time>
            </trkpt>
            <trkpt lon="100.961291" lat="12.905359">
                <ele>50.600000</ele>
                <time>2018-02-26T12:03:05.644Z</time>
            </trkpt>
            <trkpt lon="100.961319" lat="12.905363">
                <ele>50.700000</ele>
                <time>2018-02-26T12:03:07.644Z</time>
            </trkpt>
            <trkpt lon="100.961357" lat="12.905359">
                <ele>50.700000</ele>
                <time>2018-02-26T12:03:19.644Z</time>
            </trkpt>
            <trkpt lon="100.961393" lat="12.905347">
                <ele>50.900000</ele>
                <time>2018-02-26T12:03:21.644Z</time>
            </trkpt>
            <trkpt lon="100.961434" lat="12.905327">
                <ele>50.900000</ele>
                <time>2018-02-26T12:03:23.644Z</time>
            </trkpt>
            <trkpt lon="100.961471" lat="12.905308">
                <ele>51.200000</ele>
                <time>2018-02-26T12:03:25.644Z</time>
            </trkpt>
            <trkpt lon="100.961509" lat="12.905298">
                <ele>51.200000</ele>
                <time>2018-02-26T12:03:27.644Z</time>
            </trkpt>
            <trkpt lon="100.961551" lat="12.905296">
                <ele>51.200000</ele>
                <time>2018-02-26T12:03:29.644Z</time>
            </trkpt>
            <trkpt lon="100.961583" lat="12.905277">
                <ele>51.200000</ele>
                <time>2018-02-26T12:03:31.644Z</time>
            </trkpt>
            <trkpt lon="100.961619" lat="12.905271">
                <ele>51.200000</ele>
                <time>2018-02-26T12:03:33.644Z</time>
            </trkpt>
            <trkpt lon="100.961649" lat="12.905266">
                <ele>51.700000</ele>
                <time>2018-02-26T12:03:34.644Z</time>
            </trkpt>
            <trkpt lon="100.961689" lat="12.905252">
                <ele>51.700000</ele>
                <time>2018-02-26T12:03:36.644Z</time>
            </trkpt>
            <trkpt lon="100.961720" lat="12.905244">
                <ele>51.900000</ele>
                <time>2018-02-26T12:03:38.644Z</time>
            </trkpt>
            <trkpt lon="100.961757" lat="12.905234">
                <ele>52.100000</ele>
                <time>2018-02-26T12:03:40.644Z</time>
            </trkpt>
            <trkpt lon="100.961788" lat="12.905227">
                <ele>53.300000</ele>
                <time>2018-02-26T12:03:42.644Z</time>
            </trkpt>
            <trkpt lon="100.961821" lat="12.905222">
                <ele>53.300000</ele>
                <time>2018-02-26T12:03:44.644Z</time>
            </trkpt>
            <trkpt lon="100.961866" lat="12.905222">
                <ele>53.700000</ele>
                <time>2018-02-26T12:03:46.644Z</time>
            </trkpt>
            <trkpt lon="100.961909" lat="12.905242">
                <ele>53.000000</ele>
                <time>2018-02-26T12:03:48.644Z</time>
            </trkpt>
            <trkpt lon="100.961947" lat="12.905259">
                <ele>53.300000</ele>
                <time>2018-02-26T12:03:50.644Z</time>
            </trkpt>
            <trkpt lon="100.961982" lat="12.905273">
                <ele>52.700000</ele>
                <time>2018-02-26T12:03:52.644Z</time>
            </trkpt>
            <trkpt lon="100.961994" lat="12.905300">
                <ele>52.700000</ele>
                <time>2018-02-26T12:03:54.644Z</time>
            </trkpt>
            <trkpt lon="100.962017" lat="12.905333">
                <ele>52.200000</ele>
                <time>2018-02-26T12:03:56.644Z</time>
            </trkpt>
            <trkpt lon="100.962047" lat="12.905367">
                <ele>51.600000</ele>
                <time>2018-02-26T12:03:58.644Z</time>
            </trkpt>
            <trkpt lon="100.962080" lat="12.905404">
                <ele>50.900000</ele>
                <time>2018-02-26T12:04:00.644Z</time>
            </trkpt>
            <trkpt lon="100.962122" lat="12.905429">
                <ele>51.100000</ele>
                <time>2018-02-26T12:04:02.644Z</time>
            </trkpt>
            <trkpt lon="100.962159" lat="12.905444">
                <ele>50.900000</ele>
                <time>2018-02-26T12:04:04.644Z</time>
            </trkpt>
            <trkpt lon="100.962202" lat="12.905464">
                <ele>51.100000</ele>
                <time>2018-02-26T12:04:06.644Z</time>
            </trkpt>
            <trkpt lon="100.962234" lat="12.905479">
                <ele>51.300000</ele>
                <time>2018-02-26T12:04:08.644Z</time>
            </trkpt>
            <trkpt lon="100.962264" lat="12.905481">
                <ele>51.300000</ele>
                <time>2018-02-26T12:04:10.644Z</time>
            </trkpt>
            <trkpt lon="100.962301" lat="12.905477">
                <ele>51.800000</ele>
                <time>2018-02-26T12:04:13.644Z</time>
            </trkpt>
            <trkpt lon="100.962332" lat="12.905463">
                <ele>51.800000</ele>
                <time>2018-02-26T12:04:22.644Z</time>
            </trkpt>
            <trkpt lon="100.962361" lat="12.905437">
                <ele>52.400000</ele>
                <time>2018-02-26T12:04:25.644Z</time>
            </trkpt>
            <trkpt lon="100.962383" lat="12.905409">
                <ele>52.600000</ele>
                <time>2018-02-26T12:04:27.644Z</time>
            </trkpt>
            <trkpt lon="100.962410" lat="12.905374">
                <ele>52.800000</ele>
                <time>2018-02-26T12:04:29.644Z</time>
            </trkpt>
            <trkpt lon="100.962446" lat="12.905353">
                <ele>53.100000</ele>
                <time>2018-02-26T12:04:30.644Z</time>
            </trkpt>
            <trkpt lon="100.962481" lat="12.905336">
                <ele>53.200000</ele>
                <time>2018-02-26T12:04:32.644Z</time>
            </trkpt>
            <trkpt lon="100.962517" lat="12.905313">
                <ele>53.300000</ele>
                <time>2018-02-26T12:04:34.644Z</time>
            </trkpt>
            <trkpt lon="100.962550" lat="12.905298">
                <ele>53.400000</ele>
                <time>2018-02-26T12:04:36.644Z</time>
            </trkpt>
            <trkpt lon="100.962591" lat="12.905280">
                <ele>53.400000</ele>
                <time>2018-02-26T12:04:38.644Z</time>
            </trkpt>
            <trkpt lon="100.962631" lat="12.905283">
                <ele>53.400000</ele>
                <time>2018-02-26T12:04:41.644Z</time>
            </trkpt>
            <trkpt lon="100.962668" lat="12.905283">
                <ele>53.400000</ele>
                <time>2018-02-26T12:04:43.644Z</time>
            </trkpt>
            <trkpt lon="100.962705" lat="12.905283">
                <ele>53.400000</ele>
                <time>2018-02-26T12:04:45.644Z</time>
            </trkpt>
            <trkpt lon="100.962758" lat="12.905293">
                <ele>53.400000</ele>
                <time>2018-02-26T12:04:47.644Z</time>
            </trkpt>
            <trkpt lon="100.962810" lat="12.905308">
                <ele>53.400000</ele>
                <time>2018-02-26T12:04:49.644Z</time>
            </trkpt>
            <trkpt lon="100.962858" lat="12.905325">
                <ele>53.400000</ele>
                <time>2018-02-26T12:04:51.644Z</time>
            </trkpt>
            <trkpt lon="100.962902" lat="12.905345">
                <ele>53.400000</ele>
                <time>2018-02-26T12:04:53.644Z</time>
            </trkpt>
            <trkpt lon="100.962945" lat="12.905364">
                <ele>53.500000</ele>
                <time>2018-02-26T12:04:55.644Z</time>
            </trkpt>
            <trkpt lon="100.962990" lat="12.905383">
                <ele>53.600000</ele>
                <time>2018-02-26T12:04:57.644Z</time>
            </trkpt>
            <trkpt lon="100.963024" lat="12.905392">
                <ele>53.600000</ele>
                <time>2018-02-26T12:04:59.644Z</time>
            </trkpt>
            <trkpt lon="100.963065" lat="12.905405">
                <ele>53.500000</ele>
                <time>2018-02-26T12:05:01.644Z</time>
            </trkpt>
            <trkpt lon="100.963093" lat="12.905410">
                <ele>53.700000</ele>
                <time>2018-02-26T12:05:02.644Z</time>
            </trkpt>
            <trkpt lon="100.963140" lat="12.905417">
                <ele>54.200000</ele>
                <time>2018-02-26T12:05:04.644Z</time>
            </trkpt>
            <trkpt lon="100.963196" lat="12.905416">
                <ele>54.700000</ele>
                <time>2018-02-26T12:05:06.644Z</time>
            </trkpt>
            <trkpt lon="100.963249" lat="12.905425">
                <ele>55.700000</ele>
                <time>2018-02-26T12:05:08.644Z</time>
            </trkpt>
            <trkpt lon="100.963306" lat="12.905429">
                <ele>56.000000</ele>
                <time>2018-02-26T12:05:10.644Z</time>
            </trkpt>
            <trkpt lon="100.963337" lat="12.905431">
                <ele>56.300000</ele>
                <time>2018-02-26T12:05:11.644Z</time>
            </trkpt>
            <trkpt lon="100.963390" lat="12.905436">
                <ele>56.500000</ele>
                <time>2018-02-26T12:05:13.644Z</time>
            </trkpt>
            <trkpt lon="100.963418" lat="12.905438">
                <ele>56.400000</ele>
                <time>2018-02-26T12:05:14.644Z</time>
            </trkpt>
            <trkpt lon="100.963470" lat="12.905440">
                <ele>56.700000</ele>
                <time>2018-02-26T12:05:16.644Z</time>
            </trkpt>
            <trkpt lon="100.963517" lat="12.905445">
                <ele>57.000000</ele>
                <time>2018-02-26T12:05:18.644Z</time>
            </trkpt>
            <trkpt lon="100.963567" lat="12.905446">
                <ele>57.300000</ele>
                <time>2018-02-26T12:05:20.644Z</time>
            </trkpt>
            <trkpt lon="100.963595" lat="12.905440">
                <ele>57.500000</ele>
                <time>2018-02-26T12:05:21.644Z</time>
            </trkpt>
            <trkpt lon="100.963632" lat="12.905431">
                <ele>57.500000</ele>
                <time>2018-02-26T12:05:23.644Z</time>
            </trkpt>
            <trkpt lon="100.963659" lat="12.905403">
                <ele>57.500000</ele>
                <time>2018-02-26T12:05:29.644Z</time>
            </trkpt>
            <trkpt lon="100.963666" lat="12.905365">
                <ele>57.600000</ele>
                <time>2018-02-26T12:05:31.644Z</time>
            </trkpt>
            <trkpt lon="100.963662" lat="12.905326">
                <ele>57.700000</ele>
                <time>2018-02-26T12:05:33.644Z</time>
            </trkpt>
            <trkpt lon="100.963662" lat="12.905290">
                <ele>58.000000</ele>
                <time>2018-02-26T12:05:35.644Z</time>
            </trkpt>
            <trkpt lon="100.963664" lat="12.905251">
                <ele>58.200000</ele>
                <time>2018-02-26T12:05:37.644Z</time>
            </trkpt>
            <trkpt lon="100.963664" lat="12.905206">
                <ele>58.300000</ele>
                <time>2018-02-26T12:05:39.644Z</time>
            </trkpt>
            <trkpt lon="100.963667" lat="12.905164">
                <ele>58.500000</ele>
                <time>2018-02-26T12:05:41.644Z</time>
            </trkpt>
            <trkpt lon="100.963665" lat="12.905120">
                <ele>58.700000</ele>
                <time>2018-02-26T12:05:43.644Z</time>
            </trkpt>
            <trkpt lon="100.963666" lat="12.905072">
                <ele>58.700000</ele>
                <time>2018-02-26T12:05:45.644Z</time>
            </trkpt>
            <trkpt lon="100.963658" lat="12.905031">
                <ele>58.800000</ele>
                <time>2018-02-26T12:05:47.644Z</time>
            </trkpt>
            <trkpt lon="100.963651" lat="12.905000">
                <ele>58.800000</ele>
                <time>2018-02-26T12:05:49.644Z</time>
            </trkpt>
            <trkpt lon="100.963650" lat="12.904973">
                <ele>58.800000</ele>
                <time>2018-02-26T12:05:59.644Z</time>
            </trkpt>
            <trkpt lon="100.963636" lat="12.904947">
                <ele>58.800000</ele>
                <time>2018-02-26T12:06:05.644Z</time>
            </trkpt>
            <trkpt lon="100.963633" lat="12.904914">
                <ele>58.800000</ele>
                <time>2018-02-26T12:06:07.644Z</time>
            </trkpt>
            <trkpt lon="100.963636" lat="12.904871">
                <ele>59.100000</ele>
                <time>2018-02-26T12:06:09.644Z</time>
            </trkpt>
            <trkpt lon="100.963627" lat="12.904829">
                <ele>59.300000</ele>
                <time>2018-02-26T12:06:11.644Z</time>
            </trkpt>
            <trkpt lon="100.963615" lat="12.904788">
                <ele>59.700000</ele>
                <time>2018-02-26T12:06:13.644Z</time>
            </trkpt>
            <trkpt lon="100.963619" lat="12.904744">
                <ele>60.200000</ele>
                <time>2018-02-26T12:06:15.644Z</time>
            </trkpt>
            <trkpt lon="100.963629" lat="12.904703">
                <ele>60.600000</ele>
                <time>2018-02-26T12:06:17.644Z</time>
            </trkpt>
            <trkpt lon="100.963648" lat="12.904666">
                <ele>60.700000</ele>
                <time>2018-02-26T12:06:19.644Z</time>
            </trkpt>
            <trkpt lon="100.963687" lat="12.904622">
                <ele>61.100000</ele>
                <time>2018-02-26T12:06:21.644Z</time>
            </trkpt>
            <trkpt lon="100.963726" lat="12.904581">
                <ele>61.400000</ele>
                <time>2018-02-26T12:06:23.644Z</time>
            </trkpt>
            <trkpt lon="100.963746" lat="12.904558">
                <ele>61.500000</ele>
                <time>2018-02-26T12:06:24.644Z</time>
            </trkpt>
            <trkpt lon="100.963777" lat="12.904516">
                <ele>61.900000</ele>
                <time>2018-02-26T12:06:26.644Z</time>
            </trkpt>
            <trkpt lon="100.963808" lat="12.904476">
                <ele>62.300000</ele>
                <time>2018-02-26T12:06:28.644Z</time>
            </trkpt>
            <trkpt lon="100.963843" lat="12.904440">
                <ele>62.700000</ele>
                <time>2018-02-26T12:06:30.644Z</time>
            </trkpt>
            <trkpt lon="100.963869" lat="12.904421">
                <ele>62.900000</ele>
                <time>2018-02-26T12:06:31.644Z</time>
            </trkpt>
            <trkpt lon="100.963894" lat="12.904403">
                <ele>63.100000</ele>
                <time>2018-02-26T12:06:32.644Z</time>
            </trkpt>
            <trkpt lon="100.963918" lat="12.904383">
                <ele>63.400000</ele>
                <time>2018-02-26T12:06:33.644Z</time>
            </trkpt>
            <trkpt lon="100.963942" lat="12.904359">
                <ele>63.600000</ele>
                <time>2018-02-26T12:06:34.644Z</time>
            </trkpt>
            <trkpt lon="100.963989" lat="12.904331">
                <ele>64.000000</ele>
                <time>2018-02-26T12:06:35.644Z</time>
            </trkpt>
            <trkpt lon="100.964032" lat="12.904311">
                <ele>64.400000</ele>
                <time>2018-02-26T12:06:36.644Z</time>
            </trkpt>
            <trkpt lon="100.964066" lat="12.904261">
                <ele>64.800000</ele>
                <time>2018-02-26T12:06:38.644Z</time>
            </trkpt>
            <trkpt lon="100.964075" lat="12.904234">
                <ele>64.900000</ele>
                <time>2018-02-26T12:06:39.644Z</time>
            </trkpt>
            <trkpt lon="100.964085" lat="12.904194">
                <ele>65.200000</ele>
                <time>2018-02-26T12:06:40.644Z</time>
            </trkpt>
            <trkpt lon="100.964086" lat="12.904159">
                <ele>65.400000</ele>
                <time>2018-02-26T12:06:41.644Z</time>
            </trkpt>
            <trkpt lon="100.964084" lat="12.904126">
                <ele>65.700000</ele>
                <time>2018-02-26T12:06:42.644Z</time>
            </trkpt>
            <trkpt lon="100.964076" lat="12.904078">
                <ele>66.000000</ele>
                <time>2018-02-26T12:06:44.644Z</time>
            </trkpt>
            <trkpt lon="100.964068" lat="12.904048">
                <ele>66.200000</ele>
                <time>2018-02-26T12:06:45.644Z</time>
            </trkpt>
            <trkpt lon="100.964064" lat="12.904016">
                <ele>66.400000</ele>
                <time>2018-02-26T12:06:46.644Z</time>
            </trkpt>
            <trkpt lon="100.964062" lat="12.903962">
                <ele>66.400000</ele>
                <time>2018-02-26T12:06:48.644Z</time>
            </trkpt>
            <trkpt lon="100.964064" lat="12.903933">
                <ele>66.400000</ele>
                <time>2018-02-26T12:06:49.644Z</time>
            </trkpt>
            <trkpt lon="100.964062" lat="12.903899">
                <ele>66.400000</ele>
                <time>2018-02-26T12:06:50.644Z</time>
            </trkpt>
            <trkpt lon="100.964063" lat="12.903866">
                <ele>66.400000</ele>
                <time>2018-02-26T12:06:51.644Z</time>
            </trkpt>
            <trkpt lon="100.964066" lat="12.903833">
                <ele>66.400000</ele>
                <time>2018-02-26T12:06:52.644Z</time>
            </trkpt>
            <trkpt lon="100.964068" lat="12.903800">
                <ele>66.400000</ele>
                <time>2018-02-26T12:06:53.644Z</time>
            </trkpt>
            <trkpt lon="100.964071" lat="12.903764">
                <ele>66.400000</ele>
                <time>2018-02-26T12:06:54.644Z</time>
            </trkpt>
            <trkpt lon="100.964070" lat="12.903736">
                <ele>66.300000</ele>
                <time>2018-02-26T12:06:55.644Z</time>
            </trkpt>
            <trkpt lon="100.964071" lat="12.903703">
                <ele>66.300000</ele>
                <time>2018-02-26T12:06:56.644Z</time>
            </trkpt>
            <trkpt lon="100.964074" lat="12.903662">
                <ele>66.300000</ele>
                <time>2018-02-26T12:06:57.644Z</time>
            </trkpt>
            <trkpt lon="100.964077" lat="12.903634">
                <ele>66.300000</ele>
                <time>2018-02-26T12:06:58.644Z</time>
            </trkpt>
            <trkpt lon="100.964080" lat="12.903591">
                <ele>66.200000</ele>
                <time>2018-02-26T12:06:59.644Z</time>
            </trkpt>
            <trkpt lon="100.964088" lat="12.903554">
                <ele>66.000000</ele>
                <time>2018-02-26T12:07:00.644Z</time>
            </trkpt>
            <trkpt lon="100.964100" lat="12.903515">
                <ele>66.300000</ele>
                <time>2018-02-26T12:07:01.644Z</time>
            </trkpt>
            <trkpt lon="100.964109" lat="12.903474">
                <ele>66.100000</ele>
                <time>2018-02-26T12:07:02.644Z</time>
            </trkpt>
            <trkpt lon="100.964115" lat="12.903439">
                <ele>65.800000</ele>
                <time>2018-02-26T12:07:03.644Z</time>
            </trkpt>
            <trkpt lon="100.964116" lat="12.903397">
                <ele>65.700000</ele>
                <time>2018-02-26T12:07:04.644Z</time>
            </trkpt>
            <trkpt lon="100.964118" lat="12.903359">
                <ele>65.500000</ele>
                <time>2018-02-26T12:07:05.644Z</time>
            </trkpt>
            <trkpt lon="100.964124" lat="12.903326">
                <ele>65.400000</ele>
                <time>2018-02-26T12:07:06.644Z</time>
            </trkpt>
            <trkpt lon="100.964123" lat="12.903293">
                <ele>65.300000</ele>
                <time>2018-02-26T12:07:07.644Z</time>
            </trkpt>
            <trkpt lon="100.964120" lat="12.903259">
                <ele>65.300000</ele>
                <time>2018-02-26T12:07:08.644Z</time>
            </trkpt>
            <trkpt lon="100.964130" lat="12.903233">
                <ele>65.300000</ele>
                <time>2018-02-26T12:07:09.644Z</time>
            </trkpt>
            <trkpt lon="100.964168" lat="12.903200">
                <ele>65.200000</ele>
                <time>2018-02-26T12:07:11.644Z</time>
            </trkpt>
            <trkpt lon="100.964203" lat="12.903164">
                <ele>65.100000</ele>
                <time>2018-02-26T12:07:13.644Z</time>
            </trkpt>
            <trkpt lon="100.964237" lat="12.903134">
                <ele>65.000000</ele>
                <time>2018-02-26T12:07:15.644Z</time>
            </trkpt>
            <trkpt lon="100.964256" lat="12.903096">
                <ele>65.000000</ele>
                <time>2018-02-26T12:07:17.644Z</time>
            </trkpt>
            <trkpt lon="100.964277" lat="12.903069">
                <ele>65.000000</ele>
                <time>2018-02-26T12:07:19.644Z</time>
            </trkpt>
            <trkpt lon="100.964311" lat="12.903034">
                <ele>64.900000</ele>
                <time>2018-02-26T12:07:21.644Z</time>
            </trkpt>
            <trkpt lon="100.964323" lat="12.903008">
                <ele>64.800000</ele>
                <time>2018-02-26T12:07:22.644Z</time>
            </trkpt>
            <trkpt lon="100.964341" lat="12.902956">
                <ele>64.700000</ele>
                <time>2018-02-26T12:07:24.644Z</time>
            </trkpt>
            <trkpt lon="100.964362" lat="12.902916">
                <ele>64.800000</ele>
                <time>2018-02-26T12:07:25.644Z</time>
            </trkpt>
            <trkpt lon="100.964378" lat="12.902881">
                <ele>65.000000</ele>
                <time>2018-02-26T12:07:26.644Z</time>
            </trkpt>
            <trkpt lon="100.964392" lat="12.902851">
                <ele>65.100000</ele>
                <time>2018-02-26T12:07:27.644Z</time>
            </trkpt>
            <trkpt lon="100.964404" lat="12.902822">
                <ele>65.100000</ele>
                <time>2018-02-26T12:07:28.644Z</time>
            </trkpt>
            <trkpt lon="100.964410" lat="12.902790">
                <ele>65.200000</ele>
                <time>2018-02-26T12:07:29.644Z</time>
            </trkpt>
            <trkpt lon="100.964416" lat="12.902761">
                <ele>65.300000</ele>
                <time>2018-02-26T12:07:30.644Z</time>
            </trkpt>
            <trkpt lon="100.964420" lat="12.902727">
                <ele>65.300000</ele>
                <time>2018-02-26T12:07:31.644Z</time>
            </trkpt>
            <trkpt lon="100.964425" lat="12.902693">
                <ele>65.300000</ele>
                <time>2018-02-26T12:07:32.644Z</time>
            </trkpt>
            <trkpt lon="100.964430" lat="12.902663">
                <ele>65.300000</ele>
                <time>2018-02-26T12:07:33.644Z</time>
            </trkpt>
            <trkpt lon="100.964466" lat="12.902621">
                <ele>65.300000</ele>
                <time>2018-02-26T12:07:35.644Z</time>
            </trkpt>
            <trkpt lon="100.964488" lat="12.902593">
                <ele>65.300000</ele>
                <time>2018-02-26T12:07:36.644Z</time>
            </trkpt>
            <trkpt lon="100.964505" lat="12.902561">
                <ele>65.200000</ele>
                <time>2018-02-26T12:07:37.644Z</time>
            </trkpt>
            <trkpt lon="100.964518" lat="12.902536">
                <ele>65.200000</ele>
                <time>2018-02-26T12:07:38.644Z</time>
            </trkpt>
            <trkpt lon="100.964531" lat="12.902506">
                <ele>65.100000</ele>
                <time>2018-02-26T12:07:39.644Z</time>
            </trkpt>
            <trkpt lon="100.964550" lat="12.902463">
                <ele>65.000000</ele>
                <time>2018-02-26T12:07:41.644Z</time>
            </trkpt>
            <trkpt lon="100.964573" lat="12.902429">
                <ele>64.900000</ele>
                <time>2018-02-26T12:07:43.644Z</time>
            </trkpt>
            <trkpt lon="100.964604" lat="12.902426">
                <ele>64.800000</ele>
                <time>2018-02-26T12:07:46.644Z</time>
            </trkpt>
            <trkpt lon="100.964631" lat="12.902419">
                <ele>64.800000</ele>
                <time>2018-02-26T12:07:56.644Z</time>
            </trkpt>
            <trkpt lon="100.964671" lat="12.902415">
                <ele>64.800000</ele>
                <time>2018-02-26T12:07:58.644Z</time>
            </trkpt>
            <trkpt lon="100.964721" lat="12.902421">
                <ele>64.800000</ele>
                <time>2018-02-26T12:08:00.644Z</time>
            </trkpt>
            <trkpt lon="100.964749" lat="12.902427">
                <ele>64.800000</ele>
                <time>2018-02-26T12:08:01.644Z</time>
            </trkpt>
            <trkpt lon="100.964788" lat="12.902432">
                <ele>65.100000</ele>
                <time>2018-02-26T12:08:03.644Z</time>
            </trkpt>
            <trkpt lon="100.964833" lat="12.902431">
                <ele>65.600000</ele>
                <time>2018-02-26T12:08:05.644Z</time>
            </trkpt>
            <trkpt lon="100.964866" lat="12.902439">
                <ele>65.600000</ele>
                <time>2018-02-26T12:08:06.644Z</time>
            </trkpt>
            <trkpt lon="100.964899" lat="12.902447">
                <ele>66.100000</ele>
                <time>2018-02-26T12:08:07.644Z</time>
            </trkpt>
            <trkpt lon="100.964932" lat="12.902454">
                <ele>66.500000</ele>
                <time>2018-02-26T12:08:08.644Z</time>
            </trkpt>
            <trkpt lon="100.964963" lat="12.902462">
                <ele>66.800000</ele>
                <time>2018-02-26T12:08:09.644Z</time>
            </trkpt>
            <trkpt lon="100.964990" lat="12.902468">
                <ele>66.900000</ele>
                <time>2018-02-26T12:08:10.644Z</time>
            </trkpt>
            <trkpt lon="100.965044" lat="12.902480">
                <ele>67.400000</ele>
                <time>2018-02-26T12:08:12.644Z</time>
            </trkpt>
            <trkpt lon="100.965089" lat="12.902490">
                <ele>67.600000</ele>
                <time>2018-02-26T12:08:14.644Z</time>
            </trkpt>
            <trkpt lon="100.965130" lat="12.902501">
                <ele>67.700000</ele>
                <time>2018-02-26T12:08:16.644Z</time>
            </trkpt>
            <trkpt lon="100.965169" lat="12.902496">
                <ele>67.700000</ele>
                <time>2018-02-26T12:08:18.644Z</time>
            </trkpt>
            <trkpt lon="100.965192" lat="12.902480">
                <ele>67.700000</ele>
                <time>2018-02-26T12:08:32.644Z</time>
            </trkpt>
            <trkpt lon="100.965197" lat="12.902452">
                <ele>67.700000</ele>
                <time>2018-02-26T12:08:36.644Z</time>
            </trkpt>
            <trkpt lon="100.965226" lat="12.902409">
                <ele>67.800000</ele>
                <time>2018-02-26T12:08:38.644Z</time>
            </trkpt>
            <trkpt lon="100.965265" lat="12.902382">
                <ele>68.100000</ele>
                <time>2018-02-26T12:08:40.644Z</time>
            </trkpt>
            <trkpt lon="100.965308" lat="12.902379">
                <ele>68.100000</ele>
                <time>2018-02-26T12:08:42.644Z</time>
            </trkpt>
            <trkpt lon="100.965354" lat="12.902374">
                <ele>68.100000</ele>
                <time>2018-02-26T12:08:44.644Z</time>
            </trkpt>
            <trkpt lon="100.965383" lat="12.902365">
                <ele>68.100000</ele>
                <time>2018-02-26T12:08:45.644Z</time>
            </trkpt>
            <trkpt lon="100.965417" lat="12.902351">
                <ele>68.100000</ele>
                <time>2018-02-26T12:08:46.644Z</time>
            </trkpt>
            <trkpt lon="100.965467" lat="12.902337">
                <ele>68.300000</ele>
                <time>2018-02-26T12:08:48.644Z</time>
            </trkpt>
            <trkpt lon="100.965501" lat="12.902301">
                <ele>68.300000</ele>
                <time>2018-02-26T12:08:50.644Z</time>
            </trkpt>
            <trkpt lon="100.965541" lat="12.902272">
                <ele>68.600000</ele>
                <time>2018-02-26T12:08:52.644Z</time>
            </trkpt>
            <trkpt lon="100.965565" lat="12.902255">
                <ele>68.800000</ele>
                <time>2018-02-26T12:08:53.644Z</time>
            </trkpt>
            <trkpt lon="100.965592" lat="12.902237">
                <ele>68.800000</ele>
                <time>2018-02-26T12:08:54.644Z</time>
            </trkpt>
            <trkpt lon="100.965621" lat="12.902212">
                <ele>69.100000</ele>
                <time>2018-02-26T12:08:55.644Z</time>
            </trkpt>
            <trkpt lon="100.965640" lat="12.902182">
                <ele>69.100000</ele>
                <time>2018-02-26T12:08:56.644Z</time>
            </trkpt>
            <trkpt lon="100.965654" lat="12.902149">
                <ele>69.500000</ele>
                <time>2018-02-26T12:08:57.644Z</time>
            </trkpt>
            <trkpt lon="100.965672" lat="12.902115">
                <ele>69.800000</ele>
                <time>2018-02-26T12:08:58.644Z</time>
            </trkpt>
            <trkpt lon="100.965698" lat="12.902087">
                <ele>70.200000</ele>
                <time>2018-02-26T12:08:59.644Z</time>
            </trkpt>
            <trkpt lon="100.965731" lat="12.902068">
                <ele>70.500000</ele>
                <time>2018-02-26T12:09:00.644Z</time>
            </trkpt>
            <trkpt lon="100.965754" lat="12.902050">
                <ele>70.500000</ele>
                <time>2018-02-26T12:09:01.644Z</time>
            </trkpt>
            <trkpt lon="100.965778" lat="12.902034">
                <ele>70.700000</ele>
                <time>2018-02-26T12:09:02.644Z</time>
            </trkpt>
            <trkpt lon="100.965804" lat="12.901993">
                <ele>70.700000</ele>
                <time>2018-02-26T12:09:04.644Z</time>
            </trkpt>
            <trkpt lon="100.965816" lat="12.901938">
                <ele>70.600000</ele>
                <time>2018-02-26T12:09:06.644Z</time>
            </trkpt>
            <trkpt lon="100.965816" lat="12.901907">
                <ele>70.600000</ele>
                <time>2018-02-26T12:09:07.644Z</time>
            </trkpt>
            <trkpt lon="100.965813" lat="12.901877">
                <ele>70.800000</ele>
                <time>2018-02-26T12:09:08.644Z</time>
            </trkpt>
            <trkpt lon="100.965824" lat="12.901846">
                <ele>70.700000</ele>
                <time>2018-02-26T12:09:09.644Z</time>
            </trkpt>
            <trkpt lon="100.965851" lat="12.901834">
                <ele>70.700000</ele>
                <time>2018-02-26T12:09:10.644Z</time>
            </trkpt>
            <trkpt lon="100.965882" lat="12.901820">
                <ele>70.600000</ele>
                <time>2018-02-26T12:09:11.644Z</time>
            </trkpt>
            <trkpt lon="100.965910" lat="12.901808">
                <ele>70.500000</ele>
                <time>2018-02-26T12:09:12.644Z</time>
            </trkpt>
            <trkpt lon="100.965942" lat="12.901798">
                <ele>70.500000</ele>
                <time>2018-02-26T12:09:13.644Z</time>
            </trkpt>
            <trkpt lon="100.965975" lat="12.901783">
                <ele>70.700000</ele>
                <time>2018-02-26T12:09:14.644Z</time>
            </trkpt>
            <trkpt lon="100.966007" lat="12.901774">
                <ele>70.500000</ele>
                <time>2018-02-26T12:09:15.644Z</time>
            </trkpt>
            <trkpt lon="100.966066" lat="12.901772">
                <ele>70.300000</ele>
                <time>2018-02-26T12:09:17.644Z</time>
            </trkpt>
            <trkpt lon="100.966101" lat="12.901780">
                <ele>70.100000</ele>
                <time>2018-02-26T12:09:18.644Z</time>
            </trkpt>
            <trkpt lon="100.966135" lat="12.901778">
                <ele>69.900000</ele>
                <time>2018-02-26T12:09:19.644Z</time>
            </trkpt>
            <trkpt lon="100.966173" lat="12.901763">
                <ele>69.700000</ele>
                <time>2018-02-26T12:09:20.644Z</time>
            </trkpt>
            <trkpt lon="100.966202" lat="12.901750">
                <ele>69.400000</ele>
                <time>2018-02-26T12:09:21.644Z</time>
            </trkpt>
            <trkpt lon="100.966228" lat="12.901740">
                <ele>69.400000</ele>
                <time>2018-02-26T12:09:22.644Z</time>
            </trkpt>
            <trkpt lon="100.966281" lat="12.901725">
                <ele>69.200000</ele>
                <time>2018-02-26T12:09:24.644Z</time>
            </trkpt>
            <trkpt lon="100.966302" lat="12.901702">
                <ele>68.900000</ele>
                <time>2018-02-26T12:09:25.644Z</time>
            </trkpt>
            <trkpt lon="100.966328" lat="12.901684">
                <ele>68.900000</ele>
                <time>2018-02-26T12:09:26.644Z</time>
            </trkpt>
            <trkpt lon="100.966353" lat="12.901668">
                <ele>68.800000</ele>
                <time>2018-02-26T12:09:27.644Z</time>
            </trkpt>
            <trkpt lon="100.966378" lat="12.901651">
                <ele>68.800000</ele>
                <time>2018-02-26T12:09:28.644Z</time>
            </trkpt>
            <trkpt lon="100.966402" lat="12.901634">
                <ele>68.900000</ele>
                <time>2018-02-26T12:09:29.644Z</time>
            </trkpt>
            <trkpt lon="100.966424" lat="12.901600">
                <ele>68.900000</ele>
                <time>2018-02-26T12:09:31.644Z</time>
            </trkpt>
            <trkpt lon="100.966442" lat="12.901544">
                <ele>69.200000</ele>
                <time>2018-02-26T12:09:33.644Z</time>
            </trkpt>
            <trkpt lon="100.966454" lat="12.901519">
                <ele>69.200000</ele>
                <time>2018-02-26T12:09:34.644Z</time>
            </trkpt>
            <trkpt lon="100.966495" lat="12.901482">
                <ele>69.500000</ele>
                <time>2018-02-26T12:09:36.644Z</time>
            </trkpt>
            <trkpt lon="100.966538" lat="12.901450">
                <ele>69.900000</ele>
                <time>2018-02-26T12:09:37.644Z</time>
            </trkpt>
            <trkpt lon="100.966572" lat="12.901430">
                <ele>70.200000</ele>
                <time>2018-02-26T12:09:38.644Z</time>
            </trkpt>
            <trkpt lon="100.966618" lat="12.901440">
                <ele>70.400000</ele>
                <time>2018-02-26T12:09:40.644Z</time>
            </trkpt>
            <trkpt lon="100.966642" lat="12.901472">
                <ele>70.400000</ele>
                <time>2018-02-26T12:09:43.644Z</time>
            </trkpt>
            <trkpt lon="100.966678" lat="12.901474">
                <ele>70.700000</ele>
                <time>2018-02-26T12:09:45.644Z</time>
            </trkpt>
            <trkpt lon="100.966709" lat="12.901500">
                <ele>70.700000</ele>
                <time>2018-02-26T12:09:47.644Z</time>
            </trkpt>
            <trkpt lon="100.966726" lat="12.901524">
                <ele>70.700000</ele>
                <time>2018-02-26T12:09:49.644Z</time>
            </trkpt>
            <trkpt lon="100.966739" lat="12.901570">
                <ele>70.400000</ele>
                <time>2018-02-26T12:09:51.644Z</time>
            </trkpt>
            <trkpt lon="100.966759" lat="12.901589">
                <ele>70.600000</ele>
                <time>2018-02-26T12:09:52.644Z</time>
            </trkpt>
            <trkpt lon="100.966807" lat="12.901624">
                <ele>70.800000</ele>
                <time>2018-02-26T12:09:54.644Z</time>
            </trkpt>
            <trkpt lon="100.966830" lat="12.901644">
                <ele>70.800000</ele>
                <time>2018-02-26T12:09:55.644Z</time>
            </trkpt>
            <trkpt lon="100.966855" lat="12.901663">
                <ele>71.100000</ele>
                <time>2018-02-26T12:09:56.644Z</time>
            </trkpt>
            <trkpt lon="100.966887" lat="12.901680">
                <ele>71.200000</ele>
                <time>2018-02-26T12:09:57.644Z</time>
            </trkpt>
            <trkpt lon="100.966918" lat="12.901690">
                <ele>71.600000</ele>
                <time>2018-02-26T12:09:58.644Z</time>
            </trkpt>
            <trkpt lon="100.966978" lat="12.901709">
                <ele>72.400000</ele>
                <time>2018-02-26T12:10:00.644Z</time>
            </trkpt>
            <trkpt lon="100.967015" lat="12.901715">
                <ele>72.700000</ele>
                <time>2018-02-26T12:10:01.644Z</time>
            </trkpt>
            <trkpt lon="100.967059" lat="12.901739">
                <ele>72.800000</ele>
                <time>2018-02-26T12:10:02.644Z</time>
            </trkpt>
            <trkpt lon="100.967092" lat="12.901751">
                <ele>72.900000</ele>
                <time>2018-02-26T12:10:03.644Z</time>
            </trkpt>
            <trkpt lon="100.967120" lat="12.901755">
                <ele>72.900000</ele>
                <time>2018-02-26T12:10:04.644Z</time>
            </trkpt>
            <trkpt lon="100.967161" lat="12.901716">
                <ele>72.900000</ele>
                <time>2018-02-26T12:10:06.644Z</time>
            </trkpt>
            <trkpt lon="100.967182" lat="12.901697">
                <ele>72.900000</ele>
                <time>2018-02-26T12:10:07.644Z</time>
            </trkpt>
            <trkpt lon="100.967220" lat="12.901666">
                <ele>72.800000</ele>
                <time>2018-02-26T12:10:09.644Z</time>
            </trkpt>
            <trkpt lon="100.967264" lat="12.901635">
                <ele>72.600000</ele>
                <time>2018-02-26T12:10:11.644Z</time>
            </trkpt>
            <trkpt lon="100.967290" lat="12.901617">
                <ele>72.300000</ele>
                <time>2018-02-26T12:10:12.644Z</time>
            </trkpt>
            <trkpt lon="100.967328" lat="12.901576">
                <ele>72.100000</ele>
                <time>2018-02-26T12:10:13.644Z</time>
            </trkpt>
            <trkpt lon="100.967363" lat="12.901552">
                <ele>72.000000</ele>
                <time>2018-02-26T12:10:14.644Z</time>
            </trkpt>
            <trkpt lon="100.967405" lat="12.901535">
                <ele>72.000000</ele>
                <time>2018-02-26T12:10:15.644Z</time>
            </trkpt>
            <trkpt lon="100.967446" lat="12.901518">
                <ele>72.000000</ele>
                <time>2018-02-26T12:10:16.644Z</time>
            </trkpt>
            <trkpt lon="100.967474" lat="12.901503">
                <ele>72.000000</ele>
                <time>2018-02-26T12:10:17.644Z</time>
            </trkpt>
            <trkpt lon="100.967506" lat="12.901487">
                <ele>72.000000</ele>
                <time>2018-02-26T12:10:18.644Z</time>
            </trkpt>
            <trkpt lon="100.967540" lat="12.901465">
                <ele>72.200000</ele>
                <time>2018-02-26T12:10:19.644Z</time>
            </trkpt>
            <trkpt lon="100.967574" lat="12.901450">
                <ele>72.200000</ele>
                <time>2018-02-26T12:10:20.644Z</time>
            </trkpt>
            <trkpt lon="100.967607" lat="12.901425">
                <ele>72.400000</ele>
                <time>2018-02-26T12:10:21.644Z</time>
            </trkpt>
            <trkpt lon="100.967642" lat="12.901393">
                <ele>72.700000</ele>
                <time>2018-02-26T12:10:22.644Z</time>
            </trkpt>
            <trkpt lon="100.967672" lat="12.901367">
                <ele>72.900000</ele>
                <time>2018-02-26T12:10:23.644Z</time>
            </trkpt>
            <trkpt lon="100.967695" lat="12.901345">
                <ele>72.900000</ele>
                <time>2018-02-26T12:10:24.644Z</time>
            </trkpt>
            <trkpt lon="100.967718" lat="12.901327">
                <ele>72.900000</ele>
                <time>2018-02-26T12:10:25.644Z</time>
            </trkpt>
            <trkpt lon="100.967736" lat="12.901303">
                <ele>72.900000</ele>
                <time>2018-02-26T12:10:26.644Z</time>
            </trkpt>
            <trkpt lon="100.967745" lat="12.901262">
                <ele>72.900000</ele>
                <time>2018-02-26T12:10:27.644Z</time>
            </trkpt>
            <trkpt lon="100.967746" lat="12.901228">
                <ele>72.700000</ele>
                <time>2018-02-26T12:10:28.644Z</time>
            </trkpt>
            <trkpt lon="100.967737" lat="12.901187">
                <ele>72.900000</ele>
                <time>2018-02-26T12:10:29.644Z</time>
            </trkpt>
            <trkpt lon="100.967731" lat="12.901149">
                <ele>73.000000</ele>
                <time>2018-02-26T12:10:30.644Z</time>
            </trkpt>
            <trkpt lon="100.967729" lat="12.901115">
                <ele>73.000000</ele>
                <time>2018-02-26T12:10:31.644Z</time>
            </trkpt>
            <trkpt lon="100.967725" lat="12.901083">
                <ele>73.100000</ele>
                <time>2018-02-26T12:10:32.644Z</time>
            </trkpt>
            <trkpt lon="100.967698" lat="12.901039">
                <ele>73.300000</ele>
                <time>2018-02-26T12:10:34.644Z</time>
            </trkpt>
            <trkpt lon="100.967665" lat="12.901001">
                <ele>73.600000</ele>
                <time>2018-02-26T12:10:36.644Z</time>
            </trkpt>
            <trkpt lon="100.967621" lat="12.900982">
                <ele>73.300000</ele>
                <time>2018-02-26T12:10:38.644Z</time>
            </trkpt>
            <trkpt lon="100.967588" lat="12.900976">
                <ele>73.100000</ele>
                <time>2018-02-26T12:10:40.644Z</time>
            </trkpt>
            <trkpt lon="100.967555" lat="12.900969">
                <ele>72.800000</ele>
                <time>2018-02-26T12:10:42.644Z</time>
            </trkpt>
            <trkpt lon="100.967511" lat="12.900948">
                <ele>72.900000</ele>
                <time>2018-02-26T12:10:44.644Z</time>
            </trkpt>
            <trkpt lon="100.967483" lat="12.900935">
                <ele>72.900000</ele>
                <time>2018-02-26T12:10:45.644Z</time>
            </trkpt>
            <trkpt lon="100.967458" lat="12.900915">
                <ele>73.100000</ele>
                <time>2018-02-26T12:10:46.644Z</time>
            </trkpt>
            <trkpt lon="100.967433" lat="12.900892">
                <ele>73.100000</ele>
                <time>2018-02-26T12:10:47.644Z</time>
            </trkpt>
            <trkpt lon="100.967396" lat="12.900863">
                <ele>73.400000</ele>
                <time>2018-02-26T12:10:49.644Z</time>
            </trkpt>
            <trkpt lon="100.967351" lat="12.900846">
                <ele>73.500000</ele>
                <time>2018-02-26T12:10:51.644Z</time>
            </trkpt>
            <trkpt lon="100.967321" lat="12.900835">
                <ele>73.800000</ele>
                <time>2018-02-26T12:10:53.644Z</time>
            </trkpt>
            <trkpt lon="100.967289" lat="12.900827">
                <ele>74.000000</ele>
                <time>2018-02-26T12:11:06.644Z</time>
            </trkpt>
            <trkpt lon="100.967266" lat="12.900847">
                <ele>74.000000</ele>
                <time>2018-02-26T12:11:23.644Z</time>
            </trkpt>
            <trkpt lon="100.967239" lat="12.900857">
                <ele>74.000000</ele>
                <time>2018-02-26T12:11:36.644Z</time>
            </trkpt>
            <trkpt lon="100.967215" lat="12.900873">
                <ele>74.300000</ele>
                <time>2018-02-26T12:11:47.644Z</time>
            </trkpt>
            <trkpt lon="100.967196" lat="12.900894">
                <ele>74.100000</ele>
                <time>2018-02-26T12:12:01.644Z</time>
            </trkpt>
            <trkpt lon="100.967168" lat="12.900896">
                <ele>74.300000</ele>
                <time>2018-02-26T12:12:24.644Z</time>
            </trkpt>
            <trkpt lon="100.967131" lat="12.900910">
                <ele>74.500000</ele>
                <time>2018-02-26T12:12:26.644Z</time>
            </trkpt>
            <trkpt lon="100.967103" lat="12.900916">
                <ele>74.500000</ele>
                <time>2018-02-26T12:12:27.644Z</time>
            </trkpt>
            <trkpt lon="100.967053" lat="12.900925">
                <ele>74.800000</ele>
                <time>2018-02-26T12:12:29.644Z</time>
            </trkpt>
            <trkpt lon="100.967028" lat="12.900939">
                <ele>74.800000</ele>
                <time>2018-02-26T12:12:30.644Z</time>
            </trkpt>
            <trkpt lon="100.966998" lat="12.900975">
                <ele>74.700000</ele>
                <time>2018-02-26T12:12:32.644Z</time>
            </trkpt>
            <trkpt lon="100.966977" lat="12.900996">
                <ele>74.700000</ele>
                <time>2018-02-26T12:12:33.644Z</time>
            </trkpt>
            <trkpt lon="100.966936" lat="12.901014">
                <ele>74.500000</ele>
                <time>2018-02-26T12:12:35.644Z</time>
            </trkpt>
            <trkpt lon="100.966908" lat="12.901022">
                <ele>74.500000</ele>
                <time>2018-02-26T12:12:36.644Z</time>
            </trkpt>
            <trkpt lon="100.966871" lat="12.901021">
                <ele>74.500000</ele>
                <time>2018-02-26T12:12:37.644Z</time>
            </trkpt>
            <trkpt lon="100.966835" lat="12.901026">
                <ele>74.400000</ele>
                <time>2018-02-26T12:12:38.644Z</time>
            </trkpt>
            <trkpt lon="100.966778" lat="12.901020">
                <ele>74.200000</ele>
                <time>2018-02-26T12:12:40.644Z</time>
            </trkpt>
            <trkpt lon="100.966721" lat="12.901008">
                <ele>73.900000</ele>
                <time>2018-02-26T12:12:42.644Z</time>
            </trkpt>
            <trkpt lon="100.966692" lat="12.901005">
                <ele>73.700000</ele>
                <time>2018-02-26T12:12:43.644Z</time>
            </trkpt>
            <trkpt lon="100.966647" lat="12.901004">
                <ele>73.500000</ele>
                <time>2018-02-26T12:12:45.644Z</time>
            </trkpt>
            <trkpt lon="100.966612" lat="12.900973">
                <ele>73.800000</ele>
                <time>2018-02-26T12:12:47.644Z</time>
            </trkpt>
            <trkpt lon="100.966593" lat="12.900949">
                <ele>74.000000</ele>
                <time>2018-02-26T12:12:48.644Z</time>
            </trkpt>
            <trkpt lon="100.966554" lat="12.900914">
                <ele>74.300000</ele>
                <time>2018-02-26T12:12:50.644Z</time>
            </trkpt>
            <trkpt lon="100.966526" lat="12.900909">
                <ele>74.300000</ele>
                <time>2018-02-26T12:12:51.644Z</time>
            </trkpt>
            <trkpt lon="100.966495" lat="12.900908">
                <ele>74.200000</ele>
                <time>2018-02-26T12:12:52.644Z</time>
            </trkpt>
            <trkpt lon="100.966462" lat="12.900915">
                <ele>74.200000</ele>
                <time>2018-02-26T12:12:53.644Z</time>
            </trkpt>
            <trkpt lon="100.966433" lat="12.900920">
                <ele>73.700000</ele>
                <time>2018-02-26T12:12:54.644Z</time>
            </trkpt>
            <trkpt lon="100.966391" lat="12.900927">
                <ele>73.500000</ele>
                <time>2018-02-26T12:12:56.644Z</time>
            </trkpt>
            <trkpt lon="100.966358" lat="12.900913">
                <ele>73.500000</ele>
                <time>2018-02-26T12:12:58.644Z</time>
            </trkpt>
            <trkpt lon="100.966347" lat="12.900888">
                <ele>73.500000</ele>
                <time>2018-02-26T12:13:02.644Z</time>
            </trkpt>
            <trkpt lon="100.966335" lat="12.900858">
                <ele>73.700000</ele>
                <time>2018-02-26T12:13:07.644Z</time>
            </trkpt>
            <trkpt lon="100.966312" lat="12.900842">
                <ele>73.500000</ele>
                <time>2018-02-26T12:13:25.644Z</time>
            </trkpt>
            <trkpt lon="100.966283" lat="12.900833">
                <ele>73.300000</ele>
                <time>2018-02-26T12:13:48.644Z</time>
            </trkpt>
            <trkpt lon="100.966270" lat="12.900807">
                <ele>73.300000</ele>
                <time>2018-02-26T12:13:51.644Z</time>
            </trkpt>
            <trkpt lon="100.966277" lat="12.900770">
                <ele>73.500000</ele>
                <time>2018-02-26T12:13:53.644Z</time>
            </trkpt>
            <trkpt lon="100.966280" lat="12.900737">
                <ele>73.500000</ele>
                <time>2018-02-26T12:13:55.644Z</time>
            </trkpt>
            <trkpt lon="100.966272" lat="12.900708">
                <ele>73.400000</ele>
                <time>2018-02-26T12:14:01.644Z</time>
            </trkpt>
            <trkpt lon="100.966273" lat="12.900674">
                <ele>73.400000</ele>
                <time>2018-02-26T12:14:04.644Z</time>
            </trkpt>
            <trkpt lon="100.966288" lat="12.900643">
                <ele>73.500000</ele>
                <time>2018-02-26T12:14:07.644Z</time>
            </trkpt>
            <trkpt lon="100.966302" lat="12.900614">
                <ele>73.300000</ele>
                <time>2018-02-26T12:14:19.644Z</time>
            </trkpt>
            <trkpt lon="100.966325" lat="12.900587">
                <ele>73.300000</ele>
                <time>2018-02-26T12:14:21.644Z</time>
            </trkpt>
            <trkpt lon="100.966345" lat="12.900563">
                <ele>73.700000</ele>
                <time>2018-02-26T12:14:22.644Z</time>
            </trkpt>
            <trkpt lon="100.966379" lat="12.900538">
                <ele>74.300000</ele>
                <time>2018-02-26T12:14:25.644Z</time>
            </trkpt>
            <trkpt lon="100.966422" lat="12.900531">
                <ele>74.700000</ele>
                <time>2018-02-26T12:14:27.644Z</time>
            </trkpt>
            <trkpt lon="100.966455" lat="12.900543">
                <ele>74.700000</ele>
                <time>2018-02-26T12:14:29.644Z</time>
            </trkpt>
            <trkpt lon="100.966488" lat="12.900551">
                <ele>75.100000</ele>
                <time>2018-02-26T12:14:31.644Z</time>
            </trkpt>
            <trkpt lon="100.966532" lat="12.900566">
                <ele>75.500000</ele>
                <time>2018-02-26T12:14:33.644Z</time>
            </trkpt>
            <trkpt lon="100.966574" lat="12.900559">
                <ele>75.700000</ele>
                <time>2018-02-26T12:14:35.644Z</time>
            </trkpt>
            <trkpt lon="100.966605" lat="12.900525">
                <ele>76.000000</ele>
                <time>2018-02-26T12:14:37.644Z</time>
            </trkpt>
            <trkpt lon="100.966646" lat="12.900489">
                <ele>76.200000</ele>
                <time>2018-02-26T12:14:39.644Z</time>
            </trkpt>
            <trkpt lon="100.966703" lat="12.900485">
                <ele>76.200000</ele>
                <time>2018-02-26T12:14:41.644Z</time>
            </trkpt>
            <trkpt lon="100.966737" lat="12.900500">
                <ele>76.100000</ele>
                <time>2018-02-26T12:14:42.644Z</time>
            </trkpt>
            <trkpt lon="100.966769" lat="12.900514">
                <ele>75.900000</ele>
                <time>2018-02-26T12:14:43.644Z</time>
            </trkpt>
            <trkpt lon="100.966800" lat="12.900524">
                <ele>75.900000</ele>
                <time>2018-02-26T12:14:44.644Z</time>
            </trkpt>
            <trkpt lon="100.966855" lat="12.900515">
                <ele>75.600000</ele>
                <time>2018-02-26T12:14:46.644Z</time>
            </trkpt>
            <trkpt lon="100.966901" lat="12.900500">
                <ele>75.700000</ele>
                <time>2018-02-26T12:14:48.644Z</time>
            </trkpt>
            <trkpt lon="100.966930" lat="12.900489">
                <ele>75.700000</ele>
                <time>2018-02-26T12:14:49.644Z</time>
            </trkpt>
            <trkpt lon="100.966970" lat="12.900475">
                <ele>75.500000</ele>
                <time>2018-02-26T12:14:50.644Z</time>
            </trkpt>
            <trkpt lon="100.967007" lat="12.900465">
                <ele>75.400000</ele>
                <time>2018-02-26T12:14:51.644Z</time>
            </trkpt>
            <trkpt lon="100.967042" lat="12.900457">
                <ele>75.300000</ele>
                <time>2018-02-26T12:14:52.644Z</time>
            </trkpt>
            <trkpt lon="100.967095" lat="12.900444">
                <ele>75.300000</ele>
                <time>2018-02-26T12:14:54.644Z</time>
            </trkpt>
            <trkpt lon="100.967131" lat="12.900420">
                <ele>75.300000</ele>
                <time>2018-02-26T12:14:56.644Z</time>
            </trkpt>
            <trkpt lon="100.967168" lat="12.900401">
                <ele>75.300000</ele>
                <time>2018-02-26T12:14:58.644Z</time>
            </trkpt>
            <trkpt lon="100.967216" lat="12.900384">
                <ele>75.100000</ele>
                <time>2018-02-26T12:15:00.644Z</time>
            </trkpt>
            <trkpt lon="100.967259" lat="12.900339">
                <ele>74.600000</ele>
                <time>2018-02-26T12:15:02.644Z</time>
            </trkpt>
            <trkpt lon="100.967284" lat="12.900303">
                <ele>74.100000</ele>
                <time>2018-02-26T12:15:03.644Z</time>
            </trkpt>
            <trkpt lon="100.967297" lat="12.900272">
                <ele>73.900000</ele>
                <time>2018-02-26T12:15:04.644Z</time>
            </trkpt>
            <trkpt lon="100.967317" lat="12.900225">
                <ele>73.400000</ele>
                <time>2018-02-26T12:15:05.644Z</time>
            </trkpt>
            <trkpt lon="100.967332" lat="12.900180">
                <ele>73.100000</ele>
                <time>2018-02-26T12:15:06.644Z</time>
            </trkpt>
            <trkpt lon="100.967341" lat="12.900141">
                <ele>72.900000</ele>
                <time>2018-02-26T12:15:07.644Z</time>
            </trkpt>
            <trkpt lon="100.967345" lat="12.900106">
                <ele>72.600000</ele>
                <time>2018-02-26T12:15:08.644Z</time>
            </trkpt>
            <trkpt lon="100.967334" lat="12.900073">
                <ele>72.300000</ele>
                <time>2018-02-26T12:15:09.644Z</time>
            </trkpt>
            <trkpt lon="100.967307" lat="12.900045">
                <ele>72.600000</ele>
                <time>2018-02-26T12:15:10.644Z</time>
            </trkpt>
            <trkpt lon="100.967285" lat="12.900015">
                <ele>72.100000</ele>
                <time>2018-02-26T12:15:11.644Z</time>
            </trkpt>
            <trkpt lon="100.967261" lat="12.899990">
                <ele>71.800000</ele>
                <time>2018-02-26T12:15:12.644Z</time>
            </trkpt>
            <trkpt lon="100.967236" lat="12.899968">
                <ele>71.800000</ele>
                <time>2018-02-26T12:15:13.644Z</time>
            </trkpt>
            <trkpt lon="100.967210" lat="12.899944">
                <ele>71.600000</ele>
                <time>2018-02-26T12:15:14.644Z</time>
            </trkpt>
            <trkpt lon="100.967186" lat="12.899922">
                <ele>71.800000</ele>
                <time>2018-02-26T12:15:15.644Z</time>
            </trkpt>
            <trkpt lon="100.967164" lat="12.899897">
                <ele>71.400000</ele>
                <time>2018-02-26T12:15:16.644Z</time>
            </trkpt>
            <trkpt lon="100.967142" lat="12.899873">
                <ele>71.400000</ele>
                <time>2018-02-26T12:15:17.644Z</time>
            </trkpt>
            <trkpt lon="100.967117" lat="12.899851">
                <ele>71.400000</ele>
                <time>2018-02-26T12:15:18.644Z</time>
            </trkpt>
            <trkpt lon="100.967096" lat="12.899833">
                <ele>71.700000</ele>
                <time>2018-02-26T12:15:19.644Z</time>
            </trkpt>
            <trkpt lon="100.967078" lat="12.899813">
                <ele>71.400000</ele>
                <time>2018-02-26T12:15:20.644Z</time>
            </trkpt>
            <trkpt lon="100.967043" lat="12.899765">
                <ele>71.400000</ele>
                <time>2018-02-26T12:15:22.644Z</time>
            </trkpt>
            <trkpt lon="100.967022" lat="12.899737">
                <ele>71.300000</ele>
                <time>2018-02-26T12:15:23.644Z</time>
            </trkpt>
            <trkpt lon="100.967000" lat="12.899717">
                <ele>71.400000</ele>
                <time>2018-02-26T12:15:24.644Z</time>
            </trkpt>
            <trkpt lon="100.966977" lat="12.899696">
                <ele>71.400000</ele>
                <time>2018-02-26T12:15:25.644Z</time>
            </trkpt>
            <trkpt lon="100.966948" lat="12.899648">
                <ele>71.400000</ele>
                <time>2018-02-26T12:15:27.644Z</time>
            </trkpt>
            <trkpt lon="100.966930" lat="12.899595">
                <ele>71.400000</ele>
                <time>2018-02-26T12:15:29.644Z</time>
            </trkpt>
            <trkpt lon="100.966925" lat="12.899562">
                <ele>71.300000</ele>
                <time>2018-02-26T12:15:30.644Z</time>
            </trkpt>
            <trkpt lon="100.966922" lat="12.899529">
                <ele>71.300000</ele>
                <time>2018-02-26T12:15:32.644Z</time>
            </trkpt>
            <trkpt lon="100.966920" lat="12.899494">
                <ele>71.300000</ele>
                <time>2018-02-26T12:15:40.644Z</time>
            </trkpt>
            <trkpt lon="100.966925" lat="12.899456">
                <ele>71.300000</ele>
                <time>2018-02-26T12:15:47.644Z</time>
            </trkpt>
            <trkpt lon="100.966927" lat="12.899423">
                <ele>71.300000</ele>
                <time>2018-02-26T12:15:49.644Z</time>
            </trkpt>
            <trkpt lon="100.966928" lat="12.899387">
                <ele>71.400000</ele>
                <time>2018-02-26T12:15:51.644Z</time>
            </trkpt>
            <trkpt lon="100.966927" lat="12.899345">
                <ele>71.400000</ele>
                <time>2018-02-26T12:15:53.644Z</time>
            </trkpt>
            <trkpt lon="100.966928" lat="12.899290">
                <ele>71.500000</ele>
                <time>2018-02-26T12:15:55.644Z</time>
            </trkpt>
            <trkpt lon="100.966921" lat="12.899254">
                <ele>71.400000</ele>
                <time>2018-02-26T12:15:56.644Z</time>
            </trkpt>
            <trkpt lon="100.966910" lat="12.899220">
                <ele>71.400000</ele>
                <time>2018-02-26T12:15:57.644Z</time>
            </trkpt>
            <trkpt lon="100.966892" lat="12.899191">
                <ele>71.400000</ele>
                <time>2018-02-26T12:15:58.644Z</time>
            </trkpt>
            <trkpt lon="100.966868" lat="12.899164">
                <ele>70.900000</ele>
                <time>2018-02-26T12:15:59.644Z</time>
            </trkpt>
            <trkpt lon="100.966840" lat="12.899141">
                <ele>70.400000</ele>
                <time>2018-02-26T12:16:00.644Z</time>
            </trkpt>
            <trkpt lon="100.966815" lat="12.899116">
                <ele>70.400000</ele>
                <time>2018-02-26T12:16:01.644Z</time>
            </trkpt>
            <trkpt lon="100.966792" lat="12.899092">
                <ele>70.100000</ele>
                <time>2018-02-26T12:16:02.644Z</time>
            </trkpt>
            <trkpt lon="100.966766" lat="12.899066">
                <ele>70.100000</ele>
                <time>2018-02-26T12:16:03.644Z</time>
            </trkpt>
            <trkpt lon="100.966738" lat="12.899040">
                <ele>69.900000</ele>
                <time>2018-02-26T12:16:04.644Z</time>
            </trkpt>
            <trkpt lon="100.966711" lat="12.899011">
                <ele>69.800000</ele>
                <time>2018-02-26T12:16:05.644Z</time>
            </trkpt>
            <trkpt lon="100.966688" lat="12.898985">
                <ele>70.000000</ele>
                <time>2018-02-26T12:16:06.644Z</time>
            </trkpt>
            <trkpt lon="100.966664" lat="12.898959">
                <ele>69.800000</ele>
                <time>2018-02-26T12:16:07.644Z</time>
            </trkpt>
            <trkpt lon="100.966641" lat="12.898929">
                <ele>70.000000</ele>
                <time>2018-02-26T12:16:08.644Z</time>
            </trkpt>
            <trkpt lon="100.966623" lat="12.898885">
                <ele>70.000000</ele>
                <time>2018-02-26T12:16:09.644Z</time>
            </trkpt>
            <trkpt lon="100.966619" lat="12.898834">
                <ele>70.200000</ele>
                <time>2018-02-26T12:16:10.644Z</time>
            </trkpt>
            <trkpt lon="100.966622" lat="12.898789">
                <ele>70.400000</ele>
                <time>2018-02-26T12:16:11.644Z</time>
            </trkpt>
            <trkpt lon="100.966628" lat="12.898751">
                <ele>70.600000</ele>
                <time>2018-02-26T12:16:12.644Z</time>
            </trkpt>
            <trkpt lon="100.966634" lat="12.898723">
                <ele>71.000000</ele>
                <time>2018-02-26T12:16:13.644Z</time>
            </trkpt>
            <trkpt lon="100.966640" lat="12.898694">
                <ele>71.000000</ele>
                <time>2018-02-26T12:16:14.644Z</time>
            </trkpt>
            <trkpt lon="100.966649" lat="12.898663">
                <ele>71.000000</ele>
                <time>2018-02-26T12:16:15.644Z</time>
            </trkpt>
            <trkpt lon="100.966655" lat="12.898624">
                <ele>71.000000</ele>
                <time>2018-02-26T12:16:16.644Z</time>
            </trkpt>
            <trkpt lon="100.966658" lat="12.898584">
                <ele>70.900000</ele>
                <time>2018-02-26T12:16:17.644Z</time>
            </trkpt>
            <trkpt lon="100.966651" lat="12.898547">
                <ele>71.000000</ele>
                <time>2018-02-26T12:16:18.644Z</time>
            </trkpt>
            <trkpt lon="100.966636" lat="12.898512">
                <ele>71.200000</ele>
                <time>2018-02-26T12:16:19.644Z</time>
            </trkpt>
            <trkpt lon="100.966612" lat="12.898479">
                <ele>71.400000</ele>
                <time>2018-02-26T12:16:20.644Z</time>
            </trkpt>
            <trkpt lon="100.966587" lat="12.898453">
                <ele>71.400000</ele>
                <time>2018-02-26T12:16:21.644Z</time>
            </trkpt>
            <trkpt lon="100.966557" lat="12.898424">
                <ele>71.600000</ele>
                <time>2018-02-26T12:16:22.644Z</time>
            </trkpt>
            <trkpt lon="100.966524" lat="12.898399">
                <ele>71.800000</ele>
                <time>2018-02-26T12:16:23.644Z</time>
            </trkpt>
            <trkpt lon="100.966489" lat="12.898397">
                <ele>71.700000</ele>
                <time>2018-02-26T12:16:24.644Z</time>
            </trkpt>
            <trkpt lon="100.966454" lat="12.898394">
                <ele>71.700000</ele>
                <time>2018-02-26T12:16:25.644Z</time>
            </trkpt>
            <trkpt lon="100.966423" lat="12.898392">
                <ele>71.700000</ele>
                <time>2018-02-26T12:16:26.644Z</time>
            </trkpt>
            <trkpt lon="100.966390" lat="12.898390">
                <ele>71.700000</ele>
                <time>2018-02-26T12:16:27.644Z</time>
            </trkpt>
            <trkpt lon="100.966357" lat="12.898385">
                <ele>71.600000</ele>
                <time>2018-02-26T12:16:28.644Z</time>
            </trkpt>
            <trkpt lon="100.966320" lat="12.898379">
                <ele>71.600000</ele>
                <time>2018-02-26T12:16:29.644Z</time>
            </trkpt>
            <trkpt lon="100.966281" lat="12.898371">
                <ele>71.600000</ele>
                <time>2018-02-26T12:16:30.644Z</time>
            </trkpt>
            <trkpt lon="100.966244" lat="12.898364">
                <ele>71.500000</ele>
                <time>2018-02-26T12:16:31.644Z</time>
            </trkpt>
            <trkpt lon="100.966213" lat="12.898346">
                <ele>71.500000</ele>
                <time>2018-02-26T12:16:32.644Z</time>
            </trkpt>
            <trkpt lon="100.966188" lat="12.898310">
                <ele>71.500000</ele>
                <time>2018-02-26T12:16:33.644Z</time>
            </trkpt>
            <trkpt lon="100.966184" lat="12.898272">
                <ele>71.400000</ele>
                <time>2018-02-26T12:16:34.644Z</time>
            </trkpt>
            <trkpt lon="100.966183" lat="12.898234">
                <ele>71.400000</ele>
                <time>2018-02-26T12:16:35.644Z</time>
            </trkpt>
            <trkpt lon="100.966175" lat="12.898196">
                <ele>71.300000</ele>
                <time>2018-02-26T12:16:36.644Z</time>
            </trkpt>
            <trkpt lon="100.966170" lat="12.898163">
                <ele>71.300000</ele>
                <time>2018-02-26T12:16:37.644Z</time>
            </trkpt>
            <trkpt lon="100.966153" lat="12.898129">
                <ele>71.300000</ele>
                <time>2018-02-26T12:16:38.644Z</time>
            </trkpt>
            <trkpt lon="100.966134" lat="12.898102">
                <ele>71.300000</ele>
                <time>2018-02-26T12:16:39.644Z</time>
            </trkpt>
            <trkpt lon="100.966116" lat="12.898080">
                <ele>71.200000</ele>
                <time>2018-02-26T12:16:40.644Z</time>
            </trkpt>
            <trkpt lon="100.966095" lat="12.898052">
                <ele>71.200000</ele>
                <time>2018-02-26T12:16:41.644Z</time>
            </trkpt>
            <trkpt lon="100.966070" lat="12.898024">
                <ele>71.400000</ele>
                <time>2018-02-26T12:16:42.644Z</time>
            </trkpt>
            <trkpt lon="100.966046" lat="12.897991">
                <ele>71.500000</ele>
                <time>2018-02-26T12:16:43.644Z</time>
            </trkpt>
            <trkpt lon="100.966025" lat="12.897967">
                <ele>71.600000</ele>
                <time>2018-02-26T12:16:44.644Z</time>
            </trkpt>
            <trkpt lon="100.966011" lat="12.897937">
                <ele>71.700000</ele>
                <time>2018-02-26T12:16:45.644Z</time>
            </trkpt>
            <trkpt lon="100.965988" lat="12.897905">
                <ele>71.900000</ele>
                <time>2018-02-26T12:16:46.644Z</time>
            </trkpt>
            <trkpt lon="100.965956" lat="12.897885">
                <ele>72.100000</ele>
                <time>2018-02-26T12:16:47.644Z</time>
            </trkpt>
            <trkpt lon="100.965930" lat="12.897866">
                <ele>72.300000</ele>
                <time>2018-02-26T12:16:48.644Z</time>
            </trkpt>
            <trkpt lon="100.965885" lat="12.897854">
                <ele>72.700000</ele>
                <time>2018-02-26T12:16:49.644Z</time>
            </trkpt>
            <trkpt lon="100.965830" lat="12.897821">
                <ele>72.800000</ele>
                <time>2018-02-26T12:16:50.644Z</time>
            </trkpt>
            <trkpt lon="100.965800" lat="12.897745">
                <ele>72.900000</ele>
                <time>2018-02-26T12:16:51.644Z</time>
            </trkpt>
            <trkpt lon="100.965789" lat="12.897680">
                <ele>72.900000</ele>
                <time>2018-02-26T12:16:52.644Z</time>
            </trkpt>
            <trkpt lon="100.965782" lat="12.897636">
                <ele>72.900000</ele>
                <time>2018-02-26T12:16:53.644Z</time>
            </trkpt>
            <trkpt lon="100.965784" lat="12.897607">
                <ele>72.900000</ele>
                <time>2018-02-26T12:16:54.644Z</time>
            </trkpt>
            <trkpt lon="100.965779" lat="12.897564">
                <ele>72.800000</ele>
                <time>2018-02-26T12:16:55.644Z</time>
            </trkpt>
            <trkpt lon="100.965779" lat="12.897521">
                <ele>72.800000</ele>
                <time>2018-02-26T12:16:56.644Z</time>
            </trkpt>
            <trkpt lon="100.965780" lat="12.897479">
                <ele>73.000000</ele>
                <time>2018-02-26T12:16:57.644Z</time>
            </trkpt>
            <trkpt lon="100.965789" lat="12.897439">
                <ele>72.800000</ele>
                <time>2018-02-26T12:16:58.644Z</time>
            </trkpt>
            <trkpt lon="100.965800" lat="12.897399">
                <ele>72.400000</ele>
                <time>2018-02-26T12:16:59.644Z</time>
            </trkpt>
            <trkpt lon="100.965807" lat="12.897360">
                <ele>71.800000</ele>
                <time>2018-02-26T12:17:00.644Z</time>
            </trkpt>
            <trkpt lon="100.965814" lat="12.897327">
                <ele>71.800000</ele>
                <time>2018-02-26T12:17:01.644Z</time>
            </trkpt>
            <trkpt lon="100.965822" lat="12.897296">
                <ele>71.100000</ele>
                <time>2018-02-26T12:17:02.644Z</time>
            </trkpt>
            <trkpt lon="100.965830" lat="12.897267">
                <ele>70.600000</ele>
                <time>2018-02-26T12:17:03.644Z</time>
            </trkpt>
            <trkpt lon="100.965834" lat="12.897229">
                <ele>70.200000</ele>
                <time>2018-02-26T12:17:04.644Z</time>
            </trkpt>
            <trkpt lon="100.965837" lat="12.897186">
                <ele>69.900000</ele>
                <time>2018-02-26T12:17:05.644Z</time>
            </trkpt>
            <trkpt lon="100.965841" lat="12.897138">
                <ele>69.700000</ele>
                <time>2018-02-26T12:17:06.644Z</time>
            </trkpt>
            <trkpt lon="100.965850" lat="12.897093">
                <ele>69.500000</ele>
                <time>2018-02-26T12:17:07.644Z</time>
            </trkpt>
            <trkpt lon="100.965866" lat="12.897048">
                <ele>69.300000</ele>
                <time>2018-02-26T12:17:08.644Z</time>
            </trkpt>
            <trkpt lon="100.965874" lat="12.897006">
                <ele>69.000000</ele>
                <time>2018-02-26T12:17:09.644Z</time>
            </trkpt>
            <trkpt lon="100.965869" lat="12.896970">
                <ele>68.700000</ele>
                <time>2018-02-26T12:17:10.644Z</time>
            </trkpt>
            <trkpt lon="100.965863" lat="12.896935">
                <ele>68.400000</ele>
                <time>2018-02-26T12:17:11.644Z</time>
            </trkpt>
            <trkpt lon="100.965863" lat="12.896898">
                <ele>68.200000</ele>
                <time>2018-02-26T12:17:12.644Z</time>
            </trkpt>
            <trkpt lon="100.965871" lat="12.896855">
                <ele>68.200000</ele>
                <time>2018-02-26T12:17:13.644Z</time>
            </trkpt>
            <trkpt lon="100.965892" lat="12.896803">
                <ele>68.100000</ele>
                <time>2018-02-26T12:17:14.644Z</time>
            </trkpt>
            <trkpt lon="100.965908" lat="12.896750">
                <ele>68.100000</ele>
                <time>2018-02-26T12:17:15.644Z</time>
            </trkpt>
            <trkpt lon="100.965923" lat="12.896701">
                <ele>68.100000</ele>
                <time>2018-02-26T12:17:16.644Z</time>
            </trkpt>
            <trkpt lon="100.965930" lat="12.896653">
                <ele>68.000000</ele>
                <time>2018-02-26T12:17:17.644Z</time>
            </trkpt>
            <trkpt lon="100.965916" lat="12.896604">
                <ele>68.100000</ele>
                <time>2018-02-26T12:17:18.644Z</time>
            </trkpt>
            <trkpt lon="100.965903" lat="12.896556">
                <ele>68.000000</ele>
                <time>2018-02-26T12:17:19.644Z</time>
            </trkpt>
            <trkpt lon="100.965904" lat="12.896513">
                <ele>68.000000</ele>
                <time>2018-02-26T12:17:20.644Z</time>
            </trkpt>
            <trkpt lon="100.965916" lat="12.896470">
                <ele>68.000000</ele>
                <time>2018-02-26T12:17:21.644Z</time>
            </trkpt>
            <trkpt lon="100.965931" lat="12.896433">
                <ele>68.000000</ele>
                <time>2018-02-26T12:17:22.644Z</time>
            </trkpt>
            <trkpt lon="100.965943" lat="12.896405">
                <ele>68.000000</ele>
                <time>2018-02-26T12:17:23.644Z</time>
            </trkpt>
            <trkpt lon="100.965956" lat="12.896380">
                <ele>68.000000</ele>
                <time>2018-02-26T12:17:24.644Z</time>
            </trkpt>
            <trkpt lon="100.965969" lat="12.896341">
                <ele>68.000000</ele>
                <time>2018-02-26T12:17:26.644Z</time>
            </trkpt>
            <trkpt lon="100.965966" lat="12.896299">
                <ele>67.900000</ele>
                <time>2018-02-26T12:17:37.644Z</time>
            </trkpt>
            <trkpt lon="100.965965" lat="12.896266">
                <ele>67.900000</ele>
                <time>2018-02-26T12:17:39.644Z</time>
            </trkpt>
            <trkpt lon="100.965953" lat="12.896240">
                <ele>67.900000</ele>
                <time>2018-02-26T12:17:40.644Z</time>
            </trkpt>
            <trkpt lon="100.965948" lat="12.896203">
                <ele>67.900000</ele>
                <time>2018-02-26T12:17:41.644Z</time>
            </trkpt>
            <trkpt lon="100.965954" lat="12.896170">
                <ele>67.900000</ele>
                <time>2018-02-26T12:17:42.644Z</time>
            </trkpt>
            <trkpt lon="100.965966" lat="12.896130">
                <ele>67.900000</ele>
                <time>2018-02-26T12:17:43.644Z</time>
            </trkpt>
            <trkpt lon="100.965978" lat="12.896099">
                <ele>67.900000</ele>
                <time>2018-02-26T12:17:44.644Z</time>
            </trkpt>
            <trkpt lon="100.965992" lat="12.896067">
                <ele>67.900000</ele>
                <time>2018-02-26T12:17:45.644Z</time>
            </trkpt>
            <trkpt lon="100.966004" lat="12.896034">
                <ele>67.900000</ele>
                <time>2018-02-26T12:17:46.644Z</time>
            </trkpt>
            <trkpt lon="100.966016" lat="12.896001">
                <ele>67.900000</ele>
                <time>2018-02-26T12:17:47.644Z</time>
            </trkpt>
            <trkpt lon="100.966027" lat="12.895965">
                <ele>67.900000</ele>
                <time>2018-02-26T12:17:48.644Z</time>
            </trkpt>
            <trkpt lon="100.966038" lat="12.895929">
                <ele>67.900000</ele>
                <time>2018-02-26T12:17:49.644Z</time>
            </trkpt>
            <trkpt lon="100.966050" lat="12.895896">
                <ele>67.900000</ele>
                <time>2018-02-26T12:17:50.644Z</time>
            </trkpt>
            <trkpt lon="100.966067" lat="12.895859">
                <ele>67.900000</ele>
                <time>2018-02-26T12:17:51.644Z</time>
            </trkpt>
            <trkpt lon="100.966083" lat="12.895823">
                <ele>67.900000</ele>
                <time>2018-02-26T12:17:52.644Z</time>
            </trkpt>
            <trkpt lon="100.966099" lat="12.895791">
                <ele>67.900000</ele>
                <time>2018-02-26T12:17:53.644Z</time>
            </trkpt>
            <trkpt lon="100.966119" lat="12.895758">
                <ele>67.900000</ele>
                <time>2018-02-26T12:17:54.644Z</time>
            </trkpt>
            <trkpt lon="100.966138" lat="12.895721">
                <ele>68.000000</ele>
                <time>2018-02-26T12:17:55.644Z</time>
            </trkpt>
            <trkpt lon="100.966159" lat="12.895686">
                <ele>68.000000</ele>
                <time>2018-02-26T12:17:56.644Z</time>
            </trkpt>
            <trkpt lon="100.966178" lat="12.895646">
                <ele>68.000000</ele>
                <time>2018-02-26T12:17:57.644Z</time>
            </trkpt>
            <trkpt lon="100.966194" lat="12.895602">
                <ele>68.000000</ele>
                <time>2018-02-26T12:17:58.644Z</time>
            </trkpt>
            <trkpt lon="100.966204" lat="12.895559">
                <ele>68.000000</ele>
                <time>2018-02-26T12:17:59.644Z</time>
            </trkpt>
            <trkpt lon="100.966212" lat="12.895516">
                <ele>68.000000</ele>
                <time>2018-02-26T12:18:00.644Z</time>
            </trkpt>
            <trkpt lon="100.966217" lat="12.895472">
                <ele>67.900000</ele>
                <time>2018-02-26T12:18:01.644Z</time>
            </trkpt>
            <trkpt lon="100.966213" lat="12.895431">
                <ele>67.900000</ele>
                <time>2018-02-26T12:18:02.644Z</time>
            </trkpt>
            <trkpt lon="100.966200" lat="12.895387">
                <ele>67.900000</ele>
                <time>2018-02-26T12:18:03.644Z</time>
            </trkpt>
            <trkpt lon="100.966185" lat="12.895350">
                <ele>67.800000</ele>
                <time>2018-02-26T12:18:04.644Z</time>
            </trkpt>
            <trkpt lon="100.966171" lat="12.895309">
                <ele>67.700000</ele>
                <time>2018-02-26T12:18:05.644Z</time>
            </trkpt>
            <trkpt lon="100.966157" lat="12.895268">
                <ele>67.600000</ele>
                <time>2018-02-26T12:18:06.644Z</time>
            </trkpt>
            <trkpt lon="100.966142" lat="12.895231">
                <ele>67.500000</ele>
                <time>2018-02-26T12:18:07.644Z</time>
            </trkpt>
            <trkpt lon="100.966132" lat="12.895193">
                <ele>67.400000</ele>
                <time>2018-02-26T12:18:08.644Z</time>
            </trkpt>
            <trkpt lon="100.966126" lat="12.895155">
                <ele>66.800000</ele>
                <time>2018-02-26T12:18:09.644Z</time>
            </trkpt>
            <trkpt lon="100.966134" lat="12.895118">
                <ele>66.700000</ele>
                <time>2018-02-26T12:18:10.644Z</time>
            </trkpt>
            <trkpt lon="100.966146" lat="12.895085">
                <ele>66.700000</ele>
                <time>2018-02-26T12:18:11.644Z</time>
            </trkpt>
            <trkpt lon="100.966169" lat="12.895068">
                <ele>66.600000</ele>
                <time>2018-02-26T12:18:12.644Z</time>
            </trkpt>
            <trkpt lon="100.966194" lat="12.895049">
                <ele>66.600000</ele>
                <time>2018-02-26T12:18:13.644Z</time>
            </trkpt>
            <trkpt lon="100.966229" lat="12.895037">
                <ele>66.500000</ele>
                <time>2018-02-26T12:18:14.644Z</time>
            </trkpt>
            <trkpt lon="100.966269" lat="12.895031">
                <ele>66.500000</ele>
                <time>2018-02-26T12:18:15.644Z</time>
            </trkpt>
            <trkpt lon="100.966307" lat="12.895025">
                <ele>66.400000</ele>
                <time>2018-02-26T12:18:16.644Z</time>
            </trkpt>
            <trkpt lon="100.966344" lat="12.895017">
                <ele>66.400000</ele>
                <time>2018-02-26T12:18:17.644Z</time>
            </trkpt>
            <trkpt lon="100.966392" lat="12.895002">
                <ele>66.300000</ele>
                <time>2018-02-26T12:18:18.644Z</time>
            </trkpt>
            <trkpt lon="100.966436" lat="12.894979">
                <ele>66.300000</ele>
                <time>2018-02-26T12:18:19.644Z</time>
            </trkpt>
            <trkpt lon="100.966478" lat="12.894962">
                <ele>66.200000</ele>
                <time>2018-02-26T12:18:20.644Z</time>
            </trkpt>
            <trkpt lon="100.966521" lat="12.894949">
                <ele>66.200000</ele>
                <time>2018-02-26T12:18:21.644Z</time>
            </trkpt>
            <trkpt lon="100.966565" lat="12.894939">
                <ele>66.200000</ele>
                <time>2018-02-26T12:18:22.644Z</time>
            </trkpt>
            <trkpt lon="100.966608" lat="12.894931">
                <ele>66.100000</ele>
                <time>2018-02-26T12:18:23.644Z</time>
            </trkpt>
            <trkpt lon="100.966651" lat="12.894920">
                <ele>66.100000</ele>
                <time>2018-02-26T12:18:24.644Z</time>
            </trkpt>
            <trkpt lon="100.966696" lat="12.894910">
                <ele>66.000000</ele>
                <time>2018-02-26T12:18:25.644Z</time>
            </trkpt>
            <trkpt lon="100.966739" lat="12.894900">
                <ele>66.000000</ele>
                <time>2018-02-26T12:18:26.644Z</time>
            </trkpt>
            <trkpt lon="100.966783" lat="12.894890">
                <ele>65.900000</ele>
                <time>2018-02-26T12:18:27.644Z</time>
            </trkpt>
            <trkpt lon="100.966829" lat="12.894883">
                <ele>65.900000</ele>
                <time>2018-02-26T12:18:28.644Z</time>
            </trkpt>
            <trkpt lon="100.966873" lat="12.894873">
                <ele>65.800000</ele>
                <time>2018-02-26T12:18:29.644Z</time>
            </trkpt>
            <trkpt lon="100.966911" lat="12.894862">
                <ele>65.800000</ele>
                <time>2018-02-26T12:18:30.644Z</time>
            </trkpt>
            <trkpt lon="100.966937" lat="12.894847">
                <ele>65.700000</ele>
                <time>2018-02-26T12:18:31.644Z</time>
            </trkpt>
            <trkpt lon="100.966975" lat="12.894830">
                <ele>65.700000</ele>
                <time>2018-02-26T12:18:33.644Z</time>
            </trkpt>
            <trkpt lon="100.967003" lat="12.894828">
                <ele>65.700000</ele>
                <time>2018-02-26T12:18:34.644Z</time>
            </trkpt>
            <trkpt lon="100.967031" lat="12.894825">
                <ele>65.600000</ele>
                <time>2018-02-26T12:18:35.644Z</time>
            </trkpt>
            <trkpt lon="100.967061" lat="12.894819">
                <ele>65.600000</ele>
                <time>2018-02-26T12:18:36.644Z</time>
            </trkpt>
            <trkpt lon="100.967089" lat="12.894810">
                <ele>65.500000</ele>
                <time>2018-02-26T12:18:37.644Z</time>
            </trkpt>
            <trkpt lon="100.967118" lat="12.894795">
                <ele>65.400000</ele>
                <time>2018-02-26T12:18:38.644Z</time>
            </trkpt>
            <trkpt lon="100.967147" lat="12.894782">
                <ele>65.300000</ele>
                <time>2018-02-26T12:18:39.644Z</time>
            </trkpt>
            <trkpt lon="100.967177" lat="12.894770">
                <ele>65.300000</ele>
                <time>2018-02-26T12:18:40.644Z</time>
            </trkpt>
            <trkpt lon="100.967206" lat="12.894756">
                <ele>65.300000</ele>
                <time>2018-02-26T12:18:41.644Z</time>
            </trkpt>
            <trkpt lon="100.967258" lat="12.894730">
                <ele>65.200000</ele>
                <time>2018-02-26T12:18:43.644Z</time>
            </trkpt>
            <trkpt lon="100.967291" lat="12.894725">
                <ele>65.100000</ele>
                <time>2018-02-26T12:18:44.644Z</time>
            </trkpt>
            <trkpt lon="100.967327" lat="12.894721">
                <ele>65.100000</ele>
                <time>2018-02-26T12:18:45.644Z</time>
            </trkpt>
            <trkpt lon="100.967357" lat="12.894714">
                <ele>65.000000</ele>
                <time>2018-02-26T12:18:46.644Z</time>
            </trkpt>
            <trkpt lon="100.967385" lat="12.894711">
                <ele>65.000000</ele>
                <time>2018-02-26T12:18:47.644Z</time>
            </trkpt>
            <trkpt lon="100.967417" lat="12.894707">
                <ele>65.000000</ele>
                <time>2018-02-26T12:18:48.644Z</time>
            </trkpt>
            <trkpt lon="100.967452" lat="12.894701">
                <ele>64.900000</ele>
                <time>2018-02-26T12:18:49.644Z</time>
            </trkpt>
            <trkpt lon="100.967487" lat="12.894691">
                <ele>64.900000</ele>
                <time>2018-02-26T12:18:50.644Z</time>
            </trkpt>
            <trkpt lon="100.967518" lat="12.894675">
                <ele>64.800000</ele>
                <time>2018-02-26T12:18:51.644Z</time>
            </trkpt>
            <trkpt lon="100.967549" lat="12.894661">
                <ele>64.700000</ele>
                <time>2018-02-26T12:18:52.644Z</time>
            </trkpt>
            <trkpt lon="100.967577" lat="12.894646">
                <ele>64.700000</ele>
                <time>2018-02-26T12:18:53.644Z</time>
            </trkpt>
            <trkpt lon="100.967611" lat="12.894636">
                <ele>64.600000</ele>
                <time>2018-02-26T12:18:54.644Z</time>
            </trkpt>
            <trkpt lon="100.967646" lat="12.894628">
                <ele>64.500000</ele>
                <time>2018-02-26T12:18:55.644Z</time>
            </trkpt>
            <trkpt lon="100.967681" lat="12.894621">
                <ele>64.500000</ele>
                <time>2018-02-26T12:18:56.644Z</time>
            </trkpt>
            <trkpt lon="100.967719" lat="12.894612">
                <ele>64.400000</ele>
                <time>2018-02-26T12:18:57.644Z</time>
            </trkpt>
            <trkpt lon="100.967763" lat="12.894604">
                <ele>64.300000</ele>
                <time>2018-02-26T12:18:58.644Z</time>
            </trkpt>
            <trkpt lon="100.967807" lat="12.894595">
                <ele>64.200000</ele>
                <time>2018-02-26T12:18:59.644Z</time>
            </trkpt>
            <trkpt lon="100.967849" lat="12.894588">
                <ele>64.200000</ele>
                <time>2018-02-26T12:19:00.644Z</time>
            </trkpt>
            <trkpt lon="100.967891" lat="12.894581">
                <ele>64.100000</ele>
                <time>2018-02-26T12:19:01.644Z</time>
            </trkpt>
            <trkpt lon="100.967933" lat="12.894576">
                <ele>64.000000</ele>
                <time>2018-02-26T12:19:02.644Z</time>
            </trkpt>
            <trkpt lon="100.967974" lat="12.894571">
                <ele>64.000000</ele>
                <time>2018-02-26T12:19:03.644Z</time>
            </trkpt>
            <trkpt lon="100.968013" lat="12.894565">
                <ele>63.900000</ele>
                <time>2018-02-26T12:19:04.644Z</time>
            </trkpt>
            <trkpt lon="100.968050" lat="12.894550">
                <ele>63.800000</ele>
                <time>2018-02-26T12:19:05.644Z</time>
            </trkpt>
            <trkpt lon="100.968088" lat="12.894535">
                <ele>63.800000</ele>
                <time>2018-02-26T12:19:06.644Z</time>
            </trkpt>
            <trkpt lon="100.968133" lat="12.894528">
                <ele>63.700000</ele>
                <time>2018-02-26T12:19:07.644Z</time>
            </trkpt>
            <trkpt lon="100.968177" lat="12.894526">
                <ele>63.600000</ele>
                <time>2018-02-26T12:19:08.644Z</time>
            </trkpt>
            <trkpt lon="100.968219" lat="12.894521">
                <ele>63.600000</ele>
                <time>2018-02-26T12:19:09.644Z</time>
            </trkpt>
            <trkpt lon="100.968262" lat="12.894514">
                <ele>63.500000</ele>
                <time>2018-02-26T12:19:10.644Z</time>
            </trkpt>
            <trkpt lon="100.968306" lat="12.894508">
                <ele>63.400000</ele>
                <time>2018-02-26T12:19:11.644Z</time>
            </trkpt>
            <trkpt lon="100.968353" lat="12.894505">
                <ele>63.400000</ele>
                <time>2018-02-26T12:19:12.644Z</time>
            </trkpt>
            <trkpt lon="100.968397" lat="12.894499">
                <ele>63.300000</ele>
                <time>2018-02-26T12:19:13.644Z</time>
            </trkpt>
            <trkpt lon="100.968438" lat="12.894495">
                <ele>63.200000</ele>
                <time>2018-02-26T12:19:14.644Z</time>
            </trkpt>
            <trkpt lon="100.968481" lat="12.894495">
                <ele>63.100000</ele>
                <time>2018-02-26T12:19:15.644Z</time>
            </trkpt>
            <trkpt lon="100.968522" lat="12.894495">
                <ele>63.100000</ele>
                <time>2018-02-26T12:19:16.644Z</time>
            </trkpt>
            <trkpt lon="100.968561" lat="12.894493">
                <ele>63.000000</ele>
                <time>2018-02-26T12:19:17.644Z</time>
            </trkpt>
            <trkpt lon="100.968615" lat="12.894484">
                <ele>62.900000</ele>
                <time>2018-02-26T12:19:19.644Z</time>
            </trkpt>
            <trkpt lon="100.968644" lat="12.894481">
                <ele>62.800000</ele>
                <time>2018-02-26T12:19:20.644Z</time>
            </trkpt>
            <trkpt lon="100.968678" lat="12.894478">
                <ele>62.800000</ele>
                <time>2018-02-26T12:19:21.644Z</time>
            </trkpt>
            <trkpt lon="100.968717" lat="12.894478">
                <ele>62.700000</ele>
                <time>2018-02-26T12:19:22.644Z</time>
            </trkpt>
            <trkpt lon="100.968755" lat="12.894479">
                <ele>62.600000</ele>
                <time>2018-02-26T12:19:23.644Z</time>
            </trkpt>
            <trkpt lon="100.968794" lat="12.894482">
                <ele>62.500000</ele>
                <time>2018-02-26T12:19:24.644Z</time>
            </trkpt>
            <trkpt lon="100.968836" lat="12.894490">
                <ele>62.400000</ele>
                <time>2018-02-26T12:19:25.644Z</time>
            </trkpt>
            <trkpt lon="100.968874" lat="12.894504">
                <ele>62.300000</ele>
                <time>2018-02-26T12:19:26.644Z</time>
            </trkpt>
            <trkpt lon="100.968909" lat="12.894518">
                <ele>62.200000</ele>
                <time>2018-02-26T12:19:27.644Z</time>
            </trkpt>
            <trkpt lon="100.968937" lat="12.894533">
                <ele>62.100000</ele>
                <time>2018-02-26T12:19:28.644Z</time>
            </trkpt>
            <trkpt lon="100.968972" lat="12.894565">
                <ele>62.000000</ele>
                <time>2018-02-26T12:19:30.644Z</time>
            </trkpt>
            <trkpt lon="100.968986" lat="12.894597">
                <ele>61.900000</ele>
                <time>2018-02-26T12:19:32.644Z</time>
            </trkpt>
            <trkpt lon="100.968994" lat="12.894623">
                <ele>61.800000</ele>
                <time>2018-02-26T12:19:41.644Z</time>
            </trkpt>
            <trkpt lon="100.968962" lat="12.894663">
                <ele>62.100000</ele>
                <time>2018-02-26T12:19:43.644Z</time>
            </trkpt>
            <trkpt lon="100.968939" lat="12.894710">
                <ele>62.300000</ele>
                <time>2018-02-26T12:19:45.644Z</time>
            </trkpt>
            <trkpt lon="100.968930" lat="12.894737">
                <ele>62.200000</ele>
                <time>2018-02-26T12:19:46.644Z</time>
            </trkpt>
            <trkpt lon="100.968922" lat="12.894763">
                <ele>62.300000</ele>
                <time>2018-02-26T12:19:47.644Z</time>
            </trkpt>
            <trkpt lon="100.968919" lat="12.894792">
                <ele>62.300000</ele>
                <time>2018-02-26T12:19:48.644Z</time>
            </trkpt>
            <trkpt lon="100.968908" lat="12.894843">
                <ele>62.300000</ele>
                <time>2018-02-26T12:19:50.644Z</time>
            </trkpt>
            <trkpt lon="100.968895" lat="12.894870">
                <ele>62.600000</ele>
                <time>2018-02-26T12:19:51.644Z</time>
            </trkpt>
            <trkpt lon="100.968885" lat="12.894899">
                <ele>62.600000</ele>
                <time>2018-02-26T12:19:52.644Z</time>
            </trkpt>
            <trkpt lon="100.968873" lat="12.894925">
                <ele>62.600000</ele>
                <time>2018-02-26T12:19:53.644Z</time>
            </trkpt>
            <trkpt lon="100.968857" lat="12.894951">
                <ele>62.600000</ele>
                <time>2018-02-26T12:19:54.644Z</time>
            </trkpt>
            <trkpt lon="100.968842" lat="12.894979">
                <ele>62.700000</ele>
                <time>2018-02-26T12:19:55.644Z</time>
            </trkpt>
            <trkpt lon="100.968824" lat="12.895009">
                <ele>62.600000</ele>
                <time>2018-02-26T12:19:56.644Z</time>
            </trkpt>
            <trkpt lon="100.968807" lat="12.895038">
                <ele>62.700000</ele>
                <time>2018-02-26T12:19:57.644Z</time>
            </trkpt>
            <trkpt lon="100.968792" lat="12.895064">
                <ele>62.800000</ele>
                <time>2018-02-26T12:19:58.644Z</time>
            </trkpt>
            <trkpt lon="100.968776" lat="12.895087">
                <ele>62.800000</ele>
                <time>2018-02-26T12:19:59.644Z</time>
            </trkpt>
            <trkpt lon="100.968745" lat="12.895135">
                <ele>63.000000</ele>
                <time>2018-02-26T12:20:01.644Z</time>
            </trkpt>
            <trkpt lon="100.968725" lat="12.895165">
                <ele>63.100000</ele>
                <time>2018-02-26T12:20:02.644Z</time>
            </trkpt>
            <trkpt lon="100.968699" lat="12.895192">
                <ele>63.500000</ele>
                <time>2018-02-26T12:20:03.644Z</time>
            </trkpt>
            <trkpt lon="100.968678" lat="12.895218">
                <ele>63.200000</ele>
                <time>2018-02-26T12:20:04.644Z</time>
            </trkpt>
            <trkpt lon="100.968665" lat="12.895248">
                <ele>63.600000</ele>
                <time>2018-02-26T12:20:05.644Z</time>
            </trkpt>
            <trkpt lon="100.968649" lat="12.895278">
                <ele>64.100000</ele>
                <time>2018-02-26T12:20:06.644Z</time>
            </trkpt>
            <trkpt lon="100.968631" lat="12.895305">
                <ele>63.900000</ele>
                <time>2018-02-26T12:20:07.644Z</time>
            </trkpt>
            <trkpt lon="100.968610" lat="12.895336">
                <ele>64.400000</ele>
                <time>2018-02-26T12:20:08.644Z</time>
            </trkpt>
            <trkpt lon="100.968587" lat="12.895364">
                <ele>64.800000</ele>
                <time>2018-02-26T12:20:09.644Z</time>
            </trkpt>
            <trkpt lon="100.968557" lat="12.895389">
                <ele>64.600000</ele>
                <time>2018-02-26T12:20:10.644Z</time>
            </trkpt>
            <trkpt lon="100.968524" lat="12.895399">
                <ele>65.000000</ele>
                <time>2018-02-26T12:20:11.644Z</time>
            </trkpt>
            <trkpt lon="100.968493" lat="12.895409">
                <ele>64.700000</ele>
                <time>2018-02-26T12:20:12.644Z</time>
            </trkpt>
            <trkpt lon="100.968460" lat="12.895425">
                <ele>64.500000</ele>
                <time>2018-02-26T12:20:13.644Z</time>
            </trkpt>
            <trkpt lon="100.968428" lat="12.895442">
                <ele>64.500000</ele>
                <time>2018-02-26T12:20:14.644Z</time>
            </trkpt>
            <trkpt lon="100.968409" lat="12.895463">
                <ele>64.500000</ele>
                <time>2018-02-26T12:20:15.644Z</time>
            </trkpt>
            <trkpt lon="100.968387" lat="12.895507">
                <ele>64.800000</ele>
                <time>2018-02-26T12:20:17.644Z</time>
            </trkpt>
            <trkpt lon="100.968372" lat="12.895551">
                <ele>65.000000</ele>
                <time>2018-02-26T12:20:19.644Z</time>
            </trkpt>
            <trkpt lon="100.968354" lat="12.895591">
                <ele>65.200000</ele>
                <time>2018-02-26T12:20:21.644Z</time>
            </trkpt>
            <trkpt lon="100.968337" lat="12.895634">
                <ele>65.300000</ele>
                <time>2018-02-26T12:20:23.644Z</time>
            </trkpt>
            <trkpt lon="100.968315" lat="12.895658">
                <ele>65.300000</ele>
                <time>2018-02-26T12:20:26.644Z</time>
            </trkpt>
            <trkpt lon="100.968285" lat="12.895660">
                <ele>65.400000</ele>
                <time>2018-02-26T12:21:16.644Z</time>
            </trkpt>
            <trkpt lon="100.968258" lat="12.895665">
                <ele>65.400000</ele>
                <time>2018-02-26T12:21:26.644Z</time>
            </trkpt>
            <trkpt lon="100.968232" lat="12.895674">
                <ele>65.400000</ele>
                <time>2018-02-26T12:21:41.644Z</time>
            </trkpt>
            <trkpt lon="100.968192" lat="12.895680">
                <ele>65.400000</ele>
                <time>2018-02-26T12:21:47.644Z</time>
            </trkpt>
            <trkpt lon="100.968153" lat="12.895681">
                <ele>65.200000</ele>
                <time>2018-02-26T12:21:49.644Z</time>
            </trkpt>
            <trkpt lon="100.968117" lat="12.895674">
                <ele>64.900000</ele>
                <time>2018-02-26T12:21:51.644Z</time>
            </trkpt>
            <trkpt lon="100.968076" lat="12.895680">
                <ele>64.700000</ele>
                <time>2018-02-26T12:21:53.644Z</time>
            </trkpt>
            <trkpt lon="100.968044" lat="12.895716">
                <ele>64.500000</ele>
                <time>2018-02-26T12:21:55.644Z</time>
            </trkpt>
            <trkpt lon="100.968025" lat="12.895735">
                <ele>64.400000</ele>
                <time>2018-02-26T12:21:56.644Z</time>
            </trkpt>
            <trkpt lon="100.967993" lat="12.895749">
                <ele>64.400000</ele>
                <time>2018-02-26T12:21:57.644Z</time>
            </trkpt>
            <trkpt lon="100.967953" lat="12.895752">
                <ele>64.500000</ele>
                <time>2018-02-26T12:21:58.644Z</time>
            </trkpt>
            <trkpt lon="100.967917" lat="12.895751">
                <ele>64.600000</ele>
                <time>2018-02-26T12:21:59.644Z</time>
            </trkpt>
            <trkpt lon="100.967888" lat="12.895749">
                <ele>64.600000</ele>
                <time>2018-02-26T12:22:00.644Z</time>
            </trkpt>
            <trkpt lon="100.967860" lat="12.895743">
                <ele>64.700000</ele>
                <time>2018-02-26T12:22:01.644Z</time>
            </trkpt>
            <trkpt lon="100.967832" lat="12.895738">
                <ele>64.700000</ele>
                <time>2018-02-26T12:22:02.644Z</time>
            </trkpt>
            <trkpt lon="100.967780" lat="12.895726">
                <ele>64.400000</ele>
                <time>2018-02-26T12:22:04.644Z</time>
            </trkpt>
            <trkpt lon="100.967752" lat="12.895729">
                <ele>64.400000</ele>
                <time>2018-02-26T12:22:05.644Z</time>
            </trkpt>
            <trkpt lon="100.967732" lat="12.895748">
                <ele>64.700000</ele>
                <time>2018-02-26T12:22:06.644Z</time>
            </trkpt>
            <trkpt lon="100.967708" lat="12.895795">
                <ele>65.000000</ele>
                <time>2018-02-26T12:22:08.644Z</time>
            </trkpt>
            <trkpt lon="100.967675" lat="12.895841">
                <ele>65.300000</ele>
                <time>2018-02-26T12:22:10.644Z</time>
            </trkpt>
            <trkpt lon="100.967642" lat="12.895890">
                <ele>65.600000</ele>
                <time>2018-02-26T12:22:12.644Z</time>
            </trkpt>
            <trkpt lon="100.967619" lat="12.895912">
                <ele>65.900000</ele>
                <time>2018-02-26T12:22:13.644Z</time>
            </trkpt>
            <trkpt lon="100.967589" lat="12.895927">
                <ele>65.900000</ele>
                <time>2018-02-26T12:22:14.644Z</time>
            </trkpt>
            <trkpt lon="100.967549" lat="12.895931">
                <ele>65.900000</ele>
                <time>2018-02-26T12:22:15.644Z</time>
            </trkpt>
            <trkpt lon="100.967507" lat="12.895930">
                <ele>65.900000</ele>
                <time>2018-02-26T12:22:16.644Z</time>
            </trkpt>
            <trkpt lon="100.967470" lat="12.895930">
                <ele>65.900000</ele>
                <time>2018-02-26T12:22:17.644Z</time>
            </trkpt>
            <trkpt lon="100.967437" lat="12.895928">
                <ele>65.900000</ele>
                <time>2018-02-26T12:22:18.644Z</time>
            </trkpt>
            <trkpt lon="100.967391" lat="12.895904">
                <ele>66.000000</ele>
                <time>2018-02-26T12:22:20.644Z</time>
            </trkpt>
            <trkpt lon="100.967367" lat="12.895882">
                <ele>65.900000</ele>
                <time>2018-02-26T12:22:21.644Z</time>
            </trkpt>
            <trkpt lon="100.967348" lat="12.895851">
                <ele>66.100000</ele>
                <time>2018-02-26T12:22:22.644Z</time>
            </trkpt>
            <trkpt lon="100.967333" lat="12.895820">
                <ele>66.100000</ele>
                <time>2018-02-26T12:22:23.644Z</time>
            </trkpt>
            <trkpt lon="100.967326" lat="12.895773">
                <ele>66.100000</ele>
                <time>2018-02-26T12:22:25.644Z</time>
            </trkpt>
            <trkpt lon="100.967317" lat="12.895744">
                <ele>66.200000</ele>
                <time>2018-02-26T12:22:26.644Z</time>
            </trkpt>
            <trkpt lon="100.967282" lat="12.895722">
                <ele>66.100000</ele>
                <time>2018-02-26T12:22:28.644Z</time>
            </trkpt>
            <trkpt lon="100.967244" lat="12.895741">
                <ele>66.600000</ele>
                <time>2018-02-26T12:22:30.644Z</time>
            </trkpt>
            <trkpt lon="100.967225" lat="12.895791">
                <ele>67.000000</ele>
                <time>2018-02-26T12:22:32.644Z</time>
            </trkpt>
            <trkpt lon="100.967203" lat="12.895813">
                <ele>67.000000</ele>
                <time>2018-02-26T12:22:33.644Z</time>
            </trkpt>
            <trkpt lon="100.967181" lat="12.895831">
                <ele>67.400000</ele>
                <time>2018-02-26T12:22:34.644Z</time>
            </trkpt>
            <trkpt lon="100.967160" lat="12.895853">
                <ele>67.500000</ele>
                <time>2018-02-26T12:22:35.644Z</time>
            </trkpt>
            <trkpt lon="100.967139" lat="12.895874">
                <ele>67.700000</ele>
                <time>2018-02-26T12:22:36.644Z</time>
            </trkpt>
            <trkpt lon="100.967112" lat="12.895887">
                <ele>67.800000</ele>
                <time>2018-02-26T12:22:37.644Z</time>
            </trkpt>
            <trkpt lon="100.967061" lat="12.895895">
                <ele>68.100000</ele>
                <time>2018-02-26T12:22:39.644Z</time>
            </trkpt>
            <trkpt lon="100.967012" lat="12.895892">
                <ele>68.600000</ele>
                <time>2018-02-26T12:22:41.644Z</time>
            </trkpt>
            <trkpt lon="100.966971" lat="12.895919">
                <ele>68.800000</ele>
                <time>2018-02-26T12:22:43.644Z</time>
            </trkpt>
            <trkpt lon="100.966911" lat="12.895907">
                <ele>69.100000</ele>
                <time>2018-02-26T12:22:45.644Z</time>
            </trkpt>
            <trkpt lon="100.966884" lat="12.895894">
                <ele>69.400000</ele>
                <time>2018-02-26T12:22:46.644Z</time>
            </trkpt>
            <trkpt lon="100.966856" lat="12.895877">
                <ele>69.400000</ele>
                <time>2018-02-26T12:22:47.644Z</time>
            </trkpt>
            <trkpt lon="100.966801" lat="12.895850">
                <ele>69.500000</ele>
                <time>2018-02-26T12:22:49.644Z</time>
            </trkpt>
            <trkpt lon="100.966744" lat="12.895842">
                <ele>69.500000</ele>
                <time>2018-02-26T12:22:51.644Z</time>
            </trkpt>
            <trkpt lon="100.966716" lat="12.895856">
                <ele>69.500000</ele>
                <time>2018-02-26T12:22:52.644Z</time>
            </trkpt>
            <trkpt lon="100.966685" lat="12.895869">
                <ele>69.600000</ele>
                <time>2018-02-26T12:22:53.644Z</time>
            </trkpt>
            <trkpt lon="100.966661" lat="12.895887">
                <ele>69.400000</ele>
                <time>2018-02-26T12:22:54.644Z</time>
            </trkpt>
            <trkpt lon="100.966638" lat="12.895918">
                <ele>69.600000</ele>
                <time>2018-02-26T12:22:56.644Z</time>
            </trkpt>
            <trkpt lon="100.966618" lat="12.895957">
                <ele>69.500000</ele>
                <time>2018-02-26T12:22:58.644Z</time>
            </trkpt>
            <trkpt lon="100.966612" lat="12.895994">
                <ele>69.600000</ele>
                <time>2018-02-26T12:23:00.644Z</time>
            </trkpt>
            <trkpt lon="100.966638" lat="12.896031">
                <ele>69.700000</ele>
                <time>2018-02-26T12:23:02.644Z</time>
            </trkpt>
            <trkpt lon="100.966659" lat="12.896053">
                <ele>69.700000</ele>
                <time>2018-02-26T12:23:03.644Z</time>
            </trkpt>
            <trkpt lon="100.966684" lat="12.896066">
                <ele>69.800000</ele>
                <time>2018-02-26T12:23:04.644Z</time>
            </trkpt>
            <trkpt lon="100.966722" lat="12.896085">
                <ele>69.900000</ele>
                <time>2018-02-26T12:23:06.644Z</time>
            </trkpt>
            <trkpt lon="100.966754" lat="12.896127">
                <ele>69.800000</ele>
                <time>2018-02-26T12:23:08.644Z</time>
            </trkpt>
            <trkpt lon="100.966774" lat="12.896151">
                <ele>69.600000</ele>
                <time>2018-02-26T12:23:09.644Z</time>
            </trkpt>
            <trkpt lon="100.966798" lat="12.896168">
                <ele>69.700000</ele>
                <time>2018-02-26T12:23:10.644Z</time>
            </trkpt>
            <trkpt lon="100.966825" lat="12.896182">
                <ele>69.500000</ele>
                <time>2018-02-26T12:23:11.644Z</time>
            </trkpt>
            <trkpt lon="100.966851" lat="12.896196">
                <ele>68.900000</ele>
                <time>2018-02-26T12:23:12.644Z</time>
            </trkpt>
            <trkpt lon="100.966876" lat="12.896211">
                <ele>69.000000</ele>
                <time>2018-02-26T12:23:13.644Z</time>
            </trkpt>
            <trkpt lon="100.966921" lat="12.896234">
                <ele>68.700000</ele>
                <time>2018-02-26T12:23:15.644Z</time>
            </trkpt>
            <trkpt lon="100.966950" lat="12.896248">
                <ele>68.200000</ele>
                <time>2018-02-26T12:23:16.644Z</time>
            </trkpt>
            <trkpt lon="100.966977" lat="12.896263">
                <ele>68.100000</ele>
                <time>2018-02-26T12:23:17.644Z</time>
            </trkpt>
            <trkpt lon="100.967003" lat="12.896274">
                <ele>68.100000</ele>
                <time>2018-02-26T12:23:18.644Z</time>
            </trkpt>
            <trkpt lon="100.967033" lat="12.896297">
                <ele>68.000000</ele>
                <time>2018-02-26T12:23:19.644Z</time>
            </trkpt>
            <trkpt lon="100.967062" lat="12.896321">
                <ele>67.900000</ele>
                <time>2018-02-26T12:23:20.644Z</time>
            </trkpt>
            <trkpt lon="100.967090" lat="12.896348">
                <ele>67.900000</ele>
                <time>2018-02-26T12:23:21.644Z</time>
            </trkpt>
            <trkpt lon="100.967113" lat="12.896375">
                <ele>67.600000</ele>
                <time>2018-02-26T12:23:22.644Z</time>
            </trkpt>
            <trkpt lon="100.967131" lat="12.896403">
                <ele>67.500000</ele>
                <time>2018-02-26T12:23:23.644Z</time>
            </trkpt>
            <trkpt lon="100.967132" lat="12.896449">
                <ele>67.500000</ele>
                <time>2018-02-26T12:23:24.644Z</time>
            </trkpt>
            <trkpt lon="100.967114" lat="12.896484">
                <ele>67.500000</ele>
                <time>2018-02-26T12:23:25.644Z</time>
            </trkpt>
            <trkpt lon="100.967088" lat="12.896505">
                <ele>67.600000</ele>
                <time>2018-02-26T12:23:26.644Z</time>
            </trkpt>
            <trkpt lon="100.967053" lat="12.896511">
                <ele>67.800000</ele>
                <time>2018-02-26T12:23:27.644Z</time>
            </trkpt>
            <trkpt lon="100.967016" lat="12.896512">
                <ele>67.800000</ele>
                <time>2018-02-26T12:23:28.644Z</time>
            </trkpt>
            <trkpt lon="100.966985" lat="12.896517">
                <ele>67.800000</ele>
                <time>2018-02-26T12:23:29.644Z</time>
            </trkpt>
            <trkpt lon="100.966950" lat="12.896515">
                <ele>67.800000</ele>
                <time>2018-02-26T12:23:30.644Z</time>
            </trkpt>
            <trkpt lon="100.966910" lat="12.896511">
                <ele>67.800000</ele>
                <time>2018-02-26T12:23:31.644Z</time>
            </trkpt>
            <trkpt lon="100.966876" lat="12.896516">
                <ele>67.800000</ele>
                <time>2018-02-26T12:23:32.644Z</time>
            </trkpt>
            <trkpt lon="100.966867" lat="12.896558">
                <ele>67.600000</ele>
                <time>2018-02-26T12:23:33.644Z</time>
            </trkpt>
            <trkpt lon="100.966874" lat="12.896600">
                <ele>67.400000</ele>
                <time>2018-02-26T12:23:34.644Z</time>
            </trkpt>
            <trkpt lon="100.966884" lat="12.896634">
                <ele>67.300000</ele>
                <time>2018-02-26T12:23:35.644Z</time>
            </trkpt>
            <trkpt lon="100.966895" lat="12.896664">
                <ele>67.300000</ele>
                <time>2018-02-26T12:23:36.644Z</time>
            </trkpt>
            <trkpt lon="100.966936" lat="12.896693">
                <ele>67.400000</ele>
                <time>2018-02-26T12:23:38.644Z</time>
            </trkpt>
            <trkpt lon="100.966984" lat="12.896701">
                <ele>67.500000</ele>
                <time>2018-02-26T12:23:40.644Z</time>
            </trkpt>
            <trkpt lon="100.967011" lat="12.896693">
                <ele>67.400000</ele>
                <time>2018-02-26T12:23:41.644Z</time>
            </trkpt>
            <trkpt lon="100.967041" lat="12.896682">
                <ele>67.500000</ele>
                <time>2018-02-26T12:23:42.644Z</time>
            </trkpt>
            <trkpt lon="100.967075" lat="12.896672">
                <ele>67.500000</ele>
                <time>2018-02-26T12:23:43.644Z</time>
            </trkpt>
            <trkpt lon="100.967111" lat="12.896667">
                <ele>67.500000</ele>
                <time>2018-02-26T12:23:44.644Z</time>
            </trkpt>
            <trkpt lon="100.967148" lat="12.896660">
                <ele>67.600000</ele>
                <time>2018-02-26T12:23:45.644Z</time>
            </trkpt>
            <trkpt lon="100.967179" lat="12.896646">
                <ele>67.700000</ele>
                <time>2018-02-26T12:23:46.644Z</time>
            </trkpt>
            <trkpt lon="100.967209" lat="12.896629">
                <ele>67.800000</ele>
                <time>2018-02-26T12:23:47.644Z</time>
            </trkpt>
            <trkpt lon="100.967231" lat="12.896611">
                <ele>67.900000</ele>
                <time>2018-02-26T12:23:48.644Z</time>
            </trkpt>
            <trkpt lon="100.967253" lat="12.896588">
                <ele>67.800000</ele>
                <time>2018-02-26T12:23:49.644Z</time>
            </trkpt>
            <trkpt lon="100.967273" lat="12.896564">
                <ele>67.700000</ele>
                <time>2018-02-26T12:23:50.644Z</time>
            </trkpt>
            <trkpt lon="100.967289" lat="12.896538">
                <ele>67.700000</ele>
                <time>2018-02-26T12:23:51.644Z</time>
            </trkpt>
            <trkpt lon="100.967302" lat="12.896496">
                <ele>67.600000</ele>
                <time>2018-02-26T12:23:52.644Z</time>
            </trkpt>
            <trkpt lon="100.967320" lat="12.896460">
                <ele>67.700000</ele>
                <time>2018-02-26T12:23:53.644Z</time>
            </trkpt>
            <trkpt lon="100.967355" lat="12.896436">
                <ele>67.900000</ele>
                <time>2018-02-26T12:23:54.644Z</time>
            </trkpt>
            <trkpt lon="100.967393" lat="12.896414">
                <ele>68.100000</ele>
                <time>2018-02-26T12:23:55.644Z</time>
            </trkpt>
            <trkpt lon="100.967427" lat="12.896399">
                <ele>68.500000</ele>
                <time>2018-02-26T12:23:56.644Z</time>
            </trkpt>
            <trkpt lon="100.967469" lat="12.896399">
                <ele>68.800000</ele>
                <time>2018-02-26T12:23:57.644Z</time>
            </trkpt>
            <trkpt lon="100.967510" lat="12.896396">
                <ele>69.000000</ele>
                <time>2018-02-26T12:23:58.644Z</time>
            </trkpt>
            <trkpt lon="100.967549" lat="12.896378">
                <ele>69.100000</ele>
                <time>2018-02-26T12:23:59.644Z</time>
            </trkpt>
            <trkpt lon="100.967591" lat="12.896342">
                <ele>69.200000</ele>
                <time>2018-02-26T12:24:00.644Z</time>
            </trkpt>
            <trkpt lon="100.967632" lat="12.896301">
                <ele>69.200000</ele>
                <time>2018-02-26T12:24:01.644Z</time>
            </trkpt>
            <trkpt lon="100.967656" lat="12.896273">
                <ele>69.200000</ele>
                <time>2018-02-26T12:24:02.644Z</time>
            </trkpt>
            <trkpt lon="100.967674" lat="12.896248">
                <ele>69.200000</ele>
                <time>2018-02-26T12:24:03.644Z</time>
            </trkpt>
            <trkpt lon="100.967694" lat="12.896218">
                <ele>69.300000</ele>
                <time>2018-02-26T12:24:04.644Z</time>
            </trkpt>
            <trkpt lon="100.967723" lat="12.896180">
                <ele>69.300000</ele>
                <time>2018-02-26T12:24:05.644Z</time>
            </trkpt>
            <trkpt lon="100.967765" lat="12.896151">
                <ele>69.300000</ele>
                <time>2018-02-26T12:24:06.644Z</time>
            </trkpt>
            <trkpt lon="100.967797" lat="12.896121">
                <ele>69.400000</ele>
                <time>2018-02-26T12:24:07.644Z</time>
            </trkpt>
            <trkpt lon="100.967832" lat="12.896105">
                <ele>69.400000</ele>
                <time>2018-02-26T12:24:08.644Z</time>
            </trkpt>
            <trkpt lon="100.967874" lat="12.896087">
                <ele>69.400000</ele>
                <time>2018-02-26T12:24:09.644Z</time>
            </trkpt>
            <trkpt lon="100.967914" lat="12.896074">
                <ele>69.400000</ele>
                <time>2018-02-26T12:24:10.644Z</time>
            </trkpt>
            <trkpt lon="100.967933" lat="12.896111">
                <ele>69.600000</ele>
                <time>2018-02-26T12:24:11.644Z</time>
            </trkpt>
            <trkpt lon="100.967927" lat="12.896143">
                <ele>69.600000</ele>
                <time>2018-02-26T12:24:12.644Z</time>
            </trkpt>
            <trkpt lon="100.967903" lat="12.896188">
                <ele>69.600000</ele>
                <time>2018-02-26T12:24:14.644Z</time>
            </trkpt>
            <trkpt lon="100.967885" lat="12.896210">
                <ele>69.600000</ele>
                <time>2018-02-26T12:24:15.644Z</time>
            </trkpt>
            <trkpt lon="100.967867" lat="12.896256">
                <ele>69.500000</ele>
                <time>2018-02-26T12:24:17.644Z</time>
            </trkpt>
            <trkpt lon="100.967864" lat="12.896283">
                <ele>69.600000</ele>
                <time>2018-02-26T12:24:18.644Z</time>
            </trkpt>
            <trkpt lon="100.967853" lat="12.896321">
                <ele>69.600000</ele>
                <time>2018-02-26T12:24:20.644Z</time>
            </trkpt>
            <trkpt lon="100.967841" lat="12.896347">
                <ele>69.600000</ele>
                <time>2018-02-26T12:24:30.644Z</time>
            </trkpt>
            <trkpt lon="100.967820" lat="12.896368">
                <ele>69.700000</ele>
                <time>2018-02-26T12:24:33.644Z</time>
            </trkpt>
            <trkpt lon="100.967790" lat="12.896374">
                <ele>69.700000</ele>
                <time>2018-02-26T12:24:35.644Z</time>
            </trkpt>
            <trkpt lon="100.967741" lat="12.896388">
                <ele>69.700000</ele>
                <time>2018-02-26T12:24:37.644Z</time>
            </trkpt>
            <trkpt lon="100.967722" lat="12.896427">
                <ele>69.700000</ele>
                <time>2018-02-26T12:24:39.644Z</time>
            </trkpt>
            <trkpt lon="100.967752" lat="12.896477">
                <ele>69.700000</ele>
                <time>2018-02-26T12:24:41.644Z</time>
            </trkpt>
            <trkpt lon="100.967769" lat="12.896507">
                <ele>69.700000</ele>
                <time>2018-02-26T12:24:42.644Z</time>
            </trkpt>
            <trkpt lon="100.967788" lat="12.896540">
                <ele>69.700000</ele>
                <time>2018-02-26T12:24:43.644Z</time>
            </trkpt>
            <trkpt lon="100.967811" lat="12.896571">
                <ele>69.700000</ele>
                <time>2018-02-26T12:24:44.644Z</time>
            </trkpt>
            <trkpt lon="100.967838" lat="12.896593">
                <ele>69.800000</ele>
                <time>2018-02-26T12:24:45.644Z</time>
            </trkpt>
            <trkpt lon="100.967854" lat="12.896617">
                <ele>70.100000</ele>
                <time>2018-02-26T12:24:46.644Z</time>
            </trkpt>
            <trkpt lon="100.967858" lat="12.896644">
                <ele>70.100000</ele>
                <time>2018-02-26T12:24:47.644Z</time>
            </trkpt>
            <trkpt lon="100.967855" lat="12.896694">
                <ele>70.400000</ele>
                <time>2018-02-26T12:24:48.644Z</time>
            </trkpt>
            <trkpt lon="100.967845" lat="12.896727">
                <ele>70.700000</ele>
                <time>2018-02-26T12:24:49.644Z</time>
            </trkpt>
            <trkpt lon="100.967828" lat="12.896755">
                <ele>70.700000</ele>
                <time>2018-02-26T12:24:50.644Z</time>
            </trkpt>
            <trkpt lon="100.967798" lat="12.896794">
                <ele>70.900000</ele>
                <time>2018-02-26T12:24:51.644Z</time>
            </trkpt>
            <trkpt lon="100.967766" lat="12.896828">
                <ele>70.800000</ele>
                <time>2018-02-26T12:24:52.644Z</time>
            </trkpt>
            <trkpt lon="100.967737" lat="12.896855">
                <ele>70.700000</ele>
                <time>2018-02-26T12:24:53.644Z</time>
            </trkpt>
            <trkpt lon="100.967708" lat="12.896877">
                <ele>71.000000</ele>
                <time>2018-02-26T12:24:54.644Z</time>
            </trkpt>
            <trkpt lon="100.967685" lat="12.896896">
                <ele>71.000000</ele>
                <time>2018-02-26T12:24:55.644Z</time>
            </trkpt>
            <trkpt lon="100.967672" lat="12.896946">
                <ele>71.300000</ele>
                <time>2018-02-26T12:24:57.644Z</time>
            </trkpt>
            <trkpt lon="100.967680" lat="12.896996">
                <ele>71.300000</ele>
                <time>2018-02-26T12:24:59.644Z</time>
            </trkpt>
            <trkpt lon="100.967707" lat="12.897039">
                <ele>71.200000</ele>
                <time>2018-02-26T12:25:01.644Z</time>
            </trkpt>
            <trkpt lon="100.967729" lat="12.897068">
                <ele>71.200000</ele>
                <time>2018-02-26T12:25:02.644Z</time>
            </trkpt>
            <trkpt lon="100.967754" lat="12.897090">
                <ele>71.100000</ele>
                <time>2018-02-26T12:25:03.644Z</time>
            </trkpt>
            <trkpt lon="100.967802" lat="12.897119">
                <ele>71.200000</ele>
                <time>2018-02-26T12:25:05.644Z</time>
            </trkpt>
            <trkpt lon="100.967835" lat="12.897137">
                <ele>71.300000</ele>
                <time>2018-02-26T12:25:06.644Z</time>
            </trkpt>
            <trkpt lon="100.967851" lat="12.897169">
                <ele>71.300000</ele>
                <time>2018-02-26T12:25:07.644Z</time>
            </trkpt>
            <trkpt lon="100.967855" lat="12.897218">
                <ele>71.400000</ele>
                <time>2018-02-26T12:25:09.644Z</time>
            </trkpt>
            <trkpt lon="100.967879" lat="12.897269">
                <ele>71.300000</ele>
                <time>2018-02-26T12:25:11.644Z</time>
            </trkpt>
            <trkpt lon="100.967912" lat="12.897306">
                <ele>71.300000</ele>
                <time>2018-02-26T12:25:12.644Z</time>
            </trkpt>
            <trkpt lon="100.967939" lat="12.897334">
                <ele>71.000000</ele>
                <time>2018-02-26T12:25:13.644Z</time>
            </trkpt>
            <trkpt lon="100.967959" lat="12.897357">
                <ele>71.100000</ele>
                <time>2018-02-26T12:25:14.644Z</time>
            </trkpt>
            <trkpt lon="100.967987" lat="12.897363">
                <ele>70.700000</ele>
                <time>2018-02-26T12:25:15.644Z</time>
            </trkpt>
            <trkpt lon="100.968022" lat="12.897362">
                <ele>70.500000</ele>
                <time>2018-02-26T12:25:16.644Z</time>
            </trkpt>
            <trkpt lon="100.968061" lat="12.897361">
                <ele>70.400000</ele>
                <time>2018-02-26T12:25:17.644Z</time>
            </trkpt>
            <trkpt lon="100.968109" lat="12.897362">
                <ele>70.500000</ele>
                <time>2018-02-26T12:25:18.644Z</time>
            </trkpt>
            <trkpt lon="100.968155" lat="12.897371">
                <ele>70.700000</ele>
                <time>2018-02-26T12:25:19.644Z</time>
            </trkpt>
            <trkpt lon="100.968207" lat="12.897395">
                <ele>70.700000</ele>
                <time>2018-02-26T12:25:20.644Z</time>
            </trkpt>
            <trkpt lon="100.968250" lat="12.897430">
                <ele>70.500000</ele>
                <time>2018-02-26T12:25:21.644Z</time>
            </trkpt>
            <trkpt lon="100.968283" lat="12.897460">
                <ele>70.000000</ele>
                <time>2018-02-26T12:25:22.644Z</time>
            </trkpt>
            <trkpt lon="100.968316" lat="12.897489">
                <ele>69.700000</ele>
                <time>2018-02-26T12:25:23.644Z</time>
            </trkpt>
            <trkpt lon="100.968351" lat="12.897515">
                <ele>69.100000</ele>
                <time>2018-02-26T12:25:24.644Z</time>
            </trkpt>
            <trkpt lon="100.968384" lat="12.897532">
                <ele>68.900000</ele>
                <time>2018-02-26T12:25:25.644Z</time>
            </trkpt>
            <trkpt lon="100.968417" lat="12.897548">
                <ele>68.800000</ele>
                <time>2018-02-26T12:25:26.644Z</time>
            </trkpt>
            <trkpt lon="100.968461" lat="12.897574">
                <ele>68.700000</ele>
                <time>2018-02-26T12:25:28.644Z</time>
            </trkpt>
            <trkpt lon="100.968486" lat="12.897628">
                <ele>68.600000</ele>
                <time>2018-02-26T12:25:30.644Z</time>
            </trkpt>
            <trkpt lon="100.968487" lat="12.897655">
                <ele>68.600000</ele>
                <time>2018-02-26T12:25:31.644Z</time>
            </trkpt>
            <trkpt lon="100.968485" lat="12.897684">
                <ele>68.500000</ele>
                <time>2018-02-26T12:25:32.644Z</time>
            </trkpt>
            <trkpt lon="100.968490" lat="12.897719">
                <ele>68.300000</ele>
                <time>2018-02-26T12:25:33.644Z</time>
            </trkpt>
            <trkpt lon="100.968493" lat="12.897751">
                <ele>68.300000</ele>
                <time>2018-02-26T12:25:34.644Z</time>
            </trkpt>
            <trkpt lon="100.968492" lat="12.897785">
                <ele>68.300000</ele>
                <time>2018-02-26T12:25:35.644Z</time>
            </trkpt>
            <trkpt lon="100.968493" lat="12.897812">
                <ele>68.400000</ele>
                <time>2018-02-26T12:25:36.644Z</time>
            </trkpt>
            <trkpt lon="100.968508" lat="12.897865">
                <ele>68.400000</ele>
                <time>2018-02-26T12:25:38.644Z</time>
            </trkpt>
            <trkpt lon="100.968533" lat="12.897895">
                <ele>68.200000</ele>
                <time>2018-02-26T12:25:39.644Z</time>
            </trkpt>
            <trkpt lon="100.968561" lat="12.897924">
                <ele>68.100000</ele>
                <time>2018-02-26T12:25:40.644Z</time>
            </trkpt>
            <trkpt lon="100.968588" lat="12.897947">
                <ele>68.100000</ele>
                <time>2018-02-26T12:25:41.644Z</time>
            </trkpt>
            <trkpt lon="100.968616" lat="12.897968">
                <ele>68.000000</ele>
                <time>2018-02-26T12:25:42.644Z</time>
            </trkpt>
            <trkpt lon="100.968665" lat="12.898003">
                <ele>68.000000</ele>
                <time>2018-02-26T12:25:44.644Z</time>
            </trkpt>
            <trkpt lon="100.968695" lat="12.898026">
                <ele>67.900000</ele>
                <time>2018-02-26T12:25:45.644Z</time>
            </trkpt>
            <trkpt lon="100.968724" lat="12.898045">
                <ele>67.900000</ele>
                <time>2018-02-26T12:25:46.644Z</time>
            </trkpt>
            <trkpt lon="100.968753" lat="12.898062">
                <ele>67.900000</ele>
                <time>2018-02-26T12:25:47.644Z</time>
            </trkpt>
            <trkpt lon="100.968779" lat="12.898081">
                <ele>67.800000</ele>
                <time>2018-02-26T12:25:48.644Z</time>
            </trkpt>
            <trkpt lon="100.968811" lat="12.898109">
                <ele>67.800000</ele>
                <time>2018-02-26T12:25:50.644Z</time>
            </trkpt>
            <trkpt lon="100.968830" lat="12.898130">
                <ele>67.700000</ele>
                <time>2018-02-26T12:25:57.644Z</time>
            </trkpt>
            <trkpt lon="100.968864" lat="12.898150">
                <ele>67.700000</ele>
                <time>2018-02-26T12:26:08.644Z</time>
            </trkpt>
            <trkpt lon="100.968903" lat="12.898174">
                <ele>67.700000</ele>
                <time>2018-02-26T12:26:10.644Z</time>
            </trkpt>
            <trkpt lon="100.968945" lat="12.898201">
                <ele>67.600000</ele>
                <time>2018-02-26T12:26:12.644Z</time>
            </trkpt>
            <trkpt lon="100.968997" lat="12.898226">
                <ele>67.500000</ele>
                <time>2018-02-26T12:26:14.644Z</time>
            </trkpt>
            <trkpt lon="100.969027" lat="12.898244">
                <ele>67.500000</ele>
                <time>2018-02-26T12:26:15.644Z</time>
            </trkpt>
            <trkpt lon="100.969052" lat="12.898269">
                <ele>67.500000</ele>
                <time>2018-02-26T12:26:16.644Z</time>
            </trkpt>
            <trkpt lon="100.969079" lat="12.898291">
                <ele>67.400000</ele>
                <time>2018-02-26T12:26:17.644Z</time>
            </trkpt>
            <trkpt lon="100.969110" lat="12.898308">
                <ele>67.400000</ele>
                <time>2018-02-26T12:26:18.644Z</time>
            </trkpt>
            <trkpt lon="100.969145" lat="12.898319">
                <ele>67.600000</ele>
                <time>2018-02-26T12:26:19.644Z</time>
            </trkpt>
            <trkpt lon="100.969178" lat="12.898326">
                <ele>67.800000</ele>
                <time>2018-02-26T12:26:20.644Z</time>
            </trkpt>
            <trkpt lon="100.969208" lat="12.898331">
                <ele>67.800000</ele>
                <time>2018-02-26T12:26:21.644Z</time>
            </trkpt>
            <trkpt lon="100.969230" lat="12.898350">
                <ele>67.800000</ele>
                <time>2018-02-26T12:26:22.644Z</time>
            </trkpt>
            <trkpt lon="100.969240" lat="12.898375">
                <ele>67.900000</ele>
                <time>2018-02-26T12:26:23.644Z</time>
            </trkpt>
            <trkpt lon="100.969233" lat="12.898423">
                <ele>67.900000</ele>
                <time>2018-02-26T12:26:25.644Z</time>
            </trkpt>
            <trkpt lon="100.969206" lat="12.898454">
                <ele>67.900000</ele>
                <time>2018-02-26T12:26:27.644Z</time>
            </trkpt>
            <trkpt lon="100.969164" lat="12.898481">
                <ele>67.900000</ele>
                <time>2018-02-26T12:26:29.644Z</time>
            </trkpt>
            <trkpt lon="100.969144" lat="12.898519">
                <ele>67.800000</ele>
                <time>2018-02-26T12:26:31.644Z</time>
            </trkpt>
            <trkpt lon="100.969140" lat="12.898547">
                <ele>67.800000</ele>
                <time>2018-02-26T12:26:32.644Z</time>
            </trkpt>
            <trkpt lon="100.969137" lat="12.898579">
                <ele>67.700000</ele>
                <time>2018-02-26T12:26:33.644Z</time>
            </trkpt>
            <trkpt lon="100.969133" lat="12.898610">
                <ele>67.700000</ele>
                <time>2018-02-26T12:26:34.644Z</time>
            </trkpt>
            <trkpt lon="100.969128" lat="12.898643">
                <ele>67.600000</ele>
                <time>2018-02-26T12:26:35.644Z</time>
            </trkpt>
            <trkpt lon="100.969123" lat="12.898675">
                <ele>67.400000</ele>
                <time>2018-02-26T12:26:36.644Z</time>
            </trkpt>
            <trkpt lon="100.969117" lat="12.898706">
                <ele>67.000000</ele>
                <time>2018-02-26T12:26:37.644Z</time>
            </trkpt>
            <trkpt lon="100.969109" lat="12.898744">
                <ele>67.000000</ele>
                <time>2018-02-26T12:26:38.644Z</time>
            </trkpt>
            <trkpt lon="100.969103" lat="12.898785">
                <ele>66.900000</ele>
                <time>2018-02-26T12:26:39.644Z</time>
            </trkpt>
            <trkpt lon="100.969095" lat="12.898825">
                <ele>66.900000</ele>
                <time>2018-02-26T12:26:40.644Z</time>
            </trkpt>
            <trkpt lon="100.969074" lat="12.898854">
                <ele>66.900000</ele>
                <time>2018-02-26T12:26:41.644Z</time>
            </trkpt>
            <trkpt lon="100.969044" lat="12.898872">
                <ele>66.900000</ele>
                <time>2018-02-26T12:26:42.644Z</time>
            </trkpt>
            <trkpt lon="100.969016" lat="12.898880">
                <ele>67.100000</ele>
                <time>2018-02-26T12:26:43.644Z</time>
            </trkpt>
            <trkpt lon="100.968988" lat="12.898876">
                <ele>67.400000</ele>
                <time>2018-02-26T12:26:44.644Z</time>
            </trkpt>
            <trkpt lon="100.968955" lat="12.898869">
                <ele>67.400000</ele>
                <time>2018-02-26T12:26:45.644Z</time>
            </trkpt>
            <trkpt lon="100.968923" lat="12.898866">
                <ele>67.600000</ele>
                <time>2018-02-26T12:26:46.644Z</time>
            </trkpt>
            <trkpt lon="100.968888" lat="12.898873">
                <ele>67.700000</ele>
                <time>2018-02-26T12:26:47.644Z</time>
            </trkpt>
            <trkpt lon="100.968853" lat="12.898886">
                <ele>67.700000</ele>
                <time>2018-02-26T12:26:48.644Z</time>
            </trkpt>
            <trkpt lon="100.968829" lat="12.898912">
                <ele>67.600000</ele>
                <time>2018-02-26T12:26:49.644Z</time>
            </trkpt>
            <trkpt lon="100.968812" lat="12.898950">
                <ele>67.700000</ele>
                <time>2018-02-26T12:26:50.644Z</time>
            </trkpt>
            <trkpt lon="100.968809" lat="12.898997">
                <ele>67.500000</ele>
                <time>2018-02-26T12:26:51.644Z</time>
            </trkpt>
            <trkpt lon="100.968805" lat="12.899038">
                <ele>67.300000</ele>
                <time>2018-02-26T12:26:52.644Z</time>
            </trkpt>
            <trkpt lon="100.968795" lat="12.899072">
                <ele>67.300000</ele>
                <time>2018-02-26T12:26:53.644Z</time>
            </trkpt>
            <trkpt lon="100.968787" lat="12.899104">
                <ele>67.200000</ele>
                <time>2018-02-26T12:26:54.644Z</time>
            </trkpt>
            <trkpt lon="100.968778" lat="12.899136">
                <ele>67.000000</ele>
                <time>2018-02-26T12:26:55.644Z</time>
            </trkpt>
            <trkpt lon="100.968770" lat="12.899172">
                <ele>67.000000</ele>
                <time>2018-02-26T12:26:56.644Z</time>
            </trkpt>
            <trkpt lon="100.968770" lat="12.899205">
                <ele>66.700000</ele>
                <time>2018-02-26T12:26:57.644Z</time>
            </trkpt>
            <trkpt lon="100.968771" lat="12.899237">
                <ele>66.700000</ele>
                <time>2018-02-26T12:26:58.644Z</time>
            </trkpt>
            <trkpt lon="100.968782" lat="12.899265">
                <ele>66.600000</ele>
                <time>2018-02-26T12:26:59.644Z</time>
            </trkpt>
            <trkpt lon="100.968811" lat="12.899281">
                <ele>66.600000</ele>
                <time>2018-02-26T12:27:00.644Z</time>
            </trkpt>
            <trkpt lon="100.968847" lat="12.899286">
                <ele>66.500000</ele>
                <time>2018-02-26T12:27:01.644Z</time>
            </trkpt>
            <trkpt lon="100.968880" lat="12.899289">
                <ele>66.300000</ele>
                <time>2018-02-26T12:27:02.644Z</time>
            </trkpt>
            <trkpt lon="100.968919" lat="12.899297">
                <ele>66.300000</ele>
                <time>2018-02-26T12:27:03.644Z</time>
            </trkpt>
            <trkpt lon="100.968957" lat="12.899311">
                <ele>66.400000</ele>
                <time>2018-02-26T12:27:04.644Z</time>
            </trkpt>
            <trkpt lon="100.968993" lat="12.899330">
                <ele>66.400000</ele>
                <time>2018-02-26T12:27:05.644Z</time>
            </trkpt>
            <trkpt lon="100.969027" lat="12.899347">
                <ele>66.400000</ele>
                <time>2018-02-26T12:27:06.644Z</time>
            </trkpt>
            <trkpt lon="100.969057" lat="12.899367">
                <ele>66.500000</ele>
                <time>2018-02-26T12:27:07.644Z</time>
            </trkpt>
            <trkpt lon="100.969070" lat="12.899396">
                <ele>66.500000</ele>
                <time>2018-02-26T12:27:08.644Z</time>
            </trkpt>
            <trkpt lon="100.969077" lat="12.899430">
                <ele>66.500000</ele>
                <time>2018-02-26T12:27:09.644Z</time>
            </trkpt>
            <trkpt lon="100.969082" lat="12.899458">
                <ele>66.200000</ele>
                <time>2018-02-26T12:27:10.644Z</time>
            </trkpt>
            <trkpt lon="100.969099" lat="12.899481">
                <ele>66.200000</ele>
                <time>2018-02-26T12:27:11.644Z</time>
            </trkpt>
            <trkpt lon="100.969122" lat="12.899510">
                <ele>66.200000</ele>
                <time>2018-02-26T12:27:12.644Z</time>
            </trkpt>
            <trkpt lon="100.969140" lat="12.899538">
                <ele>66.200000</ele>
                <time>2018-02-26T12:27:13.644Z</time>
            </trkpt>
            <trkpt lon="100.969159" lat="12.899566">
                <ele>66.000000</ele>
                <time>2018-02-26T12:27:14.644Z</time>
            </trkpt>
            <trkpt lon="100.969172" lat="12.899597">
                <ele>66.100000</ele>
                <time>2018-02-26T12:27:15.644Z</time>
            </trkpt>
            <trkpt lon="100.969165" lat="12.899644">
                <ele>65.900000</ele>
                <time>2018-02-26T12:27:16.644Z</time>
            </trkpt>
            <trkpt lon="100.969149" lat="12.899675">
                <ele>65.700000</ele>
                <time>2018-02-26T12:27:17.644Z</time>
            </trkpt>
            <trkpt lon="100.969121" lat="12.899703">
                <ele>65.700000</ele>
                <time>2018-02-26T12:27:18.644Z</time>
            </trkpt>
            <trkpt lon="100.969086" lat="12.899710">
                <ele>65.600000</ele>
                <time>2018-02-26T12:27:19.644Z</time>
            </trkpt>
            <trkpt lon="100.969047" lat="12.899712">
                <ele>65.500000</ele>
                <time>2018-02-26T12:27:20.644Z</time>
            </trkpt>
            <trkpt lon="100.969016" lat="12.899734">
                <ele>65.500000</ele>
                <time>2018-02-26T12:27:21.644Z</time>
            </trkpt>
            <trkpt lon="100.969002" lat="12.899761">
                <ele>65.700000</ele>
                <time>2018-02-26T12:27:22.644Z</time>
            </trkpt>
            <trkpt lon="100.968996" lat="12.899795">
                <ele>65.900000</ele>
                <time>2018-02-26T12:27:23.644Z</time>
            </trkpt>
            <trkpt lon="100.969016" lat="12.899847">
                <ele>66.200000</ele>
                <time>2018-02-26T12:27:25.644Z</time>
            </trkpt>
            <trkpt lon="100.969025" lat="12.899876">
                <ele>66.400000</ele>
                <time>2018-02-26T12:27:26.644Z</time>
            </trkpt>
            <trkpt lon="100.969021" lat="12.899903">
                <ele>66.400000</ele>
                <time>2018-02-26T12:27:27.644Z</time>
            </trkpt>
            <trkpt lon="100.969026" lat="12.899937">
                <ele>66.600000</ele>
                <time>2018-02-26T12:27:28.644Z</time>
            </trkpt>
            <trkpt lon="100.969039" lat="12.899961">
                <ele>66.900000</ele>
                <time>2018-02-26T12:27:29.644Z</time>
            </trkpt>
            <trkpt lon="100.969068" lat="12.900002">
                <ele>67.100000</ele>
                <time>2018-02-26T12:27:31.644Z</time>
            </trkpt>
            <trkpt lon="100.969078" lat="12.900035">
                <ele>67.000000</ele>
                <time>2018-02-26T12:27:32.644Z</time>
            </trkpt>
            <trkpt lon="100.969080" lat="12.900069">
                <ele>67.200000</ele>
                <time>2018-02-26T12:27:33.644Z</time>
            </trkpt>
            <trkpt lon="100.969072" lat="12.900107">
                <ele>67.300000</ele>
                <time>2018-02-26T12:27:35.644Z</time>
            </trkpt>
            <trkpt lon="100.969045" lat="12.900139">
                <ele>67.300000</ele>
                <time>2018-02-26T12:27:37.644Z</time>
            </trkpt>
            <trkpt lon="100.969008" lat="12.900160">
                <ele>67.100000</ele>
                <time>2018-02-26T12:27:39.644Z</time>
            </trkpt>
            <trkpt lon="100.968973" lat="12.900159">
                <ele>66.800000</ele>
                <time>2018-02-26T12:27:42.644Z</time>
            </trkpt>
            <trkpt lon="100.968942" lat="12.900139">
                <ele>66.600000</ele>
                <time>2018-02-26T12:27:44.644Z</time>
            </trkpt>
            <trkpt lon="100.968915" lat="12.900110">
                <ele>66.600000</ele>
                <time>2018-02-26T12:27:46.644Z</time>
            </trkpt>
            <trkpt lon="100.968897" lat="12.900085">
                <ele>66.300000</ele>
                <time>2018-02-26T12:27:47.644Z</time>
            </trkpt>
            <trkpt lon="100.968868" lat="12.900085">
                <ele>66.300000</ele>
                <time>2018-02-26T12:27:48.644Z</time>
            </trkpt>
            <trkpt lon="100.968836" lat="12.900094">
                <ele>66.100000</ele>
                <time>2018-02-26T12:27:49.644Z</time>
            </trkpt>
            <trkpt lon="100.968802" lat="12.900124">
                <ele>65.800000</ele>
                <time>2018-02-26T12:27:51.644Z</time>
            </trkpt>
            <trkpt lon="100.968773" lat="12.900163">
                <ele>65.500000</ele>
                <time>2018-02-26T12:27:53.644Z</time>
            </trkpt>
            <trkpt lon="100.968764" lat="12.900199">
                <ele>65.500000</ele>
                <time>2018-02-26T12:27:55.644Z</time>
            </trkpt>
            <trkpt lon="100.968785" lat="12.900244">
                <ele>65.800000</ele>
                <time>2018-02-26T12:27:57.644Z</time>
            </trkpt>
            <trkpt lon="100.968810" lat="12.900289">
                <ele>65.900000</ele>
                <time>2018-02-26T12:27:59.644Z</time>
            </trkpt>
            <trkpt lon="100.968817" lat="12.900322">
                <ele>66.200000</ele>
                <time>2018-02-26T12:28:00.644Z</time>
            </trkpt>
            <trkpt lon="100.968820" lat="12.900351">
                <ele>66.700000</ele>
                <time>2018-02-26T12:28:01.644Z</time>
            </trkpt>
            <trkpt lon="100.968807" lat="12.900381">
                <ele>66.700000</ele>
                <time>2018-02-26T12:28:02.644Z</time>
            </trkpt>
            <trkpt lon="100.968780" lat="12.900409">
                <ele>66.600000</ele>
                <time>2018-02-26T12:28:03.644Z</time>
            </trkpt>
            <trkpt lon="100.968756" lat="12.900443">
                <ele>66.800000</ele>
                <time>2018-02-26T12:28:04.644Z</time>
            </trkpt>
            <trkpt lon="100.968734" lat="12.900474">
                <ele>67.200000</ele>
                <time>2018-02-26T12:28:05.644Z</time>
            </trkpt>
            <trkpt lon="100.968700" lat="12.900508">
                <ele>67.700000</ele>
                <time>2018-02-26T12:28:06.644Z</time>
            </trkpt>
            <trkpt lon="100.968671" lat="12.900525">
                <ele>67.800000</ele>
                <time>2018-02-26T12:28:07.644Z</time>
            </trkpt>
            <trkpt lon="100.968626" lat="12.900540">
                <ele>67.800000</ele>
                <time>2018-02-26T12:28:09.644Z</time>
            </trkpt>
            <trkpt lon="100.968571" lat="12.900557">
                <ele>68.200000</ele>
                <time>2018-02-26T12:28:11.644Z</time>
            </trkpt>
            <trkpt lon="100.968543" lat="12.900567">
                <ele>68.200000</ele>
                <time>2018-02-26T12:28:12.644Z</time>
            </trkpt>
            <trkpt lon="100.968510" lat="12.900574">
                <ele>68.200000</ele>
                <time>2018-02-26T12:28:13.644Z</time>
            </trkpt>
            <trkpt lon="100.968476" lat="12.900575">
                <ele>68.200000</ele>
                <time>2018-02-26T12:28:14.644Z</time>
            </trkpt>
            <trkpt lon="100.968445" lat="12.900571">
                <ele>68.200000</ele>
                <time>2018-02-26T12:28:15.644Z</time>
            </trkpt>
            <trkpt lon="100.968407" lat="12.900558">
                <ele>68.200000</ele>
                <time>2018-02-26T12:28:17.644Z</time>
            </trkpt>
            <trkpt lon="100.968366" lat="12.900521">
                <ele>68.000000</ele>
                <time>2018-02-26T12:28:19.644Z</time>
            </trkpt>
            <trkpt lon="100.968336" lat="12.900514">
                <ele>68.300000</ele>
                <time>2018-02-26T12:28:20.644Z</time>
            </trkpt>
            <trkpt lon="100.968301" lat="12.900512">
                <ele>68.500000</ele>
                <time>2018-02-26T12:28:21.644Z</time>
            </trkpt>
            <trkpt lon="100.968270" lat="12.900511">
                <ele>68.500000</ele>
                <time>2018-02-26T12:28:22.644Z</time>
            </trkpt>
            <trkpt lon="100.968234" lat="12.900507">
                <ele>68.800000</ele>
                <time>2018-02-26T12:28:23.644Z</time>
            </trkpt>
            <trkpt lon="100.968207" lat="12.900498">
                <ele>68.800000</ele>
                <time>2018-02-26T12:28:24.644Z</time>
            </trkpt>
            <trkpt lon="100.968185" lat="12.900478">
                <ele>68.800000</ele>
                <time>2018-02-26T12:28:26.644Z</time>
            </trkpt>
            <trkpt lon="100.968189" lat="12.900450">
                <ele>68.500000</ele>
                <time>2018-02-26T12:28:27.644Z</time>
            </trkpt>
            <trkpt lon="100.968189" lat="12.900419">
                <ele>68.500000</ele>
                <time>2018-02-26T12:28:28.644Z</time>
            </trkpt>
            <trkpt lon="100.968194" lat="12.900388">
                <ele>68.200000</ele>
                <time>2018-02-26T12:28:29.644Z</time>
            </trkpt>
            <trkpt lon="100.968200" lat="12.900360">
                <ele>68.000000</ele>
                <time>2018-02-26T12:28:31.644Z</time>
            </trkpt>
            <trkpt lon="100.968227" lat="12.900377">
                <ele>68.000000</ele>
                <time>2018-02-26T12:28:33.644Z</time>
            </trkpt>
            <trkpt lon="100.968261" lat="12.900401">
                <ele>67.700000</ele>
                <time>2018-02-26T12:28:35.644Z</time>
            </trkpt>
            <trkpt lon="100.968307" lat="12.900414">
                <ele>67.500000</ele>
                <time>2018-02-26T12:28:37.644Z</time>
            </trkpt>
            <trkpt lon="100.968337" lat="12.900402">
                <ele>67.500000</ele>
                <time>2018-02-26T12:28:39.644Z</time>
            </trkpt>
            <trkpt lon="100.968370" lat="12.900378">
                <ele>67.200000</ele>
                <time>2018-02-26T12:28:41.644Z</time>
            </trkpt>
            <trkpt lon="100.968387" lat="12.900353">
                <ele>66.900000</ele>
                <time>2018-02-26T12:28:42.644Z</time>
            </trkpt>
            <trkpt lon="100.968396" lat="12.900317">
                <ele>66.500000</ele>
                <time>2018-02-26T12:28:43.644Z</time>
            </trkpt>
            <trkpt lon="100.968398" lat="12.900283">
                <ele>66.200000</ele>
                <time>2018-02-26T12:28:44.644Z</time>
            </trkpt>
            <trkpt lon="100.968407" lat="12.900247">
                <ele>65.900000</ele>
                <time>2018-02-26T12:28:45.644Z</time>
            </trkpt>
            <trkpt lon="100.968422" lat="12.900207">
                <ele>65.700000</ele>
                <time>2018-02-26T12:28:46.644Z</time>
            </trkpt>
            <trkpt lon="100.968437" lat="12.900167">
                <ele>65.400000</ele>
                <time>2018-02-26T12:28:47.644Z</time>
            </trkpt>
            <trkpt lon="100.968449" lat="12.900124">
                <ele>64.900000</ele>
                <time>2018-02-26T12:28:48.644Z</time>
            </trkpt>
            <trkpt lon="100.968455" lat="12.900086">
                <ele>64.900000</ele>
                <time>2018-02-26T12:28:49.644Z</time>
            </trkpt>
            <trkpt lon="100.968441" lat="12.900055">
                <ele>64.700000</ele>
                <time>2018-02-26T12:28:50.644Z</time>
            </trkpt>
            <trkpt lon="100.968427" lat="12.900024">
                <ele>65.000000</ele>
                <time>2018-02-26T12:28:51.644Z</time>
            </trkpt>
            <trkpt lon="100.968404" lat="12.899991">
                <ele>65.000000</ele>
                <time>2018-02-26T12:28:52.644Z</time>
            </trkpt>
            <trkpt lon="100.968382" lat="12.899960">
                <ele>65.100000</ele>
                <time>2018-02-26T12:28:53.644Z</time>
            </trkpt>
            <trkpt lon="100.968358" lat="12.899930">
                <ele>65.100000</ele>
                <time>2018-02-26T12:28:54.644Z</time>
            </trkpt>
            <trkpt lon="100.968336" lat="12.899902">
                <ele>65.100000</ele>
                <time>2018-02-26T12:28:55.644Z</time>
            </trkpt>
            <trkpt lon="100.968309" lat="12.899873">
                <ele>65.100000</ele>
                <time>2018-02-26T12:28:56.644Z</time>
            </trkpt>
            <trkpt lon="100.968284" lat="12.899848">
                <ele>65.100000</ele>
                <time>2018-02-26T12:28:57.644Z</time>
            </trkpt>
            <trkpt lon="100.968258" lat="12.899830">
                <ele>65.100000</ele>
                <time>2018-02-26T12:28:58.644Z</time>
            </trkpt>
            <trkpt lon="100.968226" lat="12.899820">
                <ele>65.100000</ele>
                <time>2018-02-26T12:28:59.644Z</time>
            </trkpt>
            <trkpt lon="100.968196" lat="12.899809">
                <ele>65.100000</ele>
                <time>2018-02-26T12:29:00.644Z</time>
            </trkpt>
            <trkpt lon="100.968167" lat="12.899802">
                <ele>65.100000</ele>
                <time>2018-02-26T12:29:01.644Z</time>
            </trkpt>
            <trkpt lon="100.968117" lat="12.899807">
                <ele>65.100000</ele>
                <time>2018-02-26T12:29:03.644Z</time>
            </trkpt>
            <trkpt lon="100.968094" lat="12.899821">
                <ele>65.000000</ele>
                <time>2018-02-26T12:29:04.644Z</time>
            </trkpt>
            <trkpt lon="100.968053" lat="12.899850">
                <ele>65.000000</ele>
                <time>2018-02-26T12:29:06.644Z</time>
            </trkpt>
            <trkpt lon="100.968024" lat="12.899886">
                <ele>65.000000</ele>
                <time>2018-02-26T12:29:08.644Z</time>
            </trkpt>
            <trkpt lon="100.968018" lat="12.899919">
                <ele>65.400000</ele>
                <time>2018-02-26T12:29:09.644Z</time>
            </trkpt>
            <trkpt lon="100.968013" lat="12.899952">
                <ele>65.400000</ele>
                <time>2018-02-26T12:29:10.644Z</time>
            </trkpt>
            <trkpt lon="100.968011" lat="12.899979">
                <ele>65.800000</ele>
                <time>2018-02-26T12:29:11.644Z</time>
            </trkpt>
            <trkpt lon="100.968014" lat="12.900007">
                <ele>66.300000</ele>
                <time>2018-02-26T12:29:12.644Z</time>
            </trkpt>
            <trkpt lon="100.968019" lat="12.900037">
                <ele>66.300000</ele>
                <time>2018-02-26T12:29:13.644Z</time>
            </trkpt>
            <trkpt lon="100.968013" lat="12.900090">
                <ele>67.200000</ele>
                <time>2018-02-26T12:29:15.644Z</time>
            </trkpt>
            <trkpt lon="100.968000" lat="12.900146">
                <ele>67.500000</ele>
                <time>2018-02-26T12:29:17.644Z</time>
            </trkpt>
            <trkpt lon="100.967990" lat="12.900193">
                <ele>67.900000</ele>
                <time>2018-02-26T12:29:18.644Z</time>
            </trkpt>
            <trkpt lon="100.967980" lat="12.900235">
                <ele>68.200000</ele>
                <time>2018-02-26T12:29:19.644Z</time>
            </trkpt>
            <trkpt lon="100.967976" lat="12.900264">
                <ele>68.500000</ele>
                <time>2018-02-26T12:29:20.644Z</time>
            </trkpt>
            <trkpt lon="100.967964" lat="12.900324">
                <ele>68.900000</ele>
                <time>2018-02-26T12:29:22.644Z</time>
            </trkpt>
            <trkpt lon="100.967957" lat="12.900353">
                <ele>69.600000</ele>
                <time>2018-02-26T12:29:23.644Z</time>
            </trkpt>
            <trkpt lon="100.967933" lat="12.900390">
                <ele>70.000000</ele>
                <time>2018-02-26T12:29:25.644Z</time>
            </trkpt>
            <trkpt lon="100.967906" lat="12.900433">
                <ele>70.800000</ele>
                <time>2018-02-26T12:29:27.644Z</time>
            </trkpt>
            <trkpt lon="100.967874" lat="12.900456">
                <ele>71.200000</ele>
                <time>2018-02-26T12:29:28.644Z</time>
            </trkpt>
            <trkpt lon="100.967844" lat="12.900482">
                <ele>71.400000</ele>
                <time>2018-02-26T12:29:29.644Z</time>
            </trkpt>
            <trkpt lon="100.967818" lat="12.900508">
                <ele>71.700000</ele>
                <time>2018-02-26T12:29:30.644Z</time>
            </trkpt>
            <trkpt lon="100.967791" lat="12.900532">
                <ele>71.700000</ele>
                <time>2018-02-26T12:29:31.644Z</time>
            </trkpt>
            <trkpt lon="100.967762" lat="12.900557">
                <ele>71.900000</ele>
                <time>2018-02-26T12:29:32.644Z</time>
            </trkpt>
            <trkpt lon="100.967730" lat="12.900582">
                <ele>71.900000</ele>
                <time>2018-02-26T12:29:33.644Z</time>
            </trkpt>
            <trkpt lon="100.967694" lat="12.900599">
                <ele>71.900000</ele>
                <time>2018-02-26T12:29:34.644Z</time>
            </trkpt>
            <trkpt lon="100.967657" lat="12.900604">
                <ele>71.800000</ele>
                <time>2018-02-26T12:29:35.644Z</time>
            </trkpt>
            <trkpt lon="100.967626" lat="12.900594">
                <ele>71.800000</ele>
                <time>2018-02-26T12:29:36.644Z</time>
            </trkpt>
            <trkpt lon="100.967597" lat="12.900578">
                <ele>71.900000</ele>
                <time>2018-02-26T12:29:37.644Z</time>
            </trkpt>
            <trkpt lon="100.967565" lat="12.900558">
                <ele>71.900000</ele>
                <time>2018-02-26T12:29:38.644Z</time>
            </trkpt>
            <trkpt lon="100.967534" lat="12.900536">
                <ele>71.900000</ele>
                <time>2018-02-26T12:29:39.644Z</time>
            </trkpt>
            <trkpt lon="100.967503" lat="12.900517">
                <ele>71.900000</ele>
                <time>2018-02-26T12:29:40.644Z</time>
            </trkpt>
            <trkpt lon="100.967469" lat="12.900499">
                <ele>71.900000</ele>
                <time>2018-02-26T12:29:41.644Z</time>
            </trkpt>
            <trkpt lon="100.967443" lat="12.900482">
                <ele>71.800000</ele>
                <time>2018-02-26T12:29:42.644Z</time>
            </trkpt>
            <trkpt lon="100.967418" lat="12.900468">
                <ele>71.800000</ele>
                <time>2018-02-26T12:29:43.644Z</time>
            </trkpt>
            <trkpt lon="100.967391" lat="12.900460">
                <ele>71.800000</ele>
                <time>2018-02-26T12:29:44.644Z</time>
            </trkpt>
            <trkpt lon="100.967362" lat="12.900456">
                <ele>71.800000</ele>
                <time>2018-02-26T12:29:45.644Z</time>
            </trkpt>
            <trkpt lon="100.967333" lat="12.900455">
                <ele>71.900000</ele>
                <time>2018-02-26T12:29:46.644Z</time>
            </trkpt>
            <trkpt lon="100.967306" lat="12.900461">
                <ele>72.200000</ele>
                <time>2018-02-26T12:29:47.644Z</time>
            </trkpt>
            <trkpt lon="100.967277" lat="12.900479">
                <ele>72.200000</ele>
                <time>2018-02-26T12:29:48.644Z</time>
            </trkpt>
            <trkpt lon="100.967252" lat="12.900500">
                <ele>72.400000</ele>
                <time>2018-02-26T12:29:49.644Z</time>
            </trkpt>
            <trkpt lon="100.967227" lat="12.900518">
                <ele>72.600000</ele>
                <time>2018-02-26T12:29:50.644Z</time>
            </trkpt>
            <trkpt lon="100.967193" lat="12.900530">
                <ele>72.600000</ele>
                <time>2018-02-26T12:29:51.644Z</time>
            </trkpt>
            <trkpt lon="100.967169" lat="12.900547">
                <ele>72.800000</ele>
                <time>2018-02-26T12:29:52.644Z</time>
            </trkpt>
            <trkpt lon="100.967159" lat="12.900584">
                <ele>72.800000</ele>
                <time>2018-02-26T12:29:54.644Z</time>
            </trkpt>
            <trkpt lon="100.967165" lat="12.900620">
                <ele>72.800000</ele>
                <time>2018-02-26T12:29:56.644Z</time>
            </trkpt>
            <trkpt lon="100.967186" lat="12.900644">
                <ele>72.800000</ele>
                <time>2018-02-26T12:29:58.644Z</time>
            </trkpt>
            <trkpt lon="100.967229" lat="12.900652">
                <ele>72.600000</ele>
                <time>2018-02-26T12:30:00.644Z</time>
            </trkpt>
            <trkpt lon="100.967282" lat="12.900660">
                <ele>72.100000</ele>
                <time>2018-02-26T12:30:02.644Z</time>
            </trkpt>
            <trkpt lon="100.967311" lat="12.900671">
                <ele>72.100000</ele>
                <time>2018-02-26T12:30:03.644Z</time>
            </trkpt>
            <trkpt lon="100.967365" lat="12.900678">
                <ele>71.600000</ele>
                <time>2018-02-26T12:30:05.644Z</time>
            </trkpt>
            <trkpt lon="100.967395" lat="12.900698">
                <ele>71.600000</ele>
                <time>2018-02-26T12:30:06.644Z</time>
            </trkpt>
            <trkpt lon="100.967425" lat="12.900721">
                <ele>71.400000</ele>
                <time>2018-02-26T12:30:07.644Z</time>
            </trkpt>
            <trkpt lon="100.967454" lat="12.900742">
                <ele>71.100000</ele>
                <time>2018-02-26T12:30:08.644Z</time>
            </trkpt>
            <trkpt lon="100.967482" lat="12.900752">
                <ele>71.100000</ele>
                <time>2018-02-26T12:30:09.644Z</time>
            </trkpt>
            <trkpt lon="100.967507" lat="12.900767">
                <ele>70.800000</ele>
                <time>2018-02-26T12:30:10.644Z</time>
            </trkpt>
            <trkpt lon="100.967539" lat="12.900772">
                <ele>70.900000</ele>
                <time>2018-02-26T12:30:12.644Z</time>
            </trkpt>
            <trkpt lon="100.967570" lat="12.900773">
                <ele>70.900000</ele>
                <time>2018-02-26T12:30:14.644Z</time>
            </trkpt>
            <trkpt lon="100.967622" lat="12.900797">
                <ele>71.300000</ele>
                <time>2018-02-26T12:30:16.644Z</time>
            </trkpt>
            <trkpt lon="100.967640" lat="12.900822">
                <ele>71.300000</ele>
                <time>2018-02-26T12:30:17.644Z</time>
            </trkpt>
            <trkpt lon="100.967648" lat="12.900854">
                <ele>71.300000</ele>
                <time>2018-02-26T12:30:18.644Z</time>
            </trkpt>
            <trkpt lon="100.967656" lat="12.900887">
                <ele>71.300000</ele>
                <time>2018-02-26T12:30:19.644Z</time>
            </trkpt>
            <trkpt lon="100.967672" lat="12.900915">
                <ele>71.600000</ele>
                <time>2018-02-26T12:30:20.644Z</time>
            </trkpt>
            <trkpt lon="100.967699" lat="12.900946">
                <ele>71.400000</ele>
                <time>2018-02-26T12:30:21.644Z</time>
            </trkpt>
            <trkpt lon="100.967731" lat="12.900975">
                <ele>71.200000</ele>
                <time>2018-02-26T12:30:22.644Z</time>
            </trkpt>
            <trkpt lon="100.967769" lat="12.900998">
                <ele>71.000000</ele>
                <time>2018-02-26T12:30:23.644Z</time>
            </trkpt>
            <trkpt lon="100.967808" lat="12.901028">
                <ele>70.800000</ele>
                <time>2018-02-26T12:30:24.644Z</time>
            </trkpt>
            <trkpt lon="100.967839" lat="12.901047">
                <ele>70.600000</ele>
                <time>2018-02-26T12:30:25.644Z</time>
            </trkpt>
            <trkpt lon="100.967861" lat="12.901070">
                <ele>70.600000</ele>
                <time>2018-02-26T12:30:26.644Z</time>
            </trkpt>
            <trkpt lon="100.967880" lat="12.901091">
                <ele>70.200000</ele>
                <time>2018-02-26T12:30:27.644Z</time>
            </trkpt>
            <trkpt lon="100.967900" lat="12.901139">
                <ele>69.900000</ele>
                <time>2018-02-26T12:30:29.644Z</time>
            </trkpt>
            <trkpt lon="100.967913" lat="12.901174">
                <ele>69.700000</ele>
                <time>2018-02-26T12:30:30.644Z</time>
            </trkpt>
            <trkpt lon="100.967926" lat="12.901205">
                <ele>69.200000</ele>
                <time>2018-02-26T12:30:31.644Z</time>
            </trkpt>
            <trkpt lon="100.967948" lat="12.901232">
                <ele>68.900000</ele>
                <time>2018-02-26T12:30:32.644Z</time>
            </trkpt>
            <trkpt lon="100.967980" lat="12.901251">
                <ele>68.400000</ele>
                <time>2018-02-26T12:30:33.644Z</time>
            </trkpt>
            <trkpt lon="100.968019" lat="12.901271">
                <ele>67.800000</ele>
                <time>2018-02-26T12:30:34.644Z</time>
            </trkpt>
            <trkpt lon="100.968059" lat="12.901277">
                <ele>67.400000</ele>
                <time>2018-02-26T12:30:35.644Z</time>
            </trkpt>
            <trkpt lon="100.968092" lat="12.901270">
                <ele>67.200000</ele>
                <time>2018-02-26T12:30:36.644Z</time>
            </trkpt>
            <trkpt lon="100.968105" lat="12.901222">
                <ele>67.300000</ele>
                <time>2018-02-26T12:30:38.644Z</time>
            </trkpt>
            <trkpt lon="100.968116" lat="12.901167">
                <ele>67.800000</ele>
                <time>2018-02-26T12:30:40.644Z</time>
            </trkpt>
            <trkpt lon="100.968126" lat="12.901134">
                <ele>67.800000</ele>
                <time>2018-02-26T12:30:41.644Z</time>
            </trkpt>
            <trkpt lon="100.968135" lat="12.901097">
                <ele>67.700000</ele>
                <time>2018-02-26T12:30:42.644Z</time>
            </trkpt>
            <trkpt lon="100.968139" lat="12.901056">
                <ele>67.900000</ele>
                <time>2018-02-26T12:30:43.644Z</time>
            </trkpt>
            <trkpt lon="100.968150" lat="12.901024">
                <ele>67.900000</ele>
                <time>2018-02-26T12:30:44.644Z</time>
            </trkpt>
            <trkpt lon="100.968168" lat="12.901000">
                <ele>67.900000</ele>
                <time>2018-02-26T12:30:45.644Z</time>
            </trkpt>
            <trkpt lon="100.968194" lat="12.900985">
                <ele>67.600000</ele>
                <time>2018-02-26T12:30:46.644Z</time>
            </trkpt>
            <trkpt lon="100.968238" lat="12.900982">
                <ele>67.500000</ele>
                <time>2018-02-26T12:30:47.644Z</time>
            </trkpt>
            <trkpt lon="100.968281" lat="12.900976">
                <ele>67.300000</ele>
                <time>2018-02-26T12:30:48.644Z</time>
            </trkpt>
            <trkpt lon="100.968309" lat="12.900950">
                <ele>67.400000</ele>
                <time>2018-02-26T12:30:49.644Z</time>
            </trkpt>
            <trkpt lon="100.968325" lat="12.900918">
                <ele>67.500000</ele>
                <time>2018-02-26T12:30:50.644Z</time>
            </trkpt>
            <trkpt lon="100.968342" lat="12.900880">
                <ele>67.500000</ele>
                <time>2018-02-26T12:30:51.644Z</time>
            </trkpt>
            <trkpt lon="100.968356" lat="12.900850">
                <ele>67.500000</ele>
                <time>2018-02-26T12:30:52.644Z</time>
            </trkpt>
            <trkpt lon="100.968379" lat="12.900805">
                <ele>67.500000</ele>
                <time>2018-02-26T12:30:53.644Z</time>
            </trkpt>
            <trkpt lon="100.968397" lat="12.900772">
                <ele>67.400000</ele>
                <time>2018-02-26T12:30:54.644Z</time>
            </trkpt>
            <trkpt lon="100.968422" lat="12.900756">
                <ele>67.400000</ele>
                <time>2018-02-26T12:30:55.644Z</time>
            </trkpt>
            <trkpt lon="100.968458" lat="12.900750">
                <ele>67.500000</ele>
                <time>2018-02-26T12:30:56.644Z</time>
            </trkpt>
            <trkpt lon="100.968498" lat="12.900745">
                <ele>67.500000</ele>
                <time>2018-02-26T12:30:57.644Z</time>
            </trkpt>
            <trkpt lon="100.968540" lat="12.900732">
                <ele>67.400000</ele>
                <time>2018-02-26T12:30:58.644Z</time>
            </trkpt>
            <trkpt lon="100.968591" lat="12.900725">
                <ele>67.300000</ele>
                <time>2018-02-26T12:30:59.644Z</time>
            </trkpt>
            <trkpt lon="100.968630" lat="12.900724">
                <ele>67.100000</ele>
                <time>2018-02-26T12:31:00.644Z</time>
            </trkpt>
            <trkpt lon="100.968667" lat="12.900722">
                <ele>66.800000</ele>
                <time>2018-02-26T12:31:01.644Z</time>
            </trkpt>
            <trkpt lon="100.968705" lat="12.900721">
                <ele>66.600000</ele>
                <time>2018-02-26T12:31:02.644Z</time>
            </trkpt>
            <trkpt lon="100.968764" lat="12.900723">
                <ele>66.500000</ele>
                <time>2018-02-26T12:31:03.644Z</time>
            </trkpt>
            <trkpt lon="100.968811" lat="12.900738">
                <ele>66.500000</ele>
                <time>2018-02-26T12:31:04.644Z</time>
            </trkpt>
            <trkpt lon="100.968850" lat="12.900758">
                <ele>66.300000</ele>
                <time>2018-02-26T12:31:05.644Z</time>
            </trkpt>
            <trkpt lon="100.968880" lat="12.900784">
                <ele>66.400000</ele>
                <time>2018-02-26T12:31:06.644Z</time>
            </trkpt>
            <trkpt lon="100.968911" lat="12.900822">
                <ele>66.500000</ele>
                <time>2018-02-26T12:31:07.644Z</time>
            </trkpt>
            <trkpt lon="100.968933" lat="12.900852">
                <ele>66.500000</ele>
                <time>2018-02-26T12:31:08.644Z</time>
            </trkpt>
            <trkpt lon="100.968953" lat="12.900890">
                <ele>66.800000</ele>
                <time>2018-02-26T12:31:09.644Z</time>
            </trkpt>
            <trkpt lon="100.968968" lat="12.900921">
                <ele>66.800000</ele>
                <time>2018-02-26T12:31:10.644Z</time>
            </trkpt>
            <trkpt lon="100.968981" lat="12.900958">
                <ele>66.700000</ele>
                <time>2018-02-26T12:31:11.644Z</time>
            </trkpt>
            <trkpt lon="100.968982" lat="12.900994">
                <ele>66.700000</ele>
                <time>2018-02-26T12:31:12.644Z</time>
            </trkpt>
            <trkpt lon="100.968959" lat="12.901030">
                <ele>66.700000</ele>
                <time>2018-02-26T12:31:13.644Z</time>
            </trkpt>
            <trkpt lon="100.968926" lat="12.901054">
                <ele>66.500000</ele>
                <time>2018-02-26T12:31:14.644Z</time>
            </trkpt>
            <trkpt lon="100.968893" lat="12.901069">
                <ele>66.200000</ele>
                <time>2018-02-26T12:31:15.644Z</time>
            </trkpt>
            <trkpt lon="100.968857" lat="12.901066">
                <ele>66.000000</ele>
                <time>2018-02-26T12:31:16.644Z</time>
            </trkpt>
            <trkpt lon="100.968831" lat="12.901054">
                <ele>66.000000</ele>
                <time>2018-02-26T12:31:17.644Z</time>
            </trkpt>
            <trkpt lon="100.968809" lat="12.901033">
                <ele>65.700000</ele>
                <time>2018-02-26T12:31:18.644Z</time>
            </trkpt>
            <trkpt lon="100.968783" lat="12.901011">
                <ele>65.700000</ele>
                <time>2018-02-26T12:31:19.644Z</time>
            </trkpt>
            <trkpt lon="100.968750" lat="12.901000">
                <ele>65.400000</ele>
                <time>2018-02-26T12:31:20.644Z</time>
            </trkpt>
            <trkpt lon="100.968713" lat="12.900986">
                <ele>65.400000</ele>
                <time>2018-02-26T12:31:21.644Z</time>
            </trkpt>
            <trkpt lon="100.968683" lat="12.900978">
                <ele>65.500000</ele>
                <time>2018-02-26T12:31:22.644Z</time>
            </trkpt>
            <trkpt lon="100.968630" lat="12.900968">
                <ele>65.700000</ele>
                <time>2018-02-26T12:31:24.644Z</time>
            </trkpt>
            <trkpt lon="100.968578" lat="12.900995">
                <ele>65.800000</ele>
                <time>2018-02-26T12:31:26.644Z</time>
            </trkpt>
            <trkpt lon="100.968550" lat="12.901013">
                <ele>65.700000</ele>
                <time>2018-02-26T12:31:27.644Z</time>
            </trkpt>
            <trkpt lon="100.968529" lat="12.901033">
                <ele>65.700000</ele>
                <time>2018-02-26T12:31:28.644Z</time>
            </trkpt>
            <trkpt lon="100.968511" lat="12.901061">
                <ele>65.700000</ele>
                <time>2018-02-26T12:31:29.644Z</time>
            </trkpt>
            <trkpt lon="100.968494" lat="12.901091">
                <ele>65.600000</ele>
                <time>2018-02-26T12:31:30.644Z</time>
            </trkpt>
            <trkpt lon="100.968474" lat="12.901117">
                <ele>65.800000</ele>
                <time>2018-02-26T12:31:31.644Z</time>
            </trkpt>
            <trkpt lon="100.968447" lat="12.901137">
                <ele>65.600000</ele>
                <time>2018-02-26T12:31:32.644Z</time>
            </trkpt>
            <trkpt lon="100.968412" lat="12.901154">
                <ele>65.800000</ele>
                <time>2018-02-26T12:31:33.644Z</time>
            </trkpt>
            <trkpt lon="100.968384" lat="12.901170">
                <ele>65.900000</ele>
                <time>2018-02-26T12:31:34.644Z</time>
            </trkpt>
            <trkpt lon="100.968366" lat="12.901192">
                <ele>65.700000</ele>
                <time>2018-02-26T12:31:35.644Z</time>
            </trkpt>
            <trkpt lon="100.968361" lat="12.901221">
                <ele>65.400000</ele>
                <time>2018-02-26T12:31:36.644Z</time>
            </trkpt>
            <trkpt lon="100.968350" lat="12.901249">
                <ele>65.400000</ele>
                <time>2018-02-26T12:31:37.644Z</time>
            </trkpt>
            <trkpt lon="100.968337" lat="12.901277">
                <ele>65.600000</ele>
                <time>2018-02-26T12:31:38.644Z</time>
            </trkpt>
            <trkpt lon="100.968327" lat="12.901313">
                <ele>65.600000</ele>
                <time>2018-02-26T12:31:39.644Z</time>
            </trkpt>
            <trkpt lon="100.968312" lat="12.901348">
                <ele>65.500000</ele>
                <time>2018-02-26T12:31:40.644Z</time>
            </trkpt>
            <trkpt lon="100.968296" lat="12.901385">
                <ele>65.800000</ele>
                <time>2018-02-26T12:31:41.644Z</time>
            </trkpt>
            <trkpt lon="100.968279" lat="12.901419">
                <ele>65.800000</ele>
                <time>2018-02-26T12:31:42.644Z</time>
            </trkpt>
            <trkpt lon="100.968261" lat="12.901449">
                <ele>65.800000</ele>
                <time>2018-02-26T12:31:43.644Z</time>
            </trkpt>
            <trkpt lon="100.968243" lat="12.901483">
                <ele>66.000000</ele>
                <time>2018-02-26T12:31:44.644Z</time>
            </trkpt>
            <trkpt lon="100.968226" lat="12.901511">
                <ele>66.000000</ele>
                <time>2018-02-26T12:31:45.644Z</time>
            </trkpt>
            <trkpt lon="100.968211" lat="12.901542">
                <ele>66.300000</ele>
                <time>2018-02-26T12:31:46.644Z</time>
            </trkpt>
            <trkpt lon="100.968197" lat="12.901574">
                <ele>66.300000</ele>
                <time>2018-02-26T12:31:47.644Z</time>
            </trkpt>
            <trkpt lon="100.968196" lat="12.901601">
                <ele>66.500000</ele>
                <time>2018-02-26T12:31:48.644Z</time>
            </trkpt>
            <trkpt lon="100.968194" lat="12.901633">
                <ele>66.700000</ele>
                <time>2018-02-26T12:31:49.644Z</time>
            </trkpt>
            <trkpt lon="100.968184" lat="12.901666">
                <ele>66.700000</ele>
                <time>2018-02-26T12:31:50.644Z</time>
            </trkpt>
            <trkpt lon="100.968161" lat="12.901695">
                <ele>67.200000</ele>
                <time>2018-02-26T12:31:51.644Z</time>
            </trkpt>
            <trkpt lon="100.968130" lat="12.901703">
                <ele>67.600000</ele>
                <time>2018-02-26T12:31:52.644Z</time>
            </trkpt>
            <trkpt lon="100.968102" lat="12.901680">
                <ele>67.600000</ele>
                <time>2018-02-26T12:31:53.644Z</time>
            </trkpt>
            <trkpt lon="100.968074" lat="12.901654">
                <ele>67.900000</ele>
                <time>2018-02-26T12:31:54.644Z</time>
            </trkpt>
            <trkpt lon="100.968033" lat="12.901635">
                <ele>68.300000</ele>
                <time>2018-02-26T12:31:55.644Z</time>
            </trkpt>
            <trkpt lon="100.967987" lat="12.901645">
                <ele>68.800000</ele>
                <time>2018-02-26T12:31:56.644Z</time>
            </trkpt>
            <trkpt lon="100.967947" lat="12.901672">
                <ele>69.300000</ele>
                <time>2018-02-26T12:31:57.644Z</time>
            </trkpt>
            <trkpt lon="100.967918" lat="12.901703">
                <ele>69.300000</ele>
                <time>2018-02-26T12:31:58.644Z</time>
            </trkpt>
            <trkpt lon="100.967888" lat="12.901734">
                <ele>69.800000</ele>
                <time>2018-02-26T12:31:59.644Z</time>
            </trkpt>
            <trkpt lon="100.967852" lat="12.901758">
                <ele>70.100000</ele>
                <time>2018-02-26T12:32:00.644Z</time>
            </trkpt>
            <trkpt lon="100.967813" lat="12.901775">
                <ele>70.100000</ele>
                <time>2018-02-26T12:32:01.644Z</time>
            </trkpt>
            <trkpt lon="100.967779" lat="12.901786">
                <ele>70.100000</ele>
                <time>2018-02-26T12:32:02.644Z</time>
            </trkpt>
            <trkpt lon="100.967748" lat="12.901782">
                <ele>70.000000</ele>
                <time>2018-02-26T12:32:03.644Z</time>
            </trkpt>
            <trkpt lon="100.967719" lat="12.901772">
                <ele>70.000000</ele>
                <time>2018-02-26T12:32:04.644Z</time>
            </trkpt>
            <trkpt lon="100.967689" lat="12.901753">
                <ele>69.900000</ele>
                <time>2018-02-26T12:32:05.644Z</time>
            </trkpt>
            <trkpt lon="100.967655" lat="12.901735">
                <ele>69.700000</ele>
                <time>2018-02-26T12:32:06.644Z</time>
            </trkpt>
            <trkpt lon="100.967627" lat="12.901723">
                <ele>69.700000</ele>
                <time>2018-02-26T12:32:07.644Z</time>
            </trkpt>
            <trkpt lon="100.967596" lat="12.901722">
                <ele>69.400000</ele>
                <time>2018-02-26T12:32:08.644Z</time>
            </trkpt>
            <trkpt lon="100.967563" lat="12.901725">
                <ele>69.200000</ele>
                <time>2018-02-26T12:32:09.644Z</time>
            </trkpt>
            <trkpt lon="100.967534" lat="12.901727">
                <ele>69.200000</ele>
                <time>2018-02-26T12:32:10.644Z</time>
            </trkpt>
            <trkpt lon="100.967497" lat="12.901729">
                <ele>69.000000</ele>
                <time>2018-02-26T12:32:11.644Z</time>
            </trkpt>
            <trkpt lon="100.967465" lat="12.901747">
                <ele>69.000000</ele>
                <time>2018-02-26T12:32:12.644Z</time>
            </trkpt>
            <trkpt lon="100.967445" lat="12.901774">
                <ele>68.800000</ele>
                <time>2018-02-26T12:32:13.644Z</time>
            </trkpt>
            <trkpt lon="100.967424" lat="12.901802">
                <ele>68.600000</ele>
                <time>2018-02-26T12:32:14.644Z</time>
            </trkpt>
            <trkpt lon="100.967406" lat="12.901828">
                <ele>68.600000</ele>
                <time>2018-02-26T12:32:15.644Z</time>
            </trkpt>
            <trkpt lon="100.967391" lat="12.901856">
                <ele>68.300000</ele>
                <time>2018-02-26T12:32:16.644Z</time>
            </trkpt>
            <trkpt lon="100.967379" lat="12.901882">
                <ele>68.100000</ele>
                <time>2018-02-26T12:32:17.644Z</time>
            </trkpt>
            <trkpt lon="100.967337" lat="12.901910">
                <ele>68.200000</ele>
                <time>2018-02-26T12:32:19.644Z</time>
            </trkpt>
            <trkpt lon="100.967310" lat="12.901893">
                <ele>68.400000</ele>
                <time>2018-02-26T12:32:21.644Z</time>
            </trkpt>
            <trkpt lon="100.967270" lat="12.901881">
                <ele>68.900000</ele>
                <time>2018-02-26T12:32:23.644Z</time>
            </trkpt>
            <trkpt lon="100.967227" lat="12.901857">
                <ele>69.100000</ele>
                <time>2018-02-26T12:32:25.644Z</time>
            </trkpt>
            <trkpt lon="100.967193" lat="12.901847">
                <ele>69.100000</ele>
                <time>2018-02-26T12:32:26.644Z</time>
            </trkpt>
            <trkpt lon="100.967157" lat="12.901847">
                <ele>69.300000</ele>
                <time>2018-02-26T12:32:27.644Z</time>
            </trkpt>
            <trkpt lon="100.967118" lat="12.901854">
                <ele>69.300000</ele>
                <time>2018-02-26T12:32:28.644Z</time>
            </trkpt>
            <trkpt lon="100.967079" lat="12.901860">
                <ele>69.300000</ele>
                <time>2018-02-26T12:32:29.644Z</time>
            </trkpt>
            <trkpt lon="100.967040" lat="12.901866">
                <ele>69.300000</ele>
                <time>2018-02-26T12:32:30.644Z</time>
            </trkpt>
            <trkpt lon="100.967005" lat="12.901873">
                <ele>69.200000</ele>
                <time>2018-02-26T12:32:31.644Z</time>
            </trkpt>
            <trkpt lon="100.966964" lat="12.901867">
                <ele>69.000000</ele>
                <time>2018-02-26T12:32:32.644Z</time>
            </trkpt>
            <trkpt lon="100.966935" lat="12.901854">
                <ele>69.000000</ele>
                <time>2018-02-26T12:32:33.644Z</time>
            </trkpt>
            <trkpt lon="100.966914" lat="12.901836">
                <ele>68.800000</ele>
                <time>2018-02-26T12:32:34.644Z</time>
            </trkpt>
            <trkpt lon="100.966898" lat="12.901808">
                <ele>68.800000</ele>
                <time>2018-02-26T12:32:35.644Z</time>
            </trkpt>
            <trkpt lon="100.966883" lat="12.901781">
                <ele>68.300000</ele>
                <time>2018-02-26T12:32:36.644Z</time>
            </trkpt>
            <trkpt lon="100.966858" lat="12.901755">
                <ele>68.200000</ele>
                <time>2018-02-26T12:32:38.644Z</time>
            </trkpt>
            <trkpt lon="100.966839" lat="12.901734">
                <ele>67.800000</ele>
                <time>2018-02-26T12:32:57.644Z</time>
            </trkpt>
            <trkpt lon="100.966817" lat="12.901718">
                <ele>67.800000</ele>
                <time>2018-02-26T12:33:31.644Z</time>
            </trkpt>
            <trkpt lon="100.966789" lat="12.901707">
                <ele>67.500000</ele>
                <time>2018-02-26T12:34:00.644Z</time>
            </trkpt>
            <trkpt lon="100.966743" lat="12.901722">
                <ele>67.300000</ele>
                <time>2018-02-26T12:34:34.644Z</time>
            </trkpt>
            <trkpt lon="100.966704" lat="12.901753">
                <ele>67.000000</ele>
                <time>2018-02-26T12:34:36.644Z</time>
            </trkpt>
            <trkpt lon="100.966671" lat="12.901790">
                <ele>66.900000</ele>
                <time>2018-02-26T12:34:38.644Z</time>
            </trkpt>
            <trkpt lon="100.966654" lat="12.901812">
                <ele>67.100000</ele>
                <time>2018-02-26T12:34:39.644Z</time>
            </trkpt>
            <trkpt lon="100.966633" lat="12.901841">
                <ele>67.400000</ele>
                <time>2018-02-26T12:34:40.644Z</time>
            </trkpt>
            <trkpt lon="100.966609" lat="12.901865">
                <ele>67.100000</ele>
                <time>2018-02-26T12:34:41.644Z</time>
            </trkpt>
            <trkpt lon="100.966581" lat="12.901880">
                <ele>66.900000</ele>
                <time>2018-02-26T12:34:42.644Z</time>
            </trkpt>
            <trkpt lon="100.966528" lat="12.901896">
                <ele>66.800000</ele>
                <time>2018-02-26T12:34:44.644Z</time>
            </trkpt>
            <trkpt lon="100.966499" lat="12.901897">
                <ele>66.700000</ele>
                <time>2018-02-26T12:34:45.644Z</time>
            </trkpt>
            <trkpt lon="100.966467" lat="12.901899">
                <ele>66.700000</ele>
                <time>2018-02-26T12:34:46.644Z</time>
            </trkpt>
            <trkpt lon="100.966431" lat="12.901908">
                <ele>66.700000</ele>
                <time>2018-02-26T12:34:47.644Z</time>
            </trkpt>
            <trkpt lon="100.966394" lat="12.901928">
                <ele>66.800000</ele>
                <time>2018-02-26T12:34:48.644Z</time>
            </trkpt>
            <trkpt lon="100.966366" lat="12.901947">
                <ele>66.800000</ele>
                <time>2018-02-26T12:34:49.644Z</time>
            </trkpt>
            <trkpt lon="100.966332" lat="12.901967">
                <ele>66.800000</ele>
                <time>2018-02-26T12:34:50.644Z</time>
            </trkpt>
            <trkpt lon="100.966298" lat="12.901987">
                <ele>66.700000</ele>
                <time>2018-02-26T12:34:51.644Z</time>
            </trkpt>
            <trkpt lon="100.966264" lat="12.902002">
                <ele>66.700000</ele>
                <time>2018-02-26T12:34:52.644Z</time>
            </trkpt>
            <trkpt lon="100.966231" lat="12.902018">
                <ele>66.700000</ele>
                <time>2018-02-26T12:34:53.644Z</time>
            </trkpt>
            <trkpt lon="100.966197" lat="12.902033">
                <ele>66.700000</ele>
                <time>2018-02-26T12:34:54.644Z</time>
            </trkpt>
            <trkpt lon="100.966159" lat="12.902046">
                <ele>66.700000</ele>
                <time>2018-02-26T12:34:55.644Z</time>
            </trkpt>
            <trkpt lon="100.966120" lat="12.902056">
                <ele>66.800000</ele>
                <time>2018-02-26T12:34:56.644Z</time>
            </trkpt>
            <trkpt lon="100.966078" lat="12.902062">
                <ele>67.000000</ele>
                <time>2018-02-26T12:34:57.644Z</time>
            </trkpt>
            <trkpt lon="100.966043" lat="12.902074">
                <ele>67.200000</ele>
                <time>2018-02-26T12:34:58.644Z</time>
            </trkpt>
            <trkpt lon="100.966022" lat="12.902104">
                <ele>67.400000</ele>
                <time>2018-02-26T12:34:59.644Z</time>
            </trkpt>
            <trkpt lon="100.965998" lat="12.902134">
                <ele>67.200000</ele>
                <time>2018-02-26T12:35:00.644Z</time>
            </trkpt>
            <trkpt lon="100.965979" lat="12.902162">
                <ele>67.300000</ele>
                <time>2018-02-26T12:35:01.644Z</time>
            </trkpt>
            <trkpt lon="100.965964" lat="12.902192">
                <ele>67.000000</ele>
                <time>2018-02-26T12:35:02.644Z</time>
            </trkpt>
            <trkpt lon="100.965955" lat="12.902225">
                <ele>66.800000</ele>
                <time>2018-02-26T12:35:03.644Z</time>
            </trkpt>
            <trkpt lon="100.965944" lat="12.902261">
                <ele>66.400000</ele>
                <time>2018-02-26T12:35:04.644Z</time>
            </trkpt>
            <trkpt lon="100.965922" lat="12.902289">
                <ele>66.400000</ele>
                <time>2018-02-26T12:35:05.644Z</time>
            </trkpt>
            <trkpt lon="100.965900" lat="12.902316">
                <ele>65.900000</ele>
                <time>2018-02-26T12:35:06.644Z</time>
            </trkpt>
            <trkpt lon="100.965880" lat="12.902335">
                <ele>65.900000</ele>
                <time>2018-02-26T12:35:07.644Z</time>
            </trkpt>
            <trkpt lon="100.965860" lat="12.902357">
                <ele>65.400000</ele>
                <time>2018-02-26T12:35:08.644Z</time>
            </trkpt>
            <trkpt lon="100.965844" lat="12.902379">
                <ele>65.400000</ele>
                <time>2018-02-26T12:35:09.644Z</time>
            </trkpt>
            <trkpt lon="100.965827" lat="12.902402">
                <ele>64.900000</ele>
                <time>2018-02-26T12:35:10.644Z</time>
            </trkpt>
            <trkpt lon="100.965800" lat="12.902437">
                <ele>64.600000</ele>
                <time>2018-02-26T12:35:12.644Z</time>
            </trkpt>
            <trkpt lon="100.965784" lat="12.902460">
                <ele>64.600000</ele>
                <time>2018-02-26T12:35:31.644Z</time>
            </trkpt>
            <trkpt lon="100.965756" lat="12.902462">
                <ele>64.600000</ele>
                <time>2018-02-26T12:36:24.644Z</time>
            </trkpt>
            <trkpt lon="100.965725" lat="12.902467">
                <ele>64.600000</ele>
                <time>2018-02-26T12:36:54.644Z</time>
            </trkpt>
            <trkpt lon="100.965725" lat="12.902439">
                <ele>64.600000</ele>
                <time>2018-02-26T12:36:56.644Z</time>
            </trkpt>
            <trkpt lon="100.965754" lat="12.902480">
                <ele>64.600000</ele>
                <time>2018-02-26T12:36:59.644Z</time>
            </trkpt>
            <trkpt lon="100.965771" lat="12.902503">
                <ele>64.600000</ele>
                <time>2018-02-26T12:37:00.644Z</time>
            </trkpt>
            <trkpt lon="100.965792" lat="12.902526">
                <ele>64.600000</ele>
                <time>2018-02-26T12:37:01.644Z</time>
            </trkpt>
            <trkpt lon="100.965833" lat="12.902544">
                <ele>64.600000</ele>
                <time>2018-02-26T12:37:02.644Z</time>
            </trkpt>
            <trkpt lon="100.965869" lat="12.902568">
                <ele>64.600000</ele>
                <time>2018-02-26T12:37:03.644Z</time>
            </trkpt>
            <trkpt lon="100.965898" lat="12.902577">
                <ele>64.600000</ele>
                <time>2018-02-26T12:37:04.644Z</time>
            </trkpt>
            <trkpt lon="100.965934" lat="12.902596">
                <ele>64.500000</ele>
                <time>2018-02-26T12:37:05.644Z</time>
            </trkpt>
            <trkpt lon="100.965983" lat="12.902601">
                <ele>64.500000</ele>
                <time>2018-02-26T12:37:07.644Z</time>
            </trkpt>
            <trkpt lon="100.966010" lat="12.902619">
                <ele>64.500000</ele>
                <time>2018-02-26T12:37:08.644Z</time>
            </trkpt>
            <trkpt lon="100.966028" lat="12.902668">
                <ele>64.500000</ele>
                <time>2018-02-26T12:37:09.644Z</time>
            </trkpt>
            <trkpt lon="100.966062" lat="12.902706">
                <ele>64.500000</ele>
                <time>2018-02-26T12:37:11.644Z</time>
            </trkpt>
            <trkpt lon="100.966087" lat="12.902736">
                <ele>64.500000</ele>
                <time>2018-02-26T12:37:12.644Z</time>
            </trkpt>
            <trkpt lon="100.966119" lat="12.902782">
                <ele>64.600000</ele>
                <time>2018-02-26T12:37:14.644Z</time>
            </trkpt>
            <trkpt lon="100.966152" lat="12.902828">
                <ele>64.900000</ele>
                <time>2018-02-26T12:37:16.644Z</time>
            </trkpt>
            <trkpt lon="100.966160" lat="12.902855">
                <ele>65.200000</ele>
                <time>2018-02-26T12:37:17.644Z</time>
            </trkpt>
            <trkpt lon="100.966159" lat="12.902883">
                <ele>65.200000</ele>
                <time>2018-02-26T12:37:18.644Z</time>
            </trkpt>
            <trkpt lon="100.966154" lat="12.902923">
                <ele>65.300000</ele>
                <time>2018-02-26T12:37:19.644Z</time>
            </trkpt>
            <trkpt lon="100.966147" lat="12.902953">
                <ele>65.400000</ele>
                <time>2018-02-26T12:37:20.644Z</time>
            </trkpt>
            <trkpt lon="100.966134" lat="12.902986">
                <ele>65.400000</ele>
                <time>2018-02-26T12:37:21.644Z</time>
            </trkpt>
            <trkpt lon="100.966110" lat="12.903012">
                <ele>65.300000</ele>
                <time>2018-02-26T12:37:22.644Z</time>
            </trkpt>
            <trkpt lon="100.966081" lat="12.903024">
                <ele>65.300000</ele>
                <time>2018-02-26T12:37:23.644Z</time>
            </trkpt>
            <trkpt lon="100.966052" lat="12.903029">
                <ele>65.200000</ele>
                <time>2018-02-26T12:37:24.644Z</time>
            </trkpt>
            <trkpt lon="100.965999" lat="12.903046">
                <ele>65.100000</ele>
                <time>2018-02-26T12:37:26.644Z</time>
            </trkpt>
            <trkpt lon="100.965971" lat="12.903060">
                <ele>65.300000</ele>
                <time>2018-02-26T12:37:27.644Z</time>
            </trkpt>
            <trkpt lon="100.965942" lat="12.903079">
                <ele>65.300000</ele>
                <time>2018-02-26T12:37:28.644Z</time>
            </trkpt>
            <trkpt lon="100.965917" lat="12.903102">
                <ele>65.400000</ele>
                <time>2018-02-26T12:37:29.644Z</time>
            </trkpt>
            <trkpt lon="100.965904" lat="12.903127">
                <ele>65.400000</ele>
                <time>2018-02-26T12:37:30.644Z</time>
            </trkpt>
            <trkpt lon="100.965894" lat="12.903158">
                <ele>65.400000</ele>
                <time>2018-02-26T12:37:31.644Z</time>
            </trkpt>
            <trkpt lon="100.965883" lat="12.903188">
                <ele>65.400000</ele>
                <time>2018-02-26T12:37:32.644Z</time>
            </trkpt>
            <trkpt lon="100.965870" lat="12.903241">
                <ele>65.400000</ele>
                <time>2018-02-26T12:37:34.644Z</time>
            </trkpt>
            <trkpt lon="100.965861" lat="12.903300">
                <ele>65.400000</ele>
                <time>2018-02-26T12:37:36.644Z</time>
            </trkpt>
            <trkpt lon="100.965844" lat="12.903327">
                <ele>65.400000</ele>
                <time>2018-02-26T12:37:37.644Z</time>
            </trkpt>
            <trkpt lon="100.965816" lat="12.903343">
                <ele>65.400000</ele>
                <time>2018-02-26T12:37:38.644Z</time>
            </trkpt>
            <trkpt lon="100.965756" lat="12.903364">
                <ele>65.400000</ele>
                <time>2018-02-26T12:37:40.644Z</time>
            </trkpt>
            <trkpt lon="100.965721" lat="12.903375">
                <ele>65.400000</ele>
                <time>2018-02-26T12:37:41.644Z</time>
            </trkpt>
            <trkpt lon="100.965677" lat="12.903386">
                <ele>65.400000</ele>
                <time>2018-02-26T12:37:42.644Z</time>
            </trkpt>
            <trkpt lon="100.965629" lat="12.903406">
                <ele>65.400000</ele>
                <time>2018-02-26T12:37:43.644Z</time>
            </trkpt>
            <trkpt lon="100.965583" lat="12.903422">
                <ele>65.400000</ele>
                <time>2018-02-26T12:37:44.644Z</time>
            </trkpt>
            <trkpt lon="100.965540" lat="12.903428">
                <ele>65.300000</ele>
                <time>2018-02-26T12:37:45.644Z</time>
            </trkpt>
            <trkpt lon="100.965493" lat="12.903432">
                <ele>65.200000</ele>
                <time>2018-02-26T12:37:46.644Z</time>
            </trkpt>
            <trkpt lon="100.965448" lat="12.903426">
                <ele>65.300000</ele>
                <time>2018-02-26T12:37:47.644Z</time>
            </trkpt>
            <trkpt lon="100.965401" lat="12.903426">
                <ele>65.000000</ele>
                <time>2018-02-26T12:37:48.644Z</time>
            </trkpt>
            <trkpt lon="100.965354" lat="12.903423">
                <ele>64.800000</ele>
                <time>2018-02-26T12:37:49.644Z</time>
            </trkpt>
            <trkpt lon="100.965305" lat="12.903424">
                <ele>64.500000</ele>
                <time>2018-02-26T12:37:50.644Z</time>
            </trkpt>
            <trkpt lon="100.965259" lat="12.903425">
                <ele>64.200000</ele>
                <time>2018-02-26T12:37:51.644Z</time>
            </trkpt>
            <trkpt lon="100.965213" lat="12.903429">
                <ele>63.700000</ele>
                <time>2018-02-26T12:37:52.644Z</time>
            </trkpt>
            <trkpt lon="100.965183" lat="12.903455">
                <ele>63.600000</ele>
                <time>2018-02-26T12:37:53.644Z</time>
            </trkpt>
            <trkpt lon="100.965171" lat="12.903482">
                <ele>63.400000</ele>
                <time>2018-02-26T12:37:54.644Z</time>
            </trkpt>
            <trkpt lon="100.965161" lat="12.903509">
                <ele>63.100000</ele>
                <time>2018-02-26T12:37:55.644Z</time>
            </trkpt>
            <trkpt lon="100.965151" lat="12.903540">
                <ele>62.900000</ele>
                <time>2018-02-26T12:37:56.644Z</time>
            </trkpt>
            <trkpt lon="100.965124" lat="12.903560">
                <ele>62.400000</ele>
                <time>2018-02-26T12:37:57.644Z</time>
            </trkpt>
            <trkpt lon="100.965066" lat="12.903546">
                <ele>62.500000</ele>
                <time>2018-02-26T12:37:59.644Z</time>
            </trkpt>
            <trkpt lon="100.965027" lat="12.903525">
                <ele>62.400000</ele>
                <time>2018-02-26T12:38:00.644Z</time>
            </trkpt>
            <trkpt lon="100.964983" lat="12.903506">
                <ele>62.400000</ele>
                <time>2018-02-26T12:38:01.644Z</time>
            </trkpt>
            <trkpt lon="100.964942" lat="12.903497">
                <ele>62.200000</ele>
                <time>2018-02-26T12:38:02.644Z</time>
            </trkpt>
            <trkpt lon="100.964894" lat="12.903495">
                <ele>62.000000</ele>
                <time>2018-02-26T12:38:03.644Z</time>
            </trkpt>
            <trkpt lon="100.964837" lat="12.903498">
                <ele>61.900000</ele>
                <time>2018-02-26T12:38:04.644Z</time>
            </trkpt>
            <trkpt lon="100.964788" lat="12.903514">
                <ele>61.900000</ele>
                <time>2018-02-26T12:38:05.644Z</time>
            </trkpt>
            <trkpt lon="100.964748" lat="12.903562">
                <ele>62.100000</ele>
                <time>2018-02-26T12:38:06.644Z</time>
            </trkpt>
            <trkpt lon="100.964737" lat="12.903604">
                <ele>62.300000</ele>
                <time>2018-02-26T12:38:07.644Z</time>
            </trkpt>
            <trkpt lon="100.964730" lat="12.903641">
                <ele>62.300000</ele>
                <time>2018-02-26T12:38:08.644Z</time>
            </trkpt>
            <trkpt lon="100.964710" lat="12.903667">
                <ele>62.300000</ele>
                <time>2018-02-26T12:38:09.644Z</time>
            </trkpt>
            <trkpt lon="100.964682" lat="12.903684">
                <ele>62.500000</ele>
                <time>2018-02-26T12:38:10.644Z</time>
            </trkpt>
            <trkpt lon="100.964627" lat="12.903685">
                <ele>62.700000</ele>
                <time>2018-02-26T12:38:12.644Z</time>
            </trkpt>
            <trkpt lon="100.964620" lat="12.903737">
                <ele>62.900000</ele>
                <time>2018-02-26T12:38:14.644Z</time>
            </trkpt>
            <trkpt lon="100.964619" lat="12.903776">
                <ele>63.100000</ele>
                <time>2018-02-26T12:38:15.644Z</time>
            </trkpt>
            <trkpt lon="100.964614" lat="12.903813">
                <ele>63.300000</ele>
                <time>2018-02-26T12:38:16.644Z</time>
            </trkpt>
            <trkpt lon="100.964613" lat="12.903849">
                <ele>63.600000</ele>
                <time>2018-02-26T12:38:17.644Z</time>
            </trkpt>
            <trkpt lon="100.964612" lat="12.903886">
                <ele>63.800000</ele>
                <time>2018-02-26T12:38:18.644Z</time>
            </trkpt>
            <trkpt lon="100.964614" lat="12.903920">
                <ele>63.800000</ele>
                <time>2018-02-26T12:38:19.644Z</time>
            </trkpt>
            <trkpt lon="100.964617" lat="12.903957">
                <ele>64.000000</ele>
                <time>2018-02-26T12:38:20.644Z</time>
            </trkpt>
            <trkpt lon="100.964635" lat="12.903994">
                <ele>63.900000</ele>
                <time>2018-02-26T12:38:21.644Z</time>
            </trkpt>
            <trkpt lon="100.964673" lat="12.904014">
                <ele>63.700000</ele>
                <time>2018-02-26T12:38:22.644Z</time>
            </trkpt>
            <trkpt lon="100.964706" lat="12.904033">
                <ele>63.400000</ele>
                <time>2018-02-26T12:38:23.644Z</time>
            </trkpt>
            <trkpt lon="100.964742" lat="12.904050">
                <ele>63.200000</ele>
                <time>2018-02-26T12:38:24.644Z</time>
            </trkpt>
            <trkpt lon="100.964777" lat="12.904062">
                <ele>63.200000</ele>
                <time>2018-02-26T12:38:25.644Z</time>
            </trkpt>
            <trkpt lon="100.964811" lat="12.904069">
                <ele>62.900000</ele>
                <time>2018-02-26T12:38:26.644Z</time>
            </trkpt>
            <trkpt lon="100.964852" lat="12.904083">
                <ele>62.700000</ele>
                <time>2018-02-26T12:38:28.644Z</time>
            </trkpt>
            <trkpt lon="100.964894" lat="12.904106">
                <ele>62.400000</ele>
                <time>2018-02-26T12:38:30.644Z</time>
            </trkpt>
            <trkpt lon="100.964940" lat="12.904121">
                <ele>62.100000</ele>
                <time>2018-02-26T12:38:32.644Z</time>
            </trkpt>
            <trkpt lon="100.964982" lat="12.904111">
                <ele>62.100000</ele>
                <time>2018-02-26T12:38:34.644Z</time>
            </trkpt>
            <trkpt lon="100.965024" lat="12.904084">
                <ele>62.100000</ele>
                <time>2018-02-26T12:38:36.644Z</time>
            </trkpt>
            <trkpt lon="100.965076" lat="12.904062">
                <ele>62.100000</ele>
                <time>2018-02-26T12:38:38.644Z</time>
            </trkpt>
            <trkpt lon="100.965107" lat="12.904056">
                <ele>62.100000</ele>
                <time>2018-02-26T12:38:39.644Z</time>
            </trkpt>
            <trkpt lon="100.965163" lat="12.904049">
                <ele>62.100000</ele>
                <time>2018-02-26T12:38:41.644Z</time>
            </trkpt>
            <trkpt lon="100.965204" lat="12.904059">
                <ele>62.100000</ele>
                <time>2018-02-26T12:38:43.644Z</time>
            </trkpt>
            <trkpt lon="100.965248" lat="12.904079">
                <ele>62.000000</ele>
                <time>2018-02-26T12:38:45.644Z</time>
            </trkpt>
            <trkpt lon="100.965300" lat="12.904103">
                <ele>62.200000</ele>
                <time>2018-02-26T12:38:47.644Z</time>
            </trkpt>
            <trkpt lon="100.965341" lat="12.904126">
                <ele>62.200000</ele>
                <time>2018-02-26T12:38:48.644Z</time>
            </trkpt>
            <trkpt lon="100.965371" lat="12.904144">
                <ele>62.500000</ele>
                <time>2018-02-26T12:38:49.644Z</time>
            </trkpt>
            <trkpt lon="100.965405" lat="12.904156">
                <ele>62.700000</ele>
                <time>2018-02-26T12:38:50.644Z</time>
            </trkpt>
            <trkpt lon="100.965434" lat="12.904155">
                <ele>62.900000</ele>
                <time>2018-02-26T12:38:51.644Z</time>
            </trkpt>
            <trkpt lon="100.965466" lat="12.904148">
                <ele>62.900000</ele>
                <time>2018-02-26T12:38:52.644Z</time>
            </trkpt>
            <trkpt lon="100.965496" lat="12.904138">
                <ele>63.200000</ele>
                <time>2018-02-26T12:38:53.644Z</time>
            </trkpt>
            <trkpt lon="100.965523" lat="12.904124">
                <ele>63.400000</ele>
                <time>2018-02-26T12:38:54.644Z</time>
            </trkpt>
            <trkpt lon="100.965545" lat="12.904102">
                <ele>63.400000</ele>
                <time>2018-02-26T12:38:55.644Z</time>
            </trkpt>
            <trkpt lon="100.965552" lat="12.904073">
                <ele>63.300000</ele>
                <time>2018-02-26T12:38:56.644Z</time>
            </trkpt>
            <trkpt lon="100.965533" lat="12.904049">
                <ele>63.200000</ele>
                <time>2018-02-26T12:38:59.644Z</time>
            </trkpt>
            <trkpt lon="100.965486" lat="12.904039">
                <ele>62.800000</ele>
                <time>2018-02-26T12:39:01.644Z</time>
            </trkpt>
            <trkpt lon="100.965462" lat="12.904024">
                <ele>62.500000</ele>
                <time>2018-02-26T12:39:02.644Z</time>
            </trkpt>
            <trkpt lon="100.965432" lat="12.903985">
                <ele>62.300000</ele>
                <time>2018-02-26T12:39:04.644Z</time>
            </trkpt>
            <trkpt lon="100.965415" lat="12.903949">
                <ele>62.000000</ele>
                <time>2018-02-26T12:39:06.644Z</time>
            </trkpt>
            <trkpt lon="100.965399" lat="12.903893">
                <ele>62.000000</ele>
                <time>2018-02-26T12:39:08.644Z</time>
            </trkpt>
            <trkpt lon="100.965404" lat="12.903859">
                <ele>62.200000</ele>
                <time>2018-02-26T12:39:09.644Z</time>
            </trkpt>
            <trkpt lon="100.965424" lat="12.903828">
                <ele>62.400000</ele>
                <time>2018-02-26T12:39:10.644Z</time>
            </trkpt>
            <trkpt lon="100.965445" lat="12.903803">
                <ele>62.800000</ele>
                <time>2018-02-26T12:39:11.644Z</time>
            </trkpt>
            <trkpt lon="100.965462" lat="12.903775">
                <ele>62.800000</ele>
                <time>2018-02-26T12:39:12.644Z</time>
            </trkpt>
            <trkpt lon="100.965487" lat="12.903748">
                <ele>63.200000</ele>
                <time>2018-02-26T12:39:13.644Z</time>
            </trkpt>
            <trkpt lon="100.965511" lat="12.903719">
                <ele>63.400000</ele>
                <time>2018-02-26T12:39:14.644Z</time>
            </trkpt>
            <trkpt lon="100.965533" lat="12.903684">
                <ele>63.600000</ele>
                <time>2018-02-26T12:39:15.644Z</time>
            </trkpt>
            <trkpt lon="100.965550" lat="12.903653">
                <ele>63.700000</ele>
                <time>2018-02-26T12:39:16.644Z</time>
            </trkpt>
            <trkpt lon="100.965574" lat="12.903635">
                <ele>63.900000</ele>
                <time>2018-02-26T12:39:17.644Z</time>
            </trkpt>
            <trkpt lon="100.965601" lat="12.903629">
                <ele>63.900000</ele>
                <time>2018-02-26T12:39:18.644Z</time>
            </trkpt>
            <trkpt lon="100.965654" lat="12.903638">
                <ele>64.100000</ele>
                <time>2018-02-26T12:39:20.644Z</time>
            </trkpt>
            <trkpt lon="100.965681" lat="12.903646">
                <ele>64.100000</ele>
                <time>2018-02-26T12:39:21.644Z</time>
            </trkpt>
            <trkpt lon="100.965708" lat="12.903666">
                <ele>64.300000</ele>
                <time>2018-02-26T12:39:22.644Z</time>
            </trkpt>
            <trkpt lon="100.965732" lat="12.903689">
                <ele>64.500000</ele>
                <time>2018-02-26T12:39:23.644Z</time>
            </trkpt>
            <trkpt lon="100.965744" lat="12.903720">
                <ele>64.500000</ele>
                <time>2018-02-26T12:39:24.644Z</time>
            </trkpt>
            <trkpt lon="100.965754" lat="12.903753">
                <ele>64.500000</ele>
                <time>2018-02-26T12:39:25.644Z</time>
            </trkpt>
            <trkpt lon="100.965762" lat="12.903784">
                <ele>64.500000</ele>
                <time>2018-02-26T12:39:26.644Z</time>
            </trkpt>
            <trkpt lon="100.965773" lat="12.903818">
                <ele>64.800000</ele>
                <time>2018-02-26T12:39:27.644Z</time>
            </trkpt>
            <trkpt lon="100.965788" lat="12.903854">
                <ele>64.800000</ele>
                <time>2018-02-26T12:39:28.644Z</time>
            </trkpt>
            <trkpt lon="100.965807" lat="12.903889">
                <ele>64.700000</ele>
                <time>2018-02-26T12:39:29.644Z</time>
            </trkpt>
            <trkpt lon="100.965822" lat="12.903921">
                <ele>64.800000</ele>
                <time>2018-02-26T12:39:30.644Z</time>
            </trkpt>
            <trkpt lon="100.965833" lat="12.903955">
                <ele>64.800000</ele>
                <time>2018-02-26T12:39:31.644Z</time>
            </trkpt>
            <trkpt lon="100.965824" lat="12.903991">
                <ele>64.900000</ele>
                <time>2018-02-26T12:39:32.644Z</time>
            </trkpt>
            <trkpt lon="100.965797" lat="12.904020">
                <ele>64.700000</ele>
                <time>2018-02-26T12:39:33.644Z</time>
            </trkpt>
            <trkpt lon="100.965763" lat="12.904042">
                <ele>64.500000</ele>
                <time>2018-02-26T12:39:34.644Z</time>
            </trkpt>
            <trkpt lon="100.965721" lat="12.904060">
                <ele>64.200000</ele>
                <time>2018-02-26T12:39:35.644Z</time>
            </trkpt>
            <trkpt lon="100.965683" lat="12.904079">
                <ele>64.000000</ele>
                <time>2018-02-26T12:39:36.644Z</time>
            </trkpt>
            <trkpt lon="100.965652" lat="12.904097">
                <ele>64.000000</ele>
                <time>2018-02-26T12:39:37.644Z</time>
            </trkpt>
            <trkpt lon="100.965643" lat="12.904125">
                <ele>63.900000</ele>
                <time>2018-02-26T12:39:38.644Z</time>
            </trkpt>
            <trkpt lon="100.965638" lat="12.904159">
                <ele>63.700000</ele>
                <time>2018-02-26T12:39:39.644Z</time>
            </trkpt>
            <trkpt lon="100.965629" lat="12.904194">
                <ele>63.700000</ele>
                <time>2018-02-26T12:39:40.644Z</time>
            </trkpt>
            <trkpt lon="100.965600" lat="12.904234">
                <ele>63.400000</ele>
                <time>2018-02-26T12:39:42.644Z</time>
            </trkpt>
            <trkpt lon="100.965578" lat="12.904252">
                <ele>63.400000</ele>
                <time>2018-02-26T12:39:43.644Z</time>
            </trkpt>
            <trkpt lon="100.965548" lat="12.904265">
                <ele>63.200000</ele>
                <time>2018-02-26T12:39:44.644Z</time>
            </trkpt>
            <trkpt lon="100.965505" lat="12.904265">
                <ele>62.900000</ele>
                <time>2018-02-26T12:39:45.644Z</time>
            </trkpt>
            <trkpt lon="100.965462" lat="12.904267">
                <ele>62.600000</ele>
                <time>2018-02-26T12:39:46.644Z</time>
            </trkpt>
            <trkpt lon="100.965421" lat="12.904260">
                <ele>62.400000</ele>
                <time>2018-02-26T12:39:47.644Z</time>
            </trkpt>
            <trkpt lon="100.965388" lat="12.904241">
                <ele>62.400000</ele>
                <time>2018-02-26T12:39:48.644Z</time>
            </trkpt>
            <trkpt lon="100.965368" lat="12.904216">
                <ele>62.100000</ele>
                <time>2018-02-26T12:39:49.644Z</time>
            </trkpt>
            <trkpt lon="100.965346" lat="12.904188">
                <ele>62.100000</ele>
                <time>2018-02-26T12:39:50.644Z</time>
            </trkpt>
            <trkpt lon="100.965326" lat="12.904162">
                <ele>61.900000</ele>
                <time>2018-02-26T12:39:51.644Z</time>
            </trkpt>
            <trkpt lon="100.965306" lat="12.904136">
                <ele>61.900000</ele>
                <time>2018-02-26T12:39:52.644Z</time>
            </trkpt>
            <trkpt lon="100.965254" lat="12.904117">
                <ele>61.700000</ele>
                <time>2018-02-26T12:39:54.644Z</time>
            </trkpt>
            <trkpt lon="100.965226" lat="12.904111">
                <ele>61.700000</ele>
                <time>2018-02-26T12:39:55.644Z</time>
            </trkpt>
            <trkpt lon="100.965179" lat="12.904121">
                <ele>61.700000</ele>
                <time>2018-02-26T12:39:57.644Z</time>
            </trkpt>
            <trkpt lon="100.965160" lat="12.904145">
                <ele>61.700000</ele>
                <time>2018-02-26T12:39:58.644Z</time>
            </trkpt>
            <trkpt lon="100.965139" lat="12.904175">
                <ele>61.600000</ele>
                <time>2018-02-26T12:39:59.644Z</time>
            </trkpt>
            <trkpt lon="100.965111" lat="12.904205">
                <ele>61.600000</ele>
                <time>2018-02-26T12:40:00.644Z</time>
            </trkpt>
            <trkpt lon="100.965076" lat="12.904220">
                <ele>61.600000</ele>
                <time>2018-02-26T12:40:01.644Z</time>
            </trkpt>
            <trkpt lon="100.965047" lat="12.904211">
                <ele>61.600000</ele>
                <time>2018-02-26T12:40:02.644Z</time>
            </trkpt>
            <trkpt lon="100.965005" lat="12.904217">
                <ele>61.600000</ele>
                <time>2018-02-26T12:40:03.644Z</time>
            </trkpt>
            <trkpt lon="100.964965" lat="12.904237">
                <ele>61.600000</ele>
                <time>2018-02-26T12:40:04.644Z</time>
            </trkpt>
            <trkpt lon="100.964929" lat="12.904268">
                <ele>61.800000</ele>
                <time>2018-02-26T12:40:05.644Z</time>
            </trkpt>
            <trkpt lon="100.964892" lat="12.904297">
                <ele>62.000000</ele>
                <time>2018-02-26T12:40:06.644Z</time>
            </trkpt>
            <trkpt lon="100.964860" lat="12.904325">
                <ele>62.300000</ele>
                <time>2018-02-26T12:40:07.644Z</time>
            </trkpt>
            <trkpt lon="100.964835" lat="12.904355">
                <ele>62.400000</ele>
                <time>2018-02-26T12:40:08.644Z</time>
            </trkpt>
            <trkpt lon="100.964806" lat="12.904390">
                <ele>62.500000</ele>
                <time>2018-02-26T12:40:09.644Z</time>
            </trkpt>
            <trkpt lon="100.964763" lat="12.904421">
                <ele>62.600000</ele>
                <time>2018-02-26T12:40:10.644Z</time>
            </trkpt>
            <trkpt lon="100.964727" lat="12.904448">
                <ele>62.600000</ele>
                <time>2018-02-26T12:40:11.644Z</time>
            </trkpt>
            <trkpt lon="100.964706" lat="12.904477">
                <ele>62.600000</ele>
                <time>2018-02-26T12:40:12.644Z</time>
            </trkpt>
            <trkpt lon="100.964695" lat="12.904502">
                <ele>62.600000</ele>
                <time>2018-02-26T12:40:13.644Z</time>
            </trkpt>
            <trkpt lon="100.964676" lat="12.904538">
                <ele>62.600000</ele>
                <time>2018-02-26T12:40:15.644Z</time>
            </trkpt>
            <trkpt lon="100.964665" lat="12.904578">
                <ele>62.500000</ele>
                <time>2018-02-26T12:40:17.644Z</time>
            </trkpt>
            <trkpt lon="100.964656" lat="12.904612">
                <ele>62.500000</ele>
                <time>2018-02-26T12:40:19.644Z</time>
            </trkpt>
            <trkpt lon="100.964638" lat="12.904637">
                <ele>62.500000</ele>
                <time>2018-02-26T12:40:21.644Z</time>
            </trkpt>
            <trkpt lon="100.964621" lat="12.904673">
                <ele>62.200000</ele>
                <time>2018-02-26T12:40:23.644Z</time>
            </trkpt>
            <trkpt lon="100.964599" lat="12.904695">
                <ele>61.900000</ele>
                <time>2018-02-26T12:40:25.644Z</time>
            </trkpt>
            <trkpt lon="100.964625" lat="12.904706">
                <ele>62.000000</ele>
                <time>2018-02-26T12:40:47.644Z</time>
            </trkpt>
            <trkpt lon="100.964655" lat="12.904729">
                <ele>61.800000</ele>
                <time>2018-02-26T12:40:49.644Z</time>
            </trkpt>
            <trkpt lon="100.964697" lat="12.904743">
                <ele>62.000000</ele>
                <time>2018-02-26T12:40:51.644Z</time>
            </trkpt>
            <trkpt lon="100.964739" lat="12.904766">
                <ele>62.200000</ele>
                <time>2018-02-26T12:40:53.644Z</time>
            </trkpt>
            <trkpt lon="100.964785" lat="12.904787">
                <ele>62.500000</ele>
                <time>2018-02-26T12:40:55.644Z</time>
            </trkpt>
            <trkpt lon="100.964829" lat="12.904796">
                <ele>62.500000</ele>
                <time>2018-02-26T12:40:57.644Z</time>
            </trkpt>
            <trkpt lon="100.964882" lat="12.904802">
                <ele>62.500000</ele>
                <time>2018-02-26T12:40:59.644Z</time>
            </trkpt>
            <trkpt lon="100.964911" lat="12.904807">
                <ele>62.500000</ele>
                <time>2018-02-26T12:41:00.644Z</time>
            </trkpt>
            <trkpt lon="100.964964" lat="12.904815">
                <ele>62.500000</ele>
                <time>2018-02-26T12:41:02.644Z</time>
            </trkpt>
            <trkpt lon="100.964996" lat="12.904822">
                <ele>62.500000</ele>
                <time>2018-02-26T12:41:03.644Z</time>
            </trkpt>
            <trkpt lon="100.965032" lat="12.904841">
                <ele>62.500000</ele>
                <time>2018-02-26T12:41:04.644Z</time>
            </trkpt>
            <trkpt lon="100.965060" lat="12.904868">
                <ele>62.400000</ele>
                <time>2018-02-26T12:41:05.644Z</time>
            </trkpt>
            <trkpt lon="100.965083" lat="12.904892">
                <ele>62.400000</ele>
                <time>2018-02-26T12:41:06.644Z</time>
            </trkpt>
            <trkpt lon="100.965109" lat="12.904922">
                <ele>62.400000</ele>
                <time>2018-02-26T12:41:07.644Z</time>
            </trkpt>
            <trkpt lon="100.965138" lat="12.904949">
                <ele>62.100000</ele>
                <time>2018-02-26T12:41:08.644Z</time>
            </trkpt>
            <trkpt lon="100.965167" lat="12.904971">
                <ele>62.100000</ele>
                <time>2018-02-26T12:41:09.644Z</time>
            </trkpt>
            <trkpt lon="100.965198" lat="12.904991">
                <ele>61.600000</ele>
                <time>2018-02-26T12:41:10.644Z</time>
            </trkpt>
            <trkpt lon="100.965232" lat="12.905000">
                <ele>61.400000</ele>
                <time>2018-02-26T12:41:11.644Z</time>
            </trkpt>
            <trkpt lon="100.965271" lat="12.905004">
                <ele>61.100000</ele>
                <time>2018-02-26T12:41:12.644Z</time>
            </trkpt>
            <trkpt lon="100.965310" lat="12.905003">
                <ele>61.100000</ele>
                <time>2018-02-26T12:41:13.644Z</time>
            </trkpt>
            <trkpt lon="100.965359" lat="12.904998">
                <ele>61.000000</ele>
                <time>2018-02-26T12:41:14.644Z</time>
            </trkpt>
            <trkpt lon="100.965413" lat="12.905001">
                <ele>61.000000</ele>
                <time>2018-02-26T12:41:15.644Z</time>
            </trkpt>
            <trkpt lon="100.965473" lat="12.905008">
                <ele>61.200000</ele>
                <time>2018-02-26T12:41:16.644Z</time>
            </trkpt>
            <trkpt lon="100.965520" lat="12.905016">
                <ele>61.500000</ele>
                <time>2018-02-26T12:41:17.644Z</time>
            </trkpt>
            <trkpt lon="100.965564" lat="12.905025">
                <ele>61.500000</ele>
                <time>2018-02-26T12:41:18.644Z</time>
            </trkpt>
            <trkpt lon="100.965605" lat="12.905036">
                <ele>61.700000</ele>
                <time>2018-02-26T12:41:19.644Z</time>
            </trkpt>
            <trkpt lon="100.965644" lat="12.905046">
                <ele>61.800000</ele>
                <time>2018-02-26T12:41:20.644Z</time>
            </trkpt>
            <trkpt lon="100.965686" lat="12.905058">
                <ele>61.800000</ele>
                <time>2018-02-26T12:41:21.644Z</time>
            </trkpt>
            <trkpt lon="100.965725" lat="12.905069">
                <ele>61.500000</ele>
                <time>2018-02-26T12:41:22.644Z</time>
            </trkpt>
            <trkpt lon="100.965753" lat="12.905079">
                <ele>61.500000</ele>
                <time>2018-02-26T12:41:23.644Z</time>
            </trkpt>
            <trkpt lon="100.965781" lat="12.905088">
                <ele>61.500000</ele>
                <time>2018-02-26T12:41:24.644Z</time>
            </trkpt>
            <trkpt lon="100.965807" lat="12.905098">
                <ele>61.500000</ele>
                <time>2018-02-26T12:41:25.644Z</time>
            </trkpt>
            <trkpt lon="100.965837" lat="12.905113">
                <ele>61.500000</ele>
                <time>2018-02-26T12:41:26.644Z</time>
            </trkpt>
            <trkpt lon="100.965863" lat="12.905125">
                <ele>61.700000</ele>
                <time>2018-02-26T12:41:27.644Z</time>
            </trkpt>
            <trkpt lon="100.965888" lat="12.905136">
                <ele>61.700000</ele>
                <time>2018-02-26T12:41:28.644Z</time>
            </trkpt>
            <trkpt lon="100.965931" lat="12.905156">
                <ele>62.000000</ele>
                <time>2018-02-26T12:41:30.644Z</time>
            </trkpt>
            <trkpt lon="100.965957" lat="12.905170">
                <ele>62.200000</ele>
                <time>2018-02-26T12:41:31.644Z</time>
            </trkpt>
            <trkpt lon="100.966002" lat="12.905198">
                <ele>62.400000</ele>
                <time>2018-02-26T12:41:33.644Z</time>
            </trkpt>
            <trkpt lon="100.966027" lat="12.905215">
                <ele>62.400000</ele>
                <time>2018-02-26T12:41:34.644Z</time>
            </trkpt>
            <trkpt lon="100.966054" lat="12.905227">
                <ele>62.600000</ele>
                <time>2018-02-26T12:41:35.644Z</time>
            </trkpt>
            <trkpt lon="100.966083" lat="12.905232">
                <ele>62.500000</ele>
                <time>2018-02-26T12:41:36.644Z</time>
            </trkpt>
            <trkpt lon="100.966113" lat="12.905233">
                <ele>62.500000</ele>
                <time>2018-02-26T12:41:37.644Z</time>
            </trkpt>
            <trkpt lon="100.966146" lat="12.905236">
                <ele>62.500000</ele>
                <time>2018-02-26T12:41:38.644Z</time>
            </trkpt>
            <trkpt lon="100.966185" lat="12.905243">
                <ele>62.900000</ele>
                <time>2018-02-26T12:41:39.644Z</time>
            </trkpt>
            <trkpt lon="100.966228" lat="12.905249">
                <ele>63.300000</ele>
                <time>2018-02-26T12:41:40.644Z</time>
            </trkpt>
            <trkpt lon="100.966275" lat="12.905247">
                <ele>63.800000</ele>
                <time>2018-02-26T12:41:41.644Z</time>
            </trkpt>
            <trkpt lon="100.966318" lat="12.905244">
                <ele>64.200000</ele>
                <time>2018-02-26T12:41:42.644Z</time>
            </trkpt>
            <trkpt lon="100.966363" lat="12.905245">
                <ele>64.600000</ele>
                <time>2018-02-26T12:41:43.644Z</time>
            </trkpt>
            <trkpt lon="100.966403" lat="12.905246">
                <ele>64.800000</ele>
                <time>2018-02-26T12:41:44.644Z</time>
            </trkpt>
            <trkpt lon="100.966445" lat="12.905246">
                <ele>65.000000</ele>
                <time>2018-02-26T12:41:45.644Z</time>
            </trkpt>
            <trkpt lon="100.966491" lat="12.905245">
                <ele>65.300000</ele>
                <time>2018-02-26T12:41:46.644Z</time>
            </trkpt>
            <trkpt lon="100.966538" lat="12.905243">
                <ele>65.500000</ele>
                <time>2018-02-26T12:41:47.644Z</time>
            </trkpt>
            <trkpt lon="100.966588" lat="12.905241">
                <ele>66.000000</ele>
                <time>2018-02-26T12:41:48.644Z</time>
            </trkpt>
            <trkpt lon="100.966641" lat="12.905241">
                <ele>66.300000</ele>
                <time>2018-02-26T12:41:49.644Z</time>
            </trkpt>
            <trkpt lon="100.966693" lat="12.905247">
                <ele>66.600000</ele>
                <time>2018-02-26T12:41:50.644Z</time>
            </trkpt>
            <trkpt lon="100.966747" lat="12.905247">
                <ele>67.100000</ele>
                <time>2018-02-26T12:41:51.644Z</time>
            </trkpt>
            <trkpt lon="100.966797" lat="12.905244">
                <ele>67.500000</ele>
                <time>2018-02-26T12:41:52.644Z</time>
            </trkpt>
            <trkpt lon="100.966848" lat="12.905245">
                <ele>68.200000</ele>
                <time>2018-02-26T12:41:53.644Z</time>
            </trkpt>
            <trkpt lon="100.966899" lat="12.905244">
                <ele>68.100000</ele>
                <time>2018-02-26T12:41:54.644Z</time>
            </trkpt>
            <trkpt lon="100.966948" lat="12.905249">
                <ele>68.100000</ele>
                <time>2018-02-26T12:41:55.644Z</time>
            </trkpt>
            <trkpt lon="100.966993" lat="12.905254">
                <ele>68.100000</ele>
                <time>2018-02-26T12:41:56.644Z</time>
            </trkpt>
            <trkpt lon="100.967041" lat="12.905259">
                <ele>68.000000</ele>
                <time>2018-02-26T12:41:57.644Z</time>
            </trkpt>
            <trkpt lon="100.967090" lat="12.905262">
                <ele>67.800000</ele>
                <time>2018-02-26T12:41:58.644Z</time>
            </trkpt>
            <trkpt lon="100.967132" lat="12.905261">
                <ele>67.600000</ele>
                <time>2018-02-26T12:41:59.644Z</time>
            </trkpt>
            <trkpt lon="100.967179" lat="12.905261">
                <ele>67.300000</ele>
                <time>2018-02-26T12:42:00.644Z</time>
            </trkpt>
            <trkpt lon="100.967231" lat="12.905260">
                <ele>66.900000</ele>
                <time>2018-02-26T12:42:01.644Z</time>
            </trkpt>
            <trkpt lon="100.967282" lat="12.905259">
                <ele>66.600000</ele>
                <time>2018-02-26T12:42:02.644Z</time>
            </trkpt>
            <trkpt lon="100.967338" lat="12.905261">
                <ele>66.300000</ele>
                <time>2018-02-26T12:42:03.644Z</time>
            </trkpt>
            <trkpt lon="100.967393" lat="12.905261">
                <ele>66.200000</ele>
                <time>2018-02-26T12:42:04.644Z</time>
            </trkpt>
            <trkpt lon="100.967447" lat="12.905262">
                <ele>66.100000</ele>
                <time>2018-02-26T12:42:05.644Z</time>
            </trkpt>
            <trkpt lon="100.967503" lat="12.905260">
                <ele>66.100000</ele>
                <time>2018-02-26T12:42:06.644Z</time>
            </trkpt>
            <trkpt lon="100.967555" lat="12.905259">
                <ele>66.200000</ele>
                <time>2018-02-26T12:42:07.644Z</time>
            </trkpt>
            <trkpt lon="100.967607" lat="12.905256">
                <ele>66.500000</ele>
                <time>2018-02-26T12:42:08.644Z</time>
            </trkpt>
            <trkpt lon="100.967660" lat="12.905254">
                <ele>67.000000</ele>
                <time>2018-02-26T12:42:09.644Z</time>
            </trkpt>
            <trkpt lon="100.967717" lat="12.905253">
                <ele>67.100000</ele>
                <time>2018-02-26T12:42:10.644Z</time>
            </trkpt>
            <trkpt lon="100.967775" lat="12.905249">
                <ele>67.100000</ele>
                <time>2018-02-26T12:42:11.644Z</time>
            </trkpt>
            <trkpt lon="100.967834" lat="12.905245">
                <ele>67.200000</ele>
                <time>2018-02-26T12:42:12.644Z</time>
            </trkpt>
            <trkpt lon="100.967891" lat="12.905241">
                <ele>67.400000</ele>
                <time>2018-02-26T12:42:13.644Z</time>
            </trkpt>
            <trkpt lon="100.967947" lat="12.905239">
                <ele>67.600000</ele>
                <time>2018-02-26T12:42:14.644Z</time>
            </trkpt>
            <trkpt lon="100.967998" lat="12.905242">
                <ele>67.900000</ele>
                <time>2018-02-26T12:42:15.644Z</time>
            </trkpt>
            <trkpt lon="100.968047" lat="12.905243">
                <ele>68.500000</ele>
                <time>2018-02-26T12:42:16.644Z</time>
            </trkpt>
            <trkpt lon="100.968092" lat="12.905245">
                <ele>68.700000</ele>
                <time>2018-02-26T12:42:17.644Z</time>
            </trkpt>
            <trkpt lon="100.968143" lat="12.905245">
                <ele>68.900000</ele>
                <time>2018-02-26T12:42:18.644Z</time>
            </trkpt>
            <trkpt lon="100.968194" lat="12.905250">
                <ele>69.100000</ele>
                <time>2018-02-26T12:42:19.644Z</time>
            </trkpt>
            <trkpt lon="100.968245" lat="12.905249">
                <ele>69.100000</ele>
                <time>2018-02-26T12:42:20.644Z</time>
            </trkpt>
            <trkpt lon="100.968296" lat="12.905249">
                <ele>69.100000</ele>
                <time>2018-02-26T12:42:21.644Z</time>
            </trkpt>
            <trkpt lon="100.968345" lat="12.905246">
                <ele>69.100000</ele>
                <time>2018-02-26T12:42:22.644Z</time>
            </trkpt>
            <trkpt lon="100.968398" lat="12.905239">
                <ele>69.100000</ele>
                <time>2018-02-26T12:42:23.644Z</time>
            </trkpt>
            <trkpt lon="100.968453" lat="12.905235">
                <ele>69.100000</ele>
                <time>2018-02-26T12:42:24.644Z</time>
            </trkpt>
            <trkpt lon="100.968509" lat="12.905234">
                <ele>69.100000</ele>
                <time>2018-02-26T12:42:25.644Z</time>
            </trkpt>
            <trkpt lon="100.968564" lat="12.905235">
                <ele>69.000000</ele>
                <time>2018-02-26T12:42:26.644Z</time>
            </trkpt>
            <trkpt lon="100.968623" lat="12.905232">
                <ele>68.700000</ele>
                <time>2018-02-26T12:42:27.644Z</time>
            </trkpt>
            <trkpt lon="100.968677" lat="12.905219">
                <ele>68.700000</ele>
                <time>2018-02-26T12:42:28.644Z</time>
            </trkpt>
            <trkpt lon="100.968723" lat="12.905204">
                <ele>68.400000</ele>
                <time>2018-02-26T12:42:29.644Z</time>
            </trkpt>
            <trkpt lon="100.968767" lat="12.905174">
                <ele>68.600000</ele>
                <time>2018-02-26T12:42:30.644Z</time>
            </trkpt>
            <trkpt lon="100.968804" lat="12.905137">
                <ele>68.800000</ele>
                <time>2018-02-26T12:42:31.644Z</time>
            </trkpt>
            <trkpt lon="100.968843" lat="12.905101">
                <ele>68.900000</ele>
                <time>2018-02-26T12:42:32.644Z</time>
            </trkpt>
            <trkpt lon="100.968882" lat="12.905068">
                <ele>68.900000</ele>
                <time>2018-02-26T12:42:33.644Z</time>
            </trkpt>
            <trkpt lon="100.968924" lat="12.905042">
                <ele>69.000000</ele>
                <time>2018-02-26T12:42:34.644Z</time>
            </trkpt>
            <trkpt lon="100.968961" lat="12.905021">
                <ele>69.000000</ele>
                <time>2018-02-26T12:42:35.644Z</time>
            </trkpt>
            <trkpt lon="100.969003" lat="12.905003">
                <ele>69.300000</ele>
                <time>2018-02-26T12:42:36.644Z</time>
            </trkpt>
            <trkpt lon="100.969044" lat="12.904988">
                <ele>69.500000</ele>
                <time>2018-02-26T12:42:37.644Z</time>
            </trkpt>
            <trkpt lon="100.969084" lat="12.904976">
                <ele>69.900000</ele>
                <time>2018-02-26T12:42:38.644Z</time>
            </trkpt>
            <trkpt lon="100.969121" lat="12.904965">
                <ele>70.200000</ele>
                <time>2018-02-26T12:42:39.644Z</time>
            </trkpt>
            <trkpt lon="100.969150" lat="12.904953">
                <ele>70.100000</ele>
                <time>2018-02-26T12:42:40.644Z</time>
            </trkpt>
            <trkpt lon="100.969186" lat="12.904944">
                <ele>70.400000</ele>
                <time>2018-02-26T12:42:41.644Z</time>
            </trkpt>
            <trkpt lon="100.969225" lat="12.904937">
                <ele>70.600000</ele>
                <time>2018-02-26T12:42:42.644Z</time>
            </trkpt>
            <trkpt lon="100.969267" lat="12.904925">
                <ele>70.700000</ele>
                <time>2018-02-26T12:42:43.644Z</time>
            </trkpt>
            <trkpt lon="100.969304" lat="12.904908">
                <ele>70.700000</ele>
                <time>2018-02-26T12:42:44.644Z</time>
            </trkpt>
            <trkpt lon="100.969340" lat="12.904893">
                <ele>70.700000</ele>
                <time>2018-02-26T12:42:45.644Z</time>
            </trkpt>
            <trkpt lon="100.969373" lat="12.904885">
                <ele>70.700000</ele>
                <time>2018-02-26T12:42:46.644Z</time>
            </trkpt>
            <trkpt lon="100.969420" lat="12.904890">
                <ele>70.700000</ele>
                <time>2018-02-26T12:42:49.644Z</time>
            </trkpt>
            <trkpt lon="100.969447" lat="12.904902">
                <ele>70.700000</ele>
                <time>2018-02-26T12:42:50.644Z</time>
            </trkpt>
            <trkpt lon="100.969475" lat="12.904914">
                <ele>70.800000</ele>
                <time>2018-02-26T12:42:51.644Z</time>
            </trkpt>
            <trkpt lon="100.969523" lat="12.904936">
                <ele>70.800000</ele>
                <time>2018-02-26T12:42:53.644Z</time>
            </trkpt>
            <trkpt lon="100.969548" lat="12.904963">
                <ele>70.800000</ele>
                <time>2018-02-26T12:42:55.644Z</time>
            </trkpt>
            <trkpt lon="100.969570" lat="12.904998">
                <ele>70.900000</ele>
                <time>2018-02-26T12:42:57.644Z</time>
            </trkpt>
            <trkpt lon="100.969595" lat="12.905044">
                <ele>70.900000</ele>
                <time>2018-02-26T12:42:59.644Z</time>
            </trkpt>
            <trkpt lon="100.969623" lat="12.905095">
                <ele>71.000000</ele>
                <time>2018-02-26T12:43:01.644Z</time>
            </trkpt>
            <trkpt lon="100.969638" lat="12.905126">
                <ele>71.000000</ele>
                <time>2018-02-26T12:43:02.644Z</time>
            </trkpt>
            <trkpt lon="100.969649" lat="12.905158">
                <ele>71.000000</ele>
                <time>2018-02-26T12:43:03.644Z</time>
            </trkpt>
            <trkpt lon="100.969661" lat="12.905192">
                <ele>71.100000</ele>
                <time>2018-02-26T12:43:04.644Z</time>
            </trkpt>
            <trkpt lon="100.969673" lat="12.905227">
                <ele>71.100000</ele>
                <time>2018-02-26T12:43:05.644Z</time>
            </trkpt>
            <trkpt lon="100.969689" lat="12.905266">
                <ele>71.100000</ele>
                <time>2018-02-26T12:43:06.644Z</time>
            </trkpt>
            <trkpt lon="100.969704" lat="12.905301">
                <ele>71.200000</ele>
                <time>2018-02-26T12:43:07.644Z</time>
            </trkpt>
            <trkpt lon="100.969720" lat="12.905336">
                <ele>71.200000</ele>
                <time>2018-02-26T12:43:08.644Z</time>
            </trkpt>
            <trkpt lon="100.969732" lat="12.905365">
                <ele>71.300000</ele>
                <time>2018-02-26T12:43:09.644Z</time>
            </trkpt>
            <trkpt lon="100.969745" lat="12.905392">
                <ele>71.300000</ele>
                <time>2018-02-26T12:43:10.644Z</time>
            </trkpt>
            <trkpt lon="100.969757" lat="12.905421">
                <ele>71.300000</ele>
                <time>2018-02-26T12:43:11.644Z</time>
            </trkpt>
            <trkpt lon="100.969770" lat="12.905448">
                <ele>71.400000</ele>
                <time>2018-02-26T12:43:12.644Z</time>
            </trkpt>
            <trkpt lon="100.969782" lat="12.905479">
                <ele>71.400000</ele>
                <time>2018-02-26T12:43:13.644Z</time>
            </trkpt>
            <trkpt lon="100.969793" lat="12.905510">
                <ele>71.400000</ele>
                <time>2018-02-26T12:43:14.644Z</time>
            </trkpt>
            <trkpt lon="100.969802" lat="12.905544">
                <ele>71.500000</ele>
                <time>2018-02-26T12:43:15.644Z</time>
            </trkpt>
            <trkpt lon="100.969808" lat="12.905578">
                <ele>71.500000</ele>
                <time>2018-02-26T12:43:16.644Z</time>
            </trkpt>
            <trkpt lon="100.969807" lat="12.905615">
                <ele>71.600000</ele>
                <time>2018-02-26T12:43:17.644Z</time>
            </trkpt>
            <trkpt lon="100.969804" lat="12.905651">
                <ele>71.600000</ele>
                <time>2018-02-26T12:43:18.644Z</time>
            </trkpt>
            <trkpt lon="100.969803" lat="12.905686">
                <ele>71.700000</ele>
                <time>2018-02-26T12:43:19.644Z</time>
            </trkpt>
            <trkpt lon="100.969802" lat="12.905724">
                <ele>71.800000</ele>
                <time>2018-02-26T12:43:20.644Z</time>
            </trkpt>
            <trkpt lon="100.969799" lat="12.905757">
                <ele>71.800000</ele>
                <time>2018-02-26T12:43:21.644Z</time>
            </trkpt>
            <trkpt lon="100.969791" lat="12.905792">
                <ele>71.800000</ele>
                <time>2018-02-26T12:43:22.644Z</time>
            </trkpt>
            <trkpt lon="100.969782" lat="12.905828">
                <ele>71.900000</ele>
                <time>2018-02-26T12:43:23.644Z</time>
            </trkpt>
            <trkpt lon="100.969772" lat="12.905865">
                <ele>71.900000</ele>
                <time>2018-02-26T12:43:24.644Z</time>
            </trkpt>
            <trkpt lon="100.969760" lat="12.905903">
                <ele>71.900000</ele>
                <time>2018-02-26T12:43:25.644Z</time>
            </trkpt>
            <trkpt lon="100.969747" lat="12.905941">
                <ele>71.900000</ele>
                <time>2018-02-26T12:43:26.644Z</time>
            </trkpt>
            <trkpt lon="100.969732" lat="12.905979">
                <ele>72.000000</ele>
                <time>2018-02-26T12:43:27.644Z</time>
            </trkpt>
            <trkpt lon="100.969718" lat="12.906016">
                <ele>72.000000</ele>
                <time>2018-02-26T12:43:28.644Z</time>
            </trkpt>
            <trkpt lon="100.969704" lat="12.906052">
                <ele>72.000000</ele>
                <time>2018-02-26T12:43:29.644Z</time>
            </trkpt>
            <trkpt lon="100.969700" lat="12.906090">
                <ele>71.900000</ele>
                <time>2018-02-26T12:43:30.644Z</time>
            </trkpt>
            <trkpt lon="100.969691" lat="12.906127">
                <ele>71.900000</ele>
                <time>2018-02-26T12:43:31.644Z</time>
            </trkpt>
            <trkpt lon="100.969675" lat="12.906155">
                <ele>71.900000</ele>
                <time>2018-02-26T12:43:32.644Z</time>
            </trkpt>
            <trkpt lon="100.969659" lat="12.906180">
                <ele>71.900000</ele>
                <time>2018-02-26T12:43:33.644Z</time>
            </trkpt>
            <trkpt lon="100.969633" lat="12.906198">
                <ele>71.900000</ele>
                <time>2018-02-26T12:43:39.644Z</time>
            </trkpt>
            <trkpt lon="100.969604" lat="12.906236">
                <ele>71.900000</ele>
                <time>2018-02-26T12:43:41.644Z</time>
            </trkpt>
            <trkpt lon="100.969583" lat="12.906261">
                <ele>71.900000</ele>
                <time>2018-02-26T12:43:42.644Z</time>
            </trkpt>
            <trkpt lon="100.969562" lat="12.906285">
                <ele>71.900000</ele>
                <time>2018-02-26T12:43:43.644Z</time>
            </trkpt>
            <trkpt lon="100.969548" lat="12.906320">
                <ele>71.900000</ele>
                <time>2018-02-26T12:43:45.644Z</time>
            </trkpt>
            <trkpt lon="100.969537" lat="12.906289">
                <ele>71.900000</ele>
                <time>2018-02-26T12:43:48.644Z</time>
            </trkpt>
            <trkpt lon="100.969562" lat="12.906265">
                <ele>71.900000</ele>
                <time>2018-02-26T12:43:49.644Z</time>
            </trkpt>
            <trkpt lon="100.969573" lat="12.906227">
                <ele>71.900000</ele>
                <time>2018-02-26T12:43:50.644Z</time>
            </trkpt>
            <trkpt lon="100.969579" lat="12.906188">
                <ele>71.900000</ele>
                <time>2018-02-26T12:43:51.644Z</time>
            </trkpt>
            <trkpt lon="100.969596" lat="12.906156">
                <ele>71.900000</ele>
                <time>2018-02-26T12:43:52.644Z</time>
            </trkpt>
            <trkpt lon="100.969622" lat="12.906132">
                <ele>71.900000</ele>
                <time>2018-02-26T12:43:53.644Z</time>
            </trkpt>
            <trkpt lon="100.969645" lat="12.906109">
                <ele>71.900000</ele>
                <time>2018-02-26T12:43:54.644Z</time>
            </trkpt>
            <trkpt lon="100.969667" lat="12.906087">
                <ele>71.900000</ele>
                <time>2018-02-26T12:43:55.644Z</time>
            </trkpt>
            <trkpt lon="100.969686" lat="12.906063">
                <ele>72.000000</ele>
                <time>2018-02-26T12:43:56.644Z</time>
            </trkpt>
            <trkpt lon="100.969706" lat="12.906039">
                <ele>72.000000</ele>
                <time>2018-02-26T12:43:57.644Z</time>
            </trkpt>
            <trkpt lon="100.969735" lat="12.906013">
                <ele>72.000000</ele>
                <time>2018-02-26T12:43:59.644Z</time>
            </trkpt>
            <trkpt lon="100.969756" lat="12.905995">
                <ele>72.000000</ele>
                <time>2018-02-26T12:44:17.644Z</time>
            </trkpt>
            <trkpt lon="100.969737" lat="12.905964">
                <ele>71.900000</ele>
                <time>2018-02-26T12:44:49.644Z</time>
            </trkpt>
            <trkpt lon="100.969717" lat="12.905996">
                <ele>72.000000</ele>
                <time>2018-02-26T12:44:51.644Z</time>
            </trkpt>
            <trkpt lon="100.969693" lat="12.906030">
                <ele>72.000000</ele>
                <time>2018-02-26T12:44:52.644Z</time>
            </trkpt>
            <trkpt lon="100.969656" lat="12.906079">
                <ele>71.900000</ele>
                <time>2018-02-26T12:44:53.644Z</time>
            </trkpt>
            <trkpt lon="100.969644" lat="12.906146">
                <ele>71.900000</ele>
                <time>2018-02-26T12:44:54.644Z</time>
            </trkpt>
            <trkpt lon="100.969625" lat="12.906202">
                <ele>71.900000</ele>
                <time>2018-02-26T12:44:55.644Z</time>
            </trkpt>
            <trkpt lon="100.969600" lat="12.906250">
                <ele>71.900000</ele>
                <time>2018-02-26T12:44:56.644Z</time>
            </trkpt>
            <trkpt lon="100.969570" lat="12.906299">
                <ele>71.900000</ele>
                <time>2018-02-26T12:44:57.644Z</time>
            </trkpt>
            <trkpt lon="100.969563" lat="12.906333">
                <ele>71.900000</ele>
                <time>2018-02-26T12:44:58.644Z</time>
            </trkpt>
            <trkpt lon="100.969604" lat="12.906366">
                <ele>71.600000</ele>
                <time>2018-02-26T12:44:59.644Z</time>
            </trkpt>
            <trkpt lon="100.969646" lat="12.906369">
                <ele>71.500000</ele>
                <time>2018-02-26T12:45:00.644Z</time>
            </trkpt>
            <trkpt lon="100.969683" lat="12.906371">
                <ele>71.400000</ele>
                <time>2018-02-26T12:45:01.644Z</time>
            </trkpt>
            <trkpt lon="100.969718" lat="12.906373">
                <ele>71.400000</ele>
                <time>2018-02-26T12:45:02.644Z</time>
            </trkpt>
            <trkpt lon="100.969752" lat="12.906377">
                <ele>71.400000</ele>
                <time>2018-02-26T12:45:03.644Z</time>
            </trkpt>
            <trkpt lon="100.969791" lat="12.906379">
                <ele>71.300000</ele>
                <time>2018-02-26T12:45:04.644Z</time>
            </trkpt>
            <trkpt lon="100.969829" lat="12.906386">
                <ele>71.300000</ele>
                <time>2018-02-26T12:45:05.644Z</time>
            </trkpt>
            <trkpt lon="100.969871" lat="12.906392">
                <ele>71.300000</ele>
                <time>2018-02-26T12:45:06.644Z</time>
            </trkpt>
            <trkpt lon="100.969910" lat="12.906401">
                <ele>71.300000</ele>
                <time>2018-02-26T12:45:07.644Z</time>
            </trkpt>
            <trkpt lon="100.969950" lat="12.906411">
                <ele>71.200000</ele>
                <time>2018-02-26T12:45:08.644Z</time>
            </trkpt>
            <trkpt lon="100.969990" lat="12.906421">
                <ele>71.200000</ele>
                <time>2018-02-26T12:45:09.644Z</time>
            </trkpt>
            <trkpt lon="100.970029" lat="12.906426">
                <ele>71.200000</ele>
                <time>2018-02-26T12:45:10.644Z</time>
            </trkpt>
            <trkpt lon="100.970068" lat="12.906431">
                <ele>71.100000</ele>
                <time>2018-02-26T12:45:11.644Z</time>
            </trkpt>
            <trkpt lon="100.970108" lat="12.906431">
                <ele>71.100000</ele>
                <time>2018-02-26T12:45:12.644Z</time>
            </trkpt>
            <trkpt lon="100.970153" lat="12.906429">
                <ele>71.100000</ele>
                <time>2018-02-26T12:45:13.644Z</time>
            </trkpt>
            <trkpt lon="100.970198" lat="12.906427">
                <ele>71.100000</ele>
                <time>2018-02-26T12:45:14.644Z</time>
            </trkpt>
            <trkpt lon="100.970241" lat="12.906431">
                <ele>71.100000</ele>
                <time>2018-02-26T12:45:15.644Z</time>
            </trkpt>
            <trkpt lon="100.970284" lat="12.906433">
                <ele>71.100000</ele>
                <time>2018-02-26T12:45:16.644Z</time>
            </trkpt>
            <trkpt lon="100.970325" lat="12.906439">
                <ele>71.200000</ele>
                <time>2018-02-26T12:45:17.644Z</time>
            </trkpt>
            <trkpt lon="100.970367" lat="12.906441">
                <ele>71.200000</ele>
                <time>2018-02-26T12:45:18.644Z</time>
            </trkpt>
            <trkpt lon="100.970411" lat="12.906443">
                <ele>71.200000</ele>
                <time>2018-02-26T12:45:19.644Z</time>
            </trkpt>
            <trkpt lon="100.970452" lat="12.906442">
                <ele>71.200000</ele>
                <time>2018-02-26T12:45:20.644Z</time>
            </trkpt>
            <trkpt lon="100.970496" lat="12.906442">
                <ele>71.200000</ele>
                <time>2018-02-26T12:45:21.644Z</time>
            </trkpt>
            <trkpt lon="100.970539" lat="12.906441">
                <ele>71.300000</ele>
                <time>2018-02-26T12:45:22.644Z</time>
            </trkpt>
            <trkpt lon="100.970585" lat="12.906440">
                <ele>71.300000</ele>
                <time>2018-02-26T12:45:23.644Z</time>
            </trkpt>
            <trkpt lon="100.970630" lat="12.906437">
                <ele>71.400000</ele>
                <time>2018-02-26T12:45:24.644Z</time>
            </trkpt>
            <trkpt lon="100.970675" lat="12.906436">
                <ele>71.400000</ele>
                <time>2018-02-26T12:45:25.644Z</time>
            </trkpt>
            <trkpt lon="100.970724" lat="12.906437">
                <ele>71.400000</ele>
                <time>2018-02-26T12:45:26.644Z</time>
            </trkpt>
            <trkpt lon="100.970772" lat="12.906439">
                <ele>71.400000</ele>
                <time>2018-02-26T12:45:27.644Z</time>
            </trkpt>
            <trkpt lon="100.970820" lat="12.906440">
                <ele>71.400000</ele>
                <time>2018-02-26T12:45:28.644Z</time>
            </trkpt>
            <trkpt lon="100.970870" lat="12.906440">
                <ele>71.400000</ele>
                <time>2018-02-26T12:45:29.644Z</time>
            </trkpt>
            <trkpt lon="100.970918" lat="12.906438">
                <ele>71.400000</ele>
                <time>2018-02-26T12:45:30.644Z</time>
            </trkpt>
            <trkpt lon="100.970971" lat="12.906435">
                <ele>71.300000</ele>
                <time>2018-02-26T12:45:31.644Z</time>
            </trkpt>
            <trkpt lon="100.971021" lat="12.906432">
                <ele>71.300000</ele>
                <time>2018-02-26T12:45:32.644Z</time>
            </trkpt>
            <trkpt lon="100.971073" lat="12.906426">
                <ele>71.300000</ele>
                <time>2018-02-26T12:45:33.644Z</time>
            </trkpt>
            <trkpt lon="100.971123" lat="12.906422">
                <ele>71.200000</ele>
                <time>2018-02-26T12:45:34.644Z</time>
            </trkpt>
            <trkpt lon="100.971177" lat="12.906417">
                <ele>71.200000</ele>
                <time>2018-02-26T12:45:35.644Z</time>
            </trkpt>
            <trkpt lon="100.971226" lat="12.906415">
                <ele>71.200000</ele>
                <time>2018-02-26T12:45:36.644Z</time>
            </trkpt>
            <trkpt lon="100.971278" lat="12.906412">
                <ele>71.100000</ele>
                <time>2018-02-26T12:45:37.644Z</time>
            </trkpt>
            <trkpt lon="100.971328" lat="12.906410">
                <ele>71.100000</ele>
                <time>2018-02-26T12:45:38.644Z</time>
            </trkpt>
            <trkpt lon="100.971378" lat="12.906405">
                <ele>71.100000</ele>
                <time>2018-02-26T12:45:39.644Z</time>
            </trkpt>
            <trkpt lon="100.971422" lat="12.906402">
                <ele>71.000000</ele>
                <time>2018-02-26T12:45:40.644Z</time>
            </trkpt>
            <trkpt lon="100.971474" lat="12.906393">
                <ele>71.000000</ele>
                <time>2018-02-26T12:45:41.644Z</time>
            </trkpt>
            <trkpt lon="100.971521" lat="12.906386">
                <ele>71.000000</ele>
                <time>2018-02-26T12:45:42.644Z</time>
            </trkpt>
            <trkpt lon="100.971572" lat="12.906380">
                <ele>71.000000</ele>
                <time>2018-02-26T12:45:43.644Z</time>
            </trkpt>
            <trkpt lon="100.971620" lat="12.906377">
                <ele>70.900000</ele>
                <time>2018-02-26T12:45:44.644Z</time>
            </trkpt>
            <trkpt lon="100.971674" lat="12.906368">
                <ele>70.900000</ele>
                <time>2018-02-26T12:45:45.644Z</time>
            </trkpt>
            <trkpt lon="100.971727" lat="12.906361">
                <ele>70.900000</ele>
                <time>2018-02-26T12:45:46.644Z</time>
            </trkpt>
            <trkpt lon="100.971784" lat="12.906354">
                <ele>70.900000</ele>
                <time>2018-02-26T12:45:47.644Z</time>
            </trkpt>
            <trkpt lon="100.971834" lat="12.906346">
                <ele>70.800000</ele>
                <time>2018-02-26T12:45:48.644Z</time>
            </trkpt>
            <trkpt lon="100.971886" lat="12.906342">
                <ele>70.800000</ele>
                <time>2018-02-26T12:45:49.644Z</time>
            </trkpt>
            <trkpt lon="100.971943" lat="12.906338">
                <ele>70.800000</ele>
                <time>2018-02-26T12:45:50.644Z</time>
            </trkpt>
            <trkpt lon="100.971999" lat="12.906332">
                <ele>70.800000</ele>
                <time>2018-02-26T12:45:51.644Z</time>
            </trkpt>
            <trkpt lon="100.972052" lat="12.906325">
                <ele>70.800000</ele>
                <time>2018-02-26T12:45:52.644Z</time>
            </trkpt>
            <trkpt lon="100.972105" lat="12.906308">
                <ele>70.800000</ele>
                <time>2018-02-26T12:45:53.644Z</time>
            </trkpt>
            <trkpt lon="100.972156" lat="12.906285">
                <ele>70.800000</ele>
                <time>2018-02-26T12:45:54.644Z</time>
            </trkpt>
            <trkpt lon="100.972211" lat="12.906257">
                <ele>70.800000</ele>
                <time>2018-02-26T12:45:55.644Z</time>
            </trkpt>
            <trkpt lon="100.972262" lat="12.906226">
                <ele>70.700000</ele>
                <time>2018-02-26T12:45:56.644Z</time>
            </trkpt>
            <trkpt lon="100.972314" lat="12.906194">
                <ele>70.700000</ele>
                <time>2018-02-26T12:45:57.644Z</time>
            </trkpt>
            <trkpt lon="100.972360" lat="12.906164">
                <ele>70.700000</ele>
                <time>2018-02-26T12:45:58.644Z</time>
            </trkpt>
            <trkpt lon="100.972405" lat="12.906132">
                <ele>70.700000</ele>
                <time>2018-02-26T12:45:59.644Z</time>
            </trkpt>
            <trkpt lon="100.972446" lat="12.906102">
                <ele>70.800000</ele>
                <time>2018-02-26T12:46:00.644Z</time>
            </trkpt>
            <trkpt lon="100.972492" lat="12.906068">
                <ele>70.800000</ele>
                <time>2018-02-26T12:46:01.644Z</time>
            </trkpt>
            <trkpt lon="100.972529" lat="12.906042">
                <ele>70.800000</ele>
                <time>2018-02-26T12:46:02.644Z</time>
            </trkpt>
            <trkpt lon="100.972570" lat="12.906033">
                <ele>70.800000</ele>
                <time>2018-02-26T12:46:03.644Z</time>
            </trkpt>
            <trkpt lon="100.972619" lat="12.906046">
                <ele>70.800000</ele>
                <time>2018-02-26T12:46:04.644Z</time>
            </trkpt>
            <trkpt lon="100.972664" lat="12.906073">
                <ele>70.900000</ele>
                <time>2018-02-26T12:46:05.644Z</time>
            </trkpt>
            <trkpt lon="100.972708" lat="12.906112">
                <ele>71.000000</ele>
                <time>2018-02-26T12:46:06.644Z</time>
            </trkpt>
            <trkpt lon="100.972745" lat="12.906154">
                <ele>71.300000</ele>
                <time>2018-02-26T12:46:07.644Z</time>
            </trkpt>
            <trkpt lon="100.972763" lat="12.906204">
                <ele>71.600000</ele>
                <time>2018-02-26T12:46:08.644Z</time>
            </trkpt>
            <trkpt lon="100.972783" lat="12.906254">
                <ele>72.000000</ele>
                <time>2018-02-26T12:46:09.644Z</time>
            </trkpt>
            <trkpt lon="100.972798" lat="12.906306">
                <ele>72.300000</ele>
                <time>2018-02-26T12:46:10.644Z</time>
            </trkpt>
            <trkpt lon="100.972814" lat="12.906362">
                <ele>72.400000</ele>
                <time>2018-02-26T12:46:11.644Z</time>
            </trkpt>
            <trkpt lon="100.972831" lat="12.906413">
                <ele>72.400000</ele>
                <time>2018-02-26T12:46:12.644Z</time>
            </trkpt>
            <trkpt lon="100.972856" lat="12.906457">
                <ele>72.500000</ele>
                <time>2018-02-26T12:46:13.644Z</time>
            </trkpt>
            <trkpt lon="100.972882" lat="12.906500">
                <ele>72.300000</ele>
                <time>2018-02-26T12:46:14.644Z</time>
            </trkpt>
            <trkpt lon="100.972894" lat="12.906551">
                <ele>72.200000</ele>
                <time>2018-02-26T12:46:15.644Z</time>
            </trkpt>
            <trkpt lon="100.972904" lat="12.906601">
                <ele>72.300000</ele>
                <time>2018-02-26T12:46:16.644Z</time>
            </trkpt>
            <trkpt lon="100.972895" lat="12.906649">
                <ele>71.900000</ele>
                <time>2018-02-26T12:46:17.644Z</time>
            </trkpt>
            <trkpt lon="100.972888" lat="12.906700">
                <ele>71.500000</ele>
                <time>2018-02-26T12:46:18.644Z</time>
            </trkpt>
            <trkpt lon="100.972876" lat="12.906758">
                <ele>71.400000</ele>
                <time>2018-02-26T12:46:19.644Z</time>
            </trkpt>
            <trkpt lon="100.972868" lat="12.906814">
                <ele>71.200000</ele>
                <time>2018-02-26T12:46:20.644Z</time>
            </trkpt>
            <trkpt lon="100.972864" lat="12.906870">
                <ele>70.800000</ele>
                <time>2018-02-26T12:46:21.644Z</time>
            </trkpt>
            <trkpt lon="100.972889" lat="12.906932">
                <ele>70.700000</ele>
                <time>2018-02-26T12:46:22.644Z</time>
            </trkpt>
            <trkpt lon="100.972923" lat="12.906984">
                <ele>70.800000</ele>
                <time>2018-02-26T12:46:23.644Z</time>
            </trkpt>
            <trkpt lon="100.972963" lat="12.907016">
                <ele>71.000000</ele>
                <time>2018-02-26T12:46:24.644Z</time>
            </trkpt>
            <trkpt lon="100.973004" lat="12.907027">
                <ele>71.000000</ele>
                <time>2018-02-26T12:46:25.644Z</time>
            </trkpt>
            <trkpt lon="100.973056" lat="12.907018">
                <ele>71.500000</ele>
                <time>2018-02-26T12:46:26.644Z</time>
            </trkpt>
            <trkpt lon="100.973127" lat="12.906999">
                <ele>72.100000</ele>
                <time>2018-02-26T12:46:27.644Z</time>
            </trkpt>
            <trkpt lon="100.973189" lat="12.906986">
                <ele>72.500000</ele>
                <time>2018-02-26T12:46:28.644Z</time>
            </trkpt>
            <trkpt lon="100.973251" lat="12.906979">
                <ele>73.400000</ele>
                <time>2018-02-26T12:46:29.644Z</time>
            </trkpt>
            <trkpt lon="100.973313" lat="12.906975">
                <ele>73.700000</ele>
                <time>2018-02-26T12:46:30.644Z</time>
            </trkpt>
            <trkpt lon="100.973379" lat="12.906971">
                <ele>74.300000</ele>
                <time>2018-02-26T12:46:31.644Z</time>
            </trkpt>
            <trkpt lon="100.973437" lat="12.906991">
                <ele>74.700000</ele>
                <time>2018-02-26T12:46:32.644Z</time>
            </trkpt>
            <trkpt lon="100.973484" lat="12.907032">
                <ele>75.000000</ele>
                <time>2018-02-26T12:46:33.644Z</time>
            </trkpt>
            <trkpt lon="100.973509" lat="12.907079">
                <ele>75.400000</ele>
                <time>2018-02-26T12:46:34.644Z</time>
            </trkpt>
            <trkpt lon="100.973530" lat="12.907131">
                <ele>75.400000</ele>
                <time>2018-02-26T12:46:35.644Z</time>
            </trkpt>
            <trkpt lon="100.973549" lat="12.907186">
                <ele>75.400000</ele>
                <time>2018-02-26T12:46:36.644Z</time>
            </trkpt>
            <trkpt lon="100.973597" lat="12.907242">
                <ele>75.000000</ele>
                <time>2018-02-26T12:46:37.644Z</time>
            </trkpt>
            <trkpt lon="100.973673" lat="12.907260">
                <ele>75.100000</ele>
                <time>2018-02-26T12:46:38.644Z</time>
            </trkpt>
            <trkpt lon="100.973744" lat="12.907262">
                <ele>75.200000</ele>
                <time>2018-02-26T12:46:39.644Z</time>
            </trkpt>
            <trkpt lon="100.973809" lat="12.907261">
                <ele>75.300000</ele>
                <time>2018-02-26T12:46:40.644Z</time>
            </trkpt>
            <trkpt lon="100.973876" lat="12.907258">
                <ele>75.400000</ele>
                <time>2018-02-26T12:46:41.644Z</time>
            </trkpt>
            <trkpt lon="100.973945" lat="12.907254">
                <ele>75.500000</ele>
                <time>2018-02-26T12:46:42.644Z</time>
            </trkpt>
            <trkpt lon="100.974015" lat="12.907250">
                <ele>75.600000</ele>
                <time>2018-02-26T12:46:43.644Z</time>
            </trkpt>
            <trkpt lon="100.974088" lat="12.907245">
                <ele>75.800000</ele>
                <time>2018-02-26T12:46:44.644Z</time>
            </trkpt>
            <trkpt lon="100.974158" lat="12.907242">
                <ele>76.300000</ele>
                <time>2018-02-26T12:46:45.644Z</time>
            </trkpt>
            <trkpt lon="100.974227" lat="12.907238">
                <ele>76.900000</ele>
                <time>2018-02-26T12:46:46.644Z</time>
            </trkpt>
            <trkpt lon="100.974298" lat="12.907232">
                <ele>77.400000</ele>
                <time>2018-02-26T12:46:47.644Z</time>
            </trkpt>
            <trkpt lon="100.974369" lat="12.907228">
                <ele>77.800000</ele>
                <time>2018-02-26T12:46:48.644Z</time>
            </trkpt>
            <trkpt lon="100.974436" lat="12.907225">
                <ele>77.900000</ele>
                <time>2018-02-26T12:46:49.644Z</time>
            </trkpt>
            <trkpt lon="100.974498" lat="12.907215">
                <ele>77.800000</ele>
                <time>2018-02-26T12:46:50.644Z</time>
            </trkpt>
            <trkpt lon="100.974563" lat="12.907202">
                <ele>77.700000</ele>
                <time>2018-02-26T12:46:51.644Z</time>
            </trkpt>
            <trkpt lon="100.974621" lat="12.907188">
                <ele>77.700000</ele>
                <time>2018-02-26T12:46:52.644Z</time>
            </trkpt>
            <trkpt lon="100.974670" lat="12.907163">
                <ele>77.700000</ele>
                <time>2018-02-26T12:46:53.644Z</time>
            </trkpt>
            <trkpt lon="100.974706" lat="12.907116">
                <ele>77.600000</ele>
                <time>2018-02-26T12:46:54.644Z</time>
            </trkpt>
            <trkpt lon="100.974726" lat="12.907061">
                <ele>77.700000</ele>
                <time>2018-02-26T12:46:55.644Z</time>
            </trkpt>
            <trkpt lon="100.974742" lat="12.907005">
                <ele>77.800000</ele>
                <time>2018-02-26T12:46:56.644Z</time>
            </trkpt>
            <trkpt lon="100.974755" lat="12.906953">
                <ele>77.800000</ele>
                <time>2018-02-26T12:46:57.644Z</time>
            </trkpt>
            <trkpt lon="100.974751" lat="12.906911">
                <ele>77.800000</ele>
                <time>2018-02-26T12:46:58.644Z</time>
            </trkpt>
            <trkpt lon="100.974722" lat="12.906881">
                <ele>77.900000</ele>
                <time>2018-02-26T12:46:59.644Z</time>
            </trkpt>
            <trkpt lon="100.974688" lat="12.906854">
                <ele>77.900000</ele>
                <time>2018-02-26T12:47:00.644Z</time>
            </trkpt>
            <trkpt lon="100.974663" lat="12.906835">
                <ele>77.900000</ele>
                <time>2018-02-26T12:47:01.644Z</time>
            </trkpt>
        </trkseg>
    </trk>
</gpx>